<?xml version='1.0' encoding='UTF-8'?><gpx version="1.1" creator="JPX - https://github.com/jenetics/jpx" xmlns="http://www.topografix.com/GPX/1/1"><trk><trkseg><trkpt lat="43.50480004444402" lon="10.618803440051273"><ele>312.0</ele><time>2026-04-19T07:48:03.999Z</time></trkpt><trkpt lat="43.504746244462815" lon="10.61887556219475"><ele>312.0</ele><time>2026-04-19T07:48:07.999Z</time></trkpt><trkpt lat="43.50467920590134" lon="10.61892635255926"><ele>312.0</ele><time>2026-04-19T07:48:10.999Z</time></trkpt><trkpt lat="43.50461472498695" lon="10.618973987722494"><ele>312.0</ele><time>2026-04-19T07:48:13.999Z</time></trkpt><trkpt lat="43.50456176136953" lon="10.619025144230934"><ele>312.0</ele><time>2026-04-19T07:48:15.999Z</time></trkpt><trkpt lat="43.50450280689757" lon="10.619078749344608"><ele>312.0</ele><time>2026-04-19T07:48:19.998Z</time></trkpt><trkpt lat="43.50441674831297" lon="10.619163947000336"><ele>311.8333333333333</ele><time>2026-04-19T07:48:22.998Z</time></trkpt><trkpt lat="43.504383427578006" lon="10.619252002931388"><ele>311.6666666666667</ele><time>2026-04-19T07:48:25.998Z</time></trkpt><trkpt lat="43.504327542888305" lon="10.619342936081352"><ele>311.5</ele><time>2026-04-19T07:48:28.998Z</time></trkpt><trkpt lat="43.504285777870834" lon="10.619430414359538"><ele>311.33333333333337</ele><time>2026-04-19T07:48:33.998Z</time></trkpt><trkpt lat="43.504307113776626" lon="10.61953438367745"><ele>311.1666666666667</ele><time>2026-04-19T07:48:36.998Z</time></trkpt><trkpt lat="43.50434727001352" lon="10.619657320694454"><ele>311.0</ele><time>2026-04-19T07:48:39.998Z</time></trkpt><trkpt lat="43.50438046344392" lon="10.619755822453454"><ele>311.0</ele><time>2026-04-19T07:48:43.998Z</time></trkpt><trkpt lat="43.50440812112109" lon="10.619844547229075"><ele>311.0</ele><time>2026-04-19T07:48:45.998Z</time></trkpt><trkpt lat="43.50445970395511" lon="10.61993032954805"><ele>311.0</ele><time>2026-04-19T07:48:48.999Z</time></trkpt><trkpt lat="43.504491980826586" lon="10.620028439887916"><ele>311.0</ele><time>2026-04-19T07:48:50.999Z</time></trkpt><trkpt lat="43.50452332124299" lon="10.620108969531447"><ele>311.0</ele><time>2026-04-19T07:48:53.999Z</time></trkpt><trkpt lat="43.50458480738012" lon="10.62020989911244"><ele>311.0</ele><time>2026-04-19T07:48:57.999Z</time></trkpt><trkpt lat="43.50465285902328" lon="10.620239593488893"><ele>310.6</ele><time>2026-04-19T07:48:59.999Z</time></trkpt><trkpt lat="43.504729249254254" lon="10.620235933718487"><ele>310.20000000000005</ele><time>2026-04-19T07:49:01.999Z</time></trkpt><trkpt lat="43.50479135983509" lon="10.620189152805949"><ele>309.79999999999995</ele><time>2026-04-19T07:49:03.999Z</time></trkpt><trkpt lat="43.50486583625029" lon="10.62008113053377"><ele>309.4</ele><time>2026-04-19T07:49:05.999Z</time></trkpt><trkpt lat="43.504935835442886" lon="10.619965713465364"><ele>309.0</ele><time>2026-04-19T07:49:07.999Z</time></trkpt><trkpt lat="43.50501112241112" lon="10.619871655682534"><ele>309.0</ele><time>2026-04-19T07:49:09.999Z</time></trkpt><trkpt lat="43.50505843716177" lon="10.619768244135093"><ele>309.0</ele><time>2026-04-19T07:49:11.999Z</time></trkpt><trkpt lat="43.50509059353025" lon="10.619668962187205"><ele>309.0</ele><time>2026-04-19T07:49:13.999Z</time></trkpt><trkpt lat="43.50510886510741" lon="10.619560438949629"><ele>309.0</ele><time>2026-04-19T07:49:14.999Z</time></trkpt><trkpt lat="43.505157116203556" lon="10.619467994170847"><ele>309.0</ele><time>2026-04-19T07:49:17.999Z</time></trkpt><trkpt lat="43.50520478954329" lon="10.619360783904868"><ele>309.0</ele><time>2026-04-19T07:49:19.999Z</time></trkpt><trkpt lat="43.50527518860446" lon="10.619350696021726"><ele>309.59999999999997</ele><time>2026-04-19T07:49:23.999Z</time></trkpt><trkpt lat="43.505350222337505" lon="10.619386350220203"><ele>310.2</ele><time>2026-04-19T07:49:25.999Z</time></trkpt><trkpt lat="43.50547067396735" lon="10.619402247579012"><ele>310.79999999999995</ele><time>2026-04-19T07:49:27.999Z</time></trkpt><trkpt lat="43.50553657008169" lon="10.61944305248146"><ele>311.4</ele><time>2026-04-19T07:49:29.999Z</time></trkpt><trkpt lat="43.505631256738674" lon="10.619461735759044"><ele>312.0</ele><time>2026-04-19T07:49:31.999Z</time></trkpt><trkpt lat="43.505709554736505" lon="10.619507553936314"><ele>309.6</ele><time>2026-04-19T07:49:33.999Z</time></trkpt><trkpt lat="43.50583669353653" lon="10.619473187076498"><ele>307.2</ele><time>2026-04-19T07:49:35.999Z</time></trkpt><trkpt lat="43.50589742537511" lon="10.619446842766076"><ele>304.8</ele><time>2026-04-19T07:49:36.999Z</time></trkpt><trkpt lat="43.50598719534547" lon="10.619404415649365"><ele>302.4</ele><time>2026-04-19T07:49:38.999Z</time></trkpt><trkpt lat="43.50608582690008" lon="10.619394599004961"><ele>300.0</ele><time>2026-04-19T07:49:40.999Z</time></trkpt><trkpt lat="43.50618187921021" lon="10.619345897753716"><ele>297.8</ele><time>2026-04-19T07:49:42.999Z</time></trkpt><trkpt lat="43.50629192278407" lon="10.619337660634693"><ele>295.6</ele><time>2026-04-19T07:49:44.999Z</time></trkpt><trkpt lat="43.50639071366931" lon="10.619342979485754"><ele>293.4</ele><time>2026-04-19T07:49:46.999Z</time></trkpt><trkpt lat="43.50651301860337" lon="10.619357175545943"><ele>291.2</ele><time>2026-04-19T07:49:48.999Z</time></trkpt><trkpt lat="43.506579233493824" lon="10.619353756612444"><ele>289.0</ele><time>2026-04-19T07:49:49.999Z</time></trkpt><trkpt lat="43.5066740481868" lon="10.619323915649419"><ele>289.0</ele><time>2026-04-19T07:49:51.999Z</time></trkpt><trkpt lat="43.50676392915918" lon="10.61928549523396"><ele>289.0</ele><time>2026-04-19T07:49:53.999Z</time></trkpt><trkpt lat="43.50684354065296" lon="10.619249234944139"><ele>289.0</ele><time>2026-04-19T07:49:55.999Z</time></trkpt><trkpt lat="43.50690245537858" lon="10.619209278525627"><ele>289.0</ele><time>2026-04-19T07:49:56.999Z</time></trkpt><trkpt lat="43.506954322511376" lon="10.61914601408758"><ele>289.0</ele><time>2026-04-19T07:49:57.999Z</time></trkpt><trkpt lat="43.50699909635424" lon="10.619080507139133"><ele>289.0</ele><time>2026-04-19T07:49:58.999Z</time></trkpt><trkpt lat="43.50704848720937" lon="10.619011997063945"><ele>289.0</ele><time>2026-04-19T07:49:59.999Z</time></trkpt><trkpt lat="43.50713277554986" lon="10.618923413027296"><ele>287.0</ele><time>2026-04-19T07:50:01.999Z</time></trkpt><trkpt lat="43.50721462379911" lon="10.618858510112371"><ele>285.0</ele><time>2026-04-19T07:50:03.999Z</time></trkpt><trkpt lat="43.50728705444107" lon="10.618809393357557"><ele>283.0</ele><time>2026-04-19T07:50:04.999Z</time></trkpt><trkpt lat="43.50739013036483" lon="10.618787234423927"><ele>281.0</ele><time>2026-04-19T07:50:06.999Z</time></trkpt><trkpt lat="43.50749841872335" lon="10.618720035309481"><ele>279.0</ele><time>2026-04-19T07:50:08.999Z</time></trkpt><trkpt lat="43.5076038732656" lon="10.618661273309195"><ele>279.0</ele><time>2026-04-19T07:50:10.999Z</time></trkpt><trkpt lat="43.50768927955062" lon="10.618566890095368"><ele>279.0</ele><time>2026-04-19T07:50:12.999Z</time></trkpt><trkpt lat="43.50776783188489" lon="10.618464655954893"><ele>279.0</ele><time>2026-04-19T07:50:14.999Z</time></trkpt><trkpt lat="43.50785453554682" lon="10.618366073634725"><ele>279.0</ele><time>2026-04-19T07:50:16.999Z</time></trkpt><trkpt lat="43.50791245873305" lon="10.618233683249723"><ele>279.0</ele><time>2026-04-19T07:50:18.999Z</time></trkpt><trkpt lat="43.50799245251328" lon="10.61811674659662"><ele>279.0</ele><time>2026-04-19T07:50:20.999Z</time></trkpt><trkpt lat="43.50802037701425" lon="10.618038328189014"><ele>279.0</ele><time>2026-04-19T07:50:21.999Z</time></trkpt><trkpt lat="43.50805196313083" lon="10.617957830129074"><ele>279.0</ele><time>2026-04-19T07:50:22.999Z</time></trkpt><trkpt lat="43.508083596765765" lon="10.617878206177117"><ele>279.0</ele><time>2026-04-19T07:50:23.999Z</time></trkpt><trkpt lat="43.508112727700066" lon="10.617800880455132"><ele>279.0</ele><time>2026-04-19T07:50:24.999Z</time></trkpt><trkpt lat="43.50816172326333" lon="10.617648899123884"><ele>279.0</ele><time>2026-04-19T07:50:26.999Z</time></trkpt><trkpt lat="43.508206890640366" lon="10.617512463416231"><ele>281.0</ele><time>2026-04-19T07:50:28.999Z</time></trkpt><trkpt lat="43.5082431347935" lon="10.617380195929895"><ele>283.0</ele><time>2026-04-19T07:50:30.999Z</time></trkpt><trkpt lat="43.50828469377369" lon="10.617253343787244"><ele>285.0</ele><time>2026-04-19T07:50:32.999Z</time></trkpt><trkpt lat="43.50834541512933" lon="10.617129271880604"><ele>287.0</ele><time>2026-04-19T07:50:34.999Z</time></trkpt><trkpt lat="43.50842878061221" lon="10.617015770597039"><ele>289.0</ele><time>2026-04-19T07:50:36.999Z</time></trkpt><trkpt lat="43.50850470923474" lon="10.616905514146403"><ele>289.59999999999997</ele><time>2026-04-19T07:50:38.999Z</time></trkpt><trkpt lat="43.508584860511085" lon="10.61680426372893"><ele>290.2</ele><time>2026-04-19T07:50:40.999Z</time></trkpt><trkpt lat="43.50865878187391" lon="10.616707163454544"><ele>290.79999999999995</ele><time>2026-04-19T07:50:42.999Z</time></trkpt><trkpt lat="43.50873316765837" lon="10.616622071740686"><ele>291.4</ele><time>2026-04-19T07:50:44.999Z</time></trkpt><trkpt lat="43.50880088614415" lon="10.616537884783005"><ele>292.0</ele><time>2026-04-19T07:50:46.999Z</time></trkpt><trkpt lat="43.508859020297116" lon="10.616457031616298"><ele>292.0</ele><time>2026-04-19T07:50:48.999Z</time></trkpt><trkpt lat="43.50893550512471" lon="10.616411242779995"><ele>292.0</ele><time>2026-04-19T07:50:51.999Z</time></trkpt><trkpt lat="43.50900248118911" lon="10.616399744486992"><ele>292.0</ele><time>2026-04-19T07:51:01.998Z</time></trkpt><trkpt lat="43.50904298855764" lon="10.616352674143663"><ele>292.0</ele><time>2026-04-19T07:58:48Z</time></trkpt><trkpt lat="43.50904039444592" lon="10.616265363353778"><ele>292.0</ele><time>2026-04-19T07:58:51Z</time></trkpt><trkpt lat="43.509043994589256" lon="10.616155412908938"><ele>292.0</ele><time>2026-04-19T07:58:54Z</time></trkpt><trkpt lat="43.50906922120353" lon="10.616052816279113"><ele>292.0</ele><time>2026-04-19T07:58:58Z</time></trkpt><trkpt lat="43.509008340851906" lon="10.616016104955648"><ele>292.3333333333333</ele><time>2026-04-19T07:58:59Z</time></trkpt><trkpt lat="43.50907336648471" lon="10.616020142112097"><ele>292.66666666666663</ele><time>2026-04-19T07:59:00Z</time></trkpt><trkpt lat="43.50898466623106" lon="10.615985839677968"><ele>293.0</ele><time>2026-04-19T07:59:01Z</time></trkpt><trkpt lat="43.50893675017956" lon="10.61589901336995"><ele>293.3333333333333</ele><time>2026-04-19T07:59:09Z</time></trkpt><trkpt lat="43.5089175297667" lon="10.615771082044725"><ele>293.6666666666667</ele><time>2026-04-19T07:59:12Z</time></trkpt><trkpt lat="43.50890479230014" lon="10.615658396208223"><ele>294.0</ele><time>2026-04-19T07:59:14Z</time></trkpt><trkpt lat="43.50889042324704" lon="10.615552302480141"><ele>294.0</ele><time>2026-04-19T07:59:16Z</time></trkpt><trkpt lat="43.508865563109964" lon="10.615447762243118"><ele>294.0</ele><time>2026-04-19T07:59:18Z</time></trkpt><trkpt lat="43.50882132082737" lon="10.615320525975465"><ele>294.0</ele><time>2026-04-19T07:59:20Z</time></trkpt><trkpt lat="43.50877280443945" lon="10.615201652925016"><ele>294.0</ele><time>2026-04-19T07:59:22Z</time></trkpt><trkpt lat="43.50871533847908" lon="10.615096261521497"><ele>294.0</ele><time>2026-04-19T07:59:24Z</time></trkpt><trkpt lat="43.50864214468497" lon="10.6150310827433"><ele>296.0</ele><time>2026-04-19T07:59:26Z</time></trkpt><trkpt lat="43.50859112090565" lon="10.615083479681516"><ele>298.0</ele><time>2026-04-19T07:59:27Z</time></trkpt><trkpt lat="43.508542038576984" lon="10.615159377389311"><ele>300.0</ele><time>2026-04-19T07:59:28Z</time></trkpt><trkpt lat="43.50849465782148" lon="10.615257711148724"><ele>302.0</ele><time>2026-04-19T07:59:30Z</time></trkpt><trkpt lat="43.50844384724626" lon="10.615336010776044"><ele>304.0</ele><time>2026-04-19T07:59:32Z</time></trkpt><trkpt lat="43.50837173633917" lon="10.615431206178135"><ele>306.0</ele><time>2026-04-19T07:59:34Z</time></trkpt><trkpt lat="43.508281474939274" lon="10.615511608733676"><ele>306.0</ele><time>2026-04-19T07:59:36Z</time></trkpt><trkpt lat="43.508184060728745" lon="10.6155634005775"><ele>306.0</ele><time>2026-04-19T07:59:38Z</time></trkpt><trkpt lat="43.50807280023018" lon="10.615610571126766"><ele>306.0</ele><time>2026-04-19T07:59:40Z</time></trkpt><trkpt lat="43.508001863368854" lon="10.615632859118357"><ele>306.0</ele><time>2026-04-19T07:59:41Z</time></trkpt><trkpt lat="43.50793884304896" lon="10.61564298573526"><ele>306.0</ele><time>2026-04-19T07:59:42Z</time></trkpt><trkpt lat="43.507798231652274" lon="10.615686930215716"><ele>308.0</ele><time>2026-04-19T07:59:44Z</time></trkpt><trkpt lat="43.5077141041185" lon="10.615756809213142"><ele>310.0</ele><time>2026-04-19T07:59:46Z</time></trkpt><trkpt lat="43.50760193171695" lon="10.615821937645842"><ele>312.0</ele><time>2026-04-19T07:59:48Z</time></trkpt><trkpt lat="43.50753892342034" lon="10.615858099924896"><ele>314.0</ele><time>2026-04-19T07:59:49Z</time></trkpt><trkpt lat="43.507427725162884" lon="10.61593491118207"><ele>316.0</ele><time>2026-04-19T07:59:51Z</time></trkpt><trkpt lat="43.50732393907872" lon="10.615959538748157"><ele>316.0</ele><time>2026-04-19T07:59:53Z</time></trkpt><trkpt lat="43.507218289696134" lon="10.615977809610282"><ele>316.0</ele><time>2026-04-19T07:59:56Z</time></trkpt><trkpt lat="43.50713231477436" lon="10.615993979852473"><ele>316.0</ele><time>2026-04-19T07:59:58Z</time></trkpt><trkpt lat="43.50705333929858" lon="10.6160042430364"><ele>316.0</ele><time>2026-04-19T07:59:59Z</time></trkpt><trkpt lat="43.50695594401252" lon="10.616021513879204"><ele>316.0</ele><time>2026-04-19T08:00:01Z</time></trkpt><trkpt lat="43.50682893881959" lon="10.616036106969663"><ele>317.75</ele><time>2026-04-19T08:00:03Z</time></trkpt><trkpt lat="43.50672137871884" lon="10.61602081677091"><ele>319.5</ele><time>2026-04-19T08:00:05Z</time></trkpt><trkpt lat="43.50664959063178" lon="10.615894874523592"><ele>321.25</ele><time>2026-04-19T08:00:07Z</time></trkpt><trkpt lat="43.506569669069414" lon="10.615786282413804"><ele>323.0</ele><time>2026-04-19T08:00:09Z</time></trkpt><trkpt lat="43.50648594532119" lon="10.615658308020414"><ele>323.0</ele><time>2026-04-19T08:00:11Z</time></trkpt><trkpt lat="43.50644428391049" lon="10.615588776529387"><ele>323.0</ele><time>2026-04-19T08:00:12Z</time></trkpt><trkpt lat="43.50637850209433" lon="10.61545714305354"><ele>323.0</ele><time>2026-04-19T08:00:14Z</time></trkpt><trkpt lat="43.50630965047939" lon="10.615314188612823"><ele>323.0</ele><time>2026-04-19T08:00:16Z</time></trkpt><trkpt lat="43.50626678607446" lon="10.61522266405948"><ele>323.0</ele><time>2026-04-19T08:00:17Z</time></trkpt><trkpt lat="43.50618484032487" lon="10.61506120770549"><ele>324.5</ele><time>2026-04-19T08:00:19Z</time></trkpt><trkpt lat="43.50613308509946" lon="10.614985567657154"><ele>326.0</ele><time>2026-04-19T08:00:21Z</time></trkpt><trkpt lat="43.5060928614169" lon="10.614889811746067"><ele>327.5</ele><time>2026-04-19T08:00:23Z</time></trkpt><trkpt lat="43.50605492279663" lon="10.61479805613771"><ele>329.0</ele><time>2026-04-19T08:00:25Z</time></trkpt><trkpt lat="43.506015013288575" lon="10.614705433714503"><ele>330.5</ele><time>2026-04-19T08:00:28Z</time></trkpt><trkpt lat="43.50598255417018" lon="10.61460534720035"><ele>332.0</ele><time>2026-04-19T08:00:54Z</time></trkpt><trkpt lat="43.505973631469864" lon="10.614493560360433"><ele>331.83333333333337</ele><time>2026-04-19T08:00:55Z</time></trkpt><trkpt lat="43.50592742673631" lon="10.614336857056617"><ele>331.6666666666667</ele><time>2026-04-19T08:00:57Z</time></trkpt><trkpt lat="43.505913720319704" lon="10.614249578934182"><ele>331.5</ele><time>2026-04-19T08:00:58Z</time></trkpt><trkpt lat="43.50590016950747" lon="10.61414663078842"><ele>331.3333333333333</ele><time>2026-04-19T08:01:00Z</time></trkpt><trkpt lat="43.505883269558446" lon="10.614059908654841"><ele>331.16666666666663</ele><time>2026-04-19T08:01:01Z</time></trkpt><trkpt lat="43.505871030415335" lon="10.613941067035176"><ele>331.0</ele><time>2026-04-19T08:01:02Z</time></trkpt><trkpt lat="43.505846939955816" lon="10.61379646445953"><ele>331.0</ele><time>2026-04-19T08:01:04Z</time></trkpt><trkpt lat="43.5058182842873" lon="10.613698499516804"><ele>331.0</ele><time>2026-04-19T08:01:05Z</time></trkpt><trkpt lat="43.50578184342845" lon="10.613536890589145"><ele>331.0</ele><time>2026-04-19T08:01:07Z</time></trkpt><trkpt lat="43.50577504878939" lon="10.613448234608347"><ele>331.0</ele><time>2026-04-19T08:01:08Z</time></trkpt><trkpt lat="43.50572105632254" lon="10.613258833087638"><ele>331.0</ele><time>2026-04-19T08:01:10Z</time></trkpt><trkpt lat="43.505694825914816" lon="10.613136618026244"><ele>329.8</ele><time>2026-04-19T08:01:11Z</time></trkpt><trkpt lat="43.50565168228126" lon="10.61302990470836"><ele>328.6</ele><time>2026-04-19T08:01:12Z</time></trkpt><trkpt lat="43.505581976882986" lon="10.61288930061174"><ele>327.4</ele><time>2026-04-19T08:01:14Z</time></trkpt><trkpt lat="43.50549946841744" lon="10.612813338392897"><ele>326.2</ele><time>2026-04-19T08:01:15Z</time></trkpt><trkpt lat="43.50541958547222" lon="10.612736271036788"><ele>325.0</ele><time>2026-04-19T08:01:16Z</time></trkpt><trkpt lat="43.505365284995804" lon="10.612636104673992"><ele>324.5</ele><time>2026-04-19T08:01:17Z</time></trkpt><trkpt lat="43.50530313777061" lon="10.612566023204062"><ele>324.0</ele><time>2026-04-19T08:01:18Z</time></trkpt><trkpt lat="43.50525109362602" lon="10.612471034331026"><ele>323.5</ele><time>2026-04-19T08:01:19Z</time></trkpt><trkpt lat="43.50521549451188" lon="10.612377822127156"><ele>323.0</ele><time>2026-04-19T08:01:20Z</time></trkpt><trkpt lat="43.50515063942168" lon="10.61233561008831"><ele>322.5</ele><time>2026-04-19T08:01:21Z</time></trkpt><trkpt lat="43.505089896498376" lon="10.612298637178737"><ele>322.0</ele><time>2026-04-19T08:01:22Z</time></trkpt><trkpt lat="43.50494858501015" lon="10.612276829000944"><ele>322.0</ele><time>2026-04-19T08:01:24Z</time></trkpt><trkpt lat="43.504877299811554" lon="10.61226741379122"><ele>322.0</ele><time>2026-04-19T08:01:25Z</time></trkpt><trkpt lat="43.504807182146195" lon="10.612263720138902"><ele>322.0</ele><time>2026-04-19T08:01:26Z</time></trkpt><trkpt lat="43.50473683539562" lon="10.612270176223106"><ele>322.0</ele><time>2026-04-19T08:01:27Z</time></trkpt><trkpt lat="43.50466569227698" lon="10.612281309182125"><ele>322.0</ele><time>2026-04-19T08:01:28Z</time></trkpt><trkpt lat="43.50453698431259" lon="10.612265720507407"><ele>322.0</ele><time>2026-04-19T08:01:30Z</time></trkpt><trkpt lat="43.504475057902" lon="10.612244600763349"><ele>321.5</ele><time>2026-04-19T08:01:31Z</time></trkpt><trkpt lat="43.504425741249044" lon="10.612189184637918"><ele>321.0</ele><time>2026-04-19T08:01:32Z</time></trkpt><trkpt lat="43.50435426322275" lon="10.612149339878552"><ele>320.5</ele><time>2026-04-19T08:01:33Z</time></trkpt><trkpt lat="43.504281076248084" lon="10.612079176318291"><ele>320.0</ele><time>2026-04-19T08:01:34Z</time></trkpt><trkpt lat="43.5042161628233" lon="10.612004551046766"><ele>319.5</ele><time>2026-04-19T08:01:35Z</time></trkpt><trkpt lat="43.50414882158984" lon="10.611921523128194"><ele>319.0</ele><time>2026-04-19T08:01:36Z</time></trkpt><trkpt lat="43.504086329519446" lon="10.611841607078528"><ele>319.0</ele><time>2026-04-19T08:01:37Z</time></trkpt><trkpt lat="43.5040275831034" lon="10.611776509692138"><ele>319.0</ele><time>2026-04-19T08:01:38Z</time></trkpt><trkpt lat="43.503953919458546" lon="10.611691673051933"><ele>319.0</ele><time>2026-04-19T08:01:39Z</time></trkpt><trkpt lat="43.50387612173783" lon="10.611621670011308"><ele>319.0</ele><time>2026-04-19T08:01:40Z</time></trkpt><trkpt lat="43.50379537356196" lon="10.611565970289234"><ele>319.0</ele><time>2026-04-19T08:01:41Z</time></trkpt><trkpt lat="43.503718505575435" lon="10.611491498187322"><ele>319.0</ele><time>2026-04-19T08:01:42Z</time></trkpt><trkpt lat="43.50362442698363" lon="10.611447705675229"><ele>320.3333333333333</ele><time>2026-04-19T08:01:43Z</time></trkpt><trkpt lat="43.5035435989466" lon="10.611417731715504"><ele>321.66666666666663</ele><time>2026-04-19T08:01:44Z</time></trkpt><trkpt lat="43.50346130562168" lon="10.611406433306747"><ele>323.0</ele><time>2026-04-19T08:01:45Z</time></trkpt><trkpt lat="43.50337652543418" lon="10.611381189560584"><ele>324.3333333333333</ele><time>2026-04-19T08:01:46Z</time></trkpt><trkpt lat="43.503298066713036" lon="10.611377975697806"><ele>325.6666666666667</ele><time>2026-04-19T08:01:47Z</time></trkpt><trkpt lat="43.50322094169586" lon="10.611383157318041"><ele>327.0</ele><time>2026-04-19T08:01:48Z</time></trkpt><trkpt lat="43.50315648161826" lon="10.611416507034058"><ele>327.0</ele><time>2026-04-19T08:01:49Z</time></trkpt><trkpt lat="43.503089569427836" lon="10.611467473357953"><ele>327.0</ele><time>2026-04-19T08:01:50Z</time></trkpt><trkpt lat="43.50297510480768" lon="10.611556957201984"><ele>327.0</ele><time>2026-04-19T08:01:52Z</time></trkpt><trkpt lat="43.5029175701698" lon="10.611600559705899"><ele>327.0</ele><time>2026-04-19T08:01:53Z</time></trkpt><trkpt lat="43.50282473848472" lon="10.611552121095698"><ele>327.0</ele><time>2026-04-19T08:01:55Z</time></trkpt><trkpt lat="43.50281664834622" lon="10.611416462884648"><ele>327.6666666666667</ele><time>2026-04-19T08:01:57Z</time></trkpt><trkpt lat="43.502855948529984" lon="10.611327183827965"><ele>328.3333333333333</ele><time>2026-04-19T08:01:58Z</time></trkpt><trkpt lat="43.50291264999119" lon="10.611225025366545"><ele>329.0</ele><time>2026-04-19T08:01:59Z</time></trkpt><trkpt lat="43.502984017280916" lon="10.611134669559647"><ele>329.66666666666663</ele><time>2026-04-19T08:02:00Z</time></trkpt><trkpt lat="43.503040160661946" lon="10.611060280900523"><ele>330.3333333333333</ele><time>2026-04-19T08:02:01Z</time></trkpt><trkpt lat="43.503092366423985" lon="10.610997457707606"><ele>331.0</ele><time>2026-04-19T08:02:02Z</time></trkpt><trkpt lat="43.50313609806614" lon="10.610865522994454"><ele>329.4</ele><time>2026-04-19T08:02:04Z</time></trkpt><trkpt lat="43.503140106381935" lon="10.610714386435186"><ele>327.8</ele><time>2026-04-19T08:02:06Z</time></trkpt><trkpt lat="43.50311369681233" lon="10.610597987120189"><ele>326.2</ele><time>2026-04-19T08:02:08Z</time></trkpt><trkpt lat="43.50305303956385" lon="10.610457782742666"><ele>324.59999999999997</ele><time>2026-04-19T08:02:10Z</time></trkpt><trkpt lat="43.50301426251981" lon="10.610366361712247"><ele>323.0</ele><time>2026-04-19T08:02:11Z</time></trkpt><trkpt lat="43.50298207118554" lon="10.610265275462451"><ele>322.5</ele><time>2026-04-19T08:02:12Z</time></trkpt><trkpt lat="43.50296249055482" lon="10.610178273884982"><ele>322.0</ele><time>2026-04-19T08:02:13Z</time></trkpt><trkpt lat="43.50297012264875" lon="10.610018735649252"><ele>321.5</ele><time>2026-04-19T08:02:15Z</time></trkpt><trkpt lat="43.50298195812046" lon="10.609916860394614"><ele>321.0</ele><time>2026-04-19T08:02:16Z</time></trkpt><trkpt lat="43.50298514354913" lon="10.60982585544428"><ele>320.5</ele><time>2026-04-19T08:02:17Z</time></trkpt><trkpt lat="43.502970627778616" lon="10.609731592489744"><ele>320.0</ele><time>2026-04-19T08:02:18Z</time></trkpt><trkpt lat="43.50294463746618" lon="10.609645570526398"><ele>322.1666666666667</ele><time>2026-04-19T08:02:19Z</time></trkpt><trkpt lat="43.50290968545791" lon="10.6095570356153"><ele>324.33333333333337</ele><time>2026-04-19T08:02:20Z</time></trkpt><trkpt lat="43.50284691856872" lon="10.609485694278948"><ele>326.5</ele><time>2026-04-19T08:02:21Z</time></trkpt><trkpt lat="43.502783304751844" lon="10.609428367152658"><ele>328.6666666666667</ele><time>2026-04-19T08:02:22Z</time></trkpt><trkpt lat="43.50267357767682" lon="10.609336150812354"><ele>330.8333333333333</ele><time>2026-04-19T08:02:24Z</time></trkpt><trkpt lat="43.50259922422177" lon="10.60931684487903"><ele>333.0</ele><time>2026-04-19T08:02:25Z</time></trkpt><trkpt lat="43.502520857435876" lon="10.60932619530714"><ele>333.0</ele><time>2026-04-19T08:02:25.999Z</time></trkpt><trkpt lat="43.50244128592317" lon="10.609348205698005"><ele>333.0</ele><time>2026-04-19T08:02:26.999Z</time></trkpt><trkpt lat="43.502369081391954" lon="10.609383666289911"><ele>333.0</ele><time>2026-04-19T08:02:27.999Z</time></trkpt><trkpt lat="43.50229838856926" lon="10.609426957381709"><ele>333.0</ele><time>2026-04-19T08:02:28.999Z</time></trkpt><trkpt lat="43.502226357706924" lon="10.60948276399903"><ele>333.0</ele><time>2026-04-19T08:02:29.999Z</time></trkpt><trkpt lat="43.5021587962588" lon="10.609538115723742"><ele>333.0</ele><time>2026-04-19T08:02:30.999Z</time></trkpt><trkpt lat="43.50209567764894" lon="10.609593677839388"><ele>336.1666666666667</ele><time>2026-04-19T08:02:31.999Z</time></trkpt><trkpt lat="43.50203013960469" lon="10.609640648715802"><ele>339.3333333333333</ele><time>2026-04-19T08:02:32.999Z</time></trkpt><trkpt lat="43.501949987386844" lon="10.609667897453495"><ele>342.5</ele><time>2026-04-19T08:02:33.999Z</time></trkpt><trkpt lat="43.501871291386514" lon="10.609689026058652"><ele>345.66666666666663</ele><time>2026-04-19T08:02:34.999Z</time></trkpt><trkpt lat="43.501793097057636" lon="10.609710119898605"><ele>348.8333333333333</ele><time>2026-04-19T08:02:35.999Z</time></trkpt><trkpt lat="43.50172297827954" lon="10.609724025203208"><ele>352.0</ele><time>2026-04-19T08:02:37Z</time></trkpt><trkpt lat="43.50164680443822" lon="10.609712831542673"><ele>352.0</ele><time>2026-04-19T08:02:38Z</time></trkpt><trkpt lat="43.501574640692766" lon="10.609668971297726"><ele>352.0</ele><time>2026-04-19T08:02:39Z</time></trkpt><trkpt lat="43.50151449719359" lon="10.609615954447575"><ele>352.0</ele><time>2026-04-19T08:02:40Z</time></trkpt><trkpt lat="43.50146479037585" lon="10.609546643994141"><ele>352.0</ele><time>2026-04-19T08:02:41Z</time></trkpt><trkpt lat="43.50141259352173" lon="10.609483313591747"><ele>352.0</ele><time>2026-04-19T08:02:42Z</time></trkpt><trkpt lat="43.50135411742388" lon="10.609445418251317"><ele>352.0</ele><time>2026-04-19T08:02:43Z</time></trkpt><trkpt lat="43.501294431663595" lon="10.609410630789597"><ele>352.0</ele><time>2026-04-19T08:02:44Z</time></trkpt><trkpt lat="43.50122749651151" lon="10.609445441043793"><ele>352.8333333333333</ele><time>2026-04-19T08:02:45Z</time></trkpt><trkpt lat="43.50115864376445" lon="10.609469527222988"><ele>353.66666666666663</ele><time>2026-04-19T08:02:46Z</time></trkpt><trkpt lat="43.50109178455887" lon="10.609506108723"><ele>354.5</ele><time>2026-04-19T08:02:47Z</time></trkpt><trkpt lat="43.50101643309348" lon="10.60955368972817"><ele>355.3333333333333</ele><time>2026-04-19T08:02:48Z</time></trkpt><trkpt lat="43.50094383912554" lon="10.609580150659683"><ele>356.1666666666667</ele><time>2026-04-19T08:02:49Z</time></trkpt><trkpt lat="43.50087354213794" lon="10.609582184972826"><ele>357.0</ele><time>2026-04-19T08:02:50Z</time></trkpt><trkpt lat="43.50075363736632" lon="10.609516189891679"><ele>357.0</ele><time>2026-04-19T08:02:52Z</time></trkpt><trkpt lat="43.50066627741986" lon="10.60939021002987"><ele>357.0</ele><time>2026-04-19T08:02:54Z</time></trkpt><trkpt lat="43.50063944453996" lon="10.609305660656158"><ele>357.0</ele><time>2026-04-19T08:02:55Z</time></trkpt><trkpt lat="43.50061312336912" lon="10.60922476446733"><ele>357.0</ele><time>2026-04-19T08:02:56Z</time></trkpt><trkpt lat="43.50051314325887" lon="10.609102315867327"><ele>357.0</ele><time>2026-04-19T08:02:58Z</time></trkpt><trkpt lat="43.500403068574784" lon="10.608989237299399"><ele>359.3333333333333</ele><time>2026-04-19T08:03:00Z</time></trkpt><trkpt lat="43.50033695779787" lon="10.608936733230127"><ele>361.6666666666667</ele><time>2026-04-19T08:03:01Z</time></trkpt><trkpt lat="43.50024067921246" lon="10.608814483273617"><ele>364.0</ele><time>2026-04-19T08:03:03Z</time></trkpt><trkpt lat="43.500206468111266" lon="10.608723655902686"><ele>366.33333333333337</ele><time>2026-04-19T08:03:04Z</time></trkpt><trkpt lat="43.500186556091364" lon="10.608623093634051"><ele>368.6666666666667</ele><time>2026-04-19T08:03:05Z</time></trkpt><trkpt lat="43.50015460419272" lon="10.608518199181947"><ele>371.0</ele><time>2026-04-19T08:03:06Z</time></trkpt><trkpt lat="43.50010631590877" lon="10.608416673224337"><ele>371.0</ele><time>2026-04-19T08:03:07Z</time></trkpt><trkpt lat="43.500046053867806" lon="10.608347658904275"><ele>371.0</ele><time>2026-04-19T08:03:08Z</time></trkpt><trkpt lat="43.499992221177415" lon="10.608258333214833"><ele>371.0</ele><time>2026-04-19T08:03:09Z</time></trkpt><trkpt lat="43.49995171210119" lon="10.608158130826922"><ele>371.0</ele><time>2026-04-19T08:03:10Z</time></trkpt><trkpt lat="43.49989417299318" lon="10.608067661999572"><ele>371.0</ele><time>2026-04-19T08:03:11Z</time></trkpt><trkpt lat="43.49983734037905" lon="10.607979112757222"><ele>371.0</ele><time>2026-04-19T08:03:12Z</time></trkpt><trkpt lat="43.49978151628996" lon="10.60789408125333"><ele>370.6666666666667</ele><time>2026-04-19T08:03:13Z</time></trkpt><trkpt lat="43.499726302538555" lon="10.607811770927503"><ele>370.33333333333337</ele><time>2026-04-19T08:03:14Z</time></trkpt><trkpt lat="43.49967172244007" lon="10.607739955508587"><ele>370.0</ele><time>2026-04-19T08:03:15Z</time></trkpt><trkpt lat="43.4996106172447" lon="10.607675674530135"><ele>369.6666666666667</ele><time>2026-04-19T08:03:16Z</time></trkpt><trkpt lat="43.49952611554685" lon="10.607629692223977"><ele>369.3333333333333</ele><time>2026-04-19T08:03:17Z</time></trkpt><trkpt lat="43.49945132703854" lon="10.60758363933612"><ele>369.0</ele><time>2026-04-19T08:03:18Z</time></trkpt><trkpt lat="43.49937955907557" lon="10.60754060991612"><ele>371.79999999999995</ele><time>2026-04-19T08:03:19Z</time></trkpt><trkpt lat="43.49930122368138" lon="10.607498033292094"><ele>374.59999999999997</ele><time>2026-04-19T08:03:20Z</time></trkpt><trkpt lat="43.49923186388654" lon="10.607463802742496"><ele>377.4</ele><time>2026-04-19T08:03:21Z</time></trkpt><trkpt lat="43.499181798347436" lon="10.607402674035223"><ele>380.2</ele><time>2026-04-19T08:03:22Z</time></trkpt><trkpt lat="43.4991336926763" lon="10.607250107744216"><ele>383.0</ele><time>2026-04-19T08:03:24Z</time></trkpt><trkpt lat="43.49917178171213" lon="10.607089480239475"><ele>383.6666666666667</ele><time>2026-04-19T08:03:26Z</time></trkpt><trkpt lat="43.499217501607966" lon="10.606948971674571"><ele>384.33333333333337</ele><time>2026-04-19T08:03:28Z</time></trkpt><trkpt lat="43.49922359856667" lon="10.606838440962147"><ele>385.0</ele><time>2026-04-19T08:03:29Z</time></trkpt><trkpt lat="43.49920624265117" lon="10.6067404350101"><ele>385.6666666666667</ele><time>2026-04-19T08:03:30Z</time></trkpt><trkpt lat="43.499181423977504" lon="10.606652942501453"><ele>386.3333333333333</ele><time>2026-04-19T08:03:31Z</time></trkpt><trkpt lat="43.49914655023588" lon="10.606569130988051"><ele>387.0</ele><time>2026-04-19T08:03:32Z</time></trkpt><trkpt lat="43.49908561553418" lon="10.606493129868563"><ele>387.0</ele><time>2026-04-19T08:03:33Z</time></trkpt><trkpt lat="43.49898550374618" lon="10.606379377210066"><ele>387.0</ele><time>2026-04-19T08:03:35Z</time></trkpt><trkpt lat="43.49894255507549" lon="10.606299516298174"><ele>387.0</ele><time>2026-04-19T08:03:36Z</time></trkpt><trkpt lat="43.49891146190189" lon="10.606209245585609"><ele>387.0</ele><time>2026-04-19T08:03:37Z</time></trkpt><trkpt lat="43.498898627099855" lon="10.606115265033484"><ele>387.0</ele><time>2026-04-19T08:03:38Z</time></trkpt><trkpt lat="43.49890005025775" lon="10.606016931271627"><ele>387.0</ele><time>2026-04-19T08:03:39Z</time></trkpt><trkpt lat="43.4989221572178" lon="10.605921111385271"><ele>387.20000000000005</ele><time>2026-04-19T08:03:40Z</time></trkpt><trkpt lat="43.49892495171719" lon="10.605801443295414"><ele>387.4</ele><time>2026-04-19T08:03:41Z</time></trkpt><trkpt lat="43.498904711537826" lon="10.60567833392635"><ele>387.6</ele><time>2026-04-19T08:03:42Z</time></trkpt><trkpt lat="43.49887448913921" lon="10.605547137819967"><ele>387.79999999999995</ele><time>2026-04-19T08:03:43Z</time></trkpt><trkpt lat="43.498848335793156" lon="10.605432944986172"><ele>388.0</ele><time>2026-04-19T08:03:44Z</time></trkpt><trkpt lat="43.49881678825615" lon="10.605305771748109"><ele>387.59999999999997</ele><time>2026-04-19T08:03:45Z</time></trkpt><trkpt lat="43.498786343127435" lon="10.60518520933888"><ele>387.2</ele><time>2026-04-19T08:03:46Z</time></trkpt><trkpt lat="43.498768001133094" lon="10.605067250918989"><ele>386.8</ele><time>2026-04-19T08:03:47Z</time></trkpt><trkpt lat="43.49874786780431" lon="10.604949128969034"><ele>386.4</ele><time>2026-04-19T08:03:48Z</time></trkpt><trkpt lat="43.498703690385206" lon="10.604841241220836"><ele>386.0</ele><time>2026-04-19T08:03:49Z</time></trkpt><trkpt lat="43.49862958962616" lon="10.604762731231627"><ele>387.99999999999994</ele><time>2026-04-19T08:03:50Z</time></trkpt><trkpt lat="43.49856094855328" lon="10.604688076041654"><ele>390.0</ele><time>2026-04-19T08:03:51Z</time></trkpt><trkpt lat="43.49848999753279" lon="10.604621172178415"><ele>392.0</ele><time>2026-04-19T08:03:52Z</time></trkpt><trkpt lat="43.49841054207327" lon="10.604576973192584"><ele>394.0</ele><time>2026-04-19T08:03:53Z</time></trkpt><trkpt lat="43.49832426366559" lon="10.604524752926938"><ele>395.99999999999994</ele><time>2026-04-19T08:03:54Z</time></trkpt><trkpt lat="43.49823224881594" lon="10.604506217843518"><ele>398.0</ele><time>2026-04-19T08:03:55Z</time></trkpt><trkpt lat="43.49814596290162" lon="10.604479003490036"><ele>397.99999999999994</ele><time>2026-04-19T08:03:56Z</time></trkpt><trkpt lat="43.49807099605617" lon="10.604419006684008"><ele>398.0</ele><time>2026-04-19T08:03:57Z</time></trkpt><trkpt lat="43.4979951426233" lon="10.604356859351725"><ele>398.0</ele><time>2026-04-19T08:03:58Z</time></trkpt><trkpt lat="43.49791000352506" lon="10.604324121974862"><ele>398.0</ele><time>2026-04-19T08:03:59Z</time></trkpt><trkpt lat="43.49782953881958" lon="10.604307026627632"><ele>397.99999999999994</ele><time>2026-04-19T08:04:00Z</time></trkpt><trkpt lat="43.49774751469145" lon="10.604289908196252"><ele>398.0</ele><time>2026-04-19T08:04:01Z</time></trkpt><trkpt lat="43.49766203990635" lon="10.6043273151278"><ele>400.66666666666663</ele><time>2026-04-19T08:04:02Z</time></trkpt><trkpt lat="43.49759802417857" lon="10.604267247681648"><ele>403.3333333333333</ele><time>2026-04-19T08:04:03Z</time></trkpt><trkpt lat="43.49755506915979" lon="10.604203408835287"><ele>406.0</ele><time>2026-04-19T08:04:04Z</time></trkpt><trkpt lat="43.49748731464331" lon="10.604051371430382"><ele>408.66666666666663</ele><time>2026-04-19T08:04:06Z</time></trkpt><trkpt lat="43.49747158507533" lon="10.603945932467465"><ele>411.3333333333333</ele><time>2026-04-19T08:04:07Z</time></trkpt><trkpt lat="43.497426704228126" lon="10.603848459914275"><ele>414.0</ele><time>2026-04-19T08:04:08Z</time></trkpt><trkpt lat="43.49740039574208" lon="10.603748240896211"><ele>414.5714285714286</ele><time>2026-04-19T08:04:09Z</time></trkpt><trkpt lat="43.49736557552037" lon="10.60366280931562"><ele>415.14285714285717</ele><time>2026-04-19T08:04:10Z</time></trkpt><trkpt lat="43.49734160835266" lon="10.603563976480507"><ele>415.7142857142857</ele><time>2026-04-19T08:04:11Z</time></trkpt><trkpt lat="43.49729406557496" lon="10.603483460231917"><ele>416.28571428571433</ele><time>2026-04-19T08:04:12Z</time></trkpt><trkpt lat="43.49722099170657" lon="10.603436016596438"><ele>416.85714285714283</ele><time>2026-04-19T08:04:13Z</time></trkpt><trkpt lat="43.4971730654173" lon="10.603367281681026"><ele>417.42857142857144</ele><time>2026-04-19T08:04:14Z</time></trkpt><trkpt lat="43.497168921399684" lon="10.603267118265391"><ele>418.0</ele><time>2026-04-19T08:04:15Z</time></trkpt><trkpt lat="43.49717872958966" lon="10.603171434964164"><ele>418.00000000000006</ele><time>2026-04-19T08:04:16Z</time></trkpt><trkpt lat="43.4971760398798" lon="10.603066037732525"><ele>418.0</ele><time>2026-04-19T08:04:17Z</time></trkpt><trkpt lat="43.49717140170162" lon="10.602953757651179"><ele>418.0</ele><time>2026-04-19T08:04:18Z</time></trkpt><trkpt lat="43.49710904609825" lon="10.602852627940921"><ele>418.0</ele><time>2026-04-19T08:04:19Z</time></trkpt><trkpt lat="43.49706247038999" lon="10.602743717113166"><ele>418.00000000000006</ele><time>2026-04-19T08:04:20Z</time></trkpt><trkpt lat="43.497007688384365" lon="10.602642442656506"><ele>418.0</ele><time>2026-04-19T08:04:21Z</time></trkpt><trkpt lat="43.49695614172756" lon="10.602541114953622"><ele>420.33333333333337</ele><time>2026-04-19T08:04:22Z</time></trkpt><trkpt lat="43.49689876932854" lon="10.602448218572963"><ele>422.6666666666667</ele><time>2026-04-19T08:04:23Z</time></trkpt><trkpt lat="43.49685497987474" lon="10.602345836601216"><ele>425.0</ele><time>2026-04-19T08:04:24Z</time></trkpt><trkpt lat="43.49682419842198" lon="10.602240064363693"><ele>427.33333333333337</ele><time>2026-04-19T08:04:25Z</time></trkpt><trkpt lat="43.49679844035077" lon="10.60215761015968"><ele>429.6666666666667</ele><time>2026-04-19T08:04:26Z</time></trkpt><trkpt lat="43.496767019149246" lon="10.602045601890449"><ele>432.0</ele><time>2026-04-19T08:04:28Z</time></trkpt><trkpt lat="43.49673558608115" lon="10.601911598794178"><ele>432.0</ele><time>2026-04-19T08:04:30Z</time></trkpt><trkpt lat="43.496693429781615" lon="10.601751921010647"><ele>432.00000000000006</ele><time>2026-04-19T08:04:31.999Z</time></trkpt><trkpt lat="43.49668456854837" lon="10.601660068023014"><ele>432.00000000000006</ele><time>2026-04-19T08:04:32.999Z</time></trkpt><trkpt lat="43.49668637040307" lon="10.601518636418051"><ele>432.0</ele><time>2026-04-19T08:04:34.999Z</time></trkpt><trkpt lat="43.49670717317194" lon="10.601432400450438"><ele>432.0</ele><time>2026-04-19T08:04:36.999Z</time></trkpt><trkpt lat="43.49638360365567" lon="10.601328273380942"><ele>432.0</ele><time>2026-04-19T08:04:41.999Z</time></trkpt><trkpt lat="43.49630266185247" lon="10.601315825070609"><ele>432.0</ele><time>2026-04-19T08:04:42.999Z</time></trkpt><trkpt lat="43.49622093367115" lon="10.60129957268273"><ele>432.0</ele><time>2026-04-19T08:04:43.999Z</time></trkpt><trkpt lat="43.49613623341476" lon="10.601276881742194"><ele>432.0</ele><time>2026-04-19T08:04:44.999Z</time></trkpt><trkpt lat="43.496053775853355" lon="10.601252465455183"><ele>432.0</ele><time>2026-04-19T08:04:45.999Z</time></trkpt><trkpt lat="43.49596833011029" lon="10.601222184913537"><ele>432.0</ele><time>2026-04-19T08:04:46.999Z</time></trkpt><trkpt lat="43.49587921206991" lon="10.601196668160258"><ele>432.8</ele><time>2026-04-19T08:04:47.999Z</time></trkpt><trkpt lat="43.495786503785986" lon="10.601173122882095"><ele>433.6</ele><time>2026-04-19T08:04:49Z</time></trkpt><trkpt lat="43.49569441928347" lon="10.601144238993681"><ele>434.40000000000003</ele><time>2026-04-19T08:04:50Z</time></trkpt><trkpt lat="43.49560471581011" lon="10.601111567720872"><ele>435.20000000000005</ele><time>2026-04-19T08:04:51Z</time></trkpt><trkpt lat="43.49551654959222" lon="10.60107422066128"><ele>436.0</ele><time>2026-04-19T08:04:52Z</time></trkpt><trkpt lat="43.4954284567596" lon="10.60103279628769"><ele>437.33333333333337</ele><time>2026-04-19T08:04:53Z</time></trkpt><trkpt lat="43.49533815360695" lon="10.600988817490324"><ele>438.6666666666667</ele><time>2026-04-19T08:04:54Z</time></trkpt><trkpt lat="43.495254326461975" lon="10.60094916265076"><ele>440.0</ele><time>2026-04-19T08:04:55Z</time></trkpt><trkpt lat="43.49517533932402" lon="10.600913325471787"><ele>441.33333333333337</ele><time>2026-04-19T08:04:56Z</time></trkpt><trkpt lat="43.49509803168841" lon="10.600883463693881"><ele>442.6666666666667</ele><time>2026-04-19T08:04:57Z</time></trkpt><trkpt lat="43.49501520794681" lon="10.600864030757194"><ele>444.0</ele><time>2026-04-19T08:04:58Z</time></trkpt><trkpt lat="43.49492784088877" lon="10.60086978706923"><ele>444.0</ele><time>2026-04-19T08:04:59Z</time></trkpt><trkpt lat="43.4948454328731" lon="10.600882544690222"><ele>444.0</ele><time>2026-04-19T08:05:00Z</time></trkpt><trkpt lat="43.49476952035356" lon="10.600895855404588"><ele>444.0</ele><time>2026-04-19T08:05:01Z</time></trkpt><trkpt lat="43.494695102467745" lon="10.600929958802162"><ele>444.0</ele><time>2026-04-19T08:05:02Z</time></trkpt><trkpt lat="43.4946270158713" lon="10.600989569659617"><ele>444.0</ele><time>2026-04-19T08:05:03Z</time></trkpt><trkpt lat="43.49456345570865" lon="10.601069940386212"><ele>444.0</ele><time>2026-04-19T08:05:04Z</time></trkpt><trkpt lat="43.49449537296304" lon="10.60114228277763"><ele>445.5</ele><time>2026-04-19T08:05:05Z</time></trkpt><trkpt lat="43.49443067301484" lon="10.601196797100924"><ele>447.0</ele><time>2026-04-19T08:05:06Z</time></trkpt><trkpt lat="43.49436362535785" lon="10.601216076511824"><ele>448.5</ele><time>2026-04-19T08:05:07Z</time></trkpt><trkpt lat="43.49429489702968" lon="10.601197506285192"><ele>450.0</ele><time>2026-04-19T08:05:08Z</time></trkpt><trkpt lat="43.49423256682648" lon="10.601137721803847"><ele>451.5</ele><time>2026-04-19T08:05:09Z</time></trkpt><trkpt lat="43.49416496608563" lon="10.601059967400147"><ele>453.0</ele><time>2026-04-19T08:05:10Z</time></trkpt><trkpt lat="43.494096130279736" lon="10.60098616198585"><ele>453.0</ele><time>2026-04-19T08:05:11Z</time></trkpt><trkpt lat="43.49401670548094" lon="10.600927414897507"><ele>452.99999999999994</ele><time>2026-04-19T08:05:12Z</time></trkpt><trkpt lat="43.49393456515272" lon="10.600859033410618"><ele>452.99999999999994</ele><time>2026-04-19T08:05:13Z</time></trkpt><trkpt lat="43.493853460315144" lon="10.600803025481241"><ele>453.0</ele><time>2026-04-19T08:05:14Z</time></trkpt><trkpt lat="43.49377333715615" lon="10.60074480593242"><ele>453.0</ele><time>2026-04-19T08:05:15Z</time></trkpt><trkpt lat="43.49369486003388" lon="10.600676944337879"><ele>455.0</ele><time>2026-04-19T08:05:16Z</time></trkpt><trkpt lat="43.493612749640384" lon="10.600607006154442"><ele>457.0</ele><time>2026-04-19T08:05:17Z</time></trkpt><trkpt lat="43.49353994719792" lon="10.600544601333548"><ele>459.0</ele><time>2026-04-19T08:05:18Z</time></trkpt><trkpt lat="43.49346974661441" lon="10.600499768583733"><ele>461.0</ele><time>2026-04-19T08:05:19Z</time></trkpt><trkpt lat="43.49339344111691" lon="10.60047460985782"><ele>463.0</ele><time>2026-04-19T08:05:20Z</time></trkpt><trkpt lat="43.49330414924328" lon="10.600479621073735"><ele>465.0</ele><time>2026-04-19T08:05:21Z</time></trkpt><trkpt lat="43.493209057368" lon="10.600486890624122"><ele>465.0</ele><time>2026-04-19T08:05:22Z</time></trkpt><trkpt lat="43.493112146820046" lon="10.60050014046562"><ele>465.0</ele><time>2026-04-19T08:05:23Z</time></trkpt><trkpt lat="43.49301492920269" lon="10.600517503922088"><ele>465.0</ele><time>2026-04-19T08:05:24Z</time></trkpt><trkpt lat="43.49291931121488" lon="10.600543078489334"><ele>465.0</ele><time>2026-04-19T08:05:25Z</time></trkpt><trkpt lat="43.49283146916765" lon="10.60058047828256"><ele>465.0</ele><time>2026-04-19T08:05:26Z</time></trkpt><trkpt lat="43.49275340559307" lon="10.600594747156304"><ele>464.6666666666667</ele><time>2026-04-19T08:05:27Z</time></trkpt><trkpt lat="43.492680730014776" lon="10.600561218241108"><ele>464.33333333333337</ele><time>2026-04-19T08:05:28Z</time></trkpt><trkpt lat="43.49259229840099" lon="10.600478211003225"><ele>464.0</ele><time>2026-04-19T08:05:30Z</time></trkpt><trkpt lat="43.49253837609825" lon="10.600419227193894"><ele>463.6666666666667</ele><time>2026-04-19T08:05:33Z</time></trkpt><trkpt lat="43.49248069875316" lon="10.600354144869309"><ele>463.33333333333337</ele><time>2026-04-19T08:05:35Z</time></trkpt><trkpt lat="43.49243592724909" lon="10.600268337563929"><ele>463.0</ele><time>2026-04-19T08:05:37Z</time></trkpt><trkpt lat="43.49239594327577" lon="10.600158166804155"><ele>462.83333333333337</ele><time>2026-04-19T08:05:39Z</time></trkpt><trkpt lat="43.49233208268494" lon="10.600067343523655"><ele>462.6666666666667</ele><time>2026-04-19T08:05:41Z</time></trkpt><trkpt lat="43.49223114321553" lon="10.599990299684409"><ele>462.5</ele><time>2026-04-19T08:05:44Z</time></trkpt><trkpt lat="43.49215550333194" lon="10.599957529368046"><ele>462.33333333333337</ele><time>2026-04-19T08:05:45Z</time></trkpt><trkpt lat="43.492088258804515" lon="10.599907605286763"><ele>462.1666666666667</ele><time>2026-04-19T08:05:46Z</time></trkpt><trkpt lat="43.49202749980627" lon="10.599839964329052"><ele>462.0</ele><time>2026-04-19T08:05:47Z</time></trkpt><trkpt lat="43.49198300103381" lon="10.599748615565781"><ele>462.0</ele><time>2026-04-19T08:05:48Z</time></trkpt><trkpt lat="43.49196166592779" lon="10.59964367778979"><ele>462.0</ele><time>2026-04-19T08:05:49Z</time></trkpt><trkpt lat="43.49195573594047" lon="10.599530653166727"><ele>462.0</ele><time>2026-04-19T08:05:50Z</time></trkpt><trkpt lat="43.491957113311514" lon="10.59941856339216"><ele>462.0</ele><time>2026-04-19T08:05:51Z</time></trkpt><trkpt lat="43.491966104364785" lon="10.59930590947798"><ele>462.0</ele><time>2026-04-19T08:05:52Z</time></trkpt><trkpt lat="43.49196325819548" lon="10.599190211134024"><ele>462.0</ele><time>2026-04-19T08:05:53Z</time></trkpt><trkpt lat="43.49194797807534" lon="10.599071149203004"><ele>463.0</ele><time>2026-04-19T08:05:54Z</time></trkpt><trkpt lat="43.49194184380144" lon="10.598941633236759"><ele>464.0</ele><time>2026-04-19T08:05:55Z</time></trkpt><trkpt lat="43.4919585064487" lon="10.59881575563151"><ele>465.0</ele><time>2026-04-19T08:05:56Z</time></trkpt><trkpt lat="43.49198289691639" lon="10.598698792049294"><ele>466.0</ele><time>2026-04-19T08:05:57Z</time></trkpt><trkpt lat="43.492008288369604" lon="10.598582008681474"><ele>467.0</ele><time>2026-04-19T08:05:58Z</time></trkpt><trkpt lat="43.492031787549415" lon="10.598471770350852"><ele>468.0</ele><time>2026-04-19T08:05:59Z</time></trkpt><trkpt lat="43.4920471748048" lon="10.598361782526334"><ele>469.0</ele><time>2026-04-19T08:06:00Z</time></trkpt><trkpt lat="43.492058403678854" lon="10.598258746734242"><ele>470.0</ele><time>2026-04-19T08:06:01Z</time></trkpt><trkpt lat="43.49206327872218" lon="10.598164584254084"><ele>471.0</ele><time>2026-04-19T08:06:02Z</time></trkpt><trkpt lat="43.49204594208417" lon="10.598067107756593"><ele>472.0</ele><time>2026-04-19T08:06:03Z</time></trkpt><trkpt lat="43.492024501018996" lon="10.597962872114879"><ele>473.0</ele><time>2026-04-19T08:06:04Z</time></trkpt><trkpt lat="43.49200198399979" lon="10.597848762898993"><ele>474.0</ele><time>2026-04-19T08:06:05Z</time></trkpt><trkpt lat="43.49199213004324" lon="10.59772749848536"><ele>475.79999999999995</ele><time>2026-04-19T08:06:06Z</time></trkpt><trkpt lat="43.49197891030746" lon="10.597605617537436"><ele>477.59999999999997</ele><time>2026-04-19T08:06:07Z</time></trkpt><trkpt lat="43.491978864398554" lon="10.597500490153383"><ele>479.4</ele><time>2026-04-19T08:06:08Z</time></trkpt><trkpt lat="43.49197303758762" lon="10.597386984730882"><ele>481.2</ele><time>2026-04-19T08:06:09Z</time></trkpt><trkpt lat="43.49191098455338" lon="10.597177316161366"><ele>483.0</ele><time>2026-04-19T08:06:11Z</time></trkpt><trkpt lat="43.49189040403412" lon="10.597089992496949"><ele>483.59999999999997</ele><time>2026-04-19T08:06:12Z</time></trkpt><trkpt lat="43.49188600014285" lon="10.596941522808129"><ele>484.19999999999993</ele><time>2026-04-19T08:06:14Z</time></trkpt><trkpt lat="43.491879705272126" lon="10.59683436981667"><ele>484.8</ele><time>2026-04-19T08:06:16Z</time></trkpt><trkpt lat="43.491836648186876" lon="10.596717663663961"><ele>485.4</ele><time>2026-04-19T08:06:19Z</time></trkpt><trkpt lat="43.49172816485304" lon="10.596639243382498"><ele>486.0</ele><time>2026-04-19T08:06:21Z</time></trkpt><trkpt lat="43.49166470000674" lon="10.596591419351176"><ele>486.0</ele><time>2026-04-19T08:06:22Z</time></trkpt><trkpt lat="43.49158864558774" lon="10.596535614000352"><ele>486.0</ele><time>2026-04-19T08:06:23Z</time></trkpt><trkpt lat="43.49150753935731" lon="10.596480553508131"><ele>486.0</ele><time>2026-04-19T08:06:24Z</time></trkpt><trkpt lat="43.49142727301103" lon="10.596424155384959"><ele>486.0</ele><time>2026-04-19T08:06:25Z</time></trkpt><trkpt lat="43.49134683378879" lon="10.59637725861469"><ele>486.0</ele><time>2026-04-19T08:06:26Z</time></trkpt><trkpt lat="43.49126205651183" lon="10.596352004467091"><ele>486.0</ele><time>2026-04-19T08:06:27Z</time></trkpt><trkpt lat="43.491169582057545" lon="10.59634216129801"><ele>486.8</ele><time>2026-04-19T08:06:28Z</time></trkpt><trkpt lat="43.49107609902589" lon="10.59634676672689"><ele>487.6</ele><time>2026-04-19T08:06:29Z</time></trkpt><trkpt lat="43.49097802114809" lon="10.59634544734106"><ele>488.4</ele><time>2026-04-19T08:06:30Z</time></trkpt><trkpt lat="43.49087967945098" lon="10.596345609027468"><ele>489.2</ele><time>2026-04-19T08:06:31Z</time></trkpt><trkpt lat="43.49078198067256" lon="10.596338451486602"><ele>490.0</ele><time>2026-04-19T08:06:32Z</time></trkpt><trkpt lat="43.49068927993201" lon="10.596326548112684"><ele>490.0</ele><time>2026-04-19T08:06:33Z</time></trkpt><trkpt lat="43.490591403315584" lon="10.596311048050561"><ele>490.0</ele><time>2026-04-19T08:06:34Z</time></trkpt><trkpt lat="43.49049213575023" lon="10.596299851960207"><ele>490.0</ele><time>2026-04-19T08:06:35Z</time></trkpt><trkpt lat="43.49039062292341" lon="10.596317827634909"><ele>490.0</ele><time>2026-04-19T08:06:36Z</time></trkpt><trkpt lat="43.490289383972325" lon="10.596361457654575"><ele>490.0</ele><time>2026-04-19T08:06:37Z</time></trkpt><trkpt lat="43.490184376319185" lon="10.596431495652784"><ele>490.5</ele><time>2026-04-19T08:06:37.999Z</time></trkpt><trkpt lat="43.49007597541098" lon="10.596500211730536"><ele>491.0</ele><time>2026-04-19T08:06:38.999Z</time></trkpt><trkpt lat="43.48996164361213" lon="10.59654833195314"><ele>491.5</ele><time>2026-04-19T08:06:39.999Z</time></trkpt><trkpt lat="43.48984203187553" lon="10.596566161082539"><ele>492.0</ele><time>2026-04-19T08:06:40.999Z</time></trkpt><trkpt lat="43.48971303339382" lon="10.596556852703797"><ele>492.0</ele><time>2026-04-19T08:06:41.999Z</time></trkpt><trkpt lat="43.489585040910306" lon="10.596536045152718"><ele>492.0</ele><time>2026-04-19T08:06:42.999Z</time></trkpt><trkpt lat="43.48945702171075" lon="10.59650643169466"><ele>492.0</ele><time>2026-04-19T08:06:43.999Z</time></trkpt><trkpt lat="43.489344280555706" lon="10.596458878152918"><ele>492.0</ele><time>2026-04-19T08:06:44.999Z</time></trkpt><trkpt lat="43.48924054547609" lon="10.596396604090497"><ele>492.0</ele><time>2026-04-19T08:06:45.999Z</time></trkpt><trkpt lat="43.48914312135937" lon="10.596358174261363"><ele>492.00000000000006</ele><time>2026-04-19T08:06:46.999Z</time></trkpt><trkpt lat="43.489047091668546" lon="10.596347283152543"><ele>492.00000000000006</ele><time>2026-04-19T08:06:47.999Z</time></trkpt><trkpt lat="43.48894689076504" lon="10.59637587390129"><ele>492.0</ele><time>2026-04-19T08:06:48.999Z</time></trkpt><trkpt lat="43.488848077036394" lon="10.596431309624247"><ele>492.0</ele><time>2026-04-19T08:06:49.999Z</time></trkpt><trkpt lat="43.488761917813335" lon="10.596544089384574"><ele>492.75</ele><time>2026-04-19T08:06:50.999Z</time></trkpt><trkpt lat="43.488679384776255" lon="10.596684715672119"><ele>493.5</ele><time>2026-04-19T08:06:51.999Z</time></trkpt><trkpt lat="43.488608880267094" lon="10.596831713230543"><ele>494.25</ele><time>2026-04-19T08:06:52.999Z</time></trkpt><trkpt lat="43.488545754599734" lon="10.596971417863664"><ele>495.0</ele><time>2026-04-19T08:06:53.999Z</time></trkpt><trkpt lat="43.488496965960884" lon="10.597105747601535"><ele>495.0</ele><time>2026-04-19T08:06:54.999Z</time></trkpt><trkpt lat="43.488453585745646" lon="10.597238894456614"><ele>495.0</ele><time>2026-04-19T08:06:55.999Z</time></trkpt><trkpt lat="43.48841109554252" lon="10.597355181105698"><ele>495.0</ele><time>2026-04-19T08:06:56.999Z</time></trkpt><trkpt lat="43.488355861496686" lon="10.59746002376142"><ele>495.0</ele><time>2026-04-19T08:06:57.999Z</time></trkpt><trkpt lat="43.48828639465238" lon="10.597564864126982"><ele>495.0</ele><time>2026-04-19T08:06:58.999Z</time></trkpt><trkpt lat="43.48821440861334" lon="10.597668347087168"><ele>495.0</ele><time>2026-04-19T08:06:59.999Z</time></trkpt><trkpt lat="43.48813433780184" lon="10.597767738244498"><ele>495.0</ele><time>2026-04-19T08:07:00.999Z</time></trkpt><trkpt lat="43.48807417720207" lon="10.597842629808556"><ele>495.0</ele><time>2026-04-19T08:07:01.999Z</time></trkpt><trkpt lat="43.487977849615376" lon="10.597955771132614"><ele>495.0</ele><time>2026-04-19T08:07:04Z</time></trkpt><trkpt lat="43.48792919883577" lon="10.59803306143902"><ele>495.0</ele><time>2026-04-19T08:07:05Z</time></trkpt><trkpt lat="43.487872204520066" lon="10.59814734539706"><ele>494.75</ele><time>2026-04-19T08:07:06Z</time></trkpt><trkpt lat="43.487822905113184" lon="10.598285889898563"><ele>494.5</ele><time>2026-04-19T08:07:07Z</time></trkpt><trkpt lat="43.48778267541354" lon="10.598441515929967"><ele>494.25</ele><time>2026-04-19T08:07:08Z</time></trkpt><trkpt lat="43.487743769157305" lon="10.598585754947953"><ele>494.0</ele><time>2026-04-19T08:07:09Z</time></trkpt><trkpt lat="43.487693392217835" lon="10.59872656766617"><ele>494.0</ele><time>2026-04-19T08:07:10Z</time></trkpt><trkpt lat="43.48762617413126" lon="10.598859800915186"><ele>494.0</ele><time>2026-04-19T08:07:11Z</time></trkpt><trkpt lat="43.4875432097556" lon="10.598984418210495"><ele>494.0</ele><time>2026-04-19T08:07:12Z</time></trkpt><trkpt lat="43.48745337641516" lon="10.599107250579424"><ele>494.0</ele><time>2026-04-19T08:07:13Z</time></trkpt><trkpt lat="43.487371754523096" lon="10.599241948995648"><ele>494.0</ele><time>2026-04-19T08:07:14Z</time></trkpt><trkpt lat="43.48728081318247" lon="10.599378425375876"><ele>494.0</ele><time>2026-04-19T08:07:15Z</time></trkpt><trkpt lat="43.48719332992209" lon="10.599500036483509"><ele>494.0</ele><time>2026-04-19T08:07:16Z</time></trkpt><trkpt lat="43.487108051718266" lon="10.599604272528106"><ele>494.0</ele><time>2026-04-19T08:07:17Z</time></trkpt><trkpt lat="43.487020809312405" lon="10.599687502871848"><ele>496.0</ele><time>2026-04-19T08:07:18Z</time></trkpt><trkpt lat="43.48692363953491" lon="10.599743138650311"><ele>498.0</ele><time>2026-04-19T08:07:19Z</time></trkpt><trkpt lat="43.486818381736384" lon="10.599777749883994"><ele>500.0</ele><time>2026-04-19T08:07:20Z</time></trkpt><trkpt lat="43.486695889980226" lon="10.599769668137693"><ele>502.0</ele><time>2026-04-19T08:07:21Z</time></trkpt><trkpt lat="43.48657584620916" lon="10.599751140518144"><ele>502.0</ele><time>2026-04-19T08:07:22Z</time></trkpt><trkpt lat="43.486453789737595" lon="10.599731929153831"><ele>502.0</ele><time>2026-04-19T08:07:23Z</time></trkpt><trkpt lat="43.48633188034356" lon="10.599702920275673"><ele>502.0</ele><time>2026-04-19T08:07:24Z</time></trkpt><trkpt lat="43.48620718266213" lon="10.599675499827438"><ele>502.0</ele><time>2026-04-19T08:07:25Z</time></trkpt><trkpt lat="43.48608785783571" lon="10.599654552877485"><ele>503.0</ele><time>2026-04-19T08:07:26Z</time></trkpt><trkpt lat="43.48596892267206" lon="10.599640843215372"><ele>504.00000000000006</ele><time>2026-04-19T08:07:27Z</time></trkpt><trkpt lat="43.485856411337586" lon="10.59964818016085"><ele>505.00000000000006</ele><time>2026-04-19T08:07:28Z</time></trkpt><trkpt lat="43.48574862875775" lon="10.599668313951947"><ele>506.0</ele><time>2026-04-19T08:07:29Z</time></trkpt><trkpt lat="43.4856465111485" lon="10.59970756492222"><ele>507.0</ele><time>2026-04-19T08:07:30Z</time></trkpt><trkpt lat="43.485543633845566" lon="10.599763200463494"><ele>507.0</ele><time>2026-04-19T08:07:31Z</time></trkpt><trkpt lat="43.48543739638702" lon="10.599818897329184"><ele>507.0</ele><time>2026-04-19T08:07:32Z</time></trkpt><trkpt lat="43.48534881258187" lon="10.599861868415177"><ele>507.0</ele><time>2026-04-19T08:07:33Z</time></trkpt><trkpt lat="43.48528390677888" lon="10.59989460758292"><ele>507.0</ele><time>2026-04-19T08:07:34Z</time></trkpt><trkpt lat="43.485215032876525" lon="10.59992460496845"><ele>507.0</ele><time>2026-04-19T08:07:35Z</time></trkpt><trkpt lat="43.48513677430115" lon="10.599955737106571"><ele>507.0</ele><time>2026-04-19T08:07:36Z</time></trkpt><trkpt lat="43.48504153919602" lon="10.599987410384523"><ele>506.5</ele><time>2026-04-19T08:07:37Z</time></trkpt><trkpt lat="43.484935013026174" lon="10.600010664718965"><ele>506.0</ele><time>2026-04-19T08:07:38Z</time></trkpt><trkpt lat="43.48481570102139" lon="10.600016654862385"><ele>505.5</ele><time>2026-04-19T08:07:39Z</time></trkpt><trkpt lat="43.48469838025407" lon="10.60002524094899"><ele>505.0</ele><time>2026-04-19T08:07:40Z</time></trkpt><trkpt lat="43.48458047360345" lon="10.600033045733449"><ele>504.6</ele><time>2026-04-19T08:07:41Z</time></trkpt><trkpt lat="43.48446416212212" lon="10.600043470311649"><ele>504.2</ele><time>2026-04-19T08:07:42Z</time></trkpt><trkpt lat="43.484353751187165" lon="10.60005360987433"><ele>503.79999999999995</ele><time>2026-04-19T08:07:43Z</time></trkpt><trkpt lat="43.48424198008287" lon="10.600071231793818"><ele>503.4</ele><time>2026-04-19T08:07:44Z</time></trkpt><trkpt lat="43.484132743504176" lon="10.600085589622065"><ele>503.0</ele><time>2026-04-19T08:07:45Z</time></trkpt><trkpt lat="43.48402146536664" lon="10.600095070195975"><ele>503.0</ele><time>2026-04-19T08:07:46Z</time></trkpt><trkpt lat="43.483901451568876" lon="10.600098641889254"><ele>503.0</ele><time>2026-04-19T08:07:47Z</time></trkpt><trkpt lat="43.48377620510913" lon="10.600087615755315"><ele>503.0</ele><time>2026-04-19T08:07:48Z</time></trkpt><trkpt lat="43.4836465384298" lon="10.600061166755772"><ele>503.0</ele><time>2026-04-19T08:07:49Z</time></trkpt><trkpt lat="43.48351095829866" lon="10.600012854443252"><ele>501.5</ele><time>2026-04-19T08:07:50Z</time></trkpt><trkpt lat="43.483371654634524" lon="10.599959976822081"><ele>500.0</ele><time>2026-04-19T08:07:51Z</time></trkpt><trkpt lat="43.48323398340313" lon="10.59989657674477"><ele>498.5</ele><time>2026-04-19T08:07:52Z</time></trkpt><trkpt lat="43.48309876879198" lon="10.599815344822522"><ele>497.0</ele><time>2026-04-19T08:07:53Z</time></trkpt><trkpt lat="43.482966990485515" lon="10.599731224311515"><ele>496.8</ele><time>2026-04-19T08:07:54Z</time></trkpt><trkpt lat="43.48284500571091" lon="10.599653632054807"><ele>496.6</ele><time>2026-04-19T08:07:55Z</time></trkpt><trkpt lat="43.48273666152514" lon="10.599584609596164"><ele>496.40000000000003</ele><time>2026-04-19T08:07:56Z</time></trkpt><trkpt lat="43.48265657073504" lon="10.599535747975738"><ele>496.20000000000005</ele><time>2026-04-19T08:07:57Z</time></trkpt><trkpt lat="43.482590236563574" lon="10.599489909118224"><ele>496.0</ele><time>2026-04-19T08:07:58Z</time></trkpt><trkpt lat="43.48252435439004" lon="10.599452047406599"><ele>496.0</ele><time>2026-04-19T08:07:59Z</time></trkpt><trkpt lat="43.48245659721956" lon="10.599416486351618"><ele>496.00000000000006</ele><time>2026-04-19T08:08:00Z</time></trkpt><trkpt lat="43.48239045997461" lon="10.599379308697406"><ele>496.0</ele><time>2026-04-19T08:08:01Z</time></trkpt><trkpt lat="43.48232268553416" lon="10.599351020796442"><ele>496.0</ele><time>2026-04-19T08:08:02Z</time></trkpt><trkpt lat="43.482255513770646" lon="10.59933178142374"><ele>496.00000000000006</ele><time>2026-04-19T08:08:03Z</time></trkpt><trkpt lat="43.482184921103915" lon="10.599319399555455"><ele>496.0</ele><time>2026-04-19T08:08:04Z</time></trkpt><trkpt lat="43.482116125489895" lon="10.599310562287227"><ele>496.0</ele><time>2026-04-19T08:08:05Z</time></trkpt><trkpt lat="43.48205101644643" lon="10.59931269422161"><ele>500.0</ele><time>2026-04-19T08:08:06Z</time></trkpt><trkpt lat="43.481929907770194" lon="10.599326183257553"><ele>504.0</ele><time>2026-04-19T08:08:08Z</time></trkpt><trkpt lat="43.48180688520225" lon="10.59933332365689"><ele>508.0</ele><time>2026-04-19T08:08:10Z</time></trkpt><trkpt lat="43.481682075877835" lon="10.599340248951396"><ele>512.0</ele><time>2026-04-19T08:08:12Z</time></trkpt><trkpt lat="43.48155894389266" lon="10.599343355911722"><ele>511.99999999999994</ele><time>2026-04-19T08:08:14Z</time></trkpt><trkpt lat="43.48143663068824" lon="10.59934137478026"><ele>512.0</ele><time>2026-04-19T08:08:16Z</time></trkpt><trkpt lat="43.48137049576908" lon="10.599350306812761"><ele>512.0</ele><time>2026-04-19T08:08:17Z</time></trkpt><trkpt lat="43.481305736754614" lon="10.599374002902593"><ele>512.0</ele><time>2026-04-19T08:08:18Z</time></trkpt><trkpt lat="43.481239747458446" lon="10.599396808228887"><ele>511.99999999999994</ele><time>2026-04-19T08:08:19Z</time></trkpt><trkpt lat="43.48117103879079" lon="10.599419570432643"><ele>512.0</ele><time>2026-04-19T08:08:20Z</time></trkpt><trkpt lat="43.481105811841516" lon="10.599441831567603"><ele>513.8333333333333</ele><time>2026-04-19T08:08:21Z</time></trkpt><trkpt lat="43.48104473526482" lon="10.599464655128758"><ele>515.6666666666666</ele><time>2026-04-19T08:08:22Z</time></trkpt><trkpt lat="43.48098037510332" lon="10.599488066855846"><ele>517.5</ele><time>2026-04-19T08:08:23Z</time></trkpt><trkpt lat="43.480845847347624" lon="10.59953539158063"><ele>519.3333333333334</ele><time>2026-04-19T08:08:25Z</time></trkpt><trkpt lat="43.480769135538495" lon="10.599556874713326"><ele>521.1666666666667</ele><time>2026-04-19T08:08:26Z</time></trkpt><trkpt lat="43.480688999552996" lon="10.599582019380948"><ele>523.0</ele><time>2026-04-19T08:08:27Z</time></trkpt><trkpt lat="43.48061275043823" lon="10.599613450254347"><ele>523.5</ele><time>2026-04-19T08:08:28Z</time></trkpt><trkpt lat="43.48053826704131" lon="10.599646082077191"><ele>524.0</ele><time>2026-04-19T08:08:29Z</time></trkpt><trkpt lat="43.48046485727382" lon="10.599679102966904"><ele>524.5</ele><time>2026-04-19T08:08:30Z</time></trkpt><trkpt lat="43.480388742660374" lon="10.599719584533783"><ele>525.0</ele><time>2026-04-19T08:08:31Z</time></trkpt><trkpt lat="43.48031289703845" lon="10.59978109483404"><ele>525.5</ele><time>2026-04-19T08:08:32Z</time></trkpt><trkpt lat="43.48023527948049" lon="10.599852721994862"><ele>526.0</ele><time>2026-04-19T08:08:33Z</time></trkpt><trkpt lat="43.48015994057111" lon="10.59993477548232"><ele>526.8</ele><time>2026-04-19T08:08:34Z</time></trkpt><trkpt lat="43.480094449136125" lon="10.600035931744932"><ele>527.6</ele><time>2026-04-19T08:08:35Z</time></trkpt><trkpt lat="43.48003887342275" lon="10.600149107969013"><ele>528.4</ele><time>2026-04-19T08:08:36Z</time></trkpt><trkpt lat="43.48000508798051" lon="10.600286823048789"><ele>529.2</ele><time>2026-04-19T08:08:37Z</time></trkpt><trkpt lat="43.47998638850434" lon="10.600445019300912"><ele>530.0</ele><time>2026-04-19T08:08:38Z</time></trkpt><trkpt lat="43.47997356917489" lon="10.600599494324493"><ele>529.5</ele><time>2026-04-19T08:08:39Z</time></trkpt><trkpt lat="43.47996597108155" lon="10.600736447554706"><ele>529.0</ele><time>2026-04-19T08:08:40Z</time></trkpt><trkpt lat="43.47994957466809" lon="10.600858983565638"><ele>528.5</ele><time>2026-04-19T08:08:41Z</time></trkpt><trkpt lat="43.47991455511721" lon="10.60096391374778"><ele>528.0</ele><time>2026-04-19T08:08:42Z</time></trkpt><trkpt lat="43.479863120795805" lon="10.601049996514078"><ele>527.5</ele><time>2026-04-19T08:08:43Z</time></trkpt><trkpt lat="43.47979377500633" lon="10.601119574210282"><ele>527.0</ele><time>2026-04-19T08:08:43.999Z</time></trkpt><trkpt lat="43.479722826244135" lon="10.601181788672799"><ele>527.0</ele><time>2026-04-19T08:08:44.999Z</time></trkpt><trkpt lat="43.47964226451325" lon="10.601246814297648"><ele>527.0</ele><time>2026-04-19T08:08:45.999Z</time></trkpt><trkpt lat="43.47956268360171" lon="10.601320030204619"><ele>527.0</ele><time>2026-04-19T08:08:46.999Z</time></trkpt><trkpt lat="43.479493925654054" lon="10.601414069557086"><ele>527.0</ele><time>2026-04-19T08:08:47.999Z</time></trkpt><trkpt lat="43.47943476298126" lon="10.601510702840082"><ele>527.0</ele><time>2026-04-19T08:08:48.999Z</time></trkpt><trkpt lat="43.479381885466836" lon="10.601604004639965"><ele>529.6666666666666</ele><time>2026-04-19T08:08:49.999Z</time></trkpt><trkpt lat="43.479321718501865" lon="10.601692285281063"><ele>532.3333333333333</ele><time>2026-04-19T08:08:50.999Z</time></trkpt><trkpt lat="43.479245223482174" lon="10.60174437984157"><ele>535.0</ele><time>2026-04-19T08:08:51.999Z</time></trkpt><trkpt lat="43.47916659779656" lon="10.601769126938727"><ele>537.6666666666666</ele><time>2026-04-19T08:08:52.999Z</time></trkpt><trkpt lat="43.47908795465058" lon="10.601758042305702"><ele>540.3333333333334</ele><time>2026-04-19T08:08:53.999Z</time></trkpt><trkpt lat="43.47901076472578" lon="10.601732189516515"><ele>543.0</ele><time>2026-04-19T08:08:54.999Z</time></trkpt><trkpt lat="43.47894027293231" lon="10.601693490343935"><ele>543.0</ele><time>2026-04-19T08:08:55.999Z</time></trkpt><trkpt lat="43.47887812272271" lon="10.60165642706977"><ele>543.0</ele><time>2026-04-19T08:08:57Z</time></trkpt><trkpt lat="43.47882503526012" lon="10.601609247208607"><ele>543.0</ele><time>2026-04-19T08:08:58Z</time></trkpt><trkpt lat="43.47877049889451" lon="10.60151474460655"><ele>543.0</ele><time>2026-04-19T08:09:00Z</time></trkpt><trkpt lat="43.47874095060738" lon="10.601417815057216"><ele>543.0</ele><time>2026-04-19T08:09:04Z</time></trkpt><trkpt lat="43.47872603787537" lon="10.601325295094789"><ele>543.0</ele><time>2026-04-19T08:09:09Z</time></trkpt><trkpt lat="43.47870673944825" lon="10.601211433871386"><ele>543.0</ele><time>2026-04-19T08:09:49Z</time></trkpt><trkpt lat="43.47869808781433" lon="10.60104749229538"><ele>542.6666666666666</ele><time>2026-04-19T08:09:51Z</time></trkpt><trkpt lat="43.47868899193985" lon="10.600945336330078"><ele>542.3333333333334</ele><time>2026-04-19T08:09:52Z</time></trkpt><trkpt lat="43.478678005048856" lon="10.60083500447131"><ele>542.0</ele><time>2026-04-19T08:09:53Z</time></trkpt><trkpt lat="43.47867066776945" lon="10.600711699480282"><ele>541.6666666666667</ele><time>2026-04-19T08:09:54Z</time></trkpt><trkpt lat="43.4786626105403" lon="10.600587581302062"><ele>541.3333333333334</ele><time>2026-04-19T08:09:55Z</time></trkpt><trkpt lat="43.47868074483524" lon="10.60046055217846"><ele>541.0</ele><time>2026-04-19T08:09:56Z</time></trkpt><trkpt lat="43.47871448760584" lon="10.600364763333891"><ele>541.6</ele><time>2026-04-19T08:09:57Z</time></trkpt><trkpt lat="43.47872896043917" lon="10.600226063799909"><ele>542.2</ele><time>2026-04-19T08:09:58Z</time></trkpt><trkpt lat="43.47875488619403" lon="10.60009056294123"><ele>542.8</ele><time>2026-04-19T08:09:59Z</time></trkpt><trkpt lat="43.47878288951926" lon="10.599975974528935"><ele>543.4</ele><time>2026-04-19T08:10:00Z</time></trkpt><trkpt lat="43.4788039274098" lon="10.599848303175502"><ele>544.0</ele><time>2026-04-19T08:10:01Z</time></trkpt><trkpt lat="43.47882086355476" lon="10.599745157618713"><ele>544.0</ele><time>2026-04-19T08:10:02Z</time></trkpt><trkpt lat="43.47883984848137" lon="10.599652729611657"><ele>544.0</ele><time>2026-04-19T08:10:03Z</time></trkpt><trkpt lat="43.478858010700165" lon="10.599552800873271"><ele>544.0</ele><time>2026-04-19T08:10:04Z</time></trkpt><trkpt lat="43.47886092686422" lon="10.599439930134976"><ele>544.0</ele><time>2026-04-19T08:10:05Z</time></trkpt><trkpt lat="43.47885921364064" lon="10.599308959433031"><ele>544.0</ele><time>2026-04-19T08:10:06Z</time></trkpt><trkpt lat="43.47884796227414" lon="10.599170312898853"><ele>544.0</ele><time>2026-04-19T08:10:07Z</time></trkpt><trkpt lat="43.4788307794409" lon="10.59903271886943"><ele>541.5</ele><time>2026-04-19T08:10:08Z</time></trkpt><trkpt lat="43.478817763033625" lon="10.598887478975369"><ele>539.0</ele><time>2026-04-19T08:10:09Z</time></trkpt><trkpt lat="43.478816011774164" lon="10.598736604780514"><ele>536.5</ele><time>2026-04-19T08:10:10Z</time></trkpt><trkpt lat="43.47878386826515" lon="10.598575430996808"><ele>534.0</ele><time>2026-04-19T08:10:11Z</time></trkpt><trkpt lat="43.47874218488841" lon="10.598401591311621"><ele>534.0</ele><time>2026-04-19T08:10:12Z</time></trkpt><trkpt lat="43.47869857149221" lon="10.598221565080264"><ele>534.0</ele><time>2026-04-19T08:10:13Z</time></trkpt><trkpt lat="43.47864134925486" lon="10.598046828087403"><ele>534.0</ele><time>2026-04-19T08:10:14Z</time></trkpt><trkpt lat="43.478593087002864" lon="10.597872700502336"><ele>534.0</ele><time>2026-04-19T08:10:15Z</time></trkpt><trkpt lat="43.47854323852659" lon="10.597718125545795"><ele>532.0</ele><time>2026-04-19T08:10:16Z</time></trkpt><trkpt lat="43.47848076856312" lon="10.5975744827543"><ele>530.0</ele><time>2026-04-19T08:10:17Z</time></trkpt><trkpt lat="43.478410461626446" lon="10.597438971860322"><ele>528.0</ele><time>2026-04-19T08:10:18Z</time></trkpt><trkpt lat="43.47833187823526" lon="10.59732104036978"><ele>526.0</ele><time>2026-04-19T08:10:19Z</time></trkpt><trkpt lat="43.47824367458469" lon="10.597221084208174"><ele>526.0</ele><time>2026-04-19T08:10:20Z</time></trkpt><trkpt lat="43.478141503512866" lon="10.59711838049284"><ele>526.0</ele><time>2026-04-19T08:10:21.001Z</time></trkpt><trkpt lat="43.4780541055914" lon="10.597035881397282"><ele>526.0</ele><time>2026-04-19T08:10:22.001Z</time></trkpt><trkpt lat="43.47797335354681" lon="10.596938200185825"><ele>526.0</ele><time>2026-04-19T08:10:23.001Z</time></trkpt><trkpt lat="43.4779048824776" lon="10.596815254866485"><ele>523.0</ele><time>2026-04-19T08:10:24.001Z</time></trkpt><trkpt lat="43.47784548241996" lon="10.596676091792176"><ele>520.0</ele><time>2026-04-19T08:10:25.001Z</time></trkpt><trkpt lat="43.477790453035034" lon="10.596537946022764"><ele>517.0</ele><time>2026-04-19T08:10:26.001Z</time></trkpt><trkpt lat="43.47774270185405" lon="10.596388302264184"><ele>514.0</ele><time>2026-04-19T08:10:27.001Z</time></trkpt><trkpt lat="43.47767286847356" lon="10.596247713459958"><ele>515.4</ele><time>2026-04-19T08:10:28.001Z</time></trkpt><trkpt lat="43.477621000882124" lon="10.59611518901075"><ele>516.8</ele><time>2026-04-19T08:10:29.001Z</time></trkpt><trkpt lat="43.477573724862665" lon="10.595983630594032"><ele>518.2</ele><time>2026-04-19T08:10:30.001Z</time></trkpt><trkpt lat="43.47754081563181" lon="10.595855296152092"><ele>519.6</ele><time>2026-04-19T08:10:31.001Z</time></trkpt><trkpt lat="43.4775108655648" lon="10.59572837688258"><ele>521.0</ele><time>2026-04-19T08:10:32.001Z</time></trkpt><trkpt lat="43.4774853337085" lon="10.595579281472395"><ele>521.0</ele><time>2026-04-19T08:10:33.001Z</time></trkpt><trkpt lat="43.47748119071739" lon="10.595427620478516"><ele>521.0</ele><time>2026-04-19T08:10:34.001Z</time></trkpt><trkpt lat="43.47748914600832" lon="10.595274861083002"><ele>521.0</ele><time>2026-04-19T08:10:35.001Z</time></trkpt><trkpt lat="43.47750137546856" lon="10.595134871396876"><ele>521.0</ele><time>2026-04-19T08:10:36.001Z</time></trkpt><trkpt lat="43.47751195757102" lon="10.594999428586386"><ele>521.0</ele><time>2026-04-19T08:10:37.001Z</time></trkpt><trkpt lat="43.47752744610308" lon="10.594861148631404"><ele>520.4</ele><time>2026-04-19T08:10:38.001Z</time></trkpt><trkpt lat="43.47752911769444" lon="10.594730142683918"><ele>519.8</ele><time>2026-04-19T08:10:39.001Z</time></trkpt><trkpt lat="43.477514428392276" lon="10.594588552544437"><ele>519.1999999999999</ele><time>2026-04-19T08:10:40.001Z</time></trkpt><trkpt lat="43.47748739789235" lon="10.594435903840663"><ele>518.6</ele><time>2026-04-19T08:10:41.001Z</time></trkpt><trkpt lat="43.477440657302374" lon="10.594278451616427"><ele>518.0</ele><time>2026-04-19T08:10:42.001Z</time></trkpt><trkpt lat="43.47739051020589" lon="10.594110740872395"><ele>515.8</ele><time>2026-04-19T08:10:43.001Z</time></trkpt><trkpt lat="43.47735032731777" lon="10.593965887980934"><ele>513.5999999999999</ele><time>2026-04-19T08:10:44.001Z</time></trkpt><trkpt lat="43.47731723305763" lon="10.593835253692784"><ele>511.40000000000003</ele><time>2026-04-19T08:10:45.001Z</time></trkpt><trkpt lat="43.47729251478404" lon="10.593728909222227"><ele>509.20000000000005</ele><time>2026-04-19T08:10:46.001Z</time></trkpt><trkpt lat="43.47727238291367" lon="10.593629409394945"><ele>507.0</ele><time>2026-04-19T08:10:47.001Z</time></trkpt><trkpt lat="43.47726226616912" lon="10.593518383065268"><ele>505.8333333333333</ele><time>2026-04-19T08:10:48.001Z</time></trkpt><trkpt lat="43.47726597342875" lon="10.593405029127778"><ele>504.66666666666663</ele><time>2026-04-19T08:10:49.001Z</time></trkpt><trkpt lat="43.47727462824855" lon="10.593290590471813"><ele>503.5</ele><time>2026-04-19T08:10:50Z</time></trkpt><trkpt lat="43.47729401922596" lon="10.593176645689795"><ele>502.3333333333333</ele><time>2026-04-19T08:10:51Z</time></trkpt><trkpt lat="43.47731226392041" lon="10.593066624625038"><ele>501.16666666666663</ele><time>2026-04-19T08:10:52Z</time></trkpt><trkpt lat="43.477338578420195" lon="10.592964714124186"><ele>500.0</ele><time>2026-04-19T08:10:53Z</time></trkpt><trkpt lat="43.477373715223045" lon="10.59286641649173"><ele>499.3333333333333</ele><time>2026-04-19T08:10:54Z</time></trkpt><trkpt lat="43.477419323824755" lon="10.592773112526213"><ele>498.66666666666663</ele><time>2026-04-19T08:10:55Z</time></trkpt><trkpt lat="43.477468537207876" lon="10.59268390662445"><ele>498.0</ele><time>2026-04-19T08:10:56Z</time></trkpt><trkpt lat="43.47751634774583" lon="10.592596056708988"><ele>497.33333333333337</ele><time>2026-04-19T08:10:57Z</time></trkpt><trkpt lat="43.477568021043034" lon="10.592511696452204"><ele>496.6666666666667</ele><time>2026-04-19T08:10:58Z</time></trkpt><trkpt lat="43.477625417449126" lon="10.592431000084892"><ele>496.0</ele><time>2026-04-19T08:10:59Z</time></trkpt><trkpt lat="43.47769668700895" lon="10.592362993396964"><ele>496.0</ele><time>2026-04-19T08:11:00Z</time></trkpt><trkpt lat="43.477753481656734" lon="10.592286529897178"><ele>496.0</ele><time>2026-04-19T08:11:01Z</time></trkpt><trkpt lat="43.47780386433826" lon="10.59219105094053"><ele>496.0</ele><time>2026-04-19T08:11:02Z</time></trkpt><trkpt lat="43.477842324325806" lon="10.592078826192619"><ele>496.0</ele><time>2026-04-19T08:11:03Z</time></trkpt><trkpt lat="43.47787691229033" lon="10.591952072494983"><ele>496.0</ele><time>2026-04-19T08:11:04Z</time></trkpt><trkpt lat="43.47791111825731" lon="10.59181255881522"><ele>491.4</ele><time>2026-04-19T08:11:05Z</time></trkpt><trkpt lat="43.47794091979081" lon="10.591668523556537"><ele>486.8</ele><time>2026-04-19T08:11:06Z</time></trkpt><trkpt lat="43.477973365442544" lon="10.591516938613715"><ele>482.19999999999993</ele><time>2026-04-19T08:11:07Z</time></trkpt><trkpt lat="43.47800456480566" lon="10.591371585736265"><ele>477.59999999999997</ele><time>2026-04-19T08:11:08Z</time></trkpt><trkpt lat="43.478030065186246" lon="10.591230107738621"><ele>473.0</ele><time>2026-04-19T08:11:09Z</time></trkpt><trkpt lat="43.47805382130923" lon="10.591098912418811"><ele>471.2</ele><time>2026-04-19T08:11:10Z</time></trkpt><trkpt lat="43.47807510885569" lon="10.590967401750067"><ele>469.4</ele><time>2026-04-19T08:11:11Z</time></trkpt><trkpt lat="43.47810752957094" lon="10.59084105954959"><ele>467.59999999999997</ele><time>2026-04-19T08:11:12Z</time></trkpt><trkpt lat="43.47814336311527" lon="10.590720507239027"><ele>465.79999999999995</ele><time>2026-04-19T08:11:13Z</time></trkpt><trkpt lat="43.478184371257065" lon="10.590601626154871"><ele>464.0</ele><time>2026-04-19T08:11:14Z</time></trkpt><trkpt lat="43.47821910523735" lon="10.59047257604225"><ele>462.6</ele><time>2026-04-19T08:11:15Z</time></trkpt><trkpt lat="43.478244288142605" lon="10.590340824485178"><ele>461.2</ele><time>2026-04-19T08:11:16Z</time></trkpt><trkpt lat="43.478265376647535" lon="10.590187147996621"><ele>459.80000000000007</ele><time>2026-04-19T08:11:17Z</time></trkpt><trkpt lat="43.47828078158856" lon="10.590028251933791"><ele>458.40000000000003</ele><time>2026-04-19T08:11:18Z</time></trkpt><trkpt lat="43.47828863636104" lon="10.589871857135186"><ele>457.0</ele><time>2026-04-19T08:11:19Z</time></trkpt><trkpt lat="43.47829543720007" lon="10.58973024074982"><ele>457.0</ele><time>2026-04-19T08:11:20Z</time></trkpt><trkpt lat="43.478299440183456" lon="10.589608939494598"><ele>457.00000000000006</ele><time>2026-04-19T08:11:21Z</time></trkpt><trkpt lat="43.478293395804734" lon="10.589465403432726"><ele>457.00000000000006</ele><time>2026-04-19T08:11:22Z</time></trkpt><trkpt lat="43.478286802022076" lon="10.589309798631083"><ele>457.0</ele><time>2026-04-19T08:11:23Z</time></trkpt><trkpt lat="43.47828584557792" lon="10.589147099640481"><ele>457.0</ele><time>2026-04-19T08:11:24Z</time></trkpt><trkpt lat="43.47828106731341" lon="10.588992692948713"><ele>454.6666666666667</ele><time>2026-04-19T08:11:25Z</time></trkpt><trkpt lat="43.47827199807432" lon="10.588848653541481"><ele>452.33333333333337</ele><time>2026-04-19T08:11:26Z</time></trkpt><trkpt lat="43.478267046089336" lon="10.588716774422545"><ele>450.0</ele><time>2026-04-19T08:11:27Z</time></trkpt><trkpt lat="43.47825810528186" lon="10.58859530079681"><ele>447.66666666666663</ele><time>2026-04-19T08:11:28Z</time></trkpt><trkpt lat="43.47824816952999" lon="10.588485547112423"><ele>445.3333333333333</ele><time>2026-04-19T08:11:29Z</time></trkpt><trkpt lat="43.4782150336563" lon="10.588389995257305"><ele>443.0</ele><time>2026-04-19T08:11:30Z</time></trkpt><trkpt lat="43.47816179124642" lon="10.588308648839213"><ele>441.59999999999997</ele><time>2026-04-19T08:11:31Z</time></trkpt><trkpt lat="43.478092563008005" lon="10.588230012500686"><ele>440.19999999999993</ele><time>2026-04-19T08:11:32Z</time></trkpt><trkpt lat="43.47799958791152" lon="10.588177835215484"><ele>438.8</ele><time>2026-04-19T08:11:33Z</time></trkpt><trkpt lat="43.47791322313808" lon="10.58813368371562"><ele>437.4</ele><time>2026-04-19T08:11:34Z</time></trkpt><trkpt lat="43.47783781432862" lon="10.588080738521104"><ele>436.0</ele><time>2026-04-19T08:11:35Z</time></trkpt><trkpt lat="43.4777775049653" lon="10.587997992483738"><ele>436.00000000000006</ele><time>2026-04-19T08:11:36Z</time></trkpt><trkpt lat="43.47773933160559" lon="10.587889213981448"><ele>436.0</ele><time>2026-04-19T08:11:37Z</time></trkpt><trkpt lat="43.47771250219488" lon="10.58778017246712"><ele>436.0</ele><time>2026-04-19T08:11:38Z</time></trkpt><trkpt lat="43.47771123847328" lon="10.587663152889812"><ele>436.0</ele><time>2026-04-19T08:11:39Z</time></trkpt><trkpt lat="43.477719173285706" lon="10.587545107783582"><ele>436.00000000000006</ele><time>2026-04-19T08:11:40Z</time></trkpt><trkpt lat="43.47771497086741" lon="10.587424225810754"><ele>436.0</ele><time>2026-04-19T08:11:41Z</time></trkpt><trkpt lat="43.47769791924639" lon="10.587300300762166"><ele>434.20000000000005</ele><time>2026-04-19T08:11:42Z</time></trkpt><trkpt lat="43.47766582697949" lon="10.587174885617696"><ele>432.40000000000003</ele><time>2026-04-19T08:11:43Z</time></trkpt><trkpt lat="43.47764597346206" lon="10.587037031565298"><ele>430.6</ele><time>2026-04-19T08:11:44Z</time></trkpt><trkpt lat="43.47762556873556" lon="10.586903131780046"><ele>428.8</ele><time>2026-04-19T08:11:45Z</time></trkpt><trkpt lat="43.477600910778804" lon="10.586759165051738"><ele>427.0</ele><time>2026-04-19T08:11:46Z</time></trkpt><trkpt lat="43.477571238686444" lon="10.586620734907797"><ele>425.6</ele><time>2026-04-19T08:11:47Z</time></trkpt><trkpt lat="43.477537648517306" lon="10.58650005669795"><ele>424.20000000000005</ele><time>2026-04-19T08:11:48Z</time></trkpt><trkpt lat="43.477495041548465" lon="10.586374049511885"><ele>422.8</ele><time>2026-04-19T08:11:49Z</time></trkpt><trkpt lat="43.47745892287049" lon="10.586250388246368"><ele>421.4</ele><time>2026-04-19T08:11:50Z</time></trkpt><trkpt lat="43.477429282476685" lon="10.586129210944616"><ele>420.0</ele><time>2026-04-19T08:11:51Z</time></trkpt><trkpt lat="43.47741408485135" lon="10.586001164944058"><ele>418.6666666666667</ele><time>2026-04-19T08:11:52Z</time></trkpt><trkpt lat="43.47739564770031" lon="10.585885665103536"><ele>417.33333333333337</ele><time>2026-04-19T08:11:53Z</time></trkpt><trkpt lat="43.477383295852995" lon="10.58576981442031"><ele>416.0</ele><time>2026-04-19T08:11:54Z</time></trkpt><trkpt lat="43.477386344677384" lon="10.585646415992723"><ele>414.6666666666667</ele><time>2026-04-19T08:11:55Z</time></trkpt><trkpt lat="43.477417733132235" lon="10.585531469207464"><ele>413.33333333333337</ele><time>2026-04-19T08:11:56Z</time></trkpt><trkpt lat="43.47744610648924" lon="10.585427571987067"><ele>412.0</ele><time>2026-04-19T08:11:57Z</time></trkpt><trkpt lat="43.47748214156048" lon="10.585308367429016"><ele>409.8</ele><time>2026-04-19T08:11:58Z</time></trkpt><trkpt lat="43.47751628502565" lon="10.585214012963297"><ele>407.6</ele><time>2026-04-19T08:11:59Z</time></trkpt><trkpt lat="43.47754500032557" lon="10.585100335772912"><ele>405.40000000000003</ele><time>2026-04-19T08:12:00Z</time></trkpt><trkpt lat="43.47756198968645" lon="10.584982819644361"><ele>403.20000000000005</ele><time>2026-04-19T08:12:01Z</time></trkpt><trkpt lat="43.4775701798694" lon="10.584846932570336"><ele>401.0</ele><time>2026-04-19T08:12:02Z</time></trkpt><trkpt lat="43.47757473532523" lon="10.584696895826117"><ele>401.0</ele><time>2026-04-19T08:12:03Z</time></trkpt><trkpt lat="43.47758214980549" lon="10.584545097551809"><ele>401.0</ele><time>2026-04-19T08:12:04Z</time></trkpt><trkpt lat="43.47758637793907" lon="10.584404243801702"><ele>401.0</ele><time>2026-04-19T08:12:05Z</time></trkpt><trkpt lat="43.47758879150313" lon="10.584264667700383"><ele>401.0</ele><time>2026-04-19T08:12:06Z</time></trkpt><trkpt lat="43.47758117547571" lon="10.584122344876398"><ele>401.0</ele><time>2026-04-19T08:12:07Z</time></trkpt><trkpt lat="43.477563589699955" lon="10.583975574423627"><ele>399.20000000000005</ele><time>2026-04-19T08:12:08Z</time></trkpt><trkpt lat="43.47753420106534" lon="10.58382262217625"><ele>397.40000000000003</ele><time>2026-04-19T08:12:09Z</time></trkpt><trkpt lat="43.477521197731235" lon="10.583683370607984"><ele>395.6</ele><time>2026-04-19T08:12:10.001Z</time></trkpt><trkpt lat="43.47748553295233" lon="10.583539784353082"><ele>393.8</ele><time>2026-04-19T08:12:11.001Z</time></trkpt><trkpt lat="43.47747644632646" lon="10.583387252205311"><ele>392.0</ele><time>2026-04-19T08:12:12.001Z</time></trkpt><trkpt lat="43.477458103845684" lon="10.583249309527696"><ele>390.8</ele><time>2026-04-19T08:12:13.001Z</time></trkpt><trkpt lat="43.477439926096245" lon="10.583119767543067"><ele>389.6</ele><time>2026-04-19T08:12:14.001Z</time></trkpt><trkpt lat="43.47741739146516" lon="10.582997393881618"><ele>388.40000000000003</ele><time>2026-04-19T08:12:15.001Z</time></trkpt><trkpt lat="43.47738976268806" lon="10.5828646424392"><ele>387.20000000000005</ele><time>2026-04-19T08:12:16.001Z</time></trkpt><trkpt lat="43.47736095123365" lon="10.58273479624877"><ele>386.0</ele><time>2026-04-19T08:12:17.001Z</time></trkpt><trkpt lat="43.47733117436787" lon="10.582609122481546"><ele>384.8</ele><time>2026-04-19T08:12:18.001Z</time></trkpt><trkpt lat="43.477305370056264" lon="10.582480733625728"><ele>383.6</ele><time>2026-04-19T08:12:19.001Z</time></trkpt><trkpt lat="43.477279379949685" lon="10.582355017256864"><ele>382.4</ele><time>2026-04-19T08:12:20.001Z</time></trkpt><trkpt lat="43.47724559837631" lon="10.582234623023908"><ele>381.2</ele><time>2026-04-19T08:12:21.001Z</time></trkpt><trkpt lat="43.477211581430694" lon="10.582116020205882"><ele>380.0</ele><time>2026-04-19T08:12:22.001Z</time></trkpt><trkpt lat="43.47717013566334" lon="10.581998676634132"><ele>377.0</ele><time>2026-04-19T08:12:23.001Z</time></trkpt><trkpt lat="43.47712747426194" lon="10.581890147578253"><ele>374.0</ele><time>2026-04-19T08:12:24.001Z</time></trkpt><trkpt lat="43.47709134606027" lon="10.581762187574226"><ele>371.0</ele><time>2026-04-19T08:12:25.001Z</time></trkpt><trkpt lat="43.47706577395386" lon="10.58162638243755"><ele>368.0</ele><time>2026-04-19T08:12:26.001Z</time></trkpt><trkpt lat="43.47705443691139" lon="10.581473207547246"><ele>365.0</ele><time>2026-04-19T08:12:27.001Z</time></trkpt><trkpt lat="43.47705468666896" lon="10.581324064139535"><ele>361.8</ele><time>2026-04-19T08:12:28.001Z</time></trkpt><trkpt lat="43.47706360295871" lon="10.581181152493967"><ele>358.6</ele><time>2026-04-19T08:12:29.001Z</time></trkpt><trkpt lat="43.47707192351509" lon="10.581057947942865"><ele>355.4</ele><time>2026-04-19T08:12:30.001Z</time></trkpt><trkpt lat="43.477066482628324" lon="10.580945136839208"><ele>352.2</ele><time>2026-04-19T08:12:31.001Z</time></trkpt><trkpt lat="43.4770336771392" lon="10.580839409678909"><ele>349.0</ele><time>2026-04-19T08:12:32.001Z</time></trkpt><trkpt lat="43.47697889508621" lon="10.580704523335147"><ele>349.0</ele><time>2026-04-19T08:12:33.001Z</time></trkpt><trkpt lat="43.476954507810454" lon="10.580585924212947"><ele>349.0</ele><time>2026-04-19T08:12:34.001Z</time></trkpt><trkpt lat="43.47692904860658" lon="10.580456935643817"><ele>349.0</ele><time>2026-04-19T08:12:36.001Z</time></trkpt><trkpt lat="43.47692320205448" lon="10.580333181322011"><ele>349.0</ele><time>2026-04-19T08:12:38.001Z</time></trkpt><trkpt lat="43.47691244200906" lon="10.580164701455047"><ele>349.0</ele><time>2026-04-19T08:12:40.001Z</time></trkpt><trkpt lat="43.47690579827218" lon="10.580073815010827"><ele>348.5</ele><time>2026-04-19T08:12:41.001Z</time></trkpt><trkpt lat="43.47690398581619" lon="10.579971713475121"><ele>348.0</ele><time>2026-04-19T08:12:42.001Z</time></trkpt><trkpt lat="43.4769032567653" lon="10.579867997662191"><ele>347.5</ele><time>2026-04-19T08:12:43.001Z</time></trkpt><trkpt lat="43.4769045749944" lon="10.579772285799312"><ele>347.0</ele><time>2026-04-19T08:12:44.001Z</time></trkpt><trkpt lat="43.47690902125979" lon="10.57968073743994"><ele>346.5</ele><time>2026-04-19T08:12:45.001Z</time></trkpt><trkpt lat="43.47692495159639" lon="10.579533282032571"><ele>346.0</ele><time>2026-04-19T08:12:47.001Z</time></trkpt><trkpt lat="43.47694786919148" lon="10.579426482555007"><ele>345.8333333333333</ele><time>2026-04-19T08:12:49.001Z</time></trkpt><trkpt lat="43.47685168179504" lon="10.579326619911349"><ele>345.66666666666663</ele><time>2026-04-19T08:12:50.001Z</time></trkpt><trkpt lat="43.476806672051396" lon="10.579235331494605"><ele>345.5</ele><time>2026-04-19T08:12:52.001Z</time></trkpt><trkpt lat="43.47675632515908" lon="10.57915189785498"><ele>345.3333333333333</ele><time>2026-04-19T08:12:54.001Z</time></trkpt><trkpt lat="43.47670506820292" lon="10.579077366353824"><ele>345.1666666666667</ele><time>2026-04-19T08:12:56Z</time></trkpt><trkpt lat="43.47665517046854" lon="10.57898738274849"><ele>345.0</ele><time>2026-04-19T08:12:58Z</time></trkpt><trkpt lat="43.476601763317575" lon="10.57891358765186"><ele>345.0</ele><time>2026-04-19T08:13:00Z</time></trkpt><trkpt lat="43.47656878680181" lon="10.57883410967859"><ele>345.0</ele><time>2026-04-19T08:13:02Z</time></trkpt><trkpt lat="43.47651666088083" lon="10.578762661442868"><ele>345.0</ele><time>2026-04-19T08:18:03.001Z</time></trkpt><trkpt lat="43.47649433861202" lon="10.578674209821624"><ele>345.0</ele><time>2026-04-19T08:18:05.001Z</time></trkpt><trkpt lat="43.476457855918206" lon="10.578567693476902"><ele>345.0</ele><time>2026-04-19T08:18:07.001Z</time></trkpt><trkpt lat="43.47642222772306" lon="10.578398857958305"><ele>345.0</ele><time>2026-04-19T08:18:09.001Z</time></trkpt><trkpt lat="43.476409235357146" lon="10.578301848938448"><ele>344.6666666666667</ele><time>2026-04-19T08:18:10.001Z</time></trkpt><trkpt lat="43.476390726431426" lon="10.578194721021726"><ele>344.3333333333333</ele><time>2026-04-19T08:18:11.001Z</time></trkpt><trkpt lat="43.47637129024333" lon="10.578084899035462"><ele>344.0</ele><time>2026-04-19T08:18:12.001Z</time></trkpt><trkpt lat="43.476347346850694" lon="10.577978047266798"><ele>343.66666666666663</ele><time>2026-04-19T08:18:13.001Z</time></trkpt><trkpt lat="43.47632952745611" lon="10.577862329353751"><ele>343.3333333333333</ele><time>2026-04-19T08:18:14.001Z</time></trkpt><trkpt lat="43.47631063274626" lon="10.57773767266981"><ele>343.0</ele><time>2026-04-19T08:18:15.001Z</time></trkpt><trkpt lat="43.47629610366106" lon="10.5776047570089"><ele>343.0</ele><time>2026-04-19T08:18:16.001Z</time></trkpt><trkpt lat="43.47628604289024" lon="10.577475411233545"><ele>343.0</ele><time>2026-04-19T08:18:17.001Z</time></trkpt><trkpt lat="43.476281239577716" lon="10.57734182192109"><ele>343.0</ele><time>2026-04-19T08:18:18.001Z</time></trkpt><trkpt lat="43.47628136433167" lon="10.577208749345836"><ele>343.0</ele><time>2026-04-19T08:18:19.001Z</time></trkpt><trkpt lat="43.47628697650754" lon="10.577088669878437"><ele>343.0</ele><time>2026-04-19T08:18:20.001Z</time></trkpt><trkpt lat="43.476303491546865" lon="10.576973932634335"><ele>342.57142857142856</ele><time>2026-04-19T08:18:21.001Z</time></trkpt><trkpt lat="43.476343791457566" lon="10.576871293926093"><ele>342.1428571428571</ele><time>2026-04-19T08:18:22.001Z</time></trkpt><trkpt lat="43.476397259472755" lon="10.576788547626633"><ele>341.7142857142857</ele><time>2026-04-19T08:18:23.001Z</time></trkpt><trkpt lat="43.47645012469306" lon="10.576723884302279"><ele>341.2857142857143</ele><time>2026-04-19T08:18:24.001Z</time></trkpt><trkpt lat="43.47649332513777" lon="10.576653957127613"><ele>340.85714285714283</ele><time>2026-04-19T08:18:25.001Z</time></trkpt><trkpt lat="43.47651956974617" lon="10.576562012809518"><ele>340.42857142857144</ele><time>2026-04-19T08:18:26.001Z</time></trkpt><trkpt lat="43.47651700953703" lon="10.576458430745213"><ele>340.0</ele><time>2026-04-19T08:18:27.001Z</time></trkpt><trkpt lat="43.47649454926287" lon="10.57635707541088"><ele>340.0</ele><time>2026-04-19T08:18:28.001Z</time></trkpt><trkpt lat="43.476458549474515" lon="10.576240760902813"><ele>340.0</ele><time>2026-04-19T08:18:29.001Z</time></trkpt><trkpt lat="43.4763962065115" lon="10.576154272914081"><ele>340.0</ele><time>2026-04-19T08:18:30.001Z</time></trkpt><trkpt lat="43.4763373625369" lon="10.576050300898565"><ele>340.0</ele><time>2026-04-19T08:18:31.001Z</time></trkpt><trkpt lat="43.47627521463792" lon="10.575934659862336"><ele>340.0</ele><time>2026-04-19T08:18:32.001Z</time></trkpt><trkpt lat="43.476208815300524" lon="10.575813569225907"><ele>338.6</ele><time>2026-04-19T08:18:33.001Z</time></trkpt><trkpt lat="43.4761482282453" lon="10.575697759057455"><ele>337.2</ele><time>2026-04-19T08:18:34.001Z</time></trkpt><trkpt lat="43.47608475324044" lon="10.57557995194168"><ele>335.79999999999995</ele><time>2026-04-19T08:18:35.001Z</time></trkpt><trkpt lat="43.47602059619066" lon="10.575458459217089"><ele>334.4</ele><time>2026-04-19T08:18:36.001Z</time></trkpt><trkpt lat="43.475952936594624" lon="10.575345295003109"><ele>333.0</ele><time>2026-04-19T08:18:37.001Z</time></trkpt><trkpt lat="43.47587367510694" lon="10.57524365513048"><ele>333.0</ele><time>2026-04-19T08:18:38.001Z</time></trkpt><trkpt lat="43.475790097388305" lon="10.575148826468853"><ele>333.0</ele><time>2026-04-19T08:18:39.001Z</time></trkpt><trkpt lat="43.47570079701254" lon="10.575069804959584"><ele>333.0</ele><time>2026-04-19T08:18:40.001Z</time></trkpt><trkpt lat="43.47560702479729" lon="10.574994753050282"><ele>333.0</ele><time>2026-04-19T08:18:41.001Z</time></trkpt><trkpt lat="43.47551664607486" lon="10.57491537173374"><ele>333.0</ele><time>2026-04-19T08:18:42.001Z</time></trkpt><trkpt lat="43.47543366617013" lon="10.57483094963871"><ele>330.79999999999995</ele><time>2026-04-19T08:18:43.001Z</time></trkpt><trkpt lat="43.475351921303464" lon="10.574743402160248"><ele>328.6</ele><time>2026-04-19T08:18:44.001Z</time></trkpt><trkpt lat="43.475277759363486" lon="10.574641605833982"><ele>326.4</ele><time>2026-04-19T08:18:45.001Z</time></trkpt><trkpt lat="43.475213714943756" lon="10.574529641887056"><ele>324.20000000000005</ele><time>2026-04-19T08:18:46.001Z</time></trkpt><trkpt lat="43.47516031600029" lon="10.574403546214336"><ele>322.0</ele><time>2026-04-19T08:18:47.001Z</time></trkpt><trkpt lat="43.47511022646784" lon="10.574279495117631"><ele>322.0</ele><time>2026-04-19T08:18:48.001Z</time></trkpt><trkpt lat="43.47507611133742" lon="10.574150884566485"><ele>322.0</ele><time>2026-04-19T08:18:49.001Z</time></trkpt><trkpt lat="43.47503011478344" lon="10.574030583838953"><ele>322.0</ele><time>2026-04-19T08:18:50.001Z</time></trkpt><trkpt lat="43.47497874922387" lon="10.573886713910802"><ele>322.0</ele><time>2026-04-19T08:18:51.001Z</time></trkpt><trkpt lat="43.474939746761216" lon="10.57376217879003"><ele>322.0</ele><time>2026-04-19T08:18:52.001Z</time></trkpt><trkpt lat="43.474905842788196" lon="10.573655173748936"><ele>321.66666666666663</ele><time>2026-04-19T08:18:53.001Z</time></trkpt><trkpt lat="43.4748768735314" lon="10.573548395675251"><ele>321.3333333333333</ele><time>2026-04-19T08:18:54.001Z</time></trkpt><trkpt lat="43.474878257912934" lon="10.57343418473859"><ele>321.0</ele><time>2026-04-19T08:18:55.001Z</time></trkpt><trkpt lat="43.47489106795761" lon="10.573321831797504"><ele>320.6666666666667</ele><time>2026-04-19T08:18:56.001Z</time></trkpt><trkpt lat="43.47493084607282" lon="10.573225317719846"><ele>320.33333333333337</ele><time>2026-04-19T08:18:57.001Z</time></trkpt><trkpt lat="43.474982675033296" lon="10.573143757730776"><ele>320.0</ele><time>2026-04-19T08:18:58.001Z</time></trkpt><trkpt lat="43.47505467954462" lon="10.573078483206647"><ele>320.0</ele><time>2026-04-19T08:18:59.001Z</time></trkpt><trkpt lat="43.47512659329643" lon="10.573044188687865"><ele>320.0</ele><time>2026-04-19T08:19:00.001Z</time></trkpt><trkpt lat="43.47521180173583" lon="10.573011254186467"><ele>320.0</ele><time>2026-04-19T08:19:01.001Z</time></trkpt><trkpt lat="43.47530607145061" lon="10.573003642988224"><ele>320.0</ele><time>2026-04-19T08:19:02.001Z</time></trkpt><trkpt lat="43.47539749069276" lon="10.573004096446889"><ele>320.0</ele><time>2026-04-19T08:19:03.001Z</time></trkpt><trkpt lat="43.475492693655426" lon="10.573011934855822"><ele>320.0</ele><time>2026-04-19T08:19:04.001Z</time></trkpt><trkpt lat="43.47559522906593" lon="10.573026945586685"><ele>319.6666666666667</ele><time>2026-04-19T08:19:05.001Z</time></trkpt><trkpt lat="43.47568902032755" lon="10.573058897741724"><ele>319.33333333333337</ele><time>2026-04-19T08:19:06.001Z</time></trkpt><trkpt lat="43.47576226137424" lon="10.57310501656506"><ele>319.0</ele><time>2026-04-19T08:19:07.001Z</time></trkpt><trkpt lat="43.475832820078004" lon="10.573176797225305"><ele>318.6666666666667</ele><time>2026-04-19T08:19:08.001Z</time></trkpt><trkpt lat="43.47588300847368" lon="10.57327022491632"><ele>318.3333333333333</ele><time>2026-04-19T08:19:09.001Z</time></trkpt><trkpt lat="43.47592017422994" lon="10.573371875006725"><ele>318.0</ele><time>2026-04-19T08:19:10.001Z</time></trkpt><trkpt lat="43.475937119010275" lon="10.573493128992588"><ele>318.0</ele><time>2026-04-19T08:19:11.001Z</time></trkpt><trkpt lat="43.47596455971936" lon="10.573598602641969"><ele>318.0</ele><time>2026-04-19T08:19:12.001Z</time></trkpt><trkpt lat="43.476016444855205" lon="10.573675835487895"><ele>318.0</ele><time>2026-04-19T08:19:13.001Z</time></trkpt><trkpt lat="43.47611969943938" lon="10.57371314189496"><ele>318.0</ele><time>2026-04-19T08:19:15.001Z</time></trkpt><trkpt lat="43.47619850028982" lon="10.573710010586037"><ele>318.0</ele><time>2026-04-19T08:19:16.001Z</time></trkpt><trkpt lat="43.476282154126324" lon="10.573709217239406"><ele>318.0</ele><time>2026-04-19T08:19:17.001Z</time></trkpt><trkpt lat="43.47635767245169" lon="10.57364406268192"><ele>315.4</ele><time>2026-04-19T08:19:18.001Z</time></trkpt><trkpt lat="43.47643036618941" lon="10.573560066788135"><ele>312.8</ele><time>2026-04-19T08:19:19.001Z</time></trkpt><trkpt lat="43.47648742005325" lon="10.57348462532176"><ele>310.2</ele><time>2026-04-19T08:19:20.001Z</time></trkpt><trkpt lat="43.47655258505303" lon="10.573430516330486"><ele>307.6</ele><time>2026-04-19T08:19:21.001Z</time></trkpt><trkpt lat="43.47667870383969" lon="10.573452306878298"><ele>305.0</ele><time>2026-04-19T08:19:23Z</time></trkpt><trkpt lat="43.47673723200629" lon="10.573516266802029"><ele>305.0</ele><time>2026-04-19T08:19:24Z</time></trkpt><trkpt lat="43.47679589884009" lon="10.573573943912796"><ele>305.0</ele><time>2026-04-19T08:19:25Z</time></trkpt><trkpt lat="43.476840746129696" lon="10.573644236455724"><ele>305.0</ele><time>2026-04-19T08:19:26Z</time></trkpt><trkpt lat="43.47692044980355" lon="10.573729349895164"><ele>305.0</ele><time>2026-04-19T08:19:28Z</time></trkpt><trkpt lat="43.47701054070889" lon="10.573734233751424"><ele>305.0</ele><time>2026-04-19T08:19:30Z</time></trkpt><trkpt lat="43.477059959062274" lon="10.573653362238037"><ele>305.0</ele><time>2026-04-19T08:19:31Z</time></trkpt><trkpt lat="43.477117685594116" lon="10.573555923382164"><ele>306.2</ele><time>2026-04-19T08:19:32Z</time></trkpt><trkpt lat="43.47715522057879" lon="10.573436227676607"><ele>307.4</ele><time>2026-04-19T08:19:33Z</time></trkpt><trkpt lat="43.47718833913024" lon="10.573316203341966"><ele>308.6</ele><time>2026-04-19T08:19:34Z</time></trkpt><trkpt lat="43.477220668375466" lon="10.573199039516897"><ele>309.8</ele><time>2026-04-19T08:19:35Z</time></trkpt><trkpt lat="43.47725270135932" lon="10.57309945152366"><ele>311.0</ele><time>2026-04-19T08:19:36Z</time></trkpt><trkpt lat="43.4773375872553" lon="10.572982892250684"><ele>311.0</ele><time>2026-04-19T08:19:38Z</time></trkpt><trkpt lat="43.477407573064674" lon="10.572993694863463"><ele>311.0</ele><time>2026-04-19T08:19:39Z</time></trkpt><trkpt lat="43.47748350606187" lon="10.573045347094908"><ele>311.0</ele><time>2026-04-19T08:19:40Z</time></trkpt><trkpt lat="43.47754933196082" lon="10.573111919943173"><ele>311.0</ele><time>2026-04-19T08:19:41Z</time></trkpt><trkpt lat="43.477613122658596" lon="10.573194570703413"><ele>311.0</ele><time>2026-04-19T08:19:42Z</time></trkpt><trkpt lat="43.477663325932106" lon="10.573279466913073"><ele>311.0</ele><time>2026-04-19T08:19:43Z</time></trkpt><trkpt lat="43.477723102204415" lon="10.573355868830664"><ele>311.0</ele><time>2026-04-19T08:19:44Z</time></trkpt><trkpt lat="43.47780617744379" lon="10.573457888380126"><ele>311.0</ele><time>2026-04-19T08:19:46Z</time></trkpt><trkpt lat="43.477876992512044" lon="10.57346793274362"><ele>311.0</ele><time>2026-04-19T08:19:47Z</time></trkpt><trkpt lat="43.478011207534124" lon="10.57344220375062"><ele>311.0</ele><time>2026-04-19T08:19:49Z</time></trkpt><trkpt lat="43.47802203675579" lon="10.573301310908194"><ele>311.0</ele><time>2026-04-19T08:19:50Z</time></trkpt><trkpt lat="43.477994314857085" lon="10.573204722840845"><ele>311.0</ele><time>2026-04-19T08:19:51Z</time></trkpt><trkpt lat="43.47795769562962" lon="10.573114321126198"><ele>311.0</ele><time>2026-04-19T08:19:52Z</time></trkpt><trkpt lat="43.47788084043332" lon="10.572933221929942"><ele>311.0</ele><time>2026-04-19T08:19:54Z</time></trkpt><trkpt lat="43.477845428768575" lon="10.572808638781806"><ele>311.0</ele><time>2026-04-19T08:19:55Z</time></trkpt><trkpt lat="43.477811958341846" lon="10.572666605291147"><ele>311.0</ele><time>2026-04-19T08:19:56Z</time></trkpt><trkpt lat="43.47776228479066" lon="10.57252496689294"><ele>307.25</ele><time>2026-04-19T08:19:57Z</time></trkpt><trkpt lat="43.47774495310297" lon="10.572367633703733"><ele>303.5</ele><time>2026-04-19T08:19:58Z</time></trkpt><trkpt lat="43.477700766757614" lon="10.572219987019368"><ele>299.75</ele><time>2026-04-19T08:19:59Z</time></trkpt><trkpt lat="43.47766871997634" lon="10.572069215817006"><ele>296.0</ele><time>2026-04-19T08:20:00Z</time></trkpt><trkpt lat="43.4776367891899" lon="10.571918892299527"><ele>294.5</ele><time>2026-04-19T08:20:01Z</time></trkpt><trkpt lat="43.47761455549683" lon="10.571778574340478"><ele>293.0</ele><time>2026-04-19T08:20:02Z</time></trkpt><trkpt lat="43.477591610695725" lon="10.57165312999556"><ele>291.5</ele><time>2026-04-19T08:20:03Z</time></trkpt><trkpt lat="43.477585022840024" lon="10.571546693016055"><ele>290.0</ele><time>2026-04-19T08:20:04Z</time></trkpt><trkpt lat="43.47760217598629" lon="10.571461486375744"><ele>288.5</ele><time>2026-04-19T08:20:05Z</time></trkpt><trkpt lat="43.47767452901469" lon="10.571353674867447"><ele>287.0</ele><time>2026-04-19T08:20:07Z</time></trkpt><trkpt lat="43.4777397190076" lon="10.571341981579653"><ele>287.0</ele><time>2026-04-19T08:20:08Z</time></trkpt><trkpt lat="43.47781179968926" lon="10.57134496337003"><ele>287.0</ele><time>2026-04-19T08:20:09Z</time></trkpt><trkpt lat="43.47790366494197" lon="10.571356426659376"><ele>287.0</ele><time>2026-04-19T08:20:10Z</time></trkpt><trkpt lat="43.477996993738834" lon="10.571374037570534"><ele>287.0</ele><time>2026-04-19T08:20:11Z</time></trkpt><trkpt lat="43.47806281267641" lon="10.571355377064442"><ele>287.0</ele><time>2026-04-19T08:20:12Z</time></trkpt><trkpt lat="43.47812900747367" lon="10.571354387805448"><ele>287.0</ele><time>2026-04-19T08:20:13Z</time></trkpt><trkpt lat="43.47823092456504" lon="10.571292928332896"><ele>288.6666666666667</ele><time>2026-04-19T08:20:15Z</time></trkpt><trkpt lat="43.47826101972151" lon="10.571209101590282"><ele>290.33333333333337</ele><time>2026-04-19T08:20:16Z</time></trkpt><trkpt lat="43.47823095136304" lon="10.571112537554638"><ele>292.0</ele><time>2026-04-19T08:20:18Z</time></trkpt><trkpt lat="43.478180673427" lon="10.57103610127223"><ele>293.6666666666667</ele><time>2026-04-19T08:20:20Z</time></trkpt><trkpt lat="43.47813336076273" lon="10.570925416002964"><ele>295.3333333333333</ele><time>2026-04-19T08:20:22.001Z</time></trkpt><trkpt lat="43.4780660908397" lon="10.57081195674755"><ele>297.0</ele><time>2026-04-19T08:20:24.001Z</time></trkpt><trkpt lat="43.47802488033463" lon="10.570741149401528"><ele>297.0</ele><time>2026-04-19T08:20:25.001Z</time></trkpt><trkpt lat="43.47797416069144" lon="10.570684642490955"><ele>297.0</ele><time>2026-04-19T08:20:26.001Z</time></trkpt><trkpt lat="43.47793578146799" lon="10.570600691059136"><ele>297.0</ele><time>2026-04-19T08:20:27.001Z</time></trkpt><trkpt lat="43.477899412669366" lon="10.570501392100796"><ele>297.0</ele><time>2026-04-19T08:20:28.001Z</time></trkpt><trkpt lat="43.477880313686406" lon="10.570402703460443"><ele>297.0</ele><time>2026-04-19T08:20:29.001Z</time></trkpt><trkpt lat="43.477875163685795" lon="10.570302563222645"><ele>297.0</ele><time>2026-04-19T08:20:30.001Z</time></trkpt><trkpt lat="43.4778857262577" lon="10.570216002428767"><ele>297.0</ele><time>2026-04-19T08:20:31.001Z</time></trkpt><trkpt lat="43.477921478469796" lon="10.570134946717433"><ele>295.3333333333333</ele><time>2026-04-19T08:20:32.001Z</time></trkpt><trkpt lat="43.47797263042774" lon="10.57007900046737"><ele>293.6666666666667</ele><time>2026-04-19T08:20:33.001Z</time></trkpt><trkpt lat="43.47803610166798" lon="10.570027573045671"><ele>292.0</ele><time>2026-04-19T08:20:34.001Z</time></trkpt><trkpt lat="43.478100699791966" lon="10.56994920495631"><ele>290.33333333333337</ele><time>2026-04-19T08:20:35.001Z</time></trkpt><trkpt lat="43.47816121911424" lon="10.569866965241813"><ele>288.6666666666667</ele><time>2026-04-19T08:20:36.001Z</time></trkpt><trkpt lat="43.47822124496376" lon="10.569781172172153"><ele>287.0</ele><time>2026-04-19T08:20:37.001Z</time></trkpt><trkpt lat="43.47827131507794" lon="10.569692013771263"><ele>287.0</ele><time>2026-04-19T08:20:38.001Z</time></trkpt><trkpt lat="43.478315027440054" lon="10.56962760870627"><ele>287.0</ele><time>2026-04-19T08:20:39.001Z</time></trkpt><trkpt lat="43.478376899063015" lon="10.569581830178493"><ele>287.0</ele><time>2026-04-19T08:20:40.001Z</time></trkpt><trkpt lat="43.47845164335254" lon="10.569560626755493"><ele>287.0</ele><time>2026-04-19T08:20:41.001Z</time></trkpt><trkpt lat="43.478537961381" lon="10.569531740744905"><ele>287.0</ele><time>2026-04-19T08:20:42.001Z</time></trkpt><trkpt lat="43.478629028595904" lon="10.56949852172931"><ele>287.0</ele><time>2026-04-19T08:20:43.001Z</time></trkpt><trkpt lat="43.478715381899114" lon="10.56946636738684"><ele>283.33333333333337</ele><time>2026-04-19T08:20:44.001Z</time></trkpt><trkpt lat="43.47880140161455" lon="10.569421937590358"><ele>279.6666666666667</ele><time>2026-04-19T08:20:45.001Z</time></trkpt><trkpt lat="43.478883419313945" lon="10.569391406034127"><ele>276.0</ele><time>2026-04-19T08:20:46.001Z</time></trkpt><trkpt lat="43.478964151611265" lon="10.569377844619748"><ele>272.3333333333333</ele><time>2026-04-19T08:20:47.001Z</time></trkpt><trkpt lat="43.479045814725055" lon="10.569366637120602"><ele>268.66666666666663</ele><time>2026-04-19T08:20:48.001Z</time></trkpt><trkpt lat="43.47913208518097" lon="10.56937368882234"><ele>265.0</ele><time>2026-04-19T08:20:49.001Z</time></trkpt><trkpt lat="43.47921131558372" lon="10.569409936007288"><ele>265.0</ele><time>2026-04-19T08:20:50.001Z</time></trkpt><trkpt lat="43.47928793344314" lon="10.569445221274865"><ele>265.0</ele><time>2026-04-19T08:20:51.001Z</time></trkpt><trkpt lat="43.47937043066815" lon="10.569510613094577"><ele>265.0</ele><time>2026-04-19T08:20:52.001Z</time></trkpt><trkpt lat="43.47945422678316" lon="10.569578771442231"><ele>265.0</ele><time>2026-04-19T08:20:53.001Z</time></trkpt><trkpt lat="43.47953374953872" lon="10.569660137210471"><ele>265.0</ele><time>2026-04-19T08:20:54.001Z</time></trkpt><trkpt lat="43.47960970968083" lon="10.56974191764585"><ele>266.8</ele><time>2026-04-19T08:20:55.001Z</time></trkpt><trkpt lat="43.47968582017765" lon="10.569820393600548"><ele>268.6</ele><time>2026-04-19T08:20:56.001Z</time></trkpt><trkpt lat="43.47975656648858" lon="10.56989885313867"><ele>270.4</ele><time>2026-04-19T08:20:57.001Z</time></trkpt><trkpt lat="43.479825925101565" lon="10.569994757426748"><ele>272.2</ele><time>2026-04-19T08:20:58.001Z</time></trkpt><trkpt lat="43.47987908684677" lon="10.570054705638325"><ele>274.0</ele><time>2026-04-19T08:20:59.001Z</time></trkpt><trkpt lat="43.47996579428045" lon="10.570115192664156"><ele>274.0</ele><time>2026-04-19T08:21:01.001Z</time></trkpt><trkpt lat="43.48005642396796" lon="10.570171314595525"><ele>274.0</ele><time>2026-04-19T08:21:03.001Z</time></trkpt><trkpt lat="43.480152858035986" lon="10.570210725035713"><ele>274.0</ele><time>2026-04-19T08:21:05.001Z</time></trkpt><trkpt lat="43.48022349849005" lon="10.57019582088016"><ele>274.0</ele><time>2026-04-19T08:21:06.001Z</time></trkpt><trkpt lat="43.480315067373986" lon="10.570138964649155"><ele>274.0</ele><time>2026-04-19T08:21:08.001Z</time></trkpt><trkpt lat="43.48035574251444" lon="10.570053473209217"><ele>274.0</ele><time>2026-04-19T08:21:10.001Z</time></trkpt><trkpt lat="43.48037173599818" lon="10.56996813430919"><ele>274.3333333333333</ele><time>2026-04-19T08:21:26Z</time></trkpt><trkpt lat="43.480457333615995" lon="10.570044879613327"><ele>274.66666666666663</ele><time>2026-04-19T08:21:32Z</time></trkpt><trkpt lat="43.48053308685247" lon="10.57011241573815"><ele>275.0</ele><time>2026-04-19T08:21:34Z</time></trkpt><trkpt lat="43.480597101372524" lon="10.57019230755278"><ele>275.3333333333333</ele><time>2026-04-19T08:21:36Z</time></trkpt><trkpt lat="43.48064569355004" lon="10.570251378775257"><ele>275.6666666666667</ele><time>2026-04-19T08:21:42Z</time></trkpt><trkpt lat="43.48070903064097" lon="10.57036765496046"><ele>276.0</ele><time>2026-04-19T08:21:48Z</time></trkpt><trkpt lat="43.48073597288916" lon="10.570476420770735"><ele>276.0</ele><time>2026-04-19T08:21:50Z</time></trkpt><trkpt lat="43.4807683437124" lon="10.570572073176931"><ele>276.0</ele><time>2026-04-19T08:21:52Z</time></trkpt><trkpt lat="43.48079292144635" lon="10.570664543662325"><ele>276.0</ele><time>2026-04-19T08:21:54Z</time></trkpt><trkpt lat="43.48087288813642" lon="10.570797964763607"><ele>276.0</ele><time>2026-04-19T08:21:56Z</time></trkpt><trkpt lat="43.48096084668221" lon="10.570752922499869"><ele>276.0</ele><time>2026-04-19T08:21:58Z</time></trkpt><trkpt lat="43.481028925126765" lon="10.570628776678086"><ele>276.0</ele><time>2026-04-19T08:22:00Z</time></trkpt><trkpt lat="43.48109758368113" lon="10.570565817638423"><ele>276.0</ele><time>2026-04-19T08:22:02Z</time></trkpt><trkpt lat="43.48118700649154" lon="10.570510476813261"><ele>276.0</ele><time>2026-04-19T08:22:04Z</time></trkpt><trkpt lat="43.481305241420536" lon="10.570538536049906"><ele>276.0</ele><time>2026-04-19T08:22:06Z</time></trkpt><trkpt lat="43.48137192329946" lon="10.570558246026119"><ele>276.0</ele><time>2026-04-19T08:22:07Z</time></trkpt><trkpt lat="43.48143408633049" lon="10.570572705085551"><ele>276.0</ele><time>2026-04-19T08:22:08Z</time></trkpt><trkpt lat="43.481558366220185" lon="10.57055455270942"><ele>275.5</ele><time>2026-04-19T08:22:10Z</time></trkpt><trkpt lat="43.481651929104075" lon="10.570562784110717"><ele>275.0</ele><time>2026-04-19T08:22:12Z</time></trkpt><trkpt lat="43.48172656438562" lon="10.570595567570415"><ele>274.5</ele><time>2026-04-19T08:22:14Z</time></trkpt><trkpt lat="43.48179062214385" lon="10.57064981906249"><ele>274.0</ele><time>2026-04-19T08:22:16Z</time></trkpt><trkpt lat="43.481855487854205" lon="10.570649898971439"><ele>273.5</ele><time>2026-04-19T08:22:18Z</time></trkpt><trkpt lat="43.481913459930816" lon="10.570570862410829"><ele>273.0</ele><time>2026-04-19T08:22:20Z</time></trkpt><trkpt lat="43.481978052117505" lon="10.570478015057198"><ele>273.0</ele><time>2026-04-19T08:22:22Z</time></trkpt><trkpt lat="43.482058781937546" lon="10.57036353503187"><ele>273.0</ele><time>2026-04-19T08:22:24Z</time></trkpt><trkpt lat="43.482096929157215" lon="10.570282746024255"><ele>273.0</ele><time>2026-04-19T08:22:25Z</time></trkpt><trkpt lat="43.48214047715159" lon="10.570196877157352"><ele>273.0</ele><time>2026-04-19T08:22:26Z</time></trkpt><trkpt lat="43.4821672181618" lon="10.570107295179822"><ele>273.0</ele><time>2026-04-19T08:22:27Z</time></trkpt><trkpt lat="43.48220573971712" lon="10.569971094500927"><ele>273.0</ele><time>2026-04-19T08:22:29Z</time></trkpt><trkpt lat="43.48225213582902" lon="10.569882438168584"><ele>272.1666666666667</ele><time>2026-04-19T08:22:31Z</time></trkpt><trkpt lat="43.4823060204502" lon="10.569793134607437"><ele>271.3333333333333</ele><time>2026-04-19T08:22:33Z</time></trkpt><trkpt lat="43.4823121474713" lon="10.569703839184262"><ele>270.5</ele><time>2026-04-19T08:22:34Z</time></trkpt><trkpt lat="43.48235502275169" lon="10.56957654441318"><ele>269.66666666666663</ele><time>2026-04-19T08:22:36Z</time></trkpt><trkpt lat="43.48240238430996" lon="10.569435821578324"><ele>268.8333333333333</ele><time>2026-04-19T08:22:38Z</time></trkpt><trkpt lat="43.482438028556736" lon="10.569359492268127"><ele>268.0</ele><time>2026-04-19T08:22:39Z</time></trkpt><trkpt lat="43.482477871428294" lon="10.569266614605002"><ele>267.8333333333333</ele><time>2026-04-19T08:22:40Z</time></trkpt><trkpt lat="43.48251782197871" lon="10.569164271067013"><ele>267.66666666666663</ele><time>2026-04-19T08:22:41Z</time></trkpt><trkpt lat="43.48255155652753" lon="10.569052927551766"><ele>267.5</ele><time>2026-04-19T08:22:42Z</time></trkpt><trkpt lat="43.482575152566504" lon="10.568929514527168"><ele>267.3333333333333</ele><time>2026-04-19T08:22:43Z</time></trkpt><trkpt lat="43.48260370254149" lon="10.56880936146182"><ele>267.1666666666667</ele><time>2026-04-19T08:22:44Z</time></trkpt><trkpt lat="43.48262487226333" lon="10.568693313905356"><ele>267.0</ele><time>2026-04-19T08:22:45Z</time></trkpt><trkpt lat="43.48264092374583" lon="10.568558944821286"><ele>266.4</ele><time>2026-04-19T08:22:46Z</time></trkpt><trkpt lat="43.48266174941134" lon="10.568428950359962"><ele>265.79999999999995</ele><time>2026-04-19T08:22:47Z</time></trkpt><trkpt lat="43.48269012303785" lon="10.568295197323089"><ele>265.2</ele><time>2026-04-19T08:22:48Z</time></trkpt><trkpt lat="43.48269895526395" lon="10.568159439056677"><ele>264.59999999999997</ele><time>2026-04-19T08:22:49Z</time></trkpt><trkpt lat="43.482718252781204" lon="10.568024803352623"><ele>264.0</ele><time>2026-04-19T08:22:50Z</time></trkpt><trkpt lat="43.48273925801463" lon="10.567903680478128"><ele>262.5</ele><time>2026-04-19T08:22:51Z</time></trkpt><trkpt lat="43.482761408847175" lon="10.567797934169286"><ele>261.0</ele><time>2026-04-19T08:22:52Z</time></trkpt><trkpt lat="43.482783784383805" lon="10.56769447509636"><ele>259.5</ele><time>2026-04-19T08:22:53Z</time></trkpt><trkpt lat="43.48281018504279" lon="10.567593730514929"><ele>258.0</ele><time>2026-04-19T08:22:54Z</time></trkpt><trkpt lat="43.48284141916602" lon="10.567502127429774"><ele>256.5</ele><time>2026-04-19T08:22:55Z</time></trkpt><trkpt lat="43.4829030007789" lon="10.567413762766522"><ele>255.0</ele><time>2026-04-19T08:22:56Z</time></trkpt><trkpt lat="43.48297635835186" lon="10.56734440101233"><ele>254.0</ele><time>2026-04-19T08:22:57Z</time></trkpt><trkpt lat="43.48305644699626" lon="10.567297535881442"><ele>253.0</ele><time>2026-04-19T08:22:58Z</time></trkpt><trkpt lat="43.48313931618697" lon="10.567240204777997"><ele>252.0</ele><time>2026-04-19T08:22:59Z</time></trkpt><trkpt lat="43.48322001905792" lon="10.567177482519131"><ele>251.0</ele><time>2026-04-19T08:23:00Z</time></trkpt><trkpt lat="43.48330167855887" lon="10.567111189755853"><ele>250.0</ele><time>2026-04-19T08:23:01Z</time></trkpt><trkpt lat="43.48337626655435" lon="10.567058637919938"><ele>247.66666666666666</ele><time>2026-04-19T08:23:02Z</time></trkpt><trkpt lat="43.48344855129901" lon="10.567013014403155"><ele>245.33333333333331</ele><time>2026-04-19T08:23:03Z</time></trkpt><trkpt lat="43.48353099216767" lon="10.566975524096108"><ele>243.0</ele><time>2026-04-19T08:23:04Z</time></trkpt><trkpt lat="43.48361538015691" lon="10.5669485210103"><ele>240.66666666666669</ele><time>2026-04-19T08:23:05Z</time></trkpt><trkpt lat="43.48370340748675" lon="10.566931264872691"><ele>238.33333333333334</ele><time>2026-04-19T08:23:06Z</time></trkpt><trkpt lat="43.483792500571965" lon="10.566887910659947"><ele>236.0</ele><time>2026-04-19T08:23:07Z</time></trkpt><trkpt lat="43.48389860172932" lon="10.566856068719375"><ele>234.8</ele><time>2026-04-19T08:23:08Z</time></trkpt><trkpt lat="43.48399831147829" lon="10.566811104592933"><ele>233.60000000000002</ele><time>2026-04-19T08:23:09Z</time></trkpt><trkpt lat="43.48409599338328" lon="10.566744403568931"><ele>232.4</ele><time>2026-04-19T08:23:10Z</time></trkpt><trkpt lat="43.4841886199314" lon="10.566658158334704"><ele>231.2</ele><time>2026-04-19T08:23:11Z</time></trkpt><trkpt lat="43.484279925223646" lon="10.566559905746608"><ele>230.0</ele><time>2026-04-19T08:23:12Z</time></trkpt><trkpt lat="43.48436959562942" lon="10.566468955566892"><ele>230.0</ele><time>2026-04-19T08:23:13Z</time></trkpt><trkpt lat="43.48445740765205" lon="10.56637672095043"><ele>230.0</ele><time>2026-04-19T08:23:14Z</time></trkpt><trkpt lat="43.48454230769772" lon="10.566288732503741"><ele>230.0</ele><time>2026-04-19T08:23:15Z</time></trkpt><trkpt lat="43.484622302557426" lon="10.56619860323081"><ele>230.0</ele><time>2026-04-19T08:23:16Z</time></trkpt><trkpt lat="43.48470271836534" lon="10.566108182963603"><ele>230.0</ele><time>2026-04-19T08:23:17Z</time></trkpt><trkpt lat="43.48478175468957" lon="10.56602009984694"><ele>229.0</ele><time>2026-04-19T08:23:18Z</time></trkpt><trkpt lat="43.48485793177524" lon="10.565930367627946"><ele>228.0</ele><time>2026-04-19T08:23:19Z</time></trkpt><trkpt lat="43.48493128339216" lon="10.565844584270325"><ele>227.0</ele><time>2026-04-19T08:23:20Z</time></trkpt><trkpt lat="43.48499505815563" lon="10.565753832888083"><ele>226.0</ele><time>2026-04-19T08:23:21.001Z</time></trkpt><trkpt lat="43.48506468042784" lon="10.565680500555526"><ele>225.0</ele><time>2026-04-19T08:23:22.001Z</time></trkpt><trkpt lat="43.48512649039595" lon="10.565595203467621"><ele>225.0</ele><time>2026-04-19T08:23:23.001Z</time></trkpt><trkpt lat="43.48518340550757" lon="10.56551002306174"><ele>225.0</ele><time>2026-04-19T08:23:24.001Z</time></trkpt><trkpt lat="43.48523748648213" lon="10.565431898516536"><ele>225.0</ele><time>2026-04-19T08:23:25.001Z</time></trkpt><trkpt lat="43.485290055078664" lon="10.565355316728882"><ele>225.0</ele><time>2026-04-19T08:23:26Z</time></trkpt><trkpt lat="43.48533266935263" lon="10.565271707915029"><ele>225.0</ele><time>2026-04-19T08:23:27Z</time></trkpt><trkpt lat="43.48537498038473" lon="10.565186151317866"><ele>225.0</ele><time>2026-04-19T08:23:28Z</time></trkpt><trkpt lat="43.485420972714344" lon="10.565087705687684"><ele>223.8</ele><time>2026-04-19T08:23:29Z</time></trkpt><trkpt lat="43.485471323134306" lon="10.56497429622394"><ele>222.6</ele><time>2026-04-19T08:23:30Z</time></trkpt><trkpt lat="43.48551454498288" lon="10.564864631646588"><ele>221.39999999999998</ele><time>2026-04-19T08:23:31Z</time></trkpt><trkpt lat="43.485572407140424" lon="10.56475194233915"><ele>220.2</ele><time>2026-04-19T08:23:32Z</time></trkpt><trkpt lat="43.4856065273923" lon="10.56461621230809"><ele>219.0</ele><time>2026-04-19T08:23:33Z</time></trkpt><trkpt lat="43.48562853976179" lon="10.564472182725059"><ele>217.0</ele><time>2026-04-19T08:23:34Z</time></trkpt><trkpt lat="43.4856448083605" lon="10.56430922014939"><ele>214.99999999999997</ele><time>2026-04-19T08:23:35Z</time></trkpt><trkpt lat="43.485654921474854" lon="10.564173591043403"><ele>213.0</ele><time>2026-04-19T08:23:36Z</time></trkpt><trkpt lat="43.48566494760938" lon="10.564035500918243"><ele>211.0</ele><time>2026-04-19T08:23:37Z</time></trkpt><trkpt lat="43.485665678275375" lon="10.563898678127828"><ele>209.0</ele><time>2026-04-19T08:23:38Z</time></trkpt><trkpt lat="43.485640327519384" lon="10.56375615140862"><ele>207.6</ele><time>2026-04-19T08:23:39Z</time></trkpt><trkpt lat="43.48559912853503" lon="10.56362775050182"><ele>206.2</ele><time>2026-04-19T08:23:40Z</time></trkpt><trkpt lat="43.48556248285007" lon="10.563496428424335"><ele>204.79999999999998</ele><time>2026-04-19T08:23:41Z</time></trkpt><trkpt lat="43.48552886380153" lon="10.56336779362312"><ele>203.39999999999998</ele><time>2026-04-19T08:23:42Z</time></trkpt><trkpt lat="43.48550454585056" lon="10.563231082469034"><ele>202.0</ele><time>2026-04-19T08:23:43Z</time></trkpt><trkpt lat="43.48549100366549" lon="10.563092264916646"><ele>202.0</ele><time>2026-04-19T08:23:44Z</time></trkpt><trkpt lat="43.485481862253344" lon="10.562914806680487"><ele>202.0</ele><time>2026-04-19T08:23:45Z</time></trkpt><trkpt lat="43.48548270905469" lon="10.562776387651214"><ele>202.0</ele><time>2026-04-19T08:23:46Z</time></trkpt><trkpt lat="43.48549980500486" lon="10.562648244371013"><ele>202.0</ele><time>2026-04-19T08:23:47Z</time></trkpt><trkpt lat="43.485522083556106" lon="10.562528991344642"><ele>202.0</ele><time>2026-04-19T08:23:48Z</time></trkpt><trkpt lat="43.48554341924484" lon="10.562419707990209"><ele>199.66666666666666</ele><time>2026-04-19T08:23:49Z</time></trkpt><trkpt lat="43.4855640407169" lon="10.562311496986746"><ele>197.33333333333331</ele><time>2026-04-19T08:23:50Z</time></trkpt><trkpt lat="43.48556480065641" lon="10.562212458598342"><ele>195.0</ele><time>2026-04-19T08:23:51Z</time></trkpt><trkpt lat="43.48559069283068" lon="10.562063839429147"><ele>192.66666666666666</ele><time>2026-04-19T08:23:53Z</time></trkpt><trkpt lat="43.4856359619598" lon="10.561961600875934"><ele>190.33333333333331</ele><time>2026-04-19T08:23:57Z</time></trkpt><trkpt lat="43.4857018415535" lon="10.561942108269605"><ele>188.0</ele><time>2026-04-19T08:23:59Z</time></trkpt><trkpt lat="43.485773460681095" lon="10.56196306689073"><ele>183.5</ele><time>2026-04-19T08:24:01Z</time></trkpt><trkpt lat="43.48582231694781" lon="10.561807244448579"><ele>179.0</ele><time>2026-04-19T08:24:03Z</time></trkpt><trkpt lat="43.48581516907252" lon="10.561669363722121"><ele>174.5</ele><time>2026-04-19T08:24:05Z</time></trkpt><trkpt lat="43.48577938909218" lon="10.561520448370462"><ele>170.0</ele><time>2026-04-19T08:24:07Z</time></trkpt><trkpt lat="43.48574101764357" lon="10.561373635822713"><ele>170.0</ele><time>2026-04-19T08:24:09Z</time></trkpt><trkpt lat="43.48572766428646" lon="10.561267788718496"><ele>170.0</ele><time>2026-04-19T08:24:11Z</time></trkpt><trkpt lat="43.48568570114642" lon="10.56111837703999"><ele>170.0</ele><time>2026-04-19T08:24:13Z</time></trkpt><trkpt lat="43.48563058773607" lon="10.560952448237634"><ele>170.0</ele><time>2026-04-19T08:24:15Z</time></trkpt><trkpt lat="43.485607773457" lon="10.560826974772379"><ele>170.0</ele><time>2026-04-19T08:24:16Z</time></trkpt><trkpt lat="43.48557453011679" lon="10.560718999437258"><ele>169.2</ele><time>2026-04-19T08:24:17Z</time></trkpt><trkpt lat="43.48553398389305" lon="10.560608091824774"><ele>168.4</ele><time>2026-04-19T08:24:18Z</time></trkpt><trkpt lat="43.4855009183018" lon="10.560473058173576"><ele>167.60000000000002</ele><time>2026-04-19T08:24:19Z</time></trkpt><trkpt lat="43.48546015630986" lon="10.56033128180199"><ele>166.8</ele><time>2026-04-19T08:24:20Z</time></trkpt><trkpt lat="43.48541871989484" lon="10.560180679947411"><ele>166.0</ele><time>2026-04-19T08:24:21Z</time></trkpt><trkpt lat="43.48537166864441" lon="10.560030986584577"><ele>165.5</ele><time>2026-04-19T08:24:22Z</time></trkpt><trkpt lat="43.48532631184602" lon="10.559872660635655"><ele>165.0</ele><time>2026-04-19T08:24:23Z</time></trkpt><trkpt lat="43.485277052664635" lon="10.559708988622411"><ele>164.5</ele><time>2026-04-19T08:24:24Z</time></trkpt><trkpt lat="43.48522774303986" lon="10.559542584847629"><ele>164.0</ele><time>2026-04-19T08:24:25Z</time></trkpt><trkpt lat="43.48517587894415" lon="10.55936689965459"><ele>165.25</ele><time>2026-04-19T08:24:26Z</time></trkpt><trkpt lat="43.485114552673735" lon="10.559188261493865"><ele>166.5</ele><time>2026-04-19T08:24:27Z</time></trkpt><trkpt lat="43.485063832477834" lon="10.559007232022726"><ele>167.75</ele><time>2026-04-19T08:24:28Z</time></trkpt><trkpt lat="43.48501365795002" lon="10.558824506443807"><ele>169.0</ele><time>2026-04-19T08:24:29Z</time></trkpt><trkpt lat="43.48495962811424" lon="10.558638840948886"><ele>169.0</ele><time>2026-04-19T08:24:30Z</time></trkpt><trkpt lat="43.48490938564875" lon="10.558458572922648"><ele>169.0</ele><time>2026-04-19T08:24:31Z</time></trkpt><trkpt lat="43.484855525988884" lon="10.558275451320593"><ele>169.0</ele><time>2026-04-19T08:24:32Z</time></trkpt><trkpt lat="43.484799835164644" lon="10.558088052610724"><ele>169.0</ele><time>2026-04-19T08:24:33Z</time></trkpt><trkpt lat="43.48474424526143" lon="10.557900350596583"><ele>169.5</ele><time>2026-04-19T08:24:34Z</time></trkpt><trkpt lat="43.48469161524175" lon="10.557709946782495"><ele>170.0</ele><time>2026-04-19T08:24:35Z</time></trkpt><trkpt lat="43.48463543110933" lon="10.557519261741968"><ele>170.5</ele><time>2026-04-19T08:24:36Z</time></trkpt><trkpt lat="43.48457818540948" lon="10.557326410316662"><ele>171.0</ele><time>2026-04-19T08:24:37Z</time></trkpt><trkpt lat="43.48451938734982" lon="10.557139148170679"><ele>170.33333333333334</ele><time>2026-04-19T08:24:38Z</time></trkpt><trkpt lat="43.484462829416294" lon="10.55694725554305"><ele>169.66666666666669</ele><time>2026-04-19T08:24:39Z</time></trkpt><trkpt lat="43.484406914982195" lon="10.556755605564113"><ele>169.0</ele><time>2026-04-19T08:24:40Z</time></trkpt><trkpt lat="43.484347953566726" lon="10.556557890610037"><ele>169.0</ele><time>2026-04-19T08:24:41Z</time></trkpt><trkpt lat="43.484285325277234" lon="10.556369955758509"><ele>169.0</ele><time>2026-04-19T08:24:42Z</time></trkpt><trkpt lat="43.48422626755042" lon="10.556173854449865"><ele>169.0</ele><time>2026-04-19T08:24:43Z</time></trkpt><trkpt lat="43.48416963957276" lon="10.555975843358272"><ele>167.33333333333334</ele><time>2026-04-19T08:24:44Z</time></trkpt><trkpt lat="43.484110806509804" lon="10.555780043456016"><ele>165.66666666666666</ele><time>2026-04-19T08:24:45Z</time></trkpt><trkpt lat="43.48405467096639" lon="10.555587894539103"><ele>164.0</ele><time>2026-04-19T08:24:46Z</time></trkpt><trkpt lat="43.483991324062636" lon="10.555396519259505"><ele>163.5</ele><time>2026-04-19T08:24:47Z</time></trkpt><trkpt lat="43.48394619288006" lon="10.555198495747005"><ele>163.0</ele><time>2026-04-19T08:24:48Z</time></trkpt><trkpt lat="43.48388899360986" lon="10.555009368218547"><ele>162.5</ele><time>2026-04-19T08:24:49Z</time></trkpt><trkpt lat="43.4838313767365" lon="10.554822411848402"><ele>162.0</ele><time>2026-04-19T08:24:50Z</time></trkpt><trkpt lat="43.483770360178845" lon="10.554633770029437"><ele>162.5</ele><time>2026-04-19T08:24:51Z</time></trkpt><trkpt lat="43.4837119782399" lon="10.554445476400259"><ele>163.0</ele><time>2026-04-19T08:24:52Z</time></trkpt><trkpt lat="43.48365619273997" lon="10.554257639839815"><ele>163.5</ele><time>2026-04-19T08:24:53Z</time></trkpt><trkpt lat="43.48360371968959" lon="10.55406748439036"><ele>164.0</ele><time>2026-04-19T08:24:54Z</time></trkpt><trkpt lat="43.483551849152285" lon="10.553878750897011"><ele>162.25</ele><time>2026-04-19T08:24:55Z</time></trkpt><trkpt lat="43.48349748316179" lon="10.553697530378358"><ele>160.5</ele><time>2026-04-19T08:24:56Z</time></trkpt><trkpt lat="43.483442557514486" lon="10.553509276380982"><ele>158.75</ele><time>2026-04-19T08:24:57Z</time></trkpt><trkpt lat="43.48338534001562" lon="10.553317493692468"><ele>157.0</ele><time>2026-04-19T08:24:58Z</time></trkpt><trkpt lat="43.48332509402147" lon="10.553125618707494"><ele>157.0</ele><time>2026-04-19T08:24:59Z</time></trkpt><trkpt lat="43.48326501696479" lon="10.552930171785103"><ele>157.0</ele><time>2026-04-19T08:25:00Z</time></trkpt><trkpt lat="43.48321862855795" lon="10.552726518041938"><ele>157.0</ele><time>2026-04-19T08:25:01.001Z</time></trkpt><trkpt lat="43.48316142284526" lon="10.552530555682923"><ele>156.33333333333334</ele><time>2026-04-19T08:25:02.001Z</time></trkpt><trkpt lat="43.48310239823379" lon="10.552328362612306"><ele>155.66666666666666</ele><time>2026-04-19T08:25:03.001Z</time></trkpt><trkpt lat="43.48304551093561" lon="10.552133490998864"><ele>155.0</ele><time>2026-04-19T08:25:04.001Z</time></trkpt><trkpt lat="43.482985868744265" lon="10.551929182363477"><ele>154.0</ele><time>2026-04-19T08:25:05.001Z</time></trkpt><trkpt lat="43.48292759733485" lon="10.551729585875654"><ele>153.0</ele><time>2026-04-19T08:25:06.001Z</time></trkpt><trkpt lat="43.48287073294783" lon="10.551531501728507"><ele>152.0</ele><time>2026-04-19T08:25:07.001Z</time></trkpt><trkpt lat="43.482816545037224" lon="10.551337792354316"><ele>151.33333333333331</ele><time>2026-04-19T08:25:08.001Z</time></trkpt><trkpt lat="43.48276060142229" lon="10.55114198408394"><ele>150.66666666666666</ele><time>2026-04-19T08:25:09.001Z</time></trkpt><trkpt lat="43.482700968142154" lon="10.550952232885342"><ele>150.0</ele><time>2026-04-19T08:25:10.001Z</time></trkpt><trkpt lat="43.48262217778082" lon="10.55077477903432"><ele>150.0</ele><time>2026-04-19T08:25:11.001Z</time></trkpt><trkpt lat="43.48254866479067" lon="10.550594823913837"><ele>150.0</ele><time>2026-04-19T08:25:12.001Z</time></trkpt><trkpt lat="43.48245927131051" lon="10.55042535518567"><ele>150.0</ele><time>2026-04-19T08:25:13.001Z</time></trkpt><trkpt lat="43.48235307798773" lon="10.550273514651249"><ele>149.66666666666666</ele><time>2026-04-19T08:25:14.001Z</time></trkpt><trkpt lat="43.48223683254317" lon="10.550128071543256"><ele>149.33333333333331</ele><time>2026-04-19T08:25:15.001Z</time></trkpt><trkpt lat="43.48212849057921" lon="10.549992414548104"><ele>149.0</ele><time>2026-04-19T08:25:16.001Z</time></trkpt><trkpt lat="43.481997316211164" lon="10.549865308369013"><ele>147.0</ele><time>2026-04-19T08:25:17.001Z</time></trkpt><trkpt lat="43.481876968698806" lon="10.549727486244944"><ele>145.0</ele><time>2026-04-19T08:25:18.001Z</time></trkpt><trkpt lat="43.481757420247895" lon="10.549587984583493"><ele>143.0</ele><time>2026-04-19T08:25:19.001Z</time></trkpt><trkpt lat="43.481637521499565" lon="10.549447488408628"><ele>143.0</ele><time>2026-04-19T08:25:20.001Z</time></trkpt><trkpt lat="43.48151702019376" lon="10.54930549622397"><ele>143.0</ele><time>2026-04-19T08:25:21.001Z</time></trkpt><trkpt lat="43.48140195630931" lon="10.54916500755731"><ele>143.0</ele><time>2026-04-19T08:25:22.001Z</time></trkpt><trkpt lat="43.48128106964062" lon="10.549030665099359"><ele>143.0</ele><time>2026-04-19T08:25:23.001Z</time></trkpt><trkpt lat="43.48116245905905" lon="10.54889377833074"><ele>143.0</ele><time>2026-04-19T08:25:24.001Z</time></trkpt><trkpt lat="43.48104160156824" lon="10.548755582057275"><ele>143.0</ele><time>2026-04-19T08:25:25.001Z</time></trkpt><trkpt lat="43.4809244646517" lon="10.54861965147474"><ele>143.0</ele><time>2026-04-19T08:25:26.001Z</time></trkpt><trkpt lat="43.48081377379115" lon="10.54848759015169"><ele>143.0</ele><time>2026-04-19T08:25:27.001Z</time></trkpt><trkpt lat="43.48070312950288" lon="10.54835901593612"><ele>143.0</ele><time>2026-04-19T08:25:28.001Z</time></trkpt><trkpt lat="43.48059453741442" lon="10.548237344305017"><ele>143.0</ele><time>2026-04-19T08:25:29.001Z</time></trkpt><trkpt lat="43.480484926620086" lon="10.54811063047288"><ele>143.75</ele><time>2026-04-19T08:25:30.001Z</time></trkpt><trkpt lat="43.48037871323811" lon="10.54798191429783"><ele>144.5</ele><time>2026-04-19T08:25:31.001Z</time></trkpt><trkpt lat="43.48027905603499" lon="10.54785500928864"><ele>145.25</ele><time>2026-04-19T08:25:32Z</time></trkpt><trkpt lat="43.48016693836876" lon="10.547730388615816"><ele>146.0</ele><time>2026-04-19T08:25:33Z</time></trkpt><trkpt lat="43.480058040525954" lon="10.547601910840372"><ele>146.0</ele><time>2026-04-19T08:25:34Z</time></trkpt><trkpt lat="43.47994697024996" lon="10.547473709612952"><ele>146.0</ele><time>2026-04-19T08:25:35Z</time></trkpt><trkpt lat="43.47984306604542" lon="10.547341335539997"><ele>146.0</ele><time>2026-04-19T08:25:36Z</time></trkpt><trkpt lat="43.47974688840605" lon="10.547191353053364"><ele>146.0</ele><time>2026-04-19T08:25:37Z</time></trkpt><trkpt lat="43.479660630237674" lon="10.547029060319183"><ele>145.25</ele><time>2026-04-19T08:25:38Z</time></trkpt><trkpt lat="43.47958943419501" lon="10.546851540276958"><ele>144.5</ele><time>2026-04-19T08:25:39Z</time></trkpt><trkpt lat="43.47953246684038" lon="10.546659688268857"><ele>143.75</ele><time>2026-04-19T08:25:40Z</time></trkpt><trkpt lat="43.47949327281486" lon="10.546463911595676"><ele>143.0</ele><time>2026-04-19T08:25:41Z</time></trkpt><trkpt lat="43.47946940872672" lon="10.546267285112261"><ele>143.75</ele><time>2026-04-19T08:25:42Z</time></trkpt><trkpt lat="43.47946381122195" lon="10.546072800222676"><ele>144.5</ele><time>2026-04-19T08:25:43Z</time></trkpt><trkpt lat="43.479478810750926" lon="10.545878835300293"><ele>145.25</ele><time>2026-04-19T08:25:44Z</time></trkpt><trkpt lat="43.47951026488788" lon="10.545685694813859"><ele>146.0</ele><time>2026-04-19T08:25:45Z</time></trkpt><trkpt lat="43.47956437893059" lon="10.545505670853572"><ele>145.25</ele><time>2026-04-19T08:25:46Z</time></trkpt><trkpt lat="43.47964628692159" lon="10.54532230099905"><ele>144.5</ele><time>2026-04-19T08:25:47Z</time></trkpt><trkpt lat="43.47972247820561" lon="10.545170864420452"><ele>143.75</ele><time>2026-04-19T08:25:48Z</time></trkpt><trkpt lat="43.479799732328466" lon="10.545031228248305"><ele>143.0</ele><time>2026-04-19T08:25:49Z</time></trkpt><trkpt lat="43.4798706680662" lon="10.544912140486499"><ele>143.0</ele><time>2026-04-19T08:25:50Z</time></trkpt><trkpt lat="43.47994098150785" lon="10.544800197669256"><ele>143.0</ele><time>2026-04-19T08:25:51Z</time></trkpt><trkpt lat="43.480005765532" lon="10.54469941987326"><ele>143.0</ele><time>2026-04-19T08:25:52Z</time></trkpt><trkpt lat="43.48006439704045" lon="10.54460218053184"><ele>143.0</ele><time>2026-04-19T08:25:53Z</time></trkpt><trkpt lat="43.48011818324495" lon="10.54451150241548"><ele>143.0</ele><time>2026-04-19T08:25:54Z</time></trkpt><trkpt lat="43.48016571386983" lon="10.544434390347027"><ele>142.8</ele><time>2026-04-19T08:25:55Z</time></trkpt><trkpt lat="43.48023783239564" lon="10.544310679054384"><ele>142.60000000000002</ele><time>2026-04-19T08:25:57Z</time></trkpt><trkpt lat="43.4801885697426" lon="10.544153060082916"><ele>142.39999999999998</ele><time>2026-04-19T08:25:59Z</time></trkpt><trkpt lat="43.480135309725746" lon="10.543996493854888"><ele>142.2</ele><time>2026-04-19T08:26:01Z</time></trkpt><trkpt lat="43.48009804147728" lon="10.543914636299812"><ele>142.0</ele><time>2026-04-19T08:26:02Z</time></trkpt><trkpt lat="43.480064723773154" lon="10.543826450312045"><ele>142.0</ele><time>2026-04-19T08:26:03Z</time></trkpt><trkpt lat="43.48002517613768" lon="10.543731643955509"><ele>142.0</ele><time>2026-04-19T08:26:04Z</time></trkpt><trkpt lat="43.47999017168538" lon="10.543639342419103"><ele>142.0</ele><time>2026-04-19T08:26:05Z</time></trkpt><trkpt lat="43.4799646928132" lon="10.543550543778988"><ele>142.0</ele><time>2026-04-19T08:26:06Z</time></trkpt><trkpt lat="43.47994196788418" lon="10.543457340632314"><ele>142.0</ele><time>2026-04-19T08:26:07Z</time></trkpt><trkpt lat="43.47993926338617" lon="10.543355561662404"><ele>142.0</ele><time>2026-04-19T08:26:08Z</time></trkpt><trkpt lat="43.47995650814565" lon="10.543244501274334"><ele>141.6</ele><time>2026-04-19T08:26:09Z</time></trkpt><trkpt lat="43.479995127639924" lon="10.543126942122672"><ele>141.2</ele><time>2026-04-19T08:26:10Z</time></trkpt><trkpt lat="43.48005792132481" lon="10.543029080887445"><ele>140.8</ele><time>2026-04-19T08:26:11Z</time></trkpt><trkpt lat="43.480140293201266" lon="10.542938975105137"><ele>140.4</ele><time>2026-04-19T08:26:12Z</time></trkpt><trkpt lat="43.48023118014331" lon="10.542834632367889"><ele>140.0</ele><time>2026-04-19T08:26:13Z</time></trkpt><trkpt lat="43.480315494375056" lon="10.542714364543453"><ele>138.25</ele><time>2026-04-19T08:26:14Z</time></trkpt><trkpt lat="43.48039222052601" lon="10.542569501733013"><ele>136.5</ele><time>2026-04-19T08:26:15Z</time></trkpt><trkpt lat="43.48045089302034" lon="10.542401505527733"><ele>134.75</ele><time>2026-04-19T08:26:16Z</time></trkpt><trkpt lat="43.4805032533496" lon="10.542212866625604"><ele>133.0</ele><time>2026-04-19T08:26:17Z</time></trkpt><trkpt lat="43.48056200086734" lon="10.542015874580217"><ele>131.66666666666669</ele><time>2026-04-19T08:26:18Z</time></trkpt><trkpt lat="43.48060948501543" lon="10.541801914437821"><ele>130.33333333333334</ele><time>2026-04-19T08:26:19Z</time></trkpt><trkpt lat="43.4806547581886" lon="10.541584852738291"><ele>129.0</ele><time>2026-04-19T08:26:20Z</time></trkpt><trkpt lat="43.480685292644104" lon="10.54135643523989"><ele>128.66666666666666</ele><time>2026-04-19T08:26:21Z</time></trkpt><trkpt lat="43.48073147147864" lon="10.541130884234162"><ele>128.33333333333331</ele><time>2026-04-19T08:26:22Z</time></trkpt><trkpt lat="43.48077898716419" lon="10.540900494270383"><ele>128.0</ele><time>2026-04-19T08:26:23Z</time></trkpt><trkpt lat="43.480825064645146" lon="10.54067930411261"><ele>128.0</ele><time>2026-04-19T08:26:24Z</time></trkpt><trkpt lat="43.48086696490792" lon="10.540462718528806"><ele>128.0</ele><time>2026-04-19T08:26:25Z</time></trkpt><trkpt lat="43.480913136845665" lon="10.54024189068353"><ele>128.0</ele><time>2026-04-19T08:26:26Z</time></trkpt><trkpt lat="43.48095511505236" lon="10.540026000206332"><ele>128.33333333333331</ele><time>2026-04-19T08:26:27Z</time></trkpt><trkpt lat="43.481000889000015" lon="10.539813359332083"><ele>128.66666666666666</ele><time>2026-04-19T08:26:28Z</time></trkpt><trkpt lat="43.48104392009858" lon="10.53960973385204"><ele>129.0</ele><time>2026-04-19T08:26:29Z</time></trkpt><trkpt lat="43.481086357383205" lon="10.539403745923495"><ele>129.66666666666666</ele><time>2026-04-19T08:26:30Z</time></trkpt><trkpt lat="43.481129865699366" lon="10.539199052513991"><ele>130.33333333333331</ele><time>2026-04-19T08:26:31Z</time></trkpt><trkpt lat="43.48117629932993" lon="10.538995859824563"><ele>131.0</ele><time>2026-04-19T08:26:32Z</time></trkpt><trkpt lat="43.48121999525137" lon="10.538795241338274"><ele>130.75</ele><time>2026-04-19T08:26:33Z</time></trkpt><trkpt lat="43.481275356889086" lon="10.538609459255584"><ele>130.5</ele><time>2026-04-19T08:26:34Z</time></trkpt><trkpt lat="43.481316438027115" lon="10.538418233653468"><ele>130.25</ele><time>2026-04-19T08:26:35Z</time></trkpt><trkpt lat="43.48135377564072" lon="10.538226306438526"><ele>130.0</ele><time>2026-04-19T08:26:36Z</time></trkpt><trkpt lat="43.48138605683685" lon="10.538034728691544"><ele>130.25</ele><time>2026-04-19T08:26:37Z</time></trkpt><trkpt lat="43.48140614163691" lon="10.537838406270037"><ele>130.5</ele><time>2026-04-19T08:26:38Z</time></trkpt><trkpt lat="43.48141017898378" lon="10.537640340233226"><ele>130.75</ele><time>2026-04-19T08:26:39Z</time></trkpt><trkpt lat="43.481382415393874" lon="10.537448489281958"><ele>131.0</ele><time>2026-04-19T08:26:40Z</time></trkpt><trkpt lat="43.481374919589165" lon="10.53725704475105"><ele>131.0</ele><time>2026-04-19T08:26:41Z</time></trkpt><trkpt lat="43.48133875054161" lon="10.537065715002845"><ele>131.0</ele><time>2026-04-19T08:26:42Z</time></trkpt><trkpt lat="43.48129460083141" lon="10.536880887411796"><ele>131.0</ele><time>2026-04-19T08:26:43Z</time></trkpt><trkpt lat="43.481236130021856" lon="10.536704742026231"><ele>131.0</ele><time>2026-04-19T08:26:44Z</time></trkpt><trkpt lat="43.48120373252667" lon="10.536519161936829"><ele>131.0</ele><time>2026-04-19T08:26:45Z</time></trkpt><trkpt lat="43.48116402920782" lon="10.536325702160822"><ele>131.0</ele><time>2026-04-19T08:26:46Z</time></trkpt><trkpt lat="43.481124096731754" lon="10.536142921776392"><ele>131.0</ele><time>2026-04-19T08:26:47Z</time></trkpt><trkpt lat="43.481092318142636" lon="10.535961697251423"><ele>131.0</ele><time>2026-04-19T08:26:48Z</time></trkpt><trkpt lat="43.48105637580182" lon="10.535777132074127"><ele>132.0</ele><time>2026-04-19T08:26:49Z</time></trkpt><trkpt lat="43.481020697728084" lon="10.535590603593256"><ele>133.0</ele><time>2026-04-19T08:26:50.001Z</time></trkpt><trkpt lat="43.48098583455813" lon="10.535401569036871"><ele>134.0</ele><time>2026-04-19T08:26:51.001Z</time></trkpt><trkpt lat="43.480953093273214" lon="10.535200904291793"><ele>135.0</ele><time>2026-04-19T08:26:52.001Z</time></trkpt><trkpt lat="43.48092312191673" lon="10.535002015402927"><ele>135.0</ele><time>2026-04-19T08:26:53.001Z</time></trkpt><trkpt lat="43.480892894931976" lon="10.534807127368273"><ele>135.0</ele><time>2026-04-19T08:26:54.001Z</time></trkpt><trkpt lat="43.48086185224845" lon="10.534619665496656"><ele>135.0</ele><time>2026-04-19T08:26:55.001Z</time></trkpt><trkpt lat="43.48082512843797" lon="10.53443120711226"><ele>135.0</ele><time>2026-04-19T08:26:56.001Z</time></trkpt><trkpt lat="43.480797187321954" lon="10.534248944306254"><ele>135.25</ele><time>2026-04-19T08:26:57.001Z</time></trkpt><trkpt lat="43.480765432853886" lon="10.534073949370276"><ele>135.5</ele><time>2026-04-19T08:26:58.001Z</time></trkpt><trkpt lat="43.48073501791442" lon="10.533902589784649"><ele>135.75</ele><time>2026-04-19T08:26:59.001Z</time></trkpt><trkpt lat="43.48070165349137" lon="10.53372891751042"><ele>136.0</ele><time>2026-04-19T08:27:00.001Z</time></trkpt><trkpt lat="43.48066258790541" lon="10.533554568627446"><ele>135.25</ele><time>2026-04-19T08:27:01.001Z</time></trkpt><trkpt lat="43.480608447327114" lon="10.533383653223819"><ele>134.5</ele><time>2026-04-19T08:27:02.001Z</time></trkpt><trkpt lat="43.4805419733817" lon="10.533212048653713"><ele>133.75</ele><time>2026-04-19T08:27:03.001Z</time></trkpt><trkpt lat="43.480446498781475" lon="10.533070958977927"><ele>133.0</ele><time>2026-04-19T08:27:04.001Z</time></trkpt><trkpt lat="43.480335679624666" lon="10.53294562041215"><ele>133.5</ele><time>2026-04-19T08:27:05.001Z</time></trkpt><trkpt lat="43.480212232713384" lon="10.532833622528205"><ele>134.0</ele><time>2026-04-19T08:27:06.001Z</time></trkpt><trkpt lat="43.4800823450912" lon="10.532730888760565"><ele>134.5</ele><time>2026-04-19T08:27:07.001Z</time></trkpt><trkpt lat="43.47996297801756" lon="10.532626871484371"><ele>135.0</ele><time>2026-04-19T08:27:08.001Z</time></trkpt><trkpt lat="43.47984436420364" lon="10.532527847194611"><ele>135.0</ele><time>2026-04-19T08:27:09.001Z</time></trkpt><trkpt lat="43.479726557746645" lon="10.532426081807447"><ele>135.0</ele><time>2026-04-19T08:27:10.001Z</time></trkpt><trkpt lat="43.47961087851424" lon="10.532320091127513"><ele>135.0</ele><time>2026-04-19T08:27:11.001Z</time></trkpt><trkpt lat="43.479513301472366" lon="10.532211429042203"><ele>135.0</ele><time>2026-04-19T08:27:12.001Z</time></trkpt><trkpt lat="43.47941081997444" lon="10.532080473694226"><ele>134.25</ele><time>2026-04-19T08:27:13.001Z</time></trkpt><trkpt lat="43.479318282390075" lon="10.531940506706263"><ele>133.5</ele><time>2026-04-19T08:27:14.001Z</time></trkpt><trkpt lat="43.479231161308654" lon="10.531795441133516"><ele>132.75</ele><time>2026-04-19T08:27:15.001Z</time></trkpt><trkpt lat="43.479142477432326" lon="10.531652064778056"><ele>132.0</ele><time>2026-04-19T08:27:16.001Z</time></trkpt><trkpt lat="43.479067783769416" lon="10.531486850002901"><ele>132.0</ele><time>2026-04-19T08:27:17.001Z</time></trkpt><trkpt lat="43.47899785772865" lon="10.531320890136238"><ele>132.0</ele><time>2026-04-19T08:27:18.001Z</time></trkpt><trkpt lat="43.478930113273435" lon="10.531147593116456"><ele>132.0</ele><time>2026-04-19T08:27:19.001Z</time></trkpt><trkpt lat="43.47886095223175" lon="10.530967033831478"><ele>132.0</ele><time>2026-04-19T08:27:20.001Z</time></trkpt><trkpt lat="43.478795150215845" lon="10.530776048851555"><ele>129.75</ele><time>2026-04-19T08:27:21.001Z</time></trkpt><trkpt lat="43.47872356688436" lon="10.530590207448796"><ele>127.5</ele><time>2026-04-19T08:27:22.001Z</time></trkpt><trkpt lat="43.47865071305504" lon="10.530405841093257"><ele>125.25</ele><time>2026-04-19T08:27:23.001Z</time></trkpt><trkpt lat="43.47858455454952" lon="10.53023536040262"><ele>123.0</ele><time>2026-04-19T08:27:24.001Z</time></trkpt><trkpt lat="43.47852605799069" lon="10.53007527778199"><ele>123.0</ele><time>2026-04-19T08:27:25.001Z</time></trkpt><trkpt lat="43.478473948709265" lon="10.529941009999542"><ele>123.0</ele><time>2026-04-19T08:27:26.001Z</time></trkpt><trkpt lat="43.478430217072464" lon="10.52983488942496"><ele>123.0</ele><time>2026-04-19T08:27:27.001Z</time></trkpt><trkpt lat="43.47839747737478" lon="10.529734921699143"><ele>123.0</ele><time>2026-04-19T08:27:28.001Z</time></trkpt><trkpt lat="43.478360822674304" lon="10.529637345162943"><ele>123.0</ele><time>2026-04-19T08:27:29.001Z</time></trkpt><trkpt lat="43.47832169219847" lon="10.529544372702404"><ele>123.0</ele><time>2026-04-19T08:27:30.001Z</time></trkpt><trkpt lat="43.47828253910453" lon="10.529439654876079"><ele>123.2</ele><time>2026-04-19T08:27:31.001Z</time></trkpt><trkpt lat="43.47823656570537" lon="10.529327544137422"><ele>123.4</ele><time>2026-04-19T08:27:32.001Z</time></trkpt><trkpt lat="43.478186670997346" lon="10.529203532992979"><ele>123.60000000000001</ele><time>2026-04-19T08:27:33.001Z</time></trkpt><trkpt lat="43.478136706164626" lon="10.529076569932947"><ele>123.80000000000001</ele><time>2026-04-19T08:27:34.001Z</time></trkpt><trkpt lat="43.47810279901709" lon="10.528936725557706"><ele>124.0</ele><time>2026-04-19T08:27:35.001Z</time></trkpt><trkpt lat="43.47804237794918" lon="10.528795366833085"><ele>123.75</ele><time>2026-04-19T08:27:36.001Z</time></trkpt><trkpt lat="43.47798464549351" lon="10.528637599556763"><ele>123.5</ele><time>2026-04-19T08:27:37.001Z</time></trkpt><trkpt lat="43.47792526466975" lon="10.528482805645133"><ele>123.25</ele><time>2026-04-19T08:27:38Z</time></trkpt><trkpt lat="43.477861456409194" lon="10.528320741921204"><ele>123.0</ele><time>2026-04-19T08:27:39Z</time></trkpt><trkpt lat="43.477797096507494" lon="10.52815444096551"><ele>121.5</ele><time>2026-04-19T08:27:40Z</time></trkpt><trkpt lat="43.47772321575548" lon="10.5279806908365"><ele>120.0</ele><time>2026-04-19T08:27:41Z</time></trkpt><trkpt lat="43.47764901384317" lon="10.527803964155963"><ele>118.5</ele><time>2026-04-19T08:27:42Z</time></trkpt><trkpt lat="43.47756870155931" lon="10.527624531941692"><ele>117.0</ele><time>2026-04-19T08:27:43Z</time></trkpt><trkpt lat="43.477475721569945" lon="10.527452954624977"><ele>117.0</ele><time>2026-04-19T08:27:44Z</time></trkpt><trkpt lat="43.47737280266301" lon="10.527282475159339"><ele>117.0</ele><time>2026-04-19T08:27:45Z</time></trkpt><trkpt lat="43.47725830643292" lon="10.527131368952842"><ele>117.0</ele><time>2026-04-19T08:27:46Z</time></trkpt><trkpt lat="43.47715018464024" lon="10.526970720393189"><ele>114.66666666666666</ele><time>2026-04-19T08:27:47Z</time></trkpt><trkpt lat="43.477018415734136" lon="10.526844071227554"><ele>112.33333333333333</ele><time>2026-04-19T08:27:48Z</time></trkpt><trkpt lat="43.476890858897825" lon="10.526711654622884"><ele>110.0</ele><time>2026-04-19T08:27:49Z</time></trkpt><trkpt lat="43.47676281421506" lon="10.526586434938727"><ele>110.0</ele><time>2026-04-19T08:27:50Z</time></trkpt><trkpt lat="43.47662828277126" lon="10.526468142544326"><ele>110.0</ele><time>2026-04-19T08:27:51Z</time></trkpt><trkpt lat="43.47649603591436" lon="10.526344361492287"><ele>110.0</ele><time>2026-04-19T08:27:52Z</time></trkpt><trkpt lat="43.476364695394544" lon="10.526229370447743"><ele>109.33333333333333</ele><time>2026-04-19T08:27:53Z</time></trkpt><trkpt lat="43.47623319085815" lon="10.526109137804589"><ele>108.66666666666666</ele><time>2026-04-19T08:27:54Z</time></trkpt><trkpt lat="43.47611237852689" lon="10.525983412380587"><ele>108.0</ele><time>2026-04-19T08:27:55Z</time></trkpt><trkpt lat="43.47598333345072" lon="10.525860139474666"><ele>108.0</ele><time>2026-04-19T08:27:56Z</time></trkpt><trkpt lat="43.47585941307913" lon="10.525734797206333"><ele>108.0</ele><time>2026-04-19T08:27:57Z</time></trkpt><trkpt lat="43.475734554097244" lon="10.525611632952868"><ele>108.0</ele><time>2026-04-19T08:27:58Z</time></trkpt><trkpt lat="43.47561688028107" lon="10.525490287771378"><ele>108.0</ele><time>2026-04-19T08:27:59Z</time></trkpt><trkpt lat="43.475506048024855" lon="10.525360704810499"><ele>108.0</ele><time>2026-04-19T08:28:00Z</time></trkpt><trkpt lat="43.47540327932464" lon="10.52522152147128"><ele>108.0</ele><time>2026-04-19T08:28:01Z</time></trkpt><trkpt lat="43.47531809921558" lon="10.525074195963533"><ele>108.0</ele><time>2026-04-19T08:28:02Z</time></trkpt><trkpt lat="43.47524613151448" lon="10.524919026654116"><ele>107.5</ele><time>2026-04-19T08:28:03Z</time></trkpt><trkpt lat="43.47518827294968" lon="10.524745763506305"><ele>107.0</ele><time>2026-04-19T08:28:04Z</time></trkpt><trkpt lat="43.475139072656546" lon="10.52457509750389"><ele>106.5</ele><time>2026-04-19T08:28:05Z</time></trkpt><trkpt lat="43.47509303860185" lon="10.52440049886191"><ele>106.0</ele><time>2026-04-19T08:28:06Z</time></trkpt><trkpt lat="43.475043190996224" lon="10.524215716487374"><ele>106.0</ele><time>2026-04-19T08:28:07Z</time></trkpt><trkpt lat="43.474996476875134" lon="10.524035499385098"><ele>106.0</ele><time>2026-04-19T08:28:08Z</time></trkpt><trkpt lat="43.474955102457024" lon="10.52385194095574"><ele>106.0</ele><time>2026-04-19T08:28:09Z</time></trkpt><trkpt lat="43.47491106262422" lon="10.523673327878962"><ele>106.0</ele><time>2026-04-19T08:28:10Z</time></trkpt><trkpt lat="43.47486724480116" lon="10.523494005646649"><ele>105.75</ele><time>2026-04-19T08:28:11Z</time></trkpt><trkpt lat="43.474823541629796" lon="10.523321326928512"><ele>105.5</ele><time>2026-04-19T08:28:12Z</time></trkpt><trkpt lat="43.47477936777934" lon="10.523145539755726"><ele>105.25</ele><time>2026-04-19T08:28:13Z</time></trkpt><trkpt lat="43.474729394987605" lon="10.522974134746562"><ele>105.0</ele><time>2026-04-19T08:28:14Z</time></trkpt><trkpt lat="43.47468606703428" lon="10.522799199898751"><ele>104.75</ele><time>2026-04-19T08:28:15Z</time></trkpt><trkpt lat="43.474640170113695" lon="10.52262982293049"><ele>104.5</ele><time>2026-04-19T08:28:16Z</time></trkpt><trkpt lat="43.474596447956905" lon="10.522449155926301"><ele>104.25</ele><time>2026-04-19T08:28:17Z</time></trkpt><trkpt lat="43.474551689096096" lon="10.522274727395308"><ele>104.0</ele><time>2026-04-19T08:28:18Z</time></trkpt><trkpt lat="43.47450391734994" lon="10.52211236546659"><ele>103.0</ele><time>2026-04-19T08:28:19Z</time></trkpt><trkpt lat="43.47445798008565" lon="10.521955296550738"><ele>102.0</ele><time>2026-04-19T08:28:20Z</time></trkpt><trkpt lat="43.47443766929218" lon="10.521779670558619"><ele>101.0</ele><time>2026-04-19T08:28:21Z</time></trkpt><trkpt lat="43.474393459468445" lon="10.521614237558913"><ele>100.0</ele><time>2026-04-19T08:28:22Z</time></trkpt><trkpt lat="43.4743344988262" lon="10.521449844883263"><ele>100.0</ele><time>2026-04-19T08:28:23Z</time></trkpt><trkpt lat="43.4742883488938" lon="10.521277624944696"><ele>100.0</ele><time>2026-04-19T08:28:24Z</time></trkpt><trkpt lat="43.47425040505623" lon="10.521090816260925"><ele>100.0</ele><time>2026-04-19T08:28:25Z</time></trkpt><trkpt lat="43.47419572516166" lon="10.520907488766985"><ele>100.0</ele><time>2026-04-19T08:28:26Z</time></trkpt><trkpt lat="43.474130477377194" lon="10.520724487313574"><ele>100.0</ele><time>2026-04-19T08:28:27Z</time></trkpt><trkpt lat="43.47407167942176" lon="10.520530960015359"><ele>100.0</ele><time>2026-04-19T08:28:28Z</time></trkpt><trkpt lat="43.47400903616746" lon="10.520330784755949"><ele>100.0</ele><time>2026-04-19T08:28:29Z</time></trkpt><trkpt lat="43.47394048413456" lon="10.520122137488872"><ele>99.33333333333334</ele><time>2026-04-19T08:28:30Z</time></trkpt><trkpt lat="43.47387180576187" lon="10.519909628821127"><ele>98.66666666666666</ele><time>2026-04-19T08:28:31Z</time></trkpt><trkpt lat="43.47380567237264" lon="10.519690635951578"><ele>98.0</ele><time>2026-04-19T08:28:32Z</time></trkpt><trkpt lat="43.47374030307356" lon="10.51947028211021"><ele>95.33333333333333</ele><time>2026-04-19T08:28:33Z</time></trkpt><trkpt lat="43.47367288872389" lon="10.519247009669522"><ele>92.66666666666666</ele><time>2026-04-19T08:28:34Z</time></trkpt><trkpt lat="43.47360519343625" lon="10.519023099190214"><ele>90.0</ele><time>2026-04-19T08:28:35Z</time></trkpt><trkpt lat="43.47353535557541" lon="10.518802330132102"><ele>89.0</ele><time>2026-04-19T08:28:36Z</time></trkpt><trkpt lat="43.47346879013646" lon="10.518595579761751"><ele>88.0</ele><time>2026-04-19T08:28:37Z</time></trkpt><trkpt lat="43.47339494585755" lon="10.518382501072677"><ele>87.0</ele><time>2026-04-19T08:28:38Z</time></trkpt><trkpt lat="43.473331428901275" lon="10.518181200492124"><ele>87.0</ele><time>2026-04-19T08:28:39Z</time></trkpt><trkpt lat="43.473265615864776" lon="10.517984534489232"><ele>87.0</ele><time>2026-04-19T08:28:40Z</time></trkpt><trkpt lat="43.473217438735375" lon="10.517786290746292"><ele>87.0</ele><time>2026-04-19T08:28:41Z</time></trkpt><trkpt lat="43.47316957639949" lon="10.517594973436545"><ele>85.5</ele><time>2026-04-19T08:28:42Z</time></trkpt><trkpt lat="43.47312829991092" lon="10.517405045469786"><ele>84.0</ele><time>2026-04-19T08:28:43Z</time></trkpt><trkpt lat="43.473078391097225" lon="10.517224858818537"><ele>82.5</ele><time>2026-04-19T08:28:44Z</time></trkpt><trkpt lat="43.47306779664412" lon="10.517026866255208"><ele>81.0</ele><time>2026-04-19T08:28:45Z</time></trkpt><trkpt lat="43.47305105324946" lon="10.516828348368064"><ele>79.25</ele><time>2026-04-19T08:28:46Z</time></trkpt><trkpt lat="43.47304005400453" lon="10.516623939339127"><ele>77.5</ele><time>2026-04-19T08:28:47Z</time></trkpt><trkpt lat="43.47303804365709" lon="10.516416649158488"><ele>75.75</ele><time>2026-04-19T08:28:48Z</time></trkpt><trkpt lat="43.473038907658086" lon="10.516216020146938"><ele>74.0</ele><time>2026-04-19T08:28:49Z</time></trkpt><trkpt lat="43.4730394464483" lon="10.516022905131454"><ele>72.0</ele><time>2026-04-19T08:28:50Z</time></trkpt><trkpt lat="43.47303743323898" lon="10.515839760051543"><ele>70.0</ele><time>2026-04-19T08:28:51.001Z</time></trkpt><trkpt lat="43.473033945737285" lon="10.515670660766109"><ele>68.0</ele><time>2026-04-19T08:28:52.001Z</time></trkpt><trkpt lat="43.47302776698127" lon="10.515503774102777"><ele>66.0</ele><time>2026-04-19T08:28:53.001Z</time></trkpt><trkpt lat="43.47301273254524" lon="10.51533579803955"><ele>65.5</ele><time>2026-04-19T08:28:54.001Z</time></trkpt><trkpt lat="43.472985502292566" lon="10.515168102634581"><ele>65.0</ele><time>2026-04-19T08:28:55.001Z</time></trkpt><trkpt lat="43.47295179530959" lon="10.515000185246446"><ele>64.5</ele><time>2026-04-19T08:28:56.001Z</time></trkpt><trkpt lat="43.47290696738904" lon="10.514831623259623"><ele>64.0</ele><time>2026-04-19T08:28:57.001Z</time></trkpt><trkpt lat="43.4728470737671" lon="10.514671185196011"><ele>63.75</ele><time>2026-04-19T08:28:58.001Z</time></trkpt><trkpt lat="43.47278282365039" lon="10.51452324670654"><ele>63.5</ele><time>2026-04-19T08:28:59.001Z</time></trkpt><trkpt lat="43.47270798745245" lon="10.51437668063718"><ele>63.25</ele><time>2026-04-19T08:29:00.001Z</time></trkpt><trkpt lat="43.47262212901293" lon="10.514233561481474"><ele>63.0</ele><time>2026-04-19T08:29:01.001Z</time></trkpt><trkpt lat="43.472557948427564" lon="10.514085630604601"><ele>63.0</ele><time>2026-04-19T08:29:02.001Z</time></trkpt><trkpt lat="43.47249204386473" lon="10.513953367015741"><ele>63.0</ele><time>2026-04-19T08:29:03.001Z</time></trkpt><trkpt lat="43.47245012905208" lon="10.513811542275862"><ele>63.0</ele><time>2026-04-19T08:29:04.001Z</time></trkpt><trkpt lat="43.472376774667495" lon="10.51368354321377"><ele>63.0</ele><time>2026-04-19T08:29:05.001Z</time></trkpt><trkpt lat="43.47230968769268" lon="10.51355619699832"><ele>63.25</ele><time>2026-04-19T08:29:06.001Z</time></trkpt><trkpt lat="43.47223263192161" lon="10.513430486746552"><ele>63.5</ele><time>2026-04-19T08:29:07.001Z</time></trkpt><trkpt lat="43.47215007799284" lon="10.51330909209092"><ele>63.75</ele><time>2026-04-19T08:29:08.001Z</time></trkpt><trkpt lat="43.47206796997598" lon="10.513197390486123"><ele>64.0</ele><time>2026-04-19T08:29:09.001Z</time></trkpt><trkpt lat="43.47198338040808" lon="10.513102466125613"><ele>63.400000000000006</ele><time>2026-04-19T08:29:10.001Z</time></trkpt><trkpt lat="43.47189565957592" lon="10.513017697665171"><ele>62.800000000000004</ele><time>2026-04-19T08:29:11.001Z</time></trkpt><trkpt lat="43.47180893425776" lon="10.512934938744968"><ele>62.199999999999996</ele><time>2026-04-19T08:29:12.001Z</time></trkpt><trkpt lat="43.47173025883653" lon="10.512852453539749"><ele>61.599999999999994</ele><time>2026-04-19T08:29:13.001Z</time></trkpt><trkpt lat="43.47165448795323" lon="10.512780348744348"><ele>61.0</ele><time>2026-04-19T08:29:14.001Z</time></trkpt><trkpt lat="43.47156956591788" lon="10.512716249952076"><ele>61.599999999999994</ele><time>2026-04-19T08:29:15.001Z</time></trkpt><trkpt lat="43.47148679752265" lon="10.51265502125947"><ele>62.199999999999996</ele><time>2026-04-19T08:29:16.001Z</time></trkpt><trkpt lat="43.47140008543587" lon="10.512596663327614"><ele>62.800000000000004</ele><time>2026-04-19T08:29:17.001Z</time></trkpt><trkpt lat="43.47132015980685" lon="10.512524862549222"><ele>63.400000000000006</ele><time>2026-04-19T08:29:18.001Z</time></trkpt><trkpt lat="43.47124648368967" lon="10.512446403212145"><ele>64.0</ele><time>2026-04-19T08:29:19.001Z</time></trkpt><trkpt lat="43.47117127053266" lon="10.512363513334893"><ele>64.0</ele><time>2026-04-19T08:29:20.001Z</time></trkpt><trkpt lat="43.471097212329774" lon="10.512272365126668"><ele>64.0</ele><time>2026-04-19T08:29:21.001Z</time></trkpt><trkpt lat="43.47102396660287" lon="10.512186579065972"><ele>64.0</ele><time>2026-04-19T08:29:22.001Z</time></trkpt><trkpt lat="43.47094949376595" lon="10.51209814495606"><ele>64.0</ele><time>2026-04-19T08:29:23.001Z</time></trkpt><trkpt lat="43.47087355873419" lon="10.512019352678765"><ele>64.0</ele><time>2026-04-19T08:29:24.001Z</time></trkpt><trkpt lat="43.47079607357708" lon="10.511945759930502"><ele>65.66666666666666</ele><time>2026-04-19T08:29:25.001Z</time></trkpt><trkpt lat="43.470735169664465" lon="10.511850207682548"><ele>67.33333333333333</ele><time>2026-04-19T08:29:26.001Z</time></trkpt><trkpt lat="43.4706689452875" lon="10.511770130931325"><ele>69.0</ele><time>2026-04-19T08:29:27.001Z</time></trkpt><trkpt lat="43.47059378647207" lon="10.51170551747683"><ele>70.66666666666667</ele><time>2026-04-19T08:29:28.001Z</time></trkpt><trkpt lat="43.47053243167505" lon="10.511622350378623"><ele>72.33333333333334</ele><time>2026-04-19T08:29:29.001Z</time></trkpt><trkpt lat="43.47047390209017" lon="10.511544409956713"><ele>74.0</ele><time>2026-04-19T08:29:30.001Z</time></trkpt><trkpt lat="43.47041645484735" lon="10.511461386574721"><ele>74.0</ele><time>2026-04-19T08:29:31.001Z</time></trkpt><trkpt lat="43.470356202969995" lon="10.511380052751433"><ele>74.0</ele><time>2026-04-19T08:29:32.001Z</time></trkpt><trkpt lat="43.47030080161304" lon="10.511293534017433"><ele>74.0</ele><time>2026-04-19T08:29:33.001Z</time></trkpt><trkpt lat="43.4702430734646" lon="10.511222452969147"><ele>74.0</ele><time>2026-04-19T08:29:34.001Z</time></trkpt><trkpt lat="43.47021056748259" lon="10.511143480810189"><ele>74.0</ele><time>2026-04-19T08:29:35.001Z</time></trkpt><trkpt lat="43.47015085366556" lon="10.511070589725602"><ele>74.0</ele><time>2026-04-19T08:29:37.001Z</time></trkpt><trkpt lat="43.47006621938819" lon="10.511039795039387"><ele>74.4</ele><time>2026-04-19T08:29:39.001Z</time></trkpt><trkpt lat="43.46996445771095" lon="10.511021601826188"><ele>74.80000000000001</ele><time>2026-04-19T08:29:41.001Z</time></trkpt><trkpt lat="43.469895383921624" lon="10.51101134788533"><ele>75.19999999999999</ele><time>2026-04-19T08:29:42.001Z</time></trkpt><trkpt lat="43.4697682519473" lon="10.510977723960574"><ele>75.6</ele><time>2026-04-19T08:29:44Z</time></trkpt><trkpt lat="43.46967969303498" lon="10.510980713743113"><ele>76.0</ele><time>2026-04-19T08:29:45Z</time></trkpt><trkpt lat="43.46959389406377" lon="10.510977714505263"><ele>76.39999999999999</ele><time>2026-04-19T08:29:46Z</time></trkpt><trkpt lat="43.46949643725339" lon="10.510989846927476"><ele>76.8</ele><time>2026-04-19T08:29:47Z</time></trkpt><trkpt lat="43.469397673005204" lon="10.511014005170743"><ele>77.19999999999999</ele><time>2026-04-19T08:29:48Z</time></trkpt><trkpt lat="43.46929165841615" lon="10.511046262631968"><ele>77.6</ele><time>2026-04-19T08:29:49Z</time></trkpt><trkpt lat="43.46918321042568" lon="10.51108928418913"><ele>78.0</ele><time>2026-04-19T08:29:50Z</time></trkpt><trkpt lat="43.46907620536574" lon="10.511131635115065"><ele>78.0</ele><time>2026-04-19T08:29:51Z</time></trkpt><trkpt lat="43.468970378712044" lon="10.511162685731309"><ele>78.0</ele><time>2026-04-19T08:29:52Z</time></trkpt><trkpt lat="43.46886010303702" lon="10.511202338395393"><ele>78.0</ele><time>2026-04-19T08:29:53Z</time></trkpt><trkpt lat="43.46874916960084" lon="10.511254227282349"><ele>78.0</ele><time>2026-04-19T08:29:54Z</time></trkpt><trkpt lat="43.46863613684407" lon="10.511291135350726"><ele>76.0</ele><time>2026-04-19T08:29:55Z</time></trkpt><trkpt lat="43.46852502173162" lon="10.51133251751779"><ele>74.0</ele><time>2026-04-19T08:29:56Z</time></trkpt><trkpt lat="43.46841430200734" lon="10.511362385943553"><ele>72.0</ele><time>2026-04-19T08:29:57Z</time></trkpt><trkpt lat="43.46829815803018" lon="10.51138049763034"><ele>70.0</ele><time>2026-04-19T08:29:58Z</time></trkpt><trkpt lat="43.46816395638932" lon="10.511410971017854"><ele>70.0</ele><time>2026-04-19T08:29:59Z</time></trkpt><trkpt lat="43.468060723345886" lon="10.511408445578487"><ele>70.0</ele><time>2026-04-19T08:30:00Z</time></trkpt><trkpt lat="43.46795362087154" lon="10.511406713374605"><ele>70.0</ele><time>2026-04-19T08:30:01Z</time></trkpt><trkpt lat="43.467859980724555" lon="10.511406633722537"><ele>70.0</ele><time>2026-04-19T08:30:02Z</time></trkpt><trkpt lat="43.46777929629892" lon="10.511400298714525"><ele>70.0</ele><time>2026-04-19T08:30:03Z</time></trkpt><trkpt lat="43.46769176960509" lon="10.511410915038711"><ele>70.33333333333333</ele><time>2026-04-19T08:30:04Z</time></trkpt><trkpt lat="43.46759931887395" lon="10.511431732206015"><ele>70.66666666666666</ele><time>2026-04-19T08:30:05Z</time></trkpt><trkpt lat="43.46751368409736" lon="10.511453176388663"><ele>71.0</ele><time>2026-04-19T08:30:06Z</time></trkpt><trkpt lat="43.46742514022934" lon="10.51147016278917"><ele>71.33333333333333</ele><time>2026-04-19T08:30:07Z</time></trkpt><trkpt lat="43.467345958630844" lon="10.511435028225113"><ele>71.66666666666667</ele><time>2026-04-19T08:30:08Z</time></trkpt><trkpt lat="43.46727852161558" lon="10.51150026741236"><ele>72.0</ele><time>2026-04-19T08:30:09Z</time></trkpt><trkpt lat="43.46721479710064" lon="10.51151326038993"><ele>72.0</ele><time>2026-04-19T08:30:10Z</time></trkpt><trkpt lat="43.467149177703526" lon="10.511513921396618"><ele>72.0</ele><time>2026-04-19T08:30:11Z</time></trkpt><trkpt lat="43.46707783716278" lon="10.511509634330105"><ele>72.0</ele><time>2026-04-19T08:30:12Z</time></trkpt><trkpt lat="43.467003189646945" lon="10.511509086386585"><ele>72.0</ele><time>2026-04-19T08:30:13Z</time></trkpt><trkpt lat="43.46692314939044" lon="10.511513585734047"><ele>72.0</ele><time>2026-04-19T08:30:14Z</time></trkpt><trkpt lat="43.466836553143764" lon="10.511529472658438"><ele>72.0</ele><time>2026-04-19T08:30:15Z</time></trkpt><trkpt lat="43.4667423667988" lon="10.511511038489365"><ele>72.2</ele><time>2026-04-19T08:30:16Z</time></trkpt><trkpt lat="43.46665009397298" lon="10.51150626035511"><ele>72.4</ele><time>2026-04-19T08:30:17Z</time></trkpt><trkpt lat="43.466561823216175" lon="10.51149837323011"><ele>72.6</ele><time>2026-04-19T08:30:18Z</time></trkpt><trkpt lat="43.46647227716958" lon="10.51149812849177"><ele>72.8</ele><time>2026-04-19T08:30:19Z</time></trkpt><trkpt lat="43.46637200156131" lon="10.511481590396649"><ele>73.0</ele><time>2026-04-19T08:30:20Z</time></trkpt><trkpt lat="43.466268864787246" lon="10.511468167335513"><ele>72.5</ele><time>2026-04-19T08:30:21Z</time></trkpt><trkpt lat="43.46615633925581" lon="10.511423058780254"><ele>72.0</ele><time>2026-04-19T08:30:22Z</time></trkpt><trkpt lat="43.466036040140025" lon="10.51139553238914"><ele>71.5</ele><time>2026-04-19T08:30:23Z</time></trkpt><trkpt lat="43.46590928461893" lon="10.51138748451507"><ele>71.0</ele><time>2026-04-19T08:30:24Z</time></trkpt><trkpt lat="43.465778439584746" lon="10.511332863307713"><ele>71.0</ele><time>2026-04-19T08:30:25Z</time></trkpt><trkpt lat="43.46565117513061" lon="10.511327679068629"><ele>71.0</ele><time>2026-04-19T08:30:26Z</time></trkpt><trkpt lat="43.46552672490774" lon="10.511282684500134"><ele>71.0</ele><time>2026-04-19T08:30:27Z</time></trkpt><trkpt lat="43.465404230994075" lon="10.511259429189943"><ele>71.0</ele><time>2026-04-19T08:30:28Z</time></trkpt><trkpt lat="43.465279638442794" lon="10.5112351771389"><ele>71.5</ele><time>2026-04-19T08:30:29Z</time></trkpt><trkpt lat="43.465147876527915" lon="10.511226030431505"><ele>72.0</ele><time>2026-04-19T08:30:30Z</time></trkpt><trkpt lat="43.46502477668609" lon="10.511194641093915"><ele>72.5</ele><time>2026-04-19T08:30:31Z</time></trkpt><trkpt lat="43.464901581959786" lon="10.511166871484695"><ele>73.0</ele><time>2026-04-19T08:30:32Z</time></trkpt><trkpt lat="43.46477696171692" lon="10.51113867960932"><ele>73.0</ele><time>2026-04-19T08:30:33Z</time></trkpt><trkpt lat="43.46465887426115" lon="10.511137717838862"><ele>73.0</ele><time>2026-04-19T08:30:34Z</time></trkpt><trkpt lat="43.464514206703136" lon="10.51113135310692"><ele>73.0</ele><time>2026-04-19T08:30:35Z</time></trkpt><trkpt lat="43.464376326794365" lon="10.51114317338215"><ele>73.0</ele><time>2026-04-19T08:30:36Z</time></trkpt><trkpt lat="43.46423892500936" lon="10.511152282969844"><ele>73.0</ele><time>2026-04-19T08:30:37Z</time></trkpt><trkpt lat="43.46409962577768" lon="10.511163040883556"><ele>73.0</ele><time>2026-04-19T08:30:38Z</time></trkpt><trkpt lat="43.463970957271" lon="10.511153056561815"><ele>73.0</ele><time>2026-04-19T08:30:39Z</time></trkpt><trkpt lat="43.46383779930014" lon="10.511177335095649"><ele>73.0</ele><time>2026-04-19T08:30:40Z</time></trkpt><trkpt lat="43.46370435253271" lon="10.511162097881455"><ele>72.6</ele><time>2026-04-19T08:30:41Z</time></trkpt><trkpt lat="43.463580263949176" lon="10.511166640872725"><ele>72.19999999999999</ele><time>2026-04-19T08:30:42Z</time></trkpt><trkpt lat="43.46347190429549" lon="10.51117060801507"><ele>71.8</ele><time>2026-04-19T08:30:43Z</time></trkpt><trkpt lat="43.46337229809278" lon="10.511174254684983"><ele>71.39999999999999</ele><time>2026-04-19T08:30:44.001Z</time></trkpt><trkpt lat="43.46328538406842" lon="10.511196911185523"><ele>71.0</ele><time>2026-04-19T08:30:45.001Z</time></trkpt><trkpt lat="43.46316769279312" lon="10.511188211731302"><ele>71.0</ele><time>2026-04-19T08:30:47.001Z</time></trkpt><trkpt lat="43.463085849726596" lon="10.511192030137744"><ele>71.0</ele><time>2026-04-19T08:30:49.001Z</time></trkpt><trkpt lat="43.46301673207818" lon="10.511195274607386"><ele>71.0</ele><time>2026-04-19T08:30:51.001Z</time></trkpt><trkpt lat="43.46292247147519" lon="10.511196275999678"><ele>71.0</ele><time>2026-04-19T08:30:53.001Z</time></trkpt><trkpt lat="43.462855728739996" lon="10.511203808551285"><ele>71.0</ele><time>2026-04-19T08:30:56.001Z</time></trkpt><trkpt lat="43.46274627256584" lon="10.511190803876898"><ele>71.0</ele><time>2026-04-19T08:30:58.001Z</time></trkpt><trkpt lat="43.46267517127665" lon="10.511195818047891"><ele>70.66666666666667</ele><time>2026-04-19T08:30:59.001Z</time></trkpt><trkpt lat="43.462602208430546" lon="10.511202839180388"><ele>70.33333333333334</ele><time>2026-04-19T08:31:00.001Z</time></trkpt><trkpt lat="43.46252333256122" lon="10.511211280807045"><ele>70.0</ele><time>2026-04-19T08:31:01.001Z</time></trkpt><trkpt lat="43.46244079626203" lon="10.511222023202848"><ele>69.66666666666667</ele><time>2026-04-19T08:31:02.001Z</time></trkpt><trkpt lat="43.462353509986286" lon="10.511236782045113"><ele>69.33333333333333</ele><time>2026-04-19T08:31:03.001Z</time></trkpt><trkpt lat="43.46226246053894" lon="10.511270601298712"><ele>69.0</ele><time>2026-04-19T08:31:04.001Z</time></trkpt><trkpt lat="43.46216826107506" lon="10.5112847935201"><ele>69.4</ele><time>2026-04-19T08:31:05.001Z</time></trkpt><trkpt lat="43.462075073826846" lon="10.511300798691497"><ele>69.80000000000001</ele><time>2026-04-19T08:31:06.001Z</time></trkpt><trkpt lat="43.46198038150403" lon="10.51132139034781"><ele>70.19999999999999</ele><time>2026-04-19T08:31:07.001Z</time></trkpt><trkpt lat="43.46188778659068" lon="10.511358291894458"><ele>70.6</ele><time>2026-04-19T08:31:08.001Z</time></trkpt><trkpt lat="43.461801582746084" lon="10.511414153839965"><ele>71.0</ele><time>2026-04-19T08:31:09.001Z</time></trkpt><trkpt lat="43.461715319427114" lon="10.51146957309264"><ele>71.0</ele><time>2026-04-19T08:31:10.001Z</time></trkpt><trkpt lat="43.461625111597414" lon="10.511486937475732"><ele>71.0</ele><time>2026-04-19T08:31:11.001Z</time></trkpt><trkpt lat="43.46154042452647" lon="10.511507382936271"><ele>71.0</ele><time>2026-04-19T08:31:12.001Z</time></trkpt><trkpt lat="43.461459539683986" lon="10.511514144142858"><ele>71.0</ele><time>2026-04-19T08:31:13.001Z</time></trkpt><trkpt lat="43.46137036860855" lon="10.51152101064893"><ele>71.0</ele><time>2026-04-19T08:31:14.001Z</time></trkpt><trkpt lat="43.46128146960307" lon="10.511545624295637"><ele>71.0</ele><time>2026-04-19T08:31:15.001Z</time></trkpt><trkpt lat="43.46119738470709" lon="10.511574692226487"><ele>71.0</ele><time>2026-04-19T08:31:16.001Z</time></trkpt><trkpt lat="43.46111273199449" lon="10.511603963524772"><ele>71.0</ele><time>2026-04-19T08:31:17.001Z</time></trkpt><trkpt lat="43.46102558196945" lon="10.511629724866385"><ele>71.0</ele><time>2026-04-19T08:31:18.001Z</time></trkpt><trkpt lat="43.46093619317238" lon="10.511642938224377"><ele>71.0</ele><time>2026-04-19T08:31:19.001Z</time></trkpt><trkpt lat="43.46083563407676" lon="10.511649538332689"><ele>71.0</ele><time>2026-04-19T08:31:20.001Z</time></trkpt><trkpt lat="43.46073528659207" lon="10.51167417245071"><ele>71.0</ele><time>2026-04-19T08:31:21.001Z</time></trkpt><trkpt lat="43.46063368528535" lon="10.511678389497282"><ele>71.0</ele><time>2026-04-19T08:31:22.001Z</time></trkpt><trkpt lat="43.460560003874285" lon="10.511685409307304"><ele>71.0</ele><time>2026-04-19T08:31:23.001Z</time></trkpt><trkpt lat="43.4604547226046" lon="10.511685010520928"><ele>71.0</ele><time>2026-04-19T08:31:25.001Z</time></trkpt><trkpt lat="43.460390292095084" lon="10.511687655056512"><ele>71.0</ele><time>2026-04-19T08:31:26.001Z</time></trkpt><trkpt lat="43.46032586778096" lon="10.511703249286576"><ele>71.0</ele><time>2026-04-19T08:31:27.001Z</time></trkpt><trkpt lat="43.46023734809428" lon="10.511726838533693"><ele>71.39999999999999</ele><time>2026-04-19T08:31:29.001Z</time></trkpt><trkpt lat="43.460119931848446" lon="10.511754250652357"><ele>71.8</ele><time>2026-04-19T08:31:31.001Z</time></trkpt><trkpt lat="43.46002219147421" lon="10.511793705038485"><ele>72.19999999999999</ele><time>2026-04-19T08:31:33.001Z</time></trkpt><trkpt lat="43.45991910569497" lon="10.511837362925844"><ele>72.6</ele><time>2026-04-19T08:31:35.001Z</time></trkpt><trkpt lat="43.45985847832925" lon="10.51186425152081"><ele>73.0</ele><time>2026-04-19T08:31:36.001Z</time></trkpt><trkpt lat="43.45977634652459" lon="10.511953554352674"><ele>73.0</ele><time>2026-04-19T08:31:38.001Z</time></trkpt><trkpt lat="43.459699620763324" lon="10.511995992860312"><ele>73.0</ele><time>2026-04-19T08:31:40.001Z</time></trkpt><trkpt lat="43.45964280944052" lon="10.512041265891563"><ele>73.0</ele><time>2026-04-19T08:31:41.001Z</time></trkpt><trkpt lat="43.45957152195801" lon="10.51209753899574"><ele>73.0</ele><time>2026-04-19T08:31:42.001Z</time></trkpt><trkpt lat="43.45945269991683" lon="10.512189121327268"><ele>73.0</ele><time>2026-04-19T08:31:44.001Z</time></trkpt><trkpt lat="43.45934830423441" lon="10.512264801996253"><ele>73.4</ele><time>2026-04-19T08:31:46.001Z</time></trkpt><trkpt lat="43.45923241465126" lon="10.512339287133875"><ele>73.8</ele><time>2026-04-19T08:31:48.001Z</time></trkpt><trkpt lat="43.45912732431301" lon="10.512428652088923"><ele>74.2</ele><time>2026-04-19T08:31:50.001Z</time></trkpt><trkpt lat="43.45906676090501" lon="10.51246572996424"><ele>74.6</ele><time>2026-04-19T08:31:51.001Z</time></trkpt><trkpt lat="43.45894716385246" lon="10.512531224248336"><ele>75.0</ele><time>2026-04-19T08:31:53.001Z</time></trkpt><trkpt lat="43.45888355100989" lon="10.512532768934754"><ele>75.6</ele><time>2026-04-19T08:31:54.001Z</time></trkpt><trkpt lat="43.45877165038481" lon="10.51258629507317"><ele>76.2</ele><time>2026-04-19T08:31:56.001Z</time></trkpt><trkpt lat="43.458707825046716" lon="10.51265549931975"><ele>76.8</ele><time>2026-04-19T08:31:58.001Z</time></trkpt><trkpt lat="43.45867578767541" lon="10.512795886309592"><ele>77.4</ele><time>2026-04-19T08:32:00.001Z</time></trkpt><trkpt lat="43.458634280368436" lon="10.512950226915164"><ele>78.0</ele><time>2026-04-19T08:32:02.001Z</time></trkpt><trkpt lat="43.458596195709006" lon="10.513028856296087"><ele>78.0</ele><time>2026-04-19T08:32:03Z</time></trkpt><trkpt lat="43.45848406683846" lon="10.513136279033153"><ele>78.0</ele><time>2026-04-19T08:32:05Z</time></trkpt><trkpt lat="43.458419757883" lon="10.513177693062483"><ele>78.0</ele><time>2026-04-19T08:32:06Z</time></trkpt><trkpt lat="43.45835722981652" lon="10.5132231361881"><ele>78.0</ele><time>2026-04-19T08:32:07Z</time></trkpt><trkpt lat="43.45829780073039" lon="10.513272044858228"><ele>78.0</ele><time>2026-04-19T08:32:08Z</time></trkpt><trkpt lat="43.45824094027766" lon="10.513324594826075"><ele>78.0</ele><time>2026-04-19T08:32:09Z</time></trkpt><trkpt lat="43.45817048976589" lon="10.513383555142292"><ele>78.0</ele><time>2026-04-19T08:32:10Z</time></trkpt><trkpt lat="43.45809084038777" lon="10.513505202710217"><ele>78.0</ele><time>2026-04-19T08:32:12Z</time></trkpt><trkpt lat="43.45804405531729" lon="10.513585216055436"><ele>78.0</ele><time>2026-04-19T08:32:14Z</time></trkpt><trkpt lat="43.4579979281195" lon="10.513666038414346"><ele>78.0</ele><time>2026-04-19T08:32:17Z</time></trkpt><trkpt lat="43.45790187098523" lon="10.513723012569606"><ele>78.0</ele><time>2026-04-19T08:32:19Z</time></trkpt><trkpt lat="43.45779419062596" lon="10.513809586989398"><ele>77.33333333333333</ele><time>2026-04-19T08:32:21Z</time></trkpt><trkpt lat="43.45771368986462" lon="10.513824486157244"><ele>76.66666666666667</ele><time>2026-04-19T08:32:22Z</time></trkpt><trkpt lat="43.45762739001667" lon="10.5138493158133"><ele>76.0</ele><time>2026-04-19T08:32:24Z</time></trkpt><trkpt lat="43.45753744672507" lon="10.513870166308116"><ele>75.33333333333334</ele><time>2026-04-19T08:32:26Z</time></trkpt><trkpt lat="43.45746089421576" lon="10.513874340290515"><ele>74.66666666666667</ele><time>2026-04-19T08:32:28Z</time></trkpt><trkpt lat="43.45741578610194" lon="10.513813701624981"><ele>74.0</ele><time>2026-04-19T08:32:33Z</time></trkpt><trkpt lat="43.45747954353439" lon="10.513770678467328"><ele>74.42857142857143</ele><time>2026-04-19T08:32:35Z</time></trkpt><trkpt lat="43.45751200204548" lon="10.513686519686566"><ele>74.85714285714286</ele><time>2026-04-19T08:32:37Z</time></trkpt><trkpt lat="43.45754236873733" lon="10.513607784757253"><ele>75.28571428571428</ele><time>2026-04-19T08:32:39Z</time></trkpt><trkpt lat="43.45757774981439" lon="10.513516048531159"><ele>75.71428571428572</ele><time>2026-04-19T08:32:41Z</time></trkpt><trkpt lat="43.45759880287971" lon="10.513413508584824"><ele>76.14285714285714</ele><time>2026-04-19T08:32:43Z</time></trkpt><trkpt lat="43.45763549302824" lon="10.513320409918878"><ele>76.57142857142857</ele><time>2026-04-19T08:32:45.001Z</time></trkpt><trkpt lat="43.45767205496616" lon="10.513221771267244"><ele>77.0</ele><time>2026-04-19T08:32:47.001Z</time></trkpt><trkpt lat="43.457714347832635" lon="10.513102986066533"><ele>77.0</ele><time>2026-04-19T08:32:49.001Z</time></trkpt><trkpt lat="43.45776297630391" lon="10.51297491826256"><ele>77.0</ele><time>2026-04-19T08:32:51.001Z</time></trkpt><trkpt lat="43.457816185745195" lon="10.512828662841251"><ele>77.0</ele><time>2026-04-19T08:32:53.001Z</time></trkpt><trkpt lat="43.45783750688409" lon="10.512742500610136"><ele>77.0</ele><time>2026-04-19T08:32:54.001Z</time></trkpt><trkpt lat="43.457877554068354" lon="10.512669122474863"><ele>77.0</ele><time>2026-04-19T08:32:55.001Z</time></trkpt><trkpt lat="43.45788642957276" lon="10.512582978406757"><ele>77.0</ele><time>2026-04-19T08:32:56.001Z</time></trkpt><trkpt lat="43.45791540247157" lon="10.512499412318162"><ele>76.57142857142857</ele><time>2026-04-19T08:32:57.001Z</time></trkpt><trkpt lat="43.45793554087829" lon="10.512414278667553"><ele>76.14285714285714</ele><time>2026-04-19T08:32:58.001Z</time></trkpt><trkpt lat="43.45795241935161" lon="10.512320917849868"><ele>75.71428571428572</ele><time>2026-04-19T08:32:59.001Z</time></trkpt><trkpt lat="43.45797511902469" lon="10.512229567033495"><ele>75.28571428571428</ele><time>2026-04-19T08:33:00.001Z</time></trkpt><trkpt lat="43.4579981904955" lon="10.512137518058568"><ele>74.85714285714286</ele><time>2026-04-19T08:33:01.001Z</time></trkpt><trkpt lat="43.45802121522892" lon="10.51204569294467"><ele>74.42857142857143</ele><time>2026-04-19T08:33:02.001Z</time></trkpt><trkpt lat="43.45804200507335" lon="10.511962780765552"><ele>74.0</ele><time>2026-04-19T08:33:03.001Z</time></trkpt><trkpt lat="43.458063869017074" lon="10.511875585001619"><ele>75.83333333333334</ele><time>2026-04-19T08:33:04.001Z</time></trkpt><trkpt lat="43.45808548250972" lon="10.511793402316021"><ele>77.66666666666667</ele><time>2026-04-19T08:33:05.001Z</time></trkpt><trkpt lat="43.458126256688324" lon="10.51164048104958"><ele>79.5</ele><time>2026-04-19T08:33:07.001Z</time></trkpt><trkpt lat="43.458133256176005" lon="10.511552544535508"><ele>81.33333333333333</ele><time>2026-04-19T08:33:08.001Z</time></trkpt><trkpt lat="43.458179794383724" lon="10.511394007882275"><ele>83.16666666666666</ele><time>2026-04-19T08:33:10.001Z</time></trkpt><trkpt lat="43.45820566204727" lon="10.511311269997737"><ele>85.0</ele><time>2026-04-19T08:33:11.001Z</time></trkpt><trkpt lat="43.45823109758718" lon="10.511226127074002"><ele>85.83333333333333</ele><time>2026-04-19T08:33:12.001Z</time></trkpt><trkpt lat="43.45825796387174" lon="10.511134033862298"><ele>86.66666666666666</ele><time>2026-04-19T08:33:13.001Z</time></trkpt><trkpt lat="43.45828804783442" lon="10.511038215586616"><ele>87.5</ele><time>2026-04-19T08:33:14.001Z</time></trkpt><trkpt lat="43.4583183616008" lon="10.510940384085902"><ele>88.33333333333333</ele><time>2026-04-19T08:33:15.001Z</time></trkpt><trkpt lat="43.4583426667587" lon="10.510841067793947"><ele>89.16666666666667</ele><time>2026-04-19T08:33:16.001Z</time></trkpt><trkpt lat="43.45835281456336" lon="10.51072608641152"><ele>90.0</ele><time>2026-04-19T08:33:17.001Z</time></trkpt><trkpt lat="43.4583692454334" lon="10.510617690204407"><ele>90.0</ele><time>2026-04-19T08:33:18.001Z</time></trkpt><trkpt lat="43.458365251510095" lon="10.510505695047856"><ele>90.0</ele><time>2026-04-19T08:33:19.001Z</time></trkpt><trkpt lat="43.458357992821" lon="10.510394409726494"><ele>90.0</ele><time>2026-04-19T08:33:20.001Z</time></trkpt><trkpt lat="43.458334979332996" lon="10.510272321287415"><ele>90.0</ele><time>2026-04-19T08:33:21.001Z</time></trkpt><trkpt lat="43.45832156696422" lon="10.510148112393388"><ele>90.0</ele><time>2026-04-19T08:33:22.001Z</time></trkpt><trkpt lat="43.458311413524775" lon="10.510022976974398"><ele>90.0</ele><time>2026-04-19T08:33:23.001Z</time></trkpt><trkpt lat="43.45829978401769" lon="10.509901161530637"><ele>90.4</ele><time>2026-04-19T08:33:24.001Z</time></trkpt><trkpt lat="43.45828300242288" lon="10.509777195291992"><ele>90.8</ele><time>2026-04-19T08:33:25.001Z</time></trkpt><trkpt lat="43.45826241428713" lon="10.509652587813035"><ele>91.19999999999999</ele><time>2026-04-19T08:33:26.001Z</time></trkpt><trkpt lat="43.458221943710825" lon="10.509535586489589"><ele>91.6</ele><time>2026-04-19T08:33:27.001Z</time></trkpt><trkpt lat="43.458192680071704" lon="10.509413646087278"><ele>92.0</ele><time>2026-04-19T08:33:28.001Z</time></trkpt><trkpt lat="43.458130917792246" lon="10.509314372043143"><ele>91.33333333333334</ele><time>2026-04-19T08:33:29.001Z</time></trkpt><trkpt lat="43.458098747539076" lon="10.50919342651256"><ele>90.66666666666667</ele><time>2026-04-19T08:33:30.001Z</time></trkpt><trkpt lat="43.45805206684625" lon="10.509077204373801"><ele>90.0</ele><time>2026-04-19T08:33:31.001Z</time></trkpt><trkpt lat="43.45800683061446" lon="10.508964578572352"><ele>89.33333333333333</ele><time>2026-04-19T08:33:32.001Z</time></trkpt><trkpt lat="43.45796690693336" lon="10.508865179463792"><ele>88.66666666666666</ele><time>2026-04-19T08:33:33.001Z</time></trkpt><trkpt lat="43.4579154732152" lon="10.508783236977195"><ele>88.0</ele><time>2026-04-19T08:33:34.001Z</time></trkpt><trkpt lat="43.45788136399861" lon="10.508684049198303"><ele>87.2</ele><time>2026-04-19T08:33:35.001Z</time></trkpt><trkpt lat="43.45784447049331" lon="10.508592715622099"><ele>86.4</ele><time>2026-04-19T08:33:36.001Z</time></trkpt><trkpt lat="43.45777564395087" lon="10.508452738966307"><ele>85.60000000000001</ele><time>2026-04-19T08:33:38.001Z</time></trkpt><trkpt lat="43.45769111034746" lon="10.508393281866756"><ele>84.80000000000001</ele><time>2026-04-19T08:33:40.001Z</time></trkpt><trkpt lat="43.457595909555714" lon="10.508374811450414"><ele>84.0</ele><time>2026-04-19T08:33:42.001Z</time></trkpt><trkpt lat="43.45748546268444" lon="10.508390376448322"><ele>84.0</ele><time>2026-04-19T08:33:44.001Z</time></trkpt><trkpt lat="43.45737913674689" lon="10.508379096191048"><ele>84.0</ele><time>2026-04-19T08:33:46.001Z</time></trkpt><trkpt lat="43.457285873058595" lon="10.508441847239197"><ele>84.0</ele><time>2026-04-19T08:33:48.001Z</time></trkpt><trkpt lat="43.457212797329056" lon="10.508528868089746"><ele>84.0</ele><time>2026-04-19T08:33:50.001Z</time></trkpt><trkpt lat="43.45715582011822" lon="10.508645475015626"><ele>84.0</ele><time>2026-04-19T08:33:52.001Z</time></trkpt><trkpt lat="43.457090322750865" lon="10.508706879919266"><ele>83.2</ele><time>2026-04-19T08:33:54.001Z</time></trkpt><trkpt lat="43.457006987232575" lon="10.508803561263928"><ele>82.4</ele><time>2026-04-19T08:33:57Z</time></trkpt><trkpt lat="43.456929663265434" lon="10.508887837038278"><ele>81.6</ele><time>2026-04-19T08:33:59Z</time></trkpt><trkpt lat="43.45684655528565" lon="10.508936289281221"><ele>80.8</ele><time>2026-04-19T08:34:01Z</time></trkpt><trkpt lat="43.456728768017044" lon="10.50893434175202"><ele>80.0</ele><time>2026-04-19T08:34:03Z</time></trkpt><trkpt lat="43.456609495376036" lon="10.508909756095397"><ele>80.0</ele><time>2026-04-19T08:34:05Z</time></trkpt><trkpt lat="43.456542368644804" lon="10.50888036426396"><ele>80.0</ele><time>2026-04-19T08:34:06Z</time></trkpt><trkpt lat="43.45647755431832" lon="10.50885320295958"><ele>80.0</ele><time>2026-04-19T08:34:07Z</time></trkpt><trkpt lat="43.456351078569845" lon="10.50882134447425"><ele>80.0</ele><time>2026-04-19T08:34:09Z</time></trkpt><trkpt lat="43.45624416320757" lon="10.508834097451"><ele>80.0</ele><time>2026-04-19T08:34:11Z</time></trkpt><trkpt lat="43.45615790018216" lon="10.508832160832329"><ele>79.66666666666667</ele><time>2026-04-19T08:34:13Z</time></trkpt><trkpt lat="43.456056660437405" lon="10.508795541471912"><ele>79.33333333333334</ele><time>2026-04-19T08:34:15Z</time></trkpt><trkpt lat="43.45593570469649" lon="10.508768882874135"><ele>79.0</ele><time>2026-04-19T08:34:17Z</time></trkpt><trkpt lat="43.4558770095924" lon="10.508736713548043"><ele>78.66666666666667</ele><time>2026-04-19T08:34:18Z</time></trkpt><trkpt lat="43.455815507023345" lon="10.50871200108834"><ele>78.33333333333333</ele><time>2026-04-19T08:34:19Z</time></trkpt><trkpt lat="43.45575718771941" lon="10.50865996845373"><ele>78.0</ele><time>2026-04-19T08:34:20Z</time></trkpt><trkpt lat="43.4556912182874" lon="10.508627910868748"><ele>76.66666666666667</ele><time>2026-04-19T08:34:21Z</time></trkpt><trkpt lat="43.45561749481272" lon="10.50861072981234"><ele>75.33333333333333</ele><time>2026-04-19T08:34:22Z</time></trkpt><trkpt lat="43.45554527916721" lon="10.508575994807998"><ele>74.0</ele><time>2026-04-19T08:34:23Z</time></trkpt><trkpt lat="43.45547102310982" lon="10.508546759764736"><ele>72.66666666666666</ele><time>2026-04-19T08:34:24Z</time></trkpt><trkpt lat="43.4554006019182" lon="10.508496663376299"><ele>71.33333333333333</ele><time>2026-04-19T08:34:25Z</time></trkpt><trkpt lat="43.45532314117145" lon="10.508478972815613"><ele>70.0</ele><time>2026-04-19T08:34:26Z</time></trkpt><trkpt lat="43.45525362068179" lon="10.508437454180529"><ele>70.0</ele><time>2026-04-19T08:34:27Z</time></trkpt><trkpt lat="43.45518862282293" lon="10.508370596124552"><ele>70.0</ele><time>2026-04-19T08:34:28Z</time></trkpt><trkpt lat="43.455118171856064" lon="10.508324011228794"><ele>70.0</ele><time>2026-04-19T08:34:29Z</time></trkpt><trkpt lat="43.45504794211639" lon="10.508277239196605"><ele>70.0</ele><time>2026-04-19T08:34:30Z</time></trkpt><trkpt lat="43.45497581908615" lon="10.508252949492285"><ele>70.0</ele><time>2026-04-19T08:34:31Z</time></trkpt><trkpt lat="43.454906238227046" lon="10.508211561369016"><ele>70.0</ele><time>2026-04-19T08:34:32Z</time></trkpt><trkpt lat="43.45483885497454" lon="10.508175550135055"><ele>70.0</ele><time>2026-04-19T08:34:33Z</time></trkpt><trkpt lat="43.45476822668953" lon="10.50814019444919"><ele>70.0</ele><time>2026-04-19T08:34:34Z</time></trkpt><trkpt lat="43.45469736629564" lon="10.5081071411911"><ele>70.0</ele><time>2026-04-19T08:34:35Z</time></trkpt><trkpt lat="43.45462351221807" lon="10.508076200795735"><ele>70.0</ele><time>2026-04-19T08:34:36Z</time></trkpt><trkpt lat="43.45454760755246" lon="10.50804995776337"><ele>70.0</ele><time>2026-04-19T08:34:37Z</time></trkpt><trkpt lat="43.45448018916065" lon="10.508031627810816"><ele>70.0</ele><time>2026-04-19T08:34:38Z</time></trkpt><trkpt lat="43.45441533309311" lon="10.508019229680686"><ele>70.0</ele><time>2026-04-19T08:34:39Z</time></trkpt><trkpt lat="43.45429377750237" lon="10.508014900261573"><ele>69.8</ele><time>2026-04-19T08:34:41Z</time></trkpt><trkpt lat="43.45417509548762" lon="10.507980455721134"><ele>69.6</ele><time>2026-04-19T08:34:43Z</time></trkpt><trkpt lat="43.454054378454266" lon="10.507946144106107"><ele>69.4</ele><time>2026-04-19T08:34:45Z</time></trkpt><trkpt lat="43.45392963124243" lon="10.50792493443975"><ele>69.2</ele><time>2026-04-19T08:34:47Z</time></trkpt><trkpt lat="43.453866893422045" lon="10.507876307085109"><ele>69.0</ele><time>2026-04-19T08:34:48Z</time></trkpt><trkpt lat="43.45380070961562" lon="10.507848870848875"><ele>68.28571428571429</ele><time>2026-04-19T08:34:49Z</time></trkpt><trkpt lat="43.45373436919249" lon="10.507817483053962"><ele>67.57142857142858</ele><time>2026-04-19T08:34:50Z</time></trkpt><trkpt lat="43.45366877482647" lon="10.507778832412269"><ele>66.85714285714286</ele><time>2026-04-19T08:34:51Z</time></trkpt><trkpt lat="43.45360376817895" lon="10.507737860357174"><ele>66.14285714285714</ele><time>2026-04-19T08:34:52Z</time></trkpt><trkpt lat="43.453538950925164" lon="10.507696479636142"><ele>65.42857142857142</ele><time>2026-04-19T08:34:53Z</time></trkpt><trkpt lat="43.453475030133546" lon="10.507655276562502"><ele>64.71428571428571</ele><time>2026-04-19T08:34:54Z</time></trkpt><trkpt lat="43.453409641171966" lon="10.507611519219287"><ele>64.0</ele><time>2026-04-19T08:34:55Z</time></trkpt><trkpt lat="43.453348590718775" lon="10.507565156120082"><ele>64.0</ele><time>2026-04-19T08:34:56Z</time></trkpt><trkpt lat="43.45329199733631" lon="10.507512704955383"><ele>63.99999999999999</ele><time>2026-04-19T08:34:57Z</time></trkpt><trkpt lat="43.453241549982394" lon="10.507457431949431"><ele>64.0</ele><time>2026-04-19T08:34:58Z</time></trkpt><trkpt lat="43.45315310525929" lon="10.507345887819895"><ele>64.0</ele><time>2026-04-19T08:35:00Z</time></trkpt><trkpt lat="43.45309559820198" lon="10.50731028028247"><ele>63.99999999999999</ele><time>2026-04-19T08:35:01Z</time></trkpt><trkpt lat="43.45304361842622" lon="10.507260592663835"><ele>64.0</ele><time>2026-04-19T08:35:02Z</time></trkpt><trkpt lat="43.452985732185375" lon="10.507219191188758"><ele>64.0</ele><time>2026-04-19T08:35:03Z</time></trkpt><trkpt lat="43.45293972779705" lon="10.507157111152395"><ele>63.99999999999999</ele><time>2026-04-19T08:35:04Z</time></trkpt><trkpt lat="43.45283318785652" lon="10.507070480614928"><ele>64.0</ele><time>2026-04-19T08:35:06Z</time></trkpt><trkpt lat="43.45277814242083" lon="10.507025688075084"><ele>64.0</ele><time>2026-04-19T08:35:07Z</time></trkpt><trkpt lat="43.452714192143546" lon="10.506999488443725"><ele>64.0</ele><time>2026-04-19T08:35:08Z</time></trkpt><trkpt lat="43.4526524809574" lon="10.506950826480042"><ele>63.99999999999999</ele><time>2026-04-19T08:35:09Z</time></trkpt><trkpt lat="43.452588852765" lon="10.506899862419308"><ele>64.0</ele><time>2026-04-19T08:35:10Z</time></trkpt><trkpt lat="43.45252469350944" lon="10.506853042801344"><ele>63.99999999999999</ele><time>2026-04-19T08:35:11Z</time></trkpt><trkpt lat="43.4524565621204" lon="10.506814200793215"><ele>64.0</ele><time>2026-04-19T08:35:12Z</time></trkpt><trkpt lat="43.452388763647335" lon="10.506777961992311"><ele>64.0</ele><time>2026-04-19T08:35:13Z</time></trkpt><trkpt lat="43.452321292712654" lon="10.5067346280291"><ele>64.0</ele><time>2026-04-19T08:35:14Z</time></trkpt><trkpt lat="43.452251186729754" lon="10.506691539000395"><ele>63.99999999999999</ele><time>2026-04-19T08:35:15Z</time></trkpt><trkpt lat="43.452186984429254" lon="10.506624099956204"><ele>64.0</ele><time>2026-04-19T08:35:16Z</time></trkpt><trkpt lat="43.45211949239751" lon="10.506575651956663"><ele>63.2</ele><time>2026-04-19T08:35:17Z</time></trkpt><trkpt lat="43.45206092361201" lon="10.506528370319502"><ele>62.400000000000006</ele><time>2026-04-19T08:35:18Z</time></trkpt><trkpt lat="43.451967951494495" lon="10.506428121876278"><ele>61.6</ele><time>2026-04-19T08:35:20Z</time></trkpt><trkpt lat="43.451888780156175" lon="10.506323001832818"><ele>60.8</ele><time>2026-04-19T08:35:22.001Z</time></trkpt><trkpt lat="43.451803498099665" lon="10.506226738019384"><ele>60.0</ele><time>2026-04-19T08:35:24.001Z</time></trkpt><trkpt lat="43.451721150194295" lon="10.506110858238708"><ele>60.0</ele><time>2026-04-19T08:35:26.001Z</time></trkpt><trkpt lat="43.45167125454865" lon="10.506054172277933"><ele>60.0</ele><time>2026-04-19T08:35:27.001Z</time></trkpt><trkpt lat="43.45161789265563" lon="10.505990429080391"><ele>60.0</ele><time>2026-04-19T08:35:28.001Z</time></trkpt><trkpt lat="43.45157494810405" lon="10.505908517283542"><ele>60.0</ele><time>2026-04-19T08:35:29.001Z</time></trkpt><trkpt lat="43.45152587494408" lon="10.505842082285149"><ele>60.0</ele><time>2026-04-19T08:35:30.001Z</time></trkpt><trkpt lat="43.451481927423124" lon="10.505775359301564"><ele>60.0</ele><time>2026-04-19T08:35:31.001Z</time></trkpt><trkpt lat="43.45141224169801" lon="10.505632969950526"><ele>60.0</ele><time>2026-04-19T08:35:33.001Z</time></trkpt><trkpt lat="43.45133496412368" lon="10.505500229672506"><ele>60.0</ele><time>2026-04-19T08:35:35.001Z</time></trkpt><trkpt lat="43.45126467045069" lon="10.505357386276481"><ele>60.0</ele><time>2026-04-19T08:35:37.001Z</time></trkpt><trkpt lat="43.45122854280795" lon="10.505283275634948"><ele>60.0</ele><time>2026-04-19T08:35:38.001Z</time></trkpt><trkpt lat="43.451208344737054" lon="10.50519996336841"><ele>60.0</ele><time>2026-04-19T08:35:39.001Z</time></trkpt><trkpt lat="43.45114312503845" lon="10.505059704625168"><ele>59.2</ele><time>2026-04-19T08:35:41.001Z</time></trkpt><trkpt lat="43.451080833013215" lon="10.504925742037885"><ele>58.4</ele><time>2026-04-19T08:35:43.001Z</time></trkpt><trkpt lat="43.45103407126646" lon="10.50486655329998"><ele>57.599999999999994</ele><time>2026-04-19T08:35:44.001Z</time></trkpt><trkpt lat="43.450969048575224" lon="10.504726028478892"><ele>56.8</ele><time>2026-04-19T08:35:46.001Z</time></trkpt><trkpt lat="43.45089749591629" lon="10.504586121330554"><ele>56.0</ele><time>2026-04-19T08:35:48.001Z</time></trkpt><trkpt lat="43.450840520506816" lon="10.504440621096636"><ele>55.0</ele><time>2026-04-19T08:35:50.001Z</time></trkpt><trkpt lat="43.45075990783351" lon="10.504316578170748"><ele>54.0</ele><time>2026-04-19T08:35:52.001Z</time></trkpt><trkpt lat="43.45068482652369" lon="10.504178581239612"><ele>53.0</ele><time>2026-04-19T08:35:54.001Z</time></trkpt><trkpt lat="43.45061377389546" lon="10.504057595176047"><ele>52.0</ele><time>2026-04-19T08:35:56.001Z</time></trkpt><trkpt lat="43.45054303472842" lon="10.5039548672219"><ele>52.0</ele><time>2026-04-19T08:35:58.001Z</time></trkpt><trkpt lat="43.45046269933736" lon="10.503845623118265"><ele>52.0</ele><time>2026-04-19T08:36:00.001Z</time></trkpt><trkpt lat="43.450390570164956" lon="10.50374643075565"><ele>52.0</ele><time>2026-04-19T08:36:02Z</time></trkpt><trkpt lat="43.450317251744174" lon="10.503643531376783"><ele>52.0</ele><time>2026-04-19T08:36:04Z</time></trkpt><trkpt lat="43.450217071149645" lon="10.503538054949836"><ele>52.0</ele><time>2026-04-19T08:36:06Z</time></trkpt><trkpt lat="43.45015751054932" lon="10.503484844354938"><ele>50.99999999999999</ele><time>2026-04-19T08:36:07Z</time></trkpt><trkpt lat="43.45008678472312" lon="10.503436594868113"><ele>50.0</ele><time>2026-04-19T08:36:08Z</time></trkpt><trkpt lat="43.44998916510345" lon="10.503359917967618"><ele>49.0</ele><time>2026-04-19T08:36:10Z</time></trkpt><trkpt lat="43.44994522701739" lon="10.50329229330576"><ele>48.0</ele><time>2026-04-19T08:36:12Z</time></trkpt><trkpt lat="43.449872362276096" lon="10.503217577929373"><ele>47.0</ele><time>2026-04-19T08:36:15Z</time></trkpt><trkpt lat="43.44981555047289" lon="10.50315531894827"><ele>46.0</ele><time>2026-04-19T08:36:17Z</time></trkpt><trkpt lat="43.44974699186183" lon="10.503078303564275"><ele>46.0</ele><time>2026-04-19T08:36:19Z</time></trkpt><trkpt lat="43.449662581773644" lon="10.503009883308982"><ele>46.0</ele><time>2026-04-19T08:36:21Z</time></trkpt><trkpt lat="43.44958283262795" lon="10.502920608871984"><ele>46.0</ele><time>2026-04-19T08:36:23Z</time></trkpt><trkpt lat="43.44949750523395" lon="10.502831342756792"><ele>46.0</ele><time>2026-04-19T08:36:25Z</time></trkpt><trkpt lat="43.44939841243435" lon="10.50274564522852"><ele>46.0</ele><time>2026-04-19T08:36:27Z</time></trkpt><trkpt lat="43.44929016163408" lon="10.502655111588718"><ele>45.142857142857146</ele><time>2026-04-19T08:36:29Z</time></trkpt><trkpt lat="43.44923356753881" lon="10.502613355985938"><ele>44.285714285714285</ele><time>2026-04-19T08:36:30Z</time></trkpt><trkpt lat="43.44917525907066" lon="10.502571005023308"><ele>43.42857142857143</ele><time>2026-04-19T08:36:31Z</time></trkpt><trkpt lat="43.44911331750295" lon="10.502535132732822"><ele>42.57142857142857</ele><time>2026-04-19T08:36:32Z</time></trkpt><trkpt lat="43.449047634604646" lon="10.502502367006871"><ele>41.714285714285715</ele><time>2026-04-19T08:36:33Z</time></trkpt><trkpt lat="43.44897676369917" lon="10.502486715817634"><ele>40.857142857142854</ele><time>2026-04-19T08:36:34Z</time></trkpt><trkpt lat="43.44890148073578" lon="10.502461167484098"><ele>40.0</ele><time>2026-04-19T08:36:35Z</time></trkpt><trkpt lat="43.44882099908889" lon="10.502429870433572"><ele>39.4</ele><time>2026-04-19T08:36:36Z</time></trkpt><trkpt lat="43.448739329059755" lon="10.502410326923524"><ele>38.8</ele><time>2026-04-19T08:36:37Z</time></trkpt><trkpt lat="43.44866036772621" lon="10.502393441879065"><ele>38.2</ele><time>2026-04-19T08:36:38Z</time></trkpt><trkpt lat="43.44858574790371" lon="10.502374500129722"><ele>37.6</ele><time>2026-04-19T08:36:39Z</time></trkpt><trkpt lat="43.44846954979894" lon="10.502357060421591"><ele>37.0</ele><time>2026-04-19T08:36:41Z</time></trkpt><trkpt lat="43.44837254214446" lon="10.502362797680027"><ele>37.0</ele><time>2026-04-19T08:36:43Z</time></trkpt><trkpt lat="43.448273563562516" lon="10.502389311429512"><ele>37.0</ele><time>2026-04-19T08:36:45Z</time></trkpt><trkpt lat="43.448164184715296" lon="10.50244933771518"><ele>37.0</ele><time>2026-04-19T08:36:47Z</time></trkpt><trkpt lat="43.44806326820834" lon="10.50253252020766"><ele>37.0</ele><time>2026-04-19T08:36:49Z</time></trkpt><trkpt lat="43.44795632510522" lon="10.502608842528334"><ele>36.800000000000004</ele><time>2026-04-19T08:36:51Z</time></trkpt><trkpt lat="43.44784446887955" lon="10.502662824356849"><ele>36.6</ele><time>2026-04-19T08:36:53Z</time></trkpt><trkpt lat="43.44774289414159" lon="10.502722733629005"><ele>36.400000000000006</ele><time>2026-04-19T08:36:55Z</time></trkpt><trkpt lat="43.44765012406992" lon="10.502762573017138"><ele>36.2</ele><time>2026-04-19T08:36:57Z</time></trkpt><trkpt lat="43.4475575624513" lon="10.502768645622705"><ele>36.0</ele><time>2026-04-19T08:36:59Z</time></trkpt><trkpt lat="43.44747288250666" lon="10.502742279674324"><ele>36.0</ele><time>2026-04-19T08:37:01Z</time></trkpt><trkpt lat="43.447400826724405" lon="10.502671743890893"><ele>36.0</ele><time>2026-04-19T08:37:03Z</time></trkpt><trkpt lat="43.44733451212848" lon="10.502565128600382"><ele>36.0</ele><time>2026-04-19T08:37:05Z</time></trkpt><trkpt lat="43.44726480292773" lon="10.502456542077017"><ele>36.0</ele><time>2026-04-19T08:37:07Z</time></trkpt><trkpt lat="43.44719085503263" lon="10.502360165101438"><ele>36.0</ele><time>2026-04-19T08:37:09Z</time></trkpt><trkpt lat="43.44711370331325" lon="10.502247350750913"><ele>36.0</ele><time>2026-04-19T08:37:11Z</time></trkpt><trkpt lat="43.4470521508467" lon="10.502112378607887"><ele>36.0</ele><time>2026-04-19T08:37:13Z</time></trkpt><trkpt lat="43.446964842858605" lon="10.50200180143703"><ele>36.0</ele><time>2026-04-19T08:37:15Z</time></trkpt><trkpt lat="43.446873310473386" lon="10.501907166763198"><ele>36.0</ele><time>2026-04-19T08:37:17Z</time></trkpt><trkpt lat="43.44676217156632" lon="10.501862168073911"><ele>36.0</ele><time>2026-04-19T08:37:19Z</time></trkpt><trkpt lat="43.446652606968925" lon="10.501877451799245"><ele>36.0</ele><time>2026-04-19T08:37:21Z</time></trkpt><trkpt lat="43.44655584760554" lon="10.501956910667415"><ele>36.0</ele><time>2026-04-19T08:37:23Z</time></trkpt><trkpt lat="43.446476802874855" lon="10.502044061181142"><ele>36.0</ele><time>2026-04-19T08:37:25Z</time></trkpt><trkpt lat="43.446433014836714" lon="10.502133819743449"><ele>36.0</ele><time>2026-04-19T08:37:27Z</time></trkpt><trkpt lat="43.44634727820954" lon="10.502230393045721"><ele>36.2</ele><time>2026-04-19T08:37:29Z</time></trkpt><trkpt lat="43.44627002231804" lon="10.502315720297675"><ele>36.400000000000006</ele><time>2026-04-19T08:37:31Z</time></trkpt><trkpt lat="43.44618867659562" lon="10.5024000383472"><ele>36.6</ele><time>2026-04-19T08:37:33Z</time></trkpt><trkpt lat="43.44609348298233" lon="10.502477309179827"><ele>36.800000000000004</ele><time>2026-04-19T08:37:35Z</time></trkpt><trkpt lat="43.44601041137757" lon="10.502593152287131"><ele>37.0</ele><time>2026-04-19T08:37:37Z</time></trkpt><trkpt lat="43.44590767354438" lon="10.502674298418908"><ele>37.0</ele><time>2026-04-19T08:37:39Z</time></trkpt><trkpt lat="43.44585672630806" lon="10.50272713128021"><ele>37.0</ele><time>2026-04-19T08:37:40Z</time></trkpt><trkpt lat="43.445762108180304" lon="10.502824100434077"><ele>37.0</ele><time>2026-04-19T08:37:42Z</time></trkpt><trkpt lat="43.44566390487173" lon="10.502924726622814"><ele>37.0</ele><time>2026-04-19T08:37:44Z</time></trkpt><trkpt lat="43.44562188520282" lon="10.502996199174472"><ele>37.0</ele><time>2026-04-19T08:37:45Z</time></trkpt><trkpt lat="43.44555931627826" lon="10.503052258071799"><ele>37.0</ele><time>2026-04-19T08:37:46Z</time></trkpt><trkpt lat="43.44548749304525" lon="10.503123558813991"><ele>36.833333333333336</ele><time>2026-04-19T08:37:47Z</time></trkpt><trkpt lat="43.4454230728087" lon="10.503191146575263"><ele>36.66666666666667</ele><time>2026-04-19T08:37:48Z</time></trkpt><trkpt lat="43.44534921159849" lon="10.503246822389219"><ele>36.5</ele><time>2026-04-19T08:37:49Z</time></trkpt><trkpt lat="43.445282258755356" lon="10.50331477845944"><ele>36.333333333333336</ele><time>2026-04-19T08:37:50Z</time></trkpt><trkpt lat="43.44521868664208" lon="10.503379058200418"><ele>36.166666666666664</ele><time>2026-04-19T08:37:51Z</time></trkpt><trkpt lat="43.44514958546814" lon="10.503448928524216"><ele>36.0</ele><time>2026-04-19T08:37:52Z</time></trkpt><trkpt lat="43.44508109871887" lon="10.503518177587853"><ele>36.0</ele><time>2026-04-19T08:37:53Z</time></trkpt><trkpt lat="43.44501775631618" lon="10.503606344949837"><ele>36.0</ele><time>2026-04-19T08:37:54Z</time></trkpt><trkpt lat="43.444942775220255" lon="10.503681199421807"><ele>36.0</ele><time>2026-04-19T08:37:55.001Z</time></trkpt><trkpt lat="43.444868624416436" lon="10.50375724336517"><ele>36.0</ele><time>2026-04-19T08:37:56.001Z</time></trkpt><trkpt lat="43.44480131009166" lon="10.503828427021158"><ele>36.0</ele><time>2026-04-19T08:37:57.001Z</time></trkpt><trkpt lat="43.44473305062016" lon="10.503902404385341"><ele>36.0</ele><time>2026-04-19T08:37:58.001Z</time></trkpt><trkpt lat="43.44466618079992" lon="10.5039737207556"><ele>36.5</ele><time>2026-04-19T08:37:59.001Z</time></trkpt><trkpt lat="43.44460191739877" lon="10.504042398006177"><ele>37.0</ele><time>2026-04-19T08:38:00.001Z</time></trkpt><trkpt lat="43.44453470723244" lon="10.504086623917464"><ele>37.5</ele><time>2026-04-19T08:38:01.001Z</time></trkpt><trkpt lat="43.44446871433102" lon="10.50415599796071"><ele>38.0</ele><time>2026-04-19T08:38:02.001Z</time></trkpt><trkpt lat="43.44440160591421" lon="10.504225752485421"><ele>38.5</ele><time>2026-04-19T08:38:03.001Z</time></trkpt><trkpt lat="43.44433511859185" lon="10.504294374785818"><ele>39.0</ele><time>2026-04-19T08:38:04.001Z</time></trkpt><trkpt lat="43.44427326586273" lon="10.504358213722307"><ele>39.0</ele><time>2026-04-19T08:38:05.001Z</time></trkpt><trkpt lat="43.44420780811683" lon="10.504425773445995"><ele>39.0</ele><time>2026-04-19T08:38:06.001Z</time></trkpt><trkpt lat="43.444141003244596" lon="10.50451505904954"><ele>39.0</ele><time>2026-04-19T08:38:07.001Z</time></trkpt><trkpt lat="43.444078156801" lon="10.504580677077202"><ele>39.0</ele><time>2026-04-19T08:38:08Z</time></trkpt><trkpt lat="43.44401303720331" lon="10.50465288006809"><ele>39.0</ele><time>2026-04-19T08:38:09Z</time></trkpt><trkpt lat="43.44393402505543" lon="10.504703376911722"><ele>39.0</ele><time>2026-04-19T08:38:10Z</time></trkpt><trkpt lat="43.44386470638938" lon="10.504771632523894"><ele>40.333333333333336</ele><time>2026-04-19T08:38:11Z</time></trkpt><trkpt lat="43.44379290134507" lon="10.504842069563633"><ele>41.666666666666664</ele><time>2026-04-19T08:38:12Z</time></trkpt><trkpt lat="43.44371972467625" lon="10.504914068798168"><ele>43.0</ele><time>2026-04-19T08:38:13Z</time></trkpt><trkpt lat="43.44365003837452" lon="10.504983071549187"><ele>44.33333333333333</ele><time>2026-04-19T08:38:14Z</time></trkpt><trkpt lat="43.443592825978364" lon="10.505067364765294"><ele>45.666666666666664</ele><time>2026-04-19T08:38:15Z</time></trkpt><trkpt lat="43.44352408863513" lon="10.505126806085165"><ele>47.0</ele><time>2026-04-19T08:38:16Z</time></trkpt><trkpt lat="43.44346359000723" lon="10.505192290990928"><ele>47.0</ele><time>2026-04-19T08:38:17Z</time></trkpt><trkpt lat="43.4434029606243" lon="10.505261291043698"><ele>47.0</ele><time>2026-04-19T08:38:18Z</time></trkpt><trkpt lat="43.443335019763516" lon="10.505302868485794"><ele>47.0</ele><time>2026-04-19T08:38:19Z</time></trkpt><trkpt lat="43.44328603876088" lon="10.505378703193799"><ele>47.0</ele><time>2026-04-19T08:38:20Z</time></trkpt><trkpt lat="43.44322837768189" lon="10.505436025432047"><ele>47.0</ele><time>2026-04-19T08:38:21Z</time></trkpt><trkpt lat="43.44317201591079" lon="10.505492517759501"><ele>47.0</ele><time>2026-04-19T08:38:22Z</time></trkpt><trkpt lat="43.44311767070411" lon="10.505548006444268"><ele>47.0</ele><time>2026-04-19T08:38:23Z</time></trkpt><trkpt lat="43.44304070636427" lon="10.505612146428902"><ele>47.83333333333333</ele><time>2026-04-19T08:38:25Z</time></trkpt><trkpt lat="43.442973840946294" lon="10.505623074541086"><ele>48.666666666666664</ele><time>2026-04-19T08:38:28Z</time></trkpt><trkpt lat="43.44292442947424" lon="10.50551131566174"><ele>49.5</ele><time>2026-04-19T08:38:30Z</time></trkpt><trkpt lat="43.44287448997408" lon="10.505356657719766"><ele>50.33333333333333</ele><time>2026-04-19T08:38:32Z</time></trkpt><trkpt lat="43.44284255584569" lon="10.505274628488065"><ele>51.166666666666664</ele><time>2026-04-19T08:38:33Z</time></trkpt><trkpt lat="43.44280164682939" lon="10.50518293595754"><ele>52.0</ele><time>2026-04-19T08:38:34Z</time></trkpt><trkpt lat="43.44275479879243" lon="10.50507707358845"><ele>52.0</ele><time>2026-04-19T08:38:35Z</time></trkpt><trkpt lat="43.44270325384002" lon="10.504964026300668"><ele>52.0</ele><time>2026-04-19T08:38:36Z</time></trkpt><trkpt lat="43.44265373890587" lon="10.50484905599161"><ele>52.0</ele><time>2026-04-19T08:38:37Z</time></trkpt><trkpt lat="43.442603522111774" lon="10.504729472751588"><ele>52.0</ele><time>2026-04-19T08:38:38Z</time></trkpt><trkpt lat="43.442558187522" lon="10.50461863595655"><ele>52.0</ele><time>2026-04-19T08:38:39Z</time></trkpt><trkpt lat="43.44251918751993" lon="10.504519560960583"><ele>51.2</ele><time>2026-04-19T08:38:40Z</time></trkpt><trkpt lat="43.44248609566277" lon="10.504431809224823"><ele>50.400000000000006</ele><time>2026-04-19T08:38:41Z</time></trkpt><trkpt lat="43.442457362504015" lon="10.504353442517145"><ele>49.599999999999994</ele><time>2026-04-19T08:38:42Z</time></trkpt><trkpt lat="43.44240885306031" lon="10.504198451806682"><ele>48.8</ele><time>2026-04-19T08:38:44Z</time></trkpt><trkpt lat="43.442363505589086" lon="10.504054248914244"><ele>48.0</ele><time>2026-04-19T08:38:46Z</time></trkpt><trkpt lat="43.442307561896946" lon="10.503885351429837"><ele>48.0</ele><time>2026-04-19T08:38:48Z</time></trkpt><trkpt lat="43.44228239193513" lon="10.503786061043074"><ele>48.0</ele><time>2026-04-19T08:38:49Z</time></trkpt><trkpt lat="43.44225510985299" lon="10.503670799612044"><ele>48.0</ele><time>2026-04-19T08:38:50Z</time></trkpt><trkpt lat="43.44222597731269" lon="10.503556056662095"><ele>48.0</ele><time>2026-04-19T08:38:51Z</time></trkpt><trkpt lat="43.442200021511205" lon="10.503445080073375"><ele>48.0</ele><time>2026-04-19T08:38:52Z</time></trkpt><trkpt lat="43.44217459713949" lon="10.503333555518862"><ele>48.0</ele><time>2026-04-19T08:38:53Z</time></trkpt><trkpt lat="43.44214811328259" lon="10.503224242065198"><ele>48.0</ele><time>2026-04-19T08:38:54Z</time></trkpt><trkpt lat="43.44212367726969" lon="10.503114277281204"><ele>48.0</ele><time>2026-04-19T08:38:55Z</time></trkpt><trkpt lat="43.44209973731115" lon="10.503015538657579"><ele>48.0</ele><time>2026-04-19T08:38:56Z</time></trkpt><trkpt lat="43.442066535954964" lon="10.502877506917855"><ele>48.0</ele><time>2026-04-19T08:38:58Z</time></trkpt><trkpt lat="43.44204431124639" lon="10.502774098004505"><ele>48.0</ele><time>2026-04-19T08:39:00Z</time></trkpt><trkpt lat="43.44203567252178" lon="10.50267667360031"><ele>48.0</ele><time>2026-04-19T08:39:02Z</time></trkpt><trkpt lat="43.44191794232593" lon="10.502653260220734"><ele>48.166666666666664</ele><time>2026-04-19T08:39:04Z</time></trkpt><trkpt lat="43.44180308269749" lon="10.502684339202814"><ele>48.33333333333333</ele><time>2026-04-19T08:39:06Z</time></trkpt><trkpt lat="43.441733080287825" lon="10.502688503505361"><ele>48.5</ele><time>2026-04-19T08:39:07Z</time></trkpt><trkpt lat="43.44165878356414" lon="10.502701595697092"><ele>48.666666666666664</ele><time>2026-04-19T08:39:08Z</time></trkpt><trkpt lat="43.441590562373825" lon="10.502712664912917"><ele>48.83333333333333</ele><time>2026-04-19T08:39:09Z</time></trkpt><trkpt lat="43.44151465369508" lon="10.502723942833407"><ele>49.0</ele><time>2026-04-19T08:39:10Z</time></trkpt><trkpt lat="43.44144021617082" lon="10.502739307616789"><ele>48.99999999999999</ele><time>2026-04-19T08:39:11Z</time></trkpt><trkpt lat="43.44136777020763" lon="10.502756046103888"><ele>49.0</ele><time>2026-04-19T08:39:12Z</time></trkpt><trkpt lat="43.441286304285555" lon="10.502772913901852"><ele>49.0</ele><time>2026-04-19T08:39:13Z</time></trkpt><trkpt lat="43.44119935262223" lon="10.502790964757622"><ele>49.0</ele><time>2026-04-19T08:39:14Z</time></trkpt><trkpt lat="43.441113019391956" lon="10.502810383793118"><ele>48.99999999999999</ele><time>2026-04-19T08:39:15Z</time></trkpt><trkpt lat="43.44102631376348" lon="10.502830032322793"><ele>49.0</ele><time>2026-04-19T08:39:16Z</time></trkpt><trkpt lat="43.440939227009586" lon="10.502850050648636"><ele>48.99999999999999</ele><time>2026-04-19T08:39:17Z</time></trkpt><trkpt lat="43.44085256108129" lon="10.502868098168594"><ele>49.0</ele><time>2026-04-19T08:39:18Z</time></trkpt><trkpt lat="43.44076658779292" lon="10.502883260531549"><ele>49.0</ele><time>2026-04-19T08:39:19Z</time></trkpt><trkpt lat="43.440685319047766" lon="10.502900053453258"><ele>49.0</ele><time>2026-04-19T08:39:20Z</time></trkpt><trkpt lat="43.44060774199108" lon="10.50291337206648"><ele>48.99999999999999</ele><time>2026-04-19T08:39:21Z</time></trkpt><trkpt lat="43.44053335330743" lon="10.502931166507711"><ele>49.0</ele><time>2026-04-19T08:39:22Z</time></trkpt><trkpt lat="43.44045827739894" lon="10.502950472597028"><ele>47.99999999999999</ele><time>2026-04-19T08:39:23Z</time></trkpt><trkpt lat="43.44038249943165" lon="10.502973359774229"><ele>47.0</ele><time>2026-04-19T08:39:24Z</time></trkpt><trkpt lat="43.44030442203505" lon="10.502996975774817"><ele>46.0</ele><time>2026-04-19T08:39:25Z</time></trkpt><trkpt lat="43.440229692262385" lon="10.5030202855125"><ele>45.0</ele><time>2026-04-19T08:39:26Z</time></trkpt><trkpt lat="43.44015192174791" lon="10.50302400682089"><ele>44.0</ele><time>2026-04-19T08:39:27Z</time></trkpt><trkpt lat="43.44007056805439" lon="10.503019913115589"><ele>43.0</ele><time>2026-04-19T08:39:28Z</time></trkpt><trkpt lat="43.43994809854245" lon="10.503009592351992"><ele>43.0</ele><time>2026-04-19T08:39:30Z</time></trkpt><trkpt lat="43.439874475407954" lon="10.503008946256614"><ele>43.0</ele><time>2026-04-19T08:39:31Z</time></trkpt><trkpt lat="43.439790467406795" lon="10.503013359638638"><ele>43.0</ele><time>2026-04-19T08:39:32Z</time></trkpt><trkpt lat="43.43972030821543" lon="10.503003518195232"><ele>43.0</ele><time>2026-04-19T08:39:33Z</time></trkpt><trkpt lat="43.439641877456665" lon="10.502995595559895"><ele>43.0</ele><time>2026-04-19T08:39:34Z</time></trkpt><trkpt lat="43.43955815478711" lon="10.502962304771872"><ele>43.0</ele><time>2026-04-19T08:39:35Z</time></trkpt><trkpt lat="43.43946450941499" lon="10.502949332527892"><ele>42.599999999999994</ele><time>2026-04-19T08:39:36Z</time></trkpt><trkpt lat="43.43937387933409" lon="10.502937884738943"><ele>42.199999999999996</ele><time>2026-04-19T08:39:37Z</time></trkpt><trkpt lat="43.43927918178825" lon="10.502928632741803"><ele>41.8</ele><time>2026-04-19T08:39:38Z</time></trkpt><trkpt lat="43.43918361153493" lon="10.502920932763997"><ele>41.4</ele><time>2026-04-19T08:39:39Z</time></trkpt><trkpt lat="43.43908542221555" lon="10.50291302177501"><ele>41.0</ele><time>2026-04-19T08:39:40Z</time></trkpt><trkpt lat="43.43898602182468" lon="10.502905209941078"><ele>41.0</ele><time>2026-04-19T08:39:41Z</time></trkpt><trkpt lat="43.43888704421642" lon="10.502898074597855"><ele>41.0</ele><time>2026-04-19T08:39:42Z</time></trkpt><trkpt lat="43.43878422760075" lon="10.502890662503273"><ele>41.0</ele><time>2026-04-19T08:39:43Z</time></trkpt><trkpt lat="43.43868269885977" lon="10.50288334325249"><ele>41.0</ele><time>2026-04-19T08:39:44Z</time></trkpt><trkpt lat="43.43857688307606" lon="10.502875714951417"><ele>41.0</ele><time>2026-04-19T08:39:45Z</time></trkpt><trkpt lat="43.438475620776025" lon="10.502868414905342"><ele>41.0</ele><time>2026-04-19T08:39:46Z</time></trkpt><trkpt lat="43.43837486100698" lon="10.502861813826541"><ele>41.0</ele><time>2026-04-19T08:39:47Z</time></trkpt><trkpt lat="43.43827124427101" lon="10.502871647542106"><ele>41.0</ele><time>2026-04-19T08:39:48Z</time></trkpt><trkpt lat="43.43817232805926" lon="10.50286846287922"><ele>41.0</ele><time>2026-04-19T08:39:49Z</time></trkpt><trkpt lat="43.43806571932893" lon="10.502859571658906"><ele>41.0</ele><time>2026-04-19T08:39:50Z</time></trkpt><trkpt lat="43.43796540804558" lon="10.502850281375906"><ele>40.4</ele><time>2026-04-19T08:39:51Z</time></trkpt><trkpt lat="43.43786924815993" lon="10.502848101741739"><ele>39.8</ele><time>2026-04-19T08:39:52Z</time></trkpt><trkpt lat="43.4377723874969" lon="10.502838613681819"><ele>39.199999999999996</ele><time>2026-04-19T08:39:53Z</time></trkpt><trkpt lat="43.437673917394065" lon="10.502827056105303"><ele>38.599999999999994</ele><time>2026-04-19T08:39:54Z</time></trkpt><trkpt lat="43.437576659514086" lon="10.502812880414734"><ele>38.0</ele><time>2026-04-19T08:39:55Z</time></trkpt><trkpt lat="43.43748234760308" lon="10.502800126288614"><ele>38.0</ele><time>2026-04-19T08:39:56Z</time></trkpt><trkpt lat="43.43739638844202" lon="10.502791801802552"><ele>38.0</ele><time>2026-04-19T08:39:57Z</time></trkpt><trkpt lat="43.437320362658205" lon="10.502775237267436"><ele>38.0</ele><time>2026-04-19T08:39:58Z</time></trkpt><trkpt lat="43.43724273766003" lon="10.50277370075329"><ele>38.0</ele><time>2026-04-19T08:39:59Z</time></trkpt><trkpt lat="43.437166140453435" lon="10.502770976771586"><ele>38.0</ele><time>2026-04-19T08:40:00Z</time></trkpt><trkpt lat="43.43709060999821" lon="10.502795562178402"><ele>38.0</ele><time>2026-04-19T08:40:01Z</time></trkpt><trkpt lat="43.43701113019748" lon="10.502846568204815"><ele>37.8</ele><time>2026-04-19T08:40:02Z</time></trkpt><trkpt lat="43.43693667712162" lon="10.502915034778331"><ele>37.599999999999994</ele><time>2026-04-19T08:40:03Z</time></trkpt><trkpt lat="43.436890594796225" lon="10.503018215133705"><ele>37.400000000000006</ele><time>2026-04-19T08:40:04Z</time></trkpt><trkpt lat="43.43684679062399" lon="10.503119457346695"><ele>37.2</ele><time>2026-04-19T08:40:05Z</time></trkpt><trkpt lat="43.4367815109835" lon="10.503199784253109"><ele>37.0</ele><time>2026-04-19T08:40:06Z</time></trkpt><trkpt lat="43.43669872934137" lon="10.50329609069144"><ele>37.0</ele><time>2026-04-19T08:40:08Z</time></trkpt><trkpt lat="43.43660471699887" lon="10.503336515858528"><ele>37.0</ele><time>2026-04-19T08:40:10Z</time></trkpt><trkpt lat="43.4365308222796" lon="10.503434582724502"><ele>37.0</ele><time>2026-04-19T08:40:12Z</time></trkpt><trkpt lat="43.436483641835785" lon="10.503589117033318"><ele>37.0</ele><time>2026-04-19T08:40:14Z</time></trkpt><trkpt lat="43.43645380105916" lon="10.503759885371716"><ele>37.0</ele><time>2026-04-19T08:40:16Z</time></trkpt><trkpt lat="43.43642813004779" lon="10.503872081718903"><ele>37.0</ele><time>2026-04-19T08:40:17Z</time></trkpt><trkpt lat="43.436402177995014" lon="10.503985506223957"><ele>37.0</ele><time>2026-04-19T08:40:18Z</time></trkpt><trkpt lat="43.436375528499106" lon="10.504092512675973"><ele>37.0</ele><time>2026-04-19T08:40:19Z</time></trkpt><trkpt lat="43.43632109452465" lon="10.504190814602072"><ele>37.0</ele><time>2026-04-19T08:40:20Z</time></trkpt><trkpt lat="43.43629839348675" lon="10.504278620561337"><ele>37.0</ele><time>2026-04-19T08:40:21Z</time></trkpt><trkpt lat="43.43627193656703" lon="10.504365479649868"><ele>37.0</ele><time>2026-04-19T08:40:22Z</time></trkpt><trkpt lat="43.43627002521437" lon="10.504455363661826"><ele>37.0</ele><time>2026-04-19T08:40:23Z</time></trkpt><trkpt lat="43.43629094850443" lon="10.504612469114374"><ele>37.0</ele><time>2026-04-19T08:40:25Z</time></trkpt><trkpt lat="43.436361686560026" lon="10.504721116089872"><ele>37.0</ele><time>2026-04-19T08:40:27Z</time></trkpt><trkpt lat="43.436427646929495" lon="10.504820644124383"><ele>37.0</ele><time>2026-04-19T08:40:29Z</time></trkpt><trkpt lat="43.43641908357306" lon="10.504957182953047"><ele>37.0</ele><time>2026-04-19T08:40:31Z</time></trkpt><trkpt lat="43.43638623018414" lon="10.50508227367726"><ele>37.0</ele><time>2026-04-19T08:40:33Z</time></trkpt><trkpt lat="43.436346215144454" lon="10.505167788424027"><ele>37.0</ele><time>2026-04-19T08:40:34Z</time></trkpt><trkpt lat="43.436312371569805" lon="10.505245937958371"><ele>37.0</ele><time>2026-04-19T08:40:35Z</time></trkpt><trkpt lat="43.436285272728504" lon="10.505335632830905"><ele>37.0</ele><time>2026-04-19T08:40:36Z</time></trkpt><trkpt lat="43.43622773006924" lon="10.50548327382462"><ele>37.0</ele><time>2026-04-19T08:40:38Z</time></trkpt><trkpt lat="43.43620791059591" lon="10.505580560957592"><ele>37.0</ele><time>2026-04-19T08:40:39Z</time></trkpt><trkpt lat="43.43618245265451" lon="10.505667515500656"><ele>37.0</ele><time>2026-04-19T08:40:40Z</time></trkpt><trkpt lat="43.43615041147786" lon="10.505754028155266"><ele>37.0</ele><time>2026-04-19T08:40:41Z</time></trkpt><trkpt lat="43.43613340921748" lon="10.505860652741289"><ele>37.0</ele><time>2026-04-19T08:40:42Z</time></trkpt><trkpt lat="43.43614597487522" lon="10.505964841114643"><ele>37.0</ele><time>2026-04-19T08:40:43Z</time></trkpt><trkpt lat="43.436143612346115" lon="10.506070397842725"><ele>37.0</ele><time>2026-04-19T08:40:44Z</time></trkpt><trkpt lat="43.43615959067703" lon="10.506178772549694"><ele>36.833333333333336</ele><time>2026-04-19T08:40:45Z</time></trkpt><trkpt lat="43.43619262287074" lon="10.506277386068684"><ele>36.66666666666667</ele><time>2026-04-19T08:40:46Z</time></trkpt><trkpt lat="43.43619710087207" lon="10.506378784009428"><ele>36.5</ele><time>2026-04-19T08:40:47Z</time></trkpt><trkpt lat="43.43622816653887" lon="10.50648477839874"><ele>36.333333333333336</ele><time>2026-04-19T08:40:48Z</time></trkpt><trkpt lat="43.436231158352896" lon="10.506595038715513"><ele>36.166666666666664</ele><time>2026-04-19T08:40:49Z</time></trkpt><trkpt lat="43.43625161695285" lon="10.506695133584671"><ele>36.0</ele><time>2026-04-19T08:40:50Z</time></trkpt><trkpt lat="43.43625707945431" lon="10.50685962307029"><ele>36.0</ele><time>2026-04-19T08:40:52Z</time></trkpt><trkpt lat="43.43623020371715" lon="10.507026141821422"><ele>36.0</ele><time>2026-04-19T08:40:54Z</time></trkpt><trkpt lat="43.43623585989622" lon="10.507116759794984"><ele>36.0</ele><time>2026-04-19T08:40:55Z</time></trkpt><trkpt lat="43.43621950896543" lon="10.50721406908295"><ele>36.0</ele><time>2026-04-19T08:40:56Z</time></trkpt><trkpt lat="43.43619774753155" lon="10.507318737138387"><ele>36.0</ele><time>2026-04-19T08:40:57Z</time></trkpt><trkpt lat="43.43617751410374" lon="10.507416055106555"><ele>36.0</ele><time>2026-04-19T08:40:58Z</time></trkpt><trkpt lat="43.43616845710095" lon="10.507517829612965"><ele>36.333333333333336</ele><time>2026-04-19T08:40:59Z</time></trkpt><trkpt lat="43.43614039194388" lon="10.507596861031336"><ele>36.666666666666664</ele><time>2026-04-19T08:41:00Z</time></trkpt><trkpt lat="43.43613423137956" lon="10.507696789985543"><ele>37.0</ele><time>2026-04-19T08:41:01Z</time></trkpt><trkpt lat="43.43614196932425" lon="10.507797878562428"><ele>37.33333333333333</ele><time>2026-04-19T08:41:02Z</time></trkpt><trkpt lat="43.43615170166803" lon="10.507887138749343"><ele>37.666666666666664</ele><time>2026-04-19T08:41:03Z</time></trkpt><trkpt lat="43.43618288447767" lon="10.50796791847187"><ele>38.0</ele><time>2026-04-19T08:41:04Z</time></trkpt><trkpt lat="43.43621978684094" lon="10.508131092922977"><ele>38.0</ele><time>2026-04-19T08:41:06Z</time></trkpt><trkpt lat="43.43624045848177" lon="10.508216242009164"><ele>38.0</ele><time>2026-04-19T08:41:07Z</time></trkpt><trkpt lat="43.436262837832786" lon="10.508302386065418"><ele>38.0</ele><time>2026-04-19T08:41:08Z</time></trkpt><trkpt lat="43.43628729464397" lon="10.508397154582205"><ele>38.0</ele><time>2026-04-19T08:41:09Z</time></trkpt><trkpt lat="43.43630255461247" lon="10.508495433082125"><ele>38.0</ele><time>2026-04-19T08:41:10Z</time></trkpt><trkpt lat="43.43630775232218" lon="10.508596712806138"><ele>38.0</ele><time>2026-04-19T08:41:11Z</time></trkpt><trkpt lat="43.43631449606976" lon="10.508770819490888"><ele>38.285714285714285</ele><time>2026-04-19T08:41:13Z</time></trkpt><trkpt lat="43.43632043773444" lon="10.508870563374682"><ele>38.57142857142858</ele><time>2026-04-19T08:41:14Z</time></trkpt><trkpt lat="43.436326251162136" lon="10.508966860451801"><ele>38.85714285714286</ele><time>2026-04-19T08:41:15Z</time></trkpt><trkpt lat="43.4363267775245" lon="10.50905841940603"><ele>39.14285714285714</ele><time>2026-04-19T08:41:16Z</time></trkpt><trkpt lat="43.43632688960118" lon="10.509158958145596"><ele>39.42857142857143</ele><time>2026-04-19T08:41:17Z</time></trkpt><trkpt lat="43.43632890789239" lon="10.509252437080185"><ele>39.714285714285715</ele><time>2026-04-19T08:41:18Z</time></trkpt><trkpt lat="43.43633453236084" lon="10.50935479611482"><ele>40.0</ele><time>2026-04-19T08:41:19Z</time></trkpt><trkpt lat="43.43632597693025" lon="10.509462355502755"><ele>40.0</ele><time>2026-04-19T08:41:20Z</time></trkpt><trkpt lat="43.436319123159116" lon="10.509560774174737"><ele>40.0</ele><time>2026-04-19T08:41:21Z</time></trkpt><trkpt lat="43.4363114704367" lon="10.509685595071408"><ele>40.0</ele><time>2026-04-19T08:41:22Z</time></trkpt><trkpt lat="43.43629761513118" lon="10.509787726731597"><ele>40.0</ele><time>2026-04-19T08:41:23Z</time></trkpt><trkpt lat="43.43628864896349" lon="10.50987458789324"><ele>40.0</ele><time>2026-04-19T08:41:24Z</time></trkpt><trkpt lat="43.436274726805884" lon="10.50997138292058"><ele>40.0</ele><time>2026-04-19T08:41:25Z</time></trkpt><trkpt lat="43.43626393521402" lon="10.510059325565669"><ele>40.0</ele><time>2026-04-19T08:41:26Z</time></trkpt><trkpt lat="43.43625017778028" lon="10.51014754849857"><ele>42.4</ele><time>2026-04-19T08:41:27Z</time></trkpt><trkpt lat="43.4362374698967" lon="10.510247646746471"><ele>44.8</ele><time>2026-04-19T08:41:28Z</time></trkpt><trkpt lat="43.43623067461383" lon="10.510336465327189"><ele>47.2</ele><time>2026-04-19T08:41:29Z</time></trkpt><trkpt lat="43.43622220403233" lon="10.510438900111824"><ele>49.6</ele><time>2026-04-19T08:41:30Z</time></trkpt><trkpt lat="43.43621343560026" lon="10.510623950028407"><ele>52.0</ele><time>2026-04-19T08:41:32Z</time></trkpt><trkpt lat="43.43619053098766" lon="10.510790767005808"><ele>52.83333333333333</ele><time>2026-04-19T08:41:34Z</time></trkpt><trkpt lat="43.436180716578846" lon="10.510884159595372"><ele>53.666666666666664</ele><time>2026-04-19T08:41:35Z</time></trkpt><trkpt lat="43.43617814445445" lon="10.510971846362583"><ele>54.5</ele><time>2026-04-19T08:41:36Z</time></trkpt><trkpt lat="43.43616518168118" lon="10.511056948566747"><ele>55.33333333333333</ele><time>2026-04-19T08:41:37Z</time></trkpt><trkpt lat="43.43614728819483" lon="10.51115014735058"><ele>56.166666666666664</ele><time>2026-04-19T08:41:38Z</time></trkpt><trkpt lat="43.43612929809357" lon="10.511310509296697"><ele>57.0</ele><time>2026-04-19T08:41:40Z</time></trkpt><trkpt lat="43.43612064058428" lon="10.511435052522186"><ele>57.42857142857142</ele><time>2026-04-19T08:41:42Z</time></trkpt><trkpt lat="43.43611384561825" lon="10.511531176021943"><ele>57.85714285714285</ele><time>2026-04-19T08:41:44Z</time></trkpt><trkpt lat="43.436110882669155" lon="10.511619243037613"><ele>58.285714285714285</ele><time>2026-04-19T08:41:50Z</time></trkpt><trkpt lat="43.43610014637523" lon="10.511720131797993"><ele>58.71428571428571</ele><time>2026-04-19T08:42:50Z</time></trkpt><trkpt lat="43.436096853161104" lon="10.5118115137259"><ele>59.14285714285714</ele><time>2026-04-19T08:42:53Z</time></trkpt><trkpt lat="43.4360893693954" lon="10.511915877289074"><ele>59.57142857142857</ele><time>2026-04-19T08:42:56Z</time></trkpt><trkpt lat="43.436082838149005" lon="10.51203315210994"><ele>60.0</ele><time>2026-04-19T08:42:59Z</time></trkpt><trkpt lat="43.43606962204572" lon="10.51213952075436"><ele>60.0</ele><time>2026-04-19T08:43:02Z</time></trkpt><trkpt lat="43.43606756039531" lon="10.512232855479105"><ele>60.0</ele><time>2026-04-19T08:43:05Z</time></trkpt><trkpt lat="43.4360605109179" lon="10.512320432282035"><ele>60.0</ele><time>2026-04-19T08:43:08Z</time></trkpt><trkpt lat="43.43605047678186" lon="10.512421485454517"><ele>60.0</ele><time>2026-04-19T08:43:12Z</time></trkpt><trkpt lat="43.436025030107906" lon="10.51251293528693"><ele>60.0</ele><time>2026-04-19T08:43:16Z</time></trkpt><trkpt lat="43.436021127757364" lon="10.512618066659861"><ele>60.0</ele><time>2026-04-19T08:43:21Z</time></trkpt><trkpt lat="43.43601212583137" lon="10.512713409786116"><ele>60.0</ele><time>2026-04-19T08:43:25Z</time></trkpt><trkpt lat="43.43601152352901" lon="10.512810044529846"><ele>60.57142857142857</ele><time>2026-04-19T08:43:30Z</time></trkpt><trkpt lat="43.43600090404088" lon="10.512915050644365"><ele>61.14285714285714</ele><time>2026-04-19T08:43:36Z</time></trkpt><trkpt lat="43.43599433126084" lon="10.51301409334645"><ele>61.71428571428571</ele><time>2026-04-19T08:43:41Z</time></trkpt><trkpt lat="43.43599232910653" lon="10.513110300831952"><ele>62.285714285714285</ele><time>2026-04-19T08:43:47Z</time></trkpt><trkpt lat="43.435980967891865" lon="10.513202930689284"><ele>62.85714285714285</ele><time>2026-04-19T08:43:53Z</time></trkpt><trkpt lat="43.43597202014416" lon="10.513301946682741"><ele>63.42857142857142</ele><time>2026-04-19T08:43:59Z</time></trkpt><trkpt lat="43.435963471947446" lon="10.513395703476707"><ele>64.0</ele><time>2026-04-19T08:44:05Z</time></trkpt><trkpt lat="43.43595906257863" lon="10.51348234595163"><ele>64.0</ele><time>2026-04-19T08:44:10Z</time></trkpt><trkpt lat="43.435961273793225" lon="10.51359624908454"><ele>63.99999999999999</ele><time>2026-04-19T08:44:16Z</time></trkpt><trkpt lat="43.43594373318275" lon="10.513684840028846"><ele>64.0</ele><time>2026-04-19T08:44:20Z</time></trkpt><trkpt lat="43.43593440953585" lon="10.513777449084984"><ele>64.0</ele><time>2026-04-19T08:44:23Z</time></trkpt><trkpt lat="43.43592554509916" lon="10.513886329908328"><ele>63.99999999999999</ele><time>2026-04-19T08:44:26Z</time></trkpt><trkpt lat="43.43591764442996" lon="10.513998874626692"><ele>64.0</ele><time>2026-04-19T08:44:30Z</time></trkpt><trkpt lat="43.43591180265825" lon="10.514087164527014"><ele>64.0</ele><time>2026-04-19T08:44:33Z</time></trkpt><trkpt lat="43.435904601077226" lon="10.514177936245241"><ele>64.42857142857143</ele><time>2026-04-19T08:44:36Z</time></trkpt><trkpt lat="43.435903222937064" lon="10.514266729374297"><ele>64.85714285714285</ele><time>2026-04-19T08:44:39Z</time></trkpt><trkpt lat="43.43589094998871" lon="10.51435203513903"><ele>65.28571428571428</ele><time>2026-04-19T08:44:42Z</time></trkpt><trkpt lat="43.43588683092041" lon="10.514456400604306"><ele>65.71428571428571</ele><time>2026-04-19T08:44:45Z</time></trkpt><trkpt lat="43.4358638010167" lon="10.5145514500352"><ele>66.14285714285714</ele><time>2026-04-19T08:44:48Z</time></trkpt><trkpt lat="43.4358555414332" lon="10.514643728066213"><ele>66.57142857142857</ele><time>2026-04-19T08:44:51Z</time></trkpt><trkpt lat="43.43584621996162" lon="10.514736417837216"><ele>67.0</ele><time>2026-04-19T08:44:54Z</time></trkpt><trkpt lat="43.435836731265624" lon="10.514829747738222"><ele>67.28571428571429</ele><time>2026-04-19T08:44:57Z</time></trkpt><trkpt lat="43.43582710875719" lon="10.514924393853118"><ele>67.57142857142857</ele><time>2026-04-19T08:45:00Z</time></trkpt><trkpt lat="43.435817229475525" lon="10.515018134044153"><ele>67.85714285714286</ele><time>2026-04-19T08:45:03Z</time></trkpt><trkpt lat="43.435824778930844" lon="10.51512115742231"><ele>68.14285714285714</ele><time>2026-04-19T08:45:06Z</time></trkpt><trkpt lat="43.435811249795265" lon="10.51520912613126"><ele>68.42857142857143</ele><time>2026-04-19T08:45:08Z</time></trkpt><trkpt lat="43.43580139223598" lon="10.515314030282362"><ele>68.71428571428572</ele><time>2026-04-19T08:45:11Z</time></trkpt><trkpt lat="43.435794278956145" lon="10.515429387649275"><ele>69.0</ele><time>2026-04-19T08:45:14Z</time></trkpt><trkpt lat="43.43578593484856" lon="10.515520278868534"><ele>69.5</ele><time>2026-04-19T08:45:17Z</time></trkpt><trkpt lat="43.43577251325772" lon="10.51561956735611"><ele>70.0</ele><time>2026-04-19T08:45:20Z</time></trkpt><trkpt lat="43.43576403715226" lon="10.515724306665735"><ele>70.5</ele><time>2026-04-19T08:45:23Z</time></trkpt><trkpt lat="43.43576232224235" lon="10.515816545518248"><ele>71.0</ele><time>2026-04-19T08:45:26Z</time></trkpt><trkpt lat="43.435742124063374" lon="10.515927459562596"><ele>71.5</ele><time>2026-04-19T08:45:30Z</time></trkpt><trkpt lat="43.43572533214602" lon="10.516049993315246"><ele>72.0</ele><time>2026-04-19T08:45:34Z</time></trkpt><trkpt lat="43.43571441905424" lon="10.516166984986983"><ele>72.33333333333333</ele><time>2026-04-19T08:45:38Z</time></trkpt><trkpt lat="43.43570585717598" lon="10.516259572939285"><ele>72.66666666666667</ele><time>2026-04-19T08:45:41Z</time></trkpt><trkpt lat="43.43569440149585" lon="10.516349904298444"><ele>73.0</ele><time>2026-04-19T08:45:44Z</time></trkpt><trkpt lat="43.43568590354836" lon="10.516458581418226"><ele>73.33333333333334</ele><time>2026-04-19T08:45:52Z</time></trkpt><trkpt lat="43.435684777594055" lon="10.516556847746184"><ele>73.66666666666667</ele><time>2026-04-19T08:45:56Z</time></trkpt><trkpt lat="43.435670591807565" lon="10.51668145513248"><ele>74.0</ele><time>2026-04-19T08:45:59Z</time></trkpt><trkpt lat="43.43565698709362" lon="10.516801833811423"><ele>74.0</ele><time>2026-04-19T08:46:02Z</time></trkpt><trkpt lat="43.43564933291388" lon="10.516899157683167"><ele>74.0</ele><time>2026-04-19T08:46:05Z</time></trkpt><trkpt lat="43.43561682643782" lon="10.51701572406955"><ele>74.0</ele><time>2026-04-19T08:46:08Z</time></trkpt><trkpt lat="43.43561128439968" lon="10.517125286163452"><ele>74.0</ele><time>2026-04-19T08:46:10Z</time></trkpt><trkpt lat="43.4355768054452" lon="10.517218461799875"><ele>74.0</ele><time>2026-04-19T08:46:12Z</time></trkpt><trkpt lat="43.435549495519325" lon="10.517321105603612"><ele>74.0</ele><time>2026-04-19T08:46:15Z</time></trkpt><trkpt lat="43.43552136953344" lon="10.51741288246858"><ele>74.0</ele><time>2026-04-19T08:46:19Z</time></trkpt><trkpt lat="43.4354892540313" lon="10.517522401411311"><ele>74.0</ele><time>2026-04-19T08:46:23Z</time></trkpt><trkpt lat="43.43546425160811" lon="10.517608261650535"><ele>74.0</ele><time>2026-04-19T08:46:26Z</time></trkpt><trkpt lat="43.435433868034295" lon="10.517695942760936"><ele>74.0</ele><time>2026-04-19T08:46:31Z</time></trkpt><trkpt lat="43.43542146463142" lon="10.517797136888175"><ele>74.0</ele><time>2026-04-19T08:46:34Z</time></trkpt><trkpt lat="43.43541572040796" lon="10.51790157386901"><ele>74.0</ele><time>2026-04-19T08:46:38Z</time></trkpt><trkpt lat="43.435426788846925" lon="10.517989217937107"><ele>74.0</ele><time>2026-04-19T08:46:41Z</time></trkpt><trkpt lat="43.4354259201113" lon="10.518093297671724"><ele>73.85714285714286</ele><time>2026-04-19T08:46:44Z</time></trkpt><trkpt lat="43.43545178758749" lon="10.518172669412197"><ele>73.71428571428571</ele><time>2026-04-19T08:46:47Z</time></trkpt><trkpt lat="43.43544997767454" lon="10.518279464657565"><ele>73.57142857142857</ele><time>2026-04-19T08:46:50Z</time></trkpt><trkpt lat="43.435451497797914" lon="10.518393464074235"><ele>73.42857142857143</ele><time>2026-04-19T08:46:53Z</time></trkpt><trkpt lat="43.435434317648955" lon="10.518490186211169"><ele>73.28571428571429</ele><time>2026-04-19T08:46:56Z</time></trkpt><trkpt lat="43.43542917583196" lon="10.518607352460661"><ele>73.14285714285714</ele><time>2026-04-19T08:47:00Z</time></trkpt><trkpt lat="43.43542327997904" lon="10.518700218640346"><ele>73.0</ele><time>2026-04-19T08:47:03Z</time></trkpt><trkpt lat="43.43541372645184" lon="10.518809531747662"><ele>72.71428571428571</ele><time>2026-04-19T08:47:07Z</time></trkpt><trkpt lat="43.43540813084597" lon="10.518897988501887"><ele>72.42857142857143</ele><time>2026-04-19T08:47:10Z</time></trkpt><trkpt lat="43.435396360812575" lon="10.51899282376107"><ele>72.14285714285714</ele><time>2026-04-19T08:47:13Z</time></trkpt><trkpt lat="43.435386363288146" lon="10.519103241465253"><ele>71.85714285714286</ele><time>2026-04-19T08:47:18Z</time></trkpt><trkpt lat="43.43536480002161" lon="10.519199772717869"><ele>71.57142857142857</ele><time>2026-04-19T08:47:23Z</time></trkpt><trkpt lat="43.435352563803704" lon="10.519293676601798"><ele>71.28571428571428</ele><time>2026-04-19T08:47:27Z</time></trkpt><trkpt lat="43.43533548538043" lon="10.519405463355954"><ele>71.0</ele><time>2026-04-19T08:47:31Z</time></trkpt><trkpt lat="43.435321323902144" lon="10.519503005488554"><ele>71.14285714285714</ele><time>2026-04-19T08:47:35Z</time></trkpt><trkpt lat="43.435306289563265" lon="10.519605039507153"><ele>71.28571428571428</ele><time>2026-04-19T08:47:40Z</time></trkpt><trkpt lat="43.43530105123613" lon="10.519694219291715"><ele>71.42857142857143</ele><time>2026-04-19T08:47:45Z</time></trkpt><trkpt lat="43.435296365797925" lon="10.519790084136615"><ele>71.57142857142857</ele><time>2026-04-19T08:47:49Z</time></trkpt><trkpt lat="43.4352898935448" lon="10.519876659293708"><ele>71.71428571428572</ele><time>2026-04-19T08:47:53Z</time></trkpt><trkpt lat="43.43528719751288" lon="10.519966973741147"><ele>71.85714285714286</ele><time>2026-04-19T08:47:57Z</time></trkpt><trkpt lat="43.435278676313686" lon="10.520062851204736"><ele>72.0</ele><time>2026-04-19T08:48:02Z</time></trkpt><trkpt lat="43.43528007289366" lon="10.520164041226447"><ele>72.00000000000001</ele><time>2026-04-19T08:48:11Z</time></trkpt><trkpt lat="43.43527900919921" lon="10.520265195489236"><ele>72.0</ele><time>2026-04-19T08:48:17Z</time></trkpt><trkpt lat="43.4352804608058" lon="10.520358832117994"><ele>72.0</ele><time>2026-04-19T08:48:22Z</time></trkpt><trkpt lat="43.43527541785543" lon="10.520449867481537"><ele>72.0</ele><time>2026-04-19T08:48:27Z</time></trkpt><trkpt lat="43.43527462204375" lon="10.52053872076221"><ele>72.0</ele><time>2026-04-19T08:48:34Z</time></trkpt><trkpt lat="43.43527877626506" lon="10.52064617277244"><ele>72.00000000000001</ele><time>2026-04-19T08:48:40Z</time></trkpt><trkpt lat="43.435283127339666" lon="10.520739380579716"><ele>72.0</ele><time>2026-04-19T08:48:48Z</time></trkpt><trkpt lat="43.435278200757516" lon="10.520826414495541"><ele>72.71428571428572</ele><time>2026-04-19T08:48:55Z</time></trkpt><trkpt lat="43.43527545079999" lon="10.52092011234949"><ele>73.42857142857143</ele><time>2026-04-19T08:49:02Z</time></trkpt><trkpt lat="43.43527686569031" lon="10.52103274789829"><ele>74.14285714285714</ele><time>2026-04-19T08:49:09Z</time></trkpt><trkpt lat="43.43527924366231" lon="10.521121491895057"><ele>74.85714285714286</ele><time>2026-04-19T08:49:13Z</time></trkpt><trkpt lat="43.43527363703789" lon="10.521212564554636"><ele>75.57142857142857</ele><time>2026-04-19T08:49:19Z</time></trkpt><trkpt lat="43.43527821584607" lon="10.521324965297778"><ele>76.28571428571429</ele><time>2026-04-19T08:49:28Z</time></trkpt><trkpt lat="43.4353025841548" lon="10.521430351433118"><ele>77.0</ele><time>2026-04-19T08:49:32Z</time></trkpt><trkpt lat="43.43531556698688" lon="10.52151935957948"><ele>77.28571428571429</ele><time>2026-04-19T08:49:34Z</time></trkpt><trkpt lat="43.43532500240791" lon="10.521636012847132"><ele>77.57142857142857</ele><time>2026-04-19T08:49:37Z</time></trkpt><trkpt lat="43.43535167724143" lon="10.521725472600297"><ele>77.85714285714286</ele><time>2026-04-19T08:49:40Z</time></trkpt><trkpt lat="43.43537839903257" lon="10.52180868701173"><ele>78.14285714285714</ele><time>2026-04-19T08:49:43Z</time></trkpt><trkpt lat="43.435417477199785" lon="10.5219053025903"><ele>78.42857142857143</ele><time>2026-04-19T08:49:48Z</time></trkpt><trkpt lat="43.43545689128903" lon="10.521992055186"><ele>78.71428571428572</ele><time>2026-04-19T08:49:52Z</time></trkpt><trkpt lat="43.43549881673976" lon="10.522070224990165"><ele>79.0</ele><time>2026-04-19T08:49:55Z</time></trkpt><trkpt lat="43.435545316681925" lon="10.522145356643957"><ele>79.33333333333333</ele><time>2026-04-19T08:49:59Z</time></trkpt><trkpt lat="43.43559954262325" lon="10.52222231632551"><ele>79.66666666666666</ele><time>2026-04-19T08:50:02Z</time></trkpt><trkpt lat="43.43564364501347" lon="10.522294004654283"><ele>80.0</ele><time>2026-04-19T08:50:08Z</time></trkpt><trkpt lat="43.43569263201705" lon="10.522375840093568"><ele>80.33333333333333</ele><time>2026-04-19T08:50:12Z</time></trkpt><trkpt lat="43.435763453512244" lon="10.522439151572598"><ele>80.66666666666667</ele><time>2026-04-19T08:50:15Z</time></trkpt><trkpt lat="43.43580776259511" lon="10.52252139512153"><ele>81.0</ele><time>2026-04-19T08:50:17Z</time></trkpt><trkpt lat="43.435867912766355" lon="10.522575899028178"><ele>81.0</ele><time>2026-04-19T08:50:20Z</time></trkpt><trkpt lat="43.43592514501084" lon="10.522683344147"><ele>81.0</ele><time>2026-04-19T08:50:23Z</time></trkpt><trkpt lat="43.4359813900978" lon="10.522765173166324"><ele>81.0</ele><time>2026-04-19T08:50:25Z</time></trkpt><trkpt lat="43.43603365058792" lon="10.522814851735319"><ele>81.0</ele><time>2026-04-19T08:50:26Z</time></trkpt><trkpt lat="43.43608031281277" lon="10.522903359762452"><ele>81.0</ele><time>2026-04-19T08:50:27Z</time></trkpt><trkpt lat="43.43611544280041" lon="10.523000772242158"><ele>81.0</ele><time>2026-04-19T08:50:28Z</time></trkpt><trkpt lat="43.43615074433035" lon="10.52309811187287"><ele>80.83333333333333</ele><time>2026-04-19T08:50:29Z</time></trkpt><trkpt lat="43.43619115468763" lon="10.523209195794824"><ele>80.66666666666667</ele><time>2026-04-19T08:50:30Z</time></trkpt><trkpt lat="43.436215073662744" lon="10.523322231848942"><ele>80.5</ele><time>2026-04-19T08:50:31Z</time></trkpt><trkpt lat="43.43623932977727" lon="10.523435426442619"><ele>80.33333333333334</ele><time>2026-04-19T08:50:32Z</time></trkpt><trkpt lat="43.436253767246285" lon="10.523528475302534"><ele>80.16666666666667</ele><time>2026-04-19T08:50:33Z</time></trkpt><trkpt lat="43.4362617354418" lon="10.52362201203824"><ele>80.0</ele><time>2026-04-19T08:50:34Z</time></trkpt><trkpt lat="43.436269724988385" lon="10.523720520366963"><ele>80.16666666666667</ele><time>2026-04-19T08:50:35Z</time></trkpt><trkpt lat="43.436285032365305" lon="10.523823579565764"><ele>80.33333333333334</ele><time>2026-04-19T08:50:36Z</time></trkpt><trkpt lat="43.436281342928474" lon="10.523932141750798"><ele>80.5</ele><time>2026-04-19T08:50:37Z</time></trkpt><trkpt lat="43.43628684793041" lon="10.524046015923943"><ele>80.66666666666667</ele><time>2026-04-19T08:50:38Z</time></trkpt><trkpt lat="43.436302141338395" lon="10.524160010452333"><ele>80.83333333333333</ele><time>2026-04-19T08:50:39Z</time></trkpt><trkpt lat="43.436303390423525" lon="10.524282236487311"><ele>81.0</ele><time>2026-04-19T08:50:40Z</time></trkpt><trkpt lat="43.436300591931406" lon="10.524413363446728"><ele>81.4</ele><time>2026-04-19T08:50:41Z</time></trkpt><trkpt lat="43.436299961285314" lon="10.524546738225192"><ele>81.8</ele><time>2026-04-19T08:50:42Z</time></trkpt><trkpt lat="43.436302693856554" lon="10.524682143247805"><ele>82.2</ele><time>2026-04-19T08:50:43Z</time></trkpt><trkpt lat="43.436307923433446" lon="10.524812882134544"><ele>82.60000000000001</ele><time>2026-04-19T08:50:43.999Z</time></trkpt><trkpt lat="43.436320048274304" lon="10.524947388802023"><ele>83.0</ele><time>2026-04-19T08:50:44.999Z</time></trkpt><trkpt lat="43.436332335567066" lon="10.52507514033218"><ele>83.80000000000001</ele><time>2026-04-19T08:50:45.999Z</time></trkpt><trkpt lat="43.436344053955544" lon="10.52521770023536"><ele>84.6</ele><time>2026-04-19T08:50:46.999Z</time></trkpt><trkpt lat="43.436366211987206" lon="10.525357346375866"><ele>85.4</ele><time>2026-04-19T08:50:47.999Z</time></trkpt><trkpt lat="43.43638223428905" lon="10.525504177280094"><ele>86.19999999999999</ele><time>2026-04-19T08:50:48.999Z</time></trkpt><trkpt lat="43.43640196292364" lon="10.525649736520062"><ele>87.0</ele><time>2026-04-19T08:50:49.999Z</time></trkpt><trkpt lat="43.43641914192933" lon="10.525789263094039"><ele>87.5</ele><time>2026-04-19T08:50:50.999Z</time></trkpt><trkpt lat="43.43643643554759" lon="10.525940474769564"><ele>88.0</ele><time>2026-04-19T08:50:51.999Z</time></trkpt><trkpt lat="43.43645433537965" lon="10.526090169998623"><ele>88.5</ele><time>2026-04-19T08:50:52.999Z</time></trkpt><trkpt lat="43.43647734424679" lon="10.526244507329396"><ele>89.0</ele><time>2026-04-19T08:50:53.999Z</time></trkpt><trkpt lat="43.43649528579047" lon="10.526400307523893"><ele>89.2</ele><time>2026-04-19T08:50:55Z</time></trkpt><trkpt lat="43.436505827721824" lon="10.526556480854055"><ele>89.4</ele><time>2026-04-19T08:50:56Z</time></trkpt><trkpt lat="43.43653326356186" lon="10.526690513624262"><ele>89.6</ele><time>2026-04-19T08:50:57Z</time></trkpt><trkpt lat="43.436546557773305" lon="10.526789887369457"><ele>89.8</ele><time>2026-04-19T08:50:58Z</time></trkpt><trkpt lat="43.4365614719675" lon="10.526922084258763"><ele>90.0</ele><time>2026-04-19T08:51:00Z</time></trkpt><trkpt lat="43.43658144842008" lon="10.527051616633944"><ele>90.33333333333333</ele><time>2026-04-19T08:51:02Z</time></trkpt><trkpt lat="43.43659884085208" lon="10.527134962453454"><ele>90.66666666666667</ele><time>2026-04-19T08:51:03Z</time></trkpt><trkpt lat="43.436617138871455" lon="10.527232229995477"><ele>91.0</ele><time>2026-04-19T08:51:04Z</time></trkpt><trkpt lat="43.4366336236593" lon="10.527348326230406"><ele>91.33333333333334</ele><time>2026-04-19T08:51:05Z</time></trkpt><trkpt lat="43.436652816974664" lon="10.527457866404664"><ele>91.66666666666667</ele><time>2026-04-19T08:51:06Z</time></trkpt><trkpt lat="43.43667350110857" lon="10.527570289094685"><ele>92.0</ele><time>2026-04-19T08:51:07Z</time></trkpt><trkpt lat="43.436697423348356" lon="10.527683814439605"><ele>92.0</ele><time>2026-04-19T08:51:08Z</time></trkpt><trkpt lat="43.43672849143393" lon="10.52778907719136"><ele>92.0</ele><time>2026-04-19T08:51:09Z</time></trkpt><trkpt lat="43.436754074508904" lon="10.52787933253673"><ele>92.0</ele><time>2026-04-19T08:51:10Z</time></trkpt><trkpt lat="43.43680992620652" lon="10.528036862059666"><ele>92.0</ele><time>2026-04-19T08:51:12Z</time></trkpt><trkpt lat="43.43684603935807" lon="10.528139973779572"><ele>92.0</ele><time>2026-04-19T08:51:14Z</time></trkpt><trkpt lat="43.436888374545525" lon="10.52825635218148"><ele>92.5</ele><time>2026-04-19T08:51:16Z</time></trkpt><trkpt lat="43.43692538677589" lon="10.528337324322868"><ele>93.0</ele><time>2026-04-19T08:51:17Z</time></trkpt><trkpt lat="43.436965101433074" lon="10.528436158666496"><ele>93.5</ele><time>2026-04-19T08:51:18Z</time></trkpt><trkpt lat="43.43702474608016" lon="10.52853230356595"><ele>94.0</ele><time>2026-04-19T08:51:19Z</time></trkpt><trkpt lat="43.43708353769909" lon="10.52863579331111"><ele>94.5</ele><time>2026-04-19T08:51:20Z</time></trkpt><trkpt lat="43.437150115352814" lon="10.528738808408542"><ele>95.0</ele><time>2026-04-19T08:51:21Z</time></trkpt><trkpt lat="43.43722414270113" lon="10.528841100828954"><ele>96.0</ele><time>2026-04-19T08:51:22Z</time></trkpt><trkpt lat="43.4372988087095" lon="10.528943502148161"><ele>97.0</ele><time>2026-04-19T08:51:23Z</time></trkpt><trkpt lat="43.43738071926227" lon="10.529037546299476"><ele>98.0</ele><time>2026-04-19T08:51:24Z</time></trkpt><trkpt lat="43.43747777934193" lon="10.529134774608826"><ele>99.0</ele><time>2026-04-19T08:51:25Z</time></trkpt><trkpt lat="43.43756215382863" lon="10.52924495193217"><ele>100.0</ele><time>2026-04-19T08:51:26Z</time></trkpt><trkpt lat="43.437643643601675" lon="10.529355202374045"><ele>100.0</ele><time>2026-04-19T08:51:27Z</time></trkpt><trkpt lat="43.43771934548328" lon="10.529470818943752"><ele>100.0</ele><time>2026-04-19T08:51:28Z</time></trkpt><trkpt lat="43.4377988264401" lon="10.52958891584535"><ele>100.0</ele><time>2026-04-19T08:51:29Z</time></trkpt><trkpt lat="43.43786942367165" lon="10.529716314437096"><ele>100.0</ele><time>2026-04-19T08:51:30Z</time></trkpt><trkpt lat="43.437942968778" lon="10.52983345263234"><ele>100.6</ele><time>2026-04-19T08:51:31Z</time></trkpt><trkpt lat="43.4380084112202" lon="10.529944691593052"><ele>101.2</ele><time>2026-04-19T08:51:32Z</time></trkpt><trkpt lat="43.43807968854763" lon="10.530053201968963"><ele>101.80000000000001</ele><time>2026-04-19T08:51:33Z</time></trkpt><trkpt lat="43.43814419768784" lon="10.53017476210875"><ele>102.4</ele><time>2026-04-19T08:51:34Z</time></trkpt><trkpt lat="43.43821481240884" lon="10.530288650924552"><ele>103.0</ele><time>2026-04-19T08:51:35Z</time></trkpt><trkpt lat="43.438280132551306" lon="10.53040417995024"><ele>103.0</ele><time>2026-04-19T08:51:36Z</time></trkpt><trkpt lat="43.43834707796738" lon="10.530504782507137"><ele>103.0</ele><time>2026-04-19T08:51:37Z</time></trkpt><trkpt lat="43.4383934362245" lon="10.530631577793656"><ele>103.0</ele><time>2026-04-19T08:51:38Z</time></trkpt><trkpt lat="43.43844173409061" lon="10.530766436328348"><ele>103.0</ele><time>2026-04-19T08:51:39Z</time></trkpt><trkpt lat="43.43846967432757" lon="10.530906883999373"><ele>103.0</ele><time>2026-04-19T08:51:40Z</time></trkpt><trkpt lat="43.43849810338578" lon="10.531052329329926"><ele>103.0</ele><time>2026-04-19T08:51:41Z</time></trkpt><trkpt lat="43.43852588381779" lon="10.531214464595083"><ele>103.0</ele><time>2026-04-19T08:51:42Z</time></trkpt><trkpt lat="43.43854305866707" lon="10.531359712083304"><ele>103.0</ele><time>2026-04-19T08:51:43Z</time></trkpt><trkpt lat="43.43856047072132" lon="10.531515546845634"><ele>103.0</ele><time>2026-04-19T08:51:44Z</time></trkpt><trkpt lat="43.4385853259411" lon="10.53165605249963"><ele>103.0</ele><time>2026-04-19T08:51:45Z</time></trkpt><trkpt lat="43.4386177938121" lon="10.531797900640077"><ele>103.75</ele><time>2026-04-19T08:51:46Z</time></trkpt><trkpt lat="43.43865016195582" lon="10.531944442922699"><ele>104.5</ele><time>2026-04-19T08:51:47Z</time></trkpt><trkpt lat="43.43869307215156" lon="10.53208071047578"><ele>105.25</ele><time>2026-04-19T08:51:48Z</time></trkpt><trkpt lat="43.4387250335854" lon="10.532242764371366"><ele>106.0</ele><time>2026-04-19T08:51:49Z</time></trkpt><trkpt lat="43.43876662295926" lon="10.532389315570693"><ele>106.25</ele><time>2026-04-19T08:51:50Z</time></trkpt><trkpt lat="43.438806871681095" lon="10.5325412538318"><ele>106.5</ele><time>2026-04-19T08:51:51Z</time></trkpt><trkpt lat="43.438844606452115" lon="10.532697640041116"><ele>106.75</ele><time>2026-04-19T08:51:52Z</time></trkpt><trkpt lat="43.438879701493484" lon="10.532860657943118"><ele>107.0</ele><time>2026-04-19T08:51:53Z</time></trkpt><trkpt lat="43.43890847701972" lon="10.533021135235092"><ele>107.0</ele><time>2026-04-19T08:51:54Z</time></trkpt><trkpt lat="43.43893352071993" lon="10.53318403377196"><ele>107.0</ele><time>2026-04-19T08:51:55Z</time></trkpt><trkpt lat="43.438957398729784" lon="10.533351593345369"><ele>107.0</ele><time>2026-04-19T08:51:56Z</time></trkpt><trkpt lat="43.43897913737607" lon="10.53352270210699"><ele>107.0</ele><time>2026-04-19T08:51:57Z</time></trkpt><trkpt lat="43.43899010047492" lon="10.533694658688942"><ele>106.5</ele><time>2026-04-19T08:51:58Z</time></trkpt><trkpt lat="43.43899832755217" lon="10.533869605214765"><ele>106.0</ele><time>2026-04-19T08:51:59Z</time></trkpt><trkpt lat="43.43900137875902" lon="10.534045095194562"><ele>105.5</ele><time>2026-04-19T08:52:00Z</time></trkpt><trkpt lat="43.439013804003736" lon="10.534222073580422"><ele>105.0</ele><time>2026-04-19T08:52:01Z</time></trkpt><trkpt lat="43.43901964596339" lon="10.534394734208847"><ele>105.5</ele><time>2026-04-19T08:52:02Z</time></trkpt><trkpt lat="43.43902855226444" lon="10.534571466317821"><ele>106.0</ele><time>2026-04-19T08:52:03Z</time></trkpt><trkpt lat="43.439034187762296" lon="10.53474317769502"><ele>106.5</ele><time>2026-04-19T08:52:04Z</time></trkpt><trkpt lat="43.4390476816742" lon="10.534926377784497"><ele>107.0</ele><time>2026-04-19T08:52:05Z</time></trkpt><trkpt lat="43.439061805039096" lon="10.535093249383362"><ele>107.0</ele><time>2026-04-19T08:52:06Z</time></trkpt><trkpt lat="43.43907585618283" lon="10.535262710514791"><ele>107.0</ele><time>2026-04-19T08:52:07Z</time></trkpt><trkpt lat="43.439085977320076" lon="10.535430302184366"><ele>107.0</ele><time>2026-04-19T08:52:08Z</time></trkpt><trkpt lat="43.4390960170466" lon="10.535594735595602"><ele>107.0</ele><time>2026-04-19T08:52:09Z</time></trkpt><trkpt lat="43.43910608212045" lon="10.535766373426439"><ele>107.25</ele><time>2026-04-19T08:52:10Z</time></trkpt><trkpt lat="43.43912315757064" lon="10.535925598163049"><ele>107.5</ele><time>2026-04-19T08:52:11Z</time></trkpt><trkpt lat="43.4391528320111" lon="10.536087077246338"><ele>107.75</ele><time>2026-04-19T08:52:12Z</time></trkpt><trkpt lat="43.43919592835355" lon="10.536240072610937"><ele>108.0</ele><time>2026-04-19T08:52:13Z</time></trkpt><trkpt lat="43.43923896436269" lon="10.536387667381145"><ele>108.0</ele><time>2026-04-19T08:52:14Z</time></trkpt><trkpt lat="43.43927876765171" lon="10.536535270378785"><ele>108.0</ele><time>2026-04-19T08:52:15Z</time></trkpt><trkpt lat="43.43930461628967" lon="10.536692900398695"><ele>108.0</ele><time>2026-04-19T08:52:16Z</time></trkpt><trkpt lat="43.43932286885887" lon="10.536851219288389"><ele>108.0</ele><time>2026-04-19T08:52:17Z</time></trkpt><trkpt lat="43.43934061430144" lon="10.537013900925041"><ele>108.5</ele><time>2026-04-19T08:52:18Z</time></trkpt><trkpt lat="43.43935161677366" lon="10.537171210913705"><ele>109.0</ele><time>2026-04-19T08:52:19Z</time></trkpt><trkpt lat="43.439358631607845" lon="10.537326621148067"><ele>109.5</ele><time>2026-04-19T08:52:20Z</time></trkpt><trkpt lat="43.43935396394308" lon="10.537480722873132"><ele>110.0</ele><time>2026-04-19T08:52:21Z</time></trkpt><trkpt lat="43.439345162070104" lon="10.537635737902972"><ele>110.0</ele><time>2026-04-19T08:52:22Z</time></trkpt><trkpt lat="43.43933713214084" lon="10.537777970835082"><ele>110.0</ele><time>2026-04-19T08:52:23Z</time></trkpt><trkpt lat="43.43934296406043" lon="10.537911653653639"><ele>110.0</ele><time>2026-04-19T08:52:24Z</time></trkpt><trkpt lat="43.439366626512445" lon="10.53804610688037"><ele>110.0</ele><time>2026-04-19T08:52:25Z</time></trkpt><trkpt lat="43.43940357383231" lon="10.538167560412065"><ele>110.0</ele><time>2026-04-19T08:52:26Z</time></trkpt><trkpt lat="43.439431547598694" lon="10.538262508109593"><ele>110.14285714285714</ele><time>2026-04-19T08:52:27Z</time></trkpt><trkpt lat="43.439465194582866" lon="10.538359090104233"><ele>110.28571428571428</ele><time>2026-04-19T08:52:28Z</time></trkpt><trkpt lat="43.439492505396665" lon="10.538458097284916"><ele>110.42857142857142</ele><time>2026-04-19T08:52:29Z</time></trkpt><trkpt lat="43.43952233372207" lon="10.538555012398804"><ele>110.57142857142857</ele><time>2026-04-19T08:52:30Z</time></trkpt><trkpt lat="43.439543194828545" lon="10.538658673530172"><ele>110.71428571428572</ele><time>2026-04-19T08:52:31Z</time></trkpt><trkpt lat="43.43957295539916" lon="10.53874874485369"><ele>110.85714285714285</ele><time>2026-04-19T08:52:32Z</time></trkpt><trkpt lat="43.43959883838462" lon="10.538831389798537"><ele>111.0</ele><time>2026-04-19T08:52:33Z</time></trkpt><trkpt lat="43.43963889066223" lon="10.538962793935914"><ele>110.33333333333333</ele><time>2026-04-19T08:52:35Z</time></trkpt><trkpt lat="43.43966303388094" lon="10.539049791263015"><ele>109.66666666666666</ele><time>2026-04-19T08:52:37Z</time></trkpt><trkpt lat="43.43969067269673" lon="10.539157447749686"><ele>109.0</ele><time>2026-04-19T08:53:01.999Z</time></trkpt><trkpt lat="43.439716195522664" lon="10.539263800363747"><ele>108.33333333333333</ele><time>2026-04-19T08:53:03.999Z</time></trkpt><trkpt lat="43.43975411472698" lon="10.5394012200606"><ele>107.66666666666666</ele><time>2026-04-19T08:53:06Z</time></trkpt><trkpt lat="43.43976494959056" lon="10.53948944683106"><ele>107.0</ele><time>2026-04-19T08:53:07Z</time></trkpt><trkpt lat="43.43977747918991" lon="10.539579412478245"><ele>107.00000000000001</ele><time>2026-04-19T08:53:08Z</time></trkpt><trkpt lat="43.43979001699552" lon="10.539670237189"><ele>107.0</ele><time>2026-04-19T08:53:09Z</time></trkpt><trkpt lat="43.43980397361232" lon="10.539760974874982"><ele>107.0</ele><time>2026-04-19T08:53:10Z</time></trkpt><trkpt lat="43.43981789079305" lon="10.539849465711328"><ele>107.0</ele><time>2026-04-19T08:53:11Z</time></trkpt><trkpt lat="43.43982898938843" lon="10.539940440423688"><ele>107.0</ele><time>2026-04-19T08:53:12Z</time></trkpt><trkpt lat="43.43984379155896" lon="10.540026309392102"><ele>107.00000000000001</ele><time>2026-04-19T08:53:13Z</time></trkpt><trkpt lat="43.43987294657232" lon="10.540170236182242"><ele>107.0</ele><time>2026-04-19T08:53:15Z</time></trkpt><trkpt lat="43.439884638013815" lon="10.540288238760242"><ele>107.19999999999999</ele><time>2026-04-19T08:53:17Z</time></trkpt><trkpt lat="43.43989195766759" lon="10.540402551374388"><ele>107.39999999999999</ele><time>2026-04-19T08:53:19Z</time></trkpt><trkpt lat="43.43990833027783" lon="10.540540589480978"><ele>107.60000000000001</ele><time>2026-04-19T08:53:22Z</time></trkpt><trkpt lat="43.439919381827664" lon="10.540655027623366"><ele>107.80000000000001</ele><time>2026-04-19T08:53:24Z</time></trkpt><trkpt lat="43.43993938283918" lon="10.540781826844878"><ele>108.0</ele><time>2026-04-19T08:53:26Z</time></trkpt><trkpt lat="43.43996355266622" lon="10.540916954025496"><ele>108.0</ele><time>2026-04-19T08:53:28Z</time></trkpt><trkpt lat="43.439983815424554" lon="10.54104636421307"><ele>108.0</ele><time>2026-04-19T08:53:30Z</time></trkpt><trkpt lat="43.4400018869273" lon="10.541131089972762"><ele>108.0</ele><time>2026-04-19T08:53:32Z</time></trkpt><trkpt lat="43.4400287412278" lon="10.541241528614377"><ele>108.0</ele><time>2026-04-19T08:53:35Z</time></trkpt><trkpt lat="43.44004165678814" lon="10.541341080571438"><ele>108.0</ele><time>2026-04-19T08:53:38Z</time></trkpt><trkpt lat="43.44004248426583" lon="10.541434318194344"><ele>108.0</ele><time>2026-04-19T08:53:41Z</time></trkpt><trkpt lat="43.44003791888994" lon="10.541541632450183"><ele>108.28571428571428</ele><time>2026-04-19T08:53:45Z</time></trkpt><trkpt lat="43.4400337128091" lon="10.54162904904982"><ele>108.57142857142857</ele><time>2026-04-19T08:53:49Z</time></trkpt><trkpt lat="43.44000331599765" lon="10.54171827649888"><ele>108.85714285714286</ele><time>2026-04-19T08:53:54Z</time></trkpt><trkpt lat="43.43996931787838" lon="10.541805265895876"><ele>109.14285714285714</ele><time>2026-04-19T08:53:59Z</time></trkpt><trkpt lat="43.43992318978294" lon="10.54187522592567"><ele>109.42857142857143</ele><time>2026-04-19T08:54:04Z</time></trkpt><trkpt lat="43.43986838667563" lon="10.541935097916475"><ele>109.71428571428571</ele><time>2026-04-19T08:54:08Z</time></trkpt><trkpt lat="43.43979504281393" lon="10.54200575041649"><ele>110.0</ele><time>2026-04-19T08:54:11Z</time></trkpt><trkpt lat="43.43973356410093" lon="10.542089595411253"><ele>110.2</ele><time>2026-04-19T08:54:13Z</time></trkpt><trkpt lat="43.43965711154574" lon="10.542162294804603"><ele>110.4</ele><time>2026-04-19T08:54:15Z</time></trkpt><trkpt lat="43.439576177337145" lon="10.542256201940198"><ele>110.6</ele><time>2026-04-19T08:54:17Z</time></trkpt><trkpt lat="43.43951737618883" lon="10.542359915417302"><ele>110.8</ele><time>2026-04-19T08:54:19Z</time></trkpt><trkpt lat="43.43948789143756" lon="10.542473186717212"><ele>111.0</ele><time>2026-04-19T08:54:21Z</time></trkpt><trkpt lat="43.43949138906182" lon="10.542587591112"><ele>111.0</ele><time>2026-04-19T08:54:23Z</time></trkpt><trkpt lat="43.43953143490845" lon="10.54269724427175"><ele>111.0</ele><time>2026-04-19T08:54:25Z</time></trkpt><trkpt lat="43.439592864624885" lon="10.542817414944414"><ele>111.0</ele><time>2026-04-19T08:54:27Z</time></trkpt><trkpt lat="43.43965712219602" lon="10.54294124342317"><ele>111.0</ele><time>2026-04-19T08:54:29Z</time></trkpt><trkpt lat="43.43973457282482" lon="10.5430705334347"><ele>111.0</ele><time>2026-04-19T08:54:31Z</time></trkpt><trkpt lat="43.43977454301009" lon="10.543138276655139"><ele>111.0</ele><time>2026-04-19T08:54:32Z</time></trkpt><trkpt lat="43.43981619358887" lon="10.543209133803161"><ele>111.0</ele><time>2026-04-19T08:54:33Z</time></trkpt><trkpt lat="43.439864793482506" lon="10.543269872775646"><ele>111.0</ele><time>2026-04-19T08:54:34Z</time></trkpt><trkpt lat="43.439904993905394" lon="10.543342123763198"><ele>111.0</ele><time>2026-04-19T08:54:35Z</time></trkpt><trkpt lat="43.4399533317863" lon="10.543417182838366"><ele>111.0</ele><time>2026-04-19T08:54:36Z</time></trkpt><trkpt lat="43.43999811653043" lon="10.543488273306984"><ele>111.0</ele><time>2026-04-19T08:54:37Z</time></trkpt><trkpt lat="43.440040746683685" lon="10.54356025285334"><ele>111.0</ele><time>2026-04-19T08:54:38Z</time></trkpt><trkpt lat="43.44008607769273" lon="10.543630792291074"><ele>111.0</ele><time>2026-04-19T08:54:39Z</time></trkpt><trkpt lat="43.440125340050876" lon="10.543705175847098"><ele>111.0</ele><time>2026-04-19T08:54:40Z</time></trkpt><trkpt lat="43.44016231069838" lon="10.543779799951356"><ele>111.0</ele><time>2026-04-19T08:54:41Z</time></trkpt><trkpt lat="43.440196503300434" lon="10.543854418890078"><ele>111.0</ele><time>2026-04-19T08:54:42Z</time></trkpt><trkpt lat="43.44022702945816" lon="10.543942711145602"><ele>111.0</ele><time>2026-04-19T08:54:43Z</time></trkpt><trkpt lat="43.440245998654966" lon="10.544033641869655"><ele>111.0</ele><time>2026-04-19T08:54:44Z</time></trkpt><trkpt lat="43.44026096127709" lon="10.544129233010251"><ele>111.0</ele><time>2026-04-19T08:54:45Z</time></trkpt><trkpt lat="43.44027163481943" lon="10.544226602768365"><ele>111.66666666666667</ele><time>2026-04-19T08:54:46.001Z</time></trkpt><trkpt lat="43.44024630775674" lon="10.544399676656765"><ele>112.33333333333334</ele><time>2026-04-19T08:54:48.001Z</time></trkpt><trkpt lat="43.44021485792457" lon="10.544485919719374"><ele>113.0</ele><time>2026-04-19T08:54:49.001Z</time></trkpt><trkpt lat="43.440170210430296" lon="10.544549007897187"><ele>113.66666666666667</ele><time>2026-04-19T08:54:50.001Z</time></trkpt><trkpt lat="43.44012263722154" lon="10.54462394625332"><ele>114.33333333333334</ele><time>2026-04-19T08:54:51.001Z</time></trkpt><trkpt lat="43.44006802775084" lon="10.544694507492979"><ele>115.0</ele><time>2026-04-19T08:54:52.001Z</time></trkpt><trkpt lat="43.44000381159812" lon="10.544760925285209"><ele>115.50000000000001</ele><time>2026-04-19T08:54:53.001Z</time></trkpt><trkpt lat="43.43993850354975" lon="10.544823052799055"><ele>116.0</ele><time>2026-04-19T08:54:54.001Z</time></trkpt><trkpt lat="43.439871802845694" lon="10.544883487637168"><ele>116.5</ele><time>2026-04-19T08:54:55.001Z</time></trkpt><trkpt lat="43.43979841897357" lon="10.544948451091686"><ele>117.0</ele><time>2026-04-19T08:54:55.999Z</time></trkpt><trkpt lat="43.43972857439064" lon="10.545031409516127"><ele>117.50000000000001</ele><time>2026-04-19T08:54:56.999Z</time></trkpt><trkpt lat="43.43964611563782" lon="10.545078172086175"><ele>118.0</ele><time>2026-04-19T08:54:57.999Z</time></trkpt><trkpt lat="43.43956726265122" lon="10.545143924041714"><ele>118.16666666666667</ele><time>2026-04-19T08:54:58.999Z</time></trkpt><trkpt lat="43.439489855163885" lon="10.545208470761999"><ele>118.33333333333334</ele><time>2026-04-19T08:54:59.999Z</time></trkpt><trkpt lat="43.439414732061664" lon="10.54527111262199"><ele>118.5</ele><time>2026-04-19T08:55:00.999Z</time></trkpt><trkpt lat="43.43934959400576" lon="10.545325189756385"><ele>118.66666666666666</ele><time>2026-04-19T08:55:01.999Z</time></trkpt><trkpt lat="43.43927541468831" lon="10.545385716853483"><ele>118.83333333333333</ele><time>2026-04-19T08:55:02.999Z</time></trkpt><trkpt lat="43.43920599190276" lon="10.545449388292992"><ele>119.0</ele><time>2026-04-19T08:55:03.999Z</time></trkpt><trkpt lat="43.43912378107136" lon="10.545484147150823"><ele>119.16666666666666</ele><time>2026-04-19T08:55:04.999Z</time></trkpt><trkpt lat="43.4390414697211" lon="10.545514558510773"><ele>119.33333333333333</ele><time>2026-04-19T08:55:05.999Z</time></trkpt><trkpt lat="43.43895743790113" lon="10.545536942049798"><ele>119.5</ele><time>2026-04-19T08:55:06.999Z</time></trkpt><trkpt lat="43.4388728615085" lon="10.545540916900647"><ele>119.66666666666666</ele><time>2026-04-19T08:55:07.999Z</time></trkpt><trkpt lat="43.43878267955666" lon="10.545549169943822"><ele>119.83333333333333</ele><time>2026-04-19T08:55:08.999Z</time></trkpt><trkpt lat="43.438686729250335" lon="10.545555131291785"><ele>120.0</ele><time>2026-04-19T08:55:09.999Z</time></trkpt><trkpt lat="43.438574227529244" lon="10.545574225410128"><ele>119.5</ele><time>2026-04-19T08:55:10.999Z</time></trkpt><trkpt lat="43.43846135184468" lon="10.545603407343926"><ele>119.0</ele><time>2026-04-19T08:55:11.999Z</time></trkpt><trkpt lat="43.43834796188919" lon="10.545643722941582"><ele>118.5</ele><time>2026-04-19T08:55:12.999Z</time></trkpt><trkpt lat="43.438237655767296" lon="10.5456785254989"><ele>118.0</ele><time>2026-04-19T08:55:13.999Z</time></trkpt><trkpt lat="43.4381286776132" lon="10.545710748814283"><ele>118.0</ele><time>2026-04-19T08:55:14.999Z</time></trkpt><trkpt lat="43.438032893337024" lon="10.545743171767601"><ele>118.00000000000001</ele><time>2026-04-19T08:55:16Z</time></trkpt><trkpt lat="43.43794395795245" lon="10.545785269009263"><ele>118.00000000000001</ele><time>2026-04-19T08:55:17Z</time></trkpt><trkpt lat="43.43785847592467" lon="10.545824542146322"><ele>118.0</ele><time>2026-04-19T08:55:18Z</time></trkpt><trkpt lat="43.43777456682128" lon="10.545853274192565"><ele>118.0</ele><time>2026-04-19T08:55:19Z</time></trkpt><trkpt lat="43.43768696197003" lon="10.545892125199341"><ele>117.71428571428571</ele><time>2026-04-19T08:55:20Z</time></trkpt><trkpt lat="43.43760679871874" lon="10.545926121447529"><ele>117.42857142857144</ele><time>2026-04-19T08:55:21Z</time></trkpt><trkpt lat="43.43752987639985" lon="10.545959928769179"><ele>117.14285714285715</ele><time>2026-04-19T08:55:22Z</time></trkpt><trkpt lat="43.437467757788795" lon="10.546005508022567"><ele>116.85714285714286</ele><time>2026-04-19T08:55:23Z</time></trkpt><trkpt lat="43.43742111960707" lon="10.546067383686765"><ele>116.57142857142858</ele><time>2026-04-19T08:55:24Z</time></trkpt><trkpt lat="43.43739157594076" lon="10.546144897226537"><ele>116.2857142857143</ele><time>2026-04-19T08:55:25Z</time></trkpt><trkpt lat="43.43738600172269" lon="10.546240233301656"><ele>116.00000000000001</ele><time>2026-04-19T08:55:26Z</time></trkpt><trkpt lat="43.437416231986454" lon="10.546351822865718"><ele>116.8</ele><time>2026-04-19T08:55:27Z</time></trkpt><trkpt lat="43.437456339661956" lon="10.546442344781411"><ele>117.6</ele><time>2026-04-19T08:55:28Z</time></trkpt><trkpt lat="43.437499818708815" lon="10.546578888301289"><ele>118.4</ele><time>2026-04-19T08:55:29Z</time></trkpt><trkpt lat="43.43756525226909" lon="10.546714420689876"><ele>119.2</ele><time>2026-04-19T08:55:30Z</time></trkpt><trkpt lat="43.43763596064509" lon="10.546852419488724"><ele>120.0</ele><time>2026-04-19T08:55:31Z</time></trkpt><trkpt lat="43.437695140489666" lon="10.54699091336962"><ele>121.0</ele><time>2026-04-19T08:55:32Z</time></trkpt><trkpt lat="43.437759980732075" lon="10.547141441394233"><ele>122.0</ele><time>2026-04-19T08:55:33Z</time></trkpt><trkpt lat="43.43783397342041" lon="10.547292192823424"><ele>123.0</ele><time>2026-04-19T08:55:34Z</time></trkpt><trkpt lat="43.437892294778074" lon="10.547454649697668"><ele>124.0</ele><time>2026-04-19T08:55:35Z</time></trkpt><trkpt lat="43.43796046703293" lon="10.54759690168119"><ele>123.75</ele><time>2026-04-19T08:55:36Z</time></trkpt><trkpt lat="43.43801498428286" lon="10.547755597233804"><ele>123.5</ele><time>2026-04-19T08:55:37Z</time></trkpt><trkpt lat="43.43808025972988" lon="10.54790586575033"><ele>123.25</ele><time>2026-04-19T08:55:38Z</time></trkpt><trkpt lat="43.438149433309704" lon="10.54806309058493"><ele>123.0</ele><time>2026-04-19T08:55:39Z</time></trkpt><trkpt lat="43.43821082116646" lon="10.548212881890832"><ele>123.4</ele><time>2026-04-19T08:55:40Z</time></trkpt><trkpt lat="43.43826788710337" lon="10.548364980721846"><ele>123.80000000000001</ele><time>2026-04-19T08:55:41Z</time></trkpt><trkpt lat="43.43831166385829" lon="10.54850537807047"><ele>124.2</ele><time>2026-04-19T08:55:42Z</time></trkpt><trkpt lat="43.43836317392902" lon="10.548634387718595"><ele>124.6</ele><time>2026-04-19T08:55:43Z</time></trkpt><trkpt lat="43.438411020913996" lon="10.548759189335103"><ele>125.0</ele><time>2026-04-19T08:55:44Z</time></trkpt><trkpt lat="43.438463950726735" lon="10.548891408256232"><ele>125.8</ele><time>2026-04-19T08:55:45Z</time></trkpt><trkpt lat="43.438528037241745" lon="10.549015776816892"><ele>126.6</ele><time>2026-04-19T08:55:46Z</time></trkpt><trkpt lat="43.438585809040504" lon="10.549146516141024"><ele>127.4</ele><time>2026-04-19T08:55:47Z</time></trkpt><trkpt lat="43.43863364246845" lon="10.549273422061445"><ele>128.2</ele><time>2026-04-19T08:55:48Z</time></trkpt><trkpt lat="43.438673507252695" lon="10.549395745695172"><ele>129.0</ele><time>2026-04-19T08:55:49Z</time></trkpt><trkpt lat="43.43871851817273" lon="10.54950122967476"><ele>129.8</ele><time>2026-04-19T08:55:50Z</time></trkpt><trkpt lat="43.438762141023275" lon="10.549607436960338"><ele>130.60000000000002</ele><time>2026-04-19T08:55:51Z</time></trkpt><trkpt lat="43.438803703364904" lon="10.549721327499888"><ele>131.4</ele><time>2026-04-19T08:55:52Z</time></trkpt><trkpt lat="43.43885118743182" lon="10.549834831690218"><ele>132.20000000000002</ele><time>2026-04-19T08:55:53Z</time></trkpt><trkpt lat="43.43890994749884" lon="10.549939745835443"><ele>133.0</ele><time>2026-04-19T08:55:54Z</time></trkpt><trkpt lat="43.43894238585366" lon="10.550069280841102"><ele>133.0</ele><time>2026-04-19T08:55:55Z</time></trkpt><trkpt lat="43.43899341182031" lon="10.55018453827576"><ele>133.0</ele><time>2026-04-19T08:55:56Z</time></trkpt><trkpt lat="43.43905797030263" lon="10.55028351006162"><ele>133.0</ele><time>2026-04-19T08:55:57Z</time></trkpt><trkpt lat="43.43909913910809" lon="10.550385917370772"><ele>133.0</ele><time>2026-04-19T08:55:58Z</time></trkpt><trkpt lat="43.43913888044376" lon="10.550484033821377"><ele>133.0</ele><time>2026-04-19T08:55:59Z</time></trkpt><trkpt lat="43.43917008792394" lon="10.550583469818882"><ele>133.0</ele><time>2026-04-19T08:56:00Z</time></trkpt><trkpt lat="43.43920252680602" lon="10.550678469184708"><ele>133.66666666666669</ele><time>2026-04-19T08:56:01Z</time></trkpt><trkpt lat="43.439243421137895" lon="10.550774108013174"><ele>134.33333333333334</ele><time>2026-04-19T08:56:02Z</time></trkpt><trkpt lat="43.43928017424869" lon="10.550873652529313"><ele>135.0</ele><time>2026-04-19T08:56:03Z</time></trkpt><trkpt lat="43.43932125146429" lon="10.550975709184529"><ele>135.66666666666666</ele><time>2026-04-19T08:56:04Z</time></trkpt><trkpt lat="43.43935327415708" lon="10.551079827581718"><ele>136.33333333333331</ele><time>2026-04-19T08:56:05Z</time></trkpt><trkpt lat="43.43937977531603" lon="10.551188224539244"><ele>137.0</ele><time>2026-04-19T08:56:06Z</time></trkpt><trkpt lat="43.43940147652169" lon="10.55130481457762"><ele>137.2</ele><time>2026-04-19T08:56:07Z</time></trkpt><trkpt lat="43.439429641524455" lon="10.551416644427494"><ele>137.39999999999998</ele><time>2026-04-19T08:56:08Z</time></trkpt><trkpt lat="43.43946462740806" lon="10.551529614123433"><ele>137.60000000000002</ele><time>2026-04-19T08:56:09Z</time></trkpt><trkpt lat="43.439503639098994" lon="10.551637959926168"><ele>137.8</ele><time>2026-04-19T08:56:10Z</time></trkpt><trkpt lat="43.4395544021835" lon="10.551749016487756"><ele>138.0</ele><time>2026-04-19T08:56:11Z</time></trkpt><trkpt lat="43.439613616716905" lon="10.551853174381895"><ele>138.4</ele><time>2026-04-19T08:56:12Z</time></trkpt><trkpt lat="43.439688777063516" lon="10.551925290437945"><ele>138.8</ele><time>2026-04-19T08:56:13Z</time></trkpt><trkpt lat="43.43974181196862" lon="10.5520356200584"><ele>139.2</ele><time>2026-04-19T08:56:14Z</time></trkpt><trkpt lat="43.43979546176304" lon="10.552139957427395"><ele>139.6</ele><time>2026-04-19T08:56:15Z</time></trkpt><trkpt lat="43.43982123329749" lon="10.55226738026713"><ele>140.0</ele><time>2026-04-19T08:56:16Z</time></trkpt><trkpt lat="43.439858507333" lon="10.552380909571637"><ele>140.8</ele><time>2026-04-19T08:56:17Z</time></trkpt><trkpt lat="43.43989282896148" lon="10.552503314752157"><ele>141.6</ele><time>2026-04-19T08:56:18Z</time></trkpt><trkpt lat="43.43992453251427" lon="10.552618712658989"><ele>142.4</ele><time>2026-04-19T08:56:19Z</time></trkpt><trkpt lat="43.43995692570301" lon="10.552731668668116"><ele>143.2</ele><time>2026-04-19T08:56:20Z</time></trkpt><trkpt lat="43.439998895506704" lon="10.552844391382276"><ele>144.0</ele><time>2026-04-19T08:56:21Z</time></trkpt><trkpt lat="43.44004048158865" lon="10.552959929074385"><ele>144.4</ele><time>2026-04-19T08:56:22Z</time></trkpt><trkpt lat="43.440084590888894" lon="10.553076981674693"><ele>144.8</ele><time>2026-04-19T08:56:23Z</time></trkpt><trkpt lat="43.44012054281899" lon="10.55319994324392"><ele>145.2</ele><time>2026-04-19T08:56:24Z</time></trkpt><trkpt lat="43.440154369773104" lon="10.553318810454703"><ele>145.6</ele><time>2026-04-19T08:56:25Z</time></trkpt><trkpt lat="43.440188258242074" lon="10.553436497262792"><ele>146.0</ele><time>2026-04-19T08:56:26Z</time></trkpt><trkpt lat="43.44023056362355" lon="10.553547595498236"><ele>146.0</ele><time>2026-04-19T08:56:27Z</time></trkpt><trkpt lat="43.440271178416204" lon="10.553668968542853"><ele>146.0</ele><time>2026-04-19T08:56:28Z</time></trkpt><trkpt lat="43.44030592214887" lon="10.55379017183426"><ele>146.0</ele><time>2026-04-19T08:56:29Z</time></trkpt><trkpt lat="43.4403555334874" lon="10.553919821780598"><ele>146.0</ele><time>2026-04-19T08:56:30Z</time></trkpt><trkpt lat="43.44040789721419" lon="10.554047719520696"><ele>146.0</ele><time>2026-04-19T08:56:31Z</time></trkpt><trkpt lat="43.44045226091862" lon="10.554179187691522"><ele>146.4</ele><time>2026-04-19T08:56:32Z</time></trkpt><trkpt lat="43.4404933571799" lon="10.55432182819458"><ele>146.8</ele><time>2026-04-19T08:56:33Z</time></trkpt><trkpt lat="43.440520505488585" lon="10.554475205924039"><ele>147.20000000000002</ele><time>2026-04-19T08:56:34.001Z</time></trkpt><trkpt lat="43.44055063336507" lon="10.554578507773103"><ele>147.6</ele><time>2026-04-19T08:56:35.001Z</time></trkpt><trkpt lat="43.44057643514626" lon="10.554668203878784"><ele>148.0</ele><time>2026-04-19T08:56:36.001Z</time></trkpt><trkpt lat="43.44062832420573" lon="10.554796613341317"><ele>148.8</ele><time>2026-04-19T08:56:38.001Z</time></trkpt><trkpt lat="43.44064767508732" lon="10.554904538608943"><ele>149.60000000000002</ele><time>2026-04-19T08:56:40.001Z</time></trkpt><trkpt lat="43.440690734705775" lon="10.555031906358208"><ele>150.39999999999998</ele><time>2026-04-19T08:56:42.001Z</time></trkpt><trkpt lat="43.44075441099118" lon="10.555182694799134"><ele>151.2</ele><time>2026-04-19T08:56:44.001Z</time></trkpt><trkpt lat="43.440790799777304" lon="10.55526542167194"><ele>152.0</ele><time>2026-04-19T08:56:45.001Z</time></trkpt><trkpt lat="43.440824108559575" lon="10.555351997583863"><ele>152.33333333333331</ele><time>2026-04-19T08:56:46.001Z</time></trkpt><trkpt lat="43.44085189221554" lon="10.555438432346783"><ele>152.66666666666666</ele><time>2026-04-19T08:56:47.001Z</time></trkpt><trkpt lat="43.4408789809175" lon="10.55554130185455"><ele>153.0</ele><time>2026-04-19T08:56:48.001Z</time></trkpt><trkpt lat="43.440901280849275" lon="10.555640852614246"><ele>153.33333333333334</ele><time>2026-04-19T08:56:49.001Z</time></trkpt><trkpt lat="43.44093179702195" lon="10.555736103754793"><ele>153.66666666666669</ele><time>2026-04-19T08:56:50.001Z</time></trkpt><trkpt lat="43.440960146748964" lon="10.55583593823336"><ele>154.0</ele><time>2026-04-19T08:56:51.001Z</time></trkpt><trkpt lat="43.4409907688689" lon="10.555933399354098"><ele>154.0</ele><time>2026-04-19T08:56:52.001Z</time></trkpt><trkpt lat="43.4410222331467" lon="10.556033474209071"><ele>154.0</ele><time>2026-04-19T08:56:53.001Z</time></trkpt><trkpt lat="43.44104950654141" lon="10.556133593394913"><ele>154.0</ele><time>2026-04-19T08:56:54.001Z</time></trkpt><trkpt lat="43.44107832114941" lon="10.556235902563005"><ele>154.0</ele><time>2026-04-19T08:56:55.001Z</time></trkpt><trkpt lat="43.44110425781712" lon="10.556327144739484"><ele>154.0</ele><time>2026-04-19T08:56:56.001Z</time></trkpt><trkpt lat="43.441129444548444" lon="10.556412880964812"><ele>154.0</ele><time>2026-04-19T08:56:57.001Z</time></trkpt><trkpt lat="43.441181597062325" lon="10.556546633491765"><ele>154.0</ele><time>2026-04-19T08:56:59.001Z</time></trkpt><trkpt lat="43.4412185100487" lon="10.556679589116607"><ele>154.0</ele><time>2026-04-19T08:57:01.001Z</time></trkpt><trkpt lat="43.44125852703029" lon="10.556802277920283"><ele>154.0</ele><time>2026-04-19T08:57:03Z</time></trkpt><trkpt lat="43.441301580192054" lon="10.55696788523839"><ele>154.0</ele><time>2026-04-19T08:57:05Z</time></trkpt><trkpt lat="43.441312602557" lon="10.557064543425826"><ele>154.0</ele><time>2026-04-19T08:57:06Z</time></trkpt><trkpt lat="43.44133362623604" lon="10.557165071172326"><ele>154.66666666666669</ele><time>2026-04-19T08:57:07Z</time></trkpt><trkpt lat="43.44135433415443" lon="10.55726699618264"><ele>155.33333333333334</ele><time>2026-04-19T08:57:08Z</time></trkpt><trkpt lat="43.44137717496023" lon="10.55737282395747"><ele>156.0</ele><time>2026-04-19T08:57:09Z</time></trkpt><trkpt lat="43.44139776795103" lon="10.557486427480542"><ele>156.66666666666666</ele><time>2026-04-19T08:57:10Z</time></trkpt><trkpt lat="43.441422826645876" lon="10.557603420683146"><ele>157.33333333333331</ele><time>2026-04-19T08:57:11Z</time></trkpt><trkpt lat="43.44143738711362" lon="10.557723078364178"><ele>158.0</ele><time>2026-04-19T08:57:12Z</time></trkpt><trkpt lat="43.44145612578197" lon="10.557844437676055"><ele>158.2857142857143</ele><time>2026-04-19T08:57:13Z</time></trkpt><trkpt lat="43.44147317462797" lon="10.557953623634786"><ele>158.57142857142858</ele><time>2026-04-19T08:57:14Z</time></trkpt><trkpt lat="43.441490821719974" lon="10.558060122995599"><ele>158.85714285714286</ele><time>2026-04-19T08:57:15Z</time></trkpt><trkpt lat="43.44150964523089" lon="10.558151823480026"><ele>159.14285714285717</ele><time>2026-04-19T08:57:16Z</time></trkpt><trkpt lat="43.441526738516515" lon="10.558247021013049"><ele>159.42857142857144</ele><time>2026-04-19T08:57:17Z</time></trkpt><trkpt lat="43.44153687335158" lon="10.55834915572789"><ele>159.71428571428572</ele><time>2026-04-19T08:57:18Z</time></trkpt><trkpt lat="43.44155155787456" lon="10.55844014229846"><ele>160.0</ele><time>2026-04-19T08:57:19Z</time></trkpt><trkpt lat="43.44157170884635" lon="10.558533776530668"><ele>160.0</ele><time>2026-04-19T08:57:20Z</time></trkpt><trkpt lat="43.4415848708781" lon="10.558621609288785"><ele>160.0</ele><time>2026-04-19T08:57:21Z</time></trkpt><trkpt lat="43.441593193915715" lon="10.55873314485622"><ele>160.0</ele><time>2026-04-19T08:57:23Z</time></trkpt><trkpt lat="43.44161238407833" lon="10.558879381055833"><ele>160.0</ele><time>2026-04-19T08:57:25Z</time></trkpt><trkpt lat="43.44162077984984" lon="10.558971073254938"><ele>160.0</ele><time>2026-04-19T08:57:26Z</time></trkpt><trkpt lat="43.44163679689085" lon="10.559071288427802"><ele>160.0</ele><time>2026-04-19T08:57:27Z</time></trkpt><trkpt lat="43.44164718104677" lon="10.559173542557192"><ele>160.16666666666669</ele><time>2026-04-19T08:57:28Z</time></trkpt><trkpt lat="43.44165438250776" lon="10.559281066630893"><ele>160.33333333333334</ele><time>2026-04-19T08:57:29Z</time></trkpt><trkpt lat="43.44166239736404" lon="10.559385754717555"><ele>160.5</ele><time>2026-04-19T08:57:30Z</time></trkpt><trkpt lat="43.44167839460533" lon="10.559489978269218"><ele>160.66666666666666</ele><time>2026-04-19T08:57:31Z</time></trkpt><trkpt lat="43.44169208906391" lon="10.559594032061382"><ele>160.83333333333331</ele><time>2026-04-19T08:57:32Z</time></trkpt><trkpt lat="43.44171796307157" lon="10.559706218999716"><ele>161.0</ele><time>2026-04-19T08:57:33Z</time></trkpt><trkpt lat="43.44174337614977" lon="10.559809060879834"><ele>161.0</ele><time>2026-04-19T08:57:34Z</time></trkpt><trkpt lat="43.44176044681147" lon="10.559909841891315"><ele>161.0</ele><time>2026-04-19T08:57:35Z</time></trkpt><trkpt lat="43.44179086543169" lon="10.560006836327982"><ele>161.0</ele><time>2026-04-19T08:57:36Z</time></trkpt><trkpt lat="43.441821666534345" lon="10.560110874884083"><ele>161.0</ele><time>2026-04-19T08:57:37Z</time></trkpt><trkpt lat="43.441852997344334" lon="10.560218380543455"><ele>161.0</ele><time>2026-04-19T08:57:38Z</time></trkpt><trkpt lat="43.44189798795597" lon="10.560334627137104"><ele>161.0</ele><time>2026-04-19T08:57:39Z</time></trkpt><trkpt lat="43.44193067322444" lon="10.560442008148923"><ele>161.0</ele><time>2026-04-19T08:57:40Z</time></trkpt><trkpt lat="43.441983503701465" lon="10.560545130584407"><ele>161.0</ele><time>2026-04-19T08:57:41Z</time></trkpt><trkpt lat="43.44202555992315" lon="10.560660245977777"><ele>161.0</ele><time>2026-04-19T08:57:42Z</time></trkpt><trkpt lat="43.44207692506724" lon="10.560770384099259"><ele>161.0</ele><time>2026-04-19T08:57:43Z</time></trkpt><trkpt lat="43.442127563057994" lon="10.560883454473005"><ele>161.0</ele><time>2026-04-19T08:57:44Z</time></trkpt><trkpt lat="43.44218716188841" lon="10.560997894835548"><ele>161.0</ele><time>2026-04-19T08:57:45Z</time></trkpt><trkpt lat="43.44224943626519" lon="10.561128120154663"><ele>161.0</ele><time>2026-04-19T08:57:46Z</time></trkpt><trkpt lat="43.442318370684156" lon="10.561243141968681"><ele>161.0</ele><time>2026-04-19T08:57:47Z</time></trkpt><trkpt lat="43.44238853338031" lon="10.561355672698328"><ele>161.0</ele><time>2026-04-19T08:57:48Z</time></trkpt><trkpt lat="43.44247093949384" lon="10.561462525621565"><ele>161.0</ele><time>2026-04-19T08:57:49Z</time></trkpt><trkpt lat="43.44255510487345" lon="10.561570368113484"><ele>160.5</ele><time>2026-04-19T08:57:50Z</time></trkpt><trkpt lat="43.44264071114577" lon="10.561682792367145"><ele>160.0</ele><time>2026-04-19T08:57:51Z</time></trkpt><trkpt lat="43.44271857421988" lon="10.561802947634412"><ele>159.5</ele><time>2026-04-19T08:57:52Z</time></trkpt><trkpt lat="43.4428107964602" lon="10.561920733695835"><ele>159.0</ele><time>2026-04-19T08:57:53Z</time></trkpt><trkpt lat="43.44290511738957" lon="10.562038765757187"><ele>159.4</ele><time>2026-04-19T08:57:54Z</time></trkpt><trkpt lat="43.44297983840879" lon="10.562151796692598"><ele>159.8</ele><time>2026-04-19T08:57:55Z</time></trkpt><trkpt lat="43.443069631233435" lon="10.562253427852855"><ele>160.20000000000002</ele><time>2026-04-19T08:57:56Z</time></trkpt><trkpt lat="43.4431445939759" lon="10.562357032250368"><ele>160.60000000000002</ele><time>2026-04-19T08:57:57Z</time></trkpt><trkpt lat="43.44322749381211" lon="10.562467852824382"><ele>161.0</ele><time>2026-04-19T08:57:58Z</time></trkpt><trkpt lat="43.443308940179364" lon="10.562582039173805"><ele>161.0</ele><time>2026-04-19T08:57:59Z</time></trkpt><trkpt lat="43.44339187135106" lon="10.562703036715838"><ele>161.0</ele><time>2026-04-19T08:58:00Z</time></trkpt><trkpt lat="43.44346860218644" lon="10.562830045723658"><ele>161.0</ele><time>2026-04-19T08:58:01Z</time></trkpt><trkpt lat="43.44353117758173" lon="10.562962151989424"><ele>161.0</ele><time>2026-04-19T08:58:02Z</time></trkpt><trkpt lat="43.443592317212676" lon="10.563087948032676"><ele>161.25</ele><time>2026-04-19T08:58:03Z</time></trkpt><trkpt lat="43.443647684022864" lon="10.563217739311215"><ele>161.5</ele><time>2026-04-19T08:58:04Z</time></trkpt><trkpt lat="43.44369611792175" lon="10.563355691772559"><ele>161.75</ele><time>2026-04-19T08:58:05Z</time></trkpt><trkpt lat="43.44373559902721" lon="10.563499531490885"><ele>162.0</ele><time>2026-04-19T08:58:06Z</time></trkpt><trkpt lat="43.44379193869949" lon="10.563654569882171"><ele>164.25</ele><time>2026-04-19T08:58:07Z</time></trkpt><trkpt lat="43.443831364402925" lon="10.563807844617013"><ele>166.5</ele><time>2026-04-19T08:58:08Z</time></trkpt><trkpt lat="43.44388884982896" lon="10.563950402222025"><ele>168.75</ele><time>2026-04-19T08:58:09Z</time></trkpt><trkpt lat="43.443948116275706" lon="10.564087815177427"><ele>171.0</ele><time>2026-04-19T08:58:10Z</time></trkpt><trkpt lat="43.44401028146767" lon="10.564220819048508"><ele>171.0</ele><time>2026-04-19T08:58:11Z</time></trkpt><trkpt lat="43.44406340244062" lon="10.564365606661255"><ele>171.0</ele><time>2026-04-19T08:58:12Z</time></trkpt><trkpt lat="43.444104091506745" lon="10.564512083573842"><ele>171.0</ele><time>2026-04-19T08:58:13Z</time></trkpt><trkpt lat="43.44413555671427" lon="10.564656393026993"><ele>171.0</ele><time>2026-04-19T08:58:14Z</time></trkpt><trkpt lat="43.44417979471551" lon="10.564799620045607"><ele>171.5</ele><time>2026-04-19T08:58:15.001Z</time></trkpt><trkpt lat="43.44421946201637" lon="10.564958013947052"><ele>172.0</ele><time>2026-04-19T08:58:16.001Z</time></trkpt><trkpt lat="43.444260800752396" lon="10.565121662372533"><ele>172.5</ele><time>2026-04-19T08:58:17.001Z</time></trkpt><trkpt lat="43.444306565840655" lon="10.565286567357319"><ele>173.0</ele><time>2026-04-19T08:58:18.001Z</time></trkpt><trkpt lat="43.44434821977269" lon="10.565457542643632"><ele>173.0</ele><time>2026-04-19T08:58:19.001Z</time></trkpt><trkpt lat="43.44439320111437" lon="10.565631228356942"><ele>173.0</ele><time>2026-04-19T08:58:20.001Z</time></trkpt><trkpt lat="43.44443410773333" lon="10.565804876378158"><ele>173.0</ele><time>2026-04-19T08:58:21.001Z</time></trkpt><trkpt lat="43.44447444730339" lon="10.56598253173244"><ele>173.0</ele><time>2026-04-19T08:58:22.001Z</time></trkpt><trkpt lat="43.44452339375058" lon="10.566154255387444"><ele>173.75</ele><time>2026-04-19T08:58:23.001Z</time></trkpt><trkpt lat="43.44455892146613" lon="10.566334613636531"><ele>174.5</ele><time>2026-04-19T08:58:24.001Z</time></trkpt><trkpt lat="43.444603284674216" lon="10.566499837014092"><ele>175.25</ele><time>2026-04-19T08:58:25.001Z</time></trkpt><trkpt lat="43.44465392813954" lon="10.566659080076711"><ele>176.0</ele><time>2026-04-19T08:58:26.001Z</time></trkpt><trkpt lat="43.444710142915405" lon="10.5668128059169"><ele>178.75</ele><time>2026-04-19T08:58:27.001Z</time></trkpt><trkpt lat="43.44477973319355" lon="10.566957814729339"><ele>181.5</ele><time>2026-04-19T08:58:28.001Z</time></trkpt><trkpt lat="43.44484416208712" lon="10.567083944546377"><ele>184.25</ele><time>2026-04-19T08:58:29.001Z</time></trkpt><trkpt lat="43.444909774774445" lon="10.5672034195955"><ele>187.0</ele><time>2026-04-19T08:58:30.001Z</time></trkpt><trkpt lat="43.4449786857603" lon="10.56732438986467"><ele>187.0</ele><time>2026-04-19T08:58:31.001Z</time></trkpt><trkpt lat="43.44503867476986" lon="10.567441714717452"><ele>187.0</ele><time>2026-04-19T08:58:32.001Z</time></trkpt><trkpt lat="43.44509110988012" lon="10.567555667394345"><ele>187.0</ele><time>2026-04-19T08:58:33.001Z</time></trkpt><trkpt lat="43.44513662390581" lon="10.567658240644677"><ele>187.0</ele><time>2026-04-19T08:58:34.001Z</time></trkpt><trkpt lat="43.44517499108673" lon="10.567740506515241"><ele>187.0</ele><time>2026-04-19T08:58:35.001Z</time></trkpt><trkpt lat="43.445207707062565" lon="10.567816255431852"><ele>187.0</ele><time>2026-04-19T08:58:36.001Z</time></trkpt><trkpt lat="43.445258844068185" lon="10.567934761169203"><ele>186.66666666666669</ele><time>2026-04-19T08:58:38.001Z</time></trkpt><trkpt lat="43.44530276638832" lon="10.568008818406543"><ele>186.33333333333334</ele><time>2026-04-19T08:58:41.001Z</time></trkpt><trkpt lat="43.44537179208577" lon="10.567978232575745"><ele>186.0</ele><time>2026-04-19T08:58:44.001Z</time></trkpt><trkpt lat="43.445426708201474" lon="10.567883883927223"><ele>185.66666666666666</ele><time>2026-04-19T08:58:47.001Z</time></trkpt><trkpt lat="43.445487383127656" lon="10.56780517149322"><ele>185.33333333333331</ele><time>2026-04-19T08:58:50.001Z</time></trkpt><trkpt lat="43.44553096630478" lon="10.567734064143702"><ele>185.0</ele><time>2026-04-19T08:58:54.001Z</time></trkpt><trkpt lat="43.4456042729188" lon="10.567684289991767"><ele>185.66666666666666</ele><time>2026-04-19T08:58:59.001Z</time></trkpt><trkpt lat="43.44566000655167" lon="10.567618469250949"><ele>186.33333333333331</ele><time>2026-04-19T08:59:01.001Z</time></trkpt><trkpt lat="43.4457369176043" lon="10.56757874692151"><ele>187.0</ele><time>2026-04-19T08:59:03.001Z</time></trkpt><trkpt lat="43.445818126591575" lon="10.567557323247135"><ele>187.66666666666666</ele><time>2026-04-19T08:59:05.001Z</time></trkpt><trkpt lat="43.44594652791243" lon="10.567554726662957"><ele>188.33333333333334</ele><time>2026-04-19T08:59:07.001Z</time></trkpt><trkpt lat="43.4460204723008" lon="10.567570679827176"><ele>189.0</ele><time>2026-04-19T08:59:08Z</time></trkpt><trkpt lat="43.446102222863466" lon="10.567593079267889"><ele>189.0</ele><time>2026-04-19T08:59:09Z</time></trkpt><trkpt lat="43.44618552669888" lon="10.567627500951499"><ele>189.0</ele><time>2026-04-19T08:59:10Z</time></trkpt><trkpt lat="43.446268484289085" lon="10.567675079388753"><ele>189.0</ele><time>2026-04-19T08:59:11Z</time></trkpt><trkpt lat="43.44635036839862" lon="10.567735945571595"><ele>189.0</ele><time>2026-04-19T08:59:12Z</time></trkpt><trkpt lat="43.44643087404792" lon="10.567812070711375"><ele>189.0</ele><time>2026-04-19T08:59:13Z</time></trkpt><trkpt lat="43.44650236691618" lon="10.567902120174962"><ele>190.79999999999998</ele><time>2026-04-19T08:59:14Z</time></trkpt><trkpt lat="43.44657439123248" lon="10.56799739433242"><ele>192.6</ele><time>2026-04-19T08:59:15Z</time></trkpt><trkpt lat="43.44665042315546" lon="10.568086369144238"><ele>194.4</ele><time>2026-04-19T08:59:16Z</time></trkpt><trkpt lat="43.44672880105528" lon="10.568170329127136"><ele>196.2</ele><time>2026-04-19T08:59:17Z</time></trkpt><trkpt lat="43.446810424804156" lon="10.568240865903984"><ele>198.0</ele><time>2026-04-19T08:59:18Z</time></trkpt><trkpt lat="43.44689316788817" lon="10.568288744061483"><ele>198.0</ele><time>2026-04-19T08:59:19Z</time></trkpt><trkpt lat="43.44698101306636" lon="10.568320509567272"><ele>198.0</ele><time>2026-04-19T08:59:20Z</time></trkpt><trkpt lat="43.447059917144855" lon="10.568308955347335"><ele>198.0</ele><time>2026-04-19T08:59:21Z</time></trkpt><trkpt lat="43.44713022575496" lon="10.568250754768314"><ele>198.0</ele><time>2026-04-19T08:59:22Z</time></trkpt><trkpt lat="43.447193367796395" lon="10.568184512035623"><ele>198.0</ele><time>2026-04-19T08:59:23Z</time></trkpt><trkpt lat="43.44724286026036" lon="10.5680981228325"><ele>198.0</ele><time>2026-04-19T08:59:24Z</time></trkpt><trkpt lat="43.44728631232909" lon="10.568009635224213"><ele>196.83333333333334</ele><time>2026-04-19T08:59:25Z</time></trkpt><trkpt lat="43.44729793713675" lon="10.56791138109858"><ele>195.66666666666666</ele><time>2026-04-19T08:59:26Z</time></trkpt><trkpt lat="43.44726824929178" lon="10.56780549481317"><ele>194.5</ele><time>2026-04-19T08:59:27Z</time></trkpt><trkpt lat="43.447213295056045" lon="10.567700935952255"><ele>193.33333333333331</ele><time>2026-04-19T08:59:28Z</time></trkpt><trkpt lat="43.44715714241749" lon="10.567578004876754"><ele>192.16666666666666</ele><time>2026-04-19T08:59:29Z</time></trkpt><trkpt lat="43.44710585104146" lon="10.567474020698565"><ele>191.0</ele><time>2026-04-19T08:59:30Z</time></trkpt><trkpt lat="43.44706625010446" lon="10.567365094805895"><ele>191.60000000000002</ele><time>2026-04-19T08:59:31Z</time></trkpt><trkpt lat="43.44703709892915" lon="10.5672268112565"><ele>192.2</ele><time>2026-04-19T08:59:32Z</time></trkpt><trkpt lat="43.44702013081714" lon="10.567085875926674"><ele>192.8</ele><time>2026-04-19T08:59:33Z</time></trkpt><trkpt lat="43.4470411766828" lon="10.566922806817713"><ele>193.39999999999998</ele><time>2026-04-19T08:59:34Z</time></trkpt><trkpt lat="43.44706682471859" lon="10.566765881913254"><ele>194.0</ele><time>2026-04-19T08:59:35Z</time></trkpt><trkpt lat="43.447133455608345" lon="10.566628809629066"><ele>194.0</ele><time>2026-04-19T08:59:36Z</time></trkpt><trkpt lat="43.44721270184069" lon="10.566525904370447"><ele>194.0</ele><time>2026-04-19T08:59:37Z</time></trkpt><trkpt lat="43.447292618299436" lon="10.566454137641738"><ele>194.0</ele><time>2026-04-19T08:59:38Z</time></trkpt><trkpt lat="43.44737784606111" lon="10.566343529900948"><ele>194.0</ele><time>2026-04-19T08:59:39Z</time></trkpt><trkpt lat="43.447468977597055" lon="10.56621513920208"><ele>192.25</ele><time>2026-04-19T08:59:40Z</time></trkpt><trkpt lat="43.44755060980374" lon="10.566102889818648"><ele>190.5</ele><time>2026-04-19T08:59:41Z</time></trkpt><trkpt lat="43.44761400852014" lon="10.565991405283562"><ele>188.75</ele><time>2026-04-19T08:59:42Z</time></trkpt><trkpt lat="43.44766026823382" lon="10.565845354499835"><ele>187.0</ele><time>2026-04-19T08:59:43Z</time></trkpt><trkpt lat="43.447674695130715" lon="10.565682827564446"><ele>187.0</ele><time>2026-04-19T08:59:44Z</time></trkpt><trkpt lat="43.44768305825367" lon="10.565520214591315"><ele>187.0</ele><time>2026-04-19T08:59:45Z</time></trkpt><trkpt lat="43.44769932187471" lon="10.565367401834635"><ele>187.0</ele><time>2026-04-19T08:59:46Z</time></trkpt><trkpt lat="43.44773511023148" lon="10.565216964824995"><ele>187.0</ele><time>2026-04-19T08:59:47Z</time></trkpt><trkpt lat="43.44779278067775" lon="10.565075768330203"><ele>187.6</ele><time>2026-04-19T08:59:48Z</time></trkpt><trkpt lat="43.447856907837526" lon="10.564946579198937"><ele>188.2</ele><time>2026-04-19T08:59:49Z</time></trkpt><trkpt lat="43.447929884394284" lon="10.564839985031552"><ele>188.8</ele><time>2026-04-19T08:59:50Z</time></trkpt><trkpt lat="43.44802151965276" lon="10.564772469888245"><ele>189.4</ele><time>2026-04-19T08:59:51Z</time></trkpt><trkpt lat="43.44811865684706" lon="10.5647605190055"><ele>190.0</ele><time>2026-04-19T08:59:52Z</time></trkpt><trkpt lat="43.44820762435359" lon="10.564810831662415"><ele>190.0</ele><time>2026-04-19T08:59:53Z</time></trkpt><trkpt lat="43.44826545614273" lon="10.564932551699435"><ele>190.0</ele><time>2026-04-19T08:59:54Z</time></trkpt><trkpt lat="43.44833261520498" lon="10.56503305784622"><ele>190.0</ele><time>2026-04-19T08:59:55Z</time></trkpt><trkpt lat="43.448386241399255" lon="10.565153476705529"><ele>190.0</ele><time>2026-04-19T08:59:56Z</time></trkpt><trkpt lat="43.44844561462939" lon="10.565278218467823"><ele>190.0</ele><time>2026-04-19T08:59:57Z</time></trkpt><trkpt lat="43.44851066817687" lon="10.565401986718326"><ele>191.6</ele><time>2026-04-19T08:59:58Z</time></trkpt><trkpt lat="43.448580803243075" lon="10.565522430967096"><ele>193.2</ele><time>2026-04-19T08:59:59Z</time></trkpt><trkpt lat="43.4486525430636" lon="10.565625518953805"><ele>194.8</ele><time>2026-04-19T09:00:00Z</time></trkpt><trkpt lat="43.44874841035811" lon="10.565688194197937"><ele>196.4</ele><time>2026-04-19T09:00:01Z</time></trkpt><trkpt lat="43.44883568924501" lon="10.565736670906047"><ele>198.0</ele><time>2026-04-19T09:00:02Z</time></trkpt><trkpt lat="43.448931308332696" lon="10.565742926742173"><ele>198.5</ele><time>2026-04-19T09:00:03Z</time></trkpt><trkpt lat="43.44902904346761" lon="10.565719244704498"><ele>199.0</ele><time>2026-04-19T09:00:04Z</time></trkpt><trkpt lat="43.449139650194695" lon="10.565684961538215"><ele>199.5</ele><time>2026-04-19T09:00:05Z</time></trkpt><trkpt lat="43.44923571426554" lon="10.565599378462922"><ele>200.0</ele><time>2026-04-19T09:00:06Z</time></trkpt><trkpt lat="43.4493310869246" lon="10.56549229247876"><ele>200.0</ele><time>2026-04-19T09:00:07Z</time></trkpt><trkpt lat="43.44943551830823" lon="10.56540290919094"><ele>200.0</ele><time>2026-04-19T09:00:08Z</time></trkpt><trkpt lat="43.44955582755476" lon="10.56532778067583"><ele>200.0</ele><time>2026-04-19T09:00:09Z</time></trkpt><trkpt lat="43.44968059140613" lon="10.56527423916903"><ele>200.0</ele><time>2026-04-19T09:00:10Z</time></trkpt><trkpt lat="43.44981441150113" lon="10.565215807022687"><ele>197.25</ele><time>2026-04-19T09:00:11.001Z</time></trkpt><trkpt lat="43.449946172322086" lon="10.565164591747136"><ele>194.5</ele><time>2026-04-19T09:00:12.001Z</time></trkpt><trkpt lat="43.45008211974671" lon="10.56511186766415"><ele>191.75</ele><time>2026-04-19T09:00:13.001Z</time></trkpt><trkpt lat="43.45021082813465" lon="10.565052941134848"><ele>189.0</ele><time>2026-04-19T09:00:14.001Z</time></trkpt><trkpt lat="43.45033419954557" lon="10.564978705305563"><ele>189.0</ele><time>2026-04-19T09:00:15.001Z</time></trkpt><trkpt lat="43.45044886317627" lon="10.564882194245644"><ele>189.0</ele><time>2026-04-19T09:00:16.001Z</time></trkpt><trkpt lat="43.450564902113385" lon="10.564769951876206"><ele>189.0</ele><time>2026-04-19T09:00:17.001Z</time></trkpt><trkpt lat="43.4506752763419" lon="10.564638944228484"><ele>189.0</ele><time>2026-04-19T09:00:18.001Z</time></trkpt><trkpt lat="43.450784857995096" lon="10.564502316505061"><ele>188.5</ele><time>2026-04-19T09:00:19.001Z</time></trkpt><trkpt lat="43.450902257790005" lon="10.564384228398835"><ele>188.0</ele><time>2026-04-19T09:00:20.001Z</time></trkpt><trkpt lat="43.45102316336054" lon="10.564264288505322"><ele>187.5</ele><time>2026-04-19T09:00:21.001Z</time></trkpt><trkpt lat="43.45113556817672" lon="10.564144390238438"><ele>187.0</ele><time>2026-04-19T09:00:22.001Z</time></trkpt><trkpt lat="43.45124478847136" lon="10.564024551096805"><ele>187.8</ele><time>2026-04-19T09:00:23.001Z</time></trkpt><trkpt lat="43.45134470410614" lon="10.56391756852913"><ele>188.6</ele><time>2026-04-19T09:00:24.001Z</time></trkpt><trkpt lat="43.45144138526843" lon="10.563826474836883"><ele>189.4</ele><time>2026-04-19T09:00:25.001Z</time></trkpt><trkpt lat="43.451530781873565" lon="10.563765234586837"><ele>190.20000000000002</ele><time>2026-04-19T09:00:26.001Z</time></trkpt><trkpt lat="43.4516329718067" lon="10.563750215739756"><ele>191.0</ele><time>2026-04-19T09:00:27.001Z</time></trkpt><trkpt lat="43.451733853938975" lon="10.563799191325964"><ele>191.0</ele><time>2026-04-19T09:00:28.001Z</time></trkpt><trkpt lat="43.45179158531275" lon="10.563901250546294"><ele>191.0</ele><time>2026-04-19T09:00:29.001Z</time></trkpt><trkpt lat="43.45181349682886" lon="10.564058089048684"><ele>191.0</ele><time>2026-04-19T09:00:30.001Z</time></trkpt><trkpt lat="43.451830068643076" lon="10.564222224539494"><ele>191.0</ele><time>2026-04-19T09:00:31.001Z</time></trkpt><trkpt lat="43.45182636773887" lon="10.56439624860687"><ele>192.25</ele><time>2026-04-19T09:00:32.001Z</time></trkpt><trkpt lat="43.45179804481902" lon="10.564564140964272"><ele>193.5</ele><time>2026-04-19T09:00:33.001Z</time></trkpt><trkpt lat="43.451749825543004" lon="10.564739136566887"><ele>194.75</ele><time>2026-04-19T09:00:34.001Z</time></trkpt><trkpt lat="43.451689869443854" lon="10.564912953939437"><ele>196.0</ele><time>2026-04-19T09:00:35.001Z</time></trkpt><trkpt lat="43.451637576531525" lon="10.565075818619105"><ele>196.0</ele><time>2026-04-19T09:00:36.001Z</time></trkpt><trkpt lat="43.451584492571314" lon="10.565216765003905"><ele>196.0</ele><time>2026-04-19T09:00:37.001Z</time></trkpt><trkpt lat="43.451559617966076" lon="10.565357160315083"><ele>196.0</ele><time>2026-04-19T09:00:38.001Z</time></trkpt><trkpt lat="43.45156222063542" lon="10.565505863056101"><ele>196.0</ele><time>2026-04-19T09:00:39.001Z</time></trkpt><trkpt lat="43.451588627505316" lon="10.565646677076439"><ele>196.0</ele><time>2026-04-19T09:00:40.001Z</time></trkpt><trkpt lat="43.45162418914472" lon="10.565760811724298"><ele>197.20000000000002</ele><time>2026-04-19T09:00:41.001Z</time></trkpt><trkpt lat="43.451675236721776" lon="10.565855444091854"><ele>198.4</ele><time>2026-04-19T09:00:42.001Z</time></trkpt><trkpt lat="43.45175248647049" lon="10.565929065137968"><ele>199.6</ele><time>2026-04-19T09:00:43.001Z</time></trkpt><trkpt lat="43.451843635486235" lon="10.56593561807913"><ele>200.8</ele><time>2026-04-19T09:00:44.001Z</time></trkpt><trkpt lat="43.45193828327189" lon="10.565908886628959"><ele>202.0</ele><time>2026-04-19T09:00:45.001Z</time></trkpt><trkpt lat="43.45205541497376" lon="10.565905873268314"><ele>201.83333333333331</ele><time>2026-04-19T09:00:46.001Z</time></trkpt><trkpt lat="43.45215564734483" lon="10.565933379925635"><ele>201.66666666666666</ele><time>2026-04-19T09:00:47.001Z</time></trkpt><trkpt lat="43.452236357484885" lon="10.565955264486217"><ele>201.5</ele><time>2026-04-19T09:00:48.001Z</time></trkpt><trkpt lat="43.452310231328404" lon="10.566005298487198"><ele>201.33333333333331</ele><time>2026-04-19T09:00:49.001Z</time></trkpt><trkpt lat="43.45235728617854" lon="10.56609316182092"><ele>201.16666666666666</ele><time>2026-04-19T09:00:50.001Z</time></trkpt><trkpt lat="43.45237868673662" lon="10.566205143038522"><ele>201.0</ele><time>2026-04-19T09:00:51.001Z</time></trkpt><trkpt lat="43.452385663157784" lon="10.566320901597381"><ele>201.0</ele><time>2026-04-19T09:00:52.001Z</time></trkpt><trkpt lat="43.45238350124576" lon="10.566458502228688"><ele>201.0</ele><time>2026-04-19T09:00:53.001Z</time></trkpt><trkpt lat="43.45236792430181" lon="10.566599522486355"><ele>201.0</ele><time>2026-04-19T09:00:54.001Z</time></trkpt><trkpt lat="43.452363052211744" lon="10.56675143433429"><ele>201.0</ele><time>2026-04-19T09:00:55.001Z</time></trkpt><trkpt lat="43.45236040719993" lon="10.566887004097032"><ele>201.0</ele><time>2026-04-19T09:00:56.001Z</time></trkpt><trkpt lat="43.45235562843989" lon="10.567005770471077"><ele>202.60000000000002</ele><time>2026-04-19T09:00:57.001Z</time></trkpt><trkpt lat="43.45235952340031" lon="10.567122752249524"><ele>204.2</ele><time>2026-04-19T09:00:58.001Z</time></trkpt><trkpt lat="43.45239883742489" lon="10.56723381317332"><ele>205.8</ele><time>2026-04-19T09:00:59.001Z</time></trkpt><trkpt lat="43.45246686894998" lon="10.567300848850898"><ele>207.39999999999998</ele><time>2026-04-19T09:01:00.001Z</time></trkpt><trkpt lat="43.45255951875992" lon="10.567303503500035"><ele>209.0</ele><time>2026-04-19T09:01:01.001Z</time></trkpt><trkpt lat="43.45264362613392" lon="10.567210682562846"><ele>209.0</ele><time>2026-04-19T09:01:03.001Z</time></trkpt><trkpt lat="43.452579111747546" lon="10.567233011575304"><ele>209.0</ele><time>2026-04-19T09:01:15Z</time></trkpt><trkpt lat="43.452514874145265" lon="10.56729627176311"><ele>209.0</ele><time>2026-04-19T09:01:18Z</time></trkpt><trkpt lat="43.45256136733745" lon="10.567376549852177"><ele>209.0</ele><time>2026-04-19T09:01:25Z</time></trkpt><trkpt lat="43.452632533559544" lon="10.567337144233859"><ele>209.0</ele><time>2026-04-19T09:01:31Z</time></trkpt><trkpt lat="43.4526141997035" lon="10.567745923107429"><ele>209.0</ele><time>2026-04-19T09:01:35Z</time></trkpt><trkpt lat="43.452554020756786" lon="10.567830074318792"><ele>209.0</ele><time>2026-04-19T09:01:37Z</time></trkpt><trkpt lat="43.45246686693179" lon="10.567725750744433"><ele>209.0</ele><time>2026-04-19T09:01:40Z</time></trkpt><trkpt lat="43.45241611077169" lon="10.56763566370002"><ele>209.0</ele><time>2026-04-19T09:01:42Z</time></trkpt><trkpt lat="43.452358085668884" lon="10.567535063033201"><ele>209.0</ele><time>2026-04-19T09:01:44Z</time></trkpt><trkpt lat="43.45231287227163" lon="10.5674011250165"><ele>209.0</ele><time>2026-04-19T09:01:46Z</time></trkpt><trkpt lat="43.45226995357028" lon="10.567251654583286"><ele>209.0</ele><time>2026-04-19T09:01:48Z</time></trkpt><trkpt lat="43.45225377389469" lon="10.567162050859125"><ele>209.0</ele><time>2026-04-19T09:01:49Z</time></trkpt><trkpt lat="43.452240139190415" lon="10.567074629504027"><ele>209.0</ele><time>2026-04-19T09:01:50Z</time></trkpt><trkpt lat="43.45219585710127" lon="10.566902730098123"><ele>209.0</ele><time>2026-04-19T09:01:52Z</time></trkpt><trkpt lat="43.452184353891255" lon="10.56680969790956"><ele>207.39999999999998</ele><time>2026-04-19T09:01:53Z</time></trkpt><trkpt lat="43.45213769619807" lon="10.56671110532523"><ele>205.8</ele><time>2026-04-19T09:01:55Z</time></trkpt><trkpt lat="43.452049044074315" lon="10.566633248467497"><ele>204.2</ele><time>2026-04-19T09:01:58Z</time></trkpt><trkpt lat="43.451952298672346" lon="10.566626804464692"><ele>202.60000000000002</ele><time>2026-04-19T09:02:00Z</time></trkpt><trkpt lat="43.45184194519246" lon="10.566705410358571"><ele>201.0</ele><time>2026-04-19T09:02:02Z</time></trkpt><trkpt lat="43.45178326943556" lon="10.566737725451906"><ele>203.57142857142856</ele><time>2026-04-19T09:02:03Z</time></trkpt><trkpt lat="43.45171333629336" lon="10.566766105412706"><ele>206.14285714285717</ele><time>2026-04-19T09:02:04Z</time></trkpt><trkpt lat="43.45164731380452" lon="10.566801005714536"><ele>208.71428571428572</ele><time>2026-04-19T09:02:05Z</time></trkpt><trkpt lat="43.45157926380122" lon="10.566828241996081"><ele>211.28571428571428</ele><time>2026-04-19T09:02:06Z</time></trkpt><trkpt lat="43.45151191804809" lon="10.56684965220853"><ele>213.85714285714283</ele><time>2026-04-19T09:02:07Z</time></trkpt><trkpt lat="43.451435641526835" lon="10.566860311415478"><ele>216.42857142857144</ele><time>2026-04-19T09:02:08Z</time></trkpt><trkpt lat="43.4513713794502" lon="10.566872408348635"><ele>219.0</ele><time>2026-04-19T09:02:09Z</time></trkpt><trkpt lat="43.4513061977142" lon="10.56687524910457"><ele>219.0</ele><time>2026-04-19T09:02:10Z</time></trkpt><trkpt lat="43.451223197102124" lon="10.566868836634095"><ele>219.0</ele><time>2026-04-19T09:02:11Z</time></trkpt><trkpt lat="43.45114868523646" lon="10.566879837077687"><ele>219.0</ele><time>2026-04-19T09:02:12Z</time></trkpt><trkpt lat="43.45106776377911" lon="10.566891719253212"><ele>219.0</ele><time>2026-04-19T09:02:13.001Z</time></trkpt><trkpt lat="43.450989350395005" lon="10.56690369243467"><ele>219.0</ele><time>2026-04-19T09:02:14.001Z</time></trkpt><trkpt lat="43.45092323317772" lon="10.566916956909342"><ele>219.0</ele><time>2026-04-19T09:02:15.001Z</time></trkpt><trkpt lat="43.45081685156262" lon="10.566971866256749"><ele>219.0</ele><time>2026-04-19T09:02:17.001Z</time></trkpt><trkpt lat="43.450763398012924" lon="10.567019093123461"><ele>219.0</ele><time>2026-04-19T09:02:18.001Z</time></trkpt><trkpt lat="43.450726140055686" lon="10.567096893820715"><ele>219.0</ele><time>2026-04-19T09:02:19.001Z</time></trkpt><trkpt lat="43.45070235824569" lon="10.567184880482932"><ele>219.0</ele><time>2026-04-19T09:02:20.001Z</time></trkpt><trkpt lat="43.45069334872646" lon="10.567275034674308"><ele>219.0</ele><time>2026-04-19T09:02:21.001Z</time></trkpt><trkpt lat="43.4506710623358" lon="10.567362078360812"><ele>219.0</ele><time>2026-04-19T09:02:22.001Z</time></trkpt><trkpt lat="43.45060489936693" lon="10.5675147941253"><ele>220.39999999999998</ele><time>2026-04-19T09:02:24.001Z</time></trkpt><trkpt lat="43.450566309618125" lon="10.567598406029505"><ele>221.79999999999998</ele><time>2026-04-19T09:02:25.001Z</time></trkpt><trkpt lat="43.45049588392421" lon="10.567719419620714"><ele>223.20000000000002</ele><time>2026-04-19T09:02:27.001Z</time></trkpt><trkpt lat="43.45043237723748" lon="10.567801926798937"><ele>224.60000000000002</ele><time>2026-04-19T09:02:29.001Z</time></trkpt><trkpt lat="43.45032967464703" lon="10.56789768543056"><ele>226.0</ele><time>2026-04-19T09:02:31.001Z</time></trkpt><trkpt lat="43.45027389115989" lon="10.567939443862288"><ele>229.49999999999997</ele><time>2026-04-19T09:02:32.001Z</time></trkpt><trkpt lat="43.45016146554764" lon="10.568031250566973"><ele>233.0</ele><time>2026-04-19T09:02:34.001Z</time></trkpt><trkpt lat="43.450092685552264" lon="10.56805835460285"><ele>236.5</ele><time>2026-04-19T09:02:35.001Z</time></trkpt><trkpt lat="43.45003763129437" lon="10.568103844383312"><ele>240.0</ele><time>2026-04-19T09:02:36.001Z</time></trkpt><trkpt lat="43.449978114395705" lon="10.568170270210993"><ele>243.49999999999997</ele><time>2026-04-19T09:02:37.001Z</time></trkpt><trkpt lat="43.44992652138231" lon="10.568235305366112"><ele>247.0</ele><time>2026-04-19T09:02:38.001Z</time></trkpt><trkpt lat="43.44987722246578" lon="10.568310033232978"><ele>247.0</ele><time>2026-04-19T09:02:39.001Z</time></trkpt><trkpt lat="43.44983826888545" lon="10.56838007344057"><ele>247.0</ele><time>2026-04-19T09:02:40.001Z</time></trkpt><trkpt lat="43.449809100442614" lon="10.56846874410622"><ele>247.0</ele><time>2026-04-19T09:02:41.001Z</time></trkpt><trkpt lat="43.44975721299875" lon="10.568643767176333"><ele>247.0</ele><time>2026-04-19T09:02:43.001Z</time></trkpt><trkpt lat="43.44974007874769" lon="10.568729888229647"><ele>247.0</ele><time>2026-04-19T09:02:44.001Z</time></trkpt><trkpt lat="43.44971043684362" lon="10.568906672623884"><ele>249.2</ele><time>2026-04-19T09:02:46.001Z</time></trkpt><trkpt lat="43.44969621103058" lon="10.569048055290938"><ele>251.39999999999998</ele><time>2026-04-19T09:02:48.001Z</time></trkpt><trkpt lat="43.44969194921412" lon="10.569156956577272"><ele>253.60000000000002</ele><time>2026-04-19T09:02:50.001Z</time></trkpt><trkpt lat="43.44972893718079" lon="10.569271727005873"><ele>255.8</ele><time>2026-04-19T09:02:52.001Z</time></trkpt><trkpt lat="43.44980441043431" lon="10.56937339801133"><ele>258.0</ele><time>2026-04-19T09:02:54.001Z</time></trkpt><trkpt lat="43.449886526732826" lon="10.569468857906209"><ele>258.0</ele><time>2026-04-19T09:02:56.001Z</time></trkpt><trkpt lat="43.44996012692375" lon="10.569567783860993"><ele>258.0</ele><time>2026-04-19T09:02:58.001Z</time></trkpt><trkpt lat="43.45001271091785" lon="10.569647052511355"><ele>258.0</ele><time>2026-04-19T09:03:00.001Z</time></trkpt><trkpt lat="43.45004965213428" lon="10.569719260648053"><ele>258.0</ele><time>2026-04-19T09:03:02.001Z</time></trkpt><trkpt lat="43.45007836816667" lon="10.569825671938974"><ele>258.0</ele><time>2026-04-19T09:03:05.001Z</time></trkpt><trkpt lat="43.45010550237468" lon="10.56994253915635"><ele>258.0</ele><time>2026-04-19T09:03:08.001Z</time></trkpt><trkpt lat="43.45014453475935" lon="10.570020408477465"><ele>258.0</ele><time>2026-04-19T09:03:10.001Z</time></trkpt><trkpt lat="43.45018590967431" lon="10.570112167730539"><ele>258.0</ele><time>2026-04-19T09:03:12.001Z</time></trkpt><trkpt lat="43.45025159818136" lon="10.570170540252349"><ele>258.0</ele><time>2026-04-19T09:03:14.001Z</time></trkpt><trkpt lat="43.45032590886474" lon="10.570228749287507"><ele>258.0</ele><time>2026-04-19T09:03:16.001Z</time></trkpt><trkpt lat="43.450405630079196" lon="10.570281523402718"><ele>258.0</ele><time>2026-04-19T09:03:18.001Z</time></trkpt><trkpt lat="43.4505090311985" lon="10.5703012156238"><ele>258.0</ele><time>2026-04-19T09:03:20Z</time></trkpt><trkpt lat="43.45062193955746" lon="10.570363556213563"><ele>259.6666666666667</ele><time>2026-04-19T09:03:22Z</time></trkpt><trkpt lat="43.45069228432868" lon="10.570391898430426"><ele>261.3333333333333</ele><time>2026-04-19T09:03:23Z</time></trkpt><trkpt lat="43.45076369694249" lon="10.570430408125043"><ele>263.0</ele><time>2026-04-19T09:03:24Z</time></trkpt><trkpt lat="43.45083634793287" lon="10.570482032631485"><ele>264.66666666666663</ele><time>2026-04-19T09:03:25Z</time></trkpt><trkpt lat="43.45090180069346" lon="10.570558820763932"><ele>266.3333333333333</ele><time>2026-04-19T09:03:26Z</time></trkpt><trkpt lat="43.450945197930864" lon="10.570673657996734"><ele>268.0</ele><time>2026-04-19T09:03:27Z</time></trkpt><trkpt lat="43.45101008729905" lon="10.570766257328602"><ele>268.0</ele><time>2026-04-19T09:03:28Z</time></trkpt><trkpt lat="43.45108620415764" lon="10.570837469305918"><ele>268.0</ele><time>2026-04-19T09:03:29Z</time></trkpt><trkpt lat="43.45115258651871" lon="10.570914872109674"><ele>268.0</ele><time>2026-04-19T09:03:30Z</time></trkpt><trkpt lat="43.45122318290816" lon="10.570986442583948"><ele>268.0</ele><time>2026-04-19T09:03:31Z</time></trkpt><trkpt lat="43.451266751066086" lon="10.57108330654664"><ele>268.0</ele><time>2026-04-19T09:03:32Z</time></trkpt><trkpt lat="43.451309386598105" lon="10.57116904023688"><ele>268.0</ele><time>2026-04-19T09:03:33Z</time></trkpt><trkpt lat="43.451337106099764" lon="10.57126249349815"><ele>268.3333333333333</ele><time>2026-04-19T09:03:34Z</time></trkpt><trkpt lat="43.45135114578404" lon="10.571356581551921"><ele>268.66666666666663</ele><time>2026-04-19T09:03:35Z</time></trkpt><trkpt lat="43.45135214927146" lon="10.57144606182556"><ele>269.0</ele><time>2026-04-19T09:03:36Z</time></trkpt><trkpt lat="43.45133321589386" lon="10.571560398943971"><ele>269.3333333333333</ele><time>2026-04-19T09:03:38Z</time></trkpt><trkpt lat="43.45126792150699" lon="10.571640193495764"><ele>269.6666666666667</ele><time>2026-04-19T09:03:40Z</time></trkpt><trkpt lat="43.45116689007253" lon="10.571713653689017"><ele>270.0</ele><time>2026-04-19T09:03:42Z</time></trkpt><trkpt lat="43.45104441572786" lon="10.571778562969007"><ele>271.6666666666667</ele><time>2026-04-19T09:03:44Z</time></trkpt><trkpt lat="43.45097337903916" lon="10.571823652151515"><ele>273.3333333333333</ele><time>2026-04-19T09:03:45Z</time></trkpt><trkpt lat="43.450903051666124" lon="10.571876569710865"><ele>275.0</ele><time>2026-04-19T09:03:46Z</time></trkpt><trkpt lat="43.45084106363699" lon="10.571911784464666"><ele>276.66666666666663</ele><time>2026-04-19T09:03:47Z</time></trkpt><trkpt lat="43.45076633195864" lon="10.571953209527246"><ele>278.3333333333333</ele><time>2026-04-19T09:03:48Z</time></trkpt><trkpt lat="43.450641754710574" lon="10.571975567741454"><ele>280.0</ele><time>2026-04-19T09:03:50Z</time></trkpt><trkpt lat="43.45057483956105" lon="10.571988874492101"><ele>280.0</ele><time>2026-04-19T09:03:51Z</time></trkpt><trkpt lat="43.4505113330428" lon="10.571994946640098"><ele>280.0</ele><time>2026-04-19T09:03:52Z</time></trkpt><trkpt lat="43.450443154669216" lon="10.571992173935323"><ele>280.0</ele><time>2026-04-19T09:03:53Z</time></trkpt><trkpt lat="43.45035799614146" lon="10.571990683354718"><ele>280.0</ele><time>2026-04-19T09:03:54Z</time></trkpt><trkpt lat="43.45028621301492" lon="10.572018645899488"><ele>280.0</ele><time>2026-04-19T09:03:55Z</time></trkpt><trkpt lat="43.45021701252952" lon="10.572026206189744"><ele>280.0</ele><time>2026-04-19T09:03:56Z</time></trkpt><trkpt lat="43.450148563658686" lon="10.572034113782424"><ele>280.0</ele><time>2026-04-19T09:03:57Z</time></trkpt><trkpt lat="43.45008602818362" lon="10.572053733521674"><ele>282.4</ele><time>2026-04-19T09:03:58Z</time></trkpt><trkpt lat="43.449970236397675" lon="10.572060230218037"><ele>284.8</ele><time>2026-04-19T09:04:00Z</time></trkpt><trkpt lat="43.44987285758663" lon="10.572095216114347"><ele>287.2</ele><time>2026-04-19T09:04:02Z</time></trkpt><trkpt lat="43.44980388664333" lon="10.572122998100964"><ele>289.6</ele><time>2026-04-19T09:04:04Z</time></trkpt><trkpt lat="43.449776727517616" lon="10.57220217423889"><ele>292.0</ele><time>2026-04-19T09:04:05Z</time></trkpt><trkpt lat="43.44980169598447" lon="10.572343887142871"><ele>292.0</ele><time>2026-04-19T09:04:07Z</time></trkpt><trkpt lat="43.44988130390351" lon="10.572485004793448"><ele>292.0</ele><time>2026-04-19T09:04:09Z</time></trkpt><trkpt lat="43.44992835857718" lon="10.572549054716967"><ele>292.0</ele><time>2026-04-19T09:04:10Z</time></trkpt><trkpt lat="43.450015578715025" lon="10.572671277872022"><ele>292.0</ele><time>2026-04-19T09:04:12Z</time></trkpt><trkpt lat="43.45006270305409" lon="10.572739507956268"><ele>292.0</ele><time>2026-04-19T09:04:13Z</time></trkpt><trkpt lat="43.45010937290125" lon="10.572807079878649"><ele>290.42857142857144</ele><time>2026-04-19T09:04:14Z</time></trkpt><trkpt lat="43.450155854513326" lon="10.572874379284526"><ele>288.8571428571429</ele><time>2026-04-19T09:04:15Z</time></trkpt><trkpt lat="43.450204444564754" lon="10.572944731663563"><ele>287.28571428571433</ele><time>2026-04-19T09:04:16Z</time></trkpt><trkpt lat="43.45024792772645" lon="10.573024770700421"><ele>285.7142857142857</ele><time>2026-04-19T09:04:17Z</time></trkpt><trkpt lat="43.45029025630187" lon="10.573115014952188"><ele>284.14285714285717</ele><time>2026-04-19T09:04:18Z</time></trkpt><trkpt lat="43.4503292019136" lon="10.573211125200695"><ele>282.5714285714286</ele><time>2026-04-19T09:04:19Z</time></trkpt><trkpt lat="43.45036542325587" lon="10.573306976001493"><ele>281.0</ele><time>2026-04-19T09:04:20Z</time></trkpt><trkpt lat="43.4503999837878" lon="10.573404795096183"><ele>281.0</ele><time>2026-04-19T09:04:21.001Z</time></trkpt><trkpt lat="43.45043034438593" lon="10.573493846317339"><ele>281.0</ele><time>2026-04-19T09:04:22.001Z</time></trkpt><trkpt lat="43.45047914254895" lon="10.573660065542514"><ele>281.0</ele><time>2026-04-19T09:04:24.001Z</time></trkpt><trkpt lat="43.45052698075374" lon="10.573734679098152"><ele>281.0</ele><time>2026-04-19T09:04:25.001Z</time></trkpt><trkpt lat="43.45059923380931" lon="10.573764873670283"><ele>281.0</ele><time>2026-04-19T09:04:26.001Z</time></trkpt><trkpt lat="43.45065963513912" lon="10.573803970047404"><ele>281.0</ele><time>2026-04-19T09:04:27.001Z</time></trkpt><trkpt lat="43.45073541633156" lon="10.573879471601211"><ele>286.40000000000003</ele><time>2026-04-19T09:04:29.001Z</time></trkpt><trkpt lat="43.450807165309406" lon="10.574002238962182"><ele>291.8</ele><time>2026-04-19T09:04:31.001Z</time></trkpt><trkpt lat="43.45084863361649" lon="10.574068575747411"><ele>297.20000000000005</ele><time>2026-04-19T09:04:32.001Z</time></trkpt><trkpt lat="43.45094999293453" lon="10.574178698706472"><ele>302.6</ele><time>2026-04-19T09:04:34.001Z</time></trkpt><trkpt lat="43.45100569580079" lon="10.574247592031842"><ele>308.0</ele><time>2026-04-19T09:04:35.001Z</time></trkpt><trkpt lat="43.45105437870825" lon="10.574324316234472"><ele>308.0</ele><time>2026-04-19T09:04:36.001Z</time></trkpt><trkpt lat="43.451108177207175" lon="10.574404989948277"><ele>308.0</ele><time>2026-04-19T09:04:37.001Z</time></trkpt><trkpt lat="43.45116626242635" lon="10.574503967444643"><ele>308.0</ele><time>2026-04-19T09:04:38.001Z</time></trkpt><trkpt lat="43.4512033881293" lon="10.574592523101561"><ele>308.0</ele><time>2026-04-19T09:04:39.001Z</time></trkpt><trkpt lat="43.4512488640826" lon="10.57468432426692"><ele>308.0</ele><time>2026-04-19T09:04:40.001Z</time></trkpt><trkpt lat="43.45130008064581" lon="10.574760752494853"><ele>308.0</ele><time>2026-04-19T09:04:41.001Z</time></trkpt><trkpt lat="43.451348110735346" lon="10.574819362662732"><ele>310.83333333333337</ele><time>2026-04-19T09:04:42.001Z</time></trkpt><trkpt lat="43.45143800331985" lon="10.574898292558071"><ele>313.6666666666667</ele><time>2026-04-19T09:04:44.001Z</time></trkpt><trkpt lat="43.451516364613006" lon="10.574947830317223"><ele>316.5</ele><time>2026-04-19T09:04:46.001Z</time></trkpt><trkpt lat="43.451568524579535" lon="10.575007691079279"><ele>319.3333333333333</ele><time>2026-04-19T09:04:48.001Z</time></trkpt><trkpt lat="43.451611644564956" lon="10.575101880357519"><ele>322.16666666666663</ele><time>2026-04-19T09:04:50.001Z</time></trkpt><trkpt lat="43.45165273461311" lon="10.575195554948598"><ele>325.0</ele><time>2026-04-19T09:04:52.001Z</time></trkpt><trkpt lat="43.4516959795814" lon="10.575329639929098"><ele>326.0</ele><time>2026-04-19T09:04:54.001Z</time></trkpt><trkpt lat="43.451704015659885" lon="10.575490903188982"><ele>327.0</ele><time>2026-04-19T09:04:56.001Z</time></trkpt><trkpt lat="43.45167928044704" lon="10.575616256824608"><ele>328.0</ele><time>2026-04-19T09:04:58.001Z</time></trkpt><trkpt lat="43.45165901596604" lon="10.575725086266266"><ele>329.0</ele><time>2026-04-19T09:05:09.001Z</time></trkpt><trkpt lat="43.45165523705432" lon="10.575828728723875"><ele>330.0</ele><time>2026-04-19T09:05:11.001Z</time></trkpt><trkpt lat="43.4516566499525" lon="10.57595918927468"><ele>330.0</ele><time>2026-04-19T09:05:13.001Z</time></trkpt><trkpt lat="43.45170668371274" lon="10.576103429638039"><ele>330.0</ele><time>2026-04-19T09:05:15.001Z</time></trkpt><trkpt lat="43.45177190463133" lon="10.57625056929796"><ele>330.0</ele><time>2026-04-19T09:05:17.001Z</time></trkpt><trkpt lat="43.451811018368936" lon="10.576332989226444"><ele>330.0</ele><time>2026-04-19T09:05:18.001Z</time></trkpt><trkpt lat="43.45187683700395" lon="10.57647077775285"><ele>330.0</ele><time>2026-04-19T09:05:20.001Z</time></trkpt><trkpt lat="43.451916151111526" lon="10.576538860570736"><ele>330.0</ele><time>2026-04-19T09:05:21.001Z</time></trkpt><trkpt lat="43.451972542199144" lon="10.576596305066026"><ele>330.0</ele><time>2026-04-19T09:05:22.001Z</time></trkpt><trkpt lat="43.45203652419023" lon="10.576638560795947"><ele>330.0</ele><time>2026-04-19T09:05:23.001Z</time></trkpt><trkpt lat="43.45214956589786" lon="10.5767002128668"><ele>330.0</ele><time>2026-04-19T09:05:25.001Z</time></trkpt><trkpt lat="43.4522604897026" lon="10.576749642964597"><ele>330.0</ele><time>2026-04-19T09:05:27Z</time></trkpt><trkpt lat="43.45236172694678" lon="10.576754612238828"><ele>332.1666666666667</ele><time>2026-04-19T09:05:29Z</time></trkpt><trkpt lat="43.452426854131076" lon="10.576722305336375"><ele>334.3333333333333</ele><time>2026-04-19T09:05:31Z</time></trkpt><trkpt lat="43.45252148658342" lon="10.576662555733703"><ele>336.5</ele><time>2026-04-19T09:05:42Z</time></trkpt><trkpt lat="43.452604734045025" lon="10.5765914473246"><ele>338.66666666666663</ele><time>2026-04-19T09:05:44Z</time></trkpt><trkpt lat="43.45269437450923" lon="10.576530194919236"><ele>340.8333333333333</ele><time>2026-04-19T09:05:46Z</time></trkpt><trkpt lat="43.45275590533175" lon="10.5765023657743"><ele>343.0</ele><time>2026-04-19T09:05:47Z</time></trkpt><trkpt lat="43.45289207819668" lon="10.576538017791846"><ele>343.0</ele><time>2026-04-19T09:05:49Z</time></trkpt><trkpt lat="43.452952807728934" lon="10.576581679962077"><ele>343.0</ele><time>2026-04-19T09:05:50Z</time></trkpt><trkpt lat="43.453011403673095" lon="10.576637317399403"><ele>343.0</ele><time>2026-04-19T09:05:51Z</time></trkpt><trkpt lat="43.4530684110001" lon="10.576693032776928"><ele>343.0</ele><time>2026-04-19T09:05:52Z</time></trkpt><trkpt lat="43.45313552427371" lon="10.57672690435644"><ele>343.0</ele><time>2026-04-19T09:05:53Z</time></trkpt><trkpt lat="43.45320984367316" lon="10.57673807038146"><ele>343.0</ele><time>2026-04-19T09:05:54Z</time></trkpt><trkpt lat="43.4532876527517" lon="10.576737893662619"><ele>343.0</ele><time>2026-04-19T09:05:55Z</time></trkpt><trkpt lat="43.453363625544" lon="10.576756466471167"><ele>345.0</ele><time>2026-04-19T09:05:56Z</time></trkpt><trkpt lat="43.45343363319212" lon="10.57679432977385"><ele>347.0</ele><time>2026-04-19T09:05:57Z</time></trkpt><trkpt lat="43.453498116462896" lon="10.576836201171552"><ele>349.0</ele><time>2026-04-19T09:05:58Z</time></trkpt><trkpt lat="43.453551154585696" lon="10.576890992219292"><ele>351.0</ele><time>2026-04-19T09:05:59Z</time></trkpt><trkpt lat="43.45359979293443" lon="10.576947411340223"><ele>353.0</ele><time>2026-04-19T09:06:00Z</time></trkpt><trkpt lat="43.45363727153534" lon="10.577020213659566"><ele>355.0</ele><time>2026-04-19T09:06:01Z</time></trkpt><trkpt lat="43.45368556247853" lon="10.57709092344569"><ele>357.0</ele><time>2026-04-19T09:06:02Z</time></trkpt><trkpt lat="43.453721170932255" lon="10.577169172899248"><ele>357.0</ele><time>2026-04-19T09:06:03Z</time></trkpt><trkpt lat="43.4537630364946" lon="10.577245490171771"><ele>357.0</ele><time>2026-04-19T09:06:04Z</time></trkpt><trkpt lat="43.45379035818001" lon="10.577327558272446"><ele>357.0</ele><time>2026-04-19T09:06:05Z</time></trkpt><trkpt lat="43.45383917519409" lon="10.577405493825319"><ele>357.0</ele><time>2026-04-19T09:06:06Z</time></trkpt><trkpt lat="43.453885866131536" lon="10.577493846703668"><ele>357.0</ele><time>2026-04-19T09:06:07Z</time></trkpt><trkpt lat="43.45391998295968" lon="10.577593883658606"><ele>357.0</ele><time>2026-04-19T09:06:08Z</time></trkpt><trkpt lat="43.45394888436228" lon="10.577697244575537"><ele>359.6666666666667</ele><time>2026-04-19T09:06:09Z</time></trkpt><trkpt lat="43.453965822086154" lon="10.577809241461795"><ele>362.3333333333333</ele><time>2026-04-19T09:06:10Z</time></trkpt><trkpt lat="43.4539837443123" lon="10.577918058653731"><ele>365.0</ele><time>2026-04-19T09:06:11Z</time></trkpt><trkpt lat="43.45399628316207" lon="10.578024076975895"><ele>367.66666666666663</ele><time>2026-04-19T09:06:12Z</time></trkpt><trkpt lat="43.454013835496454" lon="10.578129085621171"><ele>370.3333333333333</ele><time>2026-04-19T09:06:13Z</time></trkpt><trkpt lat="43.454056593572155" lon="10.578246493270456"><ele>373.0</ele><time>2026-04-19T09:06:14Z</time></trkpt><trkpt lat="43.45409457826281" lon="10.578356714468898"><ele>373.0</ele><time>2026-04-19T09:06:15Z</time></trkpt><trkpt lat="43.45413321555526" lon="10.578473396842973"><ele>373.0</ele><time>2026-04-19T09:06:16Z</time></trkpt><trkpt lat="43.45418454677124" lon="10.578591881756497"><ele>373.0</ele><time>2026-04-19T09:06:17Z</time></trkpt><trkpt lat="43.454230410332336" lon="10.5787077519882"><ele>373.0</ele><time>2026-04-19T09:06:18Z</time></trkpt><trkpt lat="43.45427713862434" lon="10.578818590893597"><ele>373.0</ele><time>2026-04-19T09:06:19Z</time></trkpt><trkpt lat="43.45433245686434" lon="10.578920749248592"><ele>373.0</ele><time>2026-04-19T09:06:20Z</time></trkpt><trkpt lat="43.45438963681846" lon="10.579012558024363"><ele>373.0</ele><time>2026-04-19T09:06:21Z</time></trkpt><trkpt lat="43.45445263550514" lon="10.57909354373165"><ele>373.0</ele><time>2026-04-19T09:06:22Z</time></trkpt><trkpt lat="43.45451619649335" lon="10.57916276512822"><ele>373.0</ele><time>2026-04-19T09:06:23Z</time></trkpt><trkpt lat="43.45457835663684" lon="10.579222706185579"><ele>373.0</ele><time>2026-04-19T09:06:24Z</time></trkpt><trkpt lat="43.45463270075374" lon="10.5792727525895"><ele>373.0</ele><time>2026-04-19T09:06:25Z</time></trkpt><trkpt lat="43.4546885843347" lon="10.579323647419903"><ele>373.66666666666663</ele><time>2026-04-19T09:06:26Z</time></trkpt><trkpt lat="43.45474210449066" lon="10.579372728496004"><ele>374.3333333333333</ele><time>2026-04-19T09:06:27Z</time></trkpt><trkpt lat="43.45478885134632" lon="10.579430905578153"><ele>375.0</ele><time>2026-04-19T09:06:28Z</time></trkpt><trkpt lat="43.45481674592561" lon="10.579597958997189"><ele>375.6666666666667</ele><time>2026-04-19T09:06:30Z</time></trkpt><trkpt lat="43.454766079383226" lon="10.579678196139682"><ele>376.33333333333337</ele><time>2026-04-19T09:06:31Z</time></trkpt><trkpt lat="43.454750134789144" lon="10.579777063878575"><ele>377.0</ele><time>2026-04-19T09:06:32.001Z</time></trkpt><trkpt lat="43.45472924453718" lon="10.579868785240778"><ele>378.71428571428567</ele><time>2026-04-19T09:06:33.001Z</time></trkpt><trkpt lat="43.45473161594573" lon="10.57997560966503"><ele>380.42857142857144</ele><time>2026-04-19T09:06:34.001Z</time></trkpt><trkpt lat="43.45473709603913" lon="10.580081923200835"><ele>382.1428571428571</ele><time>2026-04-19T09:06:35.001Z</time></trkpt><trkpt lat="43.45471468278652" lon="10.580185431831588"><ele>383.85714285714283</ele><time>2026-04-19T09:06:36.001Z</time></trkpt><trkpt lat="43.45471879712778" lon="10.580289008789533"><ele>385.57142857142856</ele><time>2026-04-19T09:06:37.001Z</time></trkpt><trkpt lat="43.4547016222208" lon="10.580385338056043"><ele>387.2857142857143</ele><time>2026-04-19T09:06:38.001Z</time></trkpt><trkpt lat="43.45470218238701" lon="10.580476932543755"><ele>389.0</ele><time>2026-04-19T09:06:39.001Z</time></trkpt><trkpt lat="43.454716144347444" lon="10.580570006330424"><ele>390.8333333333333</ele><time>2026-04-19T09:06:40.001Z</time></trkpt><trkpt lat="43.45475442254488" lon="10.580646158147843"><ele>392.66666666666663</ele><time>2026-04-19T09:06:41.001Z</time></trkpt><trkpt lat="43.454806276584904" lon="10.580699535290867"><ele>394.5</ele><time>2026-04-19T09:06:42.001Z</time></trkpt><trkpt lat="43.454867005039645" lon="10.580734606468413"><ele>396.33333333333337</ele><time>2026-04-19T09:06:43.001Z</time></trkpt><trkpt lat="43.454943569338205" lon="10.580825404697903"><ele>398.1666666666667</ele><time>2026-04-19T09:06:45.001Z</time></trkpt><trkpt lat="43.45500750760405" lon="10.580939689726995"><ele>400.0</ele><time>2026-04-19T09:06:47.001Z</time></trkpt><trkpt lat="43.45505776814151" lon="10.581093567358938"><ele>401.4</ele><time>2026-04-19T09:06:49.001Z</time></trkpt><trkpt lat="43.455113049381865" lon="10.581242498328834"><ele>402.8</ele><time>2026-04-19T09:06:51.001Z</time></trkpt><trkpt lat="43.455167796088276" lon="10.581391857680112"><ele>404.20000000000005</ele><time>2026-04-19T09:06:53.001Z</time></trkpt><trkpt lat="43.45519907890241" lon="10.581482879489519"><ele>405.6</ele><time>2026-04-19T09:06:54.001Z</time></trkpt><trkpt lat="43.45522343926524" lon="10.58158434806653"><ele>407.0</ele><time>2026-04-19T09:06:55.001Z</time></trkpt><trkpt lat="43.45525268828707" lon="10.581687070788393"><ele>406.99999999999994</ele><time>2026-04-19T09:06:56.001Z</time></trkpt><trkpt lat="43.455265863891626" lon="10.581783497724645"><ele>407.0</ele><time>2026-04-19T09:06:57.001Z</time></trkpt><trkpt lat="43.455305361686555" lon="10.581948227768912"><ele>407.0</ele><time>2026-04-19T09:06:59.001Z</time></trkpt><trkpt lat="43.45532369018417" lon="10.58204210261002"><ele>407.0</ele><time>2026-04-19T09:07:00.001Z</time></trkpt><trkpt lat="43.4553421137722" lon="10.582145302517493"><ele>406.99999999999994</ele><time>2026-04-19T09:07:01.001Z</time></trkpt><trkpt lat="43.455342091782036" lon="10.582259541282607"><ele>407.0</ele><time>2026-04-19T09:07:02.001Z</time></trkpt><trkpt lat="43.45536528124286" lon="10.582376513432456"><ele>407.40000000000003</ele><time>2026-04-19T09:07:03.001Z</time></trkpt><trkpt lat="43.45538076662133" lon="10.582511182589675"><ele>407.8</ele><time>2026-04-19T09:07:04.001Z</time></trkpt><trkpt lat="43.4553894536462" lon="10.58264505717566"><ele>408.2</ele><time>2026-04-19T09:07:05.001Z</time></trkpt><trkpt lat="43.45540420265997" lon="10.582771199177804"><ele>408.6</ele><time>2026-04-19T09:07:06.001Z</time></trkpt><trkpt lat="43.4554150514051" lon="10.582908402789942"><ele>409.0</ele><time>2026-04-19T09:07:07.001Z</time></trkpt><trkpt lat="43.45540199441216" lon="10.583041164759805"><ele>410.2</ele><time>2026-04-19T09:07:08.001Z</time></trkpt><trkpt lat="43.45537104332858" lon="10.58317272619678"><ele>411.4</ele><time>2026-04-19T09:07:09.001Z</time></trkpt><trkpt lat="43.455349778906466" lon="10.583303221753848"><ele>412.6</ele><time>2026-04-19T09:07:10.001Z</time></trkpt><trkpt lat="43.45535257003518" lon="10.58342562858662"><ele>413.8</ele><time>2026-04-19T09:07:11.001Z</time></trkpt><trkpt lat="43.45536303685197" lon="10.583531047157871"><ele>415.0</ele><time>2026-04-19T09:07:12.001Z</time></trkpt><trkpt lat="43.45536967484905" lon="10.583656829888824"><ele>416.50000000000006</ele><time>2026-04-19T09:07:13.001Z</time></trkpt><trkpt lat="43.45538625819736" lon="10.583778248204082"><ele>418.0</ele><time>2026-04-19T09:07:14.001Z</time></trkpt><trkpt lat="43.45539538134413" lon="10.583896333427436"><ele>419.5</ele><time>2026-04-19T09:07:15.001Z</time></trkpt><trkpt lat="43.45540268245211" lon="10.584020631230416"><ele>421.0</ele><time>2026-04-19T09:07:16.001Z</time></trkpt><trkpt lat="43.45540831506729" lon="10.584133710768333"><ele>422.50000000000006</ele><time>2026-04-19T09:07:17.001Z</time></trkpt><trkpt lat="43.455437282309454" lon="10.58424177874798"><ele>424.0</ele><time>2026-04-19T09:07:18.001Z</time></trkpt><trkpt lat="43.455472330255" lon="10.58433875520267"><ele>424.00000000000006</ele><time>2026-04-19T09:07:19.001Z</time></trkpt><trkpt lat="43.45551035167616" lon="10.584438667785154"><ele>424.0</ele><time>2026-04-19T09:07:20.001Z</time></trkpt><trkpt lat="43.455550160361014" lon="10.584524043893135"><ele>424.0</ele><time>2026-04-19T09:07:21.001Z</time></trkpt><trkpt lat="43.455584142179404" lon="10.584626461538843"><ele>424.0</ele><time>2026-04-19T09:07:22.001Z</time></trkpt><trkpt lat="43.45561630182739" lon="10.58472389242667"><ele>424.00000000000006</ele><time>2026-04-19T09:07:23.001Z</time></trkpt><trkpt lat="43.455648331904406" lon="10.584827875941707"><ele>424.0</ele><time>2026-04-19T09:07:24.001Z</time></trkpt><trkpt lat="43.455680367605254" lon="10.584937754060988"><ele>425.6</ele><time>2026-04-19T09:07:25.001Z</time></trkpt><trkpt lat="43.45572974913036" lon="10.585042135167864"><ele>427.2</ele><time>2026-04-19T09:07:26.001Z</time></trkpt><trkpt lat="43.45578346847501" lon="10.585146359710961"><ele>428.80000000000007</ele><time>2026-04-19T09:07:27.001Z</time></trkpt><trkpt lat="43.45583677251351" lon="10.585263301354434"><ele>430.40000000000003</ele><time>2026-04-19T09:07:28.001Z</time></trkpt><trkpt lat="43.45587954780541" lon="10.585374064647795"><ele>432.0</ele><time>2026-04-19T09:07:29.001Z</time></trkpt><trkpt lat="43.45591697868192" lon="10.585472407360543"><ele>433.0</ele><time>2026-04-19T09:07:30.001Z</time></trkpt><trkpt lat="43.455948256104776" lon="10.585587362016941"><ele>434.0</ele><time>2026-04-19T09:07:31.001Z</time></trkpt><trkpt lat="43.455979479888924" lon="10.585681414301982"><ele>435.0</ele><time>2026-04-19T09:07:32Z</time></trkpt><trkpt lat="43.45601473439396" lon="10.585783375392737"><ele>436.0</ele><time>2026-04-19T09:07:33Z</time></trkpt><trkpt lat="43.45604437499716" lon="10.585888776669083"><ele>437.0</ele><time>2026-04-19T09:07:34Z</time></trkpt><trkpt lat="43.456080464230034" lon="10.58600163151333"><ele>438.0</ele><time>2026-04-19T09:07:35Z</time></trkpt><trkpt lat="43.45612122580015" lon="10.586121843356818"><ele>438.59999999999997</ele><time>2026-04-19T09:07:36Z</time></trkpt><trkpt lat="43.45616618828124" lon="10.586237247354259"><ele>439.19999999999993</ele><time>2026-04-19T09:07:37Z</time></trkpt><trkpt lat="43.45621557707306" lon="10.58635016604678"><ele>439.8</ele><time>2026-04-19T09:07:38Z</time></trkpt><trkpt lat="43.45627054984983" lon="10.586461163205954"><ele>440.4</ele><time>2026-04-19T09:07:39Z</time></trkpt><trkpt lat="43.4563342601223" lon="10.586579089603175"><ele>441.0</ele><time>2026-04-19T09:07:40Z</time></trkpt><trkpt lat="43.456400493799975" lon="10.586691182424754"><ele>441.1666666666667</ele><time>2026-04-19T09:07:41Z</time></trkpt><trkpt lat="43.45646259608363" lon="10.586794553176107"><ele>441.33333333333337</ele><time>2026-04-19T09:07:42Z</time></trkpt><trkpt lat="43.45651626173672" lon="10.586903941374512"><ele>441.5</ele><time>2026-04-19T09:07:43Z</time></trkpt><trkpt lat="43.45655731979896" lon="10.587004800920145"><ele>441.6666666666667</ele><time>2026-04-19T09:07:44Z</time></trkpt><trkpt lat="43.45658424783343" lon="10.587118313617752"><ele>441.83333333333337</ele><time>2026-04-19T09:07:45Z</time></trkpt><trkpt lat="43.456605054323646" lon="10.587222870670123"><ele>442.0</ele><time>2026-04-19T09:07:46Z</time></trkpt><trkpt lat="43.45662241158169" lon="10.587317472490513"><ele>444.1666666666667</ele><time>2026-04-19T09:07:47Z</time></trkpt><trkpt lat="43.45662995838679" lon="10.587432778439954"><ele>446.33333333333337</ele><time>2026-04-19T09:07:48Z</time></trkpt><trkpt lat="43.45664941498326" lon="10.587530530500667"><ele>448.5</ele><time>2026-04-19T09:07:49Z</time></trkpt><trkpt lat="43.45667052354883" lon="10.587638559646248"><ele>450.66666666666663</ele><time>2026-04-19T09:07:50Z</time></trkpt><trkpt lat="43.45669939284878" lon="10.587734167777853"><ele>452.8333333333333</ele><time>2026-04-19T09:07:51Z</time></trkpt><trkpt lat="43.45673511762883" lon="10.587829021336553"><ele>455.0</ele><time>2026-04-19T09:07:52Z</time></trkpt><trkpt lat="43.45678537000217" lon="10.58791180645571"><ele>456.66666666666663</ele><time>2026-04-19T09:07:53Z</time></trkpt><trkpt lat="43.45684818816682" lon="10.58798666068805"><ele>458.3333333333333</ele><time>2026-04-19T09:07:54Z</time></trkpt><trkpt lat="43.456921855333945" lon="10.588059334627026"><ele>460.0</ele><time>2026-04-19T09:07:55Z</time></trkpt><trkpt lat="43.45699314404929" lon="10.588141044116576"><ele>461.66666666666663</ele><time>2026-04-19T09:07:56Z</time></trkpt><trkpt lat="43.457074164405185" lon="10.5881982990823"><ele>463.3333333333333</ele><time>2026-04-19T09:07:57Z</time></trkpt><trkpt lat="43.45713163823721" lon="10.58825045907225"><ele>465.0</ele><time>2026-04-19T09:07:58Z</time></trkpt><trkpt lat="43.45718856591402" lon="10.588316523074337"><ele>465.0</ele><time>2026-04-19T09:07:59Z</time></trkpt><trkpt lat="43.45725710206161" lon="10.588430303839136"><ele>465.0</ele><time>2026-04-19T09:08:01Z</time></trkpt><trkpt lat="43.45732606546604" lon="10.588556839030717"><ele>465.0</ele><time>2026-04-19T09:08:03Z</time></trkpt><trkpt lat="43.45736918262194" lon="10.588623342035948"><ele>465.0</ele><time>2026-04-19T09:08:04Z</time></trkpt><trkpt lat="43.457460925413315" lon="10.588708922039032"><ele>465.0</ele><time>2026-04-19T09:08:06Z</time></trkpt><trkpt lat="43.457536392643455" lon="10.588717940707042"><ele>469.0</ele><time>2026-04-19T09:08:07Z</time></trkpt><trkpt lat="43.45765409846178" lon="10.588754958037127"><ele>473.0</ele><time>2026-04-19T09:08:09Z</time></trkpt><trkpt lat="43.457765142798415" lon="10.588835480804601"><ele>477.0</ele><time>2026-04-19T09:08:11Z</time></trkpt><trkpt lat="43.45782517455831" lon="10.588884060033177"><ele>481.0</ele><time>2026-04-19T09:08:12Z</time></trkpt><trkpt lat="43.45788232795314" lon="10.588945426119459"><ele>485.0</ele><time>2026-04-19T09:08:13Z</time></trkpt><trkpt lat="43.457928583677244" lon="10.589024346458372"><ele>485.6</ele><time>2026-04-19T09:08:14Z</time></trkpt><trkpt lat="43.457988068703905" lon="10.58910769835521"><ele>486.2</ele><time>2026-04-19T09:08:15Z</time></trkpt><trkpt lat="43.458029557295134" lon="10.589187496877814"><ele>486.79999999999995</ele><time>2026-04-19T09:08:16Z</time></trkpt><trkpt lat="43.458112570275404" lon="10.589337113499194"><ele>487.4</ele><time>2026-04-19T09:08:18Z</time></trkpt><trkpt lat="43.45817186786113" lon="10.589415086983115"><ele>488.0</ele><time>2026-04-19T09:08:19Z</time></trkpt><trkpt lat="43.45822245679668" lon="10.589509386901518"><ele>488.0</ele><time>2026-04-19T09:08:20Z</time></trkpt><trkpt lat="43.458257352510635" lon="10.589616821447882"><ele>487.99999999999994</ele><time>2026-04-19T09:08:21Z</time></trkpt><trkpt lat="43.45829190329599" lon="10.589727614499248"><ele>487.99999999999994</ele><time>2026-04-19T09:08:22Z</time></trkpt><trkpt lat="43.45834702247546" lon="10.589803387202512"><ele>488.0</ele><time>2026-04-19T09:08:23Z</time></trkpt><trkpt lat="43.45843517134029" lon="10.589851767572311"><ele>488.0</ele><time>2026-04-19T09:08:24Z</time></trkpt><trkpt lat="43.458535765648065" lon="10.589901541089738"><ele>487.99999999999994</ele><time>2026-04-19T09:08:26Z</time></trkpt><trkpt lat="43.45861964923919" lon="10.59002095278125"><ele>488.0</ele><time>2026-04-19T09:08:28.001Z</time></trkpt><trkpt lat="43.458660992724674" lon="10.59010882232809"><ele>488.0</ele><time>2026-04-19T09:08:29.001Z</time></trkpt><trkpt lat="43.45869863486281" lon="10.59020130039097"><ele>488.0</ele><time>2026-04-19T09:08:30.001Z</time></trkpt><trkpt lat="43.458730921582706" lon="10.590288596839724"><ele>487.99999999999994</ele><time>2026-04-19T09:08:31.001Z</time></trkpt><trkpt lat="43.45877626902231" lon="10.59041185864158"><ele>488.0</ele><time>2026-04-19T09:08:32.001Z</time></trkpt><trkpt lat="43.45882055360411" lon="10.590513924579218"><ele>487.99999999999994</ele><time>2026-04-19T09:08:33.001Z</time></trkpt><trkpt lat="43.458876744573054" lon="10.590596489180408"><ele>488.0</ele><time>2026-04-19T09:08:34.001Z</time></trkpt><trkpt lat="43.458960818188615" lon="10.59063818302609"><ele>488.0</ele><time>2026-04-19T09:08:35.001Z</time></trkpt><trkpt lat="43.45903515428932" lon="10.590681779306198"><ele>488.0</ele><time>2026-04-19T09:08:36.001Z</time></trkpt><trkpt lat="43.45909605238933" lon="10.59071436965357"><ele>487.99999999999994</ele><time>2026-04-19T09:08:37.001Z</time></trkpt><trkpt lat="43.45918535244525" lon="10.590739592121851"><ele>488.0</ele><time>2026-04-19T09:08:38.001Z</time></trkpt><trkpt lat="43.45925426711476" lon="10.590784469740248"><ele>487.99999999999994</ele><time>2026-04-19T09:08:39.001Z</time></trkpt><trkpt lat="43.4593357429539" lon="10.590823911582671"><ele>488.0</ele><time>2026-04-19T09:08:40.001Z</time></trkpt><trkpt lat="43.459411444386774" lon="10.59084454976688"><ele>488.0</ele><time>2026-04-19T09:08:41.001Z</time></trkpt><trkpt lat="43.459470270533785" lon="10.59088924973393"><ele>488.0</ele><time>2026-04-19T09:08:42.001Z</time></trkpt><trkpt lat="43.45954341928511" lon="10.590942139184884"><ele>487.99999999999994</ele><time>2026-04-19T09:08:43.001Z</time></trkpt><trkpt lat="43.45958856815199" lon="10.591047443999702"><ele>488.0</ele><time>2026-04-19T09:08:44.001Z</time></trkpt><trkpt lat="43.459642088342186" lon="10.59114399207793"><ele>487.59999999999997</ele><time>2026-04-19T09:08:45.001Z</time></trkpt><trkpt lat="43.45970310037227" lon="10.591245688397544"><ele>487.19999999999993</ele><time>2026-04-19T09:08:46.001Z</time></trkpt><trkpt lat="43.45979403558893" lon="10.591303294655656"><ele>486.8</ele><time>2026-04-19T09:08:47.001Z</time></trkpt><trkpt lat="43.459857389770086" lon="10.591400908284516"><ele>486.4</ele><time>2026-04-19T09:08:48.001Z</time></trkpt><trkpt lat="43.45990936737472" lon="10.591507123135443"><ele>486.0</ele><time>2026-04-19T09:08:49.001Z</time></trkpt><trkpt lat="43.45995197748875" lon="10.591630000282215"><ele>486.0</ele><time>2026-04-19T09:08:50.001Z</time></trkpt><trkpt lat="43.45999304055893" lon="10.591746779378303"><ele>486.0</ele><time>2026-04-19T09:08:51.001Z</time></trkpt><trkpt lat="43.460033948307526" lon="10.591861135563473"><ele>486.0</ele><time>2026-04-19T09:08:52.001Z</time></trkpt><trkpt lat="43.46006700502949" lon="10.591974916172544"><ele>486.0</ele><time>2026-04-19T09:08:53.001Z</time></trkpt><trkpt lat="43.460070208547336" lon="10.592076208922188"><ele>486.0</ele><time>2026-04-19T09:08:54.001Z</time></trkpt><trkpt lat="43.460071784579526" lon="10.592188166227638"><ele>486.0</ele><time>2026-04-19T09:08:56.001Z</time></trkpt><trkpt lat="43.46010382328163" lon="10.59227497181359"><ele>486.3333333333333</ele><time>2026-04-19T09:08:58.001Z</time></trkpt><trkpt lat="43.46017012751779" lon="10.592368978397625"><ele>486.66666666666663</ele><time>2026-04-19T09:09:01.001Z</time></trkpt><trkpt lat="43.460231880057776" lon="10.592417584387217"><ele>487.0</ele><time>2026-04-19T09:09:12.001Z</time></trkpt><trkpt lat="43.46030686640101" lon="10.592419336652117"><ele>487.3333333333333</ele><time>2026-04-19T09:09:24.001Z</time></trkpt><trkpt lat="43.46037773274701" lon="10.592439685396679"><ele>487.66666666666663</ele><time>2026-04-19T09:09:26.001Z</time></trkpt><trkpt lat="43.46048558547593" lon="10.59245132036869"><ele>488.0</ele><time>2026-04-19T09:09:28.001Z</time></trkpt><trkpt lat="43.460548523061824" lon="10.592453274235968"><ele>486.66666666666663</ele><time>2026-04-19T09:09:29.001Z</time></trkpt><trkpt lat="43.46061642794091" lon="10.592457010016085"><ele>485.3333333333333</ele><time>2026-04-19T09:09:30.001Z</time></trkpt><trkpt lat="43.460682670499835" lon="10.592467521507572"><ele>484.0</ele><time>2026-04-19T09:09:31.001Z</time></trkpt><trkpt lat="43.46075327909793" lon="10.592480291074493"><ele>482.66666666666663</ele><time>2026-04-19T09:09:32.001Z</time></trkpt><trkpt lat="43.460816323321374" lon="10.592492882670445"><ele>481.3333333333333</ele><time>2026-04-19T09:09:33.001Z</time></trkpt><trkpt lat="43.460881188968926" lon="10.592504296821975"><ele>480.0</ele><time>2026-04-19T09:09:34.001Z</time></trkpt><trkpt lat="43.460996928666226" lon="10.592548022712766"><ele>480.0</ele><time>2026-04-19T09:09:36.001Z</time></trkpt><trkpt lat="43.46109753098784" lon="10.592597091846702"><ele>480.0</ele><time>2026-04-19T09:09:38Z</time></trkpt><trkpt lat="43.46118479056162" lon="10.592672029783449"><ele>480.0</ele><time>2026-04-19T09:09:40Z</time></trkpt><trkpt lat="43.4612640178832" lon="10.592779211954085"><ele>480.0</ele><time>2026-04-19T09:09:42Z</time></trkpt><trkpt lat="43.46134883261069" lon="10.592832258507249"><ele>480.0</ele><time>2026-04-19T09:09:44Z</time></trkpt><trkpt lat="43.46142233650685" lon="10.592772646246681"><ele>479.0</ele><time>2026-04-19T09:09:46Z</time></trkpt><trkpt lat="43.46146395480423" lon="10.592650008304776"><ele>478.0</ele><time>2026-04-19T09:09:48Z</time></trkpt><trkpt lat="43.46149401786319" lon="10.592522148478153"><ele>477.0</ele><time>2026-04-19T09:09:50Z</time></trkpt><trkpt lat="43.461535225101066" lon="10.592420636098243"><ele>476.0</ele><time>2026-04-19T09:09:52Z</time></trkpt><trkpt lat="43.46160701077443" lon="10.592378336700477"><ele>475.0</ele><time>2026-04-19T09:09:55Z</time></trkpt><trkpt lat="43.461676635891095" lon="10.59241228519244"><ele>474.0</ele><time>2026-04-19T09:09:58Z</time></trkpt><trkpt lat="43.461746674689856" lon="10.592502584235445"><ele>474.0</ele><time>2026-04-19T09:10:01Z</time></trkpt><trkpt lat="43.46183403529298" lon="10.592591932882229"><ele>474.0</ele><time>2026-04-19T09:10:03Z</time></trkpt><trkpt lat="43.46191149837676" lon="10.592700456697564"><ele>474.0</ele><time>2026-04-19T09:10:05Z</time></trkpt><trkpt lat="43.46198523067601" lon="10.592811280307664"><ele>474.0</ele><time>2026-04-19T09:10:07Z</time></trkpt><trkpt lat="43.462080666620054" lon="10.592915318011618"><ele>474.2</ele><time>2026-04-19T09:10:09Z</time></trkpt><trkpt lat="43.462131399597446" lon="10.592967232541893"><ele>474.4</ele><time>2026-04-19T09:10:10Z</time></trkpt><trkpt lat="43.462237675609394" lon="10.593055061816866"><ele>474.6</ele><time>2026-04-19T09:10:12Z</time></trkpt><trkpt lat="43.46229634631566" lon="10.593102210884988"><ele>474.8</ele><time>2026-04-19T09:10:13Z</time></trkpt><trkpt lat="43.462406021340655" lon="10.593178093475222"><ele>475.0</ele><time>2026-04-19T09:10:15Z</time></trkpt><trkpt lat="43.462518091961094" lon="10.593217176320861"><ele>475.0</ele><time>2026-04-19T09:10:17Z</time></trkpt><trkpt lat="43.46262538694463" lon="10.593204875958099"><ele>475.0</ele><time>2026-04-19T09:10:19Z</time></trkpt><trkpt lat="43.46273213579964" lon="10.593139222212402"><ele>475.0</ele><time>2026-04-19T09:10:21Z</time></trkpt><trkpt lat="43.462837393703815" lon="10.593040920583498"><ele>475.0</ele><time>2026-04-19T09:10:23Z</time></trkpt><trkpt lat="43.46289406919556" lon="10.59297534908689"><ele>475.0</ele><time>2026-04-19T09:10:24Z</time></trkpt><trkpt lat="43.46295020215022" lon="10.592917832420728"><ele>476.6666666666667</ele><time>2026-04-19T09:10:25Z</time></trkpt><trkpt lat="43.46301069775909" lon="10.59285709791466"><ele>478.33333333333337</ele><time>2026-04-19T09:10:26Z</time></trkpt><trkpt lat="43.463062254586895" lon="10.592794458756272"><ele>480.0</ele><time>2026-04-19T09:10:27Z</time></trkpt><trkpt lat="43.463117652422355" lon="10.592699126893876"><ele>481.66666666666663</ele><time>2026-04-19T09:10:29Z</time></trkpt><trkpt lat="43.463169529910004" lon="10.59259343639878"><ele>483.3333333333333</ele><time>2026-04-19T09:12:29.001Z</time></trkpt><trkpt lat="43.463204878495695" lon="10.592509467928428"><ele>485.0</ele><time>2026-04-19T09:12:31.001Z</time></trkpt><trkpt lat="43.463244321819076" lon="10.592419059637008"><ele>485.99999999999994</ele><time>2026-04-19T09:12:33.001Z</time></trkpt><trkpt lat="43.463291176881356" lon="10.592317266586445"><ele>487.0</ele><time>2026-04-19T09:12:35.001Z</time></trkpt><trkpt lat="43.463333949759004" lon="10.592208855777121"><ele>488.0</ele><time>2026-04-19T09:12:37.001Z</time></trkpt><trkpt lat="43.463382785718046" lon="10.592096144286659"><ele>489.0</ele><time>2026-04-19T09:12:39.001Z</time></trkpt><trkpt lat="43.4634263369973" lon="10.591998795171289"><ele>489.99999999999994</ele><time>2026-04-19T09:12:41.001Z</time></trkpt><trkpt lat="43.46347406408515" lon="10.591905529596296"><ele>491.0</ele><time>2026-04-19T09:12:44.001Z</time></trkpt><trkpt lat="43.463434085869046" lon="10.591973896862767"><ele>491.2857142857143</ele><time>2026-04-19T09:13:50Z</time></trkpt><trkpt lat="43.46349171062646" lon="10.59193056274375"><ele>491.57142857142856</ele><time>2026-04-19T09:14:50.001Z</time></trkpt><trkpt lat="43.4635558666458" lon="10.591875577451903"><ele>491.85714285714283</ele><time>2026-04-19T09:14:55.001Z</time></trkpt><trkpt lat="43.46349048851266" lon="10.591855885291178"><ele>492.1428571428571</ele><time>2026-04-19T09:16:16Z</time></trkpt><trkpt lat="43.46357071386947" lon="10.591881002682301"><ele>492.42857142857144</ele><time>2026-04-19T09:16:20Z</time></trkpt><trkpt lat="43.463498913503805" lon="10.591862350180824"><ele>492.71428571428567</ele><time>2026-04-19T09:16:47Z</time></trkpt><trkpt lat="43.46343525316721" lon="10.591862036961762"><ele>493.0</ele><time>2026-04-19T09:16:52Z</time></trkpt><trkpt lat="43.463350175623134" lon="10.591906617324852"><ele>492.59999999999997</ele><time>2026-04-19T09:16:55Z</time></trkpt><trkpt lat="43.46328163129287" lon="10.592082387915887"><ele>492.19999999999993</ele><time>2026-04-19T09:16:57Z</time></trkpt><trkpt lat="43.46331219132476" lon="10.59222933070181"><ele>491.8</ele><time>2026-04-19T09:16:58Z</time></trkpt><trkpt lat="43.463291866850206" lon="10.592315201085498"><ele>491.4</ele><time>2026-04-19T09:17:00Z</time></trkpt><trkpt lat="43.463235403864786" lon="10.592408791732495"><ele>491.0</ele><time>2026-04-19T09:17:03Z</time></trkpt><trkpt lat="43.46319078009368" lon="10.592523593598118"><ele>491.0</ele><time>2026-04-19T09:17:06.001Z</time></trkpt><trkpt lat="43.46314468499346" lon="10.592636544815962"><ele>491.0</ele><time>2026-04-19T09:17:08.001Z</time></trkpt><trkpt lat="43.46309226269218" lon="10.59273265698231"><ele>491.0</ele><time>2026-04-19T09:17:10.001Z</time></trkpt><trkpt lat="43.463033099653714" lon="10.592821627132405"><ele>491.0</ele><time>2026-04-19T09:17:12.001Z</time></trkpt><trkpt lat="43.46296031098257" lon="10.592901049565201"><ele>491.0</ele><time>2026-04-19T09:17:14.001Z</time></trkpt><trkpt lat="43.46288588614225" lon="10.5929799030295"><ele>487.8</ele><time>2026-04-19T09:17:16.001Z</time></trkpt><trkpt lat="43.46280923562255" lon="10.59306080868232"><ele>484.6</ele><time>2026-04-19T09:17:18.001Z</time></trkpt><trkpt lat="43.46273236626147" lon="10.59314454382454"><ele>481.4</ele><time>2026-04-19T09:17:20.001Z</time></trkpt><trkpt lat="43.46264661345377" lon="10.593188016138251"><ele>478.2</ele><time>2026-04-19T09:17:22.001Z</time></trkpt><trkpt lat="43.46255833036384" lon="10.593195590679052"><ele>475.0</ele><time>2026-04-19T09:17:24.001Z</time></trkpt><trkpt lat="43.46247811730443" lon="10.593171798437877"><ele>475.0</ele><time>2026-04-19T09:17:26.001Z</time></trkpt><trkpt lat="43.46246933527799" lon="10.593350205438231"><ele>475.0</ele><time>2026-04-19T09:17:28.001Z</time></trkpt><trkpt lat="43.462276450604314" lon="10.593062073656323"><ele>475.0</ele><time>2026-04-19T09:17:30.001Z</time></trkpt><trkpt lat="43.462169392194255" lon="10.592980674545291"><ele>475.00000000000006</ele><time>2026-04-19T09:17:32.001Z</time></trkpt><trkpt lat="43.46211560297652" lon="10.592930792819589"><ele>475.0</ele><time>2026-04-19T09:17:33.001Z</time></trkpt><trkpt lat="43.46206265879239" lon="10.592879863831064"><ele>475.0</ele><time>2026-04-19T09:17:34.001Z</time></trkpt><trkpt lat="43.46198763285113" lon="10.59277687485731"><ele>475.0</ele><time>2026-04-19T09:17:36.001Z</time></trkpt><trkpt lat="43.46191412029704" lon="10.592674397456557"><ele>475.00000000000006</ele><time>2026-04-19T09:17:38.001Z</time></trkpt><trkpt lat="43.46185179921904" lon="10.59257656053024"><ele>475.0</ele><time>2026-04-19T09:17:40.001Z</time></trkpt><trkpt lat="43.46178970688641" lon="10.592482309503751"><ele>474.8571428571429</ele><time>2026-04-19T09:17:42.001Z</time></trkpt><trkpt lat="43.461733764291495" lon="10.592407502722093"><ele>474.7142857142858</ele><time>2026-04-19T09:17:44.001Z</time></trkpt><trkpt lat="43.46167731837256" lon="10.592346426402104"><ele>474.57142857142856</ele><time>2026-04-19T09:17:49.001Z</time></trkpt><trkpt lat="43.461609597383145" lon="10.59237751138076"><ele>474.42857142857144</ele><time>2026-04-19T09:18:37Z</time></trkpt><trkpt lat="43.46167214764159" lon="10.592432326025529"><ele>474.2857142857143</ele><time>2026-04-19T09:19:25.001Z</time></trkpt><trkpt lat="43.461702421772166" lon="10.592513278379013"><ele>474.1428571428571</ele><time>2026-04-19T09:19:30.001Z</time></trkpt><trkpt lat="43.46172294796938" lon="10.59262699186066"><ele>473.99999999999994</ele><time>2026-04-19T09:20:45Z</time></trkpt><trkpt lat="43.46173600505091" lon="10.592716527011232"><ele>474.0</ele><time>2026-04-19T09:20:48Z</time></trkpt><trkpt lat="43.461754183472905" lon="10.59279975506381"><ele>474.0</ele><time>2026-04-19T09:20:50Z</time></trkpt><trkpt lat="43.46177909556778" lon="10.592901874670687"><ele>474.0</ele><time>2026-04-19T09:20:53Z</time></trkpt><trkpt lat="43.461803137760924" lon="10.592997512309111"><ele>474.0</ele><time>2026-04-19T09:20:56.001Z</time></trkpt><trkpt lat="43.46185325103448" lon="10.593109253125423"><ele>474.0</ele><time>2026-04-19T09:20:59.001Z</time></trkpt><trkpt lat="43.461896584775694" lon="10.593203511215727"><ele>474.0</ele><time>2026-04-19T09:21:01.001Z</time></trkpt><trkpt lat="43.46192130384705" lon="10.593312534872103"><ele>473.1666666666667</ele><time>2026-04-19T09:21:12.001Z</time></trkpt><trkpt lat="43.461932788062285" lon="10.593414480147844"><ele>472.33333333333337</ele><time>2026-04-19T09:21:14.001Z</time></trkpt><trkpt lat="43.46196284401585" lon="10.593512752048385"><ele>471.5</ele><time>2026-04-19T09:21:16.001Z</time></trkpt><trkpt lat="43.46198974555563" lon="10.593619600519597"><ele>470.6666666666667</ele><time>2026-04-19T09:21:20.001Z</time></trkpt><trkpt lat="43.46199564192727" lon="10.593736707696337"><ele>469.83333333333337</ele><time>2026-04-19T09:21:23.001Z</time></trkpt><trkpt lat="43.461989079017265" lon="10.593828543207083"><ele>469.0</ele><time>2026-04-19T09:21:25.001Z</time></trkpt><trkpt lat="43.461979397991875" lon="10.593919030866937"><ele>469.0</ele><time>2026-04-19T09:21:27.001Z</time></trkpt><trkpt lat="43.461980869738795" lon="10.594022889863849"><ele>469.0</ele><time>2026-04-19T09:21:29.001Z</time></trkpt><trkpt lat="43.46201178659757" lon="10.594103701367725"><ele>469.0</ele><time>2026-04-19T09:21:31.001Z</time></trkpt><trkpt lat="43.46204292376211" lon="10.594199405922039"><ele>469.0</ele><time>2026-04-19T09:21:33.001Z</time></trkpt><trkpt lat="43.46207477057944" lon="10.594275435364466"><ele>469.0</ele><time>2026-04-19T09:21:35.001Z</time></trkpt><trkpt lat="43.462096666941854" lon="10.594383032682726"><ele>469.0</ele><time>2026-04-19T09:21:38.001Z</time></trkpt><trkpt lat="43.4620731779045" lon="10.594495785035505"><ele>469.0</ele><time>2026-04-19T09:21:41.001Z</time></trkpt><trkpt lat="43.46204930635341" lon="10.594616185003188"><ele>468.50000000000006</ele><time>2026-04-19T09:21:43.001Z</time></trkpt><trkpt lat="43.46202914650058" lon="10.594728919031825"><ele>468.0</ele><time>2026-04-19T09:21:45.001Z</time></trkpt><trkpt lat="43.46202138633665" lon="10.594835774140506"><ele>467.5</ele><time>2026-04-19T09:21:48.001Z</time></trkpt><trkpt lat="43.462004596764444" lon="10.594923448028034"><ele>467.0</ele><time>2026-04-19T09:21:51.002Z</time></trkpt><trkpt lat="43.46199959464649" lon="10.595045450303076"><ele>466.50000000000006</ele><time>2026-04-19T09:21:54.002Z</time></trkpt><trkpt lat="43.461997843205864" lon="10.595132620948544"><ele>466.0</ele><time>2026-04-19T09:21:57.002Z</time></trkpt><trkpt lat="43.4620119746496" lon="10.595273238336247"><ele>465.1666666666667</ele><time>2026-04-19T09:22:01.002Z</time></trkpt><trkpt lat="43.46201400148355" lon="10.595402294215798"><ele>464.33333333333337</ele><time>2026-04-19T09:22:03.002Z</time></trkpt><trkpt lat="43.46200941515124" lon="10.595508863904879"><ele>463.5</ele><time>2026-04-19T09:22:05.002Z</time></trkpt><trkpt lat="43.46201055895717" lon="10.595629359813064"><ele>462.66666666666663</ele><time>2026-04-19T09:22:08.002Z</time></trkpt><trkpt lat="43.46200142286625" lon="10.595738997493623"><ele>461.8333333333333</ele><time>2026-04-19T09:22:10.002Z</time></trkpt><trkpt lat="43.4620008571106" lon="10.595859612993857"><ele>461.0</ele><time>2026-04-19T09:22:12.002Z</time></trkpt><trkpt lat="43.462012830019475" lon="10.595996500328125"><ele>460.99999999999994</ele><time>2026-04-19T09:22:14.001Z</time></trkpt><trkpt lat="43.4620455581406" lon="10.596128230543545"><ele>461.0</ele><time>2026-04-19T09:22:16.001Z</time></trkpt><trkpt lat="43.46206871909399" lon="10.596227018124235"><ele>461.0</ele><time>2026-04-19T09:22:18.001Z</time></trkpt><trkpt lat="43.462095850706106" lon="10.596321734767255"><ele>461.0</ele><time>2026-04-19T09:22:20.001Z</time></trkpt><trkpt lat="43.46212304033301" lon="10.596429149191799"><ele>460.99999999999994</ele><time>2026-04-19T09:22:23.001Z</time></trkpt><trkpt lat="43.46213940733893" lon="10.59651315505916"><ele>461.0</ele><time>2026-04-19T09:22:25.001Z</time></trkpt><trkpt lat="43.4621732765948" lon="10.596627764015029"><ele>461.20000000000005</ele><time>2026-04-19T09:22:27.001Z</time></trkpt><trkpt lat="43.462207786551026" lon="10.596760965502842"><ele>461.40000000000003</ele><time>2026-04-19T09:22:29.001Z</time></trkpt><trkpt lat="43.462232346191804" lon="10.596893225735442"><ele>461.6</ele><time>2026-04-19T09:22:31.001Z</time></trkpt><trkpt lat="43.46225248757404" lon="10.597010797789997"><ele>461.8</ele><time>2026-04-19T09:22:33.001Z</time></trkpt><trkpt lat="43.46226569674356" lon="10.597112268099302"><ele>462.0</ele><time>2026-04-19T09:22:35.001Z</time></trkpt><trkpt lat="43.46230176533332" lon="10.597229543732805"><ele>460.6666666666667</ele><time>2026-04-19T09:22:37.001Z</time></trkpt><trkpt lat="43.4623477889988" lon="10.597341496729404"><ele>459.33333333333337</ele><time>2026-04-19T09:22:39.001Z</time></trkpt><trkpt lat="43.46238733992641" lon="10.59744701020441"><ele>458.0</ele><time>2026-04-19T09:22:41.001Z</time></trkpt><trkpt lat="43.46241670740369" lon="10.597533144166391"><ele>456.6666666666667</ele><time>2026-04-19T09:22:43.001Z</time></trkpt><trkpt lat="43.46246414866792" lon="10.597596147563888"><ele>455.33333333333337</ele><time>2026-04-19T09:22:47.001Z</time></trkpt><trkpt lat="43.462534775575364" lon="10.59766214877064"><ele>454.0</ele><time>2026-04-19T09:22:51.001Z</time></trkpt><trkpt lat="43.4625084251705" lon="10.597764188053905"><ele>454.0</ele><time>2026-04-19T09:22:56.001Z</time></trkpt><trkpt lat="43.46246460814601" lon="10.597833432468056"><ele>454.00000000000006</ele><time>2026-04-19T09:22:58.001Z</time></trkpt><trkpt lat="43.46242305772224" lon="10.597937361713809"><ele>454.0</ele><time>2026-04-19T09:23:00.001Z</time></trkpt><trkpt lat="43.462388718559474" lon="10.598035693864018"><ele>454.0</ele><time>2026-04-19T09:23:02.001Z</time></trkpt><trkpt lat="43.46237244087741" lon="10.598129398926991"><ele>454.00000000000006</ele><time>2026-04-19T09:23:05.001Z</time></trkpt><trkpt lat="43.462383417131406" lon="10.598226685640544"><ele>454.0</ele><time>2026-04-19T09:23:08.001Z</time></trkpt><trkpt lat="43.462400631833454" lon="10.59831978289442"><ele>454.0</ele><time>2026-04-19T09:23:10.001Z</time></trkpt><trkpt lat="43.46240998078035" lon="10.598407923025281"><ele>453.6666666666667</ele><time>2026-04-19T09:23:12.001Z</time></trkpt><trkpt lat="43.46241227115069" lon="10.59852004913173"><ele>453.33333333333337</ele><time>2026-04-19T09:23:15.001Z</time></trkpt><trkpt lat="43.462406632192945" lon="10.598640154838982"><ele>453.0</ele><time>2026-04-19T09:23:18.001Z</time></trkpt><trkpt lat="43.46239797638937" lon="10.598735724654883"><ele>452.66666666666663</ele><time>2026-04-19T09:23:20.001Z</time></trkpt><trkpt lat="43.462408060221094" lon="10.598823796429476"><ele>452.3333333333333</ele><time>2026-04-19T09:23:22.001Z</time></trkpt><trkpt lat="43.462445215128525" lon="10.598931887137631"><ele>452.0</ele><time>2026-04-19T09:23:26.001Z</time></trkpt><trkpt lat="43.46248398807844" lon="10.599037318232238"><ele>451.7142857142857</ele><time>2026-04-19T09:23:29.001Z</time></trkpt><trkpt lat="43.46251024837077" lon="10.599123149630021"><ele>451.42857142857144</ele><time>2026-04-19T09:23:31.001Z</time></trkpt><trkpt lat="43.46250478260164" lon="10.599231681317193"><ele>451.14285714285717</ele><time>2026-04-19T09:23:34.001Z</time></trkpt><trkpt lat="43.4624852172566" lon="10.599349541600166"><ele>450.8571428571429</ele><time>2026-04-19T09:23:37.001Z</time></trkpt><trkpt lat="43.46248489951222" lon="10.599437301089777"><ele>450.57142857142856</ele><time>2026-04-19T09:23:39.001Z</time></trkpt><trkpt lat="43.46248128185825" lon="10.599533464405443"><ele>450.28571428571433</ele><time>2026-04-19T09:23:42.001Z</time></trkpt><trkpt lat="43.46249257066877" lon="10.599628344267353"><ele>450.00000000000006</ele><time>2026-04-19T09:23:44.001Z</time></trkpt><trkpt lat="43.46248781616857" lon="10.599728468126536"><ele>449.1666666666667</ele><time>2026-04-19T09:23:46.001Z</time></trkpt><trkpt lat="43.46246027850774" lon="10.599827097798281"><ele>448.33333333333337</ele><time>2026-04-19T09:23:48.001Z</time></trkpt><trkpt lat="43.46242513560469" lon="10.599911978885366"><ele>447.5</ele><time>2026-04-19T09:23:50.001Z</time></trkpt><trkpt lat="43.4623875721226" lon="10.600004191915353"><ele>446.6666666666667</ele><time>2026-04-19T09:23:52.002Z</time></trkpt><trkpt lat="43.462391813315236" lon="10.600112435051098"><ele>445.83333333333337</ele><time>2026-04-19T09:23:55.002Z</time></trkpt><trkpt lat="43.46241584423893" lon="10.600220830502217"><ele>445.0</ele><time>2026-04-19T09:23:59.002Z</time></trkpt><trkpt lat="43.46242327820659" lon="10.600334930474936"><ele>444.8571428571429</ele><time>2026-04-19T09:24:01.002Z</time></trkpt><trkpt lat="43.4624057506906" lon="10.600447450643527"><ele>444.71428571428567</ele><time>2026-04-19T09:24:03.002Z</time></trkpt><trkpt lat="43.46239313529913" lon="10.600547344423841"><ele>444.57142857142856</ele><time>2026-04-19T09:24:05.002Z</time></trkpt><trkpt lat="43.46239137784755" lon="10.600644163194923"><ele>444.42857142857144</ele><time>2026-04-19T09:24:07.002Z</time></trkpt><trkpt lat="43.46239540874077" lon="10.600730843135915"><ele>444.28571428571433</ele><time>2026-04-19T09:24:09.002Z</time></trkpt><trkpt lat="43.46239056227781" lon="10.600823800257412"><ele>444.1428571428571</ele><time>2026-04-19T09:24:15.002Z</time></trkpt><trkpt lat="43.46237854771225" lon="10.600922999855863"><ele>444.0</ele><time>2026-04-19T09:24:18.002Z</time></trkpt><trkpt lat="43.46234621577047" lon="10.601027251735486"><ele>444.0</ele><time>2026-04-19T09:24:20.001Z</time></trkpt><trkpt lat="43.462322966084244" lon="10.601134916917003"><ele>444.0</ele><time>2026-04-19T09:24:22.001Z</time></trkpt><trkpt lat="43.46229620918715" lon="10.601228086410668"><ele>444.0</ele><time>2026-04-19T09:24:23.001Z</time></trkpt><trkpt lat="43.462241283740575" lon="10.60133699217354"><ele>444.0</ele><time>2026-04-19T09:24:25.001Z</time></trkpt><trkpt lat="43.46221469833611" lon="10.601440988215405"><ele>444.0</ele><time>2026-04-19T09:24:27.001Z</time></trkpt><trkpt lat="43.46222336655461" lon="10.60154527975893"><ele>444.0</ele><time>2026-04-19T09:24:30Z</time></trkpt><trkpt lat="43.462222587574345" lon="10.601680420068881"><ele>442.0</ele><time>2026-04-19T09:24:32Z</time></trkpt><trkpt lat="43.46223163464185" lon="10.601835380014258"><ele>440.0</ele><time>2026-04-19T09:24:34Z</time></trkpt><trkpt lat="43.46224426284624" lon="10.601940182759126"><ele>438.0</ele><time>2026-04-19T09:24:35Z</time></trkpt><trkpt lat="43.4622433277432" lon="10.602030284057316"><ele>436.0</ele><time>2026-04-19T09:24:36Z</time></trkpt><trkpt lat="43.4622460524009" lon="10.602206283597543"><ele>434.0</ele><time>2026-04-19T09:24:38Z</time></trkpt><trkpt lat="43.462259308568136" lon="10.602320815321056"><ele>432.49999999999994</ele><time>2026-04-19T09:24:40Z</time></trkpt><trkpt lat="43.46227166954689" lon="10.602435858671903"><ele>431.0</ele><time>2026-04-19T09:24:44.001Z</time></trkpt><trkpt lat="43.462277811837765" lon="10.602526509389929"><ele>429.5</ele><time>2026-04-19T09:24:52.001Z</time></trkpt><trkpt lat="43.46233620795192" lon="10.60259627447419"><ele>428.0</ele><time>2026-04-19T09:25:46.001Z</time></trkpt><trkpt lat="43.462407219620566" lon="10.602643199959317"><ele>426.49999999999994</ele><time>2026-04-19T09:25:48.001Z</time></trkpt><trkpt lat="43.46249494854815" lon="10.60271702810338"><ele>425.0</ele><time>2026-04-19T09:25:50.001Z</time></trkpt><trkpt lat="43.46257991542388" lon="10.602795766900243"><ele>425.25</ele><time>2026-04-19T09:25:52.001Z</time></trkpt><trkpt lat="43.46264024216682" lon="10.602922726153867"><ele>425.5</ele><time>2026-04-19T09:25:54.001Z</time></trkpt><trkpt lat="43.462659678260955" lon="10.60310689592422"><ele>425.75</ele><time>2026-04-19T09:25:56.001Z</time></trkpt><trkpt lat="43.462626142715074" lon="10.60325031607844"><ele>426.0</ele><time>2026-04-19T09:25:58.001Z</time></trkpt><trkpt lat="43.46255308445757" lon="10.603365352851423"><ele>426.0</ele><time>2026-04-19T09:26:00.001Z</time></trkpt><trkpt lat="43.46245354890861" lon="10.603451638942651"><ele>426.0</ele><time>2026-04-19T09:26:02.002Z</time></trkpt><trkpt lat="43.462348380121604" lon="10.60355321426109"><ele>426.0</ele><time>2026-04-19T09:26:04.002Z</time></trkpt><trkpt lat="43.462265524582776" lon="10.603668340806106"><ele>426.0</ele><time>2026-04-19T09:26:06.002Z</time></trkpt><trkpt lat="43.4622464779739" lon="10.60375279447594"><ele>426.0</ele><time>2026-04-19T09:26:07.002Z</time></trkpt><trkpt lat="43.462224634369576" lon="10.603841069704155"><ele>424.1666666666667</ele><time>2026-04-19T09:26:08.002Z</time></trkpt><trkpt lat="43.46219835679225" lon="10.603944894969906"><ele>422.33333333333337</ele><time>2026-04-19T09:26:09.002Z</time></trkpt><trkpt lat="43.462171341668544" lon="10.604047146368961"><ele>420.5</ele><time>2026-04-19T09:26:10.002Z</time></trkpt><trkpt lat="43.46213719348956" lon="10.604143480994331"><ele>418.6666666666667</ele><time>2026-04-19T09:26:11.002Z</time></trkpt><trkpt lat="43.46210268947591" lon="10.604239044458412"><ele>416.83333333333337</ele><time>2026-04-19T09:26:12.002Z</time></trkpt><trkpt lat="43.4620693588009" lon="10.604339912389326"><ele>415.0</ele><time>2026-04-19T09:26:13.002Z</time></trkpt><trkpt lat="43.462037766712314" lon="10.604435869822703"><ele>416.6666666666667</ele><time>2026-04-19T09:26:14.002Z</time></trkpt><trkpt lat="43.462008736554964" lon="10.60453756080956"><ele>418.33333333333337</ele><time>2026-04-19T09:26:15.002Z</time></trkpt><trkpt lat="43.46198005290928" lon="10.60462029336867"><ele>420.0</ele><time>2026-04-19T09:26:16.002Z</time></trkpt><trkpt lat="43.46194969407423" lon="10.604705767222"><ele>421.66666666666663</ele><time>2026-04-19T09:26:17.002Z</time></trkpt><trkpt lat="43.46191298015285" lon="10.604795465339096"><ele>423.3333333333333</ele><time>2026-04-19T09:26:18.002Z</time></trkpt><trkpt lat="43.46187991760585" lon="10.604872285168389"><ele>425.0</ele><time>2026-04-19T09:26:19.002Z</time></trkpt><trkpt lat="43.46181187008578" lon="10.605007065446538"><ele>424.99999999999994</ele><time>2026-04-19T09:26:21.002Z</time></trkpt><trkpt lat="43.4617691507833" lon="10.605085461921352"><ele>425.0</ele><time>2026-04-19T09:26:22.002Z</time></trkpt><trkpt lat="43.46173147106444" lon="10.605160864374428"><ele>425.0</ele><time>2026-04-19T09:26:23.002Z</time></trkpt><trkpt lat="43.46168906541479" lon="10.605266717218313"><ele>425.0</ele><time>2026-04-19T09:26:25.002Z</time></trkpt><trkpt lat="43.46168896892478" lon="10.605363693948613"><ele>424.99999999999994</ele><time>2026-04-19T09:26:31Z</time></trkpt><trkpt lat="43.4616759249921" lon="10.605465160538992"><ele>425.0</ele><time>2026-04-19T09:27:06.001Z</time></trkpt><trkpt lat="43.461641105980924" lon="10.60556422263849"><ele>427.1428571428571</ele><time>2026-04-19T09:27:10.001Z</time></trkpt><trkpt lat="43.461586927412306" lon="10.60567517296634"><ele>429.2857142857143</ele><time>2026-04-19T09:27:13.001Z</time></trkpt><trkpt lat="43.46154613717682" lon="10.60574497881515"><ele>431.42857142857144</ele><time>2026-04-19T09:27:15.001Z</time></trkpt><trkpt lat="43.461497409312514" lon="10.605820494409462"><ele>433.57142857142856</ele><time>2026-04-19T09:27:18.001Z</time></trkpt><trkpt lat="43.46145809243397" lon="10.60589242063624"><ele>435.7142857142857</ele><time>2026-04-19T09:27:20.001Z</time></trkpt><trkpt lat="43.461409412964656" lon="10.605965690615035"><ele>437.85714285714283</ele><time>2026-04-19T09:27:22.001Z</time></trkpt><trkpt lat="43.46136361299833" lon="10.606045484250323"><ele>440.0</ele><time>2026-04-19T09:27:24.001Z</time></trkpt><trkpt lat="43.4613169995733" lon="10.606128998564444"><ele>436.8</ele><time>2026-04-19T09:27:26.001Z</time></trkpt><trkpt lat="43.461260302127386" lon="10.60623723879303"><ele>433.6</ele><time>2026-04-19T09:27:28.001Z</time></trkpt><trkpt lat="43.46118814106244" lon="10.6063423189274"><ele>430.4</ele><time>2026-04-19T09:27:30.001Z</time></trkpt><trkpt lat="43.46115055149751" lon="10.606451950170793"><ele>427.2</ele><time>2026-04-19T09:27:32.001Z</time></trkpt><trkpt lat="43.4611341859962" lon="10.606581029378258"><ele>424.0</ele><time>2026-04-19T09:27:34.001Z</time></trkpt><trkpt lat="43.461144029983636" lon="10.606736468189109"><ele>424.0</ele><time>2026-04-19T09:27:36.001Z</time></trkpt><trkpt lat="43.461150318575775" lon="10.606902526456535"><ele>424.0</ele><time>2026-04-19T09:27:38.001Z</time></trkpt><trkpt lat="43.46114629348436" lon="10.60705563953405"><ele>424.0</ele><time>2026-04-19T09:27:40.001Z</time></trkpt><trkpt lat="43.46114235739032" lon="10.607182929392694"><ele>424.0</ele><time>2026-04-19T09:27:42.001Z</time></trkpt><trkpt lat="43.46112391003234" lon="10.607318659374712"><ele>424.0</ele><time>2026-04-19T09:27:44.001Z</time></trkpt><trkpt lat="43.46110966879008" lon="10.607441319870542"><ele>426.4</ele><time>2026-04-19T09:27:46.001Z</time></trkpt><trkpt lat="43.46110628141592" lon="10.60759617932296"><ele>428.79999999999995</ele><time>2026-04-19T09:27:48.001Z</time></trkpt><trkpt lat="43.4610987241213" lon="10.607730846447291"><ele>431.20000000000005</ele><time>2026-04-19T09:27:50.001Z</time></trkpt><trkpt lat="43.46106754806628" lon="10.60787188419001"><ele>433.6</ele><time>2026-04-19T09:27:52.001Z</time></trkpt><trkpt lat="43.46103461521125" lon="10.60800042986088"><ele>436.0</ele><time>2026-04-19T09:27:54.001Z</time></trkpt><trkpt lat="43.46101232838845" lon="10.608133024608541"><ele>437.8</ele><time>2026-04-19T09:27:56.001Z</time></trkpt><trkpt lat="43.460954506447365" lon="10.608244330664924"><ele>439.6</ele><time>2026-04-19T09:27:58.001Z</time></trkpt><trkpt lat="43.46088583966326" lon="10.608353292677457"><ele>441.4</ele><time>2026-04-19T09:28:00.001Z</time></trkpt><trkpt lat="43.460798329196905" lon="10.608413446061954"><ele>443.2</ele><time>2026-04-19T09:28:02.001Z</time></trkpt><trkpt lat="43.460705528976185" lon="10.608449898383428"><ele>445.0</ele><time>2026-04-19T09:28:04.001Z</time></trkpt><trkpt lat="43.460646042487035" lon="10.608416433904218"><ele>445.0</ele><time>2026-04-19T09:28:05.001Z</time></trkpt><trkpt lat="43.46057602497541" lon="10.608343173100724"><ele>445.0</ele><time>2026-04-19T09:28:07.001Z</time></trkpt><trkpt lat="43.46050353427251" lon="10.608247054161485"><ele>445.0</ele><time>2026-04-19T09:28:09.001Z</time></trkpt><trkpt lat="43.460417709141794" lon="10.608171426271944"><ele>445.0</ele><time>2026-04-19T09:28:11.001Z</time></trkpt><trkpt lat="43.460340021514" lon="10.608113321016566"><ele>445.0</ele><time>2026-04-19T09:28:13.001Z</time></trkpt><trkpt lat="43.46025655412233" lon="10.608106532278889"><ele>444.8</ele><time>2026-04-19T09:28:15.001Z</time></trkpt><trkpt lat="43.460165116813926" lon="10.60818557246887"><ele>444.6</ele><time>2026-04-19T09:28:17.001Z</time></trkpt><trkpt lat="43.4601066896832" lon="10.608294126844921"><ele>444.4</ele><time>2026-04-19T09:28:19.002Z</time></trkpt><trkpt lat="43.46005887203589" lon="10.608393768923154"><ele>444.2</ele><time>2026-04-19T09:28:21.002Z</time></trkpt><trkpt lat="43.46002963994996" lon="10.608523536215067"><ele>444.0</ele><time>2026-04-19T09:28:23.002Z</time></trkpt><trkpt lat="43.460000823018405" lon="10.608670827867078"><ele>444.0</ele><time>2026-04-19T09:28:25.002Z</time></trkpt><trkpt lat="43.45997889090727" lon="10.608827963396237"><ele>444.0</ele><time>2026-04-19T09:28:27.002Z</time></trkpt><trkpt lat="43.459941860461655" lon="10.608964167420167"><ele>444.0</ele><time>2026-04-19T09:28:29.002Z</time></trkpt><trkpt lat="43.459881813327286" lon="10.609106709613828"><ele>444.0</ele><time>2026-04-19T09:28:31.002Z</time></trkpt><trkpt lat="43.45981417571073" lon="10.6092161151641"><ele>444.0</ele><time>2026-04-19T09:28:33.001Z</time></trkpt><trkpt lat="43.45975694404252" lon="10.609341499979601"><ele>444.0</ele><time>2026-04-19T09:28:35.001Z</time></trkpt><trkpt lat="43.45970008432869" lon="10.60947302689648"><ele>444.0</ele><time>2026-04-19T09:28:37.001Z</time></trkpt><trkpt lat="43.45964498193077" lon="10.609603091746463"><ele>444.0</ele><time>2026-04-19T09:28:39Z</time></trkpt><trkpt lat="43.45958893980665" lon="10.609736807242895"><ele>444.0</ele><time>2026-04-19T09:28:41Z</time></trkpt><trkpt lat="43.45953072630547" lon="10.609871312586987"><ele>444.0</ele><time>2026-04-19T09:28:43Z</time></trkpt><trkpt lat="43.45950270947286" lon="10.609952221474964"><ele>444.2</ele><time>2026-04-19T09:28:44Z</time></trkpt><trkpt lat="43.45943851218876" lon="10.610077860851412"><ele>444.4</ele><time>2026-04-19T09:28:46Z</time></trkpt><trkpt lat="43.45937451290494" lon="10.610187298557605"><ele>444.6</ele><time>2026-04-19T09:28:48Z</time></trkpt><trkpt lat="43.45931661546984" lon="10.610303668070358"><ele>444.8</ele><time>2026-04-19T09:28:50Z</time></trkpt><trkpt lat="43.4592553388562" lon="10.610430456048734"><ele>445.0</ele><time>2026-04-19T09:28:52Z</time></trkpt><trkpt lat="43.459205379211916" lon="10.610582055027663"><ele>445.0</ele><time>2026-04-19T09:28:54Z</time></trkpt><trkpt lat="43.4591436803552" lon="10.610690573704806"><ele>445.0</ele><time>2026-04-19T09:28:56Z</time></trkpt><trkpt lat="43.45905394447457" lon="10.610773786896896"><ele>445.0</ele><time>2026-04-19T09:28:58Z</time></trkpt><trkpt lat="43.458970007283746" lon="10.610838564261385"><ele>445.0</ele><time>2026-04-19T09:29:00Z</time></trkpt><trkpt lat="43.45888812375551" lon="10.610919731502326"><ele>445.0</ele><time>2026-04-19T09:29:02Z</time></trkpt><trkpt lat="43.45880649563823" lon="10.611016922057475"><ele>443.4</ele><time>2026-04-19T09:29:04Z</time></trkpt><trkpt lat="43.458724979127055" lon="10.611124339925311"><ele>441.8</ele><time>2026-04-19T09:29:06Z</time></trkpt><trkpt lat="43.45864230351123" lon="10.611228543728851"><ele>440.20000000000005</ele><time>2026-04-19T09:29:08Z</time></trkpt><trkpt lat="43.45857123622685" lon="10.611326274242593"><ele>438.6</ele><time>2026-04-19T09:29:10Z</time></trkpt><trkpt lat="43.45853017591211" lon="10.61144809005466"><ele>437.0</ele><time>2026-04-19T09:29:12.001Z</time></trkpt><trkpt lat="43.458475693654826" lon="10.611571764758946"><ele>437.0</ele><time>2026-04-19T09:29:14.001Z</time></trkpt><trkpt lat="43.45838076870203" lon="10.61160209952978"><ele>437.00000000000006</ele><time>2026-04-19T09:29:16.001Z</time></trkpt><trkpt lat="43.45829341830601" lon="10.611627173811895"><ele>437.00000000000006</ele><time>2026-04-19T09:29:18.001Z</time></trkpt><trkpt lat="43.45822029830736" lon="10.611692218504619"><ele>437.0</ele><time>2026-04-19T09:29:20.001Z</time></trkpt><trkpt lat="43.458178592434955" lon="10.611835387431034"><ele>437.0</ele><time>2026-04-19T09:29:22.001Z</time></trkpt><trkpt lat="43.458170892601636" lon="10.611976196186593"><ele>439.20000000000005</ele><time>2026-04-19T09:29:24.001Z</time></trkpt><trkpt lat="43.458170842489416" lon="10.61213515028717"><ele>441.40000000000003</ele><time>2026-04-19T09:29:26.001Z</time></trkpt><trkpt lat="43.458151664612345" lon="10.612296060096682"><ele>443.59999999999997</ele><time>2026-04-19T09:29:28.001Z</time></trkpt><trkpt lat="43.45812420980534" lon="10.612443528732223"><ele>445.79999999999995</ele><time>2026-04-19T09:29:30.001Z</time></trkpt><trkpt lat="43.45809478222874" lon="10.61257017111848"><ele>448.0</ele><time>2026-04-19T09:29:32.001Z</time></trkpt><trkpt lat="43.458063253722756" lon="10.612695998924062"><ele>451.59999999999997</ele><time>2026-04-19T09:29:34.001Z</time></trkpt><trkpt lat="43.458022949177774" lon="10.612827989643517"><ele>455.19999999999993</ele><time>2026-04-19T09:29:36.001Z</time></trkpt><trkpt lat="43.457954215851665" lon="10.612935369538329"><ele>458.8</ele><time>2026-04-19T09:29:38.001Z</time></trkpt><trkpt lat="43.45786401316489" lon="10.612988721923822"><ele>462.4</ele><time>2026-04-19T09:29:40.001Z</time></trkpt><trkpt lat="43.45777660528281" lon="10.613000202532977"><ele>466.0</ele><time>2026-04-19T09:29:42.001Z</time></trkpt><trkpt lat="43.4576949491264" lon="10.61309186796216"><ele>460.20000000000005</ele><time>2026-04-19T09:29:44.001Z</time></trkpt><trkpt lat="43.45763051614746" lon="10.61318468894071"><ele>454.40000000000003</ele><time>2026-04-19T09:29:46.001Z</time></trkpt><trkpt lat="43.45756237279315" lon="10.613289549897024"><ele>448.6</ele><time>2026-04-19T09:29:48.001Z</time></trkpt><trkpt lat="43.45753745824789" lon="10.613417235204034"><ele>442.8</ele><time>2026-04-19T09:29:50.001Z</time></trkpt><trkpt lat="43.45749378881506" lon="10.613546195183226"><ele>437.0</ele><time>2026-04-19T09:29:52.001Z</time></trkpt><trkpt lat="43.45746017286232" lon="10.613663568001979"><ele>437.0</ele><time>2026-04-19T09:29:54.001Z</time></trkpt><trkpt lat="43.4574434973074" lon="10.613800937298349"><ele>437.00000000000006</ele><time>2026-04-19T09:29:56.001Z</time></trkpt><trkpt lat="43.45743177566658" lon="10.613926597757601"><ele>437.00000000000006</ele><time>2026-04-19T09:29:58.001Z</time></trkpt><trkpt lat="43.457406632544696" lon="10.61406777090772"><ele>437.0</ele><time>2026-04-19T09:30:00.001Z</time></trkpt><trkpt lat="43.45740675673877" lon="10.614237636405797"><ele>437.0</ele><time>2026-04-19T09:30:02.001Z</time></trkpt><trkpt lat="43.45741532232521" lon="10.614408567670889"><ele>436.8</ele><time>2026-04-19T09:30:04.001Z</time></trkpt><trkpt lat="43.45743189998258" lon="10.614524191633954"><ele>436.6</ele><time>2026-04-19T09:30:06.001Z</time></trkpt><trkpt lat="43.45745737872086" lon="10.614704230480283"><ele>436.40000000000003</ele><time>2026-04-19T09:30:08.001Z</time></trkpt><trkpt lat="43.45748022340114" lon="10.614837599385627"><ele>436.20000000000005</ele><time>2026-04-19T09:30:10.001Z</time></trkpt><trkpt lat="43.45753881644857" lon="10.61496574277729"><ele>436.0</ele><time>2026-04-19T09:30:12.001Z</time></trkpt><trkpt lat="43.45751432429832" lon="10.615149089576468"><ele>436.0</ele><time>2026-04-19T09:30:15.001Z</time></trkpt><trkpt lat="43.45754661467541" lon="10.615277079982105"><ele>436.0</ele><time>2026-04-19T09:30:17.001Z</time></trkpt><trkpt lat="43.45756556426291" lon="10.615412629463245"><ele>436.0</ele><time>2026-04-19T09:30:19.001Z</time></trkpt><trkpt lat="43.45759753287055" lon="10.615522502110286"><ele>436.0</ele><time>2026-04-19T09:30:21.001Z</time></trkpt><trkpt lat="43.45764542979761" lon="10.615628613659663"><ele>436.0</ele><time>2026-04-19T09:30:23.001Z</time></trkpt><trkpt lat="43.457733533524966" lon="10.615729396651032"><ele>435.0</ele><time>2026-04-19T09:30:25.001Z</time></trkpt><trkpt lat="43.45778263033414" lon="10.615888019513056"><ele>434.0</ele><time>2026-04-19T09:30:27.001Z</time></trkpt><trkpt lat="43.45782281850634" lon="10.616008209251921"><ele>433.0</ele><time>2026-04-19T09:30:29.001Z</time></trkpt><trkpt lat="43.457861844617796" lon="10.616140370920318"><ele>432.0</ele><time>2026-04-19T09:30:31.001Z</time></trkpt><trkpt lat="43.45789839368899" lon="10.61626402158935"><ele>431.0</ele><time>2026-04-19T09:30:33.001Z</time></trkpt><trkpt lat="43.45790966504942" lon="10.616405371016725"><ele>430.3333333333333</ele><time>2026-04-19T09:30:35.001Z</time></trkpt><trkpt lat="43.45788890122725" lon="10.61651848574411"><ele>429.66666666666663</ele><time>2026-04-19T09:30:37.001Z</time></trkpt><trkpt lat="43.457868377874235" lon="10.616607775851547"><ele>429.0</ele><time>2026-04-19T09:30:38Z</time></trkpt><trkpt lat="43.45786923183955" lon="10.616710894742413"><ele>428.33333333333337</ele><time>2026-04-19T09:30:39Z</time></trkpt><trkpt lat="43.45784282806751" lon="10.616871516227382"><ele>427.6666666666667</ele><time>2026-04-19T09:30:41Z</time></trkpt><trkpt lat="43.45782477706929" lon="10.61696987247309"><ele>427.0</ele><time>2026-04-19T09:30:42Z</time></trkpt><trkpt lat="43.45785503055867" lon="10.617121315773074"><ele>427.0</ele><time>2026-04-19T09:30:44Z</time></trkpt><trkpt lat="43.45785847682954" lon="10.617211946912864"><ele>427.00000000000006</ele><time>2026-04-19T09:30:45Z</time></trkpt><trkpt lat="43.4578809567408" lon="10.617384407718854"><ele>427.00000000000006</ele><time>2026-04-19T09:30:47Z</time></trkpt><trkpt lat="43.457876743176826" lon="10.617554808361845"><ele>427.0</ele><time>2026-04-19T09:30:49Z</time></trkpt><trkpt lat="43.457875090184245" lon="10.617656675257589"><ele>427.0</ele><time>2026-04-19T09:30:51Z</time></trkpt><trkpt lat="43.457900131436475" lon="10.617780971265029"><ele>426.20000000000005</ele><time>2026-04-19T09:30:53Z</time></trkpt><trkpt lat="43.457943749620796" lon="10.617929473692467"><ele>425.40000000000003</ele><time>2026-04-19T09:30:55Z</time></trkpt><trkpt lat="43.45798490945301" lon="10.618073908682005"><ele>424.6</ele><time>2026-04-19T09:30:57Z</time></trkpt><trkpt lat="43.4580162825476" lon="10.618209234806006"><ele>423.79999999999995</ele><time>2026-04-19T09:30:59Z</time></trkpt><trkpt lat="43.45804779994784" lon="10.618341134388704"><ele>423.0</ele><time>2026-04-19T09:31:01Z</time></trkpt><trkpt lat="43.45809203423598" lon="10.61847255626519"><ele>427.59999999999997</ele><time>2026-04-19T09:31:03Z</time></trkpt><trkpt lat="43.45816060443985" lon="10.618605418215925"><ele>432.2</ele><time>2026-04-19T09:31:05Z</time></trkpt><trkpt lat="43.45825347926305" lon="10.618711783877233"><ele>436.8</ele><time>2026-04-19T09:31:07Z</time></trkpt><trkpt lat="43.45826339223022" lon="10.618856203467782"><ele>441.4</ele><time>2026-04-19T09:31:09Z</time></trkpt><trkpt lat="43.458251177988075" lon="10.618993815167203"><ele>446.0</ele><time>2026-04-19T09:31:11Z</time></trkpt><trkpt lat="43.45824676277594" lon="10.61913224654437"><ele>445.99999999999994</ele><time>2026-04-19T09:31:13Z</time></trkpt><trkpt lat="43.458254750997384" lon="10.619286584075335"><ele>446.0</ele><time>2026-04-19T09:31:15Z</time></trkpt><trkpt lat="43.458245684785055" lon="10.619456914676723"><ele>446.0</ele><time>2026-04-19T09:31:17Z</time></trkpt><trkpt lat="43.4582445255195" lon="10.619549288965192"><ele>446.0</ele><time>2026-04-19T09:31:18Z</time></trkpt><trkpt lat="43.45824612503548" lon="10.61964582177927"><ele>445.99999999999994</ele><time>2026-04-19T09:31:19Z</time></trkpt><trkpt lat="43.45823586416783" lon="10.619733822677"><ele>446.0</ele><time>2026-04-19T09:31:20Z</time></trkpt><trkpt lat="43.45819140502255" lon="10.619883741423568"><ele>446.0</ele><time>2026-04-19T09:31:22Z</time></trkpt><trkpt lat="43.45815815686089" lon="10.620043846671216"><ele>446.0</ele><time>2026-04-19T09:31:24Z</time></trkpt><trkpt lat="43.45814072130191" lon="10.620128327127892"><ele>446.0</ele><time>2026-04-19T09:31:25.001Z</time></trkpt><trkpt lat="43.458111574939025" lon="10.620276153361743"><ele>446.0</ele><time>2026-04-19T09:31:27.001Z</time></trkpt><trkpt lat="43.45811790323453" lon="10.620461485943128"><ele>446.0</ele><time>2026-04-19T09:31:29.001Z</time></trkpt><trkpt lat="43.45813214384939" lon="10.620547827518546"><ele>445.99999999999994</ele><time>2026-04-19T09:31:30.001Z</time></trkpt><trkpt lat="43.458168501660765" lon="10.62069836243861"><ele>446.0</ele><time>2026-04-19T09:31:32.001Z</time></trkpt><trkpt lat="43.45818299120431" lon="10.620786054747372"><ele>446.0</ele><time>2026-04-19T09:31:33.001Z</time></trkpt><trkpt lat="43.45819331770877" lon="10.620882744484474"><ele>446.0</ele><time>2026-04-19T09:31:34.001Z</time></trkpt><trkpt lat="43.45821066305712" lon="10.621004113294461"><ele>445.99999999999994</ele><time>2026-04-19T09:31:35.001Z</time></trkpt><trkpt lat="43.458239898740295" lon="10.621093328460567"><ele>446.0</ele><time>2026-04-19T09:31:36.001Z</time></trkpt><trkpt lat="43.4582956705558" lon="10.621239095896348"><ele>444.1428571428571</ele><time>2026-04-19T09:31:38.001Z</time></trkpt><trkpt lat="43.45833428649013" lon="10.621315771416983"><ele>442.2857142857143</ele><time>2026-04-19T09:31:39.001Z</time></trkpt><trkpt lat="43.45839043978749" lon="10.621417358293057"><ele>440.42857142857144</ele><time>2026-04-19T09:31:41.001Z</time></trkpt><trkpt lat="43.45843681201704" lon="10.621481998852094"><ele>438.57142857142856</ele><time>2026-04-19T09:31:43.001Z</time></trkpt><trkpt lat="43.458488591138185" lon="10.621543506451102"><ele>436.7142857142857</ele><time>2026-04-19T09:31:45.001Z</time></trkpt><trkpt lat="43.45853681884059" lon="10.621599249069535"><ele>434.85714285714283</ele><time>2026-04-19T09:31:47.001Z</time></trkpt><trkpt lat="43.45858729139102" lon="10.621695299568378"><ele>433.0</ele><time>2026-04-19T09:31:49.001Z</time></trkpt><trkpt lat="43.45864547059662" lon="10.621797549268932"><ele>433.00000000000006</ele><time>2026-04-19T09:31:51.001Z</time></trkpt><trkpt lat="43.458721665351206" lon="10.621887404938557"><ele>433.0</ele><time>2026-04-19T09:31:53.001Z</time></trkpt><trkpt lat="43.458770240677964" lon="10.621984214636536"><ele>433.0</ele><time>2026-04-19T09:31:55.001Z</time></trkpt><trkpt lat="43.458816831685134" lon="10.622071706121357"><ele>433.0</ele><time>2026-04-19T09:31:57.001Z</time></trkpt><trkpt lat="43.45886381445176" lon="10.622181182693502"><ele>433.00000000000006</ele><time>2026-04-19T09:31:59.001Z</time></trkpt><trkpt lat="43.45891674220885" lon="10.622253263478264"><ele>433.0</ele><time>2026-04-19T09:32:01.001Z</time></trkpt><trkpt lat="43.45900362710054" lon="10.622294621480817"><ele>435.0</ele><time>2026-04-19T09:32:03.001Z</time></trkpt><trkpt lat="43.45911117328896" lon="10.622307666733603"><ele>436.99999999999994</ele><time>2026-04-19T09:32:05.001Z</time></trkpt><trkpt lat="43.45921349779685" lon="10.622311701857537"><ele>438.99999999999994</ele><time>2026-04-19T09:32:07.001Z</time></trkpt><trkpt lat="43.45931505393276" lon="10.622333431685467"><ele>441.0</ele><time>2026-04-19T09:32:09.001Z</time></trkpt><trkpt lat="43.45940799857395" lon="10.622355576635595"><ele>443.0</ele><time>2026-04-19T09:32:11.001Z</time></trkpt><trkpt lat="43.459489293106536" lon="10.622348975180504"><ele>443.0</ele><time>2026-04-19T09:32:13.001Z</time></trkpt><trkpt lat="43.4595723439755" lon="10.622316802317428"><ele>442.99999999999994</ele><time>2026-04-19T09:32:15.001Z</time></trkpt><trkpt lat="43.459651631225654" lon="10.622220976177251"><ele>442.99999999999994</ele><time>2026-04-19T09:32:18.001Z</time></trkpt><trkpt lat="43.45973697575663" lon="10.622195111734646"><ele>443.0</ele><time>2026-04-19T09:32:20.001Z</time></trkpt><trkpt lat="43.459783304319046" lon="10.622082549834335"><ele>443.0</ele><time>2026-04-19T09:32:22.001Z</time></trkpt><trkpt lat="43.45982957459134" lon="10.621971790384025"><ele>445.3333333333333</ele><time>2026-04-19T09:32:24.001Z</time></trkpt><trkpt lat="43.45986995587233" lon="10.621875406485358"><ele>447.66666666666663</ele><time>2026-04-19T09:32:26.001Z</time></trkpt><trkpt lat="43.45990366503062" lon="10.621757805419763"><ele>450.0</ele><time>2026-04-19T09:32:28.001Z</time></trkpt><trkpt lat="43.459937263826895" lon="10.62166254442842"><ele>452.33333333333337</ele><time>2026-04-19T09:32:30.001Z</time></trkpt><trkpt lat="43.46001131515816" lon="10.621576747150659"><ele>454.6666666666667</ele><time>2026-04-19T09:32:32.001Z</time></trkpt><trkpt lat="43.46003394847096" lon="10.621489850851273"><ele>457.0</ele><time>2026-04-19T09:32:33.001Z</time></trkpt><trkpt lat="43.460086897420595" lon="10.621344021388031"><ele>457.0</ele><time>2026-04-19T09:32:35.001Z</time></trkpt><trkpt lat="43.46013744956265" lon="10.621207468531514"><ele>457.00000000000006</ele><time>2026-04-19T09:32:37.001Z</time></trkpt><trkpt lat="43.46016953567677" lon="10.621064740674624"><ele>457.00000000000006</ele><time>2026-04-19T09:32:39.001Z</time></trkpt><trkpt lat="43.46019649477875" lon="10.620985584494965"><ele>457.0</ele><time>2026-04-19T09:32:40.001Z</time></trkpt><trkpt lat="43.460233030869404" lon="10.620855224362863"><ele>457.0</ele><time>2026-04-19T09:32:42.001Z</time></trkpt><trkpt lat="43.460255775268784" lon="10.620765750661619"><ele>454.40000000000003</ele><time>2026-04-19T09:32:43.999Z</time></trkpt><trkpt lat="43.46028614929676" lon="10.620625093804763"><ele>451.80000000000007</ele><time>2026-04-19T09:32:45.999Z</time></trkpt><trkpt lat="43.46031800671464" lon="10.620511963322173"><ele>449.2</ele><time>2026-04-19T09:32:47.999Z</time></trkpt><trkpt lat="43.46035974121977" lon="10.620354553041436"><ele>446.6</ele><time>2026-04-19T09:32:49.999Z</time></trkpt><trkpt lat="43.46042069312893" lon="10.620239636845332"><ele>444.0</ele><time>2026-04-19T09:32:51.999Z</time></trkpt><trkpt lat="43.460463085803674" lon="10.620150575739828"><ele>444.0</ele><time>2026-04-19T09:32:52.999Z</time></trkpt><trkpt lat="43.46047006212366" lon="10.620022738586533"><ele>444.0</ele><time>2026-04-19T09:32:55Z</time></trkpt><trkpt lat="43.46048016149267" lon="10.619894688905966"><ele>444.0</ele><time>2026-04-19T09:32:57Z</time></trkpt><trkpt lat="43.4605100876707" lon="10.619764139902305"><ele>444.0</ele><time>2026-04-19T09:32:59Z</time></trkpt><trkpt lat="43.46052589042415" lon="10.619625281678461"><ele>444.0</ele><time>2026-04-19T09:33:01Z</time></trkpt><trkpt lat="43.460544437154006" lon="10.61948564612474"><ele>448.4</ele><time>2026-04-19T09:33:04Z</time></trkpt><trkpt lat="43.46058793175484" lon="10.61937745428869"><ele>452.79999999999995</ele><time>2026-04-19T09:33:06Z</time></trkpt><trkpt lat="43.460643599240996" lon="10.619269554933238"><ele>457.20000000000005</ele><time>2026-04-19T09:33:08Z</time></trkpt><trkpt lat="43.46070575328656" lon="10.619191952802428"><ele>461.6</ele><time>2026-04-19T09:33:10Z</time></trkpt><trkpt lat="43.460798246603716" lon="10.61909068262772"><ele>466.0</ele><time>2026-04-19T09:33:12Z</time></trkpt><trkpt lat="43.460845432862676" lon="10.619022058934952"><ele>466.0</ele><time>2026-04-19T09:33:13Z</time></trkpt><trkpt lat="43.460883542597976" lon="10.61895167858533"><ele>466.0</ele><time>2026-04-19T09:33:14Z</time></trkpt><trkpt lat="43.460965176957735" lon="10.618825827911389"><ele>466.0</ele><time>2026-04-19T09:33:16Z</time></trkpt><trkpt lat="43.461038509488844" lon="10.618712606069558"><ele>466.0</ele><time>2026-04-19T09:33:18Z</time></trkpt><trkpt lat="43.46108064188798" lon="10.618591322050671"><ele>466.0</ele><time>2026-04-19T09:33:20Z</time></trkpt><trkpt lat="43.46110035597323" lon="10.618436844887853"><ele>469.20000000000005</ele><time>2026-04-19T09:33:22Z</time></trkpt><trkpt lat="43.461137034689436" lon="10.618330896313658"><ele>472.40000000000003</ele><time>2026-04-19T09:33:24Z</time></trkpt><trkpt lat="43.46113855639511" lon="10.618139348558483"><ele>475.6</ele><time>2026-04-19T09:33:27Z</time></trkpt><trkpt lat="43.46114559407059" lon="10.618017003531945"><ele>478.8</ele><time>2026-04-19T09:33:29Z</time></trkpt><trkpt lat="43.46114443325052" lon="10.617925001166393"><ele>482.0</ele><time>2026-04-19T09:33:30Z</time></trkpt><trkpt lat="43.46113476278522" lon="10.617814649341119"><ele>483.40000000000003</ele><time>2026-04-19T09:33:32Z</time></trkpt><trkpt lat="43.46113908793548" lon="10.61771257007099"><ele>484.80000000000007</ele><time>2026-04-19T09:33:34Z</time></trkpt><trkpt lat="43.46116749558611" lon="10.617590559962515"><ele>486.2</ele><time>2026-04-19T09:33:37Z</time></trkpt><trkpt lat="43.46124957105014" lon="10.617498468602108"><ele>487.6</ele><time>2026-04-19T09:33:39Z</time></trkpt><trkpt lat="43.461339892455854" lon="10.617388113631291"><ele>489.0</ele><time>2026-04-19T09:33:41Z</time></trkpt><trkpt lat="43.46143853886542" lon="10.617302066423091"><ele>485.2</ele><time>2026-04-19T09:33:43Z</time></trkpt><trkpt lat="43.461522448550596" lon="10.617229256580766"><ele>481.4</ele><time>2026-04-19T09:33:45Z</time></trkpt><trkpt lat="43.461590865816504" lon="10.617116937691923"><ele>477.6</ele><time>2026-04-19T09:33:47.001Z</time></trkpt><trkpt lat="43.461626617837936" lon="10.617031092575726"><ele>473.8</ele><time>2026-04-19T09:33:48.001Z</time></trkpt><trkpt lat="43.46165383724921" lon="10.616936218355342"><ele>470.0</ele><time>2026-04-19T09:33:49.001Z</time></trkpt><trkpt lat="43.46169063026169" lon="10.6168038335854"><ele>470.0</ele><time>2026-04-19T09:33:51.001Z</time></trkpt><trkpt lat="43.46173319990971" lon="10.616684550053789"><ele>470.0</ele><time>2026-04-19T09:33:53.001Z</time></trkpt><trkpt lat="43.46175959059187" lon="10.61659223409623"><ele>470.0</ele><time>2026-04-19T09:33:56.001Z</time></trkpt><trkpt lat="43.46181418155875" lon="10.61651297212831"><ele>470.0</ele><time>2026-04-19T09:33:57.001Z</time></trkpt><trkpt lat="43.461859781298806" lon="10.616389866376108"><ele>470.0</ele><time>2026-04-19T09:33:59.001Z</time></trkpt><trkpt lat="43.46193221326229" lon="10.616277929714789"><ele>470.0</ele><time>2026-04-19T09:34:01.001Z</time></trkpt><trkpt lat="43.46201711545069" lon="10.616211701588707"><ele>470.0</ele><time>2026-04-19T09:34:03.001Z</time></trkpt><trkpt lat="43.46208841277561" lon="10.61615969687854"><ele>470.0</ele><time>2026-04-19T09:34:05.001Z</time></trkpt><trkpt lat="43.46216274563997" lon="10.61613209302181"><ele>470.0</ele><time>2026-04-19T09:34:09.001Z</time></trkpt><trkpt lat="43.462249066450084" lon="10.61624888130959"><ele>470.0</ele><time>2026-04-19T09:34:11.001Z</time></trkpt><trkpt lat="43.46232538811706" lon="10.616378380540661"><ele>468.8333333333333</ele><time>2026-04-19T09:34:13.001Z</time></trkpt><trkpt lat="43.462403724040726" lon="10.616490770560377"><ele>467.66666666666663</ele><time>2026-04-19T09:34:15.001Z</time></trkpt><trkpt lat="43.46243255525596" lon="10.616584066884725"><ele>466.5</ele><time>2026-04-19T09:34:16.001Z</time></trkpt><trkpt lat="43.46248444561047" lon="10.616641667007125"><ele>465.33333333333337</ele><time>2026-04-19T09:34:17.001Z</time></trkpt><trkpt lat="43.462549386009435" lon="10.616744661325356"><ele>464.1666666666667</ele><time>2026-04-19T09:34:19.001Z</time></trkpt><trkpt lat="43.46261614017328" lon="10.616834518828396"><ele>463.0</ele><time>2026-04-19T09:34:21.001Z</time></trkpt><trkpt lat="43.46271120572876" lon="10.616908191531646"><ele>463.0</ele><time>2026-04-19T09:34:23.001Z</time></trkpt><trkpt lat="43.46280239553574" lon="10.616914005668127"><ele>462.99999999999994</ele><time>2026-04-19T09:34:25.001Z</time></trkpt><trkpt lat="43.46292001308881" lon="10.616860298789529"><ele>462.99999999999994</ele><time>2026-04-19T09:34:27.001Z</time></trkpt><trkpt lat="43.463024567237866" lon="10.61682347451442"><ele>463.0</ele><time>2026-04-19T09:34:29.001Z</time></trkpt><trkpt lat="43.463098609829004" lon="10.616754367392643"><ele>463.0</ele><time>2026-04-19T09:34:31.001Z</time></trkpt><trkpt lat="43.46318008136988" lon="10.616644290878849"><ele>462.79999999999995</ele><time>2026-04-19T09:34:33.001Z</time></trkpt><trkpt lat="43.46323907803879" lon="10.616526162799815"><ele>462.59999999999997</ele><time>2026-04-19T09:34:35.001Z</time></trkpt><trkpt lat="43.463274780108186" lon="10.61638996719406"><ele>462.40000000000003</ele><time>2026-04-19T09:34:37.001Z</time></trkpt><trkpt lat="43.4632914164437" lon="10.61624332826826"><ele>462.20000000000005</ele><time>2026-04-19T09:34:39.001Z</time></trkpt><trkpt lat="43.46328249233726" lon="10.616085373108143"><ele>462.0</ele><time>2026-04-19T09:34:41.001Z</time></trkpt><trkpt lat="43.46327672293151" lon="10.61599424888251"><ele>463.8333333333333</ele><time>2026-04-19T09:34:42.001Z</time></trkpt><trkpt lat="43.46327597197992" lon="10.615870523849575"><ele>465.66666666666663</ele><time>2026-04-19T09:34:44.001Z</time></trkpt><trkpt lat="43.463263017605705" lon="10.615699555612522"><ele>467.5</ele><time>2026-04-19T09:34:46.001Z</time></trkpt><trkpt lat="43.46324717994697" lon="10.615613206951018"><ele>469.3333333333333</ele><time>2026-04-19T09:34:47.001Z</time></trkpt><trkpt lat="43.46325438710851" lon="10.615522850559332"><ele>471.16666666666663</ele><time>2026-04-19T09:34:48.001Z</time></trkpt><trkpt lat="43.463250264524355" lon="10.615389218704172"><ele>473.0</ele><time>2026-04-19T09:34:50Z</time></trkpt><trkpt lat="43.46323943565966" lon="10.615268162759383"><ele>473.0</ele><time>2026-04-19T09:34:52Z</time></trkpt><trkpt lat="43.46329135258534" lon="10.615185152459821"><ele>472.99999999999994</ele><time>2026-04-19T09:34:54Z</time></trkpt><trkpt lat="43.46332310580318" lon="10.61510942645154"><ele>472.99999999999994</ele><time>2026-04-19T09:34:56Z</time></trkpt><trkpt lat="43.463396901539056" lon="10.615280425476447"><ele>473.0</ele><time>2026-04-19T09:34:59Z</time></trkpt><trkpt lat="43.46347857492616" lon="10.615405163522023"><ele>473.0</ele><time>2026-04-19T09:35:01Z</time></trkpt><trkpt lat="43.463560054430445" lon="10.615529367190973"><ele>473.0</ele><time>2026-04-19T09:35:03Z</time></trkpt><trkpt lat="43.463644647243655" lon="10.615657015748388"><ele>473.0</ele><time>2026-04-19T09:35:05Z</time></trkpt><trkpt lat="43.46371873526075" lon="10.615786439633448"><ele>473.0</ele><time>2026-04-19T09:35:07Z</time></trkpt><trkpt lat="43.46375804262347" lon="10.615919763142886"><ele>473.0</ele><time>2026-04-19T09:35:09Z</time></trkpt><trkpt lat="43.463810278049785" lon="10.616058621576062"><ele>469.79999999999995</ele><time>2026-04-19T09:35:11Z</time></trkpt><trkpt lat="43.463852798743694" lon="10.616175027219075"><ele>466.59999999999997</ele><time>2026-04-19T09:35:13Z</time></trkpt><trkpt lat="43.46390512533395" lon="10.616320080032821"><ele>463.40000000000003</ele><time>2026-04-19T09:35:15Z</time></trkpt><trkpt lat="43.463946083321055" lon="10.616440071888919"><ele>460.20000000000005</ele><time>2026-04-19T09:35:18Z</time></trkpt><trkpt lat="43.46397274787078" lon="10.616551341676098"><ele>457.0</ele><time>2026-04-19T09:35:20Z</time></trkpt><trkpt lat="43.46400521338429" lon="10.616651872320455"><ele>457.0</ele><time>2026-04-19T09:35:22Z</time></trkpt><trkpt lat="43.46404288099552" lon="10.616724642831512"><ele>457.0</ele><time>2026-04-19T09:35:24Z</time></trkpt><trkpt lat="43.46411749058579" lon="10.616797474869786"><ele>457.0</ele><time>2026-04-19T09:36:57Z</time></trkpt><trkpt lat="43.46411749058579" lon="10.616797474869786"><ele>457.0</ele><time>2026-04-19T09:36:57Z</time></trkpt><trkpt lat="43.46431847803757" lon="10.616467255585192"><ele>457.00000000000006</ele><time>2026-04-19T09:39:45Z</time></trkpt><trkpt lat="43.46435703714102" lon="10.61635153450307"><ele>457.0</ele><time>2026-04-19T09:39:47.001Z</time></trkpt><trkpt lat="43.464386867855126" lon="10.616262540818973"><ele>457.0</ele><time>2026-04-19T09:39:49.001Z</time></trkpt><trkpt lat="43.46442470156077" lon="10.616157297337066"><ele>457.0</ele><time>2026-04-19T09:39:51.001Z</time></trkpt><trkpt lat="43.464452024415465" lon="10.616044554732131"><ele>457.00000000000006</ele><time>2026-04-19T09:39:53.001Z</time></trkpt><trkpt lat="43.46452784642782" lon="10.615952164052672"><ele>457.0</ele><time>2026-04-19T09:39:55.001Z</time></trkpt><trkpt lat="43.46458707744309" lon="10.615818348732388"><ele>459.0</ele><time>2026-04-19T09:39:57.001Z</time></trkpt><trkpt lat="43.464641663029816" lon="10.615697317804225"><ele>461.00000000000006</ele><time>2026-04-19T09:39:59.001Z</time></trkpt><trkpt lat="43.46470204453853" lon="10.615567840200635"><ele>463.00000000000006</ele><time>2026-04-19T09:40:01.001Z</time></trkpt><trkpt lat="43.464762258921006" lon="10.615444423851011"><ele>465.0</ele><time>2026-04-19T09:40:03.001Z</time></trkpt><trkpt lat="43.4648189019301" lon="10.615344101613381"><ele>467.0</ele><time>2026-04-19T09:40:05.001Z</time></trkpt><trkpt lat="43.464862088712174" lon="10.61520144743204"><ele>467.0</ele><time>2026-04-19T09:40:07.001Z</time></trkpt><trkpt lat="43.46494460892075" lon="10.615075756054763"><ele>467.00000000000006</ele><time>2026-04-19T09:40:09.001Z</time></trkpt><trkpt lat="43.46500445469908" lon="10.61495668663769"><ele>467.00000000000006</ele><time>2026-04-19T09:40:11.001Z</time></trkpt><trkpt lat="43.465089829400284" lon="10.614857243354715"><ele>467.0</ele><time>2026-04-19T09:40:13.001Z</time></trkpt><trkpt lat="43.465161979666256" lon="10.614752829813476"><ele>467.0</ele><time>2026-04-19T09:40:15.001Z</time></trkpt><trkpt lat="43.465233424486456" lon="10.614638481670147"><ele>467.0</ele><time>2026-04-19T09:40:17.001Z</time></trkpt><trkpt lat="43.46530828244713" lon="10.614518638287352"><ele>467.00000000000006</ele><time>2026-04-19T09:40:19.001Z</time></trkpt><trkpt lat="43.46537874903953" lon="10.614417872716292"><ele>467.00000000000006</ele><time>2026-04-19T09:40:21.001Z</time></trkpt><trkpt lat="43.465452529085255" lon="10.614278955395811"><ele>467.0</ele><time>2026-04-19T09:40:23.001Z</time></trkpt><trkpt lat="43.46551916906632" lon="10.61421717657812"><ele>467.0</ele><time>2026-04-19T09:40:25.001Z</time></trkpt><trkpt lat="43.46558237655278" lon="10.61411942914714"><ele>463.8</ele><time>2026-04-19T09:40:27.001Z</time></trkpt><trkpt lat="43.46562867083153" lon="10.614058034517821"><ele>460.6</ele><time>2026-04-19T09:40:28.001Z</time></trkpt><trkpt lat="43.46568802458498" lon="10.613947071486683"><ele>457.40000000000003</ele><time>2026-04-19T09:40:30.001Z</time></trkpt><trkpt lat="43.46576197776085" lon="10.613843976668477"><ele>454.20000000000005</ele><time>2026-04-19T09:40:32.001Z</time></trkpt><trkpt lat="43.46584989537132" lon="10.613734489960105"><ele>451.0</ele><time>2026-04-19T09:40:34.001Z</time></trkpt><trkpt lat="43.46591878650234" lon="10.61365717387855"><ele>451.00000000000006</ele><time>2026-04-19T09:40:36.001Z</time></trkpt><trkpt lat="43.4659754179338" lon="10.613583563780288"><ele>451.0</ele><time>2026-04-19T09:40:38.001Z</time></trkpt><trkpt lat="43.466025683916534" lon="10.61352599095841"><ele>451.0</ele><time>2026-04-19T09:40:40.001Z</time></trkpt><trkpt lat="43.46608249582594" lon="10.613477732302606"><ele>451.0</ele><time>2026-04-19T09:40:43.001Z</time></trkpt><trkpt lat="43.46618107290993" lon="10.613492697916179"><ele>451.00000000000006</ele><time>2026-04-19T09:40:46.001Z</time></trkpt><trkpt lat="43.466228272688255" lon="10.613603988301383"><ele>451.0</ele><time>2026-04-19T09:40:48.001Z</time></trkpt><trkpt lat="43.46623005372915" lon="10.61371835935111"><ele>451.00000000000006</ele><time>2026-04-19T09:40:50.001Z</time></trkpt><trkpt lat="43.466194280414115" lon="10.613890380131853"><ele>451.0</ele><time>2026-04-19T09:40:52.001Z</time></trkpt><trkpt lat="43.46616849093535" lon="10.613971811706199"><ele>451.0</ele><time>2026-04-19T09:40:53.001Z</time></trkpt><trkpt lat="43.466120382285695" lon="10.61404488792504"><ele>451.0</ele><time>2026-04-19T09:40:54.001Z</time></trkpt><trkpt lat="43.46608370119576" lon="10.614120677175231"><ele>451.00000000000006</ele><time>2026-04-19T09:40:55.001Z</time></trkpt><trkpt lat="43.4660394979956" lon="10.61419584907973"><ele>451.0</ele><time>2026-04-19T09:40:56.001Z</time></trkpt><trkpt lat="43.46600095063515" lon="10.614281993162713"><ele>451.0</ele><time>2026-04-19T09:40:57.001Z</time></trkpt><trkpt lat="43.465961133107704" lon="10.614366838751971"><ele>451.0</ele><time>2026-04-19T09:40:58.001Z</time></trkpt><trkpt lat="43.465918778916276" lon="10.614445765996251"><ele>451.0</ele><time>2026-04-19T09:40:59.001Z</time></trkpt><trkpt lat="43.46584824937639" lon="10.6145735272025"><ele>451.0</ele><time>2026-04-19T09:41:01.001Z</time></trkpt><trkpt lat="43.465787266714386" lon="10.6146992518096"><ele>451.0</ele><time>2026-04-19T09:41:03.001Z</time></trkpt><trkpt lat="43.46577337121928" lon="10.614840779266434"><ele>449.20000000000005</ele><time>2026-04-19T09:41:05.001Z</time></trkpt><trkpt lat="43.46578516033048" lon="10.615017076701847"><ele>447.40000000000003</ele><time>2026-04-19T09:41:07.001Z</time></trkpt><trkpt lat="43.46578840606117" lon="10.615132464420206"><ele>445.6</ele><time>2026-04-19T09:41:07.999Z</time></trkpt><trkpt lat="43.46575388220885" lon="10.615265584849743"><ele>443.8</ele><time>2026-04-19T09:41:09.999Z</time></trkpt><trkpt lat="43.46567522617441" lon="10.615412568456398"><ele>442.0</ele><time>2026-04-19T09:41:11.999Z</time></trkpt><trkpt lat="43.4656362347657" lon="10.615481605883833"><ele>441.8</ele><time>2026-04-19T09:41:12.999Z</time></trkpt><trkpt lat="43.46555615508489" lon="10.61558601976176"><ele>441.6</ele><time>2026-04-19T09:41:14.999Z</time></trkpt><trkpt lat="43.46554586216348" lon="10.615737628989994"><ele>441.40000000000003</ele><time>2026-04-19T09:41:16.999Z</time></trkpt><trkpt lat="43.465562189738655" lon="10.61584714794411"><ele>441.20000000000005</ele><time>2026-04-19T09:41:17.999Z</time></trkpt><trkpt lat="43.46560195917591" lon="10.616013229927113"><ele>441.0</ele><time>2026-04-19T09:41:19.999Z</time></trkpt><trkpt lat="43.46561208644837" lon="10.61610462576218"><ele>439.7142857142857</ele><time>2026-04-19T09:41:20.999Z</time></trkpt><trkpt lat="43.46563264414204" lon="10.61619047059271"><ele>438.42857142857144</ele><time>2026-04-19T09:41:21.999Z</time></trkpt><trkpt lat="43.465655549743495" lon="10.616284245954922"><ele>437.1428571428571</ele><time>2026-04-19T09:41:22.999Z</time></trkpt><trkpt lat="43.46567912427447" lon="10.616380759894195"><ele>435.8571428571429</ele><time>2026-04-19T09:41:23.999Z</time></trkpt><trkpt lat="43.46570204783588" lon="10.616474608788597"><ele>434.57142857142856</ele><time>2026-04-19T09:41:24.999Z</time></trkpt><trkpt lat="43.46572494303395" lon="10.61656834162229"><ele>433.2857142857143</ele><time>2026-04-19T09:41:26Z</time></trkpt><trkpt lat="43.4657627522879" lon="10.616653158876359"><ele>432.0</ele><time>2026-04-19T09:41:27Z</time></trkpt><trkpt lat="43.465777996624155" lon="10.616741329309601"><ele>432.0</ele><time>2026-04-19T09:41:28Z</time></trkpt><trkpt lat="43.465799549366615" lon="10.616828112224136"><ele>432.0</ele><time>2026-04-19T09:41:29Z</time></trkpt><trkpt lat="43.46582198989244" lon="10.61691894452442"><ele>432.0</ele><time>2026-04-19T09:41:30Z</time></trkpt><trkpt lat="43.46586932972806" lon="10.61704732649861"><ele>432.0</ele><time>2026-04-19T09:41:32Z</time></trkpt><trkpt lat="43.465897283348575" lon="10.61712540485827"><ele>432.0</ele><time>2026-04-19T09:41:33Z</time></trkpt><trkpt lat="43.46593728784319" lon="10.617197439065396"><ele>432.0</ele><time>2026-04-19T09:41:34Z</time></trkpt><trkpt lat="43.46597528673815" lon="10.61727644460886"><ele>432.0</ele><time>2026-04-19T09:41:35Z</time></trkpt><trkpt lat="43.46601015545663" lon="10.617358722197498"><ele>428.40000000000003</ele><time>2026-04-19T09:41:36Z</time></trkpt><trkpt lat="43.46604273673356" lon="10.617442668913478"><ele>424.80000000000007</ele><time>2026-04-19T09:41:37Z</time></trkpt><trkpt lat="43.46606290826524" lon="10.617537158206538"><ele>421.2</ele><time>2026-04-19T09:41:38Z</time></trkpt><trkpt lat="43.46610717647039" lon="10.617685952999127"><ele>417.6</ele><time>2026-04-19T09:41:40Z</time></trkpt><trkpt lat="43.466151749025414" lon="10.617839468954388"><ele>414.0</ele><time>2026-04-19T09:41:42Z</time></trkpt><trkpt lat="43.46623093759438" lon="10.617974883688214"><ele>415.8333333333333</ele><time>2026-04-19T09:41:44Z</time></trkpt><trkpt lat="43.46626939626191" lon="10.61804368344021"><ele>417.66666666666663</ele><time>2026-04-19T09:41:45Z</time></trkpt><trkpt lat="43.46634998800452" lon="10.618172751531793"><ele>419.5</ele><time>2026-04-19T09:41:47Z</time></trkpt><trkpt lat="43.466385420536625" lon="10.61824824450152"><ele>421.3333333333333</ele><time>2026-04-19T09:41:48Z</time></trkpt><trkpt lat="43.46641815205745" lon="10.618334302379225"><ele>423.16666666666663</ele><time>2026-04-19T09:41:49Z</time></trkpt><trkpt lat="43.466494522305915" lon="10.61846861846066"><ele>425.0</ele><time>2026-04-19T09:41:51Z</time></trkpt><trkpt lat="43.46658400222274" lon="10.618592611746413"><ele>422.8333333333333</ele><time>2026-04-19T09:41:53Z</time></trkpt><trkpt lat="43.46661098950044" lon="10.618672226902067"><ele>420.66666666666663</ele><time>2026-04-19T09:41:54Z</time></trkpt><trkpt lat="43.46662147278035" lon="10.618829138747847"><ele>418.5</ele><time>2026-04-19T09:41:56Z</time></trkpt><trkpt lat="43.466615744752445" lon="10.619001184276037"><ele>416.33333333333337</ele><time>2026-04-19T09:41:58Z</time></trkpt><trkpt lat="43.46662433945394" lon="10.619098122743917"><ele>414.1666666666667</ele><time>2026-04-19T09:41:59Z</time></trkpt><trkpt lat="43.46663760077573" lon="10.61918890477256"><ele>412.0</ele><time>2026-04-19T09:42:00Z</time></trkpt><trkpt lat="43.46665186882642" lon="10.619281912452745"><ele>411.99999999999994</ele><time>2026-04-19T09:42:01Z</time></trkpt><trkpt lat="43.46666740911144" lon="10.619380017524273"><ele>412.0</ele><time>2026-04-19T09:42:02Z</time></trkpt><trkpt lat="43.466679769665355" lon="10.619472347683315"><ele>412.0</ele><time>2026-04-19T09:42:03Z</time></trkpt><trkpt lat="43.46667288074285" lon="10.619572662391425"><ele>412.0</ele><time>2026-04-19T09:42:04Z</time></trkpt><trkpt lat="43.46666416921643" lon="10.619671771954641"><ele>412.0</ele><time>2026-04-19T09:42:05Z</time></trkpt><trkpt lat="43.46666098999603" lon="10.61977205617211"><ele>411.99999999999994</ele><time>2026-04-19T09:42:06Z</time></trkpt><trkpt lat="43.46665158177002" lon="10.619872533117668"><ele>412.0</ele><time>2026-04-19T09:42:07Z</time></trkpt><trkpt lat="43.46663997461477" lon="10.619971676051001"><ele>410.8</ele><time>2026-04-19T09:42:08Z</time></trkpt><trkpt lat="43.466622044530936" lon="10.620065739742323"><ele>409.6</ele><time>2026-04-19T09:42:09Z</time></trkpt><trkpt lat="43.46660962620916" lon="10.620152171818669"><ele>408.40000000000003</ele><time>2026-04-19T09:42:10Z</time></trkpt><trkpt lat="43.46660584455174" lon="10.620302922874073"><ele>407.20000000000005</ele><time>2026-04-19T09:42:12Z</time></trkpt><trkpt lat="43.46664720172287" lon="10.620433893503998"><ele>406.0</ele><time>2026-04-19T09:42:14Z</time></trkpt><trkpt lat="43.466723740675285" lon="10.62054545135136"><ele>405.4</ele><time>2026-04-19T09:42:16Z</time></trkpt><trkpt lat="43.46678668595608" lon="10.620683939489698"><ele>404.8</ele><time>2026-04-19T09:42:18Z</time></trkpt><trkpt lat="43.46684718150519" lon="10.620813596669398"><ele>404.2</ele><time>2026-04-19T09:42:20.001Z</time></trkpt><trkpt lat="43.46687129276199" lon="10.620931782369118"><ele>403.59999999999997</ele><time>2026-04-19T09:42:22.001Z</time></trkpt><trkpt lat="43.46686682623433" lon="10.621086157943887"><ele>403.0</ele><time>2026-04-19T09:42:24.001Z</time></trkpt><trkpt lat="43.46679303609165" lon="10.621150702165968"><ele>403.0</ele><time>2026-04-19T09:42:26.001Z</time></trkpt><trkpt lat="43.46672998435001" lon="10.621232441228846"><ele>403.0</ele><time>2026-04-19T09:42:28.001Z</time></trkpt><trkpt lat="43.46666061031908" lon="10.62132299595256"><ele>403.0</ele><time>2026-04-19T09:42:30.001Z</time></trkpt><trkpt lat="43.466588109859416" lon="10.62143190333188"><ele>403.0</ele><time>2026-04-19T09:42:32.001Z</time></trkpt><trkpt lat="43.46652660699642" lon="10.62155238344116"><ele>403.0</ele><time>2026-04-19T09:42:34.001Z</time></trkpt><trkpt lat="43.4664852641723" lon="10.621697212980845"><ele>403.0</ele><time>2026-04-19T09:42:36.001Z</time></trkpt><trkpt lat="43.46646069105675" lon="10.621854928014399"><ele>403.0</ele><time>2026-04-19T09:42:38.001Z</time></trkpt><trkpt lat="43.46644375960157" lon="10.622008297605005"><ele>403.0</ele><time>2026-04-19T09:42:40.001Z</time></trkpt><trkpt lat="43.46643858437438" lon="10.622159870132108"><ele>403.0</ele><time>2026-04-19T09:42:42.001Z</time></trkpt><trkpt lat="43.4664471293655" lon="10.622304294872446"><ele>403.0</ele><time>2026-04-19T09:42:44.001Z</time></trkpt><trkpt lat="43.46642414408647" lon="10.6224314829473"><ele>402.4</ele><time>2026-04-19T09:42:46.001Z</time></trkpt><trkpt lat="43.466397701542775" lon="10.622552441263386"><ele>401.79999999999995</ele><time>2026-04-19T09:42:48.001Z</time></trkpt><trkpt lat="43.466349633980556" lon="10.622674485908252"><ele>401.2</ele><time>2026-04-19T09:42:50.001Z</time></trkpt><trkpt lat="43.46625852379334" lon="10.622770133204995"><ele>400.6</ele><time>2026-04-19T09:42:52.001Z</time></trkpt><trkpt lat="43.46615443454159" lon="10.622832369543671"><ele>400.0</ele><time>2026-04-19T09:42:54.001Z</time></trkpt><trkpt lat="43.46608668944495" lon="10.622867004705384"><ele>400.00000000000006</ele><time>2026-04-19T09:42:55.001Z</time></trkpt><trkpt lat="43.46598014180075" lon="10.62290837092361"><ele>400.0</ele><time>2026-04-19T09:42:57.001Z</time></trkpt><trkpt lat="43.465866084637405" lon="10.6229239938091"><ele>400.0</ele><time>2026-04-19T09:42:59.001Z</time></trkpt><trkpt lat="43.46578601983526" lon="10.622940709081337"><ele>400.0</ele><time>2026-04-19T09:43:00.001Z</time></trkpt><trkpt lat="43.465721578143764" lon="10.62297155242838"><ele>400.00000000000006</ele><time>2026-04-19T09:43:01.001Z</time></trkpt><trkpt lat="43.465662598342504" lon="10.623030110648024"><ele>400.0</ele><time>2026-04-19T09:43:02.001Z</time></trkpt><trkpt lat="43.4656117152115" lon="10.623118431020394"><ele>400.00000000000006</ele><time>2026-04-19T09:43:03.001Z</time></trkpt><trkpt lat="43.46557676027757" lon="10.623200741302046"><ele>400.0</ele><time>2026-04-19T09:43:04.001Z</time></trkpt><trkpt lat="43.4655405909001" lon="10.623283383839379"><ele>400.0</ele><time>2026-04-19T09:43:05.001Z</time></trkpt><trkpt lat="43.465506388993965" lon="10.623359776377283"><ele>400.0</ele><time>2026-04-19T09:43:06.001Z</time></trkpt><trkpt lat="43.46546897044169" lon="10.623440878708742"><ele>400.0</ele><time>2026-04-19T09:43:07.001Z</time></trkpt><trkpt lat="43.465428686228215" lon="10.623528704321506"><ele>400.00000000000006</ele><time>2026-04-19T09:43:08.001Z</time></trkpt><trkpt lat="43.46540333270866" lon="10.623621755268239"><ele>400.0</ele><time>2026-04-19T09:43:09.001Z</time></trkpt><trkpt lat="43.46535698646858" lon="10.623692498161569"><ele>397.7142857142857</ele><time>2026-04-19T09:43:10.001Z</time></trkpt><trkpt lat="43.46530766072491" lon="10.623770510140494"><ele>395.42857142857144</ele><time>2026-04-19T09:43:11.001Z</time></trkpt><trkpt lat="43.465261797475236" lon="10.62384748076576"><ele>393.1428571428571</ele><time>2026-04-19T09:43:12.001Z</time></trkpt><trkpt lat="43.465232882533165" lon="10.623943405488605"><ele>390.8571428571429</ele><time>2026-04-19T09:43:13.001Z</time></trkpt><trkpt lat="43.46520799210533" lon="10.62403450038579"><ele>388.57142857142856</ele><time>2026-04-19T09:43:14Z</time></trkpt><trkpt lat="43.46516741034267" lon="10.624117043005038"><ele>386.2857142857143</ele><time>2026-04-19T09:43:15Z</time></trkpt><trkpt lat="43.465153842246465" lon="10.624221582121587"><ele>384.0</ele><time>2026-04-19T09:43:16Z</time></trkpt><trkpt lat="43.46511703200553" lon="10.624305540662705"><ele>383.99999999999994</ele><time>2026-04-19T09:43:17Z</time></trkpt><trkpt lat="43.46507787251069" lon="10.624377224291097"><ele>384.0</ele><time>2026-04-19T09:43:18Z</time></trkpt><trkpt lat="43.465032325787256" lon="10.624444487303773"><ele>384.0</ele><time>2026-04-19T09:43:19Z</time></trkpt><trkpt lat="43.46498185061129" lon="10.624509930014936"><ele>384.0</ele><time>2026-04-19T09:43:20Z</time></trkpt><trkpt lat="43.464930671730464" lon="10.624578037004346"><ele>384.0</ele><time>2026-04-19T09:43:21Z</time></trkpt><trkpt lat="43.46487925436042" lon="10.624636061714089"><ele>383.99999999999994</ele><time>2026-04-19T09:43:22Z</time></trkpt><trkpt lat="43.464828481873795" lon="10.624703354643474"><ele>384.0</ele><time>2026-04-19T09:43:23Z</time></trkpt><trkpt lat="43.46476363778797" lon="10.62482476933174"><ele>386.1666666666667</ele><time>2026-04-19T09:43:25Z</time></trkpt><trkpt lat="43.46471721493257" lon="10.624924464161948"><ele>388.33333333333337</ele><time>2026-04-19T09:43:27Z</time></trkpt><trkpt lat="43.46469298506944" lon="10.625017144118114"><ele>390.5</ele><time>2026-04-19T09:43:31Z</time></trkpt><trkpt lat="43.46473215087081" lon="10.62512862898746"><ele>392.6666666666667</ele><time>2026-04-19T09:43:46Z</time></trkpt><trkpt lat="43.46474999545083" lon="10.625229102825115"><ele>394.83333333333337</ele><time>2026-04-19T09:43:48Z</time></trkpt><trkpt lat="43.464741441559106" lon="10.625379728799587"><ele>397.0</ele><time>2026-04-19T09:43:50Z</time></trkpt><trkpt lat="43.46468215967233" lon="10.62552763779131"><ele>397.85714285714283</ele><time>2026-04-19T09:43:52Z</time></trkpt><trkpt lat="43.464636707640125" lon="10.625592940779761"><ele>398.71428571428567</ele><time>2026-04-19T09:43:53Z</time></trkpt><trkpt lat="43.46459162507723" lon="10.625665495689566"><ele>399.57142857142856</ele><time>2026-04-19T09:43:54Z</time></trkpt><trkpt lat="43.46454735232375" lon="10.625740964949276"><ele>400.42857142857144</ele><time>2026-04-19T09:43:55Z</time></trkpt><trkpt lat="43.464498764127434" lon="10.62582786745702"><ele>401.2857142857143</ele><time>2026-04-19T09:43:56Z</time></trkpt><trkpt lat="43.46445565986318" lon="10.625910943976649"><ele>402.14285714285717</ele><time>2026-04-19T09:43:57Z</time></trkpt><trkpt lat="43.464421688011164" lon="10.626001762422137"><ele>403.0</ele><time>2026-04-19T09:43:58Z</time></trkpt><trkpt lat="43.464403561327856" lon="10.626088223356657"><ele>396.1666666666667</ele><time>2026-04-19T09:43:59Z</time></trkpt><trkpt lat="43.464403866651686" lon="10.626179534830994"><ele>389.33333333333337</ele><time>2026-04-19T09:44:00Z</time></trkpt><trkpt lat="43.46440345437066" lon="10.626272825378528"><ele>382.5</ele><time>2026-04-19T09:44:01Z</time></trkpt><trkpt lat="43.46441947625594" lon="10.62644614802631"><ele>375.6666666666667</ele><time>2026-04-19T09:44:03Z</time></trkpt><trkpt lat="43.464432451462756" lon="10.626540815726113"><ele>368.83333333333337</ele><time>2026-04-19T09:44:04Z</time></trkpt><trkpt lat="43.4644614258069" lon="10.62662755909077"><ele>362.0</ele><time>2026-04-19T09:44:05Z</time></trkpt><trkpt lat="43.464497417125" lon="10.626708052347404"><ele>362.0</ele><time>2026-04-19T09:44:06Z</time></trkpt><trkpt lat="43.46454231998877" lon="10.626778015980884"><ele>362.0</ele><time>2026-04-19T09:44:07Z</time></trkpt><trkpt lat="43.464591306114635" lon="10.626844175978293"><ele>362.0</ele><time>2026-04-19T09:44:08Z</time></trkpt><trkpt lat="43.464696845982324" lon="10.626940182571689"><ele>362.0</ele><time>2026-04-19T09:44:10Z</time></trkpt><trkpt lat="43.46475996865272" lon="10.626977674820996"><ele>362.0</ele><time>2026-04-19T09:44:11Z</time></trkpt><trkpt lat="43.46482236559752" lon="10.62700064064101"><ele>362.0</ele><time>2026-04-19T09:44:12.001Z</time></trkpt><trkpt lat="43.464938258749655" lon="10.627002363649146"><ele>363.5</ele><time>2026-04-19T09:44:14.001Z</time></trkpt><trkpt lat="43.465050097049506" lon="10.627018291066761"><ele>365.0</ele><time>2026-04-19T09:44:16.001Z</time></trkpt><trkpt lat="43.46510950654221" lon="10.627057293129104"><ele>366.5</ele><time>2026-04-19T09:44:17.001Z</time></trkpt><trkpt lat="43.46522625663103" lon="10.627096335684534"><ele>368.0</ele><time>2026-04-19T09:44:19.001Z</time></trkpt><trkpt lat="43.46529107845108" lon="10.627114514637519"><ele>369.5</ele><time>2026-04-19T09:44:20.001Z</time></trkpt><trkpt lat="43.46535805031102" lon="10.62713420119782"><ele>371.0</ele><time>2026-04-19T09:44:21.001Z</time></trkpt><trkpt lat="43.46546146305674" lon="10.627215091980355"><ele>371.0</ele><time>2026-04-19T09:44:23.001Z</time></trkpt><trkpt lat="43.46550112467907" lon="10.627376154538679"><ele>371.0</ele><time>2026-04-19T09:44:25.001Z</time></trkpt><trkpt lat="43.46543705916447" lon="10.627517898884363"><ele>371.0</ele><time>2026-04-19T09:44:27.001Z</time></trkpt><trkpt lat="43.46535269136055" lon="10.627635782439272"><ele>371.0</ele><time>2026-04-19T09:44:29.001Z</time></trkpt><trkpt lat="43.465292685186526" lon="10.62769022418392"><ele>371.0</ele><time>2026-04-19T09:44:30.001Z</time></trkpt><trkpt lat="43.46524758426158" lon="10.627762954776792"><ele>370.33333333333337</ele><time>2026-04-19T09:44:31.001Z</time></trkpt><trkpt lat="43.46520115472775" lon="10.627833777529295"><ele>369.6666666666667</ele><time>2026-04-19T09:44:32.001Z</time></trkpt><trkpt lat="43.46516087096381" lon="10.627909740669054"><ele>369.0</ele><time>2026-04-19T09:44:33.001Z</time></trkpt><trkpt lat="43.46511689237133" lon="10.627994641597896"><ele>368.3333333333333</ele><time>2026-04-19T09:44:34.001Z</time></trkpt><trkpt lat="43.46507945862509" lon="10.628072515118916"><ele>367.66666666666663</ele><time>2026-04-19T09:44:35.001Z</time></trkpt><trkpt lat="43.46504305742873" lon="10.628144916127699"><ele>367.0</ele><time>2026-04-19T09:44:36.001Z</time></trkpt><trkpt lat="43.46500866815746" lon="10.628299474633893"><ele>367.0</ele><time>2026-04-19T09:44:38.001Z</time></trkpt><trkpt lat="43.465033261085786" lon="10.628431983531373"><ele>367.0</ele><time>2026-04-19T09:44:40.001Z</time></trkpt><trkpt lat="43.465104610444364" lon="10.628577426417094"><ele>367.0</ele><time>2026-04-19T09:44:42.001Z</time></trkpt><trkpt lat="43.46514556660838" lon="10.628645780277786"><ele>367.0</ele><time>2026-04-19T09:44:43.001Z</time></trkpt><trkpt lat="43.46519360872808" lon="10.628723887241403"><ele>367.0</ele><time>2026-04-19T09:44:44.001Z</time></trkpt><trkpt lat="43.465242119793324" lon="10.628806426447706"><ele>367.0</ele><time>2026-04-19T09:44:45.001Z</time></trkpt><trkpt lat="43.46529015409473" lon="10.628883254059676"><ele>365.66666666666663</ele><time>2026-04-19T09:44:46.001Z</time></trkpt><trkpt lat="43.46534158981467" lon="10.628959815044714"><ele>364.3333333333333</ele><time>2026-04-19T09:44:47.001Z</time></trkpt><trkpt lat="43.46540071411002" lon="10.62903141423271"><ele>363.0</ele><time>2026-04-19T09:44:48.001Z</time></trkpt><trkpt lat="43.46546616072207" lon="10.629094076663499"><ele>361.6666666666667</ele><time>2026-04-19T09:44:49.001Z</time></trkpt><trkpt lat="43.46554230005527" lon="10.62914144015033"><ele>360.33333333333337</ele><time>2026-04-19T09:44:50.001Z</time></trkpt><trkpt lat="43.46559944770079" lon="10.62922012910871"><ele>359.0</ele><time>2026-04-19T09:44:51.001Z</time></trkpt><trkpt lat="43.46565851034189" lon="10.629291854042057"><ele>360.0</ele><time>2026-04-19T09:44:52.001Z</time></trkpt><trkpt lat="43.46571036778791" lon="10.629372046256979"><ele>361.0</ele><time>2026-04-19T09:44:53.001Z</time></trkpt><trkpt lat="43.46576155829971" lon="10.629447692636678"><ele>362.0</ele><time>2026-04-19T09:44:54.001Z</time></trkpt><trkpt lat="43.46581984791545" lon="10.629518681547294"><ele>363.0</ele><time>2026-04-19T09:44:55.001Z</time></trkpt><trkpt lat="43.46586765971827" lon="10.629598386916793"><ele>364.0</ele><time>2026-04-19T09:44:56.001Z</time></trkpt><trkpt lat="43.465917959023" lon="10.629675957375945"><ele>365.0</ele><time>2026-04-19T09:44:57.001Z</time></trkpt><trkpt lat="43.46596382459877" lon="10.629750684250565"><ele>365.00000000000006</ele><time>2026-04-19T09:44:58.001Z</time></trkpt><trkpt lat="43.466006856870756" lon="10.629829870541213"><ele>365.0</ele><time>2026-04-19T09:44:59.001Z</time></trkpt><trkpt lat="43.46603613915401" lon="10.629918947879432"><ele>365.0</ele><time>2026-04-19T09:45:00.001Z</time></trkpt><trkpt lat="43.46605070494658" lon="10.630014077100515"><ele>365.0</ele><time>2026-04-19T09:45:01.001Z</time></trkpt><trkpt lat="43.466053483459724" lon="10.630111779133394"><ele>365.0</ele><time>2026-04-19T09:45:02.001Z</time></trkpt><trkpt lat="43.46604566978865" lon="10.630211499822721"><ele>365.00000000000006</ele><time>2026-04-19T09:45:03.001Z</time></trkpt><trkpt lat="43.466036194301914" lon="10.630305077817864"><ele>365.0</ele><time>2026-04-19T09:45:04.001Z</time></trkpt><trkpt lat="43.46602619528535" lon="10.63045935414789"><ele>364.6666666666667</ele><time>2026-04-19T09:45:06.001Z</time></trkpt><trkpt lat="43.466041519980024" lon="10.630572662933737"><ele>364.33333333333337</ele><time>2026-04-19T09:45:08.001Z</time></trkpt><trkpt lat="43.46606011538702" lon="10.630662695491877"><ele>364.0</ele><time>2026-04-19T09:45:10.001Z</time></trkpt><trkpt lat="43.46609304009249" lon="10.630749944631127"><ele>363.6666666666667</ele><time>2026-04-19T09:45:13.001Z</time></trkpt><trkpt lat="43.466104998132984" lon="10.630838406815904"><ele>363.3333333333333</ele><time>2026-04-19T09:45:15.001Z</time></trkpt><trkpt lat="43.46621343034946" lon="10.630903616237743"><ele>363.0</ele><time>2026-04-19T09:45:17.001Z</time></trkpt><trkpt lat="43.466276438180095" lon="10.630943574694868"><ele>363.2</ele><time>2026-04-19T09:45:18.002Z</time></trkpt><trkpt lat="43.46635397257946" lon="10.630972937419088"><ele>363.4</ele><time>2026-04-19T09:45:19.002Z</time></trkpt><trkpt lat="43.466443957337255" lon="10.63097172963757"><ele>363.59999999999997</ele><time>2026-04-19T09:45:20Z</time></trkpt><trkpt lat="43.46654506556158" lon="10.63094971642783"><ele>363.79999999999995</ele><time>2026-04-19T09:45:21Z</time></trkpt><trkpt lat="43.46665818402494" lon="10.630900566256202"><ele>364.0</ele><time>2026-04-19T09:45:22Z</time></trkpt><trkpt lat="43.466766777457664" lon="10.63085599571252"><ele>364.0</ele><time>2026-04-19T09:45:23Z</time></trkpt><trkpt lat="43.466873946706606" lon="10.630816823479783"><ele>364.0</ele><time>2026-04-19T09:45:24Z</time></trkpt><trkpt lat="43.46698634687133" lon="10.630790347875925"><ele>364.0</ele><time>2026-04-19T09:45:25Z</time></trkpt><trkpt lat="43.46710040347682" lon="10.630789851582128"><ele>364.0</ele><time>2026-04-19T09:45:26Z</time></trkpt><trkpt lat="43.467217547401454" lon="10.630820923395797"><ele>364.25</ele><time>2026-04-19T09:45:27Z</time></trkpt><trkpt lat="43.46733221024416" lon="10.630872501300468"><ele>364.5</ele><time>2026-04-19T09:45:28Z</time></trkpt><trkpt lat="43.46744584560895" lon="10.63093895449121"><ele>364.75</ele><time>2026-04-19T09:45:29Z</time></trkpt><trkpt lat="43.467566204930456" lon="10.630993772966205"><ele>365.0</ele><time>2026-04-19T09:45:30Z</time></trkpt><trkpt lat="43.467676510724246" lon="10.63104535456673"><ele>365.0</ele><time>2026-04-19T09:45:31Z</time></trkpt><trkpt lat="43.467785985302925" lon="10.631099583561019"><ele>365.0</ele><time>2026-04-19T09:45:32Z</time></trkpt><trkpt lat="43.46789194388712" lon="10.631166304205024"><ele>365.0</ele><time>2026-04-19T09:45:33Z</time></trkpt><trkpt lat="43.46799203217821" lon="10.631224690897206"><ele>365.0</ele><time>2026-04-19T09:45:34Z</time></trkpt><trkpt lat="43.46809079178874" lon="10.631269565409049"><ele>365.0</ele><time>2026-04-19T09:45:35Z</time></trkpt><trkpt lat="43.46818813706099" lon="10.631278732433483"><ele>364.8</ele><time>2026-04-19T09:45:36Z</time></trkpt><trkpt lat="43.46829150522435" lon="10.631244891342334"><ele>364.6</ele><time>2026-04-19T09:45:37Z</time></trkpt><trkpt lat="43.46836670724753" lon="10.63116827798194"><ele>364.4</ele><time>2026-04-19T09:45:38Z</time></trkpt><trkpt lat="43.46842489811428" lon="10.631039709436536"><ele>364.2</ele><time>2026-04-19T09:45:39Z</time></trkpt><trkpt lat="43.46845498564226" lon="10.630921459562112"><ele>364.0</ele><time>2026-04-19T09:45:40Z</time></trkpt><trkpt lat="43.468485122436626" lon="10.63076687963407"><ele>364.0</ele><time>2026-04-19T09:45:41Z</time></trkpt><trkpt lat="43.46852644979688" lon="10.630631426402733"><ele>364.0</ele><time>2026-04-19T09:45:42Z</time></trkpt><trkpt lat="43.46855590460176" lon="10.630490452258552"><ele>364.0</ele><time>2026-04-19T09:45:43Z</time></trkpt><trkpt lat="43.46859011391723" lon="10.630354130239114"><ele>364.0</ele><time>2026-04-19T09:45:44Z</time></trkpt><trkpt lat="43.468631201151545" lon="10.630225233190247"><ele>364.0</ele><time>2026-04-19T09:45:45Z</time></trkpt><trkpt lat="43.46868253681861" lon="10.630118684486012"><ele>363.0</ele><time>2026-04-19T09:45:46Z</time></trkpt><trkpt lat="43.468749713330546" lon="10.630020600185546"><ele>362.0</ele><time>2026-04-19T09:45:47Z</time></trkpt><trkpt lat="43.46883674769964" lon="10.629931542827421"><ele>361.0</ele><time>2026-04-19T09:45:48Z</time></trkpt><trkpt lat="43.46894189863549" lon="10.629839424279236"><ele>360.0</ele><time>2026-04-19T09:45:49Z</time></trkpt><trkpt lat="43.469035848322314" lon="10.629767916932773"><ele>359.0</ele><time>2026-04-19T09:45:50Z</time></trkpt><trkpt lat="43.46910998789971" lon="10.62969417252128"><ele>359.0</ele><time>2026-04-19T09:45:51Z</time></trkpt><trkpt lat="43.469180626436476" lon="10.62961718765556"><ele>359.0</ele><time>2026-04-19T09:45:52Z</time></trkpt><trkpt lat="43.46925257801364" lon="10.62956306034968"><ele>359.0</ele><time>2026-04-19T09:45:53Z</time></trkpt><trkpt lat="43.469328902785776" lon="10.629554520839111"><ele>359.0</ele><time>2026-04-19T09:45:54Z</time></trkpt><trkpt lat="43.4694031901493" lon="10.62957810481831"><ele>359.0</ele><time>2026-04-19T09:45:55Z</time></trkpt><trkpt lat="43.469459109526085" lon="10.629631990876613"><ele>359.0</ele><time>2026-04-19T09:45:56Z</time></trkpt><trkpt lat="43.46948892907786" lon="10.629712681958804"><ele>359.0</ele><time>2026-04-19T09:45:57Z</time></trkpt><trkpt lat="43.469479856988436" lon="10.629825605134032"><ele>359.0</ele><time>2026-04-19T09:45:58Z</time></trkpt><trkpt lat="43.46946181426111" lon="10.629934841581933"><ele>359.0</ele><time>2026-04-19T09:45:59Z</time></trkpt><trkpt lat="43.46941419734994" lon="10.630050363070845"><ele>359.0</ele><time>2026-04-19T09:46:00Z</time></trkpt><trkpt lat="43.46935212373554" lon="10.63015695836875"><ele>359.0</ele><time>2026-04-19T09:46:01Z</time></trkpt><trkpt lat="43.46929850204571" lon="10.630242813438954"><ele>359.0</ele><time>2026-04-19T09:46:02Z</time></trkpt><trkpt lat="43.469232841134186" lon="10.63031707221905"><ele>357.33333333333337</ele><time>2026-04-19T09:46:03.001Z</time></trkpt><trkpt lat="43.46918268636252" lon="10.630403937860434"><ele>355.6666666666667</ele><time>2026-04-19T09:46:04.001Z</time></trkpt><trkpt lat="43.46916809574984" lon="10.630514420605367"><ele>354.0</ele><time>2026-04-19T09:46:05.001Z</time></trkpt><trkpt lat="43.469172107509074" lon="10.630636345883731"><ele>352.3333333333333</ele><time>2026-04-19T09:46:06.001Z</time></trkpt><trkpt lat="43.469194005060814" lon="10.63075026579662"><ele>350.66666666666663</ele><time>2026-04-19T09:46:07.001Z</time></trkpt><trkpt lat="43.46922830761372" lon="10.630867613979884"><ele>349.0</ele><time>2026-04-19T09:46:08.001Z</time></trkpt><trkpt lat="43.46927539932492" lon="10.630992908181968"><ele>349.0</ele><time>2026-04-19T09:46:09.001Z</time></trkpt><trkpt lat="43.46932078814228" lon="10.631111775461333"><ele>349.0</ele><time>2026-04-19T09:46:10.001Z</time></trkpt><trkpt lat="43.4693542510387" lon="10.631227133078465"><ele>349.0</ele><time>2026-04-19T09:46:11.001Z</time></trkpt><trkpt lat="43.4693712995817" lon="10.63135931469568"><ele>349.0</ele><time>2026-04-19T09:46:12.001Z</time></trkpt><trkpt lat="43.46936967144941" lon="10.631492512275393"><ele>349.0</ele><time>2026-04-19T09:46:13.001Z</time></trkpt><trkpt lat="43.46935936524596" lon="10.631606221663798"><ele>347.3333333333333</ele><time>2026-04-19T09:46:14.001Z</time></trkpt><trkpt lat="43.46936259451721" lon="10.631703265851044"><ele>345.66666666666663</ele><time>2026-04-19T09:46:15.001Z</time></trkpt><trkpt lat="43.469393603460425" lon="10.631792023311606"><ele>344.0</ele><time>2026-04-19T09:46:16.001Z</time></trkpt><trkpt lat="43.46944353556443" lon="10.631868381272726"><ele>342.3333333333333</ele><time>2026-04-19T09:46:17.001Z</time></trkpt><trkpt lat="43.469522813065744" lon="10.63190834425693"><ele>340.6666666666667</ele><time>2026-04-19T09:46:18.001Z</time></trkpt><trkpt lat="43.46961437961439" lon="10.631935031940156"><ele>339.0</ele><time>2026-04-19T09:46:19.001Z</time></trkpt><trkpt lat="43.469712919315626" lon="10.63196582805468"><ele>342.0</ele><time>2026-04-19T09:46:20.001Z</time></trkpt><trkpt lat="43.46982176202402" lon="10.63200145439658"><ele>345.0</ele><time>2026-04-19T09:46:21.001Z</time></trkpt><trkpt lat="43.469927624107086" lon="10.632073483548666"><ele>348.0</ele><time>2026-04-19T09:46:22.001Z</time></trkpt><trkpt lat="43.470027405392116" lon="10.632180224753657"><ele>351.0</ele><time>2026-04-19T09:46:23.001Z</time></trkpt><trkpt lat="43.47010391812212" lon="10.632302577018233"><ele>351.0</ele><time>2026-04-19T09:46:24.001Z</time></trkpt><trkpt lat="43.47019146667995" lon="10.632431105771365"><ele>351.0</ele><time>2026-04-19T09:46:25.001Z</time></trkpt><trkpt lat="43.470283720912235" lon="10.63255546853854"><ele>351.0</ele><time>2026-04-19T09:46:26.001Z</time></trkpt><trkpt lat="43.47037677656978" lon="10.632675062336984"><ele>351.0</ele><time>2026-04-19T09:46:27.001Z</time></trkpt><trkpt lat="43.470473051080354" lon="10.63278871678524"><ele>353.0</ele><time>2026-04-19T09:46:28.001Z</time></trkpt><trkpt lat="43.47056430002158" lon="10.632900380006323"><ele>355.0</ele><time>2026-04-19T09:46:29.001Z</time></trkpt><trkpt lat="43.470647819001904" lon="10.63301773567868"><ele>357.0</ele><time>2026-04-19T09:46:30.001Z</time></trkpt><trkpt lat="43.470719172157104" lon="10.633154174303572"><ele>359.0</ele><time>2026-04-19T09:46:31.001Z</time></trkpt><trkpt lat="43.470787546504205" lon="10.633301954753245"><ele>359.0</ele><time>2026-04-19T09:46:32.001Z</time></trkpt><trkpt lat="43.47084819943238" lon="10.633455380573995"><ele>359.0</ele><time>2026-04-19T09:46:33.001Z</time></trkpt><trkpt lat="43.47090808065771" lon="10.633613763592665"><ele>359.0</ele><time>2026-04-19T09:46:34.001Z</time></trkpt><trkpt lat="43.47096676079655" lon="10.633785095862196"><ele>359.0</ele><time>2026-04-19T09:46:35.001Z</time></trkpt><trkpt lat="43.47102996868019" lon="10.633954904250887"><ele>360.0</ele><time>2026-04-19T09:46:36.001Z</time></trkpt><trkpt lat="43.47109392196769" lon="10.634126255192822"><ele>361.0</ele><time>2026-04-19T09:46:37.001Z</time></trkpt><trkpt lat="43.47115929702334" lon="10.63429954309668"><ele>362.0</ele><time>2026-04-19T09:46:38.001Z</time></trkpt><trkpt lat="43.47122650261849" lon="10.634472360628324"><ele>363.0</ele><time>2026-04-19T09:46:39.001Z</time></trkpt><trkpt lat="43.47129201965075" lon="10.634649589766775"><ele>363.0</ele><time>2026-04-19T09:46:40.001Z</time></trkpt><trkpt lat="43.47135988661585" lon="10.63482656582987"><ele>363.0</ele><time>2026-04-19T09:46:41.001Z</time></trkpt><trkpt lat="43.471428002251514" lon="10.634999492730998"><ele>363.0</ele><time>2026-04-19T09:46:42.001Z</time></trkpt><trkpt lat="43.471495738297875" lon="10.635170728053728"><ele>363.0</ele><time>2026-04-19T09:46:43.001Z</time></trkpt><trkpt lat="43.47156637091993" lon="10.635335377520564"><ele>362.25</ele><time>2026-04-19T09:46:44.001Z</time></trkpt><trkpt lat="43.47163243135823" lon="10.635496325473413"><ele>361.5</ele><time>2026-04-19T09:46:45.001Z</time></trkpt><trkpt lat="43.47169438051959" lon="10.635656772206193"><ele>360.75</ele><time>2026-04-19T09:46:46.001Z</time></trkpt><trkpt lat="43.471752697358696" lon="10.63580568120007"><ele>360.0</ele><time>2026-04-19T09:46:47.001Z</time></trkpt><trkpt lat="43.47182244861596" lon="10.635930635797314"><ele>360.0</ele><time>2026-04-19T09:46:48.001Z</time></trkpt><trkpt lat="43.47190145521966" lon="10.636035033663164"><ele>360.0</ele><time>2026-04-19T09:46:49.001Z</time></trkpt><trkpt lat="43.47199328090018" lon="10.636119738523933"><ele>360.0</ele><time>2026-04-19T09:46:50.001Z</time></trkpt><trkpt lat="43.47209787619746" lon="10.636171463521112"><ele>360.0</ele><time>2026-04-19T09:46:51.001Z</time></trkpt><trkpt lat="43.472198896332976" lon="10.636187768795503"><ele>360.0</ele><time>2026-04-19T09:46:52.001Z</time></trkpt><trkpt lat="43.47228958572953" lon="10.636175397981637"><ele>360.4</ele><time>2026-04-19T09:46:53.001Z</time></trkpt><trkpt lat="43.47237033719085" lon="10.636149311093835"><ele>360.8</ele><time>2026-04-19T09:46:54.001Z</time></trkpt><trkpt lat="43.47249304645261" lon="10.636111955008943"><ele>361.20000000000005</ele><time>2026-04-19T09:46:56.001Z</time></trkpt><trkpt lat="43.472578350377674" lon="10.636155945550536"><ele>361.6</ele><time>2026-04-19T09:47:02.001Z</time></trkpt><trkpt lat="43.472474056402525" lon="10.63619604743985"><ele>362.0</ele><time>2026-04-19T09:47:03.001Z</time></trkpt><trkpt lat="43.47240410160196" lon="10.636262945910337"><ele>360.8</ele><time>2026-04-19T09:47:05.001Z</time></trkpt><trkpt lat="43.472303063109905" lon="10.63635316706595"><ele>359.6</ele><time>2026-04-19T09:47:07.001Z</time></trkpt><trkpt lat="43.472247189649615" lon="10.636402524767675"><ele>358.40000000000003</ele><time>2026-04-19T09:47:08.001Z</time></trkpt><trkpt lat="43.47218922550833" lon="10.636453729342271"><ele>357.20000000000005</ele><time>2026-04-19T09:47:09.002Z</time></trkpt><trkpt lat="43.472070356293834" lon="10.636584888406938"><ele>356.0</ele><time>2026-04-19T09:47:11.002Z</time></trkpt><trkpt lat="43.47200166858069" lon="10.636635152274943"><ele>356.0</ele><time>2026-04-19T09:47:12.002Z</time></trkpt><trkpt lat="43.47193562883342" lon="10.636689079146423"><ele>356.0</ele><time>2026-04-19T09:47:13.002Z</time></trkpt><trkpt lat="43.47186713628635" lon="10.636731241404378"><ele>356.0</ele><time>2026-04-19T09:47:14.002Z</time></trkpt><trkpt lat="43.47179258647812" lon="10.636790461933018"><ele>356.0</ele><time>2026-04-19T09:47:15.002Z</time></trkpt><trkpt lat="43.47171787600127" lon="10.636849660785298"><ele>356.0</ele><time>2026-04-19T09:47:16.002Z</time></trkpt><trkpt lat="43.47164324977854" lon="10.636909800625242"><ele>356.0</ele><time>2026-04-19T09:47:17.002Z</time></trkpt><trkpt lat="43.4715656551299" lon="10.636964503144883"><ele>355.0</ele><time>2026-04-19T09:47:18.002Z</time></trkpt><trkpt lat="43.47148322978877" lon="10.637023298867021"><ele>354.0</ele><time>2026-04-19T09:47:19.002Z</time></trkpt><trkpt lat="43.47140636022633" lon="10.637089211708611"><ele>353.0</ele><time>2026-04-19T09:47:20.002Z</time></trkpt><trkpt lat="43.471333690930024" lon="10.637156830755334"><ele>352.0</ele><time>2026-04-19T09:47:21.002Z</time></trkpt><trkpt lat="43.4712691628469" lon="10.637227450703078"><ele>351.0</ele><time>2026-04-19T09:47:22.002Z</time></trkpt><trkpt lat="43.47120887234818" lon="10.637296134745709"><ele>350.0</ele><time>2026-04-19T09:47:23.002Z</time></trkpt><trkpt lat="43.47114818257034" lon="10.637354811563203"><ele>350.0</ele><time>2026-04-19T09:47:24.002Z</time></trkpt><trkpt lat="43.47108268720604" lon="10.637408778770215"><ele>350.0</ele><time>2026-04-19T09:47:25.002Z</time></trkpt><trkpt lat="43.471013777026236" lon="10.637465105245516"><ele>350.0</ele><time>2026-04-19T09:47:26Z</time></trkpt><trkpt lat="43.47094971275772" lon="10.63752943016969"><ele>350.0</ele><time>2026-04-19T09:47:27Z</time></trkpt><trkpt lat="43.470894313925825" lon="10.637600081527683"><ele>350.0</ele><time>2026-04-19T09:47:28Z</time></trkpt><trkpt lat="43.47083206494967" lon="10.637653975067936"><ele>350.0</ele><time>2026-04-19T09:47:29Z</time></trkpt><trkpt lat="43.47076024648094" lon="10.637682181258919"><ele>350.0</ele><time>2026-04-19T09:47:30Z</time></trkpt><trkpt lat="43.4706842327033" lon="10.637702536058166"><ele>350.0</ele><time>2026-04-19T09:47:31Z</time></trkpt><trkpt lat="43.47060168680757" lon="10.637714381161523"><ele>350.0</ele><time>2026-04-19T09:47:32Z</time></trkpt><trkpt lat="43.47051930967665" lon="10.637723510075539"><ele>350.0</ele><time>2026-04-19T09:47:33Z</time></trkpt><trkpt lat="43.470441674084626" lon="10.637755786155736"><ele>350.0</ele><time>2026-04-19T09:47:34Z</time></trkpt><trkpt lat="43.47037413227403" lon="10.637781852687235"><ele>350.0</ele><time>2026-04-19T09:47:35Z</time></trkpt><trkpt lat="43.47030276578723" lon="10.63780220556227"><ele>349.2857142857143</ele><time>2026-04-19T09:47:36Z</time></trkpt><trkpt lat="43.47023403226003" lon="10.637899138850015"><ele>348.57142857142856</ele><time>2026-04-19T09:47:37Z</time></trkpt><trkpt lat="43.470170779120565" lon="10.637958151905282"><ele>347.8571428571429</ele><time>2026-04-19T09:47:38Z</time></trkpt><trkpt lat="43.470103656071686" lon="10.637976058408116"><ele>347.1428571428571</ele><time>2026-04-19T09:47:39Z</time></trkpt><trkpt lat="43.47003931519158" lon="10.638012168612189"><ele>346.42857142857144</ele><time>2026-04-19T09:47:40Z</time></trkpt><trkpt lat="43.46997871242256" lon="10.638052077166458"><ele>345.7142857142857</ele><time>2026-04-19T09:47:41Z</time></trkpt><trkpt lat="43.469919622414835" lon="10.638091454538783"><ele>345.0</ele><time>2026-04-19T09:47:42Z</time></trkpt><trkpt lat="43.469821838693875" lon="10.63817376228997"><ele>345.0</ele><time>2026-04-19T09:47:44Z</time></trkpt><trkpt lat="43.469772577853654" lon="10.638231298477614"><ele>345.0</ele><time>2026-04-19T09:47:45Z</time></trkpt><trkpt lat="43.46971323509629" lon="10.638270847329142"><ele>345.0</ele><time>2026-04-19T09:47:46Z</time></trkpt><trkpt lat="43.46967231951871" lon="10.638350916406411"><ele>345.0</ele><time>2026-04-19T09:47:47Z</time></trkpt><trkpt lat="43.46962821060184" lon="10.638413159554156"><ele>345.0</ele><time>2026-04-19T09:47:48Z</time></trkpt><trkpt lat="43.46959274192561" lon="10.638487009687088"><ele>345.0</ele><time>2026-04-19T09:47:49Z</time></trkpt><trkpt lat="43.46956687152382" lon="10.63856776217602"><ele>345.0</ele><time>2026-04-19T09:47:50Z</time></trkpt><trkpt lat="43.46954385768591" lon="10.638651874209796"><ele>342.6</ele><time>2026-04-19T09:47:51Z</time></trkpt><trkpt lat="43.46952507280707" lon="10.63877415756216"><ele>340.2</ele><time>2026-04-19T09:47:53Z</time></trkpt><trkpt lat="43.46947984820476" lon="10.638912555035976"><ele>337.79999999999995</ele><time>2026-04-19T09:47:55Z</time></trkpt><trkpt lat="43.46944227492079" lon="10.639030455060231"><ele>335.4</ele><time>2026-04-19T09:47:57Z</time></trkpt><trkpt lat="43.469380362279296" lon="10.639155186222224"><ele>333.0</ele><time>2026-04-19T09:47:59Z</time></trkpt><trkpt lat="43.46933423492248" lon="10.63921468131667"><ele>333.0</ele><time>2026-04-19T09:48:00Z</time></trkpt><trkpt lat="43.469276502588194" lon="10.63927514249578"><ele>333.0</ele><time>2026-04-19T09:48:01Z</time></trkpt><trkpt lat="43.46922041030125" lon="10.639332038653459"><ele>333.0</ele><time>2026-04-19T09:48:02Z</time></trkpt><trkpt lat="43.469163830615" lon="10.63938682273965"><ele>333.0</ele><time>2026-04-19T09:48:03Z</time></trkpt><trkpt lat="43.469066333874494" lon="10.639465938701319"><ele>333.0</ele><time>2026-04-19T09:48:05Z</time></trkpt><trkpt lat="43.468967647741145" lon="10.639545388394087"><ele>333.0</ele><time>2026-04-19T09:48:07Z</time></trkpt><trkpt lat="43.46886839951856" lon="10.639618874619233"><ele>332.8333333333333</ele><time>2026-04-19T09:48:09.001Z</time></trkpt><trkpt lat="43.46877677047599" lon="10.639679968837493"><ele>332.6666666666667</ele><time>2026-04-19T09:48:11.001Z</time></trkpt><trkpt lat="43.46867312400577" lon="10.639737392970341"><ele>332.5</ele><time>2026-04-19T09:48:13.001Z</time></trkpt><trkpt lat="43.46860702402674" lon="10.639768054708442"><ele>332.33333333333337</ele><time>2026-04-19T09:48:14.001Z</time></trkpt><trkpt lat="43.46854470969934" lon="10.63979582672451"><ele>332.1666666666667</ele><time>2026-04-19T09:48:15.001Z</time></trkpt><trkpt lat="43.46848079415923" lon="10.639826206429692"><ele>332.0</ele><time>2026-04-19T09:48:16.001Z</time></trkpt><trkpt lat="43.46837222553941" lon="10.639905037524608"><ele>332.0</ele><time>2026-04-19T09:48:18.001Z</time></trkpt><trkpt lat="43.46831312589638" lon="10.639940736097584"><ele>332.0</ele><time>2026-04-19T09:48:19.001Z</time></trkpt><trkpt lat="43.468255083737695" lon="10.6399818354126"><ele>332.0</ele><time>2026-04-19T09:48:20.001Z</time></trkpt><trkpt lat="43.468198016031344" lon="10.640033929728403"><ele>332.0</ele><time>2026-04-19T09:48:21.001Z</time></trkpt><trkpt lat="43.46814531156973" lon="10.640099986129412"><ele>332.0</ele><time>2026-04-19T09:48:22.001Z</time></trkpt><trkpt lat="43.46809694808953" lon="10.640180945929366"><ele>332.0</ele><time>2026-04-19T09:48:23.001Z</time></trkpt><trkpt lat="43.468054399747864" lon="10.640268423915668"><ele>332.0</ele><time>2026-04-19T09:48:24.001Z</time></trkpt><trkpt lat="43.468005543603994" lon="10.640403967230332"><ele>330.83333333333337</ele><time>2026-04-19T09:48:25.001Z</time></trkpt><trkpt lat="43.4679499846287" lon="10.640507161197693"><ele>329.6666666666667</ele><time>2026-04-19T09:48:26.001Z</time></trkpt><trkpt lat="43.467917966766976" lon="10.640626626146224"><ele>328.5</ele><time>2026-04-19T09:48:27.001Z</time></trkpt><trkpt lat="43.46788425391544" lon="10.64072615794954"><ele>327.3333333333333</ele><time>2026-04-19T09:48:28.001Z</time></trkpt><trkpt lat="43.46784702824054" lon="10.640828112339332"><ele>326.16666666666663</ele><time>2026-04-19T09:48:29.001Z</time></trkpt><trkpt lat="43.46781085314981" lon="10.640918231218823"><ele>325.0</ele><time>2026-04-19T09:48:30.001Z</time></trkpt><trkpt lat="43.46778209077639" lon="10.641011208603263"><ele>324.85714285714283</ele><time>2026-04-19T09:48:31.001Z</time></trkpt><trkpt lat="43.46775270325968" lon="10.641099364138782"><ele>324.7142857142857</ele><time>2026-04-19T09:48:32.001Z</time></trkpt><trkpt lat="43.46771784025141" lon="10.641187623013172"><ele>324.57142857142856</ele><time>2026-04-19T09:48:33.001Z</time></trkpt><trkpt lat="43.46768304716969" lon="10.641282508231152"><ele>324.42857142857144</ele><time>2026-04-19T09:48:34.001Z</time></trkpt><trkpt lat="43.4676475216029" lon="10.641374717057516"><ele>324.2857142857143</ele><time>2026-04-19T09:48:35.001Z</time></trkpt><trkpt lat="43.4676161727711" lon="10.641468588486687"><ele>324.14285714285717</ele><time>2026-04-19T09:48:36.001Z</time></trkpt><trkpt lat="43.46757358822965" lon="10.641548030640921"><ele>324.0</ele><time>2026-04-19T09:48:37.001Z</time></trkpt><trkpt lat="43.467538861362975" lon="10.641641136020015"><ele>323.1666666666667</ele><time>2026-04-19T09:48:38.001Z</time></trkpt><trkpt lat="43.46750155759589" lon="10.641737778628206"><ele>322.3333333333333</ele><time>2026-04-19T09:48:39.001Z</time></trkpt><trkpt lat="43.46747203389578" lon="10.641848693010806"><ele>321.5</ele><time>2026-04-19T09:48:40.001Z</time></trkpt><trkpt lat="43.467424906411956" lon="10.641944256927475"><ele>320.66666666666663</ele><time>2026-04-19T09:48:41.001Z</time></trkpt><trkpt lat="43.467373277809365" lon="10.642042974689511"><ele>319.8333333333333</ele><time>2026-04-19T09:48:42.001Z</time></trkpt><trkpt lat="43.46732415772486" lon="10.642134928227225"><ele>319.0</ele><time>2026-04-19T09:48:43.001Z</time></trkpt><trkpt lat="43.46727512686468" lon="10.642212241993896"><ele>317.59999999999997</ele><time>2026-04-19T09:48:44.001Z</time></trkpt><trkpt lat="43.467179062106354" lon="10.642314263667044"><ele>316.2</ele><time>2026-04-19T09:48:46.001Z</time></trkpt><trkpt lat="43.467099199325624" lon="10.642430516845849"><ele>314.79999999999995</ele><time>2026-04-19T09:48:48.001Z</time></trkpt><trkpt lat="43.4670491339606" lon="10.642483727882095"><ele>313.4</ele><time>2026-04-19T09:48:49.001Z</time></trkpt><trkpt lat="43.4669963351739" lon="10.64253668333755"><ele>312.0</ele><time>2026-04-19T09:48:50.001Z</time></trkpt><trkpt lat="43.466913584478085" lon="10.642626175549978"><ele>311.3333333333333</ele><time>2026-04-19T09:48:52.001Z</time></trkpt><trkpt lat="43.46687524307558" lon="10.642753124162883"><ele>310.6666666666667</ele><time>2026-04-19T09:48:54.001Z</time></trkpt><trkpt lat="43.46689054538313" lon="10.642837951405705"><ele>310.0</ele><time>2026-04-19T09:48:55.001Z</time></trkpt><trkpt lat="43.466917049447005" lon="10.642927390285948"><ele>309.33333333333337</ele><time>2026-04-19T09:48:56.001Z</time></trkpt><trkpt lat="43.46691893258326" lon="10.643024544224948"><ele>308.6666666666667</ele><time>2026-04-19T09:48:57.001Z</time></trkpt><trkpt lat="43.46688977759581" lon="10.643133744244883"><ele>308.0</ele><time>2026-04-19T09:48:58.001Z</time></trkpt><trkpt lat="43.46685320269847" lon="10.643222965171272"><ele>307.0</ele><time>2026-04-19T09:48:59.001Z</time></trkpt><trkpt lat="43.46682038949256" lon="10.643321196790744"><ele>306.0</ele><time>2026-04-19T09:49:00.001Z</time></trkpt><trkpt lat="43.46678654202956" lon="10.643425516096201"><ele>305.0</ele><time>2026-04-19T09:49:01.001Z</time></trkpt><trkpt lat="43.46674482908346" lon="10.64352763339367"><ele>304.0</ele><time>2026-04-19T09:49:02.001Z</time></trkpt><trkpt lat="43.46670722534454" lon="10.643631848799386"><ele>303.0</ele><time>2026-04-19T09:49:03.001Z</time></trkpt><trkpt lat="43.46667115357164" lon="10.64373425176957"><ele>302.0</ele><time>2026-04-19T09:49:04.001Z</time></trkpt><trkpt lat="43.46663488545966" lon="10.64383853926851"><ele>301.1666666666667</ele><time>2026-04-19T09:49:05.001Z</time></trkpt><trkpt lat="43.46660012268242" lon="10.643943279436039"><ele>300.33333333333337</ele><time>2026-04-19T09:49:06.001Z</time></trkpt><trkpt lat="43.46656321169612" lon="10.64405099829233"><ele>299.5</ele><time>2026-04-19T09:49:07.001Z</time></trkpt><trkpt lat="43.466524350202555" lon="10.64415805809955"><ele>298.6666666666667</ele><time>2026-04-19T09:49:08.001Z</time></trkpt><trkpt lat="43.46648472700679" lon="10.644266766559777"><ele>297.8333333333333</ele><time>2026-04-19T09:49:09.001Z</time></trkpt><trkpt lat="43.46644316463884" lon="10.644378386519001"><ele>297.0</ele><time>2026-04-19T09:49:10.001Z</time></trkpt><trkpt lat="43.46639948757439" lon="10.644487761535045"><ele>296.2</ele><time>2026-04-19T09:49:11.001Z</time></trkpt><trkpt lat="43.46635884347805" lon="10.64460026255141"><ele>295.4</ele><time>2026-04-19T09:49:12.001Z</time></trkpt><trkpt lat="43.46632130862525" lon="10.644718396813822"><ele>294.6</ele><time>2026-04-19T09:49:13.001Z</time></trkpt><trkpt lat="43.46628316239647" lon="10.6448410079341"><ele>293.8</ele><time>2026-04-19T09:49:14.001Z</time></trkpt><trkpt lat="43.4662510118367" lon="10.644974436012053"><ele>293.0</ele><time>2026-04-19T09:49:15.001Z</time></trkpt><trkpt lat="43.466218419075105" lon="10.645114096732614"><ele>292.2</ele><time>2026-04-19T09:49:16.001Z</time></trkpt><trkpt lat="43.46618592699721" lon="10.645258140559372"><ele>291.4</ele><time>2026-04-19T09:49:17.001Z</time></trkpt><trkpt lat="43.466152682441454" lon="10.645408010886964"><ele>290.59999999999997</ele><time>2026-04-19T09:49:18.001Z</time></trkpt><trkpt lat="43.46612139183704" lon="10.645551722025777"><ele>289.8</ele><time>2026-04-19T09:49:19.002Z</time></trkpt><trkpt lat="43.466089139235145" lon="10.645701011268004"><ele>289.0</ele><time>2026-04-19T09:49:20.002Z</time></trkpt><trkpt lat="43.46605703649383" lon="10.645850755169992"><ele>288.75</ele><time>2026-04-19T09:49:21.002Z</time></trkpt><trkpt lat="43.46602481879121" lon="10.64600256120672"><ele>288.5</ele><time>2026-04-19T09:49:22.002Z</time></trkpt><trkpt lat="43.46599806848372" lon="10.646159027767236"><ele>288.25</ele><time>2026-04-19T09:49:23.002Z</time></trkpt><trkpt lat="43.46597439029904" lon="10.646309773815734"><ele>288.0</ele><time>2026-04-19T09:49:24.002Z</time></trkpt><trkpt lat="43.46595292086371" lon="10.646460055883841"><ele>288.0</ele><time>2026-04-19T09:49:25.002Z</time></trkpt><trkpt lat="43.465934904593205" lon="10.646610585176706"><ele>288.0</ele><time>2026-04-19T09:49:26.002Z</time></trkpt><trkpt lat="43.46591902298315" lon="10.646757803360943"><ele>288.0</ele><time>2026-04-19T09:49:27.002Z</time></trkpt><trkpt lat="43.46590799819317" lon="10.646905875099224"><ele>288.0</ele><time>2026-04-19T09:49:28.002Z</time></trkpt><trkpt lat="43.46589653932005" lon="10.647051901740882"><ele>288.0</ele><time>2026-04-19T09:49:29.002Z</time></trkpt><trkpt lat="43.46588422160645" lon="10.647200168416138"><ele>288.0</ele><time>2026-04-19T09:49:30.002Z</time></trkpt><trkpt lat="43.46586854154331" lon="10.647348970461364"><ele>288.0</ele><time>2026-04-19T09:49:31.002Z</time></trkpt><trkpt lat="43.46585173670776" lon="10.647506537345606"><ele>288.0</ele><time>2026-04-19T09:49:32Z</time></trkpt><trkpt lat="43.46582893463429" lon="10.647663079739234"><ele>288.0</ele><time>2026-04-19T09:49:33Z</time></trkpt><trkpt lat="43.46580963407192" lon="10.647814958770443"><ele>289.4</ele><time>2026-04-19T09:49:34Z</time></trkpt><trkpt lat="43.46579136332202" lon="10.647957444011572"><ele>290.8</ele><time>2026-04-19T09:49:35Z</time></trkpt><trkpt lat="43.46577417494517" lon="10.648092706638884"><ele>292.2</ele><time>2026-04-19T09:49:36Z</time></trkpt><trkpt lat="43.46576056199703" lon="10.648224684112936"><ele>293.6</ele><time>2026-04-19T09:49:37Z</time></trkpt><trkpt lat="43.46574522540954" lon="10.648359658328152"><ele>295.0</ele><time>2026-04-19T09:49:38Z</time></trkpt><trkpt lat="43.46572842351489" lon="10.648470989098277"><ele>295.0</ele><time>2026-04-19T09:49:39Z</time></trkpt><trkpt lat="43.46571021989232" lon="10.648576426739291"><ele>295.0</ele><time>2026-04-19T09:49:40Z</time></trkpt><trkpt lat="43.46569149595371" lon="10.64868013164353"><ele>295.0</ele><time>2026-04-19T09:49:41Z</time></trkpt><trkpt lat="43.465670986753395" lon="10.648784071888992"><ele>295.0</ele><time>2026-04-19T09:49:42Z</time></trkpt><trkpt lat="43.46564975840998" lon="10.64888369434462"><ele>295.0</ele><time>2026-04-19T09:49:43Z</time></trkpt><trkpt lat="43.46562912343095" lon="10.648989160512288"><ele>295.0</ele><time>2026-04-19T09:49:44Z</time></trkpt><trkpt lat="43.46560881826031" lon="10.649094635441285"><ele>296.7142857142857</ele><time>2026-04-19T09:49:45Z</time></trkpt><trkpt lat="43.465587951332616" lon="10.649199312806376"><ele>298.42857142857144</ele><time>2026-04-19T09:49:46Z</time></trkpt><trkpt lat="43.46556908489664" lon="10.649296464930288"><ele>300.1428571428571</ele><time>2026-04-19T09:49:47Z</time></trkpt><trkpt lat="43.46554897742094" lon="10.649390328013776"><ele>301.8571428571429</ele><time>2026-04-19T09:49:48Z</time></trkpt><trkpt lat="43.46553050051656" lon="10.649488595529903"><ele>303.57142857142856</ele><time>2026-04-19T09:49:49Z</time></trkpt><trkpt lat="43.46550143410148" lon="10.649581121714945"><ele>305.2857142857143</ele><time>2026-04-19T09:49:50Z</time></trkpt><trkpt lat="43.46548317598003" lon="10.649673132679716"><ele>307.0</ele><time>2026-04-19T09:49:51Z</time></trkpt><trkpt lat="43.46546438163131" lon="10.649762983821727"><ele>307.0</ele><time>2026-04-19T09:49:52Z</time></trkpt><trkpt lat="43.46543165409504" lon="10.649926318214064"><ele>307.0</ele><time>2026-04-19T09:49:54Z</time></trkpt><trkpt lat="43.46539603225955" lon="10.650090778978713"><ele>307.0</ele><time>2026-04-19T09:49:56Z</time></trkpt><trkpt lat="43.46536843030258" lon="10.650246547614408"><ele>307.0</ele><time>2026-04-19T09:49:58Z</time></trkpt><trkpt lat="43.46536604118091" lon="10.65039461368281"><ele>307.25</ele><time>2026-04-19T09:50:00Z</time></trkpt><trkpt lat="43.46535557264843" lon="10.650556175907033"><ele>307.5</ele><time>2026-04-19T09:50:02Z</time></trkpt><trkpt lat="43.46533615514896" lon="10.65071588135654"><ele>307.75</ele><time>2026-04-19T09:50:04Z</time></trkpt><trkpt lat="43.46531551994758" lon="10.650884907493069"><ele>308.0</ele><time>2026-04-19T09:50:06Z</time></trkpt><trkpt lat="43.46529036489439" lon="10.651055923945426"><ele>307.7142857142857</ele><time>2026-04-19T09:50:08Z</time></trkpt><trkpt lat="43.46527769225279" lon="10.651143112180955"><ele>307.42857142857144</ele><time>2026-04-19T09:50:09Z</time></trkpt><trkpt lat="43.465266989218314" lon="10.6512357009237"><ele>307.1428571428571</ele><time>2026-04-19T09:50:10Z</time></trkpt><trkpt lat="43.46525454126067" lon="10.651332139545465"><ele>306.8571428571429</ele><time>2026-04-19T09:50:11Z</time></trkpt><trkpt lat="43.465241600377915" lon="10.651430014532558"><ele>306.57142857142856</ele><time>2026-04-19T09:50:12Z</time></trkpt><trkpt lat="43.465229197780424" lon="10.651529570196827"><ele>306.2857142857143</ele><time>2026-04-19T09:50:13Z</time></trkpt><trkpt lat="43.46521758665073" lon="10.65163093485313"><ele>306.0</ele><time>2026-04-19T09:50:14Z</time></trkpt><trkpt lat="43.46520471101969" lon="10.651736599963094"><ele>306.0</ele><time>2026-04-19T09:50:15Z</time></trkpt><trkpt lat="43.465189965588614" lon="10.651845443080857"><ele>306.0</ele><time>2026-04-19T09:50:16Z</time></trkpt><trkpt lat="43.4651728922149" lon="10.651956477857455"><ele>306.0</ele><time>2026-04-19T09:50:17Z</time></trkpt><trkpt lat="43.465149660607935" lon="10.652075783123188"><ele>306.0</ele><time>2026-04-19T09:50:18Z</time></trkpt><trkpt lat="43.46512221032923" lon="10.652195221948432"><ele>306.0</ele><time>2026-04-19T09:50:19.001Z</time></trkpt><trkpt lat="43.46510160819419" lon="10.652311907802709"><ele>306.0</ele><time>2026-04-19T09:50:20.001Z</time></trkpt><trkpt lat="43.465095814012486" lon="10.65243422590129"><ele>305.6666666666667</ele><time>2026-04-19T09:50:21.001Z</time></trkpt><trkpt lat="43.46510126817752" lon="10.652549664356835"><ele>305.3333333333333</ele><time>2026-04-19T09:50:22.001Z</time></trkpt><trkpt lat="43.465112119518345" lon="10.652667874774021"><ele>305.0</ele><time>2026-04-19T09:50:23.001Z</time></trkpt><trkpt lat="43.46513699770314" lon="10.65277749309005"><ele>304.66666666666663</ele><time>2026-04-19T09:50:24.001Z</time></trkpt><trkpt lat="43.46516064453266" lon="10.652891344056039"><ele>304.3333333333333</ele><time>2026-04-19T09:50:25.001Z</time></trkpt><trkpt lat="43.46519055124083" lon="10.653008541434184"><ele>304.0</ele><time>2026-04-19T09:50:26.001Z</time></trkpt><trkpt lat="43.465227245082524" lon="10.65312840162735"><ele>303.5</ele><time>2026-04-19T09:50:27.001Z</time></trkpt><trkpt lat="43.4652591158232" lon="10.653249753088307"><ele>303.0</ele><time>2026-04-19T09:50:28.001Z</time></trkpt><trkpt lat="43.465285723443465" lon="10.653365965251222"><ele>302.5</ele><time>2026-04-19T09:50:29.001Z</time></trkpt><trkpt lat="43.46531093233433" lon="10.653474420249708"><ele>302.0</ele><time>2026-04-19T09:50:30.001Z</time></trkpt><trkpt lat="43.46533347833639" lon="10.653577839302049"><ele>301.5</ele><time>2026-04-19T09:50:31.001Z</time></trkpt><trkpt lat="43.465358432474034" lon="10.653688660777677"><ele>301.0</ele><time>2026-04-19T09:50:32.001Z</time></trkpt><trkpt lat="43.46538326149179" lon="10.653797124132215"><ele>300.5</ele><time>2026-04-19T09:50:33.001Z</time></trkpt><trkpt lat="43.46540648831382" lon="10.65391134134774"><ele>300.0</ele><time>2026-04-19T09:50:34.001Z</time></trkpt><trkpt lat="43.46543603227835" lon="10.65402480792386"><ele>299.5</ele><time>2026-04-19T09:50:35.001Z</time></trkpt><trkpt lat="43.465462610509505" lon="10.654142862039205"><ele>299.0</ele><time>2026-04-19T09:50:36.001Z</time></trkpt><trkpt lat="43.46548956062558" lon="10.654260697357993"><ele>298.5</ele><time>2026-04-19T09:50:37.001Z</time></trkpt><trkpt lat="43.465515068654966" lon="10.654378406350165"><ele>298.0</ele><time>2026-04-19T09:50:38.001Z</time></trkpt><trkpt lat="43.46554046126311" lon="10.654494577834976"><ele>296.8333333333333</ele><time>2026-04-19T09:50:39.001Z</time></trkpt><trkpt lat="43.46556496699336" lon="10.654604920299164"><ele>295.66666666666663</ele><time>2026-04-19T09:50:40.001Z</time></trkpt><trkpt lat="43.46558877253654" lon="10.65471118597245"><ele>294.5</ele><time>2026-04-19T09:50:41.001Z</time></trkpt><trkpt lat="43.465614080082965" lon="10.65481206308562"><ele>293.3333333333333</ele><time>2026-04-19T09:50:42.001Z</time></trkpt><trkpt lat="43.465639680333894" lon="10.654909092016716"><ele>292.1666666666667</ele><time>2026-04-19T09:50:43.001Z</time></trkpt><trkpt lat="43.46566408532745" lon="10.655006677258347"><ele>291.0</ele><time>2026-04-19T09:50:44.001Z</time></trkpt><trkpt lat="43.465686070994394" lon="10.65510920743502"><ele>291.0</ele><time>2026-04-19T09:50:45.001Z</time></trkpt><trkpt lat="43.4657080248737" lon="10.655215187312246"><ele>291.0</ele><time>2026-04-19T09:50:46.001Z</time></trkpt><trkpt lat="43.465730902262834" lon="10.65531880654"><ele>291.0</ele><time>2026-04-19T09:50:47.001Z</time></trkpt><trkpt lat="43.465753894741454" lon="10.65541261055548"><ele>291.0</ele><time>2026-04-19T09:50:48.001Z</time></trkpt><trkpt lat="43.46577606568296" lon="10.65549946076389"><ele>291.0</ele><time>2026-04-19T09:50:49.001Z</time></trkpt><trkpt lat="43.46579668673331" lon="10.655596488757284"><ele>291.0</ele><time>2026-04-19T09:50:50.001Z</time></trkpt><trkpt lat="43.465817353140594" lon="10.655694069025898"><ele>291.0</ele><time>2026-04-19T09:50:51.001Z</time></trkpt><trkpt lat="43.46583646246823" lon="10.655801630071604"><ele>290.3333333333333</ele><time>2026-04-19T09:50:52.001Z</time></trkpt><trkpt lat="43.465860473565066" lon="10.655907700602013"><ele>289.6666666666667</ele><time>2026-04-19T09:50:53.001Z</time></trkpt><trkpt lat="43.46588601712118" lon="10.656016247916329"><ele>289.0</ele><time>2026-04-19T09:50:54.001Z</time></trkpt><trkpt lat="43.4659110743462" lon="10.65612164075184"><ele>288.33333333333337</ele><time>2026-04-19T09:50:55.001Z</time></trkpt><trkpt lat="43.46593585369973" lon="10.65622115923253"><ele>287.6666666666667</ele><time>2026-04-19T09:50:56.001Z</time></trkpt><trkpt lat="43.4659595313322" lon="10.656316562931575"><ele>287.0</ele><time>2026-04-19T09:50:57.001Z</time></trkpt><trkpt lat="43.46598070424501" lon="10.6564044090589"><ele>286.14285714285717</ele><time>2026-04-19T09:50:58.001Z</time></trkpt><trkpt lat="43.46600153402467" lon="10.656493098293433"><ele>285.2857142857143</ele><time>2026-04-19T09:50:59.001Z</time></trkpt><trkpt lat="43.46601795462187" lon="10.656592852193523"><ele>284.42857142857144</ele><time>2026-04-19T09:51:00.001Z</time></trkpt><trkpt lat="43.466040494223726" lon="10.656686552410271"><ele>283.57142857142856</ele><time>2026-04-19T09:51:01.001Z</time></trkpt><trkpt lat="43.46606181949353" lon="10.656777320610633"><ele>282.7142857142857</ele><time>2026-04-19T09:51:02.001Z</time></trkpt><trkpt lat="43.46608283050559" lon="10.656861877370211"><ele>281.8571428571429</ele><time>2026-04-19T09:51:03.001Z</time></trkpt><trkpt lat="43.4661042729998" lon="10.656951168822717"><ele>281.0</ele><time>2026-04-19T09:51:04.001Z</time></trkpt><trkpt lat="43.46611964654689" lon="10.65705264586626"><ele>280.28571428571433</ele><time>2026-04-19T09:51:05.001Z</time></trkpt><trkpt lat="43.466135872770565" lon="10.657147015166084"><ele>279.57142857142856</ele><time>2026-04-19T09:51:06.001Z</time></trkpt><trkpt lat="43.4661590332291" lon="10.657253922141626"><ele>278.8571428571429</ele><time>2026-04-19T09:51:07.001Z</time></trkpt><trkpt lat="43.46618444181262" lon="10.657351255487434"><ele>278.14285714285717</ele><time>2026-04-19T09:51:08.001Z</time></trkpt><trkpt lat="43.46620629409837" lon="10.657446811964466"><ele>277.42857142857144</ele><time>2026-04-19T09:51:09.001Z</time></trkpt><trkpt lat="43.46622867943061" lon="10.65753272452156"><ele>276.7142857142857</ele><time>2026-04-19T09:51:10.001Z</time></trkpt><trkpt lat="43.466261459806645" lon="10.65761937227272"><ele>276.0</ele><time>2026-04-19T09:51:11.001Z</time></trkpt><trkpt lat="43.46630919295253" lon="10.65770213856632"><ele>275.6666666666667</ele><time>2026-04-19T09:51:12.001Z</time></trkpt><trkpt lat="43.46636702237841" lon="10.657773443374314"><ele>275.3333333333333</ele><time>2026-04-19T09:51:13.001Z</time></trkpt><trkpt lat="43.466431030757406" lon="10.657848759350635"><ele>275.0</ele><time>2026-04-19T09:51:14.001Z</time></trkpt><trkpt lat="43.46649464631631" lon="10.657919435809033"><ele>274.66666666666663</ele><time>2026-04-19T09:51:15.001Z</time></trkpt><trkpt lat="43.46655943937218" lon="10.657995232105058"><ele>274.3333333333333</ele><time>2026-04-19T09:51:16.001Z</time></trkpt><trkpt lat="43.466633206954675" lon="10.658068416885545"><ele>274.0</ele><time>2026-04-19T09:51:17.001Z</time></trkpt><trkpt lat="43.46670561888039" lon="10.658142799061618"><ele>273.2</ele><time>2026-04-19T09:51:18.001Z</time></trkpt><trkpt lat="43.46677684480173" lon="10.658218455883508"><ele>272.4</ele><time>2026-04-19T09:51:19.001Z</time></trkpt><trkpt lat="43.46684889905109" lon="10.658294451147889"><ele>271.6</ele><time>2026-04-19T09:51:20.001Z</time></trkpt><trkpt lat="43.466924125563985" lon="10.658366089282474"><ele>270.8</ele><time>2026-04-19T09:51:21.001Z</time></trkpt><trkpt lat="43.46699645238838" lon="10.658440330807261"><ele>270.0</ele><time>2026-04-19T09:51:22.001Z</time></trkpt><trkpt lat="43.4670656301173" lon="10.658517612272542"><ele>268.8</ele><time>2026-04-19T09:51:23.001Z</time></trkpt><trkpt lat="43.467136159165975" lon="10.658591806943774"><ele>267.6</ele><time>2026-04-19T09:51:24.001Z</time></trkpt><trkpt lat="43.46720622616694" lon="10.658666496410305"><ele>266.4</ele><time>2026-04-19T09:51:25.001Z</time></trkpt><trkpt lat="43.467276782667206" lon="10.658740259117067"><ele>265.2</ele><time>2026-04-19T09:51:26.001Z</time></trkpt><trkpt lat="43.467349193104916" lon="10.658816279210615"><ele>264.0</ele><time>2026-04-19T09:51:27.001Z</time></trkpt><trkpt lat="43.46742429369815" lon="10.658897323754974"><ele>262.25</ele><time>2026-04-19T09:51:28.001Z</time></trkpt><trkpt lat="43.46750215371149" lon="10.658992800496629"><ele>260.5</ele><time>2026-04-19T09:51:29.001Z</time></trkpt><trkpt lat="43.46758255937813" lon="10.6590972378881"><ele>258.75</ele><time>2026-04-19T09:51:30.002Z</time></trkpt><trkpt lat="43.46767126551836" lon="10.659216622249234"><ele>257.0</ele><time>2026-04-19T09:51:31.002Z</time></trkpt><trkpt lat="43.46776863610046" lon="10.659349106310424"><ele>254.0</ele><time>2026-04-19T09:51:32.002Z</time></trkpt><trkpt lat="43.467866275598396" lon="10.659489009384023"><ele>251.0</ele><time>2026-04-19T09:51:33.002Z</time></trkpt><trkpt lat="43.46797123848904" lon="10.659638757331612"><ele>248.0</ele><time>2026-04-19T09:51:34.002Z</time></trkpt><trkpt lat="43.46807698028061" lon="10.659792077350923"><ele>245.0</ele><time>2026-04-19T09:51:35.002Z</time></trkpt><trkpt lat="43.468182352815454" lon="10.659936001794838"><ele>244.75</ele><time>2026-04-19T09:51:36.002Z</time></trkpt><trkpt lat="43.46827793323496" lon="10.660077190496962"><ele>244.5</ele><time>2026-04-19T09:51:37.002Z</time></trkpt><trkpt lat="43.468366428804494" lon="10.660201895655032"><ele>244.25</ele><time>2026-04-19T09:51:38Z</time></trkpt><trkpt lat="43.46845351240486" lon="10.660324833927685"><ele>244.0</ele><time>2026-04-19T09:51:39Z</time></trkpt><trkpt lat="43.468541402333116" lon="10.660447286682816"><ele>242.0</ele><time>2026-04-19T09:51:40Z</time></trkpt><trkpt lat="43.46862361435059" lon="10.660572185921955"><ele>240.0</ele><time>2026-04-19T09:51:41Z</time></trkpt><trkpt lat="43.46870195376237" lon="10.660699214880507"><ele>238.0</ele><time>2026-04-19T09:51:42Z</time></trkpt><trkpt lat="43.46877305838776" lon="10.660825935819856"><ele>236.0</ele><time>2026-04-19T09:51:43Z</time></trkpt><trkpt lat="43.468842669537075" lon="10.660957021544956"><ele>235.5</ele><time>2026-04-19T09:51:44Z</time></trkpt><trkpt lat="43.4689064897138" lon="10.661095663402437"><ele>235.0</ele><time>2026-04-19T09:51:45Z</time></trkpt><trkpt lat="43.46897046287915" lon="10.661234524863847"><ele>234.5</ele><time>2026-04-19T09:51:46Z</time></trkpt><trkpt lat="43.469029178539635" lon="10.661373833658457"><ele>234.0</ele><time>2026-04-19T09:51:47Z</time></trkpt><trkpt lat="43.469090178195486" lon="10.661504733902245"><ele>234.0</ele><time>2026-04-19T09:51:48Z</time></trkpt><trkpt lat="43.46914145019515" lon="10.661626836184812"><ele>233.99999999999997</ele><time>2026-04-19T09:51:49Z</time></trkpt><trkpt lat="43.46920410776685" lon="10.66174246259646"><ele>233.99999999999997</ele><time>2026-04-19T09:51:50Z</time></trkpt><trkpt lat="43.46925829826495" lon="10.66185982544082"><ele>234.0</ele><time>2026-04-19T09:51:51Z</time></trkpt><trkpt lat="43.469321240016924" lon="10.661964309885777"><ele>234.0</ele><time>2026-04-19T09:51:52Z</time></trkpt><trkpt lat="43.46938637768099" lon="10.66206140913944"><ele>234.0</ele><time>2026-04-19T09:51:53Z</time></trkpt><trkpt lat="43.46945924072184" lon="10.662160334207767"><ele>233.99999999999997</ele><time>2026-04-19T09:51:54Z</time></trkpt><trkpt lat="43.46953474238179" lon="10.662267587571073"><ele>233.99999999999997</ele><time>2026-04-19T09:51:55Z</time></trkpt><trkpt lat="43.46961753588635" lon="10.662375407363013"><ele>234.0</ele><time>2026-04-19T09:51:56Z</time></trkpt><trkpt lat="43.46970075310367" lon="10.662475508210996"><ele>234.0</ele><time>2026-04-19T09:51:57Z</time></trkpt><trkpt lat="43.46977993039868" lon="10.662579671474164"><ele>232.79999999999998</ele><time>2026-04-19T09:51:58Z</time></trkpt><trkpt lat="43.46986105557148" lon="10.662683538863886"><ele>231.59999999999997</ele><time>2026-04-19T09:51:59Z</time></trkpt><trkpt lat="43.46993389392124" lon="10.66277917659506"><ele>230.4</ele><time>2026-04-19T09:52:00Z</time></trkpt><trkpt lat="43.469996325528456" lon="10.662861428707908"><ele>229.2</ele><time>2026-04-19T09:52:01Z</time></trkpt><trkpt lat="43.47007562002456" lon="10.662952932374425"><ele>228.0</ele><time>2026-04-19T09:52:02Z</time></trkpt><trkpt lat="43.47014661588155" lon="10.66304906568804"><ele>227.2</ele><time>2026-04-19T09:52:03Z</time></trkpt><trkpt lat="43.47020734428576" lon="10.663147876783228"><ele>226.4</ele><time>2026-04-19T09:52:04Z</time></trkpt><trkpt lat="43.47024646023435" lon="10.663258463149496"><ele>225.59999999999997</ele><time>2026-04-19T09:52:05Z</time></trkpt><trkpt lat="43.470263131621536" lon="10.663388485001436"><ele>224.79999999999998</ele><time>2026-04-19T09:52:06Z</time></trkpt><trkpt lat="43.47026402822723" lon="10.663529199115358"><ele>224.0</ele><time>2026-04-19T09:52:07Z</time></trkpt><trkpt lat="43.47025773274568" lon="10.663672582443471"><ele>223.0</ele><time>2026-04-19T09:52:08Z</time></trkpt><trkpt lat="43.47025010260511" lon="10.663822012340196"><ele>221.99999999999997</ele><time>2026-04-19T09:52:09Z</time></trkpt><trkpt lat="43.47024342087263" lon="10.663962886905344"><ele>220.99999999999997</ele><time>2026-04-19T09:52:10Z</time></trkpt><trkpt lat="43.470235873883794" lon="10.664089570682716"><ele>220.0</ele><time>2026-04-19T09:52:11.001Z</time></trkpt><trkpt lat="43.47023642302099" lon="10.664208886542951"><ele>219.0</ele><time>2026-04-19T09:52:12.001Z</time></trkpt><trkpt lat="43.470251443547106" lon="10.664327112314533"><ele>218.6</ele><time>2026-04-19T09:52:13.001Z</time></trkpt><trkpt lat="43.470283655695496" lon="10.664452662735409"><ele>218.2</ele><time>2026-04-19T09:52:14.001Z</time></trkpt><trkpt lat="43.47033084659957" lon="10.664577561855712"><ele>217.79999999999998</ele><time>2026-04-19T09:52:15.001Z</time></trkpt><trkpt lat="43.47038528489435" lon="10.664697285578216"><ele>217.39999999999998</ele><time>2026-04-19T09:52:16.001Z</time></trkpt><trkpt lat="43.470438186161566" lon="10.664814290322555"><ele>217.0</ele><time>2026-04-19T09:52:17.001Z</time></trkpt><trkpt lat="43.470479713634894" lon="10.664931351886255"><ele>214.33333333333331</ele><time>2026-04-19T09:52:18.001Z</time></trkpt><trkpt lat="43.470533689130505" lon="10.66504097559508"><ele>211.66666666666666</ele><time>2026-04-19T09:52:19.001Z</time></trkpt><trkpt lat="43.47058457073331" lon="10.665138997608937"><ele>209.0</ele><time>2026-04-19T09:52:20.001Z</time></trkpt><trkpt lat="43.47063411657218" lon="10.665222767973285"><ele>206.33333333333331</ele><time>2026-04-19T09:52:21.001Z</time></trkpt><trkpt lat="43.47068859334529" lon="10.66529019772391"><ele>203.66666666666666</ele><time>2026-04-19T09:52:22.001Z</time></trkpt><trkpt lat="43.470741828420984" lon="10.665339971035026"><ele>201.0</ele><time>2026-04-19T09:52:23.001Z</time></trkpt><trkpt lat="43.47080165851556" lon="10.665389335291179"><ele>199.83333333333334</ele><time>2026-04-19T09:52:24.001Z</time></trkpt><trkpt lat="43.47087141159091" lon="10.665444098252587"><ele>198.66666666666669</ele><time>2026-04-19T09:52:25.001Z</time></trkpt><trkpt lat="43.47094118915067" lon="10.66549871499985"><ele>197.5</ele><time>2026-04-19T09:52:26.001Z</time></trkpt><trkpt lat="43.4710166058875" lon="10.66556054675804"><ele>196.33333333333334</ele><time>2026-04-19T09:52:27.001Z</time></trkpt><trkpt lat="43.47109795730349" lon="10.665623029274137"><ele>195.16666666666669</ele><time>2026-04-19T09:52:28.001Z</time></trkpt><trkpt lat="43.47119015845025" lon="10.665688777200602"><ele>194.0</ele><time>2026-04-19T09:52:29.001Z</time></trkpt><trkpt lat="43.47128211290963" lon="10.66575773909368"><ele>193.6</ele><time>2026-04-19T09:52:30.001Z</time></trkpt><trkpt lat="43.471379120356644" lon="10.665827181822102"><ele>193.2</ele><time>2026-04-19T09:52:31.001Z</time></trkpt><trkpt lat="43.4714725059413" lon="10.66589990092767"><ele>192.79999999999998</ele><time>2026-04-19T09:52:32.001Z</time></trkpt><trkpt lat="43.47156880465038" lon="10.665970708931091"><ele>192.39999999999998</ele><time>2026-04-19T09:52:33.001Z</time></trkpt><trkpt lat="43.47166183800098" lon="10.666048853224492"><ele>192.0</ele><time>2026-04-19T09:52:34.001Z</time></trkpt><trkpt lat="43.47175710146366" lon="10.666124060640383"><ele>191.0</ele><time>2026-04-19T09:52:35.001Z</time></trkpt><trkpt lat="43.471857169170136" lon="10.666194435836424"><ele>190.0</ele><time>2026-04-19T09:52:36.001Z</time></trkpt><trkpt lat="43.4719531581267" lon="10.666267853428522"><ele>189.0</ele><time>2026-04-19T09:52:37.001Z</time></trkpt><trkpt lat="43.472047838169836" lon="10.66634579935005"><ele>188.0</ele><time>2026-04-19T09:52:38.001Z</time></trkpt><trkpt lat="43.472144509798916" lon="10.666421290471622"><ele>187.0</ele><time>2026-04-19T09:52:39.001Z</time></trkpt><trkpt lat="43.472242754229775" lon="10.666494622470251"><ele>187.0</ele><time>2026-04-19T09:52:40.001Z</time></trkpt><trkpt lat="43.472338176620845" lon="10.666566384263934"><ele>187.0</ele><time>2026-04-19T09:52:41.001Z</time></trkpt><trkpt lat="43.472432913162926" lon="10.666641309834908"><ele>187.0</ele><time>2026-04-19T09:52:42.001Z</time></trkpt><trkpt lat="43.47253100591258" lon="10.66670675592638"><ele>187.0</ele><time>2026-04-19T09:52:43.001Z</time></trkpt><trkpt lat="43.472620442014275" lon="10.666777441442829"><ele>187.0</ele><time>2026-04-19T09:52:44.001Z</time></trkpt><trkpt lat="43.4727056148274" lon="10.666849952749546"><ele>187.0</ele><time>2026-04-19T09:52:45.001Z</time></trkpt><trkpt lat="43.47279270755804" lon="10.66693434348779"><ele>187.0</ele><time>2026-04-19T09:52:46.001Z</time></trkpt><trkpt lat="43.47286518957687" lon="10.667019833782652"><ele>187.0</ele><time>2026-04-19T09:52:47.001Z</time></trkpt><trkpt lat="43.472925357186" lon="10.667111460302898"><ele>187.0</ele><time>2026-04-19T09:52:48.001Z</time></trkpt><trkpt lat="43.472977990956785" lon="10.667221982105737"><ele>187.0</ele><time>2026-04-19T09:52:49.001Z</time></trkpt><trkpt lat="43.47302466116144" lon="10.667336323369463"><ele>185.6</ele><time>2026-04-19T09:52:50.001Z</time></trkpt><trkpt lat="43.47307407650948" lon="10.667455113027927"><ele>184.2</ele><time>2026-04-19T09:52:51.001Z</time></trkpt><trkpt lat="43.47313424181699" lon="10.667570585675792"><ele>182.8</ele><time>2026-04-19T09:52:52.001Z</time></trkpt><trkpt lat="43.473202362486916" lon="10.667672995380249"><ele>181.4</ele><time>2026-04-19T09:52:53.001Z</time></trkpt><trkpt lat="43.473288852351736" lon="10.667762683047128"><ele>180.0</ele><time>2026-04-19T09:52:54.001Z</time></trkpt><trkpt lat="43.47338405466531" lon="10.667820039286745"><ele>179.0</ele><time>2026-04-19T09:52:55.001Z</time></trkpt><trkpt lat="43.47348610511079" lon="10.66787741867179"><ele>178.0</ele><time>2026-04-19T09:52:56.001Z</time></trkpt><trkpt lat="43.473580158312835" lon="10.667930255544288"><ele>177.0</ele><time>2026-04-19T09:52:57.001Z</time></trkpt><trkpt lat="43.47367325825225" lon="10.667972245777351"><ele>176.0</ele><time>2026-04-19T09:52:58.001Z</time></trkpt><trkpt lat="43.473761314335334" lon="10.668013810173692"><ele>175.0</ele><time>2026-04-19T09:52:59.001Z</time></trkpt><trkpt lat="43.47385017885678" lon="10.668058168831818"><ele>174.2</ele><time>2026-04-19T09:53:00.001Z</time></trkpt><trkpt lat="43.47394785599859" lon="10.668102776837708"><ele>173.4</ele><time>2026-04-19T09:53:01.001Z</time></trkpt><trkpt lat="43.47404416373436" lon="10.668147588417328"><ele>172.60000000000002</ele><time>2026-04-19T09:53:02.001Z</time></trkpt><trkpt lat="43.47414566911364" lon="10.6681913880082"><ele>171.8</ele><time>2026-04-19T09:53:03.001Z</time></trkpt><trkpt lat="43.47425045573713" lon="10.668234765841193"><ele>171.0</ele><time>2026-04-19T09:53:04.001Z</time></trkpt><trkpt lat="43.4743544087314" lon="10.668284147121854"><ele>171.0</ele><time>2026-04-19T09:53:05.001Z</time></trkpt><trkpt lat="43.47445350742244" lon="10.66833263948037"><ele>171.0</ele><time>2026-04-19T09:53:06.001Z</time></trkpt><trkpt lat="43.474550213570815" lon="10.668379764978047"><ele>171.0</ele><time>2026-04-19T09:53:07.001Z</time></trkpt><trkpt lat="43.474648077674836" lon="10.668423978102876"><ele>171.0</ele><time>2026-04-19T09:53:08.001Z</time></trkpt><trkpt lat="43.47474209180245" lon="10.66846981829118"><ele>171.0</ele><time>2026-04-19T09:53:09.001Z</time></trkpt><trkpt lat="43.474837804070866" lon="10.668528985313165"><ele>170.20000000000002</ele><time>2026-04-19T09:53:10.001Z</time></trkpt><trkpt lat="43.47492766279919" lon="10.668605143146527"><ele>169.4</ele><time>2026-04-19T09:53:11.001Z</time></trkpt><trkpt lat="43.47500631705443" lon="10.668683714795147"><ele>168.6</ele><time>2026-04-19T09:53:12.001Z</time></trkpt><trkpt lat="43.47507974108649" lon="10.668760221758903"><ele>167.8</ele><time>2026-04-19T09:53:13.001Z</time></trkpt><trkpt lat="43.47514809144034" lon="10.668833074529955"><ele>167.0</ele><time>2026-04-19T09:53:14.001Z</time></trkpt><trkpt lat="43.475209224427495" lon="10.668897473205783"><ele>167.0</ele><time>2026-04-19T09:53:15.001Z</time></trkpt><trkpt lat="43.47527590667368" lon="10.66896539209931"><ele>167.0</ele><time>2026-04-19T09:53:16.001Z</time></trkpt><trkpt lat="43.47536590103458" lon="10.669001658626849"><ele>167.0</ele><time>2026-04-19T09:53:17.001Z</time></trkpt><trkpt lat="43.475470406491006" lon="10.669013408026991"><ele>167.0</ele><time>2026-04-19T09:53:18.001Z</time></trkpt><trkpt lat="43.475580204366906" lon="10.66899640430656"><ele>167.0</ele><time>2026-04-19T09:53:19.001Z</time></trkpt><trkpt lat="43.475695006436766" lon="10.668969087061301"><ele>164.25</ele><time>2026-04-19T09:53:20.001Z</time></trkpt><trkpt lat="43.47580503381501" lon="10.668935042808517"><ele>161.5</ele><time>2026-04-19T09:53:21.001Z</time></trkpt><trkpt lat="43.475920425817094" lon="10.668897320980278"><ele>158.75</ele><time>2026-04-19T09:53:22.001Z</time></trkpt><trkpt lat="43.47604238147354" lon="10.668859068146467"><ele>156.0</ele><time>2026-04-19T09:53:23.001Z</time></trkpt><trkpt lat="43.47617385467691" lon="10.668823917384291"><ele>154.33333333333334</ele><time>2026-04-19T09:53:24.001Z</time></trkpt><trkpt lat="43.4763152756637" lon="10.668784416093974"><ele>152.66666666666669</ele><time>2026-04-19T09:53:25.001Z</time></trkpt><trkpt lat="43.47646460258317" lon="10.66873546399322"><ele>151.0</ele><time>2026-04-19T09:53:26.001Z</time></trkpt><trkpt lat="43.476620699593084" lon="10.668687531411114"><ele>151.0</ele><time>2026-04-19T09:53:27.001Z</time></trkpt><trkpt lat="43.47677782587686" lon="10.668641677836044"><ele>151.0</ele><time>2026-04-19T09:53:28.001Z</time></trkpt><trkpt lat="43.476930709342604" lon="10.668592534360197"><ele>151.0</ele><time>2026-04-19T09:53:29.001Z</time></trkpt><trkpt lat="43.47707724037116" lon="10.66855035307471"><ele>153.0</ele><time>2026-04-19T09:53:30.001Z</time></trkpt><trkpt lat="43.477216315173706" lon="10.668512654160446"><ele>155.0</ele><time>2026-04-19T09:53:31.001Z</time></trkpt><trkpt lat="43.477348224237716" lon="10.66848225992193"><ele>157.0</ele><time>2026-04-19T09:53:32.002Z</time></trkpt><trkpt lat="43.47747037862674" lon="10.66845995411104"><ele>159.0</ele><time>2026-04-19T09:53:33.002Z</time></trkpt><trkpt lat="43.47758641412837" lon="10.668438402760723"><ele>159.0</ele><time>2026-04-19T09:53:34.002Z</time></trkpt><trkpt lat="43.47769550582459" lon="10.668411511296974"><ele>159.0</ele><time>2026-04-19T09:53:35.002Z</time></trkpt><trkpt lat="43.47779128358044" lon="10.66839198801002"><ele>159.0</ele><time>2026-04-19T09:53:36.002Z</time></trkpt><trkpt lat="43.47787946104824" lon="10.668381455291783"><ele>159.0</ele><time>2026-04-19T09:53:37.002Z</time></trkpt><trkpt lat="43.47796474842062" lon="10.668379994800189"><ele>159.0</ele><time>2026-04-19T09:53:38.002Z</time></trkpt><trkpt lat="43.47805223284452" lon="10.668388044429376"><ele>158.4</ele><time>2026-04-19T09:53:39.002Z</time></trkpt><trkpt lat="43.478142856440805" lon="10.668404811979556"><ele>157.8</ele><time>2026-04-19T09:53:40.002Z</time></trkpt><trkpt lat="43.47823172437285" lon="10.66842953282474"><ele>157.2</ele><time>2026-04-19T09:53:41.002Z</time></trkpt><trkpt lat="43.47831981157912" lon="10.668453315156787"><ele>156.6</ele><time>2026-04-19T09:53:42.002Z</time></trkpt><trkpt lat="43.4784099831108" lon="10.668483816752214"><ele>156.0</ele><time>2026-04-19T09:53:43.002Z</time></trkpt><trkpt lat="43.478502534290556" lon="10.6685112046934"><ele>156.0</ele><time>2026-04-19T09:53:44.001Z</time></trkpt><trkpt lat="43.478599853658494" lon="10.66853778356365"><ele>156.0</ele><time>2026-04-19T09:53:45.001Z</time></trkpt><trkpt lat="43.478693043894765" lon="10.66856521430143"><ele>156.0</ele><time>2026-04-19T09:53:46.001Z</time></trkpt><trkpt lat="43.47878773729801" lon="10.668591566606628"><ele>156.0</ele><time>2026-04-19T09:53:47.001Z</time></trkpt><trkpt lat="43.47888086398798" lon="10.668610610496925"><ele>156.0</ele><time>2026-04-19T09:53:48.001Z</time></trkpt><trkpt lat="43.47897220902496" lon="10.66861535820339"><ele>156.0</ele><time>2026-04-19T09:53:49.001Z</time></trkpt><trkpt lat="43.479058350781926" lon="10.66861374284106"><ele>156.0</ele><time>2026-04-19T09:53:50.001Z</time></trkpt><trkpt lat="43.47914402461914" lon="10.668595743100818"><ele>156.0</ele><time>2026-04-19T09:53:51.001Z</time></trkpt><trkpt lat="43.479222737923024" lon="10.668556144272877"><ele>156.0</ele><time>2026-04-19T09:53:52.001Z</time></trkpt><trkpt lat="43.479296109654676" lon="10.668509081728526"><ele>156.0</ele><time>2026-04-19T09:53:53.001Z</time></trkpt><trkpt lat="43.47936853613263" lon="10.668455827070465"><ele>156.0</ele><time>2026-04-19T09:53:54.001Z</time></trkpt><trkpt lat="43.47944024225956" lon="10.668402474063639"><ele>156.0</ele><time>2026-04-19T09:53:55.001Z</time></trkpt><trkpt lat="43.47951600700921" lon="10.668351945555035"><ele>156.0</ele><time>2026-04-19T09:53:56.001Z</time></trkpt><trkpt lat="43.47959511806511" lon="10.668328176331894"><ele>156.0</ele><time>2026-04-19T09:53:57.001Z</time></trkpt><trkpt lat="43.47967386670961" lon="10.668338396010656"><ele>156.0</ele><time>2026-04-19T09:53:58.001Z</time></trkpt><trkpt lat="43.47974704084441" lon="10.668383105296257"><ele>156.0</ele><time>2026-04-19T09:53:59.001Z</time></trkpt><trkpt lat="43.479812790064216" lon="10.668448157059839"><ele>156.0</ele><time>2026-04-19T09:54:00.001Z</time></trkpt><trkpt lat="43.47986979527958" lon="10.668533719151874"><ele>155.8</ele><time>2026-04-19T09:54:01.001Z</time></trkpt><trkpt lat="43.47992155171684" lon="10.668641370807347"><ele>155.6</ele><time>2026-04-19T09:54:02.001Z</time></trkpt><trkpt lat="43.479983710538264" lon="10.668761782051753"><ele>155.4</ele><time>2026-04-19T09:54:03.001Z</time></trkpt><trkpt lat="43.48004863024011" lon="10.668888689114993"><ele>155.2</ele><time>2026-04-19T09:54:04.001Z</time></trkpt><trkpt lat="43.4801131942039" lon="10.66901492378996"><ele>155.0</ele><time>2026-04-19T09:54:05.001Z</time></trkpt><trkpt lat="43.480181697582594" lon="10.669142589747306"><ele>155.0</ele><time>2026-04-19T09:54:06.001Z</time></trkpt><trkpt lat="43.480251342137215" lon="10.6692638165673"><ele>155.0</ele><time>2026-04-19T09:54:07.001Z</time></trkpt><trkpt lat="43.48032478751716" lon="10.669383879475266"><ele>155.0</ele><time>2026-04-19T09:54:08.001Z</time></trkpt><trkpt lat="43.48039657734652" lon="10.669504926548607"><ele>155.0</ele><time>2026-04-19T09:54:09.001Z</time></trkpt><trkpt lat="43.480469300422065" lon="10.669624337692365"><ele>155.6</ele><time>2026-04-19T09:54:10.001Z</time></trkpt><trkpt lat="43.48053879117612" lon="10.669736114397171"><ele>156.2</ele><time>2026-04-19T09:54:11.001Z</time></trkpt><trkpt lat="43.480603254834406" lon="10.669842111913715"><ele>156.8</ele><time>2026-04-19T09:54:12.001Z</time></trkpt><trkpt lat="43.48066866902896" lon="10.669938191259563"><ele>157.4</ele><time>2026-04-19T09:54:13.001Z</time></trkpt><trkpt lat="43.4807346594374" lon="10.67003840981002"><ele>158.0</ele><time>2026-04-19T09:54:14.001Z</time></trkpt><trkpt lat="43.48079947826566" lon="10.670138817044405"><ele>158.0</ele><time>2026-04-19T09:54:15.001Z</time></trkpt><trkpt lat="43.48085583633714" lon="10.670243337321851"><ele>158.0</ele><time>2026-04-19T09:54:16.001Z</time></trkpt><trkpt lat="43.48089536333687" lon="10.670354108258486"><ele>158.0</ele><time>2026-04-19T09:54:17.001Z</time></trkpt><trkpt lat="43.48091911910622" lon="10.670472785801046"><ele>158.0</ele><time>2026-04-19T09:54:18.001Z</time></trkpt><trkpt lat="43.48091634476823" lon="10.670604228541386"><ele>158.0</ele><time>2026-04-19T09:54:19.001Z</time></trkpt><trkpt lat="43.48089907322233" lon="10.670733384480094"><ele>158.33333333333331</ele><time>2026-04-19T09:54:20.001Z</time></trkpt><trkpt lat="43.48087036732303" lon="10.67085277155672"><ele>158.66666666666666</ele><time>2026-04-19T09:54:21.001Z</time></trkpt><trkpt lat="43.48084697441887" lon="10.67096305328009"><ele>159.0</ele><time>2026-04-19T09:54:22.001Z</time></trkpt><trkpt lat="43.48082844631364" lon="10.671078064541256"><ele>159.33333333333334</ele><time>2026-04-19T09:54:23.001Z</time></trkpt><trkpt lat="43.48082853601377" lon="10.67119783571727"><ele>159.66666666666669</ele><time>2026-04-19T09:54:24.001Z</time></trkpt><trkpt lat="43.48085000918796" lon="10.671326097372766"><ele>160.0</ele><time>2026-04-19T09:54:25.001Z</time></trkpt><trkpt lat="43.48088619656299" lon="10.671474962107473"><ele>158.0</ele><time>2026-04-19T09:54:26.001Z</time></trkpt><trkpt lat="43.480927754842995" lon="10.671643846519405"><ele>156.0</ele><time>2026-04-19T09:54:27.001Z</time></trkpt><trkpt lat="43.480972108838095" lon="10.671826622414024"><ele>154.0</ele><time>2026-04-19T09:54:28.001Z</time></trkpt><trkpt lat="43.48101910855351" lon="10.67202065955823"><ele>152.0</ele><time>2026-04-19T09:54:29.001Z</time></trkpt><trkpt lat="43.48106885346107" lon="10.672217642291425"><ele>150.0</ele><time>2026-04-19T09:54:30.001Z</time></trkpt><trkpt lat="43.48111518597463" lon="10.67241551105214"><ele>148.0</ele><time>2026-04-19T09:54:31.001Z</time></trkpt><trkpt lat="43.48115926664861" lon="10.672607622697749"><ele>146.0</ele><time>2026-04-19T09:54:32.001Z</time></trkpt><trkpt lat="43.481206643734055" lon="10.672778916039224"><ele>144.0</ele><time>2026-04-19T09:54:33.001Z</time></trkpt><trkpt lat="43.481262964903344" lon="10.672930559475933"><ele>142.25</ele><time>2026-04-19T09:54:34.001Z</time></trkpt><trkpt lat="43.48132093309467" lon="10.67308033123192"><ele>140.5</ele><time>2026-04-19T09:54:35.001Z</time></trkpt><trkpt lat="43.481368761485506" lon="10.67322594128875"><ele>138.75</ele><time>2026-04-19T09:54:36.001Z</time></trkpt><trkpt lat="43.48141858579124" lon="10.673362697177051"><ele>137.0</ele><time>2026-04-19T09:54:37.001Z</time></trkpt><trkpt lat="43.48147468893877" lon="10.673478983200736"><ele>137.0</ele><time>2026-04-19T09:54:38.001Z</time></trkpt><trkpt lat="43.48153885184584" lon="10.673587431864972"><ele>137.0</ele><time>2026-04-19T09:54:39.001Z</time></trkpt><trkpt lat="43.48161049142096" lon="10.673673453508735"><ele>137.0</ele><time>2026-04-19T09:54:40.001Z</time></trkpt><trkpt lat="43.481697768306006" lon="10.673738996497551"><ele>137.0</ele><time>2026-04-19T09:54:41.001Z</time></trkpt><trkpt lat="43.48179416289058" lon="10.673772286802269"><ele>137.0</ele><time>2026-04-19T09:54:42.001Z</time></trkpt><trkpt lat="43.481890885711586" lon="10.67378283356737"><ele>137.0</ele><time>2026-04-19T09:54:43.001Z</time></trkpt><trkpt lat="43.4819772405106" lon="10.67378569455127"><ele>137.0</ele><time>2026-04-19T09:54:44.001Z</time></trkpt><trkpt lat="43.48204787902822" lon="10.673794555495872"><ele>137.0</ele><time>2026-04-19T09:54:45.001Z</time></trkpt><trkpt lat="43.482149931293534" lon="10.673835247489974"><ele>137.0</ele><time>2026-04-19T09:54:47.001Z</time></trkpt><trkpt lat="43.48221504581675" lon="10.673959822886392"><ele>137.0</ele><time>2026-04-19T09:54:49.001Z</time></trkpt><trkpt lat="43.48224267727743" lon="10.674043289704722"><ele>137.0</ele><time>2026-04-19T09:54:50.001Z</time></trkpt><trkpt lat="43.48226787628793" lon="10.674138945010764"><ele>137.0</ele><time>2026-04-19T09:54:51.001Z</time></trkpt><trkpt lat="43.48229485175902" lon="10.674243783859723"><ele>137.0</ele><time>2026-04-19T09:54:52.001Z</time></trkpt><trkpt lat="43.48232197689236" lon="10.674356180330287"><ele>137.0</ele><time>2026-04-19T09:54:53.001Z</time></trkpt><trkpt lat="43.48234154352501" lon="10.674483477200914"><ele>137.0</ele><time>2026-04-19T09:54:54.001Z</time></trkpt><trkpt lat="43.48235496013666" lon="10.674602262766662"><ele>137.0</ele><time>2026-04-19T09:54:55.001Z</time></trkpt><trkpt lat="43.48235554458612" lon="10.674715254809035"><ele>137.0</ele><time>2026-04-19T09:54:56.001Z</time></trkpt><trkpt lat="43.48234895433234" lon="10.674820033344451"><ele>137.33333333333331</ele><time>2026-04-19T09:54:57.001Z</time></trkpt><trkpt lat="43.482334381569046" lon="10.67492335485513"><ele>137.66666666666666</ele><time>2026-04-19T09:54:58.001Z</time></trkpt><trkpt lat="43.482318948152944" lon="10.675032418054332"><ele>138.0</ele><time>2026-04-19T09:54:59.001Z</time></trkpt><trkpt lat="43.482295786872015" lon="10.67514540265382"><ele>138.33333333333334</ele><time>2026-04-19T09:55:00.001Z</time></trkpt><trkpt lat="43.482264950251654" lon="10.675271676031405"><ele>138.66666666666669</ele><time>2026-04-19T09:55:01.001Z</time></trkpt><trkpt lat="43.482230282025114" lon="10.675400763949256"><ele>139.0</ele><time>2026-04-19T09:55:02.001Z</time></trkpt><trkpt lat="43.482190764351266" lon="10.67553327479935"><ele>137.75</ele><time>2026-04-19T09:55:03.001Z</time></trkpt><trkpt lat="43.4821465027214" lon="10.675677652796212"><ele>136.5</ele><time>2026-04-19T09:55:04.001Z</time></trkpt><trkpt lat="43.48209677393148" lon="10.675826282435853"><ele>135.25</ele><time>2026-04-19T09:55:05.001Z</time></trkpt><trkpt lat="43.4820474388061" lon="10.675977771497301"><ele>134.0</ele><time>2026-04-19T09:55:06.001Z</time></trkpt><trkpt lat="43.48199848023635" lon="10.676127218314283"><ele>133.0</ele><time>2026-04-19T09:55:07.001Z</time></trkpt><trkpt lat="43.481950734795255" lon="10.676281377757427"><ele>132.0</ele><time>2026-04-19T09:55:08.001Z</time></trkpt><trkpt lat="43.481900300880476" lon="10.676452186800926"><ele>131.0</ele><time>2026-04-19T09:55:09.001Z</time></trkpt><trkpt lat="43.481843426860884" lon="10.67663724808014"><ele>130.0</ele><time>2026-04-19T09:55:10.001Z</time></trkpt><trkpt lat="43.48178440664747" lon="10.676839004863643"><ele>129.0</ele><time>2026-04-19T09:55:11.001Z</time></trkpt><trkpt lat="43.481718894977874" lon="10.677051154224591"><ele>128.0</ele><time>2026-04-19T09:55:12.001Z</time></trkpt><trkpt lat="43.48165222428395" lon="10.677273344493429"><ele>127.0</ele><time>2026-04-19T09:55:13.001Z</time></trkpt><trkpt lat="43.48158389251556" lon="10.677494712674282"><ele>127.0</ele><time>2026-04-19T09:55:14.001Z</time></trkpt><trkpt lat="43.48152016483068" lon="10.67770421708963"><ele>127.0</ele><time>2026-04-19T09:55:15.001Z</time></trkpt><trkpt lat="43.48146778197025" lon="10.677909379162976"><ele>127.0</ele><time>2026-04-19T09:55:16.001Z</time></trkpt><trkpt lat="43.48140964528789" lon="10.678116986640271"><ele>126.33333333333334</ele><time>2026-04-19T09:55:17.001Z</time></trkpt><trkpt lat="43.48138113874728" lon="10.678346540100968"><ele>125.66666666666666</ele><time>2026-04-19T09:55:18.001Z</time></trkpt><trkpt lat="43.48136536452529" lon="10.678589735641733"><ele>125.0</ele><time>2026-04-19T09:55:19.001Z</time></trkpt><trkpt lat="43.48135135521047" lon="10.67883705247634"><ele>124.33333333333333</ele><time>2026-04-19T09:55:20.001Z</time></trkpt><trkpt lat="43.481353774317355" lon="10.679089722413448"><ele>123.66666666666666</ele><time>2026-04-19T09:55:21.001Z</time></trkpt><trkpt lat="43.48132249361855" lon="10.679344107669355"><ele>123.0</ele><time>2026-04-19T09:55:22.001Z</time></trkpt><trkpt lat="43.48130978598071" lon="10.679592561239245"><ele>122.33333333333334</ele><time>2026-04-19T09:55:23.001Z</time></trkpt><trkpt lat="43.48129684199027" lon="10.679845635809496"><ele>121.66666666666667</ele><time>2026-04-19T09:55:24.001Z</time></trkpt><trkpt lat="43.481282906506635" lon="10.680082091029629"><ele>121.0</ele><time>2026-04-19T09:55:25.001Z</time></trkpt><trkpt lat="43.48126701092048" lon="10.680331679953003"><ele>120.66666666666667</ele><time>2026-04-19T09:55:26.001Z</time></trkpt><trkpt lat="43.481253191589445" lon="10.68058719561654"><ele>120.33333333333334</ele><time>2026-04-19T09:55:27.001Z</time></trkpt><trkpt lat="43.48125428301645" lon="10.68084597155612"><ele>120.0</ele><time>2026-04-19T09:55:28.001Z</time></trkpt><trkpt lat="43.481234257212336" lon="10.681107124321922"><ele>119.66666666666666</ele><time>2026-04-19T09:55:29.001Z</time></trkpt><trkpt lat="43.481217071136236" lon="10.681367610683177"><ele>119.33333333333333</ele><time>2026-04-19T09:55:30.001Z</time></trkpt><trkpt lat="43.481201948472815" lon="10.681619877987004"><ele>119.0</ele><time>2026-04-19T09:55:31.001Z</time></trkpt><trkpt lat="43.481185080820296" lon="10.681869890387114"><ele>118.66666666666666</ele><time>2026-04-19T09:55:32.001Z</time></trkpt><trkpt lat="43.481170314022094" lon="10.682112361067878"><ele>118.33333333333334</ele><time>2026-04-19T09:55:33.001Z</time></trkpt><trkpt lat="43.48115636355257" lon="10.6823506336872"><ele>118.0</ele><time>2026-04-19T09:55:34.001Z</time></trkpt><trkpt lat="43.48114283777157" lon="10.682571958026815"><ele>117.5</ele><time>2026-04-19T09:55:35.001Z</time></trkpt><trkpt lat="43.48112991014602" lon="10.682772492851498"><ele>117.0</ele><time>2026-04-19T09:55:36.001Z</time></trkpt><trkpt lat="43.481117762980155" lon="10.682955501301038"><ele>116.5</ele><time>2026-04-19T09:55:37.001Z</time></trkpt><trkpt lat="43.48111711096875" lon="10.68313598374979"><ele>116.0</ele><time>2026-04-19T09:55:38.001Z</time></trkpt><trkpt lat="43.4811426949818" lon="10.68331757168615"><ele>116.0</ele><time>2026-04-19T09:55:39.001Z</time></trkpt><trkpt lat="43.48119332031011" lon="10.683514238564275"><ele>116.0</ele><time>2026-04-19T09:55:40.001Z</time></trkpt><trkpt lat="43.48126912813737" lon="10.68368476909761"><ele>116.0</ele><time>2026-04-19T09:55:41.001Z</time></trkpt><trkpt lat="43.48134516177169" lon="10.683878134631192"><ele>116.0</ele><time>2026-04-19T09:55:42.001Z</time></trkpt><trkpt lat="43.481417759037356" lon="10.684072259340063"><ele>116.0</ele><time>2026-04-19T09:55:43.001Z</time></trkpt><trkpt lat="43.48148370788278" lon="10.684285009587663"><ele>116.0</ele><time>2026-04-19T09:55:44.001Z</time></trkpt><trkpt lat="43.481540936378224" lon="10.6845004767332"><ele>115.66666666666666</ele><time>2026-04-19T09:55:45.001Z</time></trkpt><trkpt lat="43.48158552176513" lon="10.68473858776199"><ele>115.33333333333334</ele><time>2026-04-19T09:55:46.001Z</time></trkpt><trkpt lat="43.481617129380794" lon="10.684962461614218"><ele>115.0</ele><time>2026-04-19T09:55:47.001Z</time></trkpt><trkpt lat="43.48164561651787" lon="10.685194658652286"><ele>114.33333333333334</ele><time>2026-04-19T09:55:48.002Z</time></trkpt><trkpt lat="43.48168308244461" lon="10.685424873887607"><ele>113.66666666666666</ele><time>2026-04-19T09:55:49.002Z</time></trkpt><trkpt lat="43.48170434193498" lon="10.685653438171734"><ele>113.0</ele><time>2026-04-19T09:55:50.001Z</time></trkpt><trkpt lat="43.48170054484696" lon="10.68587570935211"><ele>113.0</ele><time>2026-04-19T09:55:51.001Z</time></trkpt><trkpt lat="43.48163154284943" lon="10.686079146598555"><ele>113.0</ele><time>2026-04-19T09:55:52.001Z</time></trkpt><trkpt lat="43.48159262975217" lon="10.686300732017745"><ele>113.0</ele><time>2026-04-19T09:55:53.001Z</time></trkpt><trkpt lat="43.48152788560158" lon="10.686520083515932"><ele>113.33333333333333</ele><time>2026-04-19T09:55:54.001Z</time></trkpt><trkpt lat="43.481495838881145" lon="10.68676077905406"><ele>113.66666666666666</ele><time>2026-04-19T09:55:55.001Z</time></trkpt><trkpt lat="43.48144727951121" lon="10.686989624549724"><ele>114.0</ele><time>2026-04-19T09:55:56.001Z</time></trkpt><trkpt lat="43.48140776662942" lon="10.68722115801763"><ele>115.0</ele><time>2026-04-19T09:55:57.001Z</time></trkpt><trkpt lat="43.481369476304444" lon="10.687444139629438"><ele>116.0</ele><time>2026-04-19T09:55:58.001Z</time></trkpt><trkpt lat="43.481335345137005" lon="10.68765082694928"><ele>117.0</ele><time>2026-04-19T09:55:59.001Z</time></trkpt><trkpt lat="43.48130712848641" lon="10.687854045607043"><ele>117.33333333333334</ele><time>2026-04-19T09:56:00.001Z</time></trkpt><trkpt lat="43.48129136839162" lon="10.688069808567601"><ele>117.66666666666667</ele><time>2026-04-19T09:56:01.001Z</time></trkpt><trkpt lat="43.48129721394028" lon="10.688289460193637"><ele>118.0</ele><time>2026-04-19T09:56:02.001Z</time></trkpt><trkpt lat="43.48131410705467" lon="10.68851522960411"><ele>116.66666666666667</ele><time>2026-04-19T09:56:03.001Z</time></trkpt><trkpt lat="43.48133007570911" lon="10.688747567103118"><ele>115.33333333333334</ele><time>2026-04-19T09:56:04.001Z</time></trkpt><trkpt lat="43.481350955744965" lon="10.688988194470683"><ele>114.0</ele><time>2026-04-19T09:56:05.001Z</time></trkpt><trkpt lat="43.481373883010235" lon="10.68923179952577"><ele>113.0</ele><time>2026-04-19T09:56:06.001Z</time></trkpt><trkpt lat="43.48139508780977" lon="10.68946676925634"><ele>112.0</ele><time>2026-04-19T09:56:07.001Z</time></trkpt><trkpt lat="43.48141063239581" lon="10.689702251468525"><ele>111.0</ele><time>2026-04-19T09:56:08.001Z</time></trkpt><trkpt lat="43.4814129037061" lon="10.689944403223334"><ele>111.0</ele><time>2026-04-19T09:56:09.001Z</time></trkpt><trkpt lat="43.481392112146345" lon="10.690192215259398"><ele>111.0</ele><time>2026-04-19T09:56:10.001Z</time></trkpt><trkpt lat="43.481352834783266" lon="10.69044383643768"><ele>111.0</ele><time>2026-04-19T09:56:11.001Z</time></trkpt><trkpt lat="43.481310286750045" lon="10.690696739221673"><ele>110.33333333333334</ele><time>2026-04-19T09:56:12.001Z</time></trkpt><trkpt lat="43.48126036056981" lon="10.690944009569268"><ele>109.66666666666667</ele><time>2026-04-19T09:56:13.001Z</time></trkpt><trkpt lat="43.48121239430449" lon="10.691179444256049"><ele>109.0</ele><time>2026-04-19T09:56:14.001Z</time></trkpt><trkpt lat="43.48117474563423" lon="10.69139738067151"><ele>109.0</ele><time>2026-04-19T09:56:15.001Z</time></trkpt><trkpt lat="43.48113471422669" lon="10.691610982290438"><ele>109.0</ele><time>2026-04-19T09:56:16.001Z</time></trkpt><trkpt lat="43.48109592877826" lon="10.691819697373079"><ele>109.0</ele><time>2026-04-19T09:56:17.001Z</time></trkpt><trkpt lat="43.48106142869415" lon="10.692023997814035"><ele>108.5</ele><time>2026-04-19T09:56:18.001Z</time></trkpt><trkpt lat="43.48103343471536" lon="10.692224098559027"><ele>108.0</ele><time>2026-04-19T09:56:19.001Z</time></trkpt><trkpt lat="43.4810082234399" lon="10.692423762095975"><ele>107.5</ele><time>2026-04-19T09:56:20.001Z</time></trkpt><trkpt lat="43.480984374678606" lon="10.692621064688298"><ele>107.0</ele><time>2026-04-19T09:56:21.001Z</time></trkpt><trkpt lat="43.4809480781602" lon="10.692813681649094"><ele>106.75</ele><time>2026-04-19T09:56:22.001Z</time></trkpt><trkpt lat="43.48088462632036" lon="10.692992599256414"><ele>106.5</ele><time>2026-04-19T09:56:23.001Z</time></trkpt><trkpt lat="43.480818907269175" lon="10.693166625853554"><ele>106.25</ele><time>2026-04-19T09:56:24.001Z</time></trkpt><trkpt lat="43.480752643228705" lon="10.693326230343384"><ele>106.0</ele><time>2026-04-19T09:56:25.001Z</time></trkpt><trkpt lat="43.4806849065594" lon="10.693480886304181"><ele>106.25</ele><time>2026-04-19T09:56:26.001Z</time></trkpt><trkpt lat="43.480610743638564" lon="10.69361865771284"><ele>106.5</ele><time>2026-04-19T09:56:27.001Z</time></trkpt><trkpt lat="43.48050839240715" lon="10.693704285468174"><ele>106.75</ele><time>2026-04-19T09:56:28.001Z</time></trkpt><trkpt lat="43.48040409603931" lon="10.69377054413603"><ele>107.0</ele><time>2026-04-19T09:56:29.001Z</time></trkpt><trkpt lat="43.48029190524974" lon="10.693810529077846"><ele>107.0</ele><time>2026-04-19T09:56:30.001Z</time></trkpt><trkpt lat="43.48018838413962" lon="10.693862246761494"><ele>106.99999999999999</ele><time>2026-04-19T09:56:31.001Z</time></trkpt><trkpt lat="43.48008908535589" lon="10.693934564552201"><ele>106.99999999999999</ele><time>2026-04-19T09:56:32.001Z</time></trkpt><trkpt lat="43.48001233812104" lon="10.694038443302562"><ele>107.0</ele><time>2026-04-19T09:56:33.001Z</time></trkpt><trkpt lat="43.47993516808337" lon="10.694128498178065"><ele>107.0</ele><time>2026-04-19T09:56:34.001Z</time></trkpt><trkpt lat="43.479859396453314" lon="10.694228589498623"><ele>107.0</ele><time>2026-04-19T09:56:35.001Z</time></trkpt><trkpt lat="43.47977338373471" lon="10.694340530633585"><ele>107.0</ele><time>2026-04-19T09:56:36.001Z</time></trkpt><trkpt lat="43.479680483473764" lon="10.69446154743323"><ele>107.0</ele><time>2026-04-19T09:56:37.001Z</time></trkpt><trkpt lat="43.47958751073177" lon="10.694595028725406"><ele>107.0</ele><time>2026-04-19T09:56:38.001Z</time></trkpt><trkpt lat="43.4795003277586" lon="10.694739158383449"><ele>106.5</ele><time>2026-04-19T09:56:39.001Z</time></trkpt><trkpt lat="43.479416324198354" lon="10.694892676220089"><ele>106.0</ele><time>2026-04-19T09:56:40.001Z</time></trkpt><trkpt lat="43.47933514191729" lon="10.695057108892936"><ele>105.5</ele><time>2026-04-19T09:56:41.001Z</time></trkpt><trkpt lat="43.47926002947494" lon="10.695234498292294"><ele>105.0</ele><time>2026-04-19T09:56:42.001Z</time></trkpt><trkpt lat="43.47919350007644" lon="10.695426245156467"><ele>105.0</ele><time>2026-04-19T09:56:43.001Z</time></trkpt><trkpt lat="43.47912701915629" lon="10.695626309087583"><ele>105.0</ele><time>2026-04-19T09:56:44.001Z</time></trkpt><trkpt lat="43.479070809146464" lon="10.695830129418242"><ele>105.0</ele><time>2026-04-19T09:56:45.001Z</time></trkpt><trkpt lat="43.47901799278295" lon="10.6960356998798"><ele>104.66666666666666</ele><time>2026-04-19T09:56:46.001Z</time></trkpt><trkpt lat="43.47897520942026" lon="10.696245781419966"><ele>104.33333333333333</ele><time>2026-04-19T09:56:47.001Z</time></trkpt><trkpt lat="43.47893731187405" lon="10.696452672469436"><ele>104.0</ele><time>2026-04-19T09:56:48.001Z</time></trkpt><trkpt lat="43.478902797317964" lon="10.696656122031172"><ele>104.0</ele><time>2026-04-19T09:56:49.001Z</time></trkpt><trkpt lat="43.47887251166113" lon="10.696848221244199"><ele>104.0</ele><time>2026-04-19T09:56:50.001Z</time></trkpt><trkpt lat="43.47883874388828" lon="10.697025977570766"><ele>104.0</ele><time>2026-04-19T09:56:51.001Z</time></trkpt><trkpt lat="43.478795846711556" lon="10.697192238360412"><ele>104.0</ele><time>2026-04-19T09:56:52.001Z</time></trkpt><trkpt lat="43.478738192064306" lon="10.697344914190758"><ele>102.5</ele><time>2026-04-19T09:56:53.001Z</time></trkpt><trkpt lat="43.47863091214747" lon="10.69745296278319"><ele>101.0</ele><time>2026-04-19T09:56:54.001Z</time></trkpt><trkpt lat="43.47851877339326" lon="10.697551888238939"><ele>99.5</ele><time>2026-04-19T09:56:55.001Z</time></trkpt><trkpt lat="43.47839160995592" lon="10.69764933844482"><ele>98.0</ele><time>2026-04-19T09:56:56.001Z</time></trkpt><trkpt lat="43.47826478633606" lon="10.697745697625725"><ele>97.5</ele><time>2026-04-19T09:56:57.001Z</time></trkpt><trkpt lat="43.478150949237175" lon="10.697857192375354"><ele>97.0</ele><time>2026-04-19T09:56:58.001Z</time></trkpt><trkpt lat="43.47803579103372" lon="10.697942760891609"><ele>96.5</ele><time>2026-04-19T09:56:59.001Z</time></trkpt><trkpt lat="43.477934446836024" lon="10.698025665654288"><ele>96.0</ele><time>2026-04-19T09:57:00.001Z</time></trkpt><trkpt lat="43.47783673009981" lon="10.698083189690037"><ele>96.0</ele><time>2026-04-19T09:57:01.001Z</time></trkpt><trkpt lat="43.477755907675" lon="10.698156721875247"><ele>96.0</ele><time>2026-04-19T09:57:02.001Z</time></trkpt><trkpt lat="43.477681378189025" lon="10.698244132493999"><ele>96.0</ele><time>2026-04-19T09:57:03.001Z</time></trkpt><trkpt lat="43.47763787546694" lon="10.698339672737625"><ele>96.0</ele><time>2026-04-19T09:57:04.001Z</time></trkpt><trkpt lat="43.47758970006793" lon="10.698424228536366"><ele>96.0</ele><time>2026-04-19T09:57:05.001Z</time></trkpt><trkpt lat="43.47752789348334" lon="10.698526419797002"><ele>96.0</ele><time>2026-04-19T09:57:07.001Z</time></trkpt><trkpt lat="43.477475254834246" lon="10.698472250682022"><ele>96.0</ele><time>2026-04-19T09:57:09.001Z</time></trkpt><trkpt lat="43.477412355808646" lon="10.698393723827792"><ele>96.0</ele><time>2026-04-19T09:57:11.001Z</time></trkpt><trkpt lat="43.47736300373314" lon="10.698332205452253"><ele>96.0</ele><time>2026-04-19T09:57:13.001Z</time></trkpt><trkpt lat="43.47728131443985" lon="10.69837705190751"><ele>96.0</ele><time>2026-04-19T09:57:14.001Z</time></trkpt><trkpt lat="43.477216444688054" lon="10.698400962320727"><ele>96.0</ele><time>2026-04-19T09:57:16.001Z</time></trkpt><trkpt lat="43.47714071796715" lon="10.69846381851055"><ele>96.16666666666667</ele><time>2026-04-19T09:57:18.001Z</time></trkpt><trkpt lat="43.477070016482536" lon="10.698534917943848"><ele>96.33333333333334</ele><time>2026-04-19T09:57:21.001Z</time></trkpt><trkpt lat="43.47700836012416" lon="10.698620389400041"><ele>96.5</ele><time>2026-04-19T09:57:24.001Z</time></trkpt><trkpt lat="43.476966746368575" lon="10.698695190233149"><ele>96.66666666666667</ele><time>2026-04-19T09:57:26.001Z</time></trkpt><trkpt lat="43.47693566743986" lon="10.69877216382179"><ele>96.83333333333334</ele><time>2026-04-19T09:57:28.001Z</time></trkpt><trkpt lat="43.47691228502046" lon="10.698909120764725"><ele>97.0</ele><time>2026-04-19T09:57:31.001Z</time></trkpt><trkpt lat="43.47690969218709" lon="10.699026445152978"><ele>96.66666666666667</ele><time>2026-04-19T09:57:33.001Z</time></trkpt><trkpt lat="43.476900782653615" lon="10.699128818508639"><ele>96.33333333333334</ele><time>2026-04-19T09:57:35.001Z</time></trkpt><trkpt lat="43.47687909456363" lon="10.699240782206033"><ele>96.0</ele><time>2026-04-19T09:57:38.001Z</time></trkpt><trkpt lat="43.47688851314957" lon="10.699340527351684"><ele>95.66666666666667</ele><time>2026-04-19T09:57:40.001Z</time></trkpt><trkpt lat="43.4769300749455" lon="10.699443170568484"><ele>95.33333333333334</ele><time>2026-04-19T09:57:43.001Z</time></trkpt><trkpt lat="43.476926948907696" lon="10.6995427389258"><ele>95.0</ele><time>2026-04-19T09:57:45.001Z</time></trkpt><trkpt lat="43.47690862729266" lon="10.699670903404426"><ele>95.0</ele><time>2026-04-19T09:57:47.001Z</time></trkpt><trkpt lat="43.476862956410734" lon="10.699798175757541"><ele>95.0</ele><time>2026-04-19T09:57:49.001Z</time></trkpt><trkpt lat="43.476840448724715" lon="10.699953554214316"><ele>95.0</ele><time>2026-04-19T09:57:51.001Z</time></trkpt><trkpt lat="43.4768340235115" lon="10.70005521053994"><ele>95.0</ele><time>2026-04-19T09:57:52.001Z</time></trkpt><trkpt lat="43.47682280738778" lon="10.700174719360572"><ele>95.0</ele><time>2026-04-19T09:57:53.001Z</time></trkpt><trkpt lat="43.47680534974892" lon="10.700305014316891"><ele>95.2</ele><time>2026-04-19T09:57:54.001Z</time></trkpt><trkpt lat="43.47678167916063" lon="10.700440561873073"><ele>95.4</ele><time>2026-04-19T09:57:55.001Z</time></trkpt><trkpt lat="43.47674627209987" lon="10.700584800625428"><ele>95.6</ele><time>2026-04-19T09:57:56.001Z</time></trkpt><trkpt lat="43.47670111276653" lon="10.700734331151121"><ele>95.8</ele><time>2026-04-19T09:57:57.001Z</time></trkpt><trkpt lat="43.47665320068996" lon="10.700883668575287"><ele>96.0</ele><time>2026-04-19T09:57:58.001Z</time></trkpt><trkpt lat="43.47660739875967" lon="10.701038318655085"><ele>95.5</ele><time>2026-04-19T09:57:59.001Z</time></trkpt><trkpt lat="43.47656302322547" lon="10.701193166474365"><ele>95.0</ele><time>2026-04-19T09:58:00.001Z</time></trkpt><trkpt lat="43.476504522033395" lon="10.701339975073616"><ele>94.5</ele><time>2026-04-19T09:58:01.001Z</time></trkpt><trkpt lat="43.47645653600389" lon="10.701501418910361"><ele>94.0</ele><time>2026-04-19T09:58:02Z</time></trkpt><trkpt lat="43.476410691274474" lon="10.70165753527205"><ele>94.0</ele><time>2026-04-19T09:58:03Z</time></trkpt><trkpt lat="43.4763639841142" lon="10.701812719943515"><ele>94.0</ele><time>2026-04-19T09:58:04Z</time></trkpt><trkpt lat="43.476318284311965" lon="10.701969001662466"><ele>94.0</ele><time>2026-04-19T09:58:05Z</time></trkpt><trkpt lat="43.47627054920355" lon="10.70212911103088"><ele>94.0</ele><time>2026-04-19T09:58:06Z</time></trkpt><trkpt lat="43.47622362195312" lon="10.702282164228718"><ele>94.25</ele><time>2026-04-19T09:58:07Z</time></trkpt><trkpt lat="43.476177805318976" lon="10.702432031511377"><ele>94.5</ele><time>2026-04-19T09:58:08Z</time></trkpt><trkpt lat="43.476134303367665" lon="10.702578996964101"><ele>94.75</ele><time>2026-04-19T09:58:09Z</time></trkpt><trkpt lat="43.476090691630816" lon="10.702722628052886"><ele>95.0</ele><time>2026-04-19T09:58:10Z</time></trkpt><trkpt lat="43.47604704578967" lon="10.702865183906884"><ele>95.0</ele><time>2026-04-19T09:58:11Z</time></trkpt><trkpt lat="43.476005484649704" lon="10.703009300460495"><ele>95.0</ele><time>2026-04-19T09:58:12Z</time></trkpt><trkpt lat="43.47596357823297" lon="10.703157940081555"><ele>95.0</ele><time>2026-04-19T09:58:13Z</time></trkpt><trkpt lat="43.47592286978928" lon="10.703303499765518"><ele>95.0</ele><time>2026-04-19T09:58:14Z</time></trkpt><trkpt lat="43.4758812268488" lon="10.703448337952398"><ele>94.75</ele><time>2026-04-19T09:58:15Z</time></trkpt><trkpt lat="43.475836622099834" lon="10.703597082341359"><ele>94.5</ele><time>2026-04-19T09:58:16Z</time></trkpt><trkpt lat="43.475791791873185" lon="10.703747129673232"><ele>94.25</ele><time>2026-04-19T09:58:17Z</time></trkpt><trkpt lat="43.47574544428582" lon="10.703901833010422"><ele>94.0</ele><time>2026-04-19T09:58:18Z</time></trkpt><trkpt lat="43.475703609318266" lon="10.704062840281193"><ele>94.0</ele><time>2026-04-19T09:58:19Z</time></trkpt><trkpt lat="43.475658258461266" lon="10.70421305916327"><ele>94.0</ele><time>2026-04-19T09:58:20Z</time></trkpt><trkpt lat="43.47561282016006" lon="10.704365303547535"><ele>94.0</ele><time>2026-04-19T09:58:21Z</time></trkpt><trkpt lat="43.47556604056931" lon="10.704520428508603"><ele>94.0</ele><time>2026-04-19T09:58:22Z</time></trkpt><trkpt lat="43.475522498407" lon="10.704673115323112"><ele>94.0</ele><time>2026-04-19T09:58:23Z</time></trkpt><trkpt lat="43.47547725777151" lon="10.704815279922657"><ele>94.0</ele><time>2026-04-19T09:58:24Z</time></trkpt><trkpt lat="43.47542586915287" lon="10.704950507900667"><ele>94.0</ele><time>2026-04-19T09:58:25Z</time></trkpt><trkpt lat="43.475366135700334" lon="10.705074685347823"><ele>94.0</ele><time>2026-04-19T09:58:26Z</time></trkpt><trkpt lat="43.475295327541495" lon="10.705184690315114"><ele>94.0</ele><time>2026-04-19T09:58:27Z</time></trkpt><trkpt lat="43.47520928885193" lon="10.705283051979094"><ele>94.5</ele><time>2026-04-19T09:58:28Z</time></trkpt><trkpt lat="43.47510521918216" lon="10.705352753802819"><ele>95.0</ele><time>2026-04-19T09:58:29Z</time></trkpt><trkpt lat="43.47500817937791" lon="10.705453751042608"><ele>95.5</ele><time>2026-04-19T09:58:30Z</time></trkpt><trkpt lat="43.47489749488973" lon="10.705535381578686"><ele>96.0</ele><time>2026-04-19T09:58:31Z</time></trkpt><trkpt lat="43.47479288229195" lon="10.705599531487609"><ele>96.0</ele><time>2026-04-19T09:58:32Z</time></trkpt><trkpt lat="43.47469710525428" lon="10.70567391903782"><ele>96.0</ele><time>2026-04-19T09:58:33Z</time></trkpt><trkpt lat="43.474605931566984" lon="10.705743647595627"><ele>96.0</ele><time>2026-04-19T09:58:34Z</time></trkpt><trkpt lat="43.47451707301395" lon="10.705816169180133"><ele>96.0</ele><time>2026-04-19T09:58:35Z</time></trkpt><trkpt lat="43.474434373149805" lon="10.705905765511016"><ele>96.0</ele><time>2026-04-19T09:58:36Z</time></trkpt><trkpt lat="43.474362302729894" lon="10.70601609518018"><ele>96.5</ele><time>2026-04-19T09:58:37Z</time></trkpt><trkpt lat="43.47430689519487" lon="10.706144397848163"><ele>97.0</ele><time>2026-04-19T09:58:38Z</time></trkpt><trkpt lat="43.47427240204209" lon="10.706296034043751"><ele>97.5</ele><time>2026-04-19T09:58:39Z</time></trkpt><trkpt lat="43.47425322050786" lon="10.706452292781723"><ele>98.0</ele><time>2026-04-19T09:58:40Z</time></trkpt><trkpt lat="43.47423997872422" lon="10.70661828278845"><ele>98.0</ele><time>2026-04-19T09:58:41Z</time></trkpt><trkpt lat="43.474229093766816" lon="10.706777038203033"><ele>98.0</ele><time>2026-04-19T09:58:42.001Z</time></trkpt><trkpt lat="43.47421729713111" lon="10.706935826846498"><ele>98.0</ele><time>2026-04-19T09:58:43.001Z</time></trkpt><trkpt lat="43.474207625085974" lon="10.707096098095253"><ele>98.0</ele><time>2026-04-19T09:58:44.001Z</time></trkpt><trkpt lat="43.474195434915586" lon="10.707259664966061"><ele>98.4</ele><time>2026-04-19T09:58:45.001Z</time></trkpt><trkpt lat="43.47418413154129" lon="10.707425394304485"><ele>98.80000000000001</ele><time>2026-04-19T09:58:46.001Z</time></trkpt><trkpt lat="43.474178301687495" lon="10.707577930015582"><ele>99.2</ele><time>2026-04-19T09:58:47.001Z</time></trkpt><trkpt lat="43.474193732521194" lon="10.707721596647023"><ele>99.6</ele><time>2026-04-19T09:58:48.001Z</time></trkpt><trkpt lat="43.47423920152787" lon="10.707851880129873"><ele>100.0</ele><time>2026-04-19T09:58:49.001Z</time></trkpt><trkpt lat="43.47430813730874" lon="10.707962382648587"><ele>101.4</ele><time>2026-04-19T09:58:50.001Z</time></trkpt><trkpt lat="43.47440423924872" lon="10.708048104423794"><ele>102.8</ele><time>2026-04-19T09:58:51.001Z</time></trkpt><trkpt lat="43.474520177924184" lon="10.708065978567275"><ele>104.19999999999999</ele><time>2026-04-19T09:58:52.001Z</time></trkpt><trkpt lat="43.474600625004314" lon="10.70807107380457"><ele>105.6</ele><time>2026-04-19T09:58:53.001Z</time></trkpt><trkpt lat="43.47468571050644" lon="10.708029872734398"><ele>107.0</ele><time>2026-04-19T09:58:54.001Z</time></trkpt><trkpt lat="43.47477354135805" lon="10.707934127728345"><ele>108.0</ele><time>2026-04-19T09:58:55.001Z</time></trkpt><trkpt lat="43.4748499561619" lon="10.707833741254717"><ele>108.99999999999999</ele><time>2026-04-19T09:58:56.001Z</time></trkpt><trkpt lat="43.47494045502018" lon="10.707767169954511"><ele>109.99999999999999</ele><time>2026-04-19T09:58:57.001Z</time></trkpt><trkpt lat="43.475034985808044" lon="10.707733238213617"><ele>111.0</ele><time>2026-04-19T09:58:58.001Z</time></trkpt><trkpt lat="43.47513523070641" lon="10.707726635132614"><ele>112.0</ele><time>2026-04-19T09:58:59.001Z</time></trkpt><trkpt lat="43.47524055134105" lon="10.707728820660199"><ele>112.19999999999999</ele><time>2026-04-19T09:59:00.001Z</time></trkpt><trkpt lat="43.47535050859771" lon="10.707730976135274"><ele>112.39999999999999</ele><time>2026-04-19T09:59:01.001Z</time></trkpt><trkpt lat="43.475458981218154" lon="10.707742981793015"><ele>112.60000000000001</ele><time>2026-04-19T09:59:02.001Z</time></trkpt><trkpt lat="43.47556690483379" lon="10.707771680948355"><ele>112.80000000000001</ele><time>2026-04-19T09:59:03.001Z</time></trkpt><trkpt lat="43.47567366105988" lon="10.70782168312617"><ele>113.0</ele><time>2026-04-19T09:59:04.001Z</time></trkpt><trkpt lat="43.4757630979646" lon="10.707879275382671"><ele>113.0</ele><time>2026-04-19T09:59:05.001Z</time></trkpt><trkpt lat="43.47584524347399" lon="10.707950550429688"><ele>113.00000000000001</ele><time>2026-04-19T09:59:06.001Z</time></trkpt><trkpt lat="43.475911525637024" lon="10.708043092607685"><ele>113.00000000000001</ele><time>2026-04-19T09:59:07.001Z</time></trkpt><trkpt lat="43.47597840020773" lon="10.708152731829705"><ele>113.0</ele><time>2026-04-19T09:59:08.001Z</time></trkpt><trkpt lat="43.47603805297841" lon="10.708264368572669"><ele>113.0</ele><time>2026-04-19T09:59:09.001Z</time></trkpt><trkpt lat="43.47609218925307" lon="10.708376184795657"><ele>112.99999999999999</ele><time>2026-04-19T09:59:10.001Z</time></trkpt><trkpt lat="43.47613717044868" lon="10.708486338075518"><ele>113.0</ele><time>2026-04-19T09:59:11.001Z</time></trkpt><trkpt lat="43.47616471399859" lon="10.708599982205197"><ele>113.0</ele><time>2026-04-19T09:59:12.001Z</time></trkpt><trkpt lat="43.47617842047587" lon="10.708723834471108"><ele>113.0</ele><time>2026-04-19T09:59:13.001Z</time></trkpt><trkpt lat="43.47617680089608" lon="10.708847512596895"><ele>112.99999999999999</ele><time>2026-04-19T09:59:14.001Z</time></trkpt><trkpt lat="43.47614019636421" lon="10.708956516872291"><ele>113.0</ele><time>2026-04-19T09:59:15.001Z</time></trkpt><trkpt lat="43.476103959694186" lon="10.709081277190393"><ele>114.4</ele><time>2026-04-19T09:59:16.001Z</time></trkpt><trkpt lat="43.476074478232604" lon="10.70921897050247"><ele>115.80000000000001</ele><time>2026-04-19T09:59:17.001Z</time></trkpt><trkpt lat="43.47603687875883" lon="10.709346674053796"><ele>117.2</ele><time>2026-04-19T09:59:18.001Z</time></trkpt><trkpt lat="43.47600325394232" lon="10.70947239283299"><ele>118.6</ele><time>2026-04-19T09:59:19.001Z</time></trkpt><trkpt lat="43.47596778667448" lon="10.709590562857153"><ele>120.0</ele><time>2026-04-19T09:59:20.001Z</time></trkpt><trkpt lat="43.475907492558335" lon="10.709691109295166"><ele>120.0</ele><time>2026-04-19T09:59:21.001Z</time></trkpt><trkpt lat="43.47584846511341" lon="10.709801247290322"><ele>120.0</ele><time>2026-04-19T09:59:22.001Z</time></trkpt><trkpt lat="43.47578307143289" lon="10.70990324290898"><ele>120.0</ele><time>2026-04-19T09:59:23.001Z</time></trkpt><trkpt lat="43.475721949045074" lon="10.709984337789093"><ele>120.0</ele><time>2026-04-19T09:59:24.001Z</time></trkpt><trkpt lat="43.47566757224638" lon="10.710076705675474"><ele>120.0</ele><time>2026-04-19T09:59:25.001Z</time></trkpt><trkpt lat="43.47558917364373" lon="10.710133398279808"><ele>120.0</ele><time>2026-04-19T09:59:26.001Z</time></trkpt><trkpt lat="43.47551529058233" lon="10.710205425187395"><ele>120.0</ele><time>2026-04-19T09:59:27.001Z</time></trkpt><trkpt lat="43.47544531114016" lon="10.710301250808731"><ele>120.0</ele><time>2026-04-19T09:59:28.001Z</time></trkpt><trkpt lat="43.47536622151154" lon="10.710396029242512"><ele>120.0</ele><time>2026-04-19T09:59:29.001Z</time></trkpt><trkpt lat="43.47530440011268" lon="10.710505930794826"><ele>120.0</ele><time>2026-04-19T09:59:30.001Z</time></trkpt><trkpt lat="43.47525127874159" lon="10.7106387079084"><ele>122.2</ele><time>2026-04-19T09:59:31.001Z</time></trkpt><trkpt lat="43.47519863160466" lon="10.710788927088588"><ele>124.4</ele><time>2026-04-19T09:59:32.001Z</time></trkpt><trkpt lat="43.47515887494325" lon="10.710928524181092"><ele>126.6</ele><time>2026-04-19T09:59:33.001Z</time></trkpt><trkpt lat="43.4751160139478" lon="10.711067798639572"><ele>128.8</ele><time>2026-04-19T09:59:34.001Z</time></trkpt><trkpt lat="43.475075445391106" lon="10.711201200826105"><ele>131.0</ele><time>2026-04-19T09:59:35.001Z</time></trkpt><trkpt lat="43.47503579395047" lon="10.71134289438719"><ele>131.0</ele><time>2026-04-19T09:59:36.001Z</time></trkpt><trkpt lat="43.47499626325978" lon="10.711482619611973"><ele>131.0</ele><time>2026-04-19T09:59:37.001Z</time></trkpt><trkpt lat="43.47495378406639" lon="10.711612638231617"><ele>131.0</ele><time>2026-04-19T09:59:38.001Z</time></trkpt><trkpt lat="43.474909043255" lon="10.71173334636045"><ele>131.0</ele><time>2026-04-19T09:59:39.001Z</time></trkpt><trkpt lat="43.47486584059408" lon="10.711837352797467"><ele>131.0</ele><time>2026-04-19T09:59:40.001Z</time></trkpt><trkpt lat="43.47481789903645" lon="10.71193188354468"><ele>131.2</ele><time>2026-04-19T09:59:41.001Z</time></trkpt><trkpt lat="43.47473891315985" lon="10.711976401155285"><ele>131.39999999999998</ele><time>2026-04-19T09:59:42.001Z</time></trkpt><trkpt lat="43.47466435101073" lon="10.71202104725492"><ele>131.6</ele><time>2026-04-19T09:59:43.001Z</time></trkpt><trkpt lat="43.47457739017614" lon="10.712024471394725"><ele>131.79999999999998</ele><time>2026-04-19T09:59:44.001Z</time></trkpt><trkpt lat="43.47448246556068" lon="10.712022634972675"><ele>132.0</ele><time>2026-04-19T09:59:45.001Z</time></trkpt><trkpt lat="43.47437978641064" lon="10.712022634975948"><ele>133.2</ele><time>2026-04-19T09:59:46.001Z</time></trkpt><trkpt lat="43.47427500125059" lon="10.712022634976835"><ele>134.39999999999998</ele><time>2026-04-19T09:59:47.001Z</time></trkpt><trkpt lat="43.474172402974745" lon="10.712025523872533"><ele>135.60000000000002</ele><time>2026-04-19T09:59:48.001Z</time></trkpt><trkpt lat="43.47408050537262" lon="10.712032301518637"><ele>136.8</ele><time>2026-04-19T09:59:49.001Z</time></trkpt><trkpt lat="43.47400014635355" lon="10.712048521658442"><ele>138.0</ele><time>2026-04-19T09:59:50.001Z</time></trkpt><trkpt lat="43.47391911164642" lon="10.71210436395705"><ele>138.0</ele><time>2026-04-19T09:59:51.001Z</time></trkpt><trkpt lat="43.47386453199884" lon="10.71220877492044"><ele>138.0</ele><time>2026-04-19T09:59:52.001Z</time></trkpt><trkpt lat="43.473813626591756" lon="10.712315801770323"><ele>138.0</ele><time>2026-04-19T09:59:53.001Z</time></trkpt><trkpt lat="43.47378976489403" lon="10.712442187771332"><ele>138.0</ele><time>2026-04-19T09:59:54.001Z</time></trkpt><trkpt lat="43.473778480706564" lon="10.712580551859137"><ele>138.0</ele><time>2026-04-19T09:59:55.001Z</time></trkpt><trkpt lat="43.47377248494992" lon="10.71272669283781"><ele>136.0</ele><time>2026-04-19T09:59:56.001Z</time></trkpt><trkpt lat="43.473769022616594" lon="10.7128790730766"><ele>134.0</ele><time>2026-04-19T09:59:57.001Z</time></trkpt><trkpt lat="43.47376519862248" lon="10.713034455447305"><ele>132.0</ele><time>2026-04-19T09:59:58.001Z</time></trkpt><trkpt lat="43.47375986764444" lon="10.713182333625399"><ele>130.0</ele><time>2026-04-19T09:59:59.001Z</time></trkpt><trkpt lat="43.47375708129844" lon="10.713327554276454"><ele>128.0</ele><time>2026-04-19T10:00:00.001Z</time></trkpt><trkpt lat="43.47374831287266" lon="10.713472972841927"><ele>127.80000000000001</ele><time>2026-04-19T10:00:01.001Z</time></trkpt><trkpt lat="43.4737387812068" lon="10.713615579378965"><ele>127.60000000000001</ele><time>2026-04-19T10:00:02Z</time></trkpt><trkpt lat="43.473732324312955" lon="10.713752417398176"><ele>127.39999999999999</ele><time>2026-04-19T10:00:03Z</time></trkpt><trkpt lat="43.47372463477313" lon="10.71389454291133"><ele>127.19999999999999</ele><time>2026-04-19T10:00:04Z</time></trkpt><trkpt lat="43.47371805143727" lon="10.714035762512319"><ele>127.0</ele><time>2026-04-19T10:00:05Z</time></trkpt><trkpt lat="43.473717358986434" lon="10.71417312767308"><ele>127.0</ele><time>2026-04-19T10:00:06Z</time></trkpt><trkpt lat="43.473725095844614" lon="10.714308161800767"><ele>126.99999999999999</ele><time>2026-04-19T10:00:07Z</time></trkpt><trkpt lat="43.473747799665624" lon="10.714437267215668"><ele>126.99999999999999</ele><time>2026-04-19T10:00:08Z</time></trkpt><trkpt lat="43.473780457502066" lon="10.714557662055293"><ele>127.0</ele><time>2026-04-19T10:00:09Z</time></trkpt><trkpt lat="43.473822938396104" lon="10.71467177894278"><ele>127.0</ele><time>2026-04-19T10:00:10Z</time></trkpt><trkpt lat="43.473865892334466" lon="10.714782524337622"><ele>129.2</ele><time>2026-04-19T10:00:11Z</time></trkpt><trkpt lat="43.47391110040379" lon="10.714889316834324"><ele>131.39999999999998</ele><time>2026-04-19T10:00:12Z</time></trkpt><trkpt lat="43.47395300277923" lon="10.714997776928785"><ele>133.60000000000002</ele><time>2026-04-19T10:00:13Z</time></trkpt><trkpt lat="43.47399159624685" lon="10.715106254774716"><ele>135.8</ele><time>2026-04-19T10:00:14Z</time></trkpt><trkpt lat="43.47402088532628" lon="10.715230163931981"><ele>138.0</ele><time>2026-04-19T10:00:15Z</time></trkpt><trkpt lat="43.47404715775687" lon="10.715347421873416"><ele>138.0</ele><time>2026-04-19T10:00:16Z</time></trkpt><trkpt lat="43.47406352251638" lon="10.715463882429829"><ele>138.0</ele><time>2026-04-19T10:00:17Z</time></trkpt><trkpt lat="43.4740754649409" lon="10.715584004388463"><ele>138.0</ele><time>2026-04-19T10:00:18Z</time></trkpt><trkpt lat="43.474074184006525" lon="10.715706205401668"><ele>138.0</ele><time>2026-04-19T10:00:19Z</time></trkpt><trkpt lat="43.47406788292364" lon="10.715828759154883"><ele>138.0</ele><time>2026-04-19T10:00:20Z</time></trkpt><trkpt lat="43.47405348332309" lon="10.715951114986646"><ele>138.0</ele><time>2026-04-19T10:00:21Z</time></trkpt><trkpt lat="43.474035695066256" lon="10.716074096355698"><ele>137.6</ele><time>2026-04-19T10:00:22Z</time></trkpt><trkpt lat="43.47399304850827" lon="10.716184339828297"><ele>137.20000000000002</ele><time>2026-04-19T10:00:23Z</time></trkpt><trkpt lat="43.473954217171546" lon="10.71629310289612"><ele>136.8</ele><time>2026-04-19T10:00:24Z</time></trkpt><trkpt lat="43.4739082198898" lon="10.71639396262387"><ele>136.4</ele><time>2026-04-19T10:00:25Z</time></trkpt><trkpt lat="43.473859258347694" lon="10.716502552129237"><ele>136.0</ele><time>2026-04-19T10:00:26Z</time></trkpt><trkpt lat="43.47380660837323" lon="10.716612324532232"><ele>136.8</ele><time>2026-04-19T10:00:27Z</time></trkpt><trkpt lat="43.473746585241486" lon="10.716717475600813"><ele>137.6</ele><time>2026-04-19T10:00:28Z</time></trkpt><trkpt lat="43.47367784396543" lon="10.71681107274526"><ele>138.4</ele><time>2026-04-19T10:00:29Z</time></trkpt><trkpt lat="43.47360783456747" lon="10.716908669180691"><ele>139.2</ele><time>2026-04-19T10:00:30Z</time></trkpt><trkpt lat="43.473555872002265" lon="10.717020450820375"><ele>140.0</ele><time>2026-04-19T10:00:31Z</time></trkpt><trkpt lat="43.473487623066866" lon="10.717107466632328"><ele>140.0</ele><time>2026-04-19T10:00:32Z</time></trkpt><trkpt lat="43.47342412807261" lon="10.717204579803894"><ele>140.0</ele><time>2026-04-19T10:00:33Z</time></trkpt><trkpt lat="43.47336026856504" lon="10.717295619542726"><ele>140.0</ele><time>2026-04-19T10:00:34Z</time></trkpt><trkpt lat="43.473293141580044" lon="10.717389966745385"><ele>140.0</ele><time>2026-04-19T10:00:35Z</time></trkpt><trkpt lat="43.473226873677085" lon="10.71748154098344"><ele>140.0</ele><time>2026-04-19T10:00:36Z</time></trkpt><trkpt lat="43.473160601701096" lon="10.717571935580954"><ele>140.0</ele><time>2026-04-19T10:00:37Z</time></trkpt><trkpt lat="43.47309173895262" lon="10.717663948558519"><ele>140.0</ele><time>2026-04-19T10:00:38Z</time></trkpt><trkpt lat="43.47302506558148" lon="10.717755685264233"><ele>140.0</ele><time>2026-04-19T10:00:39Z</time></trkpt><trkpt lat="43.47295492436785" lon="10.717851588838437"><ele>140.0</ele><time>2026-04-19T10:00:40Z</time></trkpt><trkpt lat="43.47288415853196" lon="10.71793930747161"><ele>140.0</ele><time>2026-04-19T10:00:41Z</time></trkpt><trkpt lat="43.47281430510746" lon="10.718030564021145"><ele>140.4</ele><time>2026-04-19T10:00:42Z</time></trkpt><trkpt lat="43.472742611698614" lon="10.718119407918968"><ele>140.8</ele><time>2026-04-19T10:00:43Z</time></trkpt><trkpt lat="43.472669299337674" lon="10.718218298476572"><ele>141.2</ele><time>2026-04-19T10:00:44Z</time></trkpt><trkpt lat="43.47259892824138" lon="10.718318577771525"><ele>141.6</ele><time>2026-04-19T10:00:45Z</time></trkpt><trkpt lat="43.47252551778226" lon="10.718423688143378"><ele>142.0</ele><time>2026-04-19T10:00:46Z</time></trkpt><trkpt lat="43.4724477750518" lon="10.718526077773676"><ele>141.25</ele><time>2026-04-19T10:00:47Z</time></trkpt><trkpt lat="43.47236637842367" lon="10.718633339207765"><ele>140.5</ele><time>2026-04-19T10:00:48Z</time></trkpt><trkpt lat="43.4722822978948" lon="10.718744718737984"><ele>139.75</ele><time>2026-04-19T10:00:49Z</time></trkpt><trkpt lat="43.472196882451485" lon="10.71886335750003"><ele>139.0</ele><time>2026-04-19T10:00:50Z</time></trkpt><trkpt lat="43.47211020584817" lon="10.718983019728501"><ele>140.5</ele><time>2026-04-19T10:00:51Z</time></trkpt><trkpt lat="43.47202621172856" lon="10.71909983657063"><ele>142.0</ele><time>2026-04-19T10:00:52Z</time></trkpt><trkpt lat="43.47194140648775" lon="10.719211808883129"><ele>143.5</ele><time>2026-04-19T10:00:53Z</time></trkpt><trkpt lat="43.471857819654645" lon="10.719327059640474"><ele>145.0</ele><time>2026-04-19T10:00:54Z</time></trkpt><trkpt lat="43.47177812803193" lon="10.719442020015387"><ele>145.5</ele><time>2026-04-19T10:00:55Z</time></trkpt><trkpt lat="43.47169083295643" lon="10.71956686759392"><ele>146.0</ele><time>2026-04-19T10:00:56Z</time></trkpt><trkpt lat="43.47160132839118" lon="10.71969527827765"><ele>146.5</ele><time>2026-04-19T10:00:57Z</time></trkpt><trkpt lat="43.471509390000726" lon="10.719820516631321"><ele>147.0</ele><time>2026-04-19T10:00:58Z</time></trkpt><trkpt lat="43.47140798343167" lon="10.719954371326624"><ele>147.0</ele><time>2026-04-19T10:00:59Z</time></trkpt><trkpt lat="43.47131650135528" lon="10.720083445270562"><ele>147.0</ele><time>2026-04-19T10:01:00Z</time></trkpt><trkpt lat="43.47122451173382" lon="10.720221166020623"><ele>147.0</ele><time>2026-04-19T10:01:01Z</time></trkpt><trkpt lat="43.47113167220449" lon="10.72035779860493"><ele>147.0</ele><time>2026-04-19T10:01:02Z</time></trkpt><trkpt lat="43.471037119665546" lon="10.720497933620324"><ele>147.5</ele><time>2026-04-19T10:01:03Z</time></trkpt><trkpt lat="43.47093153899786" lon="10.720617215777366"><ele>148.0</ele><time>2026-04-19T10:01:04Z</time></trkpt><trkpt lat="43.470844605507445" lon="10.720768931408637"><ele>148.5</ele><time>2026-04-19T10:01:05Z</time></trkpt><trkpt lat="43.47074018368065" lon="10.72089787406866"><ele>149.0</ele><time>2026-04-19T10:01:06Z</time></trkpt><trkpt lat="43.4706443384601" lon="10.721024207953944"><ele>149.25</ele><time>2026-04-19T10:01:07Z</time></trkpt><trkpt lat="43.47054917427991" lon="10.721149651438912"><ele>149.5</ele><time>2026-04-19T10:01:08Z</time></trkpt><trkpt lat="43.470461401011114" lon="10.721262910029873"><ele>149.75</ele><time>2026-04-19T10:01:09Z</time></trkpt><trkpt lat="43.470381991488686" lon="10.721369238579316"><ele>150.0</ele><time>2026-04-19T10:01:10Z</time></trkpt><trkpt lat="43.470307033147776" lon="10.721468648702837"><ele>151.6</ele><time>2026-04-19T10:01:11Z</time></trkpt><trkpt lat="43.47024490428024" lon="10.721564349332583"><ele>153.2</ele><time>2026-04-19T10:01:12Z</time></trkpt><trkpt lat="43.47020178426075" lon="10.721672107372129"><ele>154.8</ele><time>2026-04-19T10:01:13Z</time></trkpt><trkpt lat="43.47018429670994" lon="10.721793941972233"><ele>156.4</ele><time>2026-04-19T10:01:14Z</time></trkpt><trkpt lat="43.470213946508004" lon="10.721935304656197"><ele>158.0</ele><time>2026-04-19T10:01:15Z</time></trkpt><trkpt lat="43.47023341100846" lon="10.722039911295305"><ele>159.33333333333331</ele><time>2026-04-19T10:01:16Z</time></trkpt><trkpt lat="43.47029181050214" lon="10.722158100031582"><ele>160.66666666666666</ele><time>2026-04-19T10:01:17Z</time></trkpt><trkpt lat="43.4703431449673" lon="10.722264262206057"><ele>162.0</ele><time>2026-04-19T10:01:18.001Z</time></trkpt><trkpt lat="43.4703918387637" lon="10.722355766912841"><ele>163.33333333333334</ele><time>2026-04-19T10:01:19.001Z</time></trkpt><trkpt lat="43.470419109597074" lon="10.722454768412376"><ele>164.66666666666669</ele><time>2026-04-19T10:01:20.001Z</time></trkpt><trkpt lat="43.470427224188036" lon="10.722561710469332"><ele>166.0</ele><time>2026-04-19T10:01:21.001Z</time></trkpt><trkpt lat="43.47040921590025" lon="10.722673462535"><ele>167.20000000000002</ele><time>2026-04-19T10:01:22.001Z</time></trkpt><trkpt lat="43.47037796359779" lon="10.722795452595562"><ele>168.4</ele><time>2026-04-19T10:01:23.001Z</time></trkpt><trkpt lat="43.470337328177116" lon="10.722925598540709"><ele>169.6</ele><time>2026-04-19T10:01:24.001Z</time></trkpt><trkpt lat="43.470290043531165" lon="10.723040512023639"><ele>170.8</ele><time>2026-04-19T10:01:25.001Z</time></trkpt><trkpt lat="43.47023118881868" lon="10.723156216733543"><ele>172.0</ele><time>2026-04-19T10:01:26.001Z</time></trkpt><trkpt lat="43.470176204319465" lon="10.723274515419671"><ele>172.0</ele><time>2026-04-19T10:01:27.001Z</time></trkpt><trkpt lat="43.47012833312606" lon="10.723397208913127"><ele>172.0</ele><time>2026-04-19T10:01:28.001Z</time></trkpt><trkpt lat="43.47007665219978" lon="10.723510722694822"><ele>172.0</ele><time>2026-04-19T10:01:29.001Z</time></trkpt><trkpt lat="43.47002862723437" lon="10.723624908932635"><ele>172.0</ele><time>2026-04-19T10:01:30.001Z</time></trkpt><trkpt lat="43.469981286534484" lon="10.723740093605846"><ele>172.0</ele><time>2026-04-19T10:01:31.001Z</time></trkpt><trkpt lat="43.46993738757668" lon="10.72383991201017"><ele>171.6</ele><time>2026-04-19T10:01:32.001Z</time></trkpt><trkpt lat="43.46989296698506" lon="10.723930733871226"><ele>171.2</ele><time>2026-04-19T10:01:33.001Z</time></trkpt><trkpt lat="43.469860641520555" lon="10.72401222973866"><ele>170.8</ele><time>2026-04-19T10:01:34.001Z</time></trkpt><trkpt lat="43.469802581721716" lon="10.724134996844832"><ele>170.4</ele><time>2026-04-19T10:01:36.001Z</time></trkpt><trkpt lat="43.46983111620687" lon="10.724017483424895"><ele>170.0</ele><time>2026-04-19T10:01:46.001Z</time></trkpt><trkpt lat="43.469724716164286" lon="10.7238344215672"><ele>170.0</ele><time>2026-04-19T10:01:48.001Z</time></trkpt><trkpt lat="43.46972263713679" lon="10.723732652288732"><ele>170.0</ele><time>2026-04-19T10:01:50.001Z</time></trkpt><trkpt lat="43.46971949268984" lon="10.723624125121848"><ele>170.0</ele><time>2026-04-19T10:01:52.001Z</time></trkpt><trkpt lat="43.469721097535704" lon="10.723522730650641"><ele>170.0</ele><time>2026-04-19T10:01:54.001Z</time></trkpt><trkpt lat="43.469719992816955" lon="10.72343447430644"><ele>170.0</ele><time>2026-04-19T10:01:56.001Z</time></trkpt><trkpt lat="43.469715662513806" lon="10.723342993705865"><ele>170.0</ele><time>2026-04-19T10:02:06.001Z</time></trkpt><trkpt lat="43.469713458830554" lon="10.723254673978582"><ele>170.0</ele><time>2026-04-19T10:02:09Z</time></trkpt><trkpt lat="43.46971667927195" lon="10.72311812750356"><ele>170.33333333333331</ele><time>2026-04-19T10:02:11Z</time></trkpt><trkpt lat="43.46972028949553" lon="10.722940761857679"><ele>170.66666666666666</ele><time>2026-04-19T10:02:13Z</time></trkpt><trkpt lat="43.46971545170348" lon="10.722841637968292"><ele>171.0</ele><time>2026-04-19T10:02:14Z</time></trkpt><trkpt lat="43.46971063977083" lon="10.722738488597198"><ele>171.33333333333334</ele><time>2026-04-19T10:02:15Z</time></trkpt><trkpt lat="43.46968674944319" lon="10.72263254825743"><ele>171.66666666666669</ele><time>2026-04-19T10:02:16Z</time></trkpt><trkpt lat="43.46964537574083" lon="10.722533409869923"><ele>172.0</ele><time>2026-04-19T10:02:17Z</time></trkpt><trkpt lat="43.46958725798238" lon="10.72244161096421"><ele>172.33333333333334</ele><time>2026-04-19T10:02:18Z</time></trkpt><trkpt lat="43.4695229960162" lon="10.722355476426543"><ele>172.66666666666669</ele><time>2026-04-19T10:02:19Z</time></trkpt><trkpt lat="43.46945101100188" lon="10.722285822261306"><ele>173.0</ele><time>2026-04-19T10:02:20Z</time></trkpt><trkpt lat="43.469371396310386" lon="10.722234898465357"><ele>173.33333333333334</ele><time>2026-04-19T10:02:21Z</time></trkpt><trkpt lat="43.469287643648805" lon="10.722209582983254"><ele>173.66666666666666</ele><time>2026-04-19T10:02:22Z</time></trkpt><trkpt lat="43.469193850732275" lon="10.722197413754401"><ele>174.0</ele><time>2026-04-19T10:02:23Z</time></trkpt><trkpt lat="43.46909203429084" lon="10.72219816303033"><ele>174.0</ele><time>2026-04-19T10:02:24Z</time></trkpt><trkpt lat="43.468982103106974" lon="10.722196835191385"><ele>174.0</ele><time>2026-04-19T10:02:25Z</time></trkpt><trkpt lat="43.4688650282197" lon="10.722179186375717"><ele>174.0</ele><time>2026-04-19T10:02:26Z</time></trkpt><trkpt lat="43.4687413085396" lon="10.722144856365704"><ele>174.0</ele><time>2026-04-19T10:02:27Z</time></trkpt><trkpt lat="43.468615848093094" lon="10.722087745196134"><ele>172.0</ele><time>2026-04-19T10:02:28Z</time></trkpt><trkpt lat="43.468478684225445" lon="10.722014313492874"><ele>170.0</ele><time>2026-04-19T10:02:29Z</time></trkpt><trkpt lat="43.46835476700773" lon="10.721931849567776"><ele>168.0</ele><time>2026-04-19T10:02:30Z</time></trkpt><trkpt lat="43.46822656635814" lon="10.721845666007745"><ele>166.0</ele><time>2026-04-19T10:02:31Z</time></trkpt><trkpt lat="43.468100935619916" lon="10.721760515163503"><ele>166.0</ele><time>2026-04-19T10:02:32Z</time></trkpt><trkpt lat="43.467980453842436" lon="10.72167475259231"><ele>166.0</ele><time>2026-04-19T10:02:33Z</time></trkpt><trkpt lat="43.46787642495502" lon="10.721604451178885"><ele>166.0</ele><time>2026-04-19T10:02:34Z</time></trkpt><trkpt lat="43.46778246557544" lon="10.721537088169232"><ele>166.0</ele><time>2026-04-19T10:02:35Z</time></trkpt><trkpt lat="43.46770054294422" lon="10.72148266862125"><ele>166.0</ele><time>2026-04-19T10:02:36Z</time></trkpt><trkpt lat="43.467614287170925" lon="10.721417928510581"><ele>166.0</ele><time>2026-04-19T10:02:37Z</time></trkpt><trkpt lat="43.46753359453212" lon="10.721355860111657"><ele>166.0</ele><time>2026-04-19T10:02:38Z</time></trkpt><trkpt lat="43.46744290355706" lon="10.721330373440072"><ele>166.0</ele><time>2026-04-19T10:02:39Z</time></trkpt><trkpt lat="43.467358808186" lon="10.721236201986867"><ele>166.0</ele><time>2026-04-19T10:02:40Z</time></trkpt><trkpt lat="43.467278263567344" lon="10.721166596586423"><ele>166.0</ele><time>2026-04-19T10:02:41Z</time></trkpt><trkpt lat="43.467203596338074" lon="10.721099104324232"><ele>165.8</ele><time>2026-04-19T10:02:42Z</time></trkpt><trkpt lat="43.46712972090863" lon="10.721021819884013"><ele>165.60000000000002</ele><time>2026-04-19T10:02:43Z</time></trkpt><trkpt lat="43.46707509712072" lon="10.7209126968859"><ele>165.4</ele><time>2026-04-19T10:02:44Z</time></trkpt><trkpt lat="43.467023490730206" lon="10.720802766663688"><ele>165.2</ele><time>2026-04-19T10:02:45Z</time></trkpt><trkpt lat="43.466999979502134" lon="10.72067326387206"><ele>165.0</ele><time>2026-04-19T10:02:46Z</time></trkpt><trkpt lat="43.466979684044254" lon="10.720545957252591"><ele>167.0</ele><time>2026-04-19T10:02:47Z</time></trkpt><trkpt lat="43.466957219908686" lon="10.720405611101983"><ele>169.0</ele><time>2026-04-19T10:02:48Z</time></trkpt><trkpt lat="43.46689626811919" lon="10.720301024685805"><ele>171.0</ele><time>2026-04-19T10:02:49Z</time></trkpt><trkpt lat="43.46684545312701" lon="10.720186406771909"><ele>173.0</ele><time>2026-04-19T10:02:50Z</time></trkpt><trkpt lat="43.466790188595915" lon="10.72007464037656"><ele>175.0</ele><time>2026-04-19T10:02:51Z</time></trkpt><trkpt lat="43.466735672190374" lon="10.719962957920067"><ele>175.2</ele><time>2026-04-19T10:02:52Z</time></trkpt><trkpt lat="43.46668420973274" lon="10.719855129859141"><ele>175.4</ele><time>2026-04-19T10:02:53Z</time></trkpt><trkpt lat="43.46663242530342" lon="10.719748369417255"><ele>175.60000000000002</ele><time>2026-04-19T10:02:54Z</time></trkpt><trkpt lat="43.46658545853468" lon="10.71963670740719"><ele>175.8</ele><time>2026-04-19T10:02:55Z</time></trkpt><trkpt lat="43.4665463093973" lon="10.719514903885761"><ele>176.0</ele><time>2026-04-19T10:02:56Z</time></trkpt><trkpt lat="43.46651518509698" lon="10.719380925574363"><ele>175.5</ele><time>2026-04-19T10:02:57Z</time></trkpt><trkpt lat="43.4665015101157" lon="10.719230031749145"><ele>175.0</ele><time>2026-04-19T10:02:58Z</time></trkpt><trkpt lat="43.466471630687074" lon="10.719077945933146"><ele>174.5</ele><time>2026-04-19T10:02:59Z</time></trkpt><trkpt lat="43.466429999461276" lon="10.71893122303412"><ele>174.0</ele><time>2026-04-19T10:03:00Z</time></trkpt><trkpt lat="43.46640158342551" lon="10.71877949826594"><ele>174.0</ele><time>2026-04-19T10:03:01Z</time></trkpt><trkpt lat="43.46635971166917" lon="10.718644168491625"><ele>174.0</ele><time>2026-04-19T10:03:02Z</time></trkpt><trkpt lat="43.46632326168036" lon="10.718501058839527"><ele>174.0</ele><time>2026-04-19T10:03:03Z</time></trkpt><trkpt lat="43.46625480312974" lon="10.718384696132928"><ele>174.0</ele><time>2026-04-19T10:03:04Z</time></trkpt><trkpt lat="43.46616610425379" lon="10.718281131898792"><ele>174.0</ele><time>2026-04-19T10:03:05Z</time></trkpt><trkpt lat="43.46608443348639" lon="10.718195582697236"><ele>173.75</ele><time>2026-04-19T10:03:06Z</time></trkpt><trkpt lat="43.46599502371156" lon="10.71810192697624"><ele>173.5</ele><time>2026-04-19T10:03:07Z</time></trkpt><trkpt lat="43.465901099597595" lon="10.718007535708427"><ele>173.25</ele><time>2026-04-19T10:03:08Z</time></trkpt><trkpt lat="43.46580652346186" lon="10.717905920778438"><ele>173.0</ele><time>2026-04-19T10:03:09Z</time></trkpt><trkpt lat="43.46571905527012" lon="10.717787782300325"><ele>172.5</ele><time>2026-04-19T10:03:10Z</time></trkpt><trkpt lat="43.465626651840935" lon="10.71767958004323"><ele>172.0</ele><time>2026-04-19T10:03:11Z</time></trkpt><trkpt lat="43.46555024231029" lon="10.717553886505575"><ele>171.5</ele><time>2026-04-19T10:03:12Z</time></trkpt><trkpt lat="43.46547834571774" lon="10.717437259231074"><ele>171.0</ele><time>2026-04-19T10:03:13Z</time></trkpt><trkpt lat="43.46541051760615" lon="10.717329418330902"><ele>171.0</ele><time>2026-04-19T10:03:14Z</time></trkpt><trkpt lat="43.46535776660845" lon="10.71720328298054"><ele>171.0</ele><time>2026-04-19T10:03:15Z</time></trkpt><trkpt lat="43.46532800641508" lon="10.717064761348952"><ele>171.0</ele><time>2026-04-19T10:03:16Z</time></trkpt><trkpt lat="43.465305207148596" lon="10.716905389731576"><ele>171.0</ele><time>2026-04-19T10:03:17Z</time></trkpt><trkpt lat="43.46527974755951" lon="10.716734899450858"><ele>169.75</ele><time>2026-04-19T10:03:18Z</time></trkpt><trkpt lat="43.46525338471317" lon="10.716561178349995"><ele>168.5</ele><time>2026-04-19T10:03:19Z</time></trkpt><trkpt lat="43.465222297624315" lon="10.716390212691774"><ele>167.25</ele><time>2026-04-19T10:03:20Z</time></trkpt><trkpt lat="43.4651823081765" lon="10.71621656995693"><ele>166.0</ele><time>2026-04-19T10:03:21Z</time></trkpt><trkpt lat="43.465133366269264" lon="10.716052895665936"><ele>164.75</ele><time>2026-04-19T10:03:22Z</time></trkpt><trkpt lat="43.46507391175415" lon="10.715896909508889"><ele>163.5</ele><time>2026-04-19T10:03:23Z</time></trkpt><trkpt lat="43.465010296777905" lon="10.715743292568474"><ele>162.25</ele><time>2026-04-19T10:03:24Z</time></trkpt><trkpt lat="43.46494738681437" lon="10.715585569160998"><ele>161.0</ele><time>2026-04-19T10:03:25Z</time></trkpt><trkpt lat="43.464886872029346" lon="10.71542617336694"><ele>161.0</ele><time>2026-04-19T10:03:26Z</time></trkpt><trkpt lat="43.46482537386766" lon="10.715268112234439"><ele>161.0</ele><time>2026-04-19T10:03:27Z</time></trkpt><trkpt lat="43.464757178873924" lon="10.715111174933309"><ele>161.0</ele><time>2026-04-19T10:03:28Z</time></trkpt><trkpt lat="43.46467536031779" lon="10.714959895113493"><ele>161.0</ele><time>2026-04-19T10:03:29Z</time></trkpt><trkpt lat="43.46458543708211" lon="10.71481884740396"><ele>159.75</ele><time>2026-04-19T10:03:30Z</time></trkpt><trkpt lat="43.46448794902213" lon="10.714684219246557"><ele>158.5</ele><time>2026-04-19T10:03:31Z</time></trkpt><trkpt lat="43.464390774591685" lon="10.714546065814691"><ele>157.25</ele><time>2026-04-19T10:03:32Z</time></trkpt><trkpt lat="43.46429228964507" lon="10.714412546061528"><ele>156.0</ele><time>2026-04-19T10:03:33Z</time></trkpt><trkpt lat="43.4641953402803" lon="10.714278255520895"><ele>155.75</ele><time>2026-04-19T10:03:34Z</time></trkpt><trkpt lat="43.46411194422108" lon="10.714129831045806"><ele>155.5</ele><time>2026-04-19T10:03:35Z</time></trkpt><trkpt lat="43.464041218592556" lon="10.71397346580157"><ele>155.25</ele><time>2026-04-19T10:03:36Z</time></trkpt><trkpt lat="43.4639770067662" lon="10.713810809676025"><ele>155.0</ele><time>2026-04-19T10:03:37Z</time></trkpt><trkpt lat="43.46390738803777" lon="10.713649504999031"><ele>154.75</ele><time>2026-04-19T10:03:38Z</time></trkpt><trkpt lat="43.46384272572379" lon="10.713494790099748"><ele>154.5</ele><time>2026-04-19T10:03:39Z</time></trkpt><trkpt lat="43.46377977821699" lon="10.713348717928751"><ele>154.25</ele><time>2026-04-19T10:03:40Z</time></trkpt><trkpt lat="43.46371739302911" lon="10.713207081617819"><ele>154.0</ele><time>2026-04-19T10:03:41Z</time></trkpt><trkpt lat="43.46365728898786" lon="10.713083841353273"><ele>154.0</ele><time>2026-04-19T10:03:42Z</time></trkpt><trkpt lat="43.46360214656752" lon="10.712976277304621"><ele>154.0</ele><time>2026-04-19T10:03:43Z</time></trkpt><trkpt lat="43.463550384757006" lon="10.712878149569661"><ele>154.0</ele><time>2026-04-19T10:03:44Z</time></trkpt><trkpt lat="43.46348557811794" lon="10.712798998908772"><ele>154.0</ele><time>2026-04-19T10:03:45Z</time></trkpt><trkpt lat="43.463452745705595" lon="10.712700820759483"><ele>154.0</ele><time>2026-04-19T10:03:46Z</time></trkpt><trkpt lat="43.463296373840116" lon="10.712725825198465"><ele>154.6</ele><time>2026-04-19T10:03:47Z</time></trkpt><trkpt lat="43.46319252415027" lon="10.712713360708127"><ele>155.2</ele><time>2026-04-19T10:03:48.001Z</time></trkpt><trkpt lat="43.46309024702922" lon="10.712696149196473"><ele>155.79999999999998</ele><time>2026-04-19T10:03:49.001Z</time></trkpt><trkpt lat="43.46298963259953" lon="10.712661240512565"><ele>156.4</ele><time>2026-04-19T10:03:50.001Z</time></trkpt><trkpt lat="43.46289019137435" lon="10.71260997807476"><ele>157.0</ele><time>2026-04-19T10:03:51.001Z</time></trkpt><trkpt lat="43.46278784291107" lon="10.712544749319036"><ele>157.5</ele><time>2026-04-19T10:03:52.001Z</time></trkpt><trkpt lat="43.46268934282063" lon="10.712449162340281"><ele>158.0</ele><time>2026-04-19T10:03:53.001Z</time></trkpt><trkpt lat="43.462587821767386" lon="10.712350323479633"><ele>158.5</ele><time>2026-04-19T10:03:54.001Z</time></trkpt><trkpt lat="43.46249032713269" lon="10.712243207844889"><ele>159.0</ele><time>2026-04-19T10:03:55.001Z</time></trkpt><trkpt lat="43.46240056342695" lon="10.712123048240734"><ele>159.0</ele><time>2026-04-19T10:03:56.001Z</time></trkpt><trkpt lat="43.462321132927265" lon="10.71198765599693"><ele>159.0</ele><time>2026-04-19T10:03:57.001Z</time></trkpt><trkpt lat="43.46225545166087" lon="10.71184881958708"><ele>159.0</ele><time>2026-04-19T10:03:58.001Z</time></trkpt><trkpt lat="43.46219370847742" lon="10.711715358913029"><ele>159.0</ele><time>2026-04-19T10:03:59.001Z</time></trkpt><trkpt lat="43.462108223665616" lon="10.711614494343564"><ele>160.6</ele><time>2026-04-19T10:04:00.001Z</time></trkpt><trkpt lat="43.46199946928333" lon="10.71155935428466"><ele>162.2</ele><time>2026-04-19T10:04:01.001Z</time></trkpt><trkpt lat="43.46189021220924" lon="10.711550541802833"><ele>163.79999999999998</ele><time>2026-04-19T10:04:02.001Z</time></trkpt><trkpt lat="43.461801928696346" lon="10.711557588451114"><ele>165.4</ele><time>2026-04-19T10:04:03.001Z</time></trkpt><trkpt lat="43.46171834814027" lon="10.711557486556622"><ele>167.0</ele><time>2026-04-19T10:04:04.001Z</time></trkpt><trkpt lat="43.461644369675035" lon="10.711560592387245"><ele>167.0</ele><time>2026-04-19T10:04:05.001Z</time></trkpt><trkpt lat="43.46157601661249" lon="10.711535261620918"><ele>167.0</ele><time>2026-04-19T10:04:06.001Z</time></trkpt><trkpt lat="43.461503467123514" lon="10.711530581010361"><ele>167.0</ele><time>2026-04-19T10:04:07.001Z</time></trkpt><trkpt lat="43.46142802519529" lon="10.711524640795819"><ele>167.0</ele><time>2026-04-19T10:04:08.001Z</time></trkpt><trkpt lat="43.46135251701439" lon="10.711517110213332"><ele>167.0</ele><time>2026-04-19T10:04:09.001Z</time></trkpt><trkpt lat="43.46127035400525" lon="10.711531478741144"><ele>167.0</ele><time>2026-04-19T10:04:10.001Z</time></trkpt><trkpt lat="43.46118801490254" lon="10.711515868552643"><ele>168.0</ele><time>2026-04-19T10:04:11.001Z</time></trkpt><trkpt lat="43.46110283562366" lon="10.711496523234592"><ele>169.0</ele><time>2026-04-19T10:04:12.001Z</time></trkpt><trkpt lat="43.46100776217214" lon="10.711484822388883"><ele>170.0</ele><time>2026-04-19T10:04:13.001Z</time></trkpt><trkpt lat="43.460908139257505" lon="10.711468255307839"><ele>171.0</ele><time>2026-04-19T10:04:13.999Z</time></trkpt><trkpt lat="43.46080478773083" lon="10.71145324057739"><ele>172.0</ele><time>2026-04-19T10:04:14.999Z</time></trkpt><trkpt lat="43.46069853791607" lon="10.711433229352798"><ele>172.0</ele><time>2026-04-19T10:04:15.999Z</time></trkpt><trkpt lat="43.460594833225436" lon="10.711403035426654"><ele>172.0</ele><time>2026-04-19T10:04:16.999Z</time></trkpt><trkpt lat="43.46048889723237" lon="10.711359506163115"><ele>172.0</ele><time>2026-04-19T10:04:17.999Z</time></trkpt><trkpt lat="43.46038337422109" lon="10.711306089136425"><ele>172.0</ele><time>2026-04-19T10:04:18.999Z</time></trkpt><trkpt lat="43.46028034578679" lon="10.711242890489785"><ele>172.0</ele><time>2026-04-19T10:04:19.999Z</time></trkpt><trkpt lat="43.46018167006285" lon="10.711181616486387"><ele>172.6</ele><time>2026-04-19T10:04:20.999Z</time></trkpt><trkpt lat="43.460085996738016" lon="10.711118850616748"><ele>173.2</ele><time>2026-04-19T10:04:21.999Z</time></trkpt><trkpt lat="43.460001677810105" lon="10.711045802311693"><ele>173.8</ele><time>2026-04-19T10:04:22.999Z</time></trkpt><trkpt lat="43.4599288674657" lon="10.710959300630314"><ele>174.4</ele><time>2026-04-19T10:04:23.999Z</time></trkpt><trkpt lat="43.459886791543816" lon="10.710844759421771"><ele>175.0</ele><time>2026-04-19T10:04:25Z</time></trkpt><trkpt lat="43.45983889467944" lon="10.710741947154087"><ele>176.33333333333334</ele><time>2026-04-19T10:04:26Z</time></trkpt><trkpt lat="43.45983421362222" lon="10.710626063773654"><ele>177.66666666666669</ele><time>2026-04-19T10:04:27Z</time></trkpt><trkpt lat="43.45984749997221" lon="10.710518662261574"><ele>179.0</ele><time>2026-04-19T10:04:28Z</time></trkpt><trkpt lat="43.459874505826946" lon="10.710422735246638"><ele>180.33333333333334</ele><time>2026-04-19T10:04:29Z</time></trkpt><trkpt lat="43.459907132759184" lon="10.710341696752959"><ele>181.66666666666666</ele><time>2026-04-19T10:04:30Z</time></trkpt><trkpt lat="43.45994143237232" lon="10.710192900880738"><ele>183.0</ele><time>2026-04-19T10:04:32Z</time></trkpt><trkpt lat="43.45994181030714" lon="10.71004149100847"><ele>183.0</ele><time>2026-04-19T10:04:34Z</time></trkpt><trkpt lat="43.459909835095324" lon="10.709904988581153"><ele>183.0</ele><time>2026-04-19T10:04:36Z</time></trkpt><trkpt lat="43.459807004458256" lon="10.709792362344318"><ele>183.0</ele><time>2026-04-19T10:04:38Z</time></trkpt><trkpt lat="43.459739782880646" lon="10.709749032352319"><ele>183.0</ele><time>2026-04-19T10:04:39Z</time></trkpt><trkpt lat="43.45966255283588" lon="10.709714863006822"><ele>183.0</ele><time>2026-04-19T10:04:40Z</time></trkpt><trkpt lat="43.45958454532243" lon="10.709706433960141"><ele>183.2</ele><time>2026-04-19T10:04:41Z</time></trkpt><trkpt lat="43.459500229308354" lon="10.709689412602446"><ele>183.4</ele><time>2026-04-19T10:04:42Z</time></trkpt><trkpt lat="43.459411354034245" lon="10.70966594865948"><ele>183.6</ele><time>2026-04-19T10:04:43Z</time></trkpt><trkpt lat="43.45931568613319" lon="10.709655197724944"><ele>183.79999999999998</ele><time>2026-04-19T10:04:44Z</time></trkpt><trkpt lat="43.45922089927646" lon="10.70964506559642"><ele>184.0</ele><time>2026-04-19T10:04:45Z</time></trkpt><trkpt lat="43.459124548735886" lon="10.709633314596974"><ele>184.0</ele><time>2026-04-19T10:04:46Z</time></trkpt><trkpt lat="43.45903397724878" lon="10.709620570904606"><ele>184.0</ele><time>2026-04-19T10:04:47Z</time></trkpt><trkpt lat="43.458952039277705" lon="10.709608757808377"><ele>184.0</ele><time>2026-04-19T10:04:48Z</time></trkpt><trkpt lat="43.45886954427897" lon="10.709593477150323"><ele>184.0</ele><time>2026-04-19T10:04:49Z</time></trkpt><trkpt lat="43.45878808697169" lon="10.709580485021224"><ele>184.0</ele><time>2026-04-19T10:04:50Z</time></trkpt><trkpt lat="43.45869758913771" lon="10.709565882874386"><ele>184.0</ele><time>2026-04-19T10:04:51Z</time></trkpt><trkpt lat="43.458605752318356" lon="10.709545941612829"><ele>183.6</ele><time>2026-04-19T10:04:52Z</time></trkpt><trkpt lat="43.45851460365696" lon="10.709525652146452"><ele>183.2</ele><time>2026-04-19T10:04:53Z</time></trkpt><trkpt lat="43.45842527109006" lon="10.70950315496531"><ele>182.79999999999998</ele><time>2026-04-19T10:04:54Z</time></trkpt><trkpt lat="43.45833800320934" lon="10.7094825814909"><ele>182.39999999999998</ele><time>2026-04-19T10:04:55Z</time></trkpt><trkpt lat="43.45824754053358" lon="10.709466725129174"><ele>182.0</ele><time>2026-04-19T10:04:56Z</time></trkpt><trkpt lat="43.458161859066855" lon="10.709448158491947"><ele>182.0</ele><time>2026-04-19T10:04:57Z</time></trkpt><trkpt lat="43.45808297935562" lon="10.709430148061138"><ele>182.0</ele><time>2026-04-19T10:04:58Z</time></trkpt><trkpt lat="43.458020791861145" lon="10.709411496212917"><ele>182.0</ele><time>2026-04-19T10:04:59Z</time></trkpt><trkpt lat="43.457921555134206" lon="10.709390055749527"><ele>182.0</ele><time>2026-04-19T10:05:01Z</time></trkpt><trkpt lat="43.45784268637629" lon="10.709369964556108"><ele>182.0</ele><time>2026-04-19T10:05:03Z</time></trkpt><trkpt lat="43.45776673841489" lon="10.709351806282319"><ele>182.0</ele><time>2026-04-19T10:05:05Z</time></trkpt><trkpt lat="43.45768772816736" lon="10.709334728065931"><ele>181.71428571428572</ele><time>2026-04-19T10:05:07Z</time></trkpt><trkpt lat="43.457614862498154" lon="10.709321658273275"><ele>181.42857142857144</ele><time>2026-04-19T10:05:09Z</time></trkpt><trkpt lat="43.45754785588535" lon="10.709315361003782"><ele>181.14285714285714</ele><time>2026-04-19T10:05:11Z</time></trkpt><trkpt lat="43.45748262204862" lon="10.70930550946926"><ele>180.85714285714286</ele><time>2026-04-19T10:05:13Z</time></trkpt><trkpt lat="43.45741241211388" lon="10.70929876447293"><ele>180.57142857142858</ele><time>2026-04-19T10:05:15Z</time></trkpt><trkpt lat="43.457338875522915" lon="10.709290255508312"><ele>180.28571428571428</ele><time>2026-04-19T10:05:17Z</time></trkpt><trkpt lat="43.4572682120392" lon="10.709268343127219"><ele>180.0</ele><time>2026-04-19T10:05:19Z</time></trkpt><trkpt lat="43.45720123099509" lon="10.70924354760676"><ele>180.0</ele><time>2026-04-19T10:05:21Z</time></trkpt><trkpt lat="43.457136697136235" lon="10.709187783326655"><ele>180.0</ele><time>2026-04-19T10:05:23Z</time></trkpt><trkpt lat="43.457098556685054" lon="10.709070661776627"><ele>180.0</ele><time>2026-04-19T10:05:25Z</time></trkpt><trkpt lat="43.45705056994192" lon="10.708942875182476"><ele>180.0</ele><time>2026-04-19T10:05:27Z</time></trkpt><trkpt lat="43.457007083263136" lon="10.708811515144486"><ele>180.0</ele><time>2026-04-19T10:05:29Z</time></trkpt><trkpt lat="43.45697157952406" lon="10.708692683180798"><ele>180.2</ele><time>2026-04-19T10:05:31Z</time></trkpt><trkpt lat="43.456930281419005" lon="10.708594824765852"><ele>180.4</ele><time>2026-04-19T10:05:33Z</time></trkpt><trkpt lat="43.45689500869192" lon="10.708487801106363"><ele>180.60000000000002</ele><time>2026-04-19T10:05:35Z</time></trkpt><trkpt lat="43.45685967880545" lon="10.708374090109894"><ele>180.8</ele><time>2026-04-19T10:05:37Z</time></trkpt><trkpt lat="43.45681241986644" lon="10.708258927841598"><ele>181.0</ele><time>2026-04-19T10:05:39Z</time></trkpt><trkpt lat="43.45675914471138" lon="10.708144233245784"><ele>181.0</ele><time>2026-04-19T10:05:41Z</time></trkpt><trkpt lat="43.45670196754831" lon="10.708035850334243"><ele>181.0</ele><time>2026-04-19T10:05:43Z</time></trkpt><trkpt lat="43.456631336258496" lon="10.707919371180203"><ele>181.0</ele><time>2026-04-19T10:05:45Z</time></trkpt><trkpt lat="43.45655676457834" lon="10.707802242826094"><ele>181.0</ele><time>2026-04-19T10:05:47.001Z</time></trkpt><trkpt lat="43.45647677583264" lon="10.707693687168998"><ele>181.0</ele><time>2026-04-19T10:05:49.001Z</time></trkpt><trkpt lat="43.45639567854014" lon="10.707598898173345"><ele>181.60000000000002</ele><time>2026-04-19T10:05:51.001Z</time></trkpt><trkpt lat="43.45631742373047" lon="10.707515030087487"><ele>182.2</ele><time>2026-04-19T10:05:53.001Z</time></trkpt><trkpt lat="43.456238635421386" lon="10.707431013642704"><ele>182.8</ele><time>2026-04-19T10:05:55.001Z</time></trkpt><trkpt lat="43.456154243267704" lon="10.70734277205134"><ele>183.39999999999998</ele><time>2026-04-19T10:05:57.001Z</time></trkpt><trkpt lat="43.45606472986027" lon="10.707255684880844"><ele>184.0</ele><time>2026-04-19T10:05:59.001Z</time></trkpt><trkpt lat="43.45597686466799" lon="10.707153005947127"><ele>184.6</ele><time>2026-04-19T10:06:01.001Z</time></trkpt><trkpt lat="43.455928702474395" lon="10.707092799011534"><ele>185.2</ele><time>2026-04-19T10:06:02.001Z</time></trkpt><trkpt lat="43.45584117257237" lon="10.706982365659057"><ele>185.79999999999998</ele><time>2026-04-19T10:06:04.001Z</time></trkpt><trkpt lat="43.45575861430983" lon="10.706864447729334"><ele>186.39999999999998</ele><time>2026-04-19T10:06:06.001Z</time></trkpt><trkpt lat="43.45569100747401" lon="10.706730305063045"><ele>187.0</ele><time>2026-04-19T10:06:08.001Z</time></trkpt><trkpt lat="43.4556336572326" lon="10.70659664471986"><ele>188.25</ele><time>2026-04-19T10:06:10.001Z</time></trkpt><trkpt lat="43.45558809217003" lon="10.706461923911865"><ele>189.5</ele><time>2026-04-19T10:06:12.001Z</time></trkpt><trkpt lat="43.45553147190244" lon="10.706318418278363"><ele>190.75</ele><time>2026-04-19T10:06:14.001Z</time></trkpt><trkpt lat="43.45547032683823" lon="10.706172204455127"><ele>192.0</ele><time>2026-04-19T10:06:16.001Z</time></trkpt><trkpt lat="43.45540145722611" lon="10.706037769503517"><ele>194.25</ele><time>2026-04-19T10:06:18.001Z</time></trkpt><trkpt lat="43.45532093041519" lon="10.705928192561315"><ele>196.5</ele><time>2026-04-19T10:06:20Z</time></trkpt><trkpt lat="43.45522198937284" lon="10.705844280850629"><ele>198.75</ele><time>2026-04-19T10:06:22Z</time></trkpt><trkpt lat="43.45511874972293" lon="10.705762654400658"><ele>201.0</ele><time>2026-04-19T10:06:24Z</time></trkpt><trkpt lat="43.45502536682409" lon="10.705675656361796"><ele>201.0</ele><time>2026-04-19T10:06:26Z</time></trkpt><trkpt lat="43.45494548048204" lon="10.705575338383516"><ele>201.0</ele><time>2026-04-19T10:06:28Z</time></trkpt><trkpt lat="43.45487781359137" lon="10.705459641652956"><ele>201.0</ele><time>2026-04-19T10:06:30Z</time></trkpt><trkpt lat="43.4548148035031" lon="10.705340998595458"><ele>201.0</ele><time>2026-04-19T10:06:32Z</time></trkpt><trkpt lat="43.45475705221829" lon="10.705214023218096"><ele>201.0</ele><time>2026-04-19T10:06:34Z</time></trkpt><trkpt lat="43.45466234704678" lon="10.70511151546842"><ele>205.0</ele><time>2026-04-19T10:06:36Z</time></trkpt><trkpt lat="43.45459444661688" lon="10.704986917111997"><ele>209.0</ele><time>2026-04-19T10:06:38Z</time></trkpt><trkpt lat="43.45451867946761" lon="10.704869933865599"><ele>213.0</ele><time>2026-04-19T10:06:40Z</time></trkpt><trkpt lat="43.45446149055461" lon="10.704738087028728"><ele>217.0</ele><time>2026-04-19T10:06:42Z</time></trkpt><trkpt lat="43.45442942477284" lon="10.704590237425435"><ele>217.0</ele><time>2026-04-19T10:06:44Z</time></trkpt><trkpt lat="43.45440505361013" lon="10.704444291691562"><ele>217.0</ele><time>2026-04-19T10:06:46Z</time></trkpt><trkpt lat="43.45436992171394" lon="10.704289758933093"><ele>217.0</ele><time>2026-04-19T10:06:48Z</time></trkpt><trkpt lat="43.454330531672596" lon="10.704151816277784"><ele>217.0</ele><time>2026-04-19T10:06:50Z</time></trkpt><trkpt lat="43.454260593574325" lon="10.704045015335838"><ele>217.0</ele><time>2026-04-19T10:06:52Z</time></trkpt><trkpt lat="43.45419562249564" lon="10.704026587248991"><ele>217.33333333333331</ele><time>2026-04-19T10:06:53Z</time></trkpt><trkpt lat="43.45406943523626" lon="10.704000319971744"><ele>217.66666666666666</ele><time>2026-04-19T10:06:55Z</time></trkpt><trkpt lat="43.45399310119027" lon="10.704001598233862"><ele>218.0</ele><time>2026-04-19T10:06:56Z</time></trkpt><trkpt lat="43.45391336391889" lon="10.704007214043088"><ele>218.33333333333331</ele><time>2026-04-19T10:06:57Z</time></trkpt><trkpt lat="43.453838724171305" lon="10.704012910007053"><ele>218.66666666666666</ele><time>2026-04-19T10:06:58Z</time></trkpt><trkpt lat="43.45376673829602" lon="10.704021145024818"><ele>219.0</ele><time>2026-04-19T10:06:59Z</time></trkpt><trkpt lat="43.45369745217031" lon="10.704025943961206"><ele>219.85714285714286</ele><time>2026-04-19T10:07:00Z</time></trkpt><trkpt lat="43.45361989870353" lon="10.704026650529741"><ele>220.71428571428572</ele><time>2026-04-19T10:07:01Z</time></trkpt><trkpt lat="43.45354614432429" lon="10.704032675583857"><ele>221.57142857142858</ele><time>2026-04-19T10:07:02Z</time></trkpt><trkpt lat="43.453473100932385" lon="10.704038997920366"><ele>222.42857142857144</ele><time>2026-04-19T10:07:03Z</time></trkpt><trkpt lat="43.45340293046736" lon="10.70405017523475"><ele>223.28571428571428</ele><time>2026-04-19T10:07:04Z</time></trkpt><trkpt lat="43.453328543187354" lon="10.704061547562201"><ele>224.14285714285717</ele><time>2026-04-19T10:07:05Z</time></trkpt><trkpt lat="43.45326031358757" lon="10.704073782026683"><ele>225.00000000000003</ele><time>2026-04-19T10:07:06Z</time></trkpt><trkpt lat="43.45318389131931" lon="10.704080347784114"><ele>225.00000000000003</ele><time>2026-04-19T10:07:07Z</time></trkpt><trkpt lat="43.45311726462512" lon="10.704095855384546"><ele>225.0</ele><time>2026-04-19T10:07:08Z</time></trkpt><trkpt lat="43.453052252142456" lon="10.704114359200288"><ele>225.00000000000003</ele><time>2026-04-19T10:07:09Z</time></trkpt><trkpt lat="43.45298822751974" lon="10.704139616478729"><ele>225.00000000000003</ele><time>2026-04-19T10:07:10Z</time></trkpt><trkpt lat="43.45292144024332" lon="10.70416834229994"><ele>225.0</ele><time>2026-04-19T10:07:11Z</time></trkpt><trkpt lat="43.45285513581049" lon="10.70419859151509"><ele>225.00000000000003</ele><time>2026-04-19T10:07:12Z</time></trkpt><trkpt lat="43.45279026134136" lon="10.704230742658465"><ele>225.00000000000003</ele><time>2026-04-19T10:07:13Z</time></trkpt><trkpt lat="43.4527278652526" lon="10.704262166076072"><ele>226.33333333333334</ele><time>2026-04-19T10:07:14Z</time></trkpt><trkpt lat="43.45266196871143" lon="10.7043084771306"><ele>227.66666666666669</ele><time>2026-04-19T10:07:15Z</time></trkpt><trkpt lat="43.45259527805642" lon="10.704355036422537"><ele>229.0</ele><time>2026-04-19T10:07:16Z</time></trkpt><trkpt lat="43.452528551922704" lon="10.704405338490064"><ele>230.33333333333334</ele><time>2026-04-19T10:07:17Z</time></trkpt><trkpt lat="43.45246253524308" lon="10.704455957236219"><ele>231.66666666666669</ele><time>2026-04-19T10:07:18Z</time></trkpt><trkpt lat="43.4523945080045" lon="10.704504911090744"><ele>233.0</ele><time>2026-04-19T10:07:19Z</time></trkpt><trkpt lat="43.45232882969234" lon="10.70455504007081"><ele>233.16666666666669</ele><time>2026-04-19T10:07:20Z</time></trkpt><trkpt lat="43.452259097004614" lon="10.704610950756296"><ele>233.33333333333334</ele><time>2026-04-19T10:07:21Z</time></trkpt><trkpt lat="43.45219419061268" lon="10.70467235323196"><ele>233.5</ele><time>2026-04-19T10:07:22Z</time></trkpt><trkpt lat="43.452133934174356" lon="10.704736760423865"><ele>233.66666666666669</ele><time>2026-04-19T10:07:23Z</time></trkpt><trkpt lat="43.45207325053402" lon="10.704808368265656"><ele>233.83333333333334</ele><time>2026-04-19T10:07:24Z</time></trkpt><trkpt lat="43.45200902375417" lon="10.704875509092957"><ele>234.0</ele><time>2026-04-19T10:07:25Z</time></trkpt><trkpt lat="43.45196838499964" lon="10.704952736255827"><ele>235.57142857142858</ele><time>2026-04-19T10:07:26Z</time></trkpt><trkpt lat="43.45193352139982" lon="10.705038185631649"><ele>237.14285714285717</ele><time>2026-04-19T10:07:27Z</time></trkpt><trkpt lat="43.45191309207578" lon="10.70514190284374"><ele>238.71428571428572</ele><time>2026-04-19T10:07:28Z</time></trkpt><trkpt lat="43.4518955898412" lon="10.705245652661334"><ele>240.28571428571428</ele><time>2026-04-19T10:07:29Z</time></trkpt><trkpt lat="43.45187187998219" lon="10.705337970072792"><ele>241.85714285714286</ele><time>2026-04-19T10:07:30Z</time></trkpt><trkpt lat="43.45184738767665" lon="10.705428788131394"><ele>243.42857142857144</ele><time>2026-04-19T10:07:31Z</time></trkpt><trkpt lat="43.45181619654587" lon="10.705505921075957"><ele>245.0</ele><time>2026-04-19T10:07:32Z</time></trkpt><trkpt lat="43.45178665054529" lon="10.705597562319564"><ele>245.00000000000003</ele><time>2026-04-19T10:07:33Z</time></trkpt><trkpt lat="43.45175556089515" lon="10.705682753748206"><ele>245.0</ele><time>2026-04-19T10:07:34Z</time></trkpt><trkpt lat="43.45171852833317" lon="10.705767734179064"><ele>245.0</ele><time>2026-04-19T10:07:35.001Z</time></trkpt><trkpt lat="43.45167533365417" lon="10.705856664289405"><ele>245.0</ele><time>2026-04-19T10:07:36.001Z</time></trkpt><trkpt lat="43.45162643472338" lon="10.705946072851464"><ele>245.00000000000003</ele><time>2026-04-19T10:07:37.001Z</time></trkpt><trkpt lat="43.45157152078171" lon="10.706039331818806"><ele>245.0</ele><time>2026-04-19T10:07:38.001Z</time></trkpt><trkpt lat="43.45151780494022" lon="10.7061204728828"><ele>244.66666666666669</ele><time>2026-04-19T10:07:39.001Z</time></trkpt><trkpt lat="43.45146466807591" lon="10.706200636720231"><ele>244.33333333333334</ele><time>2026-04-19T10:07:40.001Z</time></trkpt><trkpt lat="43.45141645211228" lon="10.706267625185399"><ele>244.0</ele><time>2026-04-19T10:07:41.001Z</time></trkpt><trkpt lat="43.45136693985313" lon="10.706332412402242"><ele>243.66666666666669</ele><time>2026-04-19T10:07:42.001Z</time></trkpt><trkpt lat="43.451278039382174" lon="10.706429548395334"><ele>243.33333333333334</ele><time>2026-04-19T10:07:44.001Z</time></trkpt><trkpt lat="43.45120714287663" lon="10.706513068314932"><ele>243.0</ele><time>2026-04-19T10:07:46.001Z</time></trkpt><trkpt lat="43.45116174919228" lon="10.706604248894317"><ele>242.8</ele><time>2026-04-19T10:07:48.001Z</time></trkpt><trkpt lat="43.451110133097956" lon="10.706662565698547"><ele>242.60000000000002</ele><time>2026-04-19T10:07:52.001Z</time></trkpt><trkpt lat="43.45116912603373" lon="10.706841741878204"><ele>242.39999999999998</ele><time>2026-04-19T10:08:01.001Z</time></trkpt><trkpt lat="43.45117957947565" lon="10.70698760129365"><ele>242.2</ele><time>2026-04-19T10:08:03.001Z</time></trkpt><trkpt lat="43.451186906823416" lon="10.707092245978272"><ele>242.0</ele><time>2026-04-19T10:08:04.001Z</time></trkpt><trkpt lat="43.451189317835826" lon="10.707200460170256"><ele>240.6</ele><time>2026-04-19T10:08:05.001Z</time></trkpt><trkpt lat="43.4511840510432" lon="10.707330783501137"><ele>239.2</ele><time>2026-04-19T10:08:06.001Z</time></trkpt><trkpt lat="43.45118650716403" lon="10.707466397236427"><ele>237.8</ele><time>2026-04-19T10:08:07.001Z</time></trkpt><trkpt lat="43.45119199762137" lon="10.707595127538688"><ele>236.4</ele><time>2026-04-19T10:08:08.001Z</time></trkpt><trkpt lat="43.45120023974161" lon="10.707692175911731"><ele>235.0</ele><time>2026-04-19T10:08:09.001Z</time></trkpt><trkpt lat="43.45123675905518" lon="10.707835710875438"><ele>235.0</ele><time>2026-04-19T10:08:11.001Z</time></trkpt><trkpt lat="43.451265619686026" lon="10.707962161649384"><ele>235.0</ele><time>2026-04-19T10:08:13.001Z</time></trkpt><trkpt lat="43.451283701397855" lon="10.708105378022042"><ele>235.0</ele><time>2026-04-19T10:08:15.001Z</time></trkpt><trkpt lat="43.45129121661598" lon="10.708228732845487"><ele>235.0</ele><time>2026-04-19T10:08:17.001Z</time></trkpt><trkpt lat="43.451289273063864" lon="10.708346086228081"><ele>235.0</ele><time>2026-04-19T10:08:20.001Z</time></trkpt><trkpt lat="43.45126509574518" lon="10.708480482958645"><ele>234.2</ele><time>2026-04-19T10:08:23.001Z</time></trkpt><trkpt lat="43.451220274714956" lon="10.708577660346183"><ele>233.4</ele><time>2026-04-19T10:08:25.001Z</time></trkpt><trkpt lat="43.4511623430536" lon="10.708707406526468"><ele>232.60000000000002</ele><time>2026-04-19T10:08:27Z</time></trkpt><trkpt lat="43.45109444848699" lon="10.708849751466936"><ele>231.8</ele><time>2026-04-19T10:08:29Z</time></trkpt><trkpt lat="43.451041464919015" lon="10.708960835812857"><ele>231.0</ele><time>2026-04-19T10:08:31Z</time></trkpt><trkpt lat="43.45097684994705" lon="10.70901766103805"><ele>231.0</ele><time>2026-04-19T10:08:34Z</time></trkpt><trkpt lat="43.45090579619591" lon="10.70897894026234"><ele>231.00000000000003</ele><time>2026-04-19T10:08:38Z</time></trkpt><trkpt lat="43.450825827376924" lon="10.709033710606858"><ele>231.00000000000003</ele><time>2026-04-19T10:08:42Z</time></trkpt><trkpt lat="43.45076391287933" lon="10.709133177451143"><ele>231.0</ele><time>2026-04-19T10:08:44Z</time></trkpt><trkpt lat="43.45070931833923" lon="10.70927233547766"><ele>231.0</ele><time>2026-04-19T10:08:46Z</time></trkpt><trkpt lat="43.45067244005056" lon="10.709389886489644"><ele>230.0</ele><time>2026-04-19T10:08:48Z</time></trkpt><trkpt lat="43.45062690774358" lon="10.70949414626873"><ele>229.00000000000003</ele><time>2026-04-19T10:08:50Z</time></trkpt><trkpt lat="43.45054475758446" lon="10.709620182040723"><ele>228.00000000000003</ele><time>2026-04-19T10:08:52Z</time></trkpt><trkpt lat="43.45045784606872" lon="10.709749952497928"><ele>227.0</ele><time>2026-04-19T10:08:54Z</time></trkpt><trkpt lat="43.45041100709684" lon="10.709819526063185"><ele>226.0</ele><time>2026-04-19T10:08:55Z</time></trkpt><trkpt lat="43.45037231120741" lon="10.709901692493725"><ele>224.33333333333331</ele><time>2026-04-19T10:08:56Z</time></trkpt><trkpt lat="43.45034515886184" lon="10.709994735219544"><ele>222.66666666666666</ele><time>2026-04-19T10:08:57Z</time></trkpt><trkpt lat="43.450322445024014" lon="10.710085001066775"><ele>221.0</ele><time>2026-04-19T10:08:58Z</time></trkpt><trkpt lat="43.45030335757661" lon="10.71018043760445"><ele>219.33333333333331</ele><time>2026-04-19T10:08:59Z</time></trkpt><trkpt lat="43.450298187179335" lon="10.710280381882503"><ele>217.66666666666666</ele><time>2026-04-19T10:09:00Z</time></trkpt><trkpt lat="43.45029282180909" lon="10.710446375119147"><ele>216.0</ele><time>2026-04-19T10:09:02Z</time></trkpt><trkpt lat="43.45028168286455" lon="10.710533172587965"><ele>215.66666666666666</ele><time>2026-04-19T10:09:03Z</time></trkpt><trkpt lat="43.45027807411034" lon="10.71062309180651"><ele>215.33333333333331</ele><time>2026-04-19T10:09:04Z</time></trkpt><trkpt lat="43.45027597288616" lon="10.71078696432268"><ele>215.0</ele><time>2026-04-19T10:09:06Z</time></trkpt><trkpt lat="43.450275625737" lon="10.71094671604771"><ele>214.66666666666666</ele><time>2026-04-19T10:09:08Z</time></trkpt><trkpt lat="43.4502678748571" lon="10.711035179866476"><ele>214.33333333333331</ele><time>2026-04-19T10:09:09Z</time></trkpt><trkpt lat="43.45025046650655" lon="10.711121587294148"><ele>214.0</ele><time>2026-04-19T10:09:10Z</time></trkpt><trkpt lat="43.450233407623095" lon="10.711209546172855"><ele>213.71428571428572</ele><time>2026-04-19T10:09:11Z</time></trkpt><trkpt lat="43.45021763647742" lon="10.7113056764052"><ele>213.42857142857144</ele><time>2026-04-19T10:09:12Z</time></trkpt><trkpt lat="43.45020215521257" lon="10.711408011558277"><ele>213.14285714285717</ele><time>2026-04-19T10:09:13Z</time></trkpt><trkpt lat="43.45018314943145" lon="10.711513415335205"><ele>212.85714285714286</ele><time>2026-04-19T10:09:14Z</time></trkpt><trkpt lat="43.45016357407043" lon="10.711611657110272"><ele>212.57142857142856</ele><time>2026-04-19T10:09:15Z</time></trkpt><trkpt lat="43.45013869994706" lon="10.711709086132743"><ele>212.2857142857143</ele><time>2026-04-19T10:09:16Z</time></trkpt><trkpt lat="43.45012146016904" lon="10.711799123502596"><ele>212.0</ele><time>2026-04-19T10:09:17Z</time></trkpt><trkpt lat="43.450100920686396" lon="10.71188801400257"><ele>212.39999999999998</ele><time>2026-04-19T10:09:18Z</time></trkpt><trkpt lat="43.450080089289294" lon="10.711973263114242"><ele>212.79999999999998</ele><time>2026-04-19T10:09:19Z</time></trkpt><trkpt lat="43.450058789702254" lon="10.712058840440097"><ele>213.2</ele><time>2026-04-19T10:09:20Z</time></trkpt><trkpt lat="43.45001860669949" lon="10.712209824583905"><ele>213.6</ele><time>2026-04-19T10:09:22Z</time></trkpt><trkpt lat="43.44998336939432" lon="10.712345496009844"><ele>214.0</ele><time>2026-04-19T10:09:24Z</time></trkpt><trkpt lat="43.44994838006379" lon="10.712484583096456"><ele>214.0</ele><time>2026-04-19T10:09:26Z</time></trkpt><trkpt lat="43.449914035905" lon="10.712633842076295"><ele>213.99999999999997</ele><time>2026-04-19T10:09:28Z</time></trkpt><trkpt lat="43.44986601113089" lon="10.712793138663635"><ele>213.99999999999997</ele><time>2026-04-19T10:09:30Z</time></trkpt><trkpt lat="43.449832935628244" lon="10.712868930892538"><ele>214.0</ele><time>2026-04-19T10:09:31Z</time></trkpt><trkpt lat="43.449751582848016" lon="10.712994769930676"><ele>214.0</ele><time>2026-04-19T10:09:33Z</time></trkpt><trkpt lat="43.44968171539363" lon="10.713108890758825"><ele>213.49999999999997</ele><time>2026-04-19T10:09:35Z</time></trkpt><trkpt lat="43.449652552981796" lon="10.713235653127345"><ele>213.0</ele><time>2026-04-19T10:09:37Z</time></trkpt><trkpt lat="43.44967453383639" lon="10.713323232860574"><ele>212.5</ele><time>2026-04-19T10:09:39.001Z</time></trkpt><trkpt lat="43.44971226927254" lon="10.71344580958656"><ele>212.0</ele><time>2026-04-19T10:09:42.001Z</time></trkpt><trkpt lat="43.44976636444956" lon="10.713524828793801"><ele>211.49999999999997</ele><time>2026-04-19T10:09:44.001Z</time></trkpt><trkpt lat="43.44982255763824" lon="10.713583817656113"><ele>211.0</ele><time>2026-04-19T10:09:46.001Z</time></trkpt><trkpt lat="43.449882879804065" lon="10.713640272626614"><ele>209.66666666666666</ele><time>2026-04-19T10:09:48.001Z</time></trkpt><trkpt lat="43.44993818048541" lon="10.71368889834815"><ele>208.33333333333331</ele><time>2026-04-19T10:09:50.001Z</time></trkpt><trkpt lat="43.45000105389014" lon="10.71375359059723"><ele>207.0</ele><time>2026-04-19T10:09:52.001Z</time></trkpt><trkpt lat="43.4500689686725" lon="10.71382792438626"><ele>205.66666666666669</ele><time>2026-04-19T10:09:54.001Z</time></trkpt><trkpt lat="43.450141044188186" lon="10.713902691645757"><ele>204.33333333333334</ele><time>2026-04-19T10:09:56.001Z</time></trkpt><trkpt lat="43.45021448080813" lon="10.713970359268492"><ele>203.0</ele><time>2026-04-19T10:09:58.001Z</time></trkpt><trkpt lat="43.45028949443925" lon="10.714044100909343"><ele>203.0</ele><time>2026-04-19T10:10:00.001Z</time></trkpt><trkpt lat="43.45036875476662" lon="10.714108201005201"><ele>203.0</ele><time>2026-04-19T10:10:02.001Z</time></trkpt><trkpt lat="43.45045965872481" lon="10.714168358977167"><ele>203.0</ele><time>2026-04-19T10:10:04.001Z</time></trkpt><trkpt lat="43.45054982707087" lon="10.714216814898155"><ele>203.0</ele><time>2026-04-19T10:10:06.001Z</time></trkpt><trkpt lat="43.45063924648408" lon="10.714262578803059"><ele>203.0</ele><time>2026-04-19T10:10:08.001Z</time></trkpt><trkpt lat="43.450729791824735" lon="10.714330382184686"><ele>200.60000000000002</ele><time>2026-04-19T10:10:10.001Z</time></trkpt><trkpt lat="43.45080484592934" lon="10.71442407290505"><ele>198.20000000000002</ele><time>2026-04-19T10:10:12.001Z</time></trkpt><trkpt lat="43.450880958427796" lon="10.714542074638057"><ele>195.8</ele><time>2026-04-19T10:10:14.001Z</time></trkpt><trkpt lat="43.45093884904683" lon="10.714687058623442"><ele>193.4</ele><time>2026-04-19T10:10:16.001Z</time></trkpt><trkpt lat="43.45097521467358" lon="10.714757958908917"><ele>191.0</ele><time>2026-04-19T10:10:17.001Z</time></trkpt><trkpt lat="43.45101633087307" lon="10.71482892116069"><ele>191.0</ele><time>2026-04-19T10:10:18.001Z</time></trkpt><trkpt lat="43.451101130467535" lon="10.714951044130029"><ele>191.0</ele><time>2026-04-19T10:10:20.001Z</time></trkpt><trkpt lat="43.451180762942485" lon="10.715066288797921"><ele>191.0</ele><time>2026-04-19T10:10:22.001Z</time></trkpt><trkpt lat="43.45125213670131" lon="10.715180418571912"><ele>191.0</ele><time>2026-04-19T10:10:24.001Z</time></trkpt><trkpt lat="43.4513143605564" lon="10.715286996150882"><ele>191.0</ele><time>2026-04-19T10:10:26.001Z</time></trkpt><trkpt lat="43.45137519000791" lon="10.715380015612874"><ele>190.20000000000002</ele><time>2026-04-19T10:10:28.001Z</time></trkpt><trkpt lat="43.451456691759" lon="10.715454130858342"><ele>189.4</ele><time>2026-04-19T10:10:30.001Z</time></trkpt><trkpt lat="43.45155149206291" lon="10.71552017478675"><ele>188.6</ele><time>2026-04-19T10:10:32Z</time></trkpt><trkpt lat="43.45163649964278" lon="10.715602647704843"><ele>187.8</ele><time>2026-04-19T10:10:34Z</time></trkpt><trkpt lat="43.451695442399355" lon="10.715717993833001"><ele>187.0</ele><time>2026-04-19T10:10:36Z</time></trkpt><trkpt lat="43.45171910367717" lon="10.715825920841409"><ele>187.0</ele><time>2026-04-19T10:10:38Z</time></trkpt><trkpt lat="43.451704770586566" lon="10.715941605563309"><ele>187.0</ele><time>2026-04-19T10:10:41Z</time></trkpt><trkpt lat="43.45171295244446" lon="10.716043078433644"><ele>187.0</ele><time>2026-04-19T10:10:43Z</time></trkpt><trkpt lat="43.45174803897127" lon="10.716161657949625"><ele>187.0</ele><time>2026-04-19T10:10:45Z</time></trkpt><trkpt lat="43.45181967840609" lon="10.716268175340957"><ele>187.0</ele><time>2026-04-19T10:10:47Z</time></trkpt><trkpt lat="43.451927553230824" lon="10.716355954283426"><ele>186.33333333333334</ele><time>2026-04-19T10:10:49Z</time></trkpt><trkpt lat="43.45198930619983" lon="10.7163913742071"><ele>185.66666666666669</ele><time>2026-04-19T10:10:50Z</time></trkpt><trkpt lat="43.452045039852386" lon="10.71643910144966"><ele>185.0</ele><time>2026-04-19T10:10:51Z</time></trkpt><trkpt lat="43.45212308950393" lon="10.716554631410782"><ele>184.33333333333334</ele><time>2026-04-19T10:10:53Z</time></trkpt><trkpt lat="43.45218825826805" lon="10.716699602768518"><ele>183.66666666666666</ele><time>2026-04-19T10:10:55Z</time></trkpt><trkpt lat="43.45222264518592" lon="10.716774678222084"><ele>183.0</ele><time>2026-04-19T10:10:56Z</time></trkpt><trkpt lat="43.45228624859962" lon="10.716893116280891"><ele>184.0</ele><time>2026-04-19T10:10:58Z</time></trkpt><trkpt lat="43.45233251809325" lon="10.71699043635265"><ele>185.0</ele><time>2026-04-19T10:11:00Z</time></trkpt><trkpt lat="43.4523746605159" lon="10.717088433540036"><ele>186.0</ele><time>2026-04-19T10:11:02Z</time></trkpt><trkpt lat="43.45243455711659" lon="10.717193533926297"><ele>187.0</ele><time>2026-04-19T10:11:04Z</time></trkpt><trkpt lat="43.452521977740375" lon="10.717299011638627"><ele>188.0</ele><time>2026-04-19T10:11:06Z</time></trkpt><trkpt lat="43.452586232652436" lon="10.717387268870747"><ele>188.0</ele><time>2026-04-19T10:11:08Z</time></trkpt><trkpt lat="43.45263162650027" lon="10.717518075761562"><ele>188.0</ele><time>2026-04-19T10:11:10Z</time></trkpt><trkpt lat="43.452677336456084" lon="10.717666595704182"><ele>188.0</ele><time>2026-04-19T10:11:12Z</time></trkpt><trkpt lat="43.45271125174069" lon="10.717815131298453"><ele>188.0</ele><time>2026-04-19T10:11:14Z</time></trkpt><trkpt lat="43.452731120751345" lon="10.71795217214588"><ele>188.0</ele><time>2026-04-19T10:11:16Z</time></trkpt><trkpt lat="43.45275673710551" lon="10.7181066345746"><ele>187.0</ele><time>2026-04-19T10:11:18Z</time></trkpt><trkpt lat="43.45277968878853" lon="10.71827295653611"><ele>186.0</ele><time>2026-04-19T10:11:20Z</time></trkpt><trkpt lat="43.45279231805997" lon="10.718365880411657"><ele>185.0</ele><time>2026-04-19T10:11:21Z</time></trkpt><trkpt lat="43.45280825784273" lon="10.718460932842415"><ele>184.0</ele><time>2026-04-19T10:11:22Z</time></trkpt><trkpt lat="43.45283028369009" lon="10.718547988614246"><ele>183.0</ele><time>2026-04-19T10:11:23Z</time></trkpt><trkpt lat="43.4528585743154" lon="10.718643652814919"><ele>182.0</ele><time>2026-04-19T10:11:24Z</time></trkpt><trkpt lat="43.45288679208573" lon="10.718734038010696"><ele>181.0</ele><time>2026-04-19T10:11:25Z</time></trkpt><trkpt lat="43.4529204107731" lon="10.7188161410019"><ele>180.0</ele><time>2026-04-19T10:11:26Z</time></trkpt><trkpt lat="43.45295742750878" lon="10.718894216173522"><ele>179.0</ele><time>2026-04-19T10:11:27Z</time></trkpt><trkpt lat="43.45299332707239" lon="10.718965488730634"><ele>178.0</ele><time>2026-04-19T10:11:28Z</time></trkpt><trkpt lat="43.45303200025945" lon="10.719034062381732"><ele>177.0</ele><time>2026-04-19T10:11:29Z</time></trkpt><trkpt lat="43.45310543533628" lon="10.719168018569768"><ele>176.0</ele><time>2026-04-19T10:11:31Z</time></trkpt><trkpt lat="43.45316805855156" lon="10.7192820932421"><ele>176.0</ele><time>2026-04-19T10:11:33.001Z</time></trkpt><trkpt lat="43.4532363640515" lon="10.719395213833918"><ele>176.0</ele><time>2026-04-19T10:11:35.001Z</time></trkpt><trkpt lat="43.45330817296744" lon="10.719522780413309"><ele>176.0</ele><time>2026-04-19T10:11:37.001Z</time></trkpt><trkpt lat="43.453378766935494" lon="10.719663720468763"><ele>176.0</ele><time>2026-04-19T10:11:39.001Z</time></trkpt><trkpt lat="43.453454981437126" lon="10.719809027398743"><ele>175.16666666666666</ele><time>2026-04-19T10:11:41.001Z</time></trkpt><trkpt lat="43.45349709188938" lon="10.719896796401269"><ele>174.33333333333331</ele><time>2026-04-19T10:11:42.001Z</time></trkpt><trkpt lat="43.45353857924698" lon="10.71997894684512"><ele>173.5</ele><time>2026-04-19T10:11:43.001Z</time></trkpt><trkpt lat="43.45357778789775" lon="10.720060654291403"><ele>172.66666666666666</ele><time>2026-04-19T10:11:44.001Z</time></trkpt><trkpt lat="43.45362037493658" lon="10.72013859829951"><ele>171.83333333333334</ele><time>2026-04-19T10:11:45.001Z</time></trkpt><trkpt lat="43.45366213446776" lon="10.720212191904778"><ele>171.0</ele><time>2026-04-19T10:11:46.001Z</time></trkpt><trkpt lat="43.453738526460526" lon="10.72034877085078"><ele>170.42857142857142</ele><time>2026-04-19T10:11:48.001Z</time></trkpt><trkpt lat="43.453776939223516" lon="10.720420484340314"><ele>169.85714285714286</ele><time>2026-04-19T10:11:49.001Z</time></trkpt><trkpt lat="43.453815706078196" lon="10.720490920908517"><ele>169.28571428571428</ele><time>2026-04-19T10:11:50.001Z</time></trkpt><trkpt lat="43.45385521662573" lon="10.720561760548597"><ele>168.71428571428572</ele><time>2026-04-19T10:11:51.001Z</time></trkpt><trkpt lat="43.45391462321256" lon="10.720669389605707"><ele>168.14285714285714</ele><time>2026-04-19T10:11:53.001Z</time></trkpt><trkpt lat="43.453962076398334" lon="10.720760161805002"><ele>167.57142857142856</ele><time>2026-04-19T10:11:55.001Z</time></trkpt><trkpt lat="43.4539920042926" lon="10.720846274091658"><ele>167.0</ele><time>2026-04-19T10:11:57.001Z</time></trkpt><trkpt lat="43.453942515110796" lon="10.720942384346152"><ele>167.0</ele><time>2026-04-19T10:12:00.001Z</time></trkpt><trkpt lat="43.45386070403578" lon="10.72099166810398"><ele>167.0</ele><time>2026-04-19T10:12:02.001Z</time></trkpt><trkpt lat="43.45378839227171" lon="10.721031405030969"><ele>167.0</ele><time>2026-04-19T10:12:04.001Z</time></trkpt><trkpt lat="43.45372230372834" lon="10.721071821743882"><ele>167.0</ele><time>2026-04-19T10:12:06.001Z</time></trkpt><trkpt lat="43.45365273730014" lon="10.721114221581528"><ele>167.0</ele><time>2026-04-19T10:12:08.001Z</time></trkpt><trkpt lat="43.45358949057794" lon="10.72115634158215"><ele>167.0</ele><time>2026-04-19T10:12:10.001Z</time></trkpt><trkpt lat="43.45352941766292" lon="10.721197600229397"><ele>165.66666666666666</ele><time>2026-04-19T10:12:12.001Z</time></trkpt><trkpt lat="43.45344674320375" lon="10.72124818526736"><ele>164.33333333333331</ele><time>2026-04-19T10:12:14.001Z</time></trkpt><trkpt lat="43.453369504242396" lon="10.72129531404119"><ele>163.0</ele><time>2026-04-19T10:12:16.001Z</time></trkpt><trkpt lat="43.45329830444831" lon="10.72134254281346"><ele>161.66666666666666</ele><time>2026-04-19T10:12:18.001Z</time></trkpt><trkpt lat="43.453232399404364" lon="10.721386523956989"><ele>160.33333333333334</ele><time>2026-04-19T10:12:20.001Z</time></trkpt><trkpt lat="43.453150435508455" lon="10.721441782084584"><ele>159.0</ele><time>2026-04-19T10:12:23.001Z</time></trkpt><trkpt lat="43.45306605205532" lon="10.721499938493029"><ele>159.0</ele><time>2026-04-19T10:12:26.001Z</time></trkpt><trkpt lat="43.45300046359437" lon="10.721548435321454"><ele>159.0</ele><time>2026-04-19T10:12:28.001Z</time></trkpt><trkpt lat="43.45289332202846" lon="10.721627663163401"><ele>159.0</ele><time>2026-04-19T10:12:31.001Z</time></trkpt><trkpt lat="43.45280001336458" lon="10.721694542590772"><ele>159.0</ele><time>2026-04-19T10:12:33.001Z</time></trkpt><trkpt lat="43.45269785108872" lon="10.721762491063453"><ele>159.0</ele><time>2026-04-19T10:12:35.001Z</time></trkpt><trkpt lat="43.45261277611437" lon="10.72181960897857"><ele>157.0</ele><time>2026-04-19T10:12:37.001Z</time></trkpt><trkpt lat="43.45251575483656" lon="10.72189226028557"><ele>155.0</ele><time>2026-04-19T10:12:39Z</time></trkpt><trkpt lat="43.45242487100803" lon="10.721948294000837"><ele>153.0</ele><time>2026-04-19T10:12:41Z</time></trkpt><trkpt lat="43.45232878798244" lon="10.722002835138612"><ele>151.0</ele><time>2026-04-19T10:12:43Z</time></trkpt><trkpt lat="43.45223900973874" lon="10.722065243825588"><ele>149.0</ele><time>2026-04-19T10:12:45Z</time></trkpt><trkpt lat="43.45213877564711" lon="10.722129591138739"><ele>147.5</ele><time>2026-04-19T10:12:47Z</time></trkpt><trkpt lat="43.45203238843152" lon="10.72219476419741"><ele>146.0</ele><time>2026-04-19T10:12:49Z</time></trkpt><trkpt lat="43.451936665915234" lon="10.722251182967804"><ele>144.5</ele><time>2026-04-19T10:12:51Z</time></trkpt><trkpt lat="43.4518309477635" lon="10.722320696963934"><ele>143.0</ele><time>2026-04-19T10:12:53Z</time></trkpt><trkpt lat="43.45171685981662" lon="10.722389795876255"><ele>142.99999999999997</ele><time>2026-04-19T10:12:55Z</time></trkpt><trkpt lat="43.45165758712489" lon="10.722424114637672"><ele>143.0</ele><time>2026-04-19T10:12:56Z</time></trkpt><trkpt lat="43.45159386936401" lon="10.722459085367813"><ele>143.0</ele><time>2026-04-19T10:12:57Z</time></trkpt><trkpt lat="43.45153349257977" lon="10.7224929528692"><ele>143.0</ele><time>2026-04-19T10:12:58Z</time></trkpt><trkpt lat="43.451473060648766" lon="10.722526144550857"><ele>143.0</ele><time>2026-04-19T10:12:59Z</time></trkpt><trkpt lat="43.45138009367352" lon="10.722577835144802"><ele>142.99999999999997</ele><time>2026-04-19T10:13:01Z</time></trkpt><trkpt lat="43.451308402809104" lon="10.72261524156858"><ele>143.0</ele><time>2026-04-19T10:13:03Z</time></trkpt><trkpt lat="43.45124818141308" lon="10.722641167870512"><ele>143.0</ele><time>2026-04-19T10:13:05Z</time></trkpt><trkpt lat="43.45118061195648" lon="10.72263790438453"><ele>143.0</ele><time>2026-04-19T10:13:14Z</time></trkpt><trkpt lat="43.4511737297263" lon="10.722744443294477"><ele>143.0</ele><time>2026-04-19T10:21:37Z</time></trkpt><trkpt lat="43.451191728151436" lon="10.722835999112327"><ele>143.0</ele><time>2026-04-19T10:21:40Z</time></trkpt><trkpt lat="43.45123132754923" lon="10.722956456068482"><ele>143.0</ele><time>2026-04-19T10:21:43Z</time></trkpt><trkpt lat="43.45126182526095" lon="10.723045114507707"><ele>143.0</ele><time>2026-04-19T10:21:45Z</time></trkpt><trkpt lat="43.4513026659701" lon="10.723131873803759"><ele>142.66666666666666</ele><time>2026-04-19T10:21:47Z</time></trkpt><trkpt lat="43.45134831479593" lon="10.723215834214946"><ele>142.33333333333331</ele><time>2026-04-19T10:21:49Z</time></trkpt><trkpt lat="43.451396196870526" lon="10.723305334418702"><ele>142.0</ele><time>2026-04-19T10:21:51Z</time></trkpt><trkpt lat="43.45145250338929" lon="10.723397582724203"><ele>141.66666666666666</ele><time>2026-04-19T10:21:53Z</time></trkpt><trkpt lat="43.451506148957385" lon="10.723489514838004"><ele>141.33333333333334</ele><time>2026-04-19T10:21:55Z</time></trkpt><trkpt lat="43.451514445584834" lon="10.723588163076466"><ele>141.0</ele><time>2026-04-19T10:21:57Z</time></trkpt><trkpt lat="43.451517784390134" lon="10.723676116936284"><ele>140.5</ele><time>2026-04-19T10:21:59Z</time></trkpt><trkpt lat="43.45151731768159" lon="10.723781847788622"><ele>140.0</ele><time>2026-04-19T10:22:01Z</time></trkpt><trkpt lat="43.45151525891825" lon="10.723883545047615"><ele>139.5</ele><time>2026-04-19T10:22:03Z</time></trkpt><trkpt lat="43.45153612565649" lon="10.723992086779546"><ele>139.0</ele><time>2026-04-19T10:22:05Z</time></trkpt><trkpt lat="43.45157452508402" lon="10.724106007239763"><ele>138.5</ele><time>2026-04-19T10:22:07Z</time></trkpt><trkpt lat="43.45159696309133" lon="10.724219854659234"><ele>138.0</ele><time>2026-04-19T10:22:09Z</time></trkpt><trkpt lat="43.45161029022922" lon="10.724354543211502"><ele>137.8</ele><time>2026-04-19T10:22:11Z</time></trkpt><trkpt lat="43.45162524120844" lon="10.724473613137274"><ele>137.60000000000002</ele><time>2026-04-19T10:22:13Z</time></trkpt><trkpt lat="43.45166813511381" lon="10.724599059525378"><ele>137.39999999999998</ele><time>2026-04-19T10:22:15Z</time></trkpt><trkpt lat="43.45171473847928" lon="10.724716842657864"><ele>137.2</ele><time>2026-04-19T10:22:17Z</time></trkpt><trkpt lat="43.45177299414289" lon="10.724818609425304"><ele>137.0</ele><time>2026-04-19T10:22:19Z</time></trkpt><trkpt lat="43.451827869454824" lon="10.724920290491509"><ele>137.0</ele><time>2026-04-19T10:22:21Z</time></trkpt><trkpt lat="43.45186129264205" lon="10.725044899419688"><ele>137.0</ele><time>2026-04-19T10:22:23Z</time></trkpt><trkpt lat="43.451882782562215" lon="10.72516937304855"><ele>137.0</ele><time>2026-04-19T10:22:25Z</time></trkpt><trkpt lat="43.45192202371048" lon="10.725291935079804"><ele>137.0</ele><time>2026-04-19T10:22:27Z</time></trkpt><trkpt lat="43.45199256021857" lon="10.725401241500537"><ele>137.0</ele><time>2026-04-19T10:22:29Z</time></trkpt><trkpt lat="43.45208429381766" lon="10.725512393032275"><ele>136.83333333333331</ele><time>2026-04-19T10:22:31Z</time></trkpt><trkpt lat="43.45217658146198" lon="10.725620105487076"><ele>136.66666666666666</ele><time>2026-04-19T10:22:33Z</time></trkpt><trkpt lat="43.452233809932856" lon="10.725737570088299"><ele>136.5</ele><time>2026-04-19T10:22:35Z</time></trkpt><trkpt lat="43.452267446646374" lon="10.725834541756262"><ele>136.33333333333334</ele><time>2026-04-19T10:22:37Z</time></trkpt><trkpt lat="43.45229516339644" lon="10.725915988050472"><ele>136.16666666666669</ele><time>2026-04-19T10:22:39Z</time></trkpt><trkpt lat="43.45232479266387" lon="10.726018238094614"><ele>136.0</ele><time>2026-04-19T10:22:41Z</time></trkpt><trkpt lat="43.45234933242345" lon="10.726126979186517"><ele>135.6</ele><time>2026-04-19T10:22:43Z</time></trkpt><trkpt lat="43.45238425541028" lon="10.726238347733732"><ele>135.2</ele><time>2026-04-19T10:22:45Z</time></trkpt><trkpt lat="43.45243675805087" lon="10.726369841579753"><ele>134.8</ele><time>2026-04-19T10:22:47Z</time></trkpt><trkpt lat="43.452463929551946" lon="10.726518679387569"><ele>134.4</ele><time>2026-04-19T10:22:49Z</time></trkpt><trkpt lat="43.45248673641778" lon="10.726674179050452"><ele>134.0</ele><time>2026-04-19T10:22:51Z</time></trkpt><trkpt lat="43.452512266952596" lon="10.726821398097474"><ele>133.83333333333331</ele><time>2026-04-19T10:22:53Z</time></trkpt><trkpt lat="43.45255496772423" lon="10.726933155764888"><ele>133.66666666666666</ele><time>2026-04-19T10:22:55Z</time></trkpt><trkpt lat="43.45259219152062" lon="10.727014509956179"><ele>133.5</ele><time>2026-04-19T10:22:57Z</time></trkpt><trkpt lat="43.452630067189965" lon="10.727114003388493"><ele>133.33333333333334</ele><time>2026-04-19T10:23:00Z</time></trkpt><trkpt lat="43.45264838707048" lon="10.727204005454567"><ele>133.16666666666669</ele><time>2026-04-19T10:23:03Z</time></trkpt><trkpt lat="43.4526179714716" lon="10.727286766661555"><ele>133.0</ele><time>2026-04-19T10:23:05Z</time></trkpt><trkpt lat="43.452589701083916" lon="10.727392782716672"><ele>133.0</ele><time>2026-04-19T10:23:07Z</time></trkpt><trkpt lat="43.45259756706372" lon="10.727528029407232"><ele>133.0</ele><time>2026-04-19T10:23:08.999Z</time></trkpt><trkpt lat="43.45264730725016" lon="10.727653543620098"><ele>133.0</ele><time>2026-04-19T10:23:10.999Z</time></trkpt><trkpt lat="43.45272647941089" lon="10.727725721221486"><ele>133.0</ele><time>2026-04-19T10:23:12.999Z</time></trkpt><trkpt lat="43.45280065512508" lon="10.727796988104858"><ele>133.0</ele><time>2026-04-19T10:23:15.999Z</time></trkpt><trkpt lat="43.452852012271606" lon="10.727850823380926"><ele>132.83333333333334</ele><time>2026-04-19T10:23:18.999Z</time></trkpt><trkpt lat="43.45289986007132" lon="10.727931634681658"><ele>132.66666666666669</ele><time>2026-04-19T10:23:23Z</time></trkpt><trkpt lat="43.452945940705845" lon="10.728024210688554"><ele>132.5</ele><time>2026-04-19T10:23:27Z</time></trkpt><trkpt lat="43.45298308016389" lon="10.728120620153424"><ele>132.33333333333334</ele><time>2026-04-19T10:23:30Z</time></trkpt><trkpt lat="43.45303477178566" lon="10.728191968201816"><ele>132.16666666666666</ele><time>2026-04-19T10:23:32Z</time></trkpt><trkpt lat="43.4530745290786" lon="10.728286252343622"><ele>132.0</ele><time>2026-04-19T10:23:34Z</time></trkpt><trkpt lat="43.45308853882424" lon="10.72838408829113"><ele>132.0</ele><time>2026-04-19T10:23:36Z</time></trkpt><trkpt lat="43.453105800542865" lon="10.728510009089266"><ele>132.0</ele><time>2026-04-19T10:23:38Z</time></trkpt><trkpt lat="43.453119727738446" lon="10.728633898632506"><ele>132.0</ele><time>2026-04-19T10:23:40Z</time></trkpt><trkpt lat="43.45313749942875" lon="10.728757869768453"><ele>132.0</ele><time>2026-04-19T10:23:42Z</time></trkpt><trkpt lat="43.45315251176751" lon="10.728855633201166"><ele>132.0</ele><time>2026-04-19T10:23:44Z</time></trkpt><trkpt lat="43.4531393998784" lon="10.728948900984037"><ele>132.0</ele><time>2026-04-19T10:23:46Z</time></trkpt><trkpt lat="43.453123138323754" lon="10.729047977518697"><ele>132.0</ele><time>2026-04-19T10:23:48Z</time></trkpt><trkpt lat="43.4531293980825" lon="10.729142250260571"><ele>132.0</ele><time>2026-04-19T10:23:50Z</time></trkpt><trkpt lat="43.45316010699321" lon="10.729221369977154"><ele>132.0</ele><time>2026-04-19T10:23:52Z</time></trkpt><trkpt lat="43.4531493369468" lon="10.729318137559835"><ele>132.0</ele><time>2026-04-19T10:23:56Z</time></trkpt><trkpt lat="43.45303201939155" lon="10.729280770252291"><ele>132.0</ele><time>2026-04-19T10:24:00Z</time></trkpt><trkpt lat="43.45291127929604" lon="10.729226224042968"><ele>132.0</ele><time>2026-04-19T10:24:02Z</time></trkpt><trkpt lat="43.45284345707881" lon="10.729190689276306"><ele>132.0</ele><time>2026-04-19T10:24:03Z</time></trkpt><trkpt lat="43.452765442417856" lon="10.729152990543437"><ele>132.0</ele><time>2026-04-19T10:24:04Z</time></trkpt><trkpt lat="43.45267945836946" lon="10.72911167570248"><ele>132.0</ele><time>2026-04-19T10:24:05Z</time></trkpt><trkpt lat="43.45259109869043" lon="10.729066815129494"><ele>132.0</ele><time>2026-04-19T10:24:06Z</time></trkpt><trkpt lat="43.45249419868482" lon="10.72901395665009"><ele>132.0</ele><time>2026-04-19T10:24:07Z</time></trkpt><trkpt lat="43.452387798790504" lon="10.72896496507458"><ele>132.0</ele><time>2026-04-19T10:24:08Z</time></trkpt><trkpt lat="43.45228042997197" lon="10.728914011598839"><ele>132.0</ele><time>2026-04-19T10:24:09Z</time></trkpt><trkpt lat="43.4521642082265" lon="10.728860062032812"><ele>132.0</ele><time>2026-04-19T10:24:10Z</time></trkpt><trkpt lat="43.452049717505126" lon="10.728800773294275"><ele>132.0</ele><time>2026-04-19T10:24:11Z</time></trkpt><trkpt lat="43.45193185425938" lon="10.728750199152955"><ele>132.5</ele><time>2026-04-19T10:24:12Z</time></trkpt><trkpt lat="43.4518106191995" lon="10.72869633454845"><ele>133.0</ele><time>2026-04-19T10:24:13Z</time></trkpt><trkpt lat="43.4516913134653" lon="10.728644972499273"><ele>133.5</ele><time>2026-04-19T10:24:14Z</time></trkpt><trkpt lat="43.45157587998087" lon="10.72859066342353"><ele>134.0</ele><time>2026-04-19T10:24:15Z</time></trkpt><trkpt lat="43.451462472650135" lon="10.728546184651673"><ele>134.25</ele><time>2026-04-19T10:24:16Z</time></trkpt><trkpt lat="43.45134489971816" lon="10.72851673418664"><ele>134.5</ele><time>2026-04-19T10:24:17Z</time></trkpt><trkpt lat="43.45122478544146" lon="10.72851457494777"><ele>134.75</ele><time>2026-04-19T10:24:18Z</time></trkpt><trkpt lat="43.451101722009476" lon="10.728533747443418"><ele>135.0</ele><time>2026-04-19T10:24:19Z</time></trkpt><trkpt lat="43.450977549340905" lon="10.7285752279394"><ele>136.25</ele><time>2026-04-19T10:24:20Z</time></trkpt><trkpt lat="43.45086193288052" lon="10.728641716665901"><ele>137.5</ele><time>2026-04-19T10:24:21Z</time></trkpt><trkpt lat="43.450747687050594" lon="10.728725725514266"><ele>138.75</ele><time>2026-04-19T10:24:22Z</time></trkpt><trkpt lat="43.450623691315045" lon="10.728805059309252"><ele>140.0</ele><time>2026-04-19T10:24:23Z</time></trkpt><trkpt lat="43.45049336986145" lon="10.728893434776253"><ele>140.75</ele><time>2026-04-19T10:24:24Z</time></trkpt><trkpt lat="43.45036098194373" lon="10.72898425177018"><ele>141.5</ele><time>2026-04-19T10:24:25Z</time></trkpt><trkpt lat="43.45022672889491" lon="10.7290774527385"><ele>142.25</ele><time>2026-04-19T10:24:26Z</time></trkpt><trkpt lat="43.45009750903872" lon="10.729168599170537"><ele>143.0</ele><time>2026-04-19T10:24:27Z</time></trkpt><trkpt lat="43.44997390818387" lon="10.72925504463592"><ele>143.0</ele><time>2026-04-19T10:24:28Z</time></trkpt><trkpt lat="43.44986089161491" lon="10.729336100871633"><ele>143.0</ele><time>2026-04-19T10:24:29Z</time></trkpt><trkpt lat="43.449772240502355" lon="10.72942570402119"><ele>143.0</ele><time>2026-04-19T10:24:30Z</time></trkpt><trkpt lat="43.44969738496479" lon="10.729532852710197"><ele>143.0</ele><time>2026-04-19T10:24:31Z</time></trkpt><trkpt lat="43.44964417838337" lon="10.729663406817743"><ele>144.4</ele><time>2026-04-19T10:24:32Z</time></trkpt><trkpt lat="43.449613962436054" lon="10.729801143159168"><ele>145.8</ele><time>2026-04-19T10:24:33Z</time></trkpt><trkpt lat="43.449587638624116" lon="10.729940114194578"><ele>147.2</ele><time>2026-04-19T10:24:34Z</time></trkpt><trkpt lat="43.44955485073017" lon="10.730068961432458"><ele>148.6</ele><time>2026-04-19T10:24:35Z</time></trkpt><trkpt lat="43.44950130918729" lon="10.730184091436021"><ele>150.0</ele><time>2026-04-19T10:24:36Z</time></trkpt><trkpt lat="43.449428426167344" lon="10.730270081824731"><ele>150.0</ele><time>2026-04-19T10:24:37Z</time></trkpt><trkpt lat="43.44933471686863" lon="10.730306994973528"><ele>150.0</ele><time>2026-04-19T10:24:38Z</time></trkpt><trkpt lat="43.44922390253972" lon="10.730267767089439"><ele>150.0</ele><time>2026-04-19T10:24:39Z</time></trkpt><trkpt lat="43.44913052840517" lon="10.730221793388976"><ele>150.0</ele><time>2026-04-19T10:24:40Z</time></trkpt><trkpt lat="43.44902392487975" lon="10.730166605000429"><ele>150.0</ele><time>2026-04-19T10:24:41Z</time></trkpt><trkpt lat="43.44890660531769" lon="10.730124142431123"><ele>152.0</ele><time>2026-04-19T10:24:42Z</time></trkpt><trkpt lat="43.44879181537595" lon="10.730055541122798"><ele>154.0</ele><time>2026-04-19T10:24:43Z</time></trkpt><trkpt lat="43.44867604868089" lon="10.7299880288991"><ele>156.0</ele><time>2026-04-19T10:24:44Z</time></trkpt><trkpt lat="43.44855862428739" lon="10.729913447477495"><ele>158.0</ele><time>2026-04-19T10:24:45Z</time></trkpt><trkpt lat="43.44845380824704" lon="10.729826155664384"><ele>158.0</ele><time>2026-04-19T10:24:46Z</time></trkpt><trkpt lat="43.448340638824185" lon="10.729733944364162"><ele>158.0</ele><time>2026-04-19T10:24:47Z</time></trkpt><trkpt lat="43.44823753111201" lon="10.729621985317285"><ele>158.0</ele><time>2026-04-19T10:24:48Z</time></trkpt><trkpt lat="43.44813878061193" lon="10.729491448384108"><ele>158.0</ele><time>2026-04-19T10:24:49Z</time></trkpt><trkpt lat="43.44803970313668" lon="10.729354260380658"><ele>159.75</ele><time>2026-04-19T10:24:50Z</time></trkpt><trkpt lat="43.44794151173289" lon="10.729209152427828"><ele>161.5</ele><time>2026-04-19T10:24:51Z</time></trkpt><trkpt lat="43.44783957324014" lon="10.729071746218791"><ele>163.25</ele><time>2026-04-19T10:24:52Z</time></trkpt><trkpt lat="43.447743926481714" lon="10.728931168001834"><ele>165.0</ele><time>2026-04-19T10:24:53Z</time></trkpt><trkpt lat="43.44765260034009" lon="10.728782662147795"><ele>165.0</ele><time>2026-04-19T10:24:54Z</time></trkpt><trkpt lat="43.44757689862844" lon="10.728619447540442"><ele>165.0</ele><time>2026-04-19T10:24:55Z</time></trkpt><trkpt lat="43.44750749930792" lon="10.728451513723718"><ele>165.0</ele><time>2026-04-19T10:24:56Z</time></trkpt><trkpt lat="43.44744978983571" lon="10.72826818955862"><ele>165.0</ele><time>2026-04-19T10:24:57Z</time></trkpt><trkpt lat="43.447368975685116" lon="10.72810488937495"><ele>165.0</ele><time>2026-04-19T10:24:58Z</time></trkpt><trkpt lat="43.447303873336935" lon="10.727926086970326"><ele>165.0</ele><time>2026-04-19T10:24:59Z</time></trkpt><trkpt lat="43.447251382826416" lon="10.727734292161925"><ele>165.0</ele><time>2026-04-19T10:25:00Z</time></trkpt><trkpt lat="43.44718522025296" lon="10.727550650472036"><ele>165.0</ele><time>2026-04-19T10:25:01Z</time></trkpt><trkpt lat="43.44711621285711" lon="10.727367515166154"><ele>167.33333333333334</ele><time>2026-04-19T10:25:02Z</time></trkpt><trkpt lat="43.44704628455732" lon="10.727181936433734"><ele>169.66666666666669</ele><time>2026-04-19T10:25:03Z</time></trkpt><trkpt lat="43.4469769524614" lon="10.72699650670767"><ele>172.0</ele><time>2026-04-19T10:25:04Z</time></trkpt><trkpt lat="43.446911232834985" lon="10.726808425949523"><ele>172.66666666666669</ele><time>2026-04-19T10:25:05Z</time></trkpt><trkpt lat="43.446850348541744" lon="10.726612739360371"><ele>173.33333333333334</ele><time>2026-04-19T10:25:06Z</time></trkpt><trkpt lat="43.44677906261216" lon="10.726421406425573"><ele>174.0</ele><time>2026-04-19T10:25:07Z</time></trkpt><trkpt lat="43.44672220464087" lon="10.726221107249645"><ele>174.0</ele><time>2026-04-19T10:25:08Z</time></trkpt><trkpt lat="43.446678093001246" lon="10.726011290405799"><ele>174.0</ele><time>2026-04-19T10:25:09Z</time></trkpt><trkpt lat="43.44661649290713" lon="10.7258091626752"><ele>174.0</ele><time>2026-04-19T10:25:10Z</time></trkpt><trkpt lat="43.446553043160755" lon="10.725612476274097"><ele>174.0</ele><time>2026-04-19T10:25:11Z</time></trkpt><trkpt lat="43.446492256482884" lon="10.72541976526951"><ele>174.0</ele><time>2026-04-19T10:25:12Z</time></trkpt><trkpt lat="43.446421068289574" lon="10.725241545015505"><ele>174.0</ele><time>2026-04-19T10:25:13Z</time></trkpt><trkpt lat="43.44638147102456" lon="10.725049994989549"><ele>174.0</ele><time>2026-04-19T10:25:13.999Z</time></trkpt><trkpt lat="43.44638541339464" lon="10.724860451612535"><ele>174.0</ele><time>2026-04-19T10:25:14.999Z</time></trkpt><trkpt lat="43.446410849102364" lon="10.724680794885108"><ele>174.0</ele><time>2026-04-19T10:25:15.999Z</time></trkpt><trkpt lat="43.44644987666694" lon="10.72451581970965"><ele>174.0</ele><time>2026-04-19T10:25:16.999Z</time></trkpt><trkpt lat="43.44649298782741" lon="10.724335337143296"><ele>174.0</ele><time>2026-04-19T10:25:17.999Z</time></trkpt><trkpt lat="43.44651304163813" lon="10.724176395664141"><ele>175.0</ele><time>2026-04-19T10:25:18.999Z</time></trkpt><trkpt lat="43.44651936022408" lon="10.72402526816043"><ele>176.0</ele><time>2026-04-19T10:25:19.999Z</time></trkpt><trkpt lat="43.44649927922666" lon="10.723880005585704"><ele>177.0</ele><time>2026-04-19T10:25:20.999Z</time></trkpt><trkpt lat="43.44645834733468" lon="10.723734743363803"><ele>178.0</ele><time>2026-04-19T10:25:21.999Z</time></trkpt><trkpt lat="43.44640573344532" lon="10.723594450261206"><ele>179.0</ele><time>2026-04-19T10:25:22.999Z</time></trkpt><trkpt lat="43.44635048918872" lon="10.723445516756103"><ele>182.0</ele><time>2026-04-19T10:25:23.999Z</time></trkpt><trkpt lat="43.446292567142436" lon="10.723290526048084"><ele>185.0</ele><time>2026-04-19T10:25:24.999Z</time></trkpt><trkpt lat="43.44623397150414" lon="10.72312774008965"><ele>188.0</ele><time>2026-04-19T10:25:25.999Z</time></trkpt><trkpt lat="43.44617652850087" lon="10.722959404242495"><ele>191.0</ele><time>2026-04-19T10:25:26.999Z</time></trkpt><trkpt lat="43.44611993131262" lon="10.72278395454082"><ele>190.75</ele><time>2026-04-19T10:25:27.999Z</time></trkpt><trkpt lat="43.446059560772596" lon="10.722626799964107"><ele>190.5</ele><time>2026-04-19T10:25:28.999Z</time></trkpt><trkpt lat="43.445984528178926" lon="10.722478804712937"><ele>190.25</ele><time>2026-04-19T10:25:29.999Z</time></trkpt><trkpt lat="43.44590963679505" lon="10.72231822002347"><ele>190.0</ele><time>2026-04-19T10:25:30.999Z</time></trkpt><trkpt lat="43.44581780302592" lon="10.722174629559365"><ele>190.0</ele><time>2026-04-19T10:25:31.999Z</time></trkpt><trkpt lat="43.4457174519326" lon="10.72205130665129"><ele>190.0</ele><time>2026-04-19T10:25:32.999Z</time></trkpt><trkpt lat="43.445643511135145" lon="10.721890978445533"><ele>190.0</ele><time>2026-04-19T10:25:33.999Z</time></trkpt><trkpt lat="43.44557382530822" lon="10.721740376262476"><ele>190.0</ele><time>2026-04-19T10:25:34.999Z</time></trkpt><trkpt lat="43.44553486104083" lon="10.721561472091974"><ele>190.0</ele><time>2026-04-19T10:25:35.999Z</time></trkpt><trkpt lat="43.44551187376583" lon="10.721385805185855"><ele>190.0</ele><time>2026-04-19T10:25:36.999Z</time></trkpt><trkpt lat="43.44553073596463" lon="10.721204823081884"><ele>190.0</ele><time>2026-04-19T10:25:37.999Z</time></trkpt><trkpt lat="43.44555426672595" lon="10.721037814069836"><ele>190.0</ele><time>2026-04-19T10:25:38.999Z</time></trkpt><trkpt lat="43.445572141612814" lon="10.72088299503018"><ele>191.2</ele><time>2026-04-19T10:25:39.999Z</time></trkpt><trkpt lat="43.44561523959296" lon="10.720746396538173"><ele>192.4</ele><time>2026-04-19T10:25:40.999Z</time></trkpt><trkpt lat="43.44564044401635" lon="10.720612657659274"><ele>193.60000000000002</ele><time>2026-04-19T10:25:41.999Z</time></trkpt><trkpt lat="43.44565440718055" lon="10.720489087440955"><ele>194.8</ele><time>2026-04-19T10:25:42.999Z</time></trkpt><trkpt lat="43.4456431421349" lon="10.720368244732049"><ele>196.0</ele><time>2026-04-19T10:25:43.999Z</time></trkpt><trkpt lat="43.44560842317352" lon="10.720257941918145"><ele>196.0</ele><time>2026-04-19T10:25:44.999Z</time></trkpt><trkpt lat="43.4455615841098" lon="10.720147913037383"><ele>196.0</ele><time>2026-04-19T10:25:45.999Z</time></trkpt><trkpt lat="43.44550557868813" lon="10.720055483042067"><ele>196.0</ele><time>2026-04-19T10:25:46.999Z</time></trkpt><trkpt lat="43.44543042263628" lon="10.71998401759201"><ele>196.0</ele><time>2026-04-19T10:25:47.999Z</time></trkpt><trkpt lat="43.44533722577865" lon="10.71995922941539"><ele>196.0</ele><time>2026-04-19T10:25:48.999Z</time></trkpt><trkpt lat="43.445247946976835" lon="10.719991420983531"><ele>197.4</ele><time>2026-04-19T10:25:49.999Z</time></trkpt><trkpt lat="43.445160010558254" lon="10.720050178131073"><ele>198.8</ele><time>2026-04-19T10:25:50.999Z</time></trkpt><trkpt lat="43.44507193440078" lon="10.720126192518487"><ele>200.20000000000002</ele><time>2026-04-19T10:25:51.999Z</time></trkpt><trkpt lat="43.44499574405265" lon="10.720180765819425"><ele>201.60000000000002</ele><time>2026-04-19T10:25:53Z</time></trkpt><trkpt lat="43.44492154720831" lon="10.720227705901808"><ele>203.0</ele><time>2026-04-19T10:25:54Z</time></trkpt><trkpt lat="43.444841378684984" lon="10.720293910852927"><ele>203.0</ele><time>2026-04-19T10:25:55Z</time></trkpt><trkpt lat="43.44477325056382" lon="10.720375550013772"><ele>203.0</ele><time>2026-04-19T10:25:56Z</time></trkpt><trkpt lat="43.444741329446394" lon="10.720492576370232"><ele>203.0</ele><time>2026-04-19T10:25:57Z</time></trkpt><trkpt lat="43.44472455543401" lon="10.720629572035872"><ele>203.0</ele><time>2026-04-19T10:25:58Z</time></trkpt><trkpt lat="43.444683648085885" lon="10.720748667753393"><ele>203.0</ele><time>2026-04-19T10:25:59Z</time></trkpt><trkpt lat="43.44461565479601" lon="10.72084694348002"><ele>205.8</ele><time>2026-04-19T10:26:00Z</time></trkpt><trkpt lat="43.444528032208325" lon="10.720918823740922"><ele>208.60000000000002</ele><time>2026-04-19T10:26:01Z</time></trkpt><trkpt lat="43.44443003799841" lon="10.720970025465776"><ele>211.39999999999998</ele><time>2026-04-19T10:26:02Z</time></trkpt><trkpt lat="43.44433218248733" lon="10.721009488753012"><ele>214.2</ele><time>2026-04-19T10:26:03Z</time></trkpt><trkpt lat="43.44422844663235" lon="10.72103821674867"><ele>217.0</ele><time>2026-04-19T10:26:04Z</time></trkpt><trkpt lat="43.44411937270271" lon="10.721051935368878"><ele>217.0</ele><time>2026-04-19T10:26:05Z</time></trkpt><trkpt lat="43.44400746708503" lon="10.721061883630547"><ele>217.0</ele><time>2026-04-19T10:26:06Z</time></trkpt><trkpt lat="43.44389087859912" lon="10.721068593136732"><ele>217.0</ele><time>2026-04-19T10:26:07Z</time></trkpt><trkpt lat="43.44377323730354" lon="10.721077208256002"><ele>217.0</ele><time>2026-04-19T10:26:08Z</time></trkpt><trkpt lat="43.44366068438648" lon="10.721095235209763"><ele>217.75</ele><time>2026-04-19T10:26:09Z</time></trkpt><trkpt lat="43.44354761754948" lon="10.721154996836171"><ele>218.5</ele><time>2026-04-19T10:26:10Z</time></trkpt><trkpt lat="43.4434524796848" lon="10.72122653711018"><ele>219.25</ele><time>2026-04-19T10:26:11Z</time></trkpt><trkpt lat="43.44335405667917" lon="10.721311306083274"><ele>220.0</ele><time>2026-04-19T10:26:12Z</time></trkpt><trkpt lat="43.44325207548567" lon="10.721394432292689"><ele>220.0</ele><time>2026-04-19T10:26:13Z</time></trkpt><trkpt lat="43.44314378415444" lon="10.721469824109114"><ele>220.0</ele><time>2026-04-19T10:26:14Z</time></trkpt><trkpt lat="43.443034735577456" lon="10.721535319811052"><ele>220.0</ele><time>2026-04-19T10:26:15Z</time></trkpt><trkpt lat="43.442923020571946" lon="10.721595395964574"><ele>220.0</ele><time>2026-04-19T10:26:16Z</time></trkpt><trkpt lat="43.442809154890654" lon="10.721653412539492"><ele>220.2</ele><time>2026-04-19T10:26:17Z</time></trkpt><trkpt lat="43.44269653533556" lon="10.72171170982774"><ele>220.4</ele><time>2026-04-19T10:26:18Z</time></trkpt><trkpt lat="43.442592558542216" lon="10.721770310005521"><ele>220.60000000000002</ele><time>2026-04-19T10:26:19Z</time></trkpt><trkpt lat="43.4425011480602" lon="10.721836877658388"><ele>220.8</ele><time>2026-04-19T10:26:20Z</time></trkpt><trkpt lat="43.44242595378837" lon="10.721909705762979"><ele>221.0</ele><time>2026-04-19T10:26:21Z</time></trkpt><trkpt lat="43.44235846082278" lon="10.721980039856643"><ele>221.0</ele><time>2026-04-19T10:26:22Z</time></trkpt><trkpt lat="43.442302471461666" lon="10.722033138900501"><ele>221.00000000000003</ele><time>2026-04-19T10:26:23Z</time></trkpt><trkpt lat="43.44220778543839" lon="10.721977149133368"><ele>221.00000000000003</ele><time>2026-04-19T10:26:25Z</time></trkpt><trkpt lat="43.44225429653178" lon="10.721837784970779"><ele>221.0</ele><time>2026-04-19T10:26:27Z</time></trkpt><trkpt lat="43.442318676068574" lon="10.721661920848968"><ele>221.0</ele><time>2026-04-19T10:26:29Z</time></trkpt><trkpt lat="43.44232883440002" lon="10.721539133231683"><ele>222.60000000000002</ele><time>2026-04-19T10:26:30Z</time></trkpt><trkpt lat="43.44234441262968" lon="10.721409037047263"><ele>224.20000000000002</ele><time>2026-04-19T10:26:31Z</time></trkpt><trkpt lat="43.44236232108133" lon="10.72127434839866"><ele>225.79999999999998</ele><time>2026-04-19T10:26:32Z</time></trkpt><trkpt lat="43.442401545835196" lon="10.721140033130713"><ele>227.39999999999998</ele><time>2026-04-19T10:26:33Z</time></trkpt><trkpt lat="43.44242883573686" lon="10.72100343204817"><ele>229.0</ele><time>2026-04-19T10:26:34Z</time></trkpt><trkpt lat="43.4425090354723" lon="10.720889794132608"><ele>231.0</ele><time>2026-04-19T10:26:35Z</time></trkpt><trkpt lat="43.44259091170041" lon="10.72078459199706"><ele>232.99999999999997</ele><time>2026-04-19T10:26:36Z</time></trkpt><trkpt lat="43.442665326051554" lon="10.72066870551535"><ele>234.99999999999997</ele><time>2026-04-19T10:26:37Z</time></trkpt><trkpt lat="43.44273521581097" lon="10.720564835637202"><ele>237.0</ele><time>2026-04-19T10:26:38Z</time></trkpt><trkpt lat="43.44279138587024" lon="10.720452966639115"><ele>239.0</ele><time>2026-04-19T10:26:39Z</time></trkpt><trkpt lat="43.4428431543644" lon="10.720345684364853"><ele>239.00000000000003</ele><time>2026-04-19T10:26:40Z</time></trkpt><trkpt lat="43.442893906705784" lon="10.720245253614177"><ele>239.0</ele><time>2026-04-19T10:26:41Z</time></trkpt><trkpt lat="43.4429192670841" lon="10.720145253510672"><ele>239.00000000000003</ele><time>2026-04-19T10:26:42Z</time></trkpt><trkpt lat="43.442905234344245" lon="10.720053102197971"><ele>239.00000000000003</ele><time>2026-04-19T10:26:43Z</time></trkpt><trkpt lat="43.442856962604814" lon="10.719986258628781"><ele>239.0</ele><time>2026-04-19T10:26:44Z</time></trkpt><trkpt lat="43.44279389692824" lon="10.719959791636755"><ele>239.00000000000003</ele><time>2026-04-19T10:26:45Z</time></trkpt><trkpt lat="43.44271466250453" lon="10.719979485775013"><ele>239.00000000000003</ele><time>2026-04-19T10:26:46Z</time></trkpt><trkpt lat="43.44263318045294" lon="10.719988465133886"><ele>239.6</ele><time>2026-04-19T10:26:47Z</time></trkpt><trkpt lat="43.44254743507345" lon="10.720002572319714"><ele>240.2</ele><time>2026-04-19T10:26:48Z</time></trkpt><trkpt lat="43.44245508466685" lon="10.720031808077385"><ele>240.79999999999998</ele><time>2026-04-19T10:26:49Z</time></trkpt><trkpt lat="43.44235808749797" lon="10.720069902742464"><ele>241.39999999999998</ele><time>2026-04-19T10:26:50Z</time></trkpt><trkpt lat="43.44225771720212" lon="10.720109398208544"><ele>242.0</ele><time>2026-04-19T10:26:51Z</time></trkpt><trkpt lat="43.442155898846465" lon="10.72014983136472"><ele>243.0</ele><time>2026-04-19T10:26:52Z</time></trkpt><trkpt lat="43.442060337463445" lon="10.720192340318489"><ele>244.0</ele><time>2026-04-19T10:26:53Z</time></trkpt><trkpt lat="43.441961698604" lon="10.72022516979822"><ele>245.0</ele><time>2026-04-19T10:26:54Z</time></trkpt><trkpt lat="43.4418547023341" lon="10.720241919543112"><ele>246.0</ele><time>2026-04-19T10:26:55Z</time></trkpt><trkpt lat="43.44174778584851" lon="10.72023922743711"><ele>247.0</ele><time>2026-04-19T10:26:56Z</time></trkpt><trkpt lat="43.44164402922952" lon="10.720209774420738"><ele>247.39999999999998</ele><time>2026-04-19T10:26:57Z</time></trkpt><trkpt lat="43.441548020571005" lon="10.72014673407129"><ele>247.79999999999998</ele><time>2026-04-19T10:26:58Z</time></trkpt><trkpt lat="43.44146394683143" lon="10.720060691422784"><ele>248.2</ele><time>2026-04-19T10:26:59Z</time></trkpt><trkpt lat="43.44138743631844" lon="10.719961437692756"><ele>248.6</ele><time>2026-04-19T10:27:00Z</time></trkpt><trkpt lat="43.44130403422984" lon="10.719860110922443"><ele>249.0</ele><time>2026-04-19T10:27:01Z</time></trkpt><trkpt lat="43.44121109769694" lon="10.719766746648583"><ele>250.2</ele><time>2026-04-19T10:27:02Z</time></trkpt><trkpt lat="43.44110878940586" lon="10.71968827188822"><ele>251.39999999999998</ele><time>2026-04-19T10:27:03Z</time></trkpt><trkpt lat="43.44100252257436" lon="10.719615521560565"><ele>252.6</ele><time>2026-04-19T10:27:04Z</time></trkpt><trkpt lat="43.44090545164539" lon="10.719549445424677"><ele>253.8</ele><time>2026-04-19T10:27:05Z</time></trkpt><trkpt lat="43.440811711097005" lon="10.719484055444637"><ele>255.0</ele><time>2026-04-19T10:27:06Z</time></trkpt><trkpt lat="43.4407314986248" lon="10.719440991024678"><ele>255.0</ele><time>2026-04-19T10:27:07Z</time></trkpt><trkpt lat="43.44064475705158" lon="10.71942397369871"><ele>255.0</ele><time>2026-04-19T10:27:08Z</time></trkpt><trkpt lat="43.44055126393057" lon="10.719419937104774"><ele>255.0</ele><time>2026-04-19T10:27:09Z</time></trkpt><trkpt lat="43.44046060451484" lon="10.719435814237226"><ele>255.0</ele><time>2026-04-19T10:27:10Z</time></trkpt><trkpt lat="43.44037999690438" lon="10.71950996058447"><ele>255.0</ele><time>2026-04-19T10:27:11Z</time></trkpt><trkpt lat="43.440297825895115" lon="10.71960282111519"><ele>256.8</ele><time>2026-04-19T10:27:12Z</time></trkpt><trkpt lat="43.44021073624283" lon="10.719678963810665"><ele>258.6</ele><time>2026-04-19T10:27:13Z</time></trkpt><trkpt lat="43.440111346301656" lon="10.719713047329126"><ele>260.4</ele><time>2026-04-19T10:27:14Z</time></trkpt><trkpt lat="43.44000087538173" lon="10.719709835385226"><ele>262.2</ele><time>2026-04-19T10:27:15Z</time></trkpt><trkpt lat="43.439893772165526" lon="10.71966470292268"><ele>264.0</ele><time>2026-04-19T10:27:16Z</time></trkpt><trkpt lat="43.43980658935829" lon="10.719576631858594"><ele>264.0</ele><time>2026-04-19T10:27:17Z</time></trkpt><trkpt lat="43.439730447942665" lon="10.719457646639434"><ele>264.0</ele><time>2026-04-19T10:27:18Z</time></trkpt><trkpt lat="43.43963814810281" lon="10.71933690358504"><ele>264.0</ele><time>2026-04-19T10:27:19Z</time></trkpt><trkpt lat="43.4395467920254" lon="10.719237571427639"><ele>264.0</ele><time>2026-04-19T10:27:19.999Z</time></trkpt><trkpt lat="43.43944064224932" lon="10.719172271163076"><ele>268.75</ele><time>2026-04-19T10:27:20.999Z</time></trkpt><trkpt lat="43.4393288917861" lon="10.719131490787394"><ele>273.5</ele><time>2026-04-19T10:27:21.999Z</time></trkpt><trkpt lat="43.43921334295411" lon="10.719108490657224"><ele>278.25</ele><time>2026-04-19T10:27:22.999Z</time></trkpt><trkpt lat="43.43909131089182" lon="10.71913545448743"><ele>283.0</ele><time>2026-04-19T10:27:23.999Z</time></trkpt><trkpt lat="43.438975497260344" lon="10.719174095562275"><ele>283.0</ele><time>2026-04-19T10:27:24.999Z</time></trkpt><trkpt lat="43.438849964519925" lon="10.719210998440284"><ele>283.0</ele><time>2026-04-19T10:27:25.999Z</time></trkpt><trkpt lat="43.4387279728427" lon="10.719212305126504"><ele>283.0</ele><time>2026-04-19T10:27:26.999Z</time></trkpt><trkpt lat="43.43860079610671" lon="10.719184238137997"><ele>283.0</ele><time>2026-04-19T10:27:27.999Z</time></trkpt><trkpt lat="43.438465384733405" lon="10.719167886123325"><ele>284.4</ele><time>2026-04-19T10:27:28.999Z</time></trkpt><trkpt lat="43.4383528188031" lon="10.719126824772045"><ele>285.8</ele><time>2026-04-19T10:27:29.999Z</time></trkpt><trkpt lat="43.438237204830436" lon="10.71912745388723"><ele>287.2</ele><time>2026-04-19T10:27:30.999Z</time></trkpt><trkpt lat="43.43813943112264" lon="10.719150939572438"><ele>288.6</ele><time>2026-04-19T10:27:31.999Z</time></trkpt><trkpt lat="43.43805191220854" lon="10.719211634796658"><ele>290.0</ele><time>2026-04-19T10:27:32.999Z</time></trkpt><trkpt lat="43.43798477456275" lon="10.71931531293173"><ele>288.5</ele><time>2026-04-19T10:27:33.999Z</time></trkpt><trkpt lat="43.43796354315096" lon="10.719474405762867"><ele>287.0</ele><time>2026-04-19T10:27:34.999Z</time></trkpt><trkpt lat="43.43796437411179" lon="10.71962231299171"><ele>285.5</ele><time>2026-04-19T10:27:35.999Z</time></trkpt><trkpt lat="43.43798864654295" lon="10.719771194912822"><ele>284.0</ele><time>2026-04-19T10:27:36.999Z</time></trkpt><trkpt lat="43.438019236565744" lon="10.719930362616546"><ele>284.0</ele><time>2026-04-19T10:27:37.999Z</time></trkpt><trkpt lat="43.43802757725597" lon="10.720094232127114"><ele>284.0</ele><time>2026-04-19T10:27:38.999Z</time></trkpt><trkpt lat="43.43802197506961" lon="10.72025484013847"><ele>284.0</ele><time>2026-04-19T10:27:39.999Z</time></trkpt><trkpt lat="43.43800875641178" lon="10.720420145375124"><ele>284.0</ele><time>2026-04-19T10:27:40.999Z</time></trkpt><trkpt lat="43.43797717677011" lon="10.720569280528888"><ele>286.8</ele><time>2026-04-19T10:27:41.999Z</time></trkpt><trkpt lat="43.43794326364641" lon="10.72071163694195"><ele>289.59999999999997</ele><time>2026-04-19T10:27:42.999Z</time></trkpt><trkpt lat="43.43790139922975" lon="10.720834309898244"><ele>292.4</ele><time>2026-04-19T10:27:43.999Z</time></trkpt><trkpt lat="43.43784713712341" lon="10.720938722108643"><ele>295.2</ele><time>2026-04-19T10:27:44.999Z</time></trkpt><trkpt lat="43.437773059163135" lon="10.72102432531837"><ele>298.0</ele><time>2026-04-19T10:27:45.999Z</time></trkpt><trkpt lat="43.43766905156166" lon="10.721061666324651"><ele>296.4</ele><time>2026-04-19T10:27:46.999Z</time></trkpt><trkpt lat="43.43754255207255" lon="10.721128757767929"><ele>294.8</ele><time>2026-04-19T10:27:47.999Z</time></trkpt><trkpt lat="43.43743388835149" lon="10.7211491398592"><ele>293.2</ele><time>2026-04-19T10:27:48.999Z</time></trkpt><trkpt lat="43.437330601701355" lon="10.721182625358358"><ele>291.6</ele><time>2026-04-19T10:27:49.999Z</time></trkpt><trkpt lat="43.43723812021548" lon="10.721218190904528"><ele>290.0</ele><time>2026-04-19T10:27:50.999Z</time></trkpt><trkpt lat="43.43714939383725" lon="10.721274755537621"><ele>293.8</ele><time>2026-04-19T10:27:51.999Z</time></trkpt><trkpt lat="43.43707290081805" lon="10.721359645530903"><ele>297.6</ele><time>2026-04-19T10:27:52.999Z</time></trkpt><trkpt lat="43.43700091209563" lon="10.721468264670612"><ele>301.4</ele><time>2026-04-19T10:27:54Z</time></trkpt><trkpt lat="43.43694120522389" lon="10.721596368146495"><ele>305.2</ele><time>2026-04-19T10:27:55Z</time></trkpt><trkpt lat="43.43688059200462" lon="10.721711431222358"><ele>309.0</ele><time>2026-04-19T10:27:56Z</time></trkpt><trkpt lat="43.43683831393479" lon="10.72186245302195"><ele>307.8</ele><time>2026-04-19T10:27:57Z</time></trkpt><trkpt lat="43.43678884666159" lon="10.72199934146445"><ele>306.59999999999997</ele><time>2026-04-19T10:27:58Z</time></trkpt><trkpt lat="43.43674335974002" lon="10.722126150127602"><ele>305.4</ele><time>2026-04-19T10:27:59Z</time></trkpt><trkpt lat="43.436690578844264" lon="10.722224925678969"><ele>304.2</ele><time>2026-04-19T10:28:00Z</time></trkpt><trkpt lat="43.43662217569083" lon="10.722300565445867"><ele>303.0</ele><time>2026-04-19T10:28:01Z</time></trkpt><trkpt lat="43.43653722402135" lon="10.722362446659819"><ele>303.0</ele><time>2026-04-19T10:28:02Z</time></trkpt><trkpt lat="43.436445086351156" lon="10.722396848252947"><ele>303.0</ele><time>2026-04-19T10:28:03Z</time></trkpt><trkpt lat="43.43634102593032" lon="10.722408227953562"><ele>303.0</ele><time>2026-04-19T10:28:04Z</time></trkpt><trkpt lat="43.43622094379185" lon="10.722415477968179"><ele>303.0</ele><time>2026-04-19T10:28:05Z</time></trkpt><trkpt lat="43.436116810010795" lon="10.72244875544552"><ele>303.0</ele><time>2026-04-19T10:28:06Z</time></trkpt><trkpt lat="43.43603556079933" lon="10.722481060076786"><ele>305.1666666666667</ele><time>2026-04-19T10:28:07Z</time></trkpt><trkpt lat="43.435965036524756" lon="10.722523009332383"><ele>307.3333333333333</ele><time>2026-04-19T10:28:08Z</time></trkpt><trkpt lat="43.435906907933884" lon="10.722593115134082"><ele>309.5</ele><time>2026-04-19T10:28:09Z</time></trkpt><trkpt lat="43.43587332803113" lon="10.722676010398953"><ele>311.66666666666663</ele><time>2026-04-19T10:28:10Z</time></trkpt><trkpt lat="43.43586725024624" lon="10.722776914473"><ele>313.8333333333333</ele><time>2026-04-19T10:28:11Z</time></trkpt><trkpt lat="43.4358781548588" lon="10.722885570594139"><ele>316.0</ele><time>2026-04-19T10:28:12Z</time></trkpt><trkpt lat="43.435887271956084" lon="10.722986680295916"><ele>316.0</ele><time>2026-04-19T10:28:13Z</time></trkpt><trkpt lat="43.43588766659069" lon="10.72308142736114"><ele>316.0</ele><time>2026-04-19T10:28:14Z</time></trkpt><trkpt lat="43.43586736702431" lon="10.723240482554148"><ele>316.0</ele><time>2026-04-19T10:28:16Z</time></trkpt><trkpt lat="43.43581497987633" lon="10.72329905254355"><ele>316.0</ele><time>2026-04-19T10:28:17Z</time></trkpt><trkpt lat="43.43570175289685" lon="10.723358239241707"><ele>316.0</ele><time>2026-04-19T10:28:27Z</time></trkpt><trkpt lat="43.43562561090915" lon="10.723370748135183"><ele>316.0</ele><time>2026-04-19T10:28:29Z</time></trkpt><trkpt lat="43.43554085422365" lon="10.723353318463692"><ele>316.0</ele><time>2026-04-19T10:28:32Z</time></trkpt><trkpt lat="43.435476171233546" lon="10.723311480266261"><ele>316.0</ele><time>2026-04-19T10:28:35Z</time></trkpt><trkpt lat="43.43540969216642" lon="10.723376295098424"><ele>316.0</ele><time>2026-04-19T10:28:38Z</time></trkpt><trkpt lat="43.43540152255274" lon="10.723468627106037"><ele>316.0</ele><time>2026-04-19T10:28:40Z</time></trkpt><trkpt lat="43.435320525685526" lon="10.72340091683847"><ele>316.0</ele><time>2026-04-19T10:28:44Z</time></trkpt><trkpt lat="43.43525832893497" lon="10.723336221573149"><ele>318.5</ele><time>2026-04-19T10:28:46Z</time></trkpt><trkpt lat="43.43521782173014" lon="10.723263618117636"><ele>321.0</ele><time>2026-04-19T10:28:48Z</time></trkpt><trkpt lat="43.435195864129824" lon="10.723146457834485"><ele>323.5</ele><time>2026-04-19T10:28:51Z</time></trkpt><trkpt lat="43.435177269363976" lon="10.723032314237429"><ele>326.0</ele><time>2026-04-19T10:28:53Z</time></trkpt><trkpt lat="43.435167550783774" lon="10.722859774232312"><ele>328.5</ele><time>2026-04-19T10:28:55Z</time></trkpt><trkpt lat="43.435152818539976" lon="10.722760654398687"><ele>331.0</ele><time>2026-04-19T10:28:56Z</time></trkpt><trkpt lat="43.43513707824238" lon="10.722654752132454"><ele>332.3333333333333</ele><time>2026-04-19T10:28:57Z</time></trkpt><trkpt lat="43.435124457675926" lon="10.722545447407294"><ele>333.66666666666663</ele><time>2026-04-19T10:28:58Z</time></trkpt><trkpt lat="43.4351177282977" lon="10.722451797238346"><ele>335.0</ele><time>2026-04-19T10:28:59Z</time></trkpt><trkpt lat="43.43512019473915" lon="10.722352120976176"><ele>336.3333333333333</ele><time>2026-04-19T10:29:00Z</time></trkpt><trkpt lat="43.43512115491019" lon="10.722241650403769"><ele>337.6666666666667</ele><time>2026-04-19T10:29:01Z</time></trkpt><trkpt lat="43.43511711463328" lon="10.722128636788307"><ele>339.0</ele><time>2026-04-19T10:29:02Z</time></trkpt><trkpt lat="43.43509477406462" lon="10.722032269214482"><ele>339.0</ele><time>2026-04-19T10:29:03Z</time></trkpt><trkpt lat="43.43514635931719" lon="10.721926784455874"><ele>339.0</ele><time>2026-04-19T10:29:06Z</time></trkpt><trkpt lat="43.435245630704976" lon="10.721838953934624"><ele>339.0</ele><time>2026-04-19T10:29:08Z</time></trkpt><trkpt lat="43.435278614497534" lon="10.721741102478054"><ele>339.0</ele><time>2026-04-19T10:29:09Z</time></trkpt><trkpt lat="43.435299211686356" lon="10.721589261745017"><ele>339.0</ele><time>2026-04-19T10:29:11Z</time></trkpt><trkpt lat="43.43529629217307" lon="10.721497623536795"><ele>340.3333333333333</ele><time>2026-04-19T10:29:13Z</time></trkpt><trkpt lat="43.43529588731641" lon="10.721395584237088"><ele>341.6666666666667</ele><time>2026-04-19T10:29:16Z</time></trkpt><trkpt lat="43.435317706583916" lon="10.72128563507002"><ele>343.0</ele><time>2026-04-19T10:29:18Z</time></trkpt><trkpt lat="43.43530716411741" lon="10.721167232719546"><ele>344.33333333333337</ele><time>2026-04-19T10:29:20Z</time></trkpt><trkpt lat="43.43529510458785" lon="10.721067968855063"><ele>345.6666666666667</ele><time>2026-04-19T10:29:22Z</time></trkpt><trkpt lat="43.435264996872014" lon="10.72097026347073"><ele>347.0</ele><time>2026-04-19T10:29:24Z</time></trkpt><trkpt lat="43.43524800431756" lon="10.720835805390113"><ele>348.1666666666667</ele><time>2026-04-19T10:29:25.999Z</time></trkpt><trkpt lat="43.435227674582265" lon="10.720663139413327"><ele>349.33333333333337</ele><time>2026-04-19T10:29:27.999Z</time></trkpt><trkpt lat="43.43521691698845" lon="10.720565696571045"><ele>350.5</ele><time>2026-04-19T10:29:28.999Z</time></trkpt><trkpt lat="43.43518944270401" lon="10.72046257025645"><ele>351.6666666666667</ele><time>2026-04-19T10:29:29.999Z</time></trkpt><trkpt lat="43.435174488959504" lon="10.72035170391826"><ele>352.8333333333333</ele><time>2026-04-19T10:29:30.999Z</time></trkpt><trkpt lat="43.43515612230472" lon="10.720244258406234"><ele>354.0</ele><time>2026-04-19T10:29:31.999Z</time></trkpt><trkpt lat="43.435136820270756" lon="10.72013353141449"><ele>354.5</ele><time>2026-04-19T10:29:32.999Z</time></trkpt><trkpt lat="43.43512208075452" lon="10.720023727978843"><ele>355.0</ele><time>2026-04-19T10:29:33.999Z</time></trkpt><trkpt lat="43.43513294091112" lon="10.719905950285618"><ele>355.5</ele><time>2026-04-19T10:29:34.999Z</time></trkpt><trkpt lat="43.435166989520525" lon="10.719802989097058"><ele>356.0</ele><time>2026-04-19T10:29:35.999Z</time></trkpt><trkpt lat="43.43521092129295" lon="10.719711705266572"><ele>356.5</ele><time>2026-04-19T10:29:36.999Z</time></trkpt><trkpt lat="43.43524041993904" lon="10.719611729189836"><ele>357.0</ele><time>2026-04-19T10:29:37.999Z</time></trkpt><trkpt lat="43.43524685685642" lon="10.719509015136813"><ele>357.0</ele><time>2026-04-19T10:29:38.999Z</time></trkpt><trkpt lat="43.43523577472926" lon="10.719406368091528"><ele>357.0</ele><time>2026-04-19T10:29:39.999Z</time></trkpt><trkpt lat="43.4352235997063" lon="10.719304650890754"><ele>357.0</ele><time>2026-04-19T10:29:40.999Z</time></trkpt><trkpt lat="43.43520312601297" lon="10.719204367784473"><ele>357.0</ele><time>2026-04-19T10:29:41.999Z</time></trkpt><trkpt lat="43.435179659711736" lon="10.719096890646233"><ele>357.0</ele><time>2026-04-19T10:29:42.999Z</time></trkpt><trkpt lat="43.43515491418423" lon="10.718995590230922"><ele>357.0</ele><time>2026-04-19T10:29:43.999Z</time></trkpt><trkpt lat="43.435131872419575" lon="10.718895831216418"><ele>358.1666666666667</ele><time>2026-04-19T10:29:44.999Z</time></trkpt><trkpt lat="43.43510797795538" lon="10.718796123459818"><ele>359.3333333333333</ele><time>2026-04-19T10:29:45.999Z</time></trkpt><trkpt lat="43.43509110840288" lon="10.71869512215957"><ele>360.5</ele><time>2026-04-19T10:29:46.999Z</time></trkpt><trkpt lat="43.43505851458907" lon="10.718591820855583"><ele>361.66666666666663</ele><time>2026-04-19T10:29:47.999Z</time></trkpt><trkpt lat="43.43501854882846" lon="10.718484819670856"><ele>362.8333333333333</ele><time>2026-04-19T10:29:48.999Z</time></trkpt><trkpt lat="43.43498698066036" lon="10.718366726594827"><ele>364.0</ele><time>2026-04-19T10:29:49.999Z</time></trkpt><trkpt lat="43.43494730701614" lon="10.718247348918165"><ele>365.0</ele><time>2026-04-19T10:29:50.999Z</time></trkpt><trkpt lat="43.43490669441613" lon="10.718115322282388"><ele>366.0</ele><time>2026-04-19T10:29:51.999Z</time></trkpt><trkpt lat="43.43487091449373" lon="10.717992163317035"><ele>367.0</ele><time>2026-04-19T10:29:52.999Z</time></trkpt><trkpt lat="43.434844080201174" lon="10.717879796008942"><ele>368.0</ele><time>2026-04-19T10:29:53.999Z</time></trkpt><trkpt lat="43.43481039960408" lon="10.717772300533527"><ele>369.0</ele><time>2026-04-19T10:29:55Z</time></trkpt><trkpt lat="43.43478231902777" lon="10.717658738064621"><ele>369.5</ele><time>2026-04-19T10:29:56Z</time></trkpt><trkpt lat="43.43474408042232" lon="10.717552929191529"><ele>370.0</ele><time>2026-04-19T10:29:57Z</time></trkpt><trkpt lat="43.434708888015095" lon="10.717457878224405"><ele>370.5</ele><time>2026-04-19T10:29:58Z</time></trkpt><trkpt lat="43.434676564409315" lon="10.717363798537585"><ele>371.0</ele><time>2026-04-19T10:29:59Z</time></trkpt><trkpt lat="43.43464131972128" lon="10.717243113470715"><ele>371.5</ele><time>2026-04-19T10:30:00Z</time></trkpt><trkpt lat="43.43463159335709" lon="10.717134152263965"><ele>372.0</ele><time>2026-04-19T10:30:01Z</time></trkpt><trkpt lat="43.4346238786123" lon="10.717021196542275"><ele>374.3333333333333</ele><time>2026-04-19T10:30:02Z</time></trkpt><trkpt lat="43.434617073165946" lon="10.716916453752672"><ele>376.66666666666663</ele><time>2026-04-19T10:30:03Z</time></trkpt><trkpt lat="43.43461104550478" lon="10.716747420794777"><ele>379.0</ele><time>2026-04-19T10:30:05Z</time></trkpt><trkpt lat="43.43458547874411" lon="10.716650318093055"><ele>381.3333333333333</ele><time>2026-04-19T10:30:06Z</time></trkpt><trkpt lat="43.43455030356224" lon="10.71656152485698"><ele>383.66666666666663</ele><time>2026-04-19T10:30:07Z</time></trkpt><trkpt lat="43.434514669077345" lon="10.716480590960037"><ele>386.0</ele><time>2026-04-19T10:30:08Z</time></trkpt><trkpt lat="43.434477142119945" lon="10.716402185710606"><ele>387.0</ele><time>2026-04-19T10:30:09Z</time></trkpt><trkpt lat="43.43440659574431" lon="10.716268320127963"><ele>388.0</ele><time>2026-04-19T10:30:11Z</time></trkpt><trkpt lat="43.43433852597334" lon="10.71615834951055"><ele>389.0</ele><time>2026-04-19T10:30:13Z</time></trkpt><trkpt lat="43.43425143274012" lon="10.716064784509935"><ele>390.0</ele><time>2026-04-19T10:30:15Z</time></trkpt><trkpt lat="43.43417235905187" lon="10.715972793781575"><ele>391.0</ele><time>2026-04-19T10:30:17Z</time></trkpt><trkpt lat="43.434070842805575" lon="10.715894567945018"><ele>391.4285714285714</ele><time>2026-04-19T10:30:19Z</time></trkpt><trkpt lat="43.434009474546386" lon="10.715868820907913"><ele>391.85714285714283</ele><time>2026-04-19T10:30:20Z</time></trkpt><trkpt lat="43.4339483570718" lon="10.715843179086136"><ele>392.2857142857143</ele><time>2026-04-19T10:30:21Z</time></trkpt><trkpt lat="43.433882820486225" lon="10.715817212613638"><ele>392.71428571428567</ele><time>2026-04-19T10:30:22Z</time></trkpt><trkpt lat="43.43382001202681" lon="10.715794763977163"><ele>393.14285714285717</ele><time>2026-04-19T10:30:23Z</time></trkpt><trkpt lat="43.43375381475456" lon="10.715772433157289"><ele>393.57142857142856</ele><time>2026-04-19T10:30:24Z</time></trkpt><trkpt lat="43.43368604176418" lon="10.715753589210612"><ele>394.0</ele><time>2026-04-19T10:30:25Z</time></trkpt><trkpt lat="43.433614933156406" lon="10.715737245790855"><ele>395.6666666666667</ele><time>2026-04-19T10:30:26Z</time></trkpt><trkpt lat="43.4335423655157" lon="10.715715847070745"><ele>397.33333333333337</ele><time>2026-04-19T10:30:27Z</time></trkpt><trkpt lat="43.433473626181375" lon="10.715698267085003"><ele>399.0</ele><time>2026-04-19T10:30:28Z</time></trkpt><trkpt lat="43.43340973203309" lon="10.715680849550088"><ele>400.66666666666663</ele><time>2026-04-19T10:30:29Z</time></trkpt><trkpt lat="43.433306128652454" lon="10.715654671360186"><ele>402.3333333333333</ele><time>2026-04-19T10:30:31Z</time></trkpt><trkpt lat="43.433221175478735" lon="10.715595294635966"><ele>404.0</ele><time>2026-04-19T10:30:33Z</time></trkpt><trkpt lat="43.43311122367707" lon="10.715533272848395"><ele>404.0</ele><time>2026-04-19T10:30:35Z</time></trkpt><trkpt lat="43.4330534936092" lon="10.715493883988545"><ele>404.0</ele><time>2026-04-19T10:30:36Z</time></trkpt><trkpt lat="43.43299741752184" lon="10.715451664099831"><ele>404.0</ele><time>2026-04-19T10:30:37Z</time></trkpt><trkpt lat="43.432898439426936" lon="10.715364255816686"><ele>404.0</ele><time>2026-04-19T10:30:39Z</time></trkpt><trkpt lat="43.43279362016069" lon="10.715281985191604"><ele>404.0</ele><time>2026-04-19T10:30:41Z</time></trkpt><trkpt lat="43.432717973824566" lon="10.715171997256789"><ele>404.79999999999995</ele><time>2026-04-19T10:30:43Z</time></trkpt><trkpt lat="43.43264977584588" lon="10.715084737016337"><ele>405.59999999999997</ele><time>2026-04-19T10:30:45Z</time></trkpt><trkpt lat="43.432575025363384" lon="10.714977986883037"><ele>406.4</ele><time>2026-04-19T10:30:47Z</time></trkpt><trkpt lat="43.432499203765516" lon="10.714866427669275"><ele>407.2</ele><time>2026-04-19T10:30:49Z</time></trkpt><trkpt lat="43.43242837774005" lon="10.714763378764587"><ele>408.0</ele><time>2026-04-19T10:30:51Z</time></trkpt><trkpt lat="43.43236544343348" lon="10.714682569719075"><ele>408.0</ele><time>2026-04-19T10:30:52Z</time></trkpt><trkpt lat="43.43230584903852" lon="10.714618580309327"><ele>408.0</ele><time>2026-04-19T10:30:53Z</time></trkpt><trkpt lat="43.43224259712623" lon="10.714579778181594"><ele>408.0</ele><time>2026-04-19T10:30:54Z</time></trkpt><trkpt lat="43.432194445661324" lon="10.714516591735174"><ele>408.0</ele><time>2026-04-19T10:30:55Z</time></trkpt><trkpt lat="43.43214047822124" lon="10.714465398486057"><ele>408.0</ele><time>2026-04-19T10:30:56Z</time></trkpt><trkpt lat="43.43208382252376" lon="10.714419708897779"><ele>408.0</ele><time>2026-04-19T10:30:57Z</time></trkpt><trkpt lat="43.4319719315112" lon="10.714339442592479"><ele>409.2</ele><time>2026-04-19T10:30:59Z</time></trkpt><trkpt lat="43.43191903081077" lon="10.71428870738282"><ele>410.4</ele><time>2026-04-19T10:31:00Z</time></trkpt><trkpt lat="43.43185157186299" lon="10.71417919177881"><ele>411.59999999999997</ele><time>2026-04-19T10:31:02Z</time></trkpt><trkpt lat="43.43178850712979" lon="10.71408223724894"><ele>412.79999999999995</ele><time>2026-04-19T10:31:04Z</time></trkpt><trkpt lat="43.43171108636168" lon="10.713989661781142"><ele>414.0</ele><time>2026-04-19T10:31:06.001Z</time></trkpt><trkpt lat="43.431658372790956" lon="10.713890318260116"><ele>414.0</ele><time>2026-04-19T10:31:08.001Z</time></trkpt><trkpt lat="43.43159834406257" lon="10.713826262848135"><ele>414.0</ele><time>2026-04-19T10:31:10.001Z</time></trkpt><trkpt lat="43.43152517000663" lon="10.71379883341969"><ele>414.0</ele><time>2026-04-19T10:31:21.001Z</time></trkpt><trkpt lat="43.43145584371017" lon="10.713801782356425"><ele>414.0</ele><time>2026-04-19T10:31:28.001Z</time></trkpt><trkpt lat="43.43137001976228" lon="10.714029384406205"><ele>414.0</ele><time>2026-04-19T10:31:32.999Z</time></trkpt><trkpt lat="43.43132869348988" lon="10.71413403917799"><ele>415.0</ele><time>2026-04-19T10:31:35.999Z</time></trkpt><trkpt lat="43.43126773027163" lon="10.714217433162283"><ele>416.0</ele><time>2026-04-19T10:31:38.999Z</time></trkpt><trkpt lat="43.431210581700185" lon="10.71429104527388"><ele>417.0</ele><time>2026-04-19T10:31:41.999Z</time></trkpt><trkpt lat="43.431153814482585" lon="10.714373919393607"><ele>418.0</ele><time>2026-04-19T10:31:44.999Z</time></trkpt><trkpt lat="43.431097694640926" lon="10.714471389769491"><ele>419.0</ele><time>2026-04-19T10:31:48Z</time></trkpt><trkpt lat="43.43102487783921" lon="10.714580448016939"><ele>420.0</ele><time>2026-04-19T10:31:51Z</time></trkpt><trkpt lat="43.43096182006761" lon="10.71468215577199"><ele>422.1666666666667</ele><time>2026-04-19T10:31:54Z</time></trkpt><trkpt lat="43.43091923489158" lon="10.714755603666202"><ele>424.33333333333337</ele><time>2026-04-19T10:31:56Z</time></trkpt><trkpt lat="43.43085385243935" lon="10.714790434553532"><ele>426.5</ele><time>2026-04-19T10:31:58Z</time></trkpt><trkpt lat="43.43077445439208" lon="10.714813508223083"><ele>428.6666666666667</ele><time>2026-04-19T10:32:00Z</time></trkpt><trkpt lat="43.430669708316664" lon="10.71483086573264"><ele>430.83333333333337</ele><time>2026-04-19T10:32:02Z</time></trkpt><trkpt lat="43.43060478399609" lon="10.714840719165347"><ele>433.0</ele><time>2026-04-19T10:32:03Z</time></trkpt><trkpt lat="43.4304897742561" lon="10.71485207395827"><ele>434.4</ele><time>2026-04-19T10:32:05Z</time></trkpt><trkpt lat="43.430370847919896" lon="10.71485364933676"><ele>435.79999999999995</ele><time>2026-04-19T10:32:07Z</time></trkpt><trkpt lat="43.43024711436866" lon="10.714860541069516"><ele>437.2</ele><time>2026-04-19T10:32:09Z</time></trkpt><trkpt lat="43.43018409779314" lon="10.714893329938556"><ele>438.6</ele><time>2026-04-19T10:32:10Z</time></trkpt><trkpt lat="43.43007354275834" lon="10.714895092195324"><ele>440.0</ele><time>2026-04-19T10:32:12Z</time></trkpt><trkpt lat="43.42999022535603" lon="10.714943614125717"><ele>440.0</ele><time>2026-04-19T10:32:14Z</time></trkpt><trkpt lat="43.42990713782404" lon="10.715020094453937"><ele>440.0</ele><time>2026-04-19T10:32:16Z</time></trkpt><trkpt lat="43.42981344867782" lon="10.71509824365027"><ele>440.0</ele><time>2026-04-19T10:32:18Z</time></trkpt><trkpt lat="43.429750625821704" lon="10.715142990915352"><ele>440.0</ele><time>2026-04-19T10:32:19Z</time></trkpt><trkpt lat="43.42964981048148" lon="10.715234589829041"><ele>440.0</ele><time>2026-04-19T10:32:21Z</time></trkpt><trkpt lat="43.42955092033466" lon="10.715316551392046"><ele>442.0</ele><time>2026-04-19T10:32:23Z</time></trkpt><trkpt lat="43.429456470831205" lon="10.715384923619292"><ele>444.0</ele><time>2026-04-19T10:32:25Z</time></trkpt><trkpt lat="43.429360554643374" lon="10.715454273069776"><ele>446.0</ele><time>2026-04-19T10:32:27Z</time></trkpt><trkpt lat="43.42927395545854" lon="10.71551403968521"><ele>448.0</ele><time>2026-04-19T10:32:29Z</time></trkpt><trkpt lat="43.429193927946116" lon="10.71557642887941"><ele>450.0</ele><time>2026-04-19T10:32:31Z</time></trkpt><trkpt lat="43.429132965894865" lon="10.715658351688026"><ele>450.0</ele><time>2026-04-19T10:32:33Z</time></trkpt><trkpt lat="43.429050164090846" lon="10.715690077564082"><ele>450.0</ele><time>2026-04-19T10:32:35Z</time></trkpt><trkpt lat="43.42896990525877" lon="10.715706185297163"><ele>450.0</ele><time>2026-04-19T10:32:37Z</time></trkpt><trkpt lat="43.42885313664191" lon="10.71566366837088"><ele>450.0</ele><time>2026-04-19T10:32:39Z</time></trkpt><trkpt lat="43.42874730719756" lon="10.715577609264608"><ele>450.0</ele><time>2026-04-19T10:32:41Z</time></trkpt><trkpt lat="43.42868144305123" lon="10.715528358421526"><ele>450.4</ele><time>2026-04-19T10:32:42Z</time></trkpt><trkpt lat="43.428621926661016" lon="10.715474674890299"><ele>450.8</ele><time>2026-04-19T10:32:43Z</time></trkpt><trkpt lat="43.42856997545896" lon="10.71542332352407"><ele>451.20000000000005</ele><time>2026-04-19T10:32:44Z</time></trkpt><trkpt lat="43.42846653635746" lon="10.715337497572806"><ele>451.6</ele><time>2026-04-19T10:32:46.001Z</time></trkpt><trkpt lat="43.42837292753825" lon="10.715257032643853"><ele>452.0</ele><time>2026-04-19T10:32:48.001Z</time></trkpt><trkpt lat="43.42830189533345" lon="10.715170367351348"><ele>452.0</ele><time>2026-04-19T10:32:50.001Z</time></trkpt><trkpt lat="43.428219811738614" lon="10.715083140053304"><ele>452.00000000000006</ele><time>2026-04-19T10:32:52.001Z</time></trkpt><trkpt lat="43.42813329919912" lon="10.71499861486395"><ele>452.00000000000006</ele><time>2026-04-19T10:32:54.001Z</time></trkpt><trkpt lat="43.428030296596134" lon="10.714907563923013"><ele>452.0</ele><time>2026-04-19T10:32:56.001Z</time></trkpt><trkpt lat="43.42797212483304" lon="10.714874243458992"><ele>452.0</ele><time>2026-04-19T10:32:57.001Z</time></trkpt><trkpt lat="43.427910936162526" lon="10.714843676850586"><ele>452.40000000000003</ele><time>2026-04-19T10:32:58.001Z</time></trkpt><trkpt lat="43.42778765967396" lon="10.714779836800075"><ele>452.80000000000007</ele><time>2026-04-19T10:33:00.001Z</time></trkpt><trkpt lat="43.4277277010212" lon="10.714742776666597"><ele>453.2</ele><time>2026-04-19T10:33:01.001Z</time></trkpt><trkpt lat="43.4276296103266" lon="10.714670584528177"><ele>453.6</ele><time>2026-04-19T10:33:03.001Z</time></trkpt><trkpt lat="43.427542328965785" lon="10.714595679415222"><ele>454.0</ele><time>2026-04-19T10:33:05.001Z</time></trkpt><trkpt lat="43.42749088571292" lon="10.714534396218703"><ele>454.00000000000006</ele><time>2026-04-19T10:33:07.001Z</time></trkpt><trkpt lat="43.42741289104968" lon="10.714445546808832"><ele>454.0</ele><time>2026-04-19T10:33:10.001Z</time></trkpt><trkpt lat="43.42734840122397" lon="10.714394289424607"><ele>454.0</ele><time>2026-04-19T10:33:12.001Z</time></trkpt><trkpt lat="43.427279616036046" lon="10.714343741730755"><ele>454.0</ele><time>2026-04-19T10:33:14.001Z</time></trkpt><trkpt lat="43.427211526180656" lon="10.714307874052718"><ele>454.00000000000006</ele><time>2026-04-19T10:33:16.001Z</time></trkpt><trkpt lat="43.42712418121322" lon="10.714301621888621"><ele>454.0</ele><time>2026-04-19T10:33:18.001Z</time></trkpt><trkpt lat="43.42702941679148" lon="10.714340724785902"><ele>455.0</ele><time>2026-04-19T10:33:20.001Z</time></trkpt><trkpt lat="43.42695050891919" lon="10.714393598321745"><ele>456.00000000000006</ele><time>2026-04-19T10:33:22.001Z</time></trkpt><trkpt lat="43.42688018752532" lon="10.71442493529135"><ele>457.0</ele><time>2026-04-19T10:33:24.001Z</time></trkpt><trkpt lat="43.426815715863576" lon="10.714454154169282"><ele>458.0</ele><time>2026-04-19T10:33:26.001Z</time></trkpt><trkpt lat="43.426753665640895" lon="10.714490406962039"><ele>459.00000000000006</ele><time>2026-04-19T10:33:28.001Z</time></trkpt><trkpt lat="43.4266911411475" lon="10.714525441217692"><ele>460.0</ele><time>2026-04-19T10:33:30.001Z</time></trkpt><trkpt lat="43.426615997358475" lon="10.71455263155293"><ele>461.0</ele><time>2026-04-19T10:33:32.001Z</time></trkpt><trkpt lat="43.42653451348273" lon="10.714585068087302"><ele>460.99999999999994</ele><time>2026-04-19T10:33:34.001Z</time></trkpt><trkpt lat="43.42646039093943" lon="10.714616928305496"><ele>461.0</ele><time>2026-04-19T10:33:36.001Z</time></trkpt><trkpt lat="43.426415431023756" lon="10.714684711519435"><ele>461.0</ele><time>2026-04-19T10:33:37.999Z</time></trkpt><trkpt lat="43.42638264901136" lon="10.714772610891881"><ele>461.0</ele><time>2026-04-19T10:33:39.999Z</time></trkpt><trkpt lat="43.42633206044696" lon="10.71485565153254"><ele>460.99999999999994</ele><time>2026-04-19T10:33:42.999Z</time></trkpt><trkpt lat="43.42627447016184" lon="10.71495978973814"><ele>461.0</ele><time>2026-04-19T10:33:45.999Z</time></trkpt><trkpt lat="43.426218865050366" lon="10.715060133951726"><ele>462.99999999999994</ele><time>2026-04-19T10:33:47.999Z</time></trkpt><trkpt lat="43.42613750457727" lon="10.71512767289859"><ele>465.0</ele><time>2026-04-19T10:33:49.999Z</time></trkpt><trkpt lat="43.42605852982181" lon="10.715125481739298"><ele>467.0</ele><time>2026-04-19T10:33:51.999Z</time></trkpt><trkpt lat="43.42598304396907" lon="10.715056878798203"><ele>469.0</ele><time>2026-04-19T10:33:54Z</time></trkpt><trkpt lat="43.425929445266654" lon="10.714967492831677"><ele>470.99999999999994</ele><time>2026-04-19T10:33:56Z</time></trkpt><trkpt lat="43.4258558475413" lon="10.71487550945368"><ele>473.0</ele><time>2026-04-19T10:33:58Z</time></trkpt><trkpt lat="43.42578547941783" lon="10.714809260779004"><ele>472.99999999999994</ele><time>2026-04-19T10:34:00Z</time></trkpt><trkpt lat="43.42573218324216" lon="10.714732875766657"><ele>473.0</ele><time>2026-04-19T10:34:02Z</time></trkpt><trkpt lat="43.42566254871007" lon="10.714688830943949"><ele>473.0</ele><time>2026-04-19T10:34:04Z</time></trkpt><trkpt lat="43.425574391003614" lon="10.714625434443803"><ele>473.0</ele><time>2026-04-19T10:34:07Z</time></trkpt><trkpt lat="43.42549995022364" lon="10.714614316645271"><ele>472.99999999999994</ele><time>2026-04-19T10:34:09Z</time></trkpt><trkpt lat="43.42542710318397" lon="10.714630688362218"><ele>473.0</ele><time>2026-04-19T10:34:11Z</time></trkpt><trkpt lat="43.425360631026784" lon="10.714613775864887"><ele>474.16666666666663</ele><time>2026-04-19T10:34:13Z</time></trkpt><trkpt lat="43.42528685632491" lon="10.714603870392592"><ele>475.3333333333333</ele><time>2026-04-19T10:34:15Z</time></trkpt><trkpt lat="43.4252127492897" lon="10.71460882350387"><ele>476.5</ele><time>2026-04-19T10:34:17Z</time></trkpt><trkpt lat="43.42513085059603" lon="10.714617345201445"><ele>477.66666666666663</ele><time>2026-04-19T10:34:19Z</time></trkpt><trkpt lat="43.425060452230646" lon="10.714627499908751"><ele>478.8333333333333</ele><time>2026-04-19T10:34:21Z</time></trkpt><trkpt lat="43.42497626779744" lon="10.714650129724944"><ele>480.0</ele><time>2026-04-19T10:34:24Z</time></trkpt><trkpt lat="43.424905754994015" lon="10.71467781271958"><ele>480.0</ele><time>2026-04-19T10:34:27Z</time></trkpt><trkpt lat="43.42483227212115" lon="10.714712605248073"><ele>480.0</ele><time>2026-04-19T10:34:30Z</time></trkpt><trkpt lat="43.42476715887493" lon="10.714703238138425"><ele>480.0</ele><time>2026-04-19T10:34:33Z</time></trkpt><trkpt lat="43.424700327661064" lon="10.714666438674882"><ele>480.0</ele><time>2026-04-19T10:34:38Z</time></trkpt><trkpt lat="43.424629905024936" lon="10.71465952756966"><ele>480.0</ele><time>2026-04-19T10:35:17.001Z</time></trkpt><trkpt lat="43.42454439177809" lon="10.714629423399744"><ele>480.0</ele><time>2026-04-19T10:35:20.001Z</time></trkpt><trkpt lat="43.424469642359206" lon="10.714594718008597"><ele>480.6666666666667</ele><time>2026-04-19T10:35:22.001Z</time></trkpt><trkpt lat="43.42440018738036" lon="10.714544953866854"><ele>481.33333333333337</ele><time>2026-04-19T10:35:25.001Z</time></trkpt><trkpt lat="43.42432825696821" lon="10.714494062923752"><ele>482.0</ele><time>2026-04-19T10:35:28.001Z</time></trkpt><trkpt lat="43.42426349957091" lon="10.714450109647712"><ele>482.6666666666667</ele><time>2026-04-19T10:35:31.001Z</time></trkpt><trkpt lat="43.42419637756782" lon="10.714397678219418"><ele>483.33333333333337</ele><time>2026-04-19T10:35:35.001Z</time></trkpt><trkpt lat="43.42412775651816" lon="10.71434915836321"><ele>484.0</ele><time>2026-04-19T10:35:42.001Z</time></trkpt><trkpt lat="43.42406322532816" lon="10.714332450296272"><ele>486.2857142857143</ele><time>2026-04-19T10:35:43.999Z</time></trkpt><trkpt lat="43.423994107583646" lon="10.71433150883803"><ele>488.57142857142856</ele><time>2026-04-19T10:35:45.999Z</time></trkpt><trkpt lat="43.42391487024177" lon="10.714329393157765"><ele>490.85714285714283</ele><time>2026-04-19T10:35:47.999Z</time></trkpt><trkpt lat="43.423841623372034" lon="10.714321609688183"><ele>493.1428571428571</ele><time>2026-04-19T10:35:50Z</time></trkpt><trkpt lat="43.4237642103316" lon="10.714302405473845"><ele>495.42857142857144</ele><time>2026-04-19T10:35:52Z</time></trkpt><trkpt lat="43.42369526668096" lon="10.714279083614642"><ele>497.71428571428567</ele><time>2026-04-19T10:35:54Z</time></trkpt><trkpt lat="43.42362079116807" lon="10.71425665466437"><ele>500.0</ele><time>2026-04-19T10:35:56Z</time></trkpt><trkpt lat="43.42352698899173" lon="10.714236710319216"><ele>500.8333333333333</ele><time>2026-04-19T10:35:59Z</time></trkpt><trkpt lat="43.42345219070229" lon="10.714221577945205"><ele>501.66666666666663</ele><time>2026-04-19T10:36:01Z</time></trkpt><trkpt lat="43.423367450429566" lon="10.714212264835872"><ele>502.5</ele><time>2026-04-19T10:36:03Z</time></trkpt><trkpt lat="43.423290016128654" lon="10.714226431869463"><ele>503.33333333333337</ele><time>2026-04-19T10:36:05Z</time></trkpt><trkpt lat="43.42320260187892" lon="10.714247265672697"><ele>504.1666666666667</ele><time>2026-04-19T10:36:07Z</time></trkpt><trkpt lat="43.423115926744885" lon="10.714276277302101"><ele>505.0</ele><time>2026-04-19T10:36:09Z</time></trkpt><trkpt lat="43.423036987049045" lon="10.714296833792378"><ele>506.0</ele><time>2026-04-19T10:36:11Z</time></trkpt><trkpt lat="43.42294754200976" lon="10.714305455132006"><ele>507.0</ele><time>2026-04-19T10:36:13Z</time></trkpt><trkpt lat="43.42285346155074" lon="10.714297970422972"><ele>508.0</ele><time>2026-04-19T10:36:15Z</time></trkpt><trkpt lat="43.42277109375295" lon="10.714275735965558"><ele>509.0</ele><time>2026-04-19T10:36:17Z</time></trkpt><trkpt lat="43.4226626588046" lon="10.714277891185146"><ele>510.0</ele><time>2026-04-19T10:36:19Z</time></trkpt><trkpt lat="43.4225646571515" lon="10.7142975034692"><ele>510.0</ele><time>2026-04-19T10:36:21Z</time></trkpt><trkpt lat="43.42246520521069" lon="10.714347053201605"><ele>510.0</ele><time>2026-04-19T10:36:23Z</time></trkpt><trkpt lat="43.42238736329599" lon="10.714405103510137"><ele>510.0</ele><time>2026-04-19T10:36:25Z</time></trkpt><trkpt lat="43.42231412564318" lon="10.714460638268926"><ele>510.0</ele><time>2026-04-19T10:36:27Z</time></trkpt><trkpt lat="43.422244677200034" lon="10.714510187532667"><ele>510.0</ele><time>2026-04-19T10:36:29Z</time></trkpt><trkpt lat="43.42218406860072" lon="10.714554657169863"><ele>510.0</ele><time>2026-04-19T10:36:31Z</time></trkpt><trkpt lat="43.42212336964548" lon="10.714597025514689"><ele>509.6</ele><time>2026-04-19T10:36:33Z</time></trkpt><trkpt lat="43.42205486013684" lon="10.714659913216781"><ele>509.2</ele><time>2026-04-19T10:36:35Z</time></trkpt><trkpt lat="43.42198419054159" lon="10.714709308316408"><ele>508.79999999999995</ele><time>2026-04-19T10:36:37Z</time></trkpt><trkpt lat="43.42189134749713" lon="10.714747905797472"><ele>508.4</ele><time>2026-04-19T10:36:39Z</time></trkpt><trkpt lat="43.421789247724995" lon="10.714760368161127"><ele>508.0</ele><time>2026-04-19T10:36:41Z</time></trkpt><trkpt lat="43.42169186889809" lon="10.714748111219022"><ele>508.00000000000006</ele><time>2026-04-19T10:36:43.001Z</time></trkpt><trkpt lat="43.42159475684561" lon="10.714710883455465"><ele>508.0</ele><time>2026-04-19T10:36:45.001Z</time></trkpt><trkpt lat="43.42150253345441" lon="10.714674453320239"><ele>508.0</ele><time>2026-04-19T10:36:47.001Z</time></trkpt><trkpt lat="43.421422604962835" lon="10.71466492991704"><ele>508.0</ele><time>2026-04-19T10:36:49.001Z</time></trkpt><trkpt lat="43.42135220205038" lon="10.714630673488278"><ele>508.00000000000006</ele><time>2026-04-19T10:36:51.001Z</time></trkpt><trkpt lat="43.42128567064522" lon="10.71458730627088"><ele>508.0</ele><time>2026-04-19T10:36:53.001Z</time></trkpt><trkpt lat="43.42121032950398" lon="10.714536769326331"><ele>508.00000000000006</ele><time>2026-04-19T10:36:55.001Z</time></trkpt><trkpt lat="43.42114629624637" lon="10.71445929762468"><ele>508.0</ele><time>2026-04-19T10:36:57.001Z</time></trkpt><trkpt lat="43.42108207893737" lon="10.714369238840462"><ele>508.0</ele><time>2026-04-19T10:36:59.001Z</time></trkpt><trkpt lat="43.42104538977219" lon="10.71427372957725"><ele>508.0</ele><time>2026-04-19T10:37:01.001Z</time></trkpt><trkpt lat="43.420996189125" lon="10.714175598597361"><ele>508.00000000000006</ele><time>2026-04-19T10:37:03.001Z</time></trkpt><trkpt lat="43.42093838305479" lon="10.71405943621894"><ele>508.0</ele><time>2026-04-19T10:37:05.001Z</time></trkpt><trkpt lat="43.420875442474944" lon="10.713913358580289"><ele>508.00000000000006</ele><time>2026-04-19T10:37:07.001Z</time></trkpt><trkpt lat="43.42081786210569" lon="10.71376032558184"><ele>508.0</ele><time>2026-04-19T10:37:09.001Z</time></trkpt><trkpt lat="43.42077124324124" lon="10.713671252324843"><ele>508.0</ele><time>2026-04-19T10:37:11.001Z</time></trkpt><trkpt lat="43.42070917028635" lon="10.713585519460237"><ele>508.0</ele><time>2026-04-19T10:37:14.001Z</time></trkpt><trkpt lat="43.42064013591041" lon="10.713540498510053"><ele>508.00000000000006</ele><time>2026-04-19T10:37:16.001Z</time></trkpt><trkpt lat="43.420566317082915" lon="10.713508509566445"><ele>508.0</ele><time>2026-04-19T10:37:18.001Z</time></trkpt><trkpt lat="43.42049668219979" lon="10.713483395031188"><ele>508.1666666666667</ele><time>2026-04-19T10:37:20.001Z</time></trkpt><trkpt lat="43.42042518991595" lon="10.71345168530933"><ele>508.33333333333337</ele><time>2026-04-19T10:37:23.001Z</time></trkpt><trkpt lat="43.42036035637789" lon="10.713416124865772"><ele>508.5</ele><time>2026-04-19T10:37:25.001Z</time></trkpt><trkpt lat="43.42027121368259" lon="10.713364151065225"><ele>508.66666666666663</ele><time>2026-04-19T10:37:27.001Z</time></trkpt><trkpt lat="43.4201816558319" lon="10.713308377237988"><ele>508.8333333333333</ele><time>2026-04-19T10:37:29.001Z</time></trkpt><trkpt lat="43.42009647894765" lon="10.713257054400701"><ele>509.0</ele><time>2026-04-19T10:37:31.001Z</time></trkpt><trkpt lat="43.420036569094016" lon="10.713190769578777"><ele>508.99999999999994</ele><time>2026-04-19T10:37:33.001Z</time></trkpt><trkpt lat="43.419979401305405" lon="10.713133684995771"><ele>509.0</ele><time>2026-04-19T10:37:35.001Z</time></trkpt><trkpt lat="43.419906276970025" lon="10.713047837822073"><ele>509.0</ele><time>2026-04-19T10:37:37.001Z</time></trkpt><trkpt lat="43.419845200381914" lon="10.712966486125787"><ele>509.0</ele><time>2026-04-19T10:37:40.001Z</time></trkpt><trkpt lat="43.419785961294124" lon="10.712871573024515"><ele>508.99999999999994</ele><time>2026-04-19T10:37:43.002Z</time></trkpt><trkpt lat="43.419725759953664" lon="10.71277672497353"><ele>509.0</ele><time>2026-04-19T10:37:46.002Z</time></trkpt><trkpt lat="43.419686123727054" lon="10.712696758791493"><ele>508.99999999999994</ele><time>2026-04-19T10:37:48.002Z</time></trkpt><trkpt lat="43.41964790542156" lon="10.712619962834719"><ele>509.0</ele><time>2026-04-19T10:37:50Z</time></trkpt><trkpt lat="43.419603559497524" lon="10.71252220685764"><ele>509.0</ele><time>2026-04-19T10:37:53Z</time></trkpt><trkpt lat="43.4195571477743" lon="10.712436929280987"><ele>509.0</ele><time>2026-04-19T10:37:55Z</time></trkpt><trkpt lat="43.41951315712621" lon="10.71234292976939"><ele>508.99999999999994</ele><time>2026-04-19T10:37:57Z</time></trkpt><trkpt lat="43.419454035619125" lon="10.712255943624376"><ele>509.0</ele><time>2026-04-19T10:37:59Z</time></trkpt><trkpt lat="43.419390927551206" lon="10.712189359467887"><ele>508.99999999999994</ele><time>2026-04-19T10:38:01Z</time></trkpt><trkpt lat="43.419321205061834" lon="10.712126278235912"><ele>509.0</ele><time>2026-04-19T10:38:03Z</time></trkpt><trkpt lat="43.419259454662665" lon="10.712072187129802"><ele>509.0</ele><time>2026-04-19T10:38:05Z</time></trkpt><trkpt lat="43.41919672699185" lon="10.71198409935609"><ele>509.0</ele><time>2026-04-19T10:38:08Z</time></trkpt><trkpt lat="43.41912105610087" lon="10.711908296884273"><ele>508.99999999999994</ele><time>2026-04-19T10:38:11Z</time></trkpt><trkpt lat="43.41906510573819" lon="10.711863267595128"><ele>509.0</ele><time>2026-04-19T10:38:13Z</time></trkpt><trkpt lat="43.41900699130764" lon="10.71178983897332"><ele>508.16666666666663</ele><time>2026-04-19T10:38:15Z</time></trkpt><trkpt lat="43.41895038190056" lon="10.711719533934309"><ele>507.3333333333333</ele><time>2026-04-19T10:38:17Z</time></trkpt><trkpt lat="43.418883230207456" lon="10.711647503796932"><ele>506.5</ele><time>2026-04-19T10:38:20Z</time></trkpt><trkpt lat="43.41883568809458" lon="10.711550893033994"><ele>505.66666666666663</ele><time>2026-04-19T10:38:23Z</time></trkpt><trkpt lat="43.418822726048425" lon="10.711463213612618"><ele>504.8333333333333</ele><time>2026-04-19T10:38:25Z</time></trkpt><trkpt lat="43.41882786276348" lon="10.711355442384852"><ele>504.0</ele><time>2026-04-19T10:38:27Z</time></trkpt><trkpt lat="43.418806523513624" lon="10.711239992802549"><ele>504.0</ele><time>2026-04-19T10:38:29Z</time></trkpt><trkpt lat="43.418795425734" lon="10.711129827270792"><ele>504.0</ele><time>2026-04-19T10:38:31Z</time></trkpt><trkpt lat="43.41878780500851" lon="10.711020688851839"><ele>504.0</ele><time>2026-04-19T10:38:33Z</time></trkpt><trkpt lat="43.41877181414345" lon="10.710924940114136"><ele>504.0</ele><time>2026-04-19T10:38:35Z</time></trkpt><trkpt lat="43.418752558146515" lon="10.710819429017407"><ele>504.0</ele><time>2026-04-19T10:38:38.001Z</time></trkpt><trkpt lat="43.41870513362852" lon="10.710711376121358"><ele>504.0</ele><time>2026-04-19T10:38:41.001Z</time></trkpt><trkpt lat="43.41864783306279" lon="10.710654478069134"><ele>505.6666666666667</ele><time>2026-04-19T10:38:43.001Z</time></trkpt><trkpt lat="43.41855952473517" lon="10.710640109896653"><ele>507.33333333333337</ele><time>2026-04-19T10:38:46.001Z</time></trkpt><trkpt lat="43.41847999131542" lon="10.710611724021637"><ele>509.0</ele><time>2026-04-19T10:38:48.001Z</time></trkpt><trkpt lat="43.418399571984786" lon="10.710552678820738"><ele>510.6666666666667</ele><time>2026-04-19T10:38:50.001Z</time></trkpt><trkpt lat="43.41834343045853" lon="10.710467414413321"><ele>512.3333333333334</ele><time>2026-04-19T10:38:52.001Z</time></trkpt><trkpt lat="43.418291062844666" lon="10.71038444989837"><ele>514.0</ele><time>2026-04-19T10:38:54.001Z</time></trkpt><trkpt lat="43.418241426110434" lon="10.710279798634136"><ele>513.1666666666667</ele><time>2026-04-19T10:38:56.001Z</time></trkpt><trkpt lat="43.41820179908346" lon="10.710211693715182"><ele>512.3333333333334</ele><time>2026-04-19T10:38:57.001Z</time></trkpt><trkpt lat="43.418146733168356" lon="10.710122909929744"><ele>511.5</ele><time>2026-04-19T10:38:59.001Z</time></trkpt><trkpt lat="43.41807836161149" lon="10.71003431006671"><ele>510.66666666666663</ele><time>2026-04-19T10:39:01.001Z</time></trkpt><trkpt lat="43.41801725304599" lon="10.709961408870965"><ele>509.8333333333333</ele><time>2026-04-19T10:39:03.001Z</time></trkpt><trkpt lat="43.417960666547366" lon="10.709896620653621"><ele>509.0</ele><time>2026-04-19T10:39:05.001Z</time></trkpt><trkpt lat="43.41790878713077" lon="10.709767282180628"><ele>508.99999999999994</ele><time>2026-04-19T10:39:08.001Z</time></trkpt><trkpt lat="43.41786044543547" lon="10.709633701679321"><ele>509.0</ele><time>2026-04-19T10:39:10.001Z</time></trkpt><trkpt lat="43.41783846349044" lon="10.7095472021825"><ele>509.0</ele><time>2026-04-19T10:39:13.001Z</time></trkpt><trkpt lat="43.417800009784216" lon="10.709452039129653"><ele>509.0</ele><time>2026-04-19T10:39:15.001Z</time></trkpt><trkpt lat="43.41774951818146" lon="10.709347680532368"><ele>508.99999999999994</ele><time>2026-04-19T10:39:17.001Z</time></trkpt><trkpt lat="43.417715163784024" lon="10.709233233250933"><ele>509.0</ele><time>2026-04-19T10:39:19.001Z</time></trkpt><trkpt lat="43.417689747962584" lon="10.709126899203321"><ele>509.66666666666663</ele><time>2026-04-19T10:39:21.001Z</time></trkpt><trkpt lat="43.41765765498657" lon="10.709032009580103"><ele>510.3333333333333</ele><time>2026-04-19T10:39:23.001Z</time></trkpt><trkpt lat="43.41761134306097" lon="10.70894414416705"><ele>511.0</ele><time>2026-04-19T10:39:25.001Z</time></trkpt><trkpt lat="43.41758176184607" lon="10.708833227590029"><ele>511.66666666666663</ele><time>2026-04-19T10:39:34.001Z</time></trkpt><trkpt lat="43.41754351221152" lon="10.708704868401208"><ele>512.3333333333334</ele><time>2026-04-19T10:39:36.001Z</time></trkpt><trkpt lat="43.41750861274313" lon="10.708572368519574"><ele>513.0</ele><time>2026-04-19T10:39:38.002Z</time></trkpt><trkpt lat="43.41747684176884" lon="10.708469647599564"><ele>512.5</ele><time>2026-04-19T10:39:41.002Z</time></trkpt><trkpt lat="43.417419494829716" lon="10.70840083434145"><ele>512.0</ele><time>2026-04-19T10:39:43.002Z</time></trkpt><trkpt lat="43.41735717517388" lon="10.708367662046616"><ele>511.5</ele><time>2026-04-19T10:39:46.002Z</time></trkpt><trkpt lat="43.41726226981976" lon="10.70837847307634"><ele>511.0</ele><time>2026-04-19T10:39:50.002Z</time></trkpt><trkpt lat="43.4171875262736" lon="10.708364277591771"><ele>510.5</ele><time>2026-04-19T10:39:53.002Z</time></trkpt><trkpt lat="43.41713128843703" lon="10.708320379953378"><ele>510.0</ele><time>2026-04-19T10:39:56Z</time></trkpt><trkpt lat="43.41704836110764" lon="10.70825315324775"><ele>510.0</ele><time>2026-04-19T10:39:59Z</time></trkpt><trkpt lat="43.41698780805854" lon="10.708181248467657"><ele>510.0</ele><time>2026-04-19T10:40:01Z</time></trkpt><trkpt lat="43.41689987917715" lon="10.70813229985886"><ele>510.0</ele><time>2026-04-19T10:40:04Z</time></trkpt><trkpt lat="43.41683844767788" lon="10.708162101764133"><ele>510.0</ele><time>2026-04-19T10:40:08Z</time></trkpt><trkpt lat="43.41677174882968" lon="10.708178906654204"><ele>510.0</ele><time>2026-04-19T10:40:11Z</time></trkpt><trkpt lat="43.416711810149465" lon="10.708257234904293"><ele>510.0</ele><time>2026-04-19T10:40:14Z</time></trkpt><trkpt lat="43.41665111636706" lon="10.708288891485381"><ele>510.0</ele><time>2026-04-19T10:40:25Z</time></trkpt><trkpt lat="43.41657267647102" lon="10.708279579868272"><ele>510.0</ele><time>2026-04-19T10:40:30Z</time></trkpt><trkpt lat="43.41650665127728" lon="10.708234549240439"><ele>510.0</ele><time>2026-04-19T10:40:38Z</time></trkpt><trkpt lat="43.41644320700619" lon="10.708195054778422"><ele>510.0</ele><time>2026-04-19T10:40:48.001Z</time></trkpt><trkpt lat="43.41638961516979" lon="10.70814715357671"><ele>510.0</ele><time>2026-04-19T10:40:54.001Z</time></trkpt><trkpt lat="43.41630295123148" lon="10.708054397552997"><ele>510.0</ele><time>2026-04-19T10:40:58.001Z</time></trkpt><trkpt lat="43.41623789484973" lon="10.707998967660737"><ele>510.5</ele><time>2026-04-19T10:41:00.001Z</time></trkpt><trkpt lat="43.41618173577755" lon="10.707947191447145"><ele>511.0</ele><time>2026-04-19T10:41:02.001Z</time></trkpt><trkpt lat="43.41611714781048" lon="10.707896243766626"><ele>511.5</ele><time>2026-04-19T10:41:04.001Z</time></trkpt><trkpt lat="43.416054015147516" lon="10.707828827031879"><ele>512.0</ele><time>2026-04-19T10:41:09.001Z</time></trkpt><trkpt lat="43.41599333313441" lon="10.70776865980262"><ele>512.5</ele><time>2026-04-19T10:41:13.001Z</time></trkpt><trkpt lat="43.41591770787797" lon="10.707729975856738"><ele>513.0</ele><time>2026-04-19T10:41:16.001Z</time></trkpt><trkpt lat="43.41584280465346" lon="10.707667151920168"><ele>513.0</ele><time>2026-04-19T10:41:19.001Z</time></trkpt><trkpt lat="43.415777294070104" lon="10.707616581304183"><ele>513.0</ele><time>2026-04-19T10:41:22.001Z</time></trkpt><trkpt lat="43.41571900082856" lon="10.707581223633548"><ele>513.0</ele><time>2026-04-19T10:41:27.001Z</time></trkpt><trkpt lat="43.4156585584894" lon="10.707544023224868"><ele>513.0</ele><time>2026-04-19T10:41:30.001Z</time></trkpt><trkpt lat="43.41559431562486" lon="10.707505245403718"><ele>513.0</ele><time>2026-04-19T10:41:32.001Z</time></trkpt><trkpt lat="43.41550632423396" lon="10.707488792248816"><ele>513.0</ele><time>2026-04-19T10:41:34.001Z</time></trkpt><trkpt lat="43.41541814911747" lon="10.707468561674672"><ele>510.6666666666667</ele><time>2026-04-19T10:41:36.001Z</time></trkpt><trkpt lat="43.41533585556395" lon="10.707445175776465"><ele>508.33333333333337</ele><time>2026-04-19T10:41:38.002Z</time></trkpt><trkpt lat="43.41526552536419" lon="10.707403110889816"><ele>506.0</ele><time>2026-04-19T10:41:40.002Z</time></trkpt><trkpt lat="43.415198209702424" lon="10.70733648188579"><ele>503.6666666666667</ele><time>2026-04-19T10:41:43.002Z</time></trkpt><trkpt lat="43.4151336452969" lon="10.707285317083334"><ele>501.33333333333337</ele><time>2026-04-19T10:41:46.002Z</time></trkpt><trkpt lat="43.415072607922625" lon="10.707205715393425"><ele>499.0</ele><time>2026-04-19T10:41:49.002Z</time></trkpt><trkpt lat="43.41502087539737" lon="10.707124783319555"><ele>499.00000000000006</ele><time>2026-04-19T10:41:52.002Z</time></trkpt><trkpt lat="43.4149587954785" lon="10.707059040285094"><ele>499.0</ele><time>2026-04-19T10:41:54.002Z</time></trkpt><trkpt lat="43.414896019947996" lon="10.706997382326783"><ele>499.0</ele><time>2026-04-19T10:41:56.002Z</time></trkpt><trkpt lat="43.414846263429844" lon="10.706909334412796"><ele>499.0</ele><time>2026-04-19T10:41:59.002Z</time></trkpt><trkpt lat="43.414801115150304" lon="10.706817455910063"><ele>499.00000000000006</ele><time>2026-04-19T10:42:02Z</time></trkpt><trkpt lat="43.414771717559255" lon="10.706728203932117"><ele>499.0</ele><time>2026-04-19T10:42:04Z</time></trkpt><trkpt lat="43.41474767298439" lon="10.7066303540288"><ele>498.4</ele><time>2026-04-19T10:42:06Z</time></trkpt><trkpt lat="43.41470873818279" lon="10.70655844279869"><ele>497.79999999999995</ele><time>2026-04-19T10:42:08Z</time></trkpt><trkpt lat="43.41464717456057" lon="10.706465119454567"><ele>497.20000000000005</ele><time>2026-04-19T10:42:10Z</time></trkpt><trkpt lat="43.41456915663494" lon="10.706379783543401"><ele>496.6</ele><time>2026-04-19T10:42:12Z</time></trkpt><trkpt lat="43.41448035403363" lon="10.706368068664709"><ele>496.0</ele><time>2026-04-19T10:42:14Z</time></trkpt><trkpt lat="43.41437575356631" lon="10.706356816426624"><ele>496.0</ele><time>2026-04-19T10:42:16Z</time></trkpt><trkpt lat="43.41426322708015" lon="10.706378500614077"><ele>496.0</ele><time>2026-04-19T10:42:18Z</time></trkpt><trkpt lat="43.414169092037966" lon="10.706369943331618"><ele>496.0</ele><time>2026-04-19T10:42:20Z</time></trkpt><trkpt lat="43.414086238362806" lon="10.706352498859145"><ele>496.0</ele><time>2026-04-19T10:42:22Z</time></trkpt><trkpt lat="43.41401054796383" lon="10.706331552408258"><ele>496.0</ele><time>2026-04-19T10:42:24Z</time></trkpt><trkpt lat="43.413920098458725" lon="10.706295410291812"><ele>496.0</ele><time>2026-04-19T10:42:27Z</time></trkpt><trkpt lat="43.41385842403478" lon="10.706244312178349"><ele>496.0</ele><time>2026-04-19T10:42:29Z</time></trkpt><trkpt lat="43.4138039784899" lon="10.706167871089878"><ele>496.0</ele><time>2026-04-19T10:42:31Z</time></trkpt><trkpt lat="43.41373777073817" lon="10.706079253957672"><ele>496.0</ele><time>2026-04-19T10:42:33Z</time></trkpt><trkpt lat="43.41366736084496" lon="10.705974540004682"><ele>496.0</ele><time>2026-04-19T10:42:35Z</time></trkpt><trkpt lat="43.41358253476545" lon="10.705853153215974"><ele>496.50000000000006</ele><time>2026-04-19T10:42:37Z</time></trkpt><trkpt lat="43.41353565466988" lon="10.705788575948418"><ele>497.0</ele><time>2026-04-19T10:42:38Z</time></trkpt><trkpt lat="43.413450478402204" lon="10.705687008203583"><ele>497.5</ele><time>2026-04-19T10:42:40Z</time></trkpt><trkpt lat="43.41340042066662" lon="10.705632899061792"><ele>498.0</ele><time>2026-04-19T10:42:42.001Z</time></trkpt><trkpt lat="43.413337275502556" lon="10.705544283934803"><ele>498.50000000000006</ele><time>2026-04-19T10:42:44.001Z</time></trkpt><trkpt lat="43.413277710566774" lon="10.705455076081192"><ele>499.0</ele><time>2026-04-19T10:42:46.001Z</time></trkpt><trkpt lat="43.41321961453028" lon="10.705370114476137"><ele>499.00000000000006</ele><time>2026-04-19T10:42:49.001Z</time></trkpt><trkpt lat="43.41314715281365" lon="10.705306472506972"><ele>499.0</ele><time>2026-04-19T10:42:51.001Z</time></trkpt><trkpt lat="43.4130596886624" lon="10.705294930298098"><ele>499.0</ele><time>2026-04-19T10:42:53.001Z</time></trkpt><trkpt lat="43.41298802856596" lon="10.705291220315763"><ele>499.0</ele><time>2026-04-19T10:42:55.001Z</time></trkpt><trkpt lat="43.41291826518442" lon="10.705280123569983"><ele>499.00000000000006</ele><time>2026-04-19T10:42:57.001Z</time></trkpt><trkpt lat="43.412845372228105" lon="10.705238912406374"><ele>499.0</ele><time>2026-04-19T10:43:00.001Z</time></trkpt><trkpt lat="43.41276480300736" lon="10.705224701771591"><ele>498.1666666666667</ele><time>2026-04-19T10:43:03.001Z</time></trkpt><trkpt lat="43.412693604469716" lon="10.705230547948446"><ele>497.33333333333337</ele><time>2026-04-19T10:43:07.001Z</time></trkpt><trkpt lat="43.4126098247072" lon="10.705247224283937"><ele>496.5</ele><time>2026-04-19T10:43:11.001Z</time></trkpt><trkpt lat="43.41252687904628" lon="10.705262342761516"><ele>495.66666666666663</ele><time>2026-04-19T10:43:14.001Z</time></trkpt><trkpt lat="43.412453762963665" lon="10.70529122509664"><ele>494.8333333333333</ele><time>2026-04-19T10:43:17.001Z</time></trkpt><trkpt lat="43.41239417465928" lon="10.70536783970633"><ele>494.0</ele><time>2026-04-19T10:43:20.001Z</time></trkpt><trkpt lat="43.41232877442133" lon="10.705469366002463"><ele>494.0</ele><time>2026-04-19T10:43:22.001Z</time></trkpt><trkpt lat="43.41227603649904" lon="10.705518536024321"><ele>494.0</ele><time>2026-04-19T10:43:26.001Z</time></trkpt><trkpt lat="43.4122024290324" lon="10.705533012299867"><ele>494.0</ele><time>2026-04-19T10:43:30.001Z</time></trkpt><trkpt lat="43.41212349866246" lon="10.705529892174017"><ele>494.0</ele><time>2026-04-19T10:43:42.002Z</time></trkpt><trkpt lat="43.41206032113993" lon="10.70549161041784"><ele>494.0</ele><time>2026-04-19T10:43:46.002Z</time></trkpt><trkpt lat="43.411992936860564" lon="10.705470646586093"><ele>494.0</ele><time>2026-04-19T10:43:51.002Z</time></trkpt><trkpt lat="43.4119216140717" lon="10.705443321584626"><ele>494.0</ele><time>2026-04-19T10:43:54.002Z</time></trkpt><trkpt lat="43.4118517282645" lon="10.70541371865272"><ele>493.79999999999995</ele><time>2026-04-19T10:44:00.002Z</time></trkpt><trkpt lat="43.41178015845926" lon="10.705399599430327"><ele>493.59999999999997</ele><time>2026-04-19T10:44:03.002Z</time></trkpt><trkpt lat="43.41169490935004" lon="10.705358773426507"><ele>493.4</ele><time>2026-04-19T10:44:06.002Z</time></trkpt><trkpt lat="43.411594116203695" lon="10.705309685037237"><ele>493.2</ele><time>2026-04-19T10:44:08Z</time></trkpt><trkpt lat="43.41148478293981" lon="10.705296059527338"><ele>493.0</ele><time>2026-04-19T10:44:10Z</time></trkpt><trkpt lat="43.41138149011687" lon="10.705299156682733"><ele>494.6666666666667</ele><time>2026-04-19T10:44:12Z</time></trkpt><trkpt lat="43.41130509394728" lon="10.70532026699193"><ele>496.33333333333337</ele><time>2026-04-19T10:44:14Z</time></trkpt><trkpt lat="43.41124134870528" lon="10.705354666835019"><ele>498.0</ele><time>2026-04-19T10:44:16Z</time></trkpt><trkpt lat="43.41118086918669" lon="10.705395170480907"><ele>499.66666666666663</ele><time>2026-04-19T10:44:18Z</time></trkpt><trkpt lat="43.41112137172122" lon="10.705467088480578"><ele>501.3333333333333</ele><time>2026-04-19T10:44:23Z</time></trkpt><trkpt lat="43.41104438453157" lon="10.705538207607288"><ele>503.0</ele><time>2026-04-19T10:44:26Z</time></trkpt><trkpt lat="43.410989757703604" lon="10.705625978070875"><ele>502.99999999999994</ele><time>2026-04-19T10:44:29Z</time></trkpt><trkpt lat="43.41092220761936" lon="10.705711613205873"><ele>503.0</ele><time>2026-04-19T10:44:32Z</time></trkpt><trkpt lat="43.41087916769765" lon="10.705785620521295"><ele>503.0</ele><time>2026-04-19T10:44:42Z</time></trkpt><trkpt lat="43.41082629738973" lon="10.705872164240683"><ele>503.0</ele><time>2026-04-19T10:44:45Z</time></trkpt><trkpt lat="43.410778886263834" lon="10.705944737396203"><ele>502.99999999999994</ele><time>2026-04-19T10:44:48Z</time></trkpt><trkpt lat="43.410715540991994" lon="10.706028012864042"><ele>503.0</ele><time>2026-04-19T10:44:51Z</time></trkpt><trkpt lat="43.41064550703954" lon="10.706098677385722"><ele>503.0</ele><time>2026-04-19T10:44:54.001Z</time></trkpt><trkpt lat="43.41057098414721" lon="10.706160646008113"><ele>503.00000000000006</ele><time>2026-04-19T10:44:57.001Z</time></trkpt><trkpt lat="43.41051863892425" lon="10.70621103957354"><ele>503.0</ele><time>2026-04-19T10:44:58.001Z</time></trkpt><trkpt lat="43.410459546576185" lon="10.706245706137336"><ele>503.0</ele><time>2026-04-19T10:45:00.001Z</time></trkpt><trkpt lat="43.41041359297247" lon="10.706306740145349"><ele>503.00000000000006</ele><time>2026-04-19T10:45:02.001Z</time></trkpt><trkpt lat="43.4103439585312" lon="10.706347731523184"><ele>503.0</ele><time>2026-04-19T10:45:04.001Z</time></trkpt><trkpt lat="43.410268206864686" lon="10.706338939768026"><ele>503.0</ele><time>2026-04-19T10:45:06.001Z</time></trkpt><trkpt lat="43.410174328957815" lon="10.706335628474704"><ele>502.99999999999994</ele><time>2026-04-19T10:45:08.001Z</time></trkpt><trkpt lat="43.41008183333243" lon="10.706332809600134"><ele>503.0</ele><time>2026-04-19T10:45:10.001Z</time></trkpt><trkpt lat="43.410012195985416" lon="10.706338455623605"><ele>503.0</ele><time>2026-04-19T10:45:12.001Z</time></trkpt><trkpt lat="43.40993335066565" lon="10.706348694018724"><ele>503.0</ele><time>2026-04-19T10:45:15.001Z</time></trkpt><trkpt lat="43.409849248829374" lon="10.706383933427714"><ele>502.99999999999994</ele><time>2026-04-19T10:45:19.001Z</time></trkpt><trkpt lat="43.40978778947111" lon="10.706427436756318"><ele>503.0</ele><time>2026-04-19T10:45:21.001Z</time></trkpt><trkpt lat="43.40973456069692" lon="10.706515909168534"><ele>502.99999999999994</ele><time>2026-04-19T10:45:23.001Z</time></trkpt><trkpt lat="43.4096862097693" lon="10.706601565107361"><ele>503.0</ele><time>2026-04-19T10:45:25.001Z</time></trkpt><trkpt lat="43.40964508176573" lon="10.706689641376808"><ele>503.0</ele><time>2026-04-19T10:45:28.001Z</time></trkpt><trkpt lat="43.40959789357821" lon="10.706770881369929"><ele>503.0</ele><time>2026-04-19T10:45:32.001Z</time></trkpt><trkpt lat="43.40955506044846" lon="10.706839810563956"><ele>502.99999999999994</ele><time>2026-04-19T10:45:34.001Z</time></trkpt><trkpt lat="43.409468598420986" lon="10.706907090973287"><ele>503.0</ele><time>2026-04-19T10:45:37.001Z</time></trkpt><trkpt lat="43.409406259772545" lon="10.706968576501572"><ele>503.49999999999994</ele><time>2026-04-19T10:45:39.001Z</time></trkpt><trkpt lat="43.40934267378491" lon="10.707024903447563"><ele>504.0</ele><time>2026-04-19T10:45:41.001Z</time></trkpt><trkpt lat="43.40927111352718" lon="10.707087224396593"><ele>504.5</ele><time>2026-04-19T10:45:44.001Z</time></trkpt><trkpt lat="43.40920397091581" lon="10.707175667524433"><ele>505.0</ele><time>2026-04-19T10:45:49.001Z</time></trkpt><trkpt lat="43.40916247768961" lon="10.707271407538268"><ele>505.49999999999994</ele><time>2026-04-19T10:45:52.001Z</time></trkpt><trkpt lat="43.40912729573244" lon="10.707388669694042"><ele>506.0</ele><time>2026-04-19T10:45:55.002Z</time></trkpt><trkpt lat="43.40910664476715" lon="10.70747162308547"><ele>506.00000000000006</ele><time>2026-04-19T10:45:58.002Z</time></trkpt><trkpt lat="43.40908836419628" lon="10.707568987018027"><ele>506.0</ele><time>2026-04-19T10:46:03.002Z</time></trkpt><trkpt lat="43.40907193377426" lon="10.707665235569172"><ele>506.00000000000006</ele><time>2026-04-19T10:46:08.002Z</time></trkpt><trkpt lat="43.40906558637055" lon="10.707761296753088"><ele>506.00000000000006</ele><time>2026-04-19T10:46:14Z</time></trkpt><trkpt lat="43.40905687207891" lon="10.707855732571739"><ele>506.0</ele><time>2026-04-19T10:46:17Z</time></trkpt><trkpt lat="43.409050379883574" lon="10.707966233822438"><ele>506.00000000000006</ele><time>2026-04-19T10:46:19Z</time></trkpt><trkpt lat="43.40903960219357" lon="10.708051750602898"><ele>506.00000000000006</ele><time>2026-04-19T10:46:21Z</time></trkpt><trkpt lat="43.40904033168756" lon="10.708153129942819"><ele>505.16666666666663</ele><time>2026-04-19T10:46:24Z</time></trkpt><trkpt lat="43.40903469656837" lon="10.708251130624182"><ele>504.3333333333333</ele><time>2026-04-19T10:46:28Z</time></trkpt><trkpt lat="43.409027887905225" lon="10.708362827482356"><ele>503.5</ele><time>2026-04-19T10:46:32Z</time></trkpt><trkpt lat="43.409045911447265" lon="10.708458368386516"><ele>502.66666666666663</ele><time>2026-04-19T10:46:35Z</time></trkpt><trkpt lat="43.409069182633495" lon="10.70856994389804"><ele>501.8333333333333</ele><time>2026-04-19T10:46:37Z</time></trkpt><trkpt lat="43.409083880963614" lon="10.70868318563247"><ele>501.0</ele><time>2026-04-19T10:46:39Z</time></trkpt><trkpt lat="43.40909352307037" lon="10.708774615769189"><ele>500.5</ele><time>2026-04-19T10:46:41Z</time></trkpt><trkpt lat="43.40911178433725" lon="10.708900545067445"><ele>500.0</ele><time>2026-04-19T10:46:44Z</time></trkpt><trkpt lat="43.40913132423811" lon="10.70898334916809"><ele>499.5</ele><time>2026-04-19T10:46:46Z</time></trkpt><trkpt lat="43.409158328408644" lon="10.709079208976954"><ele>499.0</ele><time>2026-04-19T10:46:48Z</time></trkpt><trkpt lat="43.409180035689914" lon="10.709162900387193"><ele>498.5</ele><time>2026-04-19T10:46:50Z</time></trkpt><trkpt lat="43.409182364802085" lon="10.709271666564641"><ele>498.0</ele><time>2026-04-19T10:46:52Z</time></trkpt><trkpt lat="43.40916566970021" lon="10.709392333768967"><ele>497.3333333333333</ele><time>2026-04-19T10:46:54Z</time></trkpt><trkpt lat="43.40913402235827" lon="10.709522645357747"><ele>496.66666666666663</ele><time>2026-04-19T10:46:56.001Z</time></trkpt><trkpt lat="43.4090976467936" lon="10.709625997777893"><ele>496.0</ele><time>2026-04-19T10:46:58.001Z</time></trkpt><trkpt lat="43.40906842807141" lon="10.709745673448836"><ele>495.3333333333333</ele><time>2026-04-19T10:47:00.001Z</time></trkpt><trkpt lat="43.40903579927861" lon="10.709856261233295"><ele>494.66666666666663</ele><time>2026-04-19T10:47:02.001Z</time></trkpt><trkpt lat="43.40900440409972" lon="10.709944252633905"><ele>494.0</ele><time>2026-04-19T10:47:04.001Z</time></trkpt><trkpt lat="43.40897349700926" lon="10.71004917514739"><ele>493.99999999999994</ele><time>2026-04-19T10:47:06.001Z</time></trkpt><trkpt lat="43.40894775220782" lon="10.710156832469574"><ele>494.0</ele><time>2026-04-19T10:47:08.001Z</time></trkpt><trkpt lat="43.408920091230534" lon="10.710286081585918"><ele>494.0</ele><time>2026-04-19T10:47:10.001Z</time></trkpt><trkpt lat="43.40889652557698" lon="10.710417010590234"><ele>494.0</ele><time>2026-04-19T10:47:12.001Z</time></trkpt><trkpt lat="43.408877471824994" lon="10.710528257540373"><ele>493.99999999999994</ele><time>2026-04-19T10:47:14.001Z</time></trkpt><trkpt lat="43.4088587876808" lon="10.710622274277489"><ele>494.0</ele><time>2026-04-19T10:47:16.001Z</time></trkpt><trkpt lat="43.408813285864184" lon="10.710719051004933"><ele>494.49999999999994</ele><time>2026-04-19T10:47:18.001Z</time></trkpt><trkpt lat="43.40875593570209" lon="10.710814060711979"><ele>495.0</ele><time>2026-04-19T10:47:20.001Z</time></trkpt><trkpt lat="43.408689081710335" lon="10.710884470509937"><ele>495.5</ele><time>2026-04-19T10:47:22.001Z</time></trkpt><trkpt lat="43.408604647955094" lon="10.710925182452398"><ele>496.0</ele><time>2026-04-19T10:47:24.001Z</time></trkpt><trkpt lat="43.40852160874139" lon="10.710938795518599"><ele>496.49999999999994</ele><time>2026-04-19T10:47:26.001Z</time></trkpt><trkpt lat="43.408456955443164" lon="10.710944040865149"><ele>497.0</ele><time>2026-04-19T10:47:28.001Z</time></trkpt><trkpt lat="43.40838041754636" lon="10.710987512063104"><ele>496.99999999999994</ele><time>2026-04-19T10:47:31.001Z</time></trkpt><trkpt lat="43.408306290865255" lon="10.711045667163214"><ele>497.0</ele><time>2026-04-19T10:47:34.001Z</time></trkpt><trkpt lat="43.40823188129378" lon="10.711087619252876"><ele>497.0</ele><time>2026-04-19T10:47:37.001Z</time></trkpt><trkpt lat="43.40814915418734" lon="10.711118879818704"><ele>497.0</ele><time>2026-04-19T10:47:39.001Z</time></trkpt><trkpt lat="43.408063735229945" lon="10.711155046336902"><ele>496.99999999999994</ele><time>2026-04-19T10:47:41.001Z</time></trkpt><trkpt lat="43.407967645174175" lon="10.71120348537474"><ele>497.0</ele><time>2026-04-19T10:47:43.001Z</time></trkpt><trkpt lat="43.40786405675076" lon="10.711241835354961"><ele>496.20000000000005</ele><time>2026-04-19T10:47:45.001Z</time></trkpt><trkpt lat="43.40775782281039" lon="10.71128646789038"><ele>495.40000000000003</ele><time>2026-04-19T10:47:47.001Z</time></trkpt><trkpt lat="43.407654332624645" lon="10.711352439862425"><ele>494.59999999999997</ele><time>2026-04-19T10:47:49.001Z</time></trkpt><trkpt lat="43.40755255328272" lon="10.711414048585679"><ele>493.79999999999995</ele><time>2026-04-19T10:47:51.001Z</time></trkpt><trkpt lat="43.40746091326268" lon="10.711456735370435"><ele>493.0</ele><time>2026-04-19T10:47:53.001Z</time></trkpt><trkpt lat="43.4073613731203" lon="10.711464866342542"><ele>493.00000000000006</ele><time>2026-04-19T10:47:55.002Z</time></trkpt><trkpt lat="43.40726650902043" lon="10.711460637037135"><ele>493.0</ele><time>2026-04-19T10:47:57.002Z</time></trkpt><trkpt lat="43.4071806097325" lon="10.71145107127202"><ele>493.0</ele><time>2026-04-19T10:47:59.002Z</time></trkpt><trkpt lat="43.40711003285558" lon="10.711473235846444"><ele>493.0</ele><time>2026-04-19T10:48:01.002Z</time></trkpt><trkpt lat="43.407041772234955" lon="10.71151222735365"><ele>493.00000000000006</ele><time>2026-04-19T10:48:03.002Z</time></trkpt><trkpt lat="43.40698267615424" lon="10.711566338224074"><ele>493.0</ele><time>2026-04-19T10:48:05.002Z</time></trkpt><trkpt lat="43.40690569412702" lon="10.71162846881653"><ele>493.6666666666667</ele><time>2026-04-19T10:48:07.002Z</time></trkpt><trkpt lat="43.406835645814716" lon="10.711672812503894"><ele>494.33333333333337</ele><time>2026-04-19T10:48:09.002Z</time></trkpt><trkpt lat="43.40677611711434" lon="10.711718817379317"><ele>495.0</ele><time>2026-04-19T10:48:11.002Z</time></trkpt><trkpt lat="43.4067078252139" lon="10.711769955220337"><ele>495.66666666666663</ele><time>2026-04-19T10:48:13.002Z</time></trkpt><trkpt lat="43.406644391700084" lon="10.711817526759463"><ele>496.3333333333333</ele><time>2026-04-19T10:48:15.002Z</time></trkpt><trkpt lat="43.406582849759324" lon="10.711876538833591"><ele>497.0</ele><time>2026-04-19T10:48:17.002Z</time></trkpt><trkpt lat="43.40651384318362" lon="10.711937521591677"><ele>496.99999999999994</ele><time>2026-04-19T10:48:19.002Z</time></trkpt><trkpt lat="43.40644700508782" lon="10.712007639010233"><ele>497.0</ele><time>2026-04-19T10:48:21Z</time></trkpt><trkpt lat="43.40638732224927" lon="10.712086466474181"><ele>497.0</ele><time>2026-04-19T10:48:23Z</time></trkpt><trkpt lat="43.406337751840304" lon="10.712174720193751"><ele>497.0</ele><time>2026-04-19T10:48:25Z</time></trkpt><trkpt lat="43.40629341709474" lon="10.712289187833703"><ele>496.99999999999994</ele><time>2026-04-19T10:48:27Z</time></trkpt><trkpt lat="43.40625468088988" lon="10.712419895191543"><ele>497.0</ele><time>2026-04-19T10:48:29Z</time></trkpt><trkpt lat="43.406209403945006" lon="10.712554813263424"><ele>498.3333333333333</ele><time>2026-04-19T10:48:31Z</time></trkpt><trkpt lat="43.406161010466256" lon="10.712673311816333"><ele>499.66666666666663</ele><time>2026-04-19T10:48:33Z</time></trkpt><trkpt lat="43.40611238933766" lon="10.712759369070511"><ele>501.0</ele><time>2026-04-19T10:48:35Z</time></trkpt><trkpt lat="43.406066144506575" lon="10.712828300606882"><ele>502.33333333333337</ele><time>2026-04-19T10:48:37Z</time></trkpt><trkpt lat="43.406003805106195" lon="10.712913090154466"><ele>503.6666666666667</ele><time>2026-04-19T10:48:39Z</time></trkpt><trkpt lat="43.405946046434664" lon="10.712986735655004"><ele>505.0</ele><time>2026-04-19T10:48:41Z</time></trkpt><trkpt lat="43.40590272942347" lon="10.713076373507523"><ele>505.00000000000006</ele><time>2026-04-19T10:48:43Z</time></trkpt><trkpt lat="43.40587353195818" lon="10.713165276057419"><ele>505.0</ele><time>2026-04-19T10:48:45Z</time></trkpt><trkpt lat="43.40584860943172" lon="10.713251346172857"><ele>505.0</ele><time>2026-04-19T10:48:47Z</time></trkpt><trkpt lat="43.40582303638945" lon="10.713334971077101"><ele>505.0</ele><time>2026-04-19T10:48:48Z</time></trkpt><trkpt lat="43.40578672099146" lon="10.713458567888043"><ele>505.00000000000006</ele><time>2026-04-19T10:48:50Z</time></trkpt><trkpt lat="43.40574536436464" lon="10.713577557050698"><ele>505.0</ele><time>2026-04-19T10:48:52Z</time></trkpt><trkpt lat="43.40569830315259" lon="10.713675260810941"><ele>503.33333333333337</ele><time>2026-04-19T10:48:54Z</time></trkpt><trkpt lat="43.405650209856844" lon="10.713772089009456"><ele>501.6666666666667</ele><time>2026-04-19T10:48:56Z</time></trkpt><trkpt lat="43.40561411759835" lon="10.713858185767927"><ele>500.0</ele><time>2026-04-19T10:48:58Z</time></trkpt><trkpt lat="43.40559224882175" lon="10.71394641137232"><ele>498.33333333333337</ele><time>2026-04-19T10:49:00Z</time></trkpt><trkpt lat="43.40554570137997" lon="10.714046605084716"><ele>496.6666666666667</ele><time>2026-04-19T10:49:03.001Z</time></trkpt><trkpt lat="43.40551310461639" lon="10.714162712660261"><ele>495.0</ele><time>2026-04-19T10:49:05.001Z</time></trkpt><trkpt lat="43.40547004506413" lon="10.714284391230146"><ele>499.6</ele><time>2026-04-19T10:49:07.001Z</time></trkpt><trkpt lat="43.40543883884231" lon="10.71441708081306"><ele>504.2</ele><time>2026-04-19T10:49:09.001Z</time></trkpt><trkpt lat="43.40542747521646" lon="10.714567037367287"><ele>508.79999999999995</ele><time>2026-04-19T10:49:11.001Z</time></trkpt><trkpt lat="43.40542431981167" lon="10.714708709188475"><ele>513.4</ele><time>2026-04-19T10:49:13.001Z</time></trkpt><trkpt lat="43.405428959277444" lon="10.714839136839332"><ele>518.0</ele><time>2026-04-19T10:49:15.001Z</time></trkpt><trkpt lat="43.40541255967939" lon="10.71498080506735"><ele>518.0</ele><time>2026-04-19T10:49:17.001Z</time></trkpt><trkpt lat="43.405388412704646" lon="10.715128583139238"><ele>518.0</ele><time>2026-04-19T10:49:19.001Z</time></trkpt><trkpt lat="43.4053603304695" lon="10.71527718525846"><ele>518.0</ele><time>2026-04-19T10:49:21.001Z</time></trkpt><trkpt lat="43.4053342589401" lon="10.715419698573983"><ele>518.0</ele><time>2026-04-19T10:49:23.001Z</time></trkpt><trkpt lat="43.405325780890536" lon="10.715540933217655"><ele>518.0</ele><time>2026-04-19T10:49:25.001Z</time></trkpt><trkpt lat="43.405310555949825" lon="10.715666536979933"><ele>515.1999999999999</ele><time>2026-04-19T10:49:27.001Z</time></trkpt><trkpt lat="43.405298768049086" lon="10.715817170983222"><ele>512.4</ele><time>2026-04-19T10:49:29.001Z</time></trkpt><trkpt lat="43.40528737440574" lon="10.716003531083818"><ele>509.59999999999997</ele><time>2026-04-19T10:49:31.001Z</time></trkpt><trkpt lat="43.4052266015413" lon="10.7160571040632"><ele>506.79999999999995</ele><time>2026-04-19T10:49:32.001Z</time></trkpt><trkpt lat="43.40514632995651" lon="10.716135169846941"><ele>504.0</ele><time>2026-04-19T10:49:34.001Z</time></trkpt><trkpt lat="43.40508257469893" lon="10.716149713138758"><ele>502.5</ele><time>2026-04-19T10:49:35.001Z</time></trkpt><trkpt lat="43.40501745863198" lon="10.716168056741976"><ele>501.0</ele><time>2026-04-19T10:49:36.001Z</time></trkpt><trkpt lat="43.40489390451326" lon="10.716211722610655"><ele>499.5</ele><time>2026-04-19T10:49:38.001Z</time></trkpt><trkpt lat="43.40482261881526" lon="10.716251096557652"><ele>498.0</ele><time>2026-04-19T10:49:39.001Z</time></trkpt><trkpt lat="43.40474762716399" lon="10.716287652209074"><ele>496.5</ele><time>2026-04-19T10:49:40.001Z</time></trkpt><trkpt lat="43.40468147597924" lon="10.71631641658952"><ele>495.0</ele><time>2026-04-19T10:49:41.001Z</time></trkpt><trkpt lat="43.40460789404152" lon="10.71635547687639"><ele>495.0</ele><time>2026-04-19T10:49:42.001Z</time></trkpt><trkpt lat="43.40450130981951" lon="10.716418957101368"><ele>495.0</ele><time>2026-04-19T10:49:44.001Z</time></trkpt><trkpt lat="43.4044231190762" lon="10.716464366352684"><ele>495.0</ele><time>2026-04-19T10:49:46.001Z</time></trkpt><trkpt lat="43.40435684096848" lon="10.716481347103741"><ele>495.0</ele><time>2026-04-19T10:49:52.001Z</time></trkpt><trkpt lat="43.404289136993526" lon="10.716517246983154"><ele>495.0</ele><time>2026-04-19T10:49:56.001Z</time></trkpt><trkpt lat="43.40420515364311" lon="10.716545041890841"><ele>495.0</ele><time>2026-04-19T10:49:59.001Z</time></trkpt><trkpt lat="43.404122491087925" lon="10.716595289128708"><ele>495.0</ele><time>2026-04-19T10:50:02.002Z</time></trkpt><trkpt lat="43.4040535427221" lon="10.716673931376786"><ele>495.0</ele><time>2026-04-19T10:50:05.002Z</time></trkpt><trkpt lat="43.40402406097517" lon="10.71676914999297"><ele>495.0</ele><time>2026-04-19T10:50:08.002Z</time></trkpt><trkpt lat="43.404006129820345" lon="10.716882749683121"><ele>495.0</ele><time>2026-04-19T10:50:11.002Z</time></trkpt><trkpt lat="43.40398231786989" lon="10.717003082667892"><ele>495.0</ele><time>2026-04-19T10:50:15.002Z</time></trkpt><trkpt lat="43.40393513477256" lon="10.717090510852262"><ele>495.0</ele><time>2026-04-19T10:50:18.002Z</time></trkpt><trkpt lat="43.40389058868759" lon="10.717152929851444"><ele>494.5</ele><time>2026-04-19T10:50:22.002Z</time></trkpt><trkpt lat="43.40382261433917" lon="10.717182512514924"><ele>494.0</ele><time>2026-04-19T10:50:26Z</time></trkpt><trkpt lat="43.403742424112785" lon="10.717158124706684"><ele>493.5</ele><time>2026-04-19T10:50:30Z</time></trkpt><trkpt lat="43.40369678607908" lon="10.717096422447192"><ele>493.0</ele><time>2026-04-19T10:50:32Z</time></trkpt><trkpt lat="43.40365278703724" lon="10.716997841694663"><ele>492.5</ele><time>2026-04-19T10:50:34Z</time></trkpt><trkpt lat="43.403611689747045" lon="10.71690041495908"><ele>492.0</ele><time>2026-04-19T10:50:36Z</time></trkpt><trkpt lat="43.403575841484916" lon="10.71680871317749"><ele>492.0</ele><time>2026-04-19T10:50:38Z</time></trkpt><trkpt lat="43.40354071389085" lon="10.716719102375615"><ele>492.0</ele><time>2026-04-19T10:50:40Z</time></trkpt><trkpt lat="43.4035042642893" lon="10.716618383633815"><ele>492.0</ele><time>2026-04-19T10:50:42Z</time></trkpt><trkpt lat="43.40345279071135" lon="10.716500837710065"><ele>492.0</ele><time>2026-04-19T10:50:44Z</time></trkpt><trkpt lat="43.40339655029421" lon="10.716391139070659"><ele>492.0</ele><time>2026-04-19T10:50:46Z</time></trkpt><trkpt lat="43.40336381872186" lon="10.716269439468872"><ele>492.0</ele><time>2026-04-19T10:50:48Z</time></trkpt><trkpt lat="43.40336273707504" lon="10.716146259862297"><ele>494.1428571428572</ele><time>2026-04-19T10:50:50Z</time></trkpt><trkpt lat="43.40336268748215" lon="10.716048297582857"><ele>496.28571428571433</ele><time>2026-04-19T10:50:52Z</time></trkpt><trkpt lat="43.40331574076665" lon="10.715952202415105"><ele>498.42857142857144</ele><time>2026-04-19T10:53:50.001Z</time></trkpt><trkpt lat="43.403285423074095" lon="10.715875969652961"><ele>500.5714285714286</ele><time>2026-04-19T10:53:53.001Z</time></trkpt><trkpt lat="43.40324731767663" lon="10.715775537646046"><ele>502.7142857142858</ele><time>2026-04-19T10:53:56.001Z</time></trkpt><trkpt lat="43.40321227898824" lon="10.715686501364333"><ele>504.85714285714283</ele><time>2026-04-19T10:53:58.002Z</time></trkpt><trkpt lat="43.403185387331774" lon="10.715600103318904"><ele>507.0</ele><time>2026-04-19T10:54:00.002Z</time></trkpt><trkpt lat="43.4031908869692" lon="10.71549857703598"><ele>507.0</ele><time>2026-04-19T10:54:28.002Z</time></trkpt><trkpt lat="43.40317617310954" lon="10.715403409924232"><ele>507.0</ele><time>2026-04-19T10:54:31.002Z</time></trkpt><trkpt lat="43.403158838898065" lon="10.715283527958661"><ele>507.0</ele><time>2026-04-19T10:54:34.002Z</time></trkpt><trkpt lat="43.403167334209" lon="10.715158673520872"><ele>507.0</ele><time>2026-04-19T10:54:37.002Z</time></trkpt><trkpt lat="43.40318712542266" lon="10.715055934444345"><ele>507.0</ele><time>2026-04-19T10:54:39.001Z</time></trkpt><trkpt lat="43.403200448171354" lon="10.714929551465696"><ele>507.0</ele><time>2026-04-19T10:54:41.001Z</time></trkpt><trkpt lat="43.40321044345166" lon="10.714799122686562"><ele>509.40000000000003</ele><time>2026-04-19T10:54:43.001Z</time></trkpt><trkpt lat="43.40320371332059" lon="10.714674743337083"><ele>511.80000000000007</ele><time>2026-04-19T10:54:45.001Z</time></trkpt><trkpt lat="43.40318948120794" lon="10.71455392555055"><ele>514.2</ele><time>2026-04-19T10:54:47.001Z</time></trkpt><trkpt lat="43.40317887393266" lon="10.714426537389818"><ele>516.6</ele><time>2026-04-19T10:54:49.001Z</time></trkpt><trkpt lat="43.40316499120212" lon="10.714278953741104"><ele>519.0</ele><time>2026-04-19T10:54:51.001Z</time></trkpt><trkpt lat="43.40311328154695" lon="10.71414354398599"><ele>517.6</ele><time>2026-04-19T10:54:53.001Z</time></trkpt><trkpt lat="43.40306817849429" lon="10.713992926260126"><ele>516.2</ele><time>2026-04-19T10:54:55.001Z</time></trkpt><trkpt lat="43.40301407102694" lon="10.713862985578475"><ele>514.8000000000001</ele><time>2026-04-19T10:54:57.001Z</time></trkpt><trkpt lat="43.40295775761786" lon="10.71373069609975"><ele>513.4</ele><time>2026-04-19T10:54:59.001Z</time></trkpt><trkpt lat="43.402905448455684" lon="10.713611760732165"><ele>512.0</ele><time>2026-04-19T10:55:01.001Z</time></trkpt><trkpt lat="43.4028818489691" lon="10.713501269867765"><ele>514.3333333333333</ele><time>2026-04-19T10:55:03.001Z</time></trkpt><trkpt lat="43.40285025360552" lon="10.713414800170142"><ele>516.6666666666666</ele><time>2026-04-19T10:55:18.001Z</time></trkpt><trkpt lat="43.40282242024813" lon="10.713336751456403"><ele>519.0</ele><time>2026-04-19T10:55:21.001Z</time></trkpt><trkpt lat="43.4027677188652" lon="10.71323501537336"><ele>521.3333333333334</ele><time>2026-04-19T10:55:24.001Z</time></trkpt><trkpt lat="43.4027457919973" lon="10.713153182083294"><ele>523.6666666666667</ele><time>2026-04-19T10:55:26.001Z</time></trkpt><trkpt lat="43.402703448572105" lon="10.713041383265947"><ele>526.0</ele><time>2026-04-19T10:55:29.001Z</time></trkpt><trkpt lat="43.402664815970525" lon="10.712932715741031"><ele>526.0</ele><time>2026-04-19T10:55:32.001Z</time></trkpt><trkpt lat="43.40262848214814" lon="10.712838949061894"><ele>526.0</ele><time>2026-04-19T10:55:35.001Z</time></trkpt><trkpt lat="43.402579229963536" lon="10.712718196693707"><ele>526.0</ele><time>2026-04-19T10:55:38.001Z</time></trkpt><trkpt lat="43.402540470108534" lon="10.71261430627441"><ele>526.0</ele><time>2026-04-19T10:55:40.001Z</time></trkpt><trkpt lat="43.40247805056938" lon="10.712515741354537"><ele>526.0</ele><time>2026-04-19T10:55:42.001Z</time></trkpt><trkpt lat="43.40240680006193" lon="10.712414715189732"><ele>528.6666666666667</ele><time>2026-04-19T10:55:44.001Z</time></trkpt><trkpt lat="43.40233364971516" lon="10.712338479411084"><ele>531.3333333333334</ele><time>2026-04-19T10:55:46.001Z</time></trkpt><trkpt lat="43.40225144105059" lon="10.712296368502052"><ele>534.0</ele><time>2026-04-19T10:55:48.001Z</time></trkpt><trkpt lat="43.402152412710464" lon="10.712286537667593"><ele>536.6666666666666</ele><time>2026-04-19T10:55:50.001Z</time></trkpt><trkpt lat="43.402063643830886" lon="10.712278139775274"><ele>539.3333333333333</ele><time>2026-04-19T10:55:52.001Z</time></trkpt><trkpt lat="43.40198690422444" lon="10.712292355414792"><ele>542.0</ele><time>2026-04-19T10:55:54.001Z</time></trkpt><trkpt lat="43.40192190246721" lon="10.712287274691713"><ele>542.1666666666666</ele><time>2026-04-19T10:55:56.001Z</time></trkpt><trkpt lat="43.40185224780674" lon="10.712254612113346"><ele>542.3333333333333</ele><time>2026-04-19T10:55:58.001Z</time></trkpt><trkpt lat="43.401786475519685" lon="10.712264828895623"><ele>542.5</ele><time>2026-04-19T10:56:04.001Z</time></trkpt><trkpt lat="43.401697271781195" lon="10.712227621332095"><ele>542.6666666666666</ele><time>2026-04-19T10:56:26.002Z</time></trkpt><trkpt lat="43.401610393031675" lon="10.712212490471321"><ele>542.8333333333334</ele><time>2026-04-19T10:56:28.002Z</time></trkpt><trkpt lat="43.40151083049155" lon="10.712219786241237"><ele>543.0</ele><time>2026-04-19T10:56:30.002Z</time></trkpt><trkpt lat="43.40143630013955" lon="10.71221134862143"><ele>543.0</ele><time>2026-04-19T10:56:32.002Z</time></trkpt><trkpt lat="43.401359229070614" lon="10.712198706688593"><ele>543.0</ele><time>2026-04-19T10:57:13Z</time></trkpt><trkpt lat="43.40128551748455" lon="10.712195054513883"><ele>543.0</ele><time>2026-04-19T10:57:16Z</time></trkpt><trkpt lat="43.401209303227375" lon="10.712174163726534"><ele>543.0</ele><time>2026-04-19T10:57:18Z</time></trkpt><trkpt lat="43.40112004158369" lon="10.71218190655538"><ele>543.0</ele><time>2026-04-19T10:57:20Z</time></trkpt><trkpt lat="43.40104347664361" lon="10.712211280630635"><ele>543.0</ele><time>2026-04-19T10:57:22Z</time></trkpt><trkpt lat="43.40096137866492" lon="10.71223149349844"><ele>543.0</ele><time>2026-04-19T10:57:24Z</time></trkpt><trkpt lat="43.40087165895219" lon="10.712239203811144"><ele>543.0</ele><time>2026-04-19T10:57:26Z</time></trkpt><trkpt lat="43.400759750740406" lon="10.712294379325332"><ele>543.0</ele><time>2026-04-19T10:57:28Z</time></trkpt><trkpt lat="43.400696147668754" lon="10.712317898067523"><ele>543.0</ele><time>2026-04-19T10:57:29Z</time></trkpt><trkpt lat="43.400624916593856" lon="10.712357427808476"><ele>543.0</ele><time>2026-04-19T10:57:30Z</time></trkpt><trkpt lat="43.40048828655406" lon="10.712437947139195"><ele>543.0</ele><time>2026-04-19T10:57:32Z</time></trkpt><trkpt lat="43.40040579839033" lon="10.712465375962429"><ele>543.0</ele><time>2026-04-19T10:57:33Z</time></trkpt><trkpt lat="43.40032879995004" lon="10.712506986729197"><ele>543.0</ele><time>2026-04-19T10:57:34Z</time></trkpt><trkpt lat="43.40025642459436" lon="10.712545417128439"><ele>543.0</ele><time>2026-04-19T10:57:35Z</time></trkpt><trkpt lat="43.40018324317492" lon="10.7125940616295"><ele>543.0</ele><time>2026-04-19T10:57:36Z</time></trkpt><trkpt lat="43.4000960213235" lon="10.71260102496983"><ele>543.0</ele><time>2026-04-19T10:57:37Z</time></trkpt><trkpt lat="43.40001944784506" lon="10.712643269483538"><ele>543.0</ele><time>2026-04-19T10:57:38Z</time></trkpt><trkpt lat="43.39994814029131" lon="10.71269336845679"><ele>543.0</ele><time>2026-04-19T10:57:39Z</time></trkpt><trkpt lat="43.39988304665676" lon="10.712736361624652"><ele>543.0</ele><time>2026-04-19T10:57:40Z</time></trkpt><trkpt lat="43.39982142359042" lon="10.712772572052078"><ele>543.0</ele><time>2026-04-19T10:57:41Z</time></trkpt><trkpt lat="43.39976162567883" lon="10.712808126971298"><ele>543.0</ele><time>2026-04-19T10:57:42Z</time></trkpt><trkpt lat="43.39969724878059" lon="10.712816299321668"><ele>543.0</ele><time>2026-04-19T10:57:43Z</time></trkpt><trkpt lat="43.39958357361301" lon="10.712849471404104"><ele>544.0</ele><time>2026-04-19T10:57:45Z</time></trkpt><trkpt lat="43.3994921798896" lon="10.712897514934355"><ele>545.0</ele><time>2026-04-19T10:57:47Z</time></trkpt><trkpt lat="43.399398512741485" lon="10.712971791298095"><ele>546.0</ele><time>2026-04-19T10:57:49.001Z</time></trkpt><trkpt lat="43.39934822871665" lon="10.713100101653874"><ele>547.0</ele><time>2026-04-19T10:57:51.001Z</time></trkpt><trkpt lat="43.39929691077832" lon="10.713225447720623"><ele>548.0</ele><time>2026-04-19T10:57:53.001Z</time></trkpt><trkpt lat="43.39922710196538" lon="10.71331749062543"><ele>548.0</ele><time>2026-04-19T10:57:55.001Z</time></trkpt><trkpt lat="43.39914778768116" lon="10.713397179028037"><ele>548.0</ele><time>2026-04-19T10:57:57.001Z</time></trkpt><trkpt lat="43.39907936221223" lon="10.713461038857789"><ele>548.0</ele><time>2026-04-19T10:57:59.001Z</time></trkpt><trkpt lat="43.39899622249112" lon="10.713537324101416"><ele>548.0</ele><time>2026-04-19T10:58:01.001Z</time></trkpt><trkpt lat="43.39892839513849" lon="10.71362197636041"><ele>548.0</ele><time>2026-04-19T10:58:03.001Z</time></trkpt><trkpt lat="43.39882497649646" lon="10.713679387990782"><ele>549.8333333333333</ele><time>2026-04-19T10:58:05.001Z</time></trkpt><trkpt lat="43.39876993116271" lon="10.713724931329375"><ele>551.6666666666666</ele><time>2026-04-19T10:58:06.001Z</time></trkpt><trkpt lat="43.39866004122514" lon="10.713846755731211"><ele>553.5</ele><time>2026-04-19T10:58:08.001Z</time></trkpt><trkpt lat="43.398606831753014" lon="10.713936383269179"><ele>555.3333333333334</ele><time>2026-04-19T10:58:09.001Z</time></trkpt><trkpt lat="43.39856301243142" lon="10.714025185261377"><ele>557.1666666666667</ele><time>2026-04-19T10:58:10.001Z</time></trkpt><trkpt lat="43.39852253161362" lon="10.71411515233171"><ele>559.0</ele><time>2026-04-19T10:58:11.001Z</time></trkpt><trkpt lat="43.39848161613396" lon="10.714206085177096"><ele>559.0</ele><time>2026-04-19T10:58:12.001Z</time></trkpt><trkpt lat="43.39844082995556" lon="10.71428661858415"><ele>559.0</ele><time>2026-04-19T10:58:13.001Z</time></trkpt><trkpt lat="43.398398263046076" lon="10.714354993860105"><ele>559.0</ele><time>2026-04-19T10:58:14.001Z</time></trkpt><trkpt lat="43.39833931461875" lon="10.714425356895633"><ele>559.0</ele><time>2026-04-19T10:58:15.001Z</time></trkpt><trkpt lat="43.398281806395055" lon="10.71446222216507"><ele>559.0</ele><time>2026-04-19T10:58:16.001Z</time></trkpt><trkpt lat="43.398209090710374" lon="10.71450902156505"><ele>559.0</ele><time>2026-04-19T10:58:17.001Z</time></trkpt><trkpt lat="43.398143958288436" lon="10.714564729592794"><ele>559.0</ele><time>2026-04-19T10:58:18.001Z</time></trkpt><trkpt lat="43.39807974232646" lon="10.71463917540769"><ele>558.1666666666667</ele><time>2026-04-19T10:58:19.001Z</time></trkpt><trkpt lat="43.398018895386706" lon="10.714716920687339"><ele>557.3333333333334</ele><time>2026-04-19T10:58:20.001Z</time></trkpt><trkpt lat="43.39795877865606" lon="10.714808296064113"><ele>556.5</ele><time>2026-04-19T10:58:21.001Z</time></trkpt><trkpt lat="43.39788233715383" lon="10.714861338130474"><ele>555.6666666666666</ele><time>2026-04-19T10:58:22.001Z</time></trkpt><trkpt lat="43.397794199399875" lon="10.714897299466458"><ele>554.8333333333333</ele><time>2026-04-19T10:58:23.001Z</time></trkpt><trkpt lat="43.39769798609973" lon="10.71487262322266"><ele>554.0</ele><time>2026-04-19T10:58:24.001Z</time></trkpt><trkpt lat="43.39758239953963" lon="10.71486830636273"><ele>554.0</ele><time>2026-04-19T10:58:25.001Z</time></trkpt><trkpt lat="43.3974753471943" lon="10.714906722440277"><ele>554.0</ele><time>2026-04-19T10:58:26.001Z</time></trkpt><trkpt lat="43.39738457158724" lon="10.714969273256228"><ele>554.0</ele><time>2026-04-19T10:58:27.001Z</time></trkpt><trkpt lat="43.39729730395312" lon="10.7150186701782"><ele>554.0</ele><time>2026-04-19T10:58:28.001Z</time></trkpt><trkpt lat="43.39721507309411" lon="10.715063711467847"><ele>554.0</ele><time>2026-04-19T10:58:29.001Z</time></trkpt><trkpt lat="43.397135521242234" lon="10.715106856975247"><ele>554.0</ele><time>2026-04-19T10:58:30.001Z</time></trkpt><trkpt lat="43.397070112181794" lon="10.715137967344763"><ele>554.0</ele><time>2026-04-19T10:58:31.001Z</time></trkpt><trkpt lat="43.39700264625995" lon="10.715164482456407"><ele>554.0</ele><time>2026-04-19T10:58:32.001Z</time></trkpt><trkpt lat="43.39688493046349" lon="10.715175315594813"><ele>554.0</ele><time>2026-04-19T10:58:34.001Z</time></trkpt><trkpt lat="43.39682256194679" lon="10.715154752057789"><ele>554.0</ele><time>2026-04-19T10:58:35.001Z</time></trkpt><trkpt lat="43.39674857562511" lon="10.715134364559328"><ele>554.0</ele><time>2026-04-19T10:58:36.001Z</time></trkpt><trkpt lat="43.39668665961798" lon="10.715075847914909"><ele>554.0</ele><time>2026-04-19T10:58:37.001Z</time></trkpt><trkpt lat="43.39662384991468" lon="10.715011432513958"><ele>554.0</ele><time>2026-04-19T10:58:38.001Z</time></trkpt><trkpt lat="43.39655826019829" lon="10.71494953361569"><ele>554.0</ele><time>2026-04-19T10:58:39.001Z</time></trkpt><trkpt lat="43.39650448198636" lon="10.714856017479569"><ele>554.0</ele><time>2026-04-19T10:58:40.001Z</time></trkpt><trkpt lat="43.39643589978078" lon="10.714769701534538"><ele>554.0</ele><time>2026-04-19T10:58:41.001Z</time></trkpt><trkpt lat="43.39635497480289" lon="10.714680039495203"><ele>554.0</ele><time>2026-04-19T10:58:42.001Z</time></trkpt><trkpt lat="43.39627965905086" lon="10.714604125106872"><ele>554.6</ele><time>2026-04-19T10:58:43.001Z</time></trkpt><trkpt lat="43.39619939502584" lon="10.714530347165367"><ele>555.2</ele><time>2026-04-19T10:58:44.001Z</time></trkpt><trkpt lat="43.39611484238852" lon="10.714464966179941"><ele>555.8000000000001</ele><time>2026-04-19T10:58:45.001Z</time></trkpt><trkpt lat="43.39602875005001" lon="10.714413313417692"><ele>556.4</ele><time>2026-04-19T10:58:46.001Z</time></trkpt><trkpt lat="43.395935518000464" lon="10.714367892277068"><ele>557.0</ele><time>2026-04-19T10:58:47.001Z</time></trkpt><trkpt lat="43.395838383401106" lon="10.714321600426729"><ele>557.0</ele><time>2026-04-19T10:58:48.001Z</time></trkpt><trkpt lat="43.39574134169225" lon="10.71426993958815"><ele>557.0</ele><time>2026-04-19T10:58:49.001Z</time></trkpt><trkpt lat="43.395640216338215" lon="10.714227361942553"><ele>557.0</ele><time>2026-04-19T10:58:49.999Z</time></trkpt><trkpt lat="43.395547221266845" lon="10.714211022201082"><ele>557.0</ele><time>2026-04-19T10:58:50.999Z</time></trkpt><trkpt lat="43.395462093179745" lon="10.714178813993923"><ele>557.0</ele><time>2026-04-19T10:58:51.999Z</time></trkpt><trkpt lat="43.39537645133132" lon="10.714149356417218"><ele>556.4</ele><time>2026-04-19T10:58:52.999Z</time></trkpt><trkpt lat="43.39528392507004" lon="10.714118320342578"><ele>555.8000000000001</ele><time>2026-04-19T10:58:53.999Z</time></trkpt><trkpt lat="43.39520027650618" lon="10.714064924815188"><ele>555.2</ele><time>2026-04-19T10:58:54.999Z</time></trkpt><trkpt lat="43.39510962794546" lon="10.714032435534808"><ele>554.6</ele><time>2026-04-19T10:58:55.999Z</time></trkpt><trkpt lat="43.39501182152068" lon="10.713998724389398"><ele>554.0</ele><time>2026-04-19T10:58:56.999Z</time></trkpt><trkpt lat="43.39492722573393" lon="10.713993264808666"><ele>554.0</ele><time>2026-04-19T10:58:57.999Z</time></trkpt><trkpt lat="43.39485798990854" lon="10.713964207102364"><ele>554.0</ele><time>2026-04-19T10:58:58.999Z</time></trkpt><trkpt lat="43.39479698802691" lon="10.713936866481644"><ele>554.0</ele><time>2026-04-19T10:58:59.999Z</time></trkpt><trkpt lat="43.394706490435574" lon="10.713902809204512"><ele>554.0</ele><time>2026-04-19T10:59:01.999Z</time></trkpt><trkpt lat="43.39465412034734" lon="10.713832948820977"><ele>554.0</ele><time>2026-04-19T10:59:19Z</time></trkpt><trkpt lat="43.39459561434176" lon="10.713960288492544"><ele>554.0</ele><time>2026-04-19T10:59:20Z</time></trkpt><trkpt lat="43.3945712064093" lon="10.714106381032243"><ele>553.5</ele><time>2026-04-19T10:59:22Z</time></trkpt><trkpt lat="43.394532291845366" lon="10.714190743590542"><ele>553.0</ele><time>2026-04-19T10:59:23Z</time></trkpt><trkpt lat="43.39450865587081" lon="10.71428398189039"><ele>552.5</ele><time>2026-04-19T10:59:24Z</time></trkpt><trkpt lat="43.394495729593686" lon="10.714393157038014"><ele>552.0</ele><time>2026-04-19T10:59:25Z</time></trkpt><trkpt lat="43.39446197974968" lon="10.714508441606878"><ele>551.5</ele><time>2026-04-19T10:59:26Z</time></trkpt><trkpt lat="43.39443455519223" lon="10.714636697964274"><ele>551.0</ele><time>2026-04-19T10:59:27Z</time></trkpt><trkpt lat="43.39438964074113" lon="10.714763291152359"><ele>551.0</ele><time>2026-04-19T10:59:28Z</time></trkpt><trkpt lat="43.39435160102398" lon="10.714893426037001"><ele>551.0</ele><time>2026-04-19T10:59:29Z</time></trkpt><trkpt lat="43.39430388065554" lon="10.715021660985244"><ele>551.0</ele><time>2026-04-19T10:59:30Z</time></trkpt><trkpt lat="43.394232777051535" lon="10.715152806790671"><ele>551.0</ele><time>2026-04-19T10:59:31Z</time></trkpt><trkpt lat="43.394151472946504" lon="10.715259441868751"><ele>551.0</ele><time>2026-04-19T10:59:32Z</time></trkpt><trkpt lat="43.39404983512964" lon="10.715368391970216"><ele>551.2</ele><time>2026-04-19T10:59:33Z</time></trkpt><trkpt lat="43.39396403938983" lon="10.715468045260966"><ele>551.4000000000001</ele><time>2026-04-19T10:59:34Z</time></trkpt><trkpt lat="43.393875628405596" lon="10.715560426889361"><ele>551.6</ele><time>2026-04-19T10:59:35Z</time></trkpt><trkpt lat="43.39378875651578" lon="10.715652886621902"><ele>551.8000000000001</ele><time>2026-04-19T10:59:36Z</time></trkpt><trkpt lat="43.3937081481216" lon="10.715745654959388"><ele>552.0</ele><time>2026-04-19T10:59:37Z</time></trkpt><trkpt lat="43.39363003555466" lon="10.715845735616922"><ele>553.0</ele><time>2026-04-19T10:59:38Z</time></trkpt><trkpt lat="43.393564296932894" lon="10.715957285381611"><ele>554.0</ele><time>2026-04-19T10:59:39Z</time></trkpt><trkpt lat="43.39351111226142" lon="10.716090181241933"><ele>555.0</ele><time>2026-04-19T10:59:40Z</time></trkpt><trkpt lat="43.39347056756848" lon="10.716236270862007"><ele>556.0</ele><time>2026-04-19T10:59:41Z</time></trkpt><trkpt lat="43.393441575176375" lon="10.716394552279738"><ele>557.0</ele><time>2026-04-19T10:59:42Z</time></trkpt><trkpt lat="43.3934239310779" lon="10.716562004964011"><ele>557.25</ele><time>2026-04-19T10:59:43Z</time></trkpt><trkpt lat="43.393411177205316" lon="10.7167275439601"><ele>557.5</ele><time>2026-04-19T10:59:44Z</time></trkpt><trkpt lat="43.3933979345625" lon="10.716890659520262"><ele>557.75</ele><time>2026-04-19T10:59:45Z</time></trkpt><trkpt lat="43.39338218219853" lon="10.717044808542395"><ele>558.0</ele><time>2026-04-19T10:59:46Z</time></trkpt><trkpt lat="43.393364057513324" lon="10.71720036817413"><ele>558.0</ele><time>2026-04-19T10:59:47Z</time></trkpt><trkpt lat="43.39334280221852" lon="10.717355112309356"><ele>558.0</ele><time>2026-04-19T10:59:48Z</time></trkpt><trkpt lat="43.39331695887098" lon="10.717508447670973"><ele>558.0</ele><time>2026-04-19T10:59:49Z</time></trkpt><trkpt lat="43.3932808560829" lon="10.717658492190708"><ele>558.0</ele><time>2026-04-19T10:59:50Z</time></trkpt><trkpt lat="43.393236359587476" lon="10.717818493540648"><ele>556.75</ele><time>2026-04-19T10:59:51Z</time></trkpt><trkpt lat="43.39318881521912" lon="10.71797801232174"><ele>555.5</ele><time>2026-04-19T10:59:52Z</time></trkpt><trkpt lat="43.39314076917261" lon="10.718128218826026"><ele>554.25</ele><time>2026-04-19T10:59:53Z</time></trkpt><trkpt lat="43.39309127575807" lon="10.718277227304547"><ele>553.0</ele><time>2026-04-19T10:59:54Z</time></trkpt><trkpt lat="43.39303930439072" lon="10.718426692799529"><ele>552.5</ele><time>2026-04-19T10:59:55Z</time></trkpt><trkpt lat="43.39297917790814" lon="10.718577513098053"><ele>552.0</ele><time>2026-04-19T10:59:56Z</time></trkpt><trkpt lat="43.39292117942627" lon="10.71872383847065"><ele>551.5</ele><time>2026-04-19T10:59:57Z</time></trkpt><trkpt lat="43.39286798446886" lon="10.718864697175883"><ele>551.0</ele><time>2026-04-19T10:59:58Z</time></trkpt><trkpt lat="43.39282039116142" lon="10.718998280589773"><ele>551.0</ele><time>2026-04-19T10:59:59Z</time></trkpt><trkpt lat="43.39276303162204" lon="10.719124020128982"><ele>551.0</ele><time>2026-04-19T11:00:00Z</time></trkpt><trkpt lat="43.392699810489724" lon="10.71924756701425"><ele>551.0</ele><time>2026-04-19T11:00:01Z</time></trkpt><trkpt lat="43.39263563408456" lon="10.71937037299614"><ele>551.0</ele><time>2026-04-19T11:00:02Z</time></trkpt><trkpt lat="43.392565676586905" lon="10.719496984203797"><ele>551.0</ele><time>2026-04-19T11:00:03Z</time></trkpt><trkpt lat="43.39249687694922" lon="10.71962036700101"><ele>549.25</ele><time>2026-04-19T11:00:04Z</time></trkpt><trkpt lat="43.39242448430746" lon="10.719741344265044"><ele>547.5</ele><time>2026-04-19T11:00:05.001Z</time></trkpt><trkpt lat="43.39234980561235" lon="10.719865715295365"><ele>545.75</ele><time>2026-04-19T11:00:06.001Z</time></trkpt><trkpt lat="43.392279151625324" lon="10.719996896636523"><ele>544.0</ele><time>2026-04-19T11:00:07.001Z</time></trkpt><trkpt lat="43.39221228359898" lon="10.720145796382717"><ele>540.25</ele><time>2026-04-19T11:00:08.001Z</time></trkpt><trkpt lat="43.392157254673656" lon="10.72030642650432"><ele>536.5</ele><time>2026-04-19T11:00:09.001Z</time></trkpt><trkpt lat="43.39210575168276" lon="10.720485136010666"><ele>532.75</ele><time>2026-04-19T11:00:10.001Z</time></trkpt><trkpt lat="43.39204304667149" lon="10.72067206178806"><ele>529.0</ele><time>2026-04-19T11:00:11.001Z</time></trkpt><trkpt lat="43.39198906925829" lon="10.720845658206294"><ele>529.0</ele><time>2026-04-19T11:00:12.001Z</time></trkpt><trkpt lat="43.391944837250456" lon="10.720997956980789"><ele>529.0</ele><time>2026-04-19T11:00:13.001Z</time></trkpt><trkpt lat="43.39190000100674" lon="10.721142132114412"><ele>529.0</ele><time>2026-04-19T11:00:14.001Z</time></trkpt><trkpt lat="43.391859552473505" lon="10.721260362705843"><ele>529.0</ele><time>2026-04-19T11:00:15.001Z</time></trkpt><trkpt lat="43.39182960342362" lon="10.721384286979294"><ele>529.0</ele><time>2026-04-19T11:00:16.001Z</time></trkpt><trkpt lat="43.39181310211531" lon="10.721517397790334"><ele>528.8</ele><time>2026-04-19T11:00:17.001Z</time></trkpt><trkpt lat="43.39182122411314" lon="10.721652024209696"><ele>528.5999999999999</ele><time>2026-04-19T11:00:18.001Z</time></trkpt><trkpt lat="43.39183105964297" lon="10.721788738773018"><ele>528.4</ele><time>2026-04-19T11:00:19.001Z</time></trkpt><trkpt lat="43.391848313591446" lon="10.721918180342007"><ele>528.1999999999999</ele><time>2026-04-19T11:00:20.001Z</time></trkpt><trkpt lat="43.39186841380702" lon="10.72204712845071"><ele>528.0</ele><time>2026-04-19T11:00:21.001Z</time></trkpt><trkpt lat="43.391888155467726" lon="10.722178757275595"><ele>527.1999999999999</ele><time>2026-04-19T11:00:22.001Z</time></trkpt><trkpt lat="43.39190746586037" lon="10.722317792237124"><ele>526.4</ele><time>2026-04-19T11:00:23.001Z</time></trkpt><trkpt lat="43.39192750490592" lon="10.722450378384282"><ele>525.5999999999999</ele><time>2026-04-19T11:00:24.001Z</time></trkpt><trkpt lat="43.39195698188057" lon="10.722592460633702"><ele>524.8</ele><time>2026-04-19T11:00:25.001Z</time></trkpt><trkpt lat="43.39197845091804" lon="10.722718600528273"><ele>524.0</ele><time>2026-04-19T11:00:26.001Z</time></trkpt><trkpt lat="43.39199577018517" lon="10.722843057393339"><ele>522.8</ele><time>2026-04-19T11:00:27.001Z</time></trkpt><trkpt lat="43.39201298706611" lon="10.722964429131123"><ele>521.5999999999999</ele><time>2026-04-19T11:00:28.001Z</time></trkpt><trkpt lat="43.3920430247897" lon="10.72308172644873"><ele>520.4</ele><time>2026-04-19T11:00:29.001Z</time></trkpt><trkpt lat="43.39208007357188" lon="10.723198713071062"><ele>519.1999999999999</ele><time>2026-04-19T11:00:30.001Z</time></trkpt><trkpt lat="43.39212930107574" lon="10.72331059016365"><ele>518.0</ele><time>2026-04-19T11:00:31.001Z</time></trkpt><trkpt lat="43.39217592381305" lon="10.723418480323417"><ele>517.8</ele><time>2026-04-19T11:00:32.001Z</time></trkpt><trkpt lat="43.39222305704123" lon="10.7235270062522"><ele>517.5999999999999</ele><time>2026-04-19T11:00:33.001Z</time></trkpt><trkpt lat="43.39226559527774" lon="10.7236379604439"><ele>517.4000000000001</ele><time>2026-04-19T11:00:34.001Z</time></trkpt><trkpt lat="43.39231146122839" lon="10.723742748205991"><ele>517.2</ele><time>2026-04-19T11:00:35.001Z</time></trkpt><trkpt lat="43.39235540060309" lon="10.723855165909505"><ele>517.0</ele><time>2026-04-19T11:00:36.001Z</time></trkpt><trkpt lat="43.39239824437808" lon="10.723958074362004"><ele>515.8000000000001</ele><time>2026-04-19T11:00:37.001Z</time></trkpt><trkpt lat="43.392442820672535" lon="10.724058471096384"><ele>514.6</ele><time>2026-04-19T11:00:38.001Z</time></trkpt><trkpt lat="43.39248903193875" lon="10.724156822769029"><ele>513.4000000000001</ele><time>2026-04-19T11:00:39.001Z</time></trkpt><trkpt lat="43.392541410254175" lon="10.724259095773457"><ele>512.2</ele><time>2026-04-19T11:00:40.001Z</time></trkpt><trkpt lat="43.39259730986799" lon="10.724363431969495"><ele>511.0</ele><time>2026-04-19T11:00:41.001Z</time></trkpt><trkpt lat="43.392652659938186" lon="10.724475879411747"><ele>510.0</ele><time>2026-04-19T11:00:42.001Z</time></trkpt><trkpt lat="43.39271539092762" lon="10.724584312156027"><ele>509.0</ele><time>2026-04-19T11:00:43.001Z</time></trkpt><trkpt lat="43.39277530133138" lon="10.72470414463077"><ele>508.0</ele><time>2026-04-19T11:00:44.001Z</time></trkpt><trkpt lat="43.392827790417506" lon="10.724834105578811"><ele>507.0</ele><time>2026-04-19T11:00:45.001Z</time></trkpt><trkpt lat="43.3928754909403" lon="10.724979731136095"><ele>506.0</ele><time>2026-04-19T11:00:46.001Z</time></trkpt><trkpt lat="43.39292307840352" lon="10.725132002952174"><ele>506.6</ele><time>2026-04-19T11:00:47.001Z</time></trkpt><trkpt lat="43.392962739679625" lon="10.725291946086474"><ele>507.20000000000005</ele><time>2026-04-19T11:00:48.001Z</time></trkpt><trkpt lat="43.39299067815387" lon="10.725437568888351"><ele>507.79999999999995</ele><time>2026-04-19T11:00:49.001Z</time></trkpt><trkpt lat="43.39300479674351" lon="10.725578276340928"><ele>508.4</ele><time>2026-04-19T11:00:50.001Z</time></trkpt><trkpt lat="43.39300521931631" lon="10.72572215418282"><ele>509.0</ele><time>2026-04-19T11:00:51.001Z</time></trkpt><trkpt lat="43.3929720809821" lon="10.725869596251167"><ele>509.0</ele><time>2026-04-19T11:00:52.001Z</time></trkpt><trkpt lat="43.392918462003166" lon="10.726012709001813"><ele>509.0</ele><time>2026-04-19T11:00:53.001Z</time></trkpt><trkpt lat="43.39284413974003" lon="10.726155243193558"><ele>509.0</ele><time>2026-04-19T11:00:54.001Z</time></trkpt><trkpt lat="43.392771492202634" lon="10.726298375434961"><ele>509.0</ele><time>2026-04-19T11:00:55.001Z</time></trkpt><trkpt lat="43.39270247842144" lon="10.72646311445091"><ele>511.3333333333333</ele><time>2026-04-19T11:00:55.999Z</time></trkpt><trkpt lat="43.39264590498718" lon="10.726649482714166"><ele>513.6666666666666</ele><time>2026-04-19T11:00:56.999Z</time></trkpt><trkpt lat="43.39257589570459" lon="10.726837840660831"><ele>516.0</ele><time>2026-04-19T11:00:57.999Z</time></trkpt><trkpt lat="43.39250332091233" lon="10.727017647288092"><ele>518.25</ele><time>2026-04-19T11:00:58.999Z</time></trkpt><trkpt lat="43.39244955981437" lon="10.727186484649671"><ele>520.5</ele><time>2026-04-19T11:00:59.999Z</time></trkpt><trkpt lat="43.39241839150115" lon="10.727364628337414"><ele>522.75</ele><time>2026-04-19T11:01:00.999Z</time></trkpt><trkpt lat="43.39239463156044" lon="10.72756094183266"><ele>525.0</ele><time>2026-04-19T11:01:01.999Z</time></trkpt><trkpt lat="43.3923641627804" lon="10.727741099568869"><ele>525.4</ele><time>2026-04-19T11:01:02.999Z</time></trkpt><trkpt lat="43.39232552677209" lon="10.727900715337057"><ele>525.8</ele><time>2026-04-19T11:01:03.999Z</time></trkpt><trkpt lat="43.39227260573043" lon="10.728049119938483"><ele>526.2</ele><time>2026-04-19T11:01:04.999Z</time></trkpt><trkpt lat="43.392209350375715" lon="10.728163392156421"><ele>526.6</ele><time>2026-04-19T11:01:05.999Z</time></trkpt><trkpt lat="43.39215123353013" lon="10.728277108489204"><ele>527.0</ele><time>2026-04-19T11:01:06.999Z</time></trkpt><trkpt lat="43.392100676755945" lon="10.728403797451188"><ele>527.0</ele><time>2026-04-19T11:01:07.999Z</time></trkpt><trkpt lat="43.39206913704431" lon="10.728557298841384"><ele>527.0</ele><time>2026-04-19T11:01:08.999Z</time></trkpt><trkpt lat="43.392057894111915" lon="10.728740497480947"><ele>527.0</ele><time>2026-04-19T11:01:09.999Z</time></trkpt><trkpt lat="43.39207351937184" lon="10.728938475542472"><ele>527.0</ele><time>2026-04-19T11:01:10.999Z</time></trkpt><trkpt lat="43.39206704738591" lon="10.729155674406403"><ele>528.6666666666666</ele><time>2026-04-19T11:01:11.999Z</time></trkpt><trkpt lat="43.392062445958096" lon="10.729388443267473"><ele>530.3333333333334</ele><time>2026-04-19T11:01:12.999Z</time></trkpt><trkpt lat="43.392053694552274" lon="10.729599117587751"><ele>532.0</ele><time>2026-04-19T11:01:13.999Z</time></trkpt><trkpt lat="43.392043852182915" lon="10.729844165623016"><ele>532.4</ele><time>2026-04-19T11:01:15Z</time></trkpt><trkpt lat="43.39201732774565" lon="10.730046804378722"><ele>532.8000000000001</ele><time>2026-04-19T11:01:16Z</time></trkpt><trkpt lat="43.391991088713176" lon="10.730206641278539"><ele>533.2</ele><time>2026-04-19T11:01:17Z</time></trkpt><trkpt lat="43.391970292628415" lon="10.730329961906214"><ele>533.6</ele><time>2026-04-19T11:01:18Z</time></trkpt><trkpt lat="43.39194215196787" lon="10.730417755665707"><ele>534.0</ele><time>2026-04-19T11:01:19Z</time></trkpt><trkpt lat="43.39192874157118" lon="10.730584490803325"><ele>534.0</ele><time>2026-04-19T11:01:21Z</time></trkpt><trkpt lat="43.39190836328147" lon="10.73066788156148"><ele>534.0</ele><time>2026-04-19T11:01:22Z</time></trkpt><trkpt lat="43.39189135739283" lon="10.73076015551172"><ele>534.0</ele><time>2026-04-19T11:01:23Z</time></trkpt><trkpt lat="43.391873614160765" lon="10.73086624457814"><ele>534.0</ele><time>2026-04-19T11:01:24Z</time></trkpt><trkpt lat="43.39185102039669" lon="10.730984542193625"><ele>534.0</ele><time>2026-04-19T11:01:25Z</time></trkpt><trkpt lat="43.391822861304426" lon="10.731114110587136"><ele>534.0</ele><time>2026-04-19T11:01:26Z</time></trkpt><trkpt lat="43.3917925268549" lon="10.731255703213947"><ele>533.0</ele><time>2026-04-19T11:01:27Z</time></trkpt><trkpt lat="43.39176495284697" lon="10.731405350966954"><ele>532.0</ele><time>2026-04-19T11:01:28Z</time></trkpt><trkpt lat="43.39173335119052" lon="10.731561369674134"><ele>531.0</ele><time>2026-04-19T11:01:29Z</time></trkpt><trkpt lat="43.391699337759945" lon="10.731715559045258"><ele>530.0</ele><time>2026-04-19T11:01:30Z</time></trkpt><trkpt lat="43.39165939492781" lon="10.731876720072368"><ele>529.5</ele><time>2026-04-19T11:01:31Z</time></trkpt><trkpt lat="43.3916154794067" lon="10.73203515881273"><ele>529.0</ele><time>2026-04-19T11:01:32Z</time></trkpt><trkpt lat="43.39157990571758" lon="10.732189165687112"><ele>528.5</ele><time>2026-04-19T11:01:33Z</time></trkpt><trkpt lat="43.391535261801785" lon="10.732333981470592"><ele>528.0</ele><time>2026-04-19T11:01:34Z</time></trkpt><trkpt lat="43.391492573187094" lon="10.732456353704727"><ele>528.0</ele><time>2026-04-19T11:01:35Z</time></trkpt><trkpt lat="43.39144996503144" lon="10.732578631197182"><ele>528.0</ele><time>2026-04-19T11:01:36Z</time></trkpt><trkpt lat="43.39140176743103" lon="10.732683744392267"><ele>528.0</ele><time>2026-04-19T11:01:37Z</time></trkpt><trkpt lat="43.39135855458467" lon="10.73278448563884"><ele>528.0</ele><time>2026-04-19T11:01:38Z</time></trkpt><trkpt lat="43.391315753814546" lon="10.732876652987594"><ele>528.0</ele><time>2026-04-19T11:01:39Z</time></trkpt><trkpt lat="43.39126498891007" lon="10.732965635241344"><ele>528.0</ele><time>2026-04-19T11:01:40Z</time></trkpt><trkpt lat="43.39120712653546" lon="10.73304328179124"><ele>525.0</ele><time>2026-04-19T11:01:41Z</time></trkpt><trkpt lat="43.39114867136145" lon="10.733121609773052"><ele>522.0</ele><time>2026-04-19T11:01:42Z</time></trkpt><trkpt lat="43.39108734769428" lon="10.733206011653701"><ele>519.0</ele><time>2026-04-19T11:01:43Z</time></trkpt><trkpt lat="43.391024847302596" lon="10.733295314341037"><ele>516.0</ele><time>2026-04-19T11:01:44Z</time></trkpt><trkpt lat="43.390964308422284" lon="10.733385703361542"><ele>513.0</ele><time>2026-04-19T11:01:45Z</time></trkpt><trkpt lat="43.39089897852249" lon="10.733489601979183"><ele>510.0</ele><time>2026-04-19T11:01:46Z</time></trkpt><trkpt lat="43.39082738953915" lon="10.733592774743348"><ele>510.0</ele><time>2026-04-19T11:01:47Z</time></trkpt><trkpt lat="43.39075932258402" lon="10.733696929079873"><ele>510.0</ele><time>2026-04-19T11:01:48Z</time></trkpt><trkpt lat="43.39069516234195" lon="10.733796315686496"><ele>510.0</ele><time>2026-04-19T11:01:49Z</time></trkpt><trkpt lat="43.390641213290785" lon="10.733892306273981"><ele>510.0</ele><time>2026-04-19T11:01:50Z</time></trkpt><trkpt lat="43.390585723976066" lon="10.733986411554678"><ele>510.0</ele><time>2026-04-19T11:01:51Z</time></trkpt><trkpt lat="43.39053358052722" lon="10.73406975701985"><ele>508.0</ele><time>2026-04-19T11:01:52Z</time></trkpt><trkpt lat="43.390481787206" lon="10.734152988671799"><ele>506.0</ele><time>2026-04-19T11:01:53Z</time></trkpt><trkpt lat="43.39044113812734" lon="10.73423021498431"><ele>504.0</ele><time>2026-04-19T11:01:54Z</time></trkpt><trkpt lat="43.39037840369838" lon="10.734323127206341"><ele>502.0</ele><time>2026-04-19T11:01:55Z</time></trkpt><trkpt lat="43.39030893220862" lon="10.734417973888497"><ele>500.0</ele><time>2026-04-19T11:01:56Z</time></trkpt><trkpt lat="43.39024626408211" lon="10.734506788878686"><ele>498.0</ele><time>2026-04-19T11:01:57Z</time></trkpt><trkpt lat="43.390188262140995" lon="10.734591334573004"><ele>498.0</ele><time>2026-04-19T11:01:58Z</time></trkpt><trkpt lat="43.39013025556822" lon="10.734673792941104"><ele>498.0</ele><time>2026-04-19T11:01:59Z</time></trkpt><trkpt lat="43.39007268308031" lon="10.734757480037405"><ele>498.0</ele><time>2026-04-19T11:02:00Z</time></trkpt><trkpt lat="43.39001567872827" lon="10.734837048397576"><ele>498.0</ele><time>2026-04-19T11:02:01Z</time></trkpt><trkpt lat="43.389965085236945" lon="10.7349116403188"><ele>498.0</ele><time>2026-04-19T11:02:02Z</time></trkpt><trkpt lat="43.38991813889447" lon="10.734978761601415"><ele>498.0</ele><time>2026-04-19T11:02:03Z</time></trkpt><trkpt lat="43.38984925193668" lon="10.735095273312618"><ele>498.0</ele><time>2026-04-19T11:02:05.001Z</time></trkpt><trkpt lat="43.38979015457491" lon="10.735176567757003"><ele>498.0</ele><time>2026-04-19T11:02:07.001Z</time></trkpt><trkpt lat="43.3898002010906" lon="10.735336354608185"><ele>498.0</ele><time>2026-04-19T11:02:09.001Z</time></trkpt><trkpt lat="43.389814324549285" lon="10.735422155144363"><ele>498.0</ele><time>2026-04-19T11:02:12.001Z</time></trkpt><trkpt lat="43.389845184780924" lon="10.735500398468725"><ele>498.0</ele><time>2026-04-19T11:02:15.001Z</time></trkpt><trkpt lat="43.389861064999735" lon="10.735615916469072"><ele>498.0</ele><time>2026-04-19T11:02:18.001Z</time></trkpt><trkpt lat="43.38990837879506" lon="10.73574801748381"><ele>497.0</ele><time>2026-04-19T11:02:20.001Z</time></trkpt><trkpt lat="43.38994454720828" lon="10.735831147265138"><ele>496.0</ele><time>2026-04-19T11:02:21.001Z</time></trkpt><trkpt lat="43.389993943342105" lon="10.735915264182518"><ele>495.0</ele><time>2026-04-19T11:02:22.001Z</time></trkpt><trkpt lat="43.39005627218852" lon="10.736004659745593"><ele>494.0</ele><time>2026-04-19T11:02:23.001Z</time></trkpt><trkpt lat="43.39012335300736" lon="10.736094781490634"><ele>493.0</ele><time>2026-04-19T11:02:24.001Z</time></trkpt><trkpt lat="43.39018821837186" lon="10.73617591356419"><ele>492.0</ele><time>2026-04-19T11:02:25.001Z</time></trkpt><trkpt lat="43.3902495410612" lon="10.736244338333687"><ele>490.0</ele><time>2026-04-19T11:02:26.001Z</time></trkpt><trkpt lat="43.390315153848704" lon="10.736292651380985"><ele>488.0</ele><time>2026-04-19T11:02:27.001Z</time></trkpt><trkpt lat="43.390391325753704" lon="10.736310514528087"><ele>486.0</ele><time>2026-04-19T11:02:28.001Z</time></trkpt><trkpt lat="43.390481216315095" lon="10.736316458834418"><ele>484.0</ele><time>2026-04-19T11:02:29.001Z</time></trkpt><trkpt lat="43.39056630331789" lon="10.736247820150135"><ele>482.0</ele><time>2026-04-19T11:02:30.001Z</time></trkpt><trkpt lat="43.39062630266419" lon="10.736172934473062"><ele>480.0</ele><time>2026-04-19T11:02:31.001Z</time></trkpt><trkpt lat="43.390690956380794" lon="10.73612964693488"><ele>480.0</ele><time>2026-04-19T11:02:32.001Z</time></trkpt><trkpt lat="43.390772051603484" lon="10.736139710670244"><ele>480.0</ele><time>2026-04-19T11:02:33.001Z</time></trkpt><trkpt lat="43.39083516442492" lon="10.736216345083406"><ele>480.0</ele><time>2026-04-19T11:02:34.001Z</time></trkpt><trkpt lat="43.390899173408734" lon="10.736269955452004"><ele>480.0</ele><time>2026-04-19T11:02:35.001Z</time></trkpt><trkpt lat="43.390985617745194" lon="10.736300618961982"><ele>480.0</ele><time>2026-04-19T11:02:36.001Z</time></trkpt><trkpt lat="43.391077257824605" lon="10.736310429285902"><ele>480.0</ele><time>2026-04-19T11:02:37.001Z</time></trkpt><trkpt lat="43.391166261412074" lon="10.736307785227002"><ele>480.0</ele><time>2026-04-19T11:02:38.001Z</time></trkpt><trkpt lat="43.39124961228977" lon="10.736316039948727"><ele>480.0</ele><time>2026-04-19T11:02:39.001Z</time></trkpt><trkpt lat="43.391340549753664" lon="10.736329805914782"><ele>480.0</ele><time>2026-04-19T11:02:40.001Z</time></trkpt><trkpt lat="43.391428826301414" lon="10.736343169057779"><ele>480.0</ele><time>2026-04-19T11:02:41.001Z</time></trkpt><trkpt lat="43.39150531154541" lon="10.736336415301317"><ele>480.0</ele><time>2026-04-19T11:02:42.001Z</time></trkpt><trkpt lat="43.391581896888475" lon="10.736370475464938"><ele>480.0</ele><time>2026-04-19T11:02:43.001Z</time></trkpt><trkpt lat="43.3916504983467" lon="10.73642305997153"><ele>479.5</ele><time>2026-04-19T11:02:44.001Z</time></trkpt><trkpt lat="43.39170050331811" lon="10.736498869088493"><ele>479.0</ele><time>2026-04-19T11:02:45.001Z</time></trkpt><trkpt lat="43.39172829572726" lon="10.736597339109254"><ele>478.5</ele><time>2026-04-19T11:02:46.001Z</time></trkpt><trkpt lat="43.39173870675014" lon="10.736708159288288"><ele>478.0</ele><time>2026-04-19T11:02:47.001Z</time></trkpt><trkpt lat="43.39174841356317" lon="10.736833626873514"><ele>477.5</ele><time>2026-04-19T11:02:48.001Z</time></trkpt><trkpt lat="43.39175244694472" lon="10.736975346861426"><ele>477.0</ele><time>2026-04-19T11:02:49.001Z</time></trkpt><trkpt lat="43.39173237125083" lon="10.737117839276259"><ele>477.0</ele><time>2026-04-19T11:02:50.001Z</time></trkpt><trkpt lat="43.39170604441011" lon="10.73726166700459"><ele>477.00000000000006</ele><time>2026-04-19T11:02:51.001Z</time></trkpt><trkpt lat="43.3916609705117" lon="10.737410595209198"><ele>477.00000000000006</ele><time>2026-04-19T11:02:52.001Z</time></trkpt><trkpt lat="43.391630142445614" lon="10.737541876397145"><ele>477.0</ele><time>2026-04-19T11:02:53.001Z</time></trkpt><trkpt lat="43.391605027530325" lon="10.737666330928906"><ele>477.0</ele><time>2026-04-19T11:02:54.001Z</time></trkpt><trkpt lat="43.391582177295604" lon="10.737799262645495"><ele>475.20000000000005</ele><time>2026-04-19T11:02:55.001Z</time></trkpt><trkpt lat="43.391574728401686" lon="10.737943805254568"><ele>473.40000000000003</ele><time>2026-04-19T11:02:56.001Z</time></trkpt><trkpt lat="43.39158073770511" lon="10.738095653606363"><ele>471.59999999999997</ele><time>2026-04-19T11:02:57.001Z</time></trkpt><trkpt lat="43.39159973813814" lon="10.738247513062845"><ele>469.79999999999995</ele><time>2026-04-19T11:02:58.001Z</time></trkpt><trkpt lat="43.39162323548347" lon="10.738378801385064"><ele>468.0</ele><time>2026-04-19T11:02:59.001Z</time></trkpt><trkpt lat="43.39162820609891" lon="10.738491917229531"><ele>467.2</ele><time>2026-04-19T11:03:00.001Z</time></trkpt><trkpt lat="43.39162026770107" lon="10.738630646541106"><ele>466.4</ele><time>2026-04-19T11:03:01.001Z</time></trkpt><trkpt lat="43.39160482914072" lon="10.73876603104682"><ele>465.59999999999997</ele><time>2026-04-19T11:03:01.999Z</time></trkpt><trkpt lat="43.39158643063647" lon="10.738903004265751"><ele>464.79999999999995</ele><time>2026-04-19T11:03:02.999Z</time></trkpt><trkpt lat="43.391569557511" lon="10.739020938801772"><ele>464.0</ele><time>2026-04-19T11:03:03.999Z</time></trkpt><trkpt lat="43.391558752439835" lon="10.739138092095684"><ele>464.0</ele><time>2026-04-19T11:03:04.999Z</time></trkpt><trkpt lat="43.39154690913606" lon="10.739246711818408"><ele>464.0</ele><time>2026-04-19T11:03:05.999Z</time></trkpt><trkpt lat="43.391513008573504" lon="10.739344693786483"><ele>464.0</ele><time>2026-04-19T11:03:06.999Z</time></trkpt><trkpt lat="43.391482132045354" lon="10.739428301161906"><ele>464.0</ele><time>2026-04-19T11:03:07.999Z</time></trkpt><trkpt lat="43.39139378687861" lon="10.739540048816755"><ele>464.0</ele><time>2026-04-19T11:03:09.999Z</time></trkpt><trkpt lat="43.39129000821245" lon="10.7395950868665"><ele>461.2</ele><time>2026-04-19T11:03:11.999Z</time></trkpt><trkpt lat="43.39120725064749" lon="10.739634056316307"><ele>458.4</ele><time>2026-04-19T11:03:13.999Z</time></trkpt><trkpt lat="43.39113786051654" lon="10.739661033889362"><ele>455.6</ele><time>2026-04-19T11:03:16.999Z</time></trkpt><trkpt lat="43.39116182157592" lon="10.739826107606588"><ele>452.8</ele><time>2026-04-19T11:03:18.999Z</time></trkpt><trkpt lat="43.39120563586696" lon="10.739943541836734"><ele>450.0</ele><time>2026-04-19T11:03:20.999Z</time></trkpt><trkpt lat="43.39125371019934" lon="10.74006819809533"><ele>450.0</ele><time>2026-04-19T11:03:23Z</time></trkpt><trkpt lat="43.39129848091208" lon="10.74020420566854"><ele>450.0</ele><time>2026-04-19T11:03:25Z</time></trkpt><trkpt lat="43.39134504010058" lon="10.740356281803434"><ele>450.0</ele><time>2026-04-19T11:03:27Z</time></trkpt><trkpt lat="43.391370441692764" lon="10.740446162415056"><ele>450.0</ele><time>2026-04-19T11:03:28Z</time></trkpt><trkpt lat="43.39139477842125" lon="10.740544305273593"><ele>450.0</ele><time>2026-04-19T11:03:29Z</time></trkpt><trkpt lat="43.391421436674754" lon="10.740645619498707"><ele>450.8333333333333</ele><time>2026-04-19T11:03:30Z</time></trkpt><trkpt lat="43.391448401919554" lon="10.74074828067613"><ele>451.66666666666663</ele><time>2026-04-19T11:03:31Z</time></trkpt><trkpt lat="43.391480211870416" lon="10.74084962777165"><ele>452.5</ele><time>2026-04-19T11:03:32Z</time></trkpt><trkpt lat="43.39152820906878" lon="10.740936740505392"><ele>453.3333333333333</ele><time>2026-04-19T11:03:33Z</time></trkpt><trkpt lat="43.391603168022286" lon="10.74102529978475"><ele>454.16666666666663</ele><time>2026-04-19T11:03:34Z</time></trkpt><trkpt lat="43.39169540079513" lon="10.741088483051463"><ele>455.0</ele><time>2026-04-19T11:03:35Z</time></trkpt><trkpt lat="43.3917747533459" lon="10.741155796365058"><ele>452.6</ele><time>2026-04-19T11:03:36Z</time></trkpt><trkpt lat="43.39183335399345" lon="10.74122260724967"><ele>450.2</ele><time>2026-04-19T11:03:37Z</time></trkpt><trkpt lat="43.3918935573736" lon="10.741371183757217"><ele>447.79999999999995</ele><time>2026-04-19T11:03:39Z</time></trkpt><trkpt lat="43.391892120814155" lon="10.741486024143216"><ele>445.4</ele><time>2026-04-19T11:03:40Z</time></trkpt><trkpt lat="43.39187853194479" lon="10.741614664557002"><ele>443.0</ele><time>2026-04-19T11:03:41Z</time></trkpt><trkpt lat="43.39185917762812" lon="10.741747498373568"><ele>442.0</ele><time>2026-04-19T11:03:42Z</time></trkpt><trkpt lat="43.391833929123216" lon="10.74189160840813"><ele>440.99999999999994</ele><time>2026-04-19T11:03:43Z</time></trkpt><trkpt lat="43.39180993329192" lon="10.742040371957154"><ele>439.99999999999994</ele><time>2026-04-19T11:03:44Z</time></trkpt><trkpt lat="43.391786317601465" lon="10.742191544760153"><ele>439.0</ele><time>2026-04-19T11:03:45Z</time></trkpt><trkpt lat="43.39177160619282" lon="10.742341456572019"><ele>438.0</ele><time>2026-04-19T11:03:46Z</time></trkpt><trkpt lat="43.39175768569857" lon="10.742484960831018"><ele>438.0</ele><time>2026-04-19T11:03:47Z</time></trkpt><trkpt lat="43.39174688503154" lon="10.74262834589562"><ele>437.99999999999994</ele><time>2026-04-19T11:03:48Z</time></trkpt><trkpt lat="43.39173346690534" lon="10.742767198887432"><ele>437.99999999999994</ele><time>2026-04-19T11:03:49Z</time></trkpt><trkpt lat="43.39172418393998" lon="10.742913784675697"><ele>438.0</ele><time>2026-04-19T11:03:50Z</time></trkpt><trkpt lat="43.39171740126463" lon="10.743059258780265"><ele>438.0</ele><time>2026-04-19T11:03:51Z</time></trkpt><trkpt lat="43.3917271027442" lon="10.743186093678954"><ele>437.3333333333333</ele><time>2026-04-19T11:03:52Z</time></trkpt><trkpt lat="43.39174864795143" lon="10.743282504156193"><ele>436.66666666666663</ele><time>2026-04-19T11:03:53Z</time></trkpt><trkpt lat="43.391745835813516" lon="10.743428332412819"><ele>436.0</ele><time>2026-04-19T11:03:55Z</time></trkpt><trkpt lat="43.3916417147133" lon="10.743455487761743"><ele>435.3333333333333</ele><time>2026-04-19T11:03:57Z</time></trkpt><trkpt lat="43.39159842926" lon="10.743368306303298"><ele>434.66666666666663</ele><time>2026-04-19T11:03:58Z</time></trkpt><trkpt lat="43.39158810121449" lon="10.743262920630173"><ele>434.0</ele><time>2026-04-19T11:03:59Z</time></trkpt><trkpt lat="43.3915805811791" lon="10.74314672065594"><ele>433.99999999999994</ele><time>2026-04-19T11:04:00Z</time></trkpt><trkpt lat="43.391573817780774" lon="10.743032775922591"><ele>434.0</ele><time>2026-04-19T11:04:01.001Z</time></trkpt><trkpt lat="43.39156923550048" lon="10.742929934309887"><ele>434.0</ele><time>2026-04-19T11:04:02.001Z</time></trkpt><trkpt lat="43.3915461663057" lon="10.742830701753437"><ele>434.0</ele><time>2026-04-19T11:04:03.001Z</time></trkpt><trkpt lat="43.391538416767844" lon="10.742735518723514"><ele>433.99999999999994</ele><time>2026-04-19T11:04:04.001Z</time></trkpt><trkpt lat="43.39144969935708" lon="10.74263926809159"><ele>434.0</ele><time>2026-04-19T11:04:06.001Z</time></trkpt><trkpt lat="43.39135571954478" lon="10.742739485846482"><ele>433.99999999999994</ele><time>2026-04-19T11:04:08.001Z</time></trkpt><trkpt lat="43.391354076847946" lon="10.742847503653978"><ele>434.0</ele><time>2026-04-19T11:04:09.001Z</time></trkpt><trkpt lat="43.39135793536997" lon="10.74295932160902"><ele>434.0</ele><time>2026-04-19T11:04:10.001Z</time></trkpt><trkpt lat="43.391359402883594" lon="10.743076800368193"><ele>434.0</ele><time>2026-04-19T11:04:11.001Z</time></trkpt><trkpt lat="43.39136326104208" lon="10.743202452825487"><ele>433.99999999999994</ele><time>2026-04-19T11:04:12.001Z</time></trkpt><trkpt lat="43.391367137582364" lon="10.743332201884096"><ele>434.0</ele><time>2026-04-19T11:04:13.001Z</time></trkpt><trkpt lat="43.39137210270518" lon="10.743465178485927"><ele>431.66666666666663</ele><time>2026-04-19T11:04:14.001Z</time></trkpt><trkpt lat="43.39139959090582" lon="10.74358373719001"><ele>429.3333333333333</ele><time>2026-04-19T11:04:15.001Z</time></trkpt><trkpt lat="43.391429921599915" lon="10.743693882614263"><ele>427.0</ele><time>2026-04-19T11:04:16.001Z</time></trkpt><trkpt lat="43.39146050372824" lon="10.743795066212643"><ele>424.66666666666663</ele><time>2026-04-19T11:04:17.001Z</time></trkpt><trkpt lat="43.391514652568866" lon="10.743900300362295"><ele>422.3333333333333</ele><time>2026-04-19T11:04:18.001Z</time></trkpt><trkpt lat="43.39155760399609" lon="10.744002363407985"><ele>420.0</ele><time>2026-04-19T11:04:19.001Z</time></trkpt><trkpt lat="43.391611001749084" lon="10.744175250477634"><ele>420.0</ele><time>2026-04-19T11:04:21.001Z</time></trkpt><trkpt lat="43.391625386667506" lon="10.744260615409283"><ele>420.0</ele><time>2026-04-19T11:04:23.001Z</time></trkpt><trkpt lat="43.3916019205761" lon="10.744384860143906"><ele>420.0</ele><time>2026-04-19T11:04:28.001Z</time></trkpt><trkpt lat="43.39166184503196" lon="10.744459680210124"><ele>420.0</ele><time>2026-04-19T11:04:29.001Z</time></trkpt><trkpt lat="43.391699779951445" lon="10.74454343689273"><ele>420.0</ele><time>2026-04-19T11:04:30.001Z</time></trkpt><trkpt lat="43.39174638772111" lon="10.74464162487697"><ele>420.0</ele><time>2026-04-19T11:04:31.001Z</time></trkpt><trkpt lat="43.391796677315945" lon="10.744737825541247"><ele>417.3333333333333</ele><time>2026-04-19T11:04:32.001Z</time></trkpt><trkpt lat="43.39185068048711" lon="10.744833507397836"><ele>414.66666666666663</ele><time>2026-04-19T11:04:33.001Z</time></trkpt><trkpt lat="43.39191875693124" lon="10.74492339047713"><ele>412.0</ele><time>2026-04-19T11:04:34.001Z</time></trkpt><trkpt lat="43.39197822252653" lon="10.745011309673785"><ele>409.3333333333333</ele><time>2026-04-19T11:04:35.001Z</time></trkpt><trkpt lat="43.392034155303286" lon="10.74509339025791"><ele>406.66666666666663</ele><time>2026-04-19T11:04:36.001Z</time></trkpt><trkpt lat="43.39207993754013" lon="10.745175588049868"><ele>404.0</ele><time>2026-04-19T11:04:37.001Z</time></trkpt><trkpt lat="43.392125464763616" lon="10.745253720954759"><ele>404.49999999999994</ele><time>2026-04-19T11:04:38.001Z</time></trkpt><trkpt lat="43.3921687620557" lon="10.745341120147994"><ele>405.0</ele><time>2026-04-19T11:04:39.001Z</time></trkpt><trkpt lat="43.392187123106225" lon="10.745445784902563"><ele>405.5</ele><time>2026-04-19T11:04:40.001Z</time></trkpt><trkpt lat="43.39217618915233" lon="10.745556538878906"><ele>406.0</ele><time>2026-04-19T11:04:41.001Z</time></trkpt><trkpt lat="43.392144608290415" lon="10.745657373544603"><ele>406.49999999999994</ele><time>2026-04-19T11:04:42.001Z</time></trkpt><trkpt lat="43.39211511174505" lon="10.745742714050094"><ele>407.0</ele><time>2026-04-19T11:04:43.001Z</time></trkpt><trkpt lat="43.39203713881981" lon="10.745871217585343"><ele>406.3333333333333</ele><time>2026-04-19T11:04:45.001Z</time></trkpt><trkpt lat="43.39195727601959" lon="10.745994981622953"><ele>405.66666666666663</ele><time>2026-04-19T11:04:47.001Z</time></trkpt><trkpt lat="43.391873975196894" lon="10.74611723446414"><ele>405.0</ele><time>2026-04-19T11:04:49.001Z</time></trkpt><trkpt lat="43.391831072763594" lon="10.74618238185009"><ele>404.33333333333337</ele><time>2026-04-19T11:04:50.001Z</time></trkpt><trkpt lat="43.39178560798281" lon="10.746249290646007"><ele>403.6666666666667</ele><time>2026-04-19T11:04:51.001Z</time></trkpt><trkpt lat="43.39173947494183" lon="10.746321266951771"><ele>403.0</ele><time>2026-04-19T11:04:52.001Z</time></trkpt><trkpt lat="43.39169095419276" lon="10.746385143433383"><ele>403.0</ele><time>2026-04-19T11:04:53.001Z</time></trkpt><trkpt lat="43.39164238905337" lon="10.746469351516131"><ele>403.0</ele><time>2026-04-19T11:04:54.002Z</time></trkpt><trkpt lat="43.39159197268547" lon="10.746552076700969"><ele>403.0</ele><time>2026-04-19T11:04:55.002Z</time></trkpt><trkpt lat="43.39155600707526" lon="10.746645129835459"><ele>403.0</ele><time>2026-04-19T11:04:56.002Z</time></trkpt><trkpt lat="43.391536574070855" lon="10.746731861905793"><ele>403.0</ele><time>2026-04-19T11:04:57.002Z</time></trkpt><trkpt lat="43.3915208497683" lon="10.746825498193981"><ele>403.0</ele><time>2026-04-19T11:04:58.002Z</time></trkpt><trkpt lat="43.39151138448549" lon="10.74691822994917"><ele>403.0</ele><time>2026-04-19T11:04:59.002Z</time></trkpt><trkpt lat="43.39150455488638" lon="10.747013759305961"><ele>402.83333333333337</ele><time>2026-04-19T11:05:00.002Z</time></trkpt><trkpt lat="43.391496611350625" lon="10.74710931036859"><ele>402.6666666666667</ele><time>2026-04-19T11:05:01.002Z</time></trkpt><trkpt lat="43.39150079707106" lon="10.747209334708655"><ele>402.5</ele><time>2026-04-19T11:05:02.002Z</time></trkpt><trkpt lat="43.39149825064376" lon="10.747302068282755"><ele>402.33333333333337</ele><time>2026-04-19T11:05:03.002Z</time></trkpt><trkpt lat="43.39148940284719" lon="10.747397372991363"><ele>402.1666666666667</ele><time>2026-04-19T11:05:04.002Z</time></trkpt><trkpt lat="43.39150210559066" lon="10.747482340752619"><ele>402.0</ele><time>2026-04-19T11:05:05.002Z</time></trkpt><trkpt lat="43.39153423290066" lon="10.747632302007169"><ele>400.40000000000003</ele><time>2026-04-19T11:05:07.002Z</time></trkpt><trkpt lat="43.39158912921131" lon="10.747770053869694"><ele>398.8</ele><time>2026-04-19T11:05:08.999Z</time></trkpt><trkpt lat="43.39168380639941" lon="10.747898809198563"><ele>397.2</ele><time>2026-04-19T11:05:10.999Z</time></trkpt><trkpt lat="43.39174446273198" lon="10.74795772278369"><ele>395.6</ele><time>2026-04-19T11:05:11.999Z</time></trkpt><trkpt lat="43.39180788165084" lon="10.74802005613464"><ele>394.0</ele><time>2026-04-19T11:05:12.999Z</time></trkpt><trkpt lat="43.391862502991636" lon="10.748074102877302"><ele>394.00000000000006</ele><time>2026-04-19T11:05:13.999Z</time></trkpt><trkpt lat="43.391914997845866" lon="10.748124929449721"><ele>394.0</ele><time>2026-04-19T11:05:14.999Z</time></trkpt><trkpt lat="43.391964765059086" lon="10.748179096783044"><ele>394.0</ele><time>2026-04-19T11:05:15.999Z</time></trkpt><trkpt lat="43.39204773210757" lon="10.748303479066717"><ele>394.0</ele><time>2026-04-19T11:05:17.999Z</time></trkpt><trkpt lat="43.392078975462084" lon="10.748425540922195"><ele>394.00000000000006</ele><time>2026-04-19T11:05:19.999Z</time></trkpt><trkpt lat="43.3920951269083" lon="10.748514745671395"><ele>394.0</ele><time>2026-04-19T11:05:21.999Z</time></trkpt><trkpt lat="43.39212869685126" lon="10.748598543367992"><ele>394.50000000000006</ele><time>2026-04-19T11:06:54.002Z</time></trkpt><trkpt lat="43.39216455620192" lon="10.748707229770869"><ele>395.0</ele><time>2026-04-19T11:06:57.002Z</time></trkpt><trkpt lat="43.39218949960016" lon="10.748808895227649"><ele>395.5</ele><time>2026-04-19T11:06:59.002Z</time></trkpt><trkpt lat="43.392218387499256" lon="10.748922139253054"><ele>396.0</ele><time>2026-04-19T11:07:01.002Z</time></trkpt><trkpt lat="43.39226102658748" lon="10.749044247163242"><ele>396.50000000000006</ele><time>2026-04-19T11:07:03.002Z</time></trkpt><trkpt lat="43.39229973091137" lon="10.749154361568925"><ele>397.0</ele><time>2026-04-19T11:07:05.002Z</time></trkpt><trkpt lat="43.3923381091581" lon="10.749251579861252"><ele>397.00000000000006</ele><time>2026-04-19T11:07:07.002Z</time></trkpt><trkpt lat="43.392366358986706" lon="10.74934798416213"><ele>397.0</ele><time>2026-04-19T11:07:09.002Z</time></trkpt><trkpt lat="43.392399778626164" lon="10.749447074929309"><ele>397.0</ele><time>2026-04-19T11:07:11.002Z</time></trkpt><trkpt lat="43.39243954260405" lon="10.749546890905435"><ele>397.0</ele><time>2026-04-19T11:07:13.002Z</time></trkpt><trkpt lat="43.392471837887285" lon="10.749651595782337"><ele>397.00000000000006</ele><time>2026-04-19T11:07:15.001Z</time></trkpt><trkpt lat="43.39251274257113" lon="10.749740146655762"><ele>397.0</ele><time>2026-04-19T11:07:18.001Z</time></trkpt><trkpt lat="43.39256821696748" lon="10.749816406102859"><ele>396.57142857142856</ele><time>2026-04-19T11:07:23.001Z</time></trkpt><trkpt lat="43.39261014546862" lon="10.749885113650658"><ele>396.1428571428571</ele><time>2026-04-19T11:07:26.001Z</time></trkpt><trkpt lat="43.39267041971794" lon="10.74991376056033"><ele>395.7142857142857</ele><time>2026-04-19T11:07:29.001Z</time></trkpt><trkpt lat="43.39276248784995" lon="10.749916618210825"><ele>395.2857142857143</ele><time>2026-04-19T11:07:32.001Z</time></trkpt><trkpt lat="43.39283842446245" lon="10.749899286239616"><ele>394.8571428571429</ele><time>2026-04-19T11:07:34.001Z</time></trkpt><trkpt lat="43.39291395071847" lon="10.74988709346621"><ele>394.42857142857144</ele><time>2026-04-19T11:07:36.001Z</time></trkpt><trkpt lat="43.39297519954752" lon="10.749843438348552"><ele>394.0</ele><time>2026-04-19T11:07:38.001Z</time></trkpt><trkpt lat="43.39303474993204" lon="10.749779326504763"><ele>393.14285714285717</ele><time>2026-04-19T11:07:40.001Z</time></trkpt><trkpt lat="43.393074998012395" lon="10.749711318645375"><ele>392.28571428571433</ele><time>2026-04-19T11:07:45.001Z</time></trkpt><trkpt lat="43.39312374673191" lon="10.749645597034236"><ele>391.42857142857144</ele><time>2026-04-19T11:08:02.001Z</time></trkpt><trkpt lat="43.393168285561664" lon="10.74954457386621"><ele>390.57142857142856</ele><time>2026-04-19T11:08:11.001Z</time></trkpt><trkpt lat="43.39320959861336" lon="10.749434280222994"><ele>389.7142857142857</ele><time>2026-04-19T11:08:13.001Z</time></trkpt><trkpt lat="43.39325581252605" lon="10.749352003924406"><ele>388.85714285714283</ele><time>2026-04-19T11:08:15.001Z</time></trkpt><trkpt lat="43.393226025739175" lon="10.749432665717997"><ele>388.0</ele><time>2026-04-19T11:08:34.002Z</time></trkpt><trkpt lat="43.393190115798475" lon="10.749512174262213"><ele>387.59999999999997</ele><time>2026-04-19T11:08:36.002Z</time></trkpt><trkpt lat="43.39313544767484" lon="10.749633215665442"><ele>387.2</ele><time>2026-04-19T11:08:38.002Z</time></trkpt><trkpt lat="43.39305908304785" lon="10.7497557555922"><ele>386.8</ele><time>2026-04-19T11:08:40.002Z</time></trkpt><trkpt lat="43.39297509871428" lon="10.74983472572108"><ele>386.4</ele><time>2026-04-19T11:08:42.002Z</time></trkpt><trkpt lat="43.39291199687356" lon="10.749863255899246"><ele>386.0</ele><time>2026-04-19T11:08:45.002Z</time></trkpt><trkpt lat="43.392969590480604" lon="10.74982755921753"><ele>385.99999999999994</ele><time>2026-04-19T11:09:08.002Z</time></trkpt><trkpt lat="43.39303211513778" lon="10.749785839265241"><ele>386.0</ele><time>2026-04-19T11:09:15.002Z</time></trkpt><trkpt lat="43.39310124232637" lon="10.749691495618315"><ele>386.0</ele><time>2026-04-19T11:12:26.001Z</time></trkpt><trkpt lat="43.39314175621354" lon="10.749619536025213"><ele>386.0</ele><time>2026-04-19T11:12:30.001Z</time></trkpt><trkpt lat="43.39318771640869" lon="10.749517487132726"><ele>385.99999999999994</ele><time>2026-04-19T11:12:32.001Z</time></trkpt><trkpt lat="43.39324383249318" lon="10.749392888202937"><ele>386.0</ele><time>2026-04-19T11:12:35.001Z</time></trkpt><trkpt lat="43.393283881055424" lon="10.749301787565397"><ele>386.4</ele><time>2026-04-19T11:12:37.001Z</time></trkpt><trkpt lat="43.393330657737124" lon="10.749192052940243"><ele>386.8</ele><time>2026-04-19T11:12:39.001Z</time></trkpt><trkpt lat="43.39338527217117" lon="10.749030194221817"><ele>387.2</ele><time>2026-04-19T11:12:41.001Z</time></trkpt><trkpt lat="43.39343698273778" lon="10.748971080650527"><ele>387.59999999999997</ele><time>2026-04-19T11:12:42.001Z</time></trkpt><trkpt lat="43.3934837191171" lon="10.748899926062718"><ele>388.0</ele><time>2026-04-19T11:12:43.001Z</time></trkpt><trkpt lat="43.393604525004676" lon="10.748758149655329"><ele>388.00000000000006</ele><time>2026-04-19T11:12:45.001Z</time></trkpt><trkpt lat="43.393676204578426" lon="10.748688296992395"><ele>388.0</ele><time>2026-04-19T11:12:46.001Z</time></trkpt><trkpt lat="43.39373056697013" lon="10.748643024209677"><ele>388.0</ele><time>2026-04-19T11:12:47.001Z</time></trkpt><trkpt lat="43.393822848568604" lon="10.74859336067856"><ele>388.0</ele><time>2026-04-19T11:12:48.001Z</time></trkpt><trkpt lat="43.39391833757184" lon="10.748618593324407"><ele>388.00000000000006</ele><time>2026-04-19T11:12:49.001Z</time></trkpt><trkpt lat="43.394004295989184" lon="10.748607586717128"><ele>388.0</ele><time>2026-04-19T11:12:50.001Z</time></trkpt><trkpt lat="43.39413073052213" lon="10.748612763674496"><ele>387.2</ele><time>2026-04-19T11:12:52.001Z</time></trkpt><trkpt lat="43.39422846133341" lon="10.748610429899738"><ele>386.4</ele><time>2026-04-19T11:12:54.001Z</time></trkpt><trkpt lat="43.39435614952553" lon="10.748564957939431"><ele>385.59999999999997</ele><time>2026-04-19T11:12:56.001Z</time></trkpt><trkpt lat="43.39443024181967" lon="10.748538521271273"><ele>384.79999999999995</ele><time>2026-04-19T11:12:57.001Z</time></trkpt><trkpt lat="43.39450087076185" lon="10.748473609030603"><ele>384.0</ele><time>2026-04-19T11:12:58.001Z</time></trkpt><trkpt lat="43.39456858081723" lon="10.748412540821702"><ele>384.0</ele><time>2026-04-19T11:12:59.001Z</time></trkpt><trkpt lat="43.394628579970544" lon="10.748372007852076"><ele>384.0</ele><time>2026-04-19T11:13:00.001Z</time></trkpt><trkpt lat="43.3947029472347" lon="10.748344296611567"><ele>384.0</ele><time>2026-04-19T11:13:01.001Z</time></trkpt><trkpt lat="43.39478505999674" lon="10.748370432793498"><ele>384.0</ele><time>2026-04-19T11:13:02.001Z</time></trkpt><trkpt lat="43.394852849547206" lon="10.748450824131337"><ele>384.0</ele><time>2026-04-19T11:13:03.001Z</time></trkpt><trkpt lat="43.394935550853404" lon="10.748479990380641"><ele>384.0</ele><time>2026-04-19T11:13:04.001Z</time></trkpt><trkpt lat="43.39500194541087" lon="10.748529926231322"><ele>381.0</ele><time>2026-04-19T11:13:05.001Z</time></trkpt><trkpt lat="43.3950642854039" lon="10.748566804148295"><ele>378.0</ele><time>2026-04-19T11:13:06.001Z</time></trkpt><trkpt lat="43.39511277116363" lon="10.748641667450716"><ele>375.0</ele><time>2026-04-19T11:13:07.001Z</time></trkpt><trkpt lat="43.39519374620961" lon="10.748699427991331"><ele>372.0</ele><time>2026-04-19T11:13:08.001Z</time></trkpt><trkpt lat="43.39524834553317" lon="10.748800418916263"><ele>369.0</ele><time>2026-04-19T11:13:09.001Z</time></trkpt><trkpt lat="43.39530539083341" lon="10.748893610453727"><ele>366.0</ele><time>2026-04-19T11:13:10.001Z</time></trkpt><trkpt lat="43.3953792463693" lon="10.748968770141015"><ele>366.0</ele><time>2026-04-19T11:13:11.001Z</time></trkpt><trkpt lat="43.395439974609566" lon="10.74906136029203"><ele>366.0</ele><time>2026-04-19T11:13:12.001Z</time></trkpt><trkpt lat="43.39550282872493" lon="10.749154645499406"><ele>366.0</ele><time>2026-04-19T11:13:13.001Z</time></trkpt><trkpt lat="43.395575011754545" lon="10.749223115493248"><ele>366.0</ele><time>2026-04-19T11:13:14.001Z</time></trkpt><trkpt lat="43.39565785817207" lon="10.74926717292641"><ele>366.0</ele><time>2026-04-19T11:13:15.001Z</time></trkpt><trkpt lat="43.395787506146114" lon="10.749338454037627"><ele>367.20000000000005</ele><time>2026-04-19T11:13:17.001Z</time></trkpt><trkpt lat="43.39586873872528" lon="10.749331522125408"><ele>368.40000000000003</ele><time>2026-04-19T11:13:18.001Z</time></trkpt><trkpt lat="43.39596622525077" lon="10.749298511264623"><ele>369.6</ele><time>2026-04-19T11:13:19.001Z</time></trkpt><trkpt lat="43.39606807900946" lon="10.749279262656966"><ele>370.8</ele><time>2026-04-19T11:13:20.001Z</time></trkpt><trkpt lat="43.39617870994601" lon="10.749237706465467"><ele>372.0</ele><time>2026-04-19T11:13:21.001Z</time></trkpt><trkpt lat="43.396287666200024" lon="10.7491967793281"><ele>369.5</ele><time>2026-04-19T11:13:22.001Z</time></trkpt><trkpt lat="43.39640211534914" lon="10.749153751772134"><ele>367.0</ele><time>2026-04-19T11:13:23.001Z</time></trkpt><trkpt lat="43.39651048948731" lon="10.74911167917672"><ele>364.5</ele><time>2026-04-19T11:13:24.001Z</time></trkpt><trkpt lat="43.396616543470586" lon="10.749048602500064"><ele>362.0</ele><time>2026-04-19T11:13:25.001Z</time></trkpt><trkpt lat="43.396724711767796" lon="10.74901139369505"><ele>362.0</ele><time>2026-04-19T11:13:26.001Z</time></trkpt><trkpt lat="43.39683506174985" lon="10.748974088716501"><ele>362.0</ele><time>2026-04-19T11:13:27.001Z</time></trkpt><trkpt lat="43.39694136747968" lon="10.748928612500837"><ele>362.0</ele><time>2026-04-19T11:13:28.002Z</time></trkpt><trkpt lat="43.39704933076519" lon="10.748893690722442"><ele>362.0</ele><time>2026-04-19T11:13:29.002Z</time></trkpt><trkpt lat="43.39716024366074" lon="10.748852602348068"><ele>360.20000000000005</ele><time>2026-04-19T11:13:30.002Z</time></trkpt><trkpt lat="43.397260383469956" lon="10.74881803966111"><ele>358.4</ele><time>2026-04-19T11:13:31.002Z</time></trkpt><trkpt lat="43.397354863278714" lon="10.748784412004182"><ele>356.6</ele><time>2026-04-19T11:13:31.999Z</time></trkpt><trkpt lat="43.3974470715996" lon="10.748775029855915"><ele>354.79999999999995</ele><time>2026-04-19T11:13:32.999Z</time></trkpt><trkpt lat="43.39753693998888" lon="10.748745238029569"><ele>353.0</ele><time>2026-04-19T11:13:33.999Z</time></trkpt><trkpt lat="43.39760486551637" lon="10.748727700880549"><ele>353.0</ele><time>2026-04-19T11:13:34.999Z</time></trkpt><trkpt lat="43.39768653895493" lon="10.748750217879332"><ele>353.0</ele><time>2026-04-19T11:13:36.999Z</time></trkpt><trkpt lat="43.39768100518891" lon="10.748897975683432"><ele>353.0</ele><time>2026-04-19T11:13:38.999Z</time></trkpt><trkpt lat="43.397619318073225" lon="10.748937224023628"><ele>353.0</ele><time>2026-04-19T11:13:39.999Z</time></trkpt><trkpt lat="43.39752033425465" lon="10.748954986773516"><ele>353.0</ele><time>2026-04-19T11:13:40.999Z</time></trkpt><trkpt lat="43.39743460936332" lon="10.749005749560759"><ele>353.0</ele><time>2026-04-19T11:13:41.999Z</time></trkpt><trkpt lat="43.397342552018756" lon="10.749052933230095"><ele>353.0</ele><time>2026-04-19T11:13:42.999Z</time></trkpt><trkpt lat="43.39725165810207" lon="10.749110501275853"><ele>353.0</ele><time>2026-04-19T11:13:43.999Z</time></trkpt><trkpt lat="43.397160292865934" lon="10.749159923420796"><ele>353.0</ele><time>2026-04-19T11:13:44.999Z</time></trkpt><trkpt lat="43.39707800481279" lon="10.749216883383562"><ele>353.0</ele><time>2026-04-19T11:13:45.999Z</time></trkpt><trkpt lat="43.39699942578308" lon="10.749260412032577"><ele>354.5</ele><time>2026-04-19T11:13:46.999Z</time></trkpt><trkpt lat="43.39693110277457" lon="10.749296520530866"><ele>356.0</ele><time>2026-04-19T11:13:48Z</time></trkpt><trkpt lat="43.396870887381816" lon="10.74940695413561"><ele>357.5</ele><time>2026-04-19T11:13:50Z</time></trkpt><trkpt lat="43.39688487854386" lon="10.749496355501005"><ele>359.0</ele><time>2026-04-19T11:13:51Z</time></trkpt><trkpt lat="43.39695452465306" lon="10.749556895284128"><ele>360.5</ele><time>2026-04-19T11:13:52Z</time></trkpt><trkpt lat="43.39703275007205" lon="10.749555559306073"><ele>362.0</ele><time>2026-04-19T11:13:53Z</time></trkpt><trkpt lat="43.397129943811095" lon="10.749519856649004"><ele>359.75</ele><time>2026-04-19T11:13:54Z</time></trkpt><trkpt lat="43.39723920401226" lon="10.749471069660386"><ele>357.5</ele><time>2026-04-19T11:13:55Z</time></trkpt><trkpt lat="43.39734330440989" lon="10.749424425447675"><ele>355.25</ele><time>2026-04-19T11:13:56Z</time></trkpt><trkpt lat="43.39745414378116" lon="10.74938292767528"><ele>353.0</ele><time>2026-04-19T11:13:57Z</time></trkpt><trkpt lat="43.39757178919506" lon="10.74934730462819"><ele>353.0</ele><time>2026-04-19T11:13:58Z</time></trkpt><trkpt lat="43.39768338918724" lon="10.749302897577353"><ele>353.0</ele><time>2026-04-19T11:13:59Z</time></trkpt><trkpt lat="43.397808837494196" lon="10.749277139201382"><ele>353.0</ele><time>2026-04-19T11:14:00Z</time></trkpt><trkpt lat="43.39792407043299" lon="10.74922537543974"><ele>353.0</ele><time>2026-04-19T11:14:01Z</time></trkpt><trkpt lat="43.398045586723086" lon="10.749170409560215"><ele>348.5</ele><time>2026-04-19T11:14:02Z</time></trkpt><trkpt lat="43.398157241698456" lon="10.749087103067495"><ele>344.0</ele><time>2026-04-19T11:14:03Z</time></trkpt><trkpt lat="43.39826310328234" lon="10.749039554046734"><ele>339.5</ele><time>2026-04-19T11:14:04Z</time></trkpt><trkpt lat="43.39836058610747" lon="10.74896939381424"><ele>335.0</ele><time>2026-04-19T11:14:05Z</time></trkpt><trkpt lat="43.39845683296593" lon="10.748901054503206"><ele>335.0</ele><time>2026-04-19T11:14:06Z</time></trkpt><trkpt lat="43.398537966642245" lon="10.7488415093435"><ele>335.0</ele><time>2026-04-19T11:14:07Z</time></trkpt><trkpt lat="43.39864916343775" lon="10.74875509904956"><ele>335.0</ele><time>2026-04-19T11:14:08Z</time></trkpt><trkpt lat="43.39875622737997" lon="10.748664353296702"><ele>335.0</ele><time>2026-04-19T11:14:09Z</time></trkpt><trkpt lat="43.398839820744705" lon="10.748590192335786"><ele>335.0</ele><time>2026-04-19T11:14:10Z</time></trkpt><trkpt lat="43.39890934778228" lon="10.748502985188804"><ele>334.4</ele><time>2026-04-19T11:14:11Z</time></trkpt><trkpt lat="43.39900491600558" lon="10.74843507112196"><ele>333.8</ele><time>2026-04-19T11:14:12Z</time></trkpt><trkpt lat="43.39908053417247" lon="10.748325933595007"><ele>333.20000000000005</ele><time>2026-04-19T11:14:13Z</time></trkpt><trkpt lat="43.3991206060844" lon="10.748193146470786"><ele>332.6</ele><time>2026-04-19T11:14:14Z</time></trkpt><trkpt lat="43.39916794102725" lon="10.748116936792362"><ele>332.0</ele><time>2026-04-19T11:14:15Z</time></trkpt><trkpt lat="43.39925601543292" lon="10.747987156247468"><ele>332.0</ele><time>2026-04-19T11:14:17Z</time></trkpt><trkpt lat="43.39932917427412" lon="10.747938801735314"><ele>332.0</ele><time>2026-04-19T11:14:18Z</time></trkpt><trkpt lat="43.39941593838257" lon="10.747986042485497"><ele>332.0</ele><time>2026-04-19T11:14:19Z</time></trkpt><trkpt lat="43.399498688961884" lon="10.748074912520948"><ele>332.0</ele><time>2026-04-19T11:14:20Z</time></trkpt><trkpt lat="43.39954128964108" lon="10.748195078782386"><ele>332.0</ele><time>2026-04-19T11:14:21Z</time></trkpt><trkpt lat="43.39958413978831" lon="10.748321530197698"><ele>332.0</ele><time>2026-04-19T11:14:22Z</time></trkpt><trkpt lat="43.39962211840021" lon="10.74843680050889"><ele>332.0</ele><time>2026-04-19T11:14:23Z</time></trkpt><trkpt lat="43.39967560831008" lon="10.748562677400132"><ele>332.0</ele><time>2026-04-19T11:14:24Z</time></trkpt><trkpt lat="43.39970262142754" lon="10.748665773328392"><ele>332.0</ele><time>2026-04-19T11:14:25Z</time></trkpt><trkpt lat="43.399737324326004" lon="10.748772498950473"><ele>332.0</ele><time>2026-04-19T11:14:26Z</time></trkpt><trkpt lat="43.399773319999035" lon="10.748873790497617"><ele>332.0</ele><time>2026-04-19T11:14:27.001Z</time></trkpt><trkpt lat="43.399810225938346" lon="10.74897545861095"><ele>328.33333333333337</ele><time>2026-04-19T11:14:28.001Z</time></trkpt><trkpt lat="43.39986390044877" lon="10.749072627897213"><ele>324.6666666666667</ele><time>2026-04-19T11:14:29.001Z</time></trkpt><trkpt lat="43.39992720776761" lon="10.749138676573343"><ele>321.0</ele><time>2026-04-19T11:14:30.001Z</time></trkpt><trkpt lat="43.39999337489756" lon="10.74917001328794"><ele>317.3333333333333</ele><time>2026-04-19T11:14:31.001Z</time></trkpt><trkpt lat="43.4000731287029" lon="10.74920141587208"><ele>313.66666666666663</ele><time>2026-04-19T11:14:32.001Z</time></trkpt><trkpt lat="43.400158764660034" lon="10.749220175716708"><ele>310.0</ele><time>2026-04-19T11:14:33.001Z</time></trkpt><trkpt lat="43.400255945950924" lon="10.749231221917016"><ele>310.0</ele><time>2026-04-19T11:14:34.001Z</time></trkpt><trkpt lat="43.40036569266524" lon="10.749228868416118"><ele>310.0</ele><time>2026-04-19T11:14:35.001Z</time></trkpt><trkpt lat="43.40048127509711" lon="10.749206203561863"><ele>310.0</ele><time>2026-04-19T11:14:36.001Z</time></trkpt><trkpt lat="43.40060908080618" lon="10.749166575899672"><ele>310.0</ele><time>2026-04-19T11:14:37.001Z</time></trkpt><trkpt lat="43.400723765283345" lon="10.749092705342157"><ele>309.75</ele><time>2026-04-19T11:14:38.001Z</time></trkpt><trkpt lat="43.400825839438625" lon="10.74899479300944"><ele>309.5</ele><time>2026-04-19T11:14:39.001Z</time></trkpt><trkpt lat="43.400915101653254" lon="10.748861860158419"><ele>309.25</ele><time>2026-04-19T11:14:40.001Z</time></trkpt><trkpt lat="43.40099178915588" lon="10.748699776624216"><ele>309.0</ele><time>2026-04-19T11:14:41.001Z</time></trkpt><trkpt lat="43.401058026139424" lon="10.748537541975598"><ele>309.0</ele><time>2026-04-19T11:14:42.001Z</time></trkpt><trkpt lat="43.401158369572556" lon="10.748404288682561"><ele>309.0</ele><time>2026-04-19T11:14:43.001Z</time></trkpt><trkpt lat="43.40125537270071" lon="10.748284324448145"><ele>309.0</ele><time>2026-04-19T11:14:44.001Z</time></trkpt><trkpt lat="43.40134366869091" lon="10.748200983781762"><ele>309.0</ele><time>2026-04-19T11:14:45.001Z</time></trkpt><trkpt lat="43.40145371425344" lon="10.74812332111048"><ele>306.75</ele><time>2026-04-19T11:14:46.001Z</time></trkpt><trkpt lat="43.40156652985888" lon="10.748061144755878"><ele>304.5</ele><time>2026-04-19T11:14:47.001Z</time></trkpt><trkpt lat="43.4016854508255" lon="10.748036035037208"><ele>302.25</ele><time>2026-04-19T11:14:48.001Z</time></trkpt><trkpt lat="43.40180883768729" lon="10.748052348217037"><ele>300.0</ele><time>2026-04-19T11:14:49.001Z</time></trkpt><trkpt lat="43.401932121301584" lon="10.748072963112488"><ele>300.0</ele><time>2026-04-19T11:14:50.001Z</time></trkpt><trkpt lat="43.40206271369428" lon="10.748151804909018"><ele>300.0</ele><time>2026-04-19T11:14:51.001Z</time></trkpt><trkpt lat="43.402182640206725" lon="10.74825428859981"><ele>300.0</ele><time>2026-04-19T11:14:52.001Z</time></trkpt><trkpt lat="43.40228351489949" lon="10.74838850633476"><ele>300.0</ele><time>2026-04-19T11:14:53.001Z</time></trkpt><trkpt lat="43.40235062226233" lon="10.74855690044231"><ele>298.75</ele><time>2026-04-19T11:14:54.001Z</time></trkpt><trkpt lat="43.40240623449201" lon="10.748738446640523"><ele>297.5</ele><time>2026-04-19T11:14:55.001Z</time></trkpt><trkpt lat="43.402432380480846" lon="10.748854611028042"><ele>296.25</ele><time>2026-04-19T11:14:56.001Z</time></trkpt><trkpt lat="43.4024902458386" lon="10.749003527177587"><ele>295.0</ele><time>2026-04-19T11:14:57.001Z</time></trkpt><trkpt lat="43.40258649463468" lon="10.749111054973707"><ele>295.0</ele><time>2026-04-19T11:14:58.001Z</time></trkpt><trkpt lat="43.40266754443343" lon="10.749208318408412"><ele>295.0</ele><time>2026-04-19T11:14:59.001Z</time></trkpt><trkpt lat="43.402770022652845" lon="10.749294778893233"><ele>295.0</ele><time>2026-04-19T11:15:00.001Z</time></trkpt><trkpt lat="43.40288426450238" lon="10.749355176900766"><ele>295.0</ele><time>2026-04-19T11:15:01.001Z</time></trkpt><trkpt lat="43.403013422141285" lon="10.749387654680257"><ele>293.25</ele><time>2026-04-19T11:15:02.001Z</time></trkpt><trkpt lat="43.40314413740065" lon="10.74941142779562"><ele>291.5</ele><time>2026-04-19T11:15:03.001Z</time></trkpt><trkpt lat="43.40325789464255" lon="10.749446062500335"><ele>289.75</ele><time>2026-04-19T11:15:04.001Z</time></trkpt><trkpt lat="43.40337260929412" lon="10.749520903438741"><ele>288.0</ele><time>2026-04-19T11:15:05.001Z</time></trkpt><trkpt lat="43.40346568573548" lon="10.749637218511294"><ele>288.0</ele><time>2026-04-19T11:15:06.001Z</time></trkpt><trkpt lat="43.40351812503214" lon="10.74980676568349"><ele>288.0</ele><time>2026-04-19T11:15:07.001Z</time></trkpt><trkpt lat="43.40359798434206" lon="10.74993659037679"><ele>288.0</ele><time>2026-04-19T11:15:08.001Z</time></trkpt><trkpt lat="43.403678334160674" lon="10.750068349633715"><ele>288.0</ele><time>2026-04-19T11:15:09.001Z</time></trkpt><trkpt lat="43.40379847031366" lon="10.75019002359086"><ele>287.5</ele><time>2026-04-19T11:15:10.001Z</time></trkpt><trkpt lat="43.40389058638444" lon="10.750304331466829"><ele>287.0</ele><time>2026-04-19T11:15:11.001Z</time></trkpt><trkpt lat="43.40397156241533" lon="10.7504503984537"><ele>286.5</ele><time>2026-04-19T11:15:12.001Z</time></trkpt><trkpt lat="43.40400116689039" lon="10.750625240149198"><ele>286.0</ele><time>2026-04-19T11:15:13.001Z</time></trkpt><trkpt lat="43.40403076119504" lon="10.750829375296684"><ele>286.0</ele><time>2026-04-19T11:15:14.001Z</time></trkpt><trkpt lat="43.404034918036054" lon="10.751009826658354"><ele>286.0</ele><time>2026-04-19T11:15:15.001Z</time></trkpt><trkpt lat="43.40404529174831" lon="10.751200602610991"><ele>286.0</ele><time>2026-04-19T11:15:16.001Z</time></trkpt><trkpt lat="43.40405490213054" lon="10.751395311377616"><ele>286.0</ele><time>2026-04-19T11:15:17.001Z</time></trkpt><trkpt lat="43.40406616458075" lon="10.751589019396985"><ele>284.0</ele><time>2026-04-19T11:15:18.001Z</time></trkpt><trkpt lat="43.404073420280085" lon="10.75177360530462"><ele>282.0</ele><time>2026-04-19T11:15:19.001Z</time></trkpt><trkpt lat="43.40408591353333" lon="10.751967326101983"><ele>280.0</ele><time>2026-04-19T11:15:20.001Z</time></trkpt><trkpt lat="43.404096782460314" lon="10.75217011127027"><ele>278.0</ele><time>2026-04-19T11:15:21.002Z</time></trkpt><trkpt lat="43.40411587949828" lon="10.752384964578498"><ele>275.6666666666667</ele><time>2026-04-19T11:15:22.002Z</time></trkpt><trkpt lat="43.40415399654725" lon="10.752603594814177"><ele>273.3333333333333</ele><time>2026-04-19T11:15:23.002Z</time></trkpt><trkpt lat="43.40421604483227" lon="10.752808520087614"><ele>271.0</ele><time>2026-04-19T11:15:24.002Z</time></trkpt><trkpt lat="43.40428236778881" lon="10.752971177634866"><ele>269.25</ele><time>2026-04-19T11:15:25.002Z</time></trkpt><trkpt lat="43.404343763120615" lon="10.753121478409327"><ele>267.5</ele><time>2026-04-19T11:15:26.002Z</time></trkpt><trkpt lat="43.404415908401845" lon="10.75326493834602"><ele>265.75</ele><time>2026-04-19T11:15:27.002Z</time></trkpt><trkpt lat="43.40449645603108" lon="10.75340458568419"><ele>264.0</ele><time>2026-04-19T11:15:28.002Z</time></trkpt><trkpt lat="43.40459157876909" lon="10.753533201208285"><ele>262.75</ele><time>2026-04-19T11:15:29.002Z</time></trkpt><trkpt lat="43.404697124902086" lon="10.75365482128367"><ele>261.5</ele><time>2026-04-19T11:15:30.002Z</time></trkpt><trkpt lat="43.4048030066298" lon="10.753757705504254"><ele>260.25</ele><time>2026-04-19T11:15:31.002Z</time></trkpt><trkpt lat="43.40491492828229" lon="10.753827612001716"><ele>259.0</ele><time>2026-04-19T11:15:32.002Z</time></trkpt><trkpt lat="43.40504307465316" lon="10.753869180832615"><ele>259.0</ele><time>2026-04-19T11:15:33.002Z</time></trkpt><trkpt lat="43.40517317770876" lon="10.753890341383967"><ele>259.0</ele><time>2026-04-19T11:15:34.002Z</time></trkpt><trkpt lat="43.405310108366834" lon="10.753934591339895"><ele>259.0</ele><time>2026-04-19T11:15:35.002Z</time></trkpt><trkpt lat="43.40542927207782" lon="10.753997722574526"><ele>259.0</ele><time>2026-04-19T11:15:36.002Z</time></trkpt><trkpt lat="43.4055360850297" lon="10.75409393027236"><ele>257.75</ele><time>2026-04-19T11:15:37.002Z</time></trkpt><trkpt lat="43.40562018904845" lon="10.754204534445861"><ele>256.5</ele><time>2026-04-19T11:15:38Z</time></trkpt><trkpt lat="43.40567876848509" lon="10.754337860737305"><ele>255.25</ele><time>2026-04-19T11:15:39Z</time></trkpt><trkpt lat="43.405715340592494" lon="10.754489558495418"><ele>254.0</ele><time>2026-04-19T11:15:40Z</time></trkpt><trkpt lat="43.40575012203131" lon="10.754639015423285"><ele>254.0</ele><time>2026-04-19T11:15:41Z</time></trkpt><trkpt lat="43.40579771821545" lon="10.754776833043632"><ele>253.99999999999997</ele><time>2026-04-19T11:15:42Z</time></trkpt><trkpt lat="43.40584412231169" lon="10.754894270312887"><ele>253.99999999999997</ele><time>2026-04-19T11:15:43Z</time></trkpt><trkpt lat="43.405882839567674" lon="10.755000203463025"><ele>254.0</ele><time>2026-04-19T11:15:44Z</time></trkpt><trkpt lat="43.40594223413638" lon="10.75510039410108"><ele>254.0</ele><time>2026-04-19T11:15:45Z</time></trkpt><trkpt lat="43.40601274101106" lon="10.755194021072503"><ele>252.66666666666669</ele><time>2026-04-19T11:15:46Z</time></trkpt><trkpt lat="43.40609555354426" lon="10.75527140850749"><ele>251.33333333333334</ele><time>2026-04-19T11:15:47Z</time></trkpt><trkpt lat="43.40617225505512" lon="10.755326263883235"><ele>250.0</ele><time>2026-04-19T11:15:48Z</time></trkpt><trkpt lat="43.406230450787795" lon="10.755369397024017"><ele>248.66666666666669</ele><time>2026-04-19T11:15:49Z</time></trkpt><trkpt lat="43.406289483618266" lon="10.755431450275944"><ele>247.33333333333334</ele><time>2026-04-19T11:15:51Z</time></trkpt><trkpt lat="43.40631845129522" lon="10.755509709106416"><ele>246.0</ele><time>2026-04-19T11:15:54Z</time></trkpt><trkpt lat="43.406362600531814" lon="10.755575671113426"><ele>246.0</ele><time>2026-04-19T11:15:57Z</time></trkpt><trkpt lat="43.406461866449106" lon="10.755549874806578"><ele>246.00000000000003</ele><time>2026-04-19T11:16:00Z</time></trkpt><trkpt lat="43.406551442302224" lon="10.755518922456357"><ele>246.00000000000003</ele><time>2026-04-19T11:16:02Z</time></trkpt><trkpt lat="43.40667742510992" lon="10.755471011833757"><ele>246.0</ele><time>2026-04-19T11:16:04Z</time></trkpt><trkpt lat="43.40675031927561" lon="10.755409280977608"><ele>246.0</ele><time>2026-04-19T11:16:05Z</time></trkpt><trkpt lat="43.40682173886117" lon="10.755330614618813"><ele>246.0</ele><time>2026-04-19T11:16:06Z</time></trkpt><trkpt lat="43.406906963383186" lon="10.75528114382112"><ele>246.00000000000003</ele><time>2026-04-19T11:16:07Z</time></trkpt><trkpt lat="43.40699797322818" lon="10.75523362696746"><ele>246.00000000000003</ele><time>2026-04-19T11:16:08Z</time></trkpt><trkpt lat="43.40709453847989" lon="10.755175783344756"><ele>246.0</ele><time>2026-04-19T11:16:09Z</time></trkpt><trkpt lat="43.40719403628548" lon="10.755116955192012"><ele>246.0</ele><time>2026-04-19T11:16:10Z</time></trkpt><trkpt lat="43.40730735938273" lon="10.755071862899262"><ele>249.5</ele><time>2026-04-19T11:16:11Z</time></trkpt><trkpt lat="43.40741652837379" lon="10.755015556777046"><ele>253.0</ele><time>2026-04-19T11:16:12Z</time></trkpt><trkpt lat="43.40752091373317" lon="10.754958366760397"><ele>256.5</ele><time>2026-04-19T11:16:13Z</time></trkpt><trkpt lat="43.40762914166763" lon="10.75487108169181"><ele>260.0</ele><time>2026-04-19T11:16:14Z</time></trkpt><trkpt lat="43.40773906362488" lon="10.754820988243976"><ele>260.0</ele><time>2026-04-19T11:16:15Z</time></trkpt><trkpt lat="43.40783144522764" lon="10.754772300807396"><ele>260.0</ele><time>2026-04-19T11:16:16Z</time></trkpt><trkpt lat="43.40792878016746" lon="10.75470010115385"><ele>260.0</ele><time>2026-04-19T11:16:17Z</time></trkpt><trkpt lat="43.40802240754732" lon="10.754630291885306"><ele>260.0</ele><time>2026-04-19T11:16:18Z</time></trkpt><trkpt lat="43.40812229424907" lon="10.754570682203017"><ele>260.0</ele><time>2026-04-19T11:16:19Z</time></trkpt><trkpt lat="43.408223192114455" lon="10.75453538624955"><ele>261.1666666666667</ele><time>2026-04-19T11:16:20Z</time></trkpt><trkpt lat="43.40830023822985" lon="10.754470864843091"><ele>262.33333333333337</ele><time>2026-04-19T11:16:21Z</time></trkpt><trkpt lat="43.40837764467063" lon="10.754420640899509"><ele>263.5</ele><time>2026-04-19T11:16:22Z</time></trkpt><trkpt lat="43.40845229909062" lon="10.754371722283604"><ele>264.6666666666667</ele><time>2026-04-19T11:16:23Z</time></trkpt><trkpt lat="43.40852621278629" lon="10.754330824839759"><ele>265.8333333333333</ele><time>2026-04-19T11:16:24Z</time></trkpt><trkpt lat="43.408605028440796" lon="10.754285779030186"><ele>267.0</ele><time>2026-04-19T11:16:25Z</time></trkpt><trkpt lat="43.408687724137685" lon="10.754245982236412"><ele>267.0</ele><time>2026-04-19T11:16:26Z</time></trkpt><trkpt lat="43.408771800878604" lon="10.754198899246974"><ele>267.0</ele><time>2026-04-19T11:16:27.001Z</time></trkpt><trkpt lat="43.40886439531798" lon="10.754148620720333"><ele>267.0</ele><time>2026-04-19T11:16:28.001Z</time></trkpt><trkpt lat="43.40894844081984" lon="10.754110443505677"><ele>267.0</ele><time>2026-04-19T11:16:29.001Z</time></trkpt><trkpt lat="43.40904286143825" lon="10.75406976614685"><ele>267.0</ele><time>2026-04-19T11:16:30.001Z</time></trkpt><trkpt lat="43.40913863678299" lon="10.754052932875922"><ele>264.8</ele><time>2026-04-19T11:16:31.001Z</time></trkpt><trkpt lat="43.40923408501977" lon="10.754050685097907"><ele>262.6</ele><time>2026-04-19T11:16:32.001Z</time></trkpt><trkpt lat="43.4093240163874" lon="10.754054161022937"><ele>260.40000000000003</ele><time>2026-04-19T11:16:33.001Z</time></trkpt><trkpt lat="43.409410484281345" lon="10.754050837932537"><ele>258.2</ele><time>2026-04-19T11:16:34.001Z</time></trkpt><trkpt lat="43.40950525040245" lon="10.754050027692836"><ele>256.0</ele><time>2026-04-19T11:16:35.001Z</time></trkpt><trkpt lat="43.409595117688" lon="10.75399928073839"><ele>254.60000000000002</ele><time>2026-04-19T11:16:36.001Z</time></trkpt><trkpt lat="43.40968703351726" lon="10.753962605002615"><ele>253.20000000000002</ele><time>2026-04-19T11:16:37.001Z</time></trkpt><trkpt lat="43.40978080193142" lon="10.753935967128895"><ele>251.79999999999998</ele><time>2026-04-19T11:16:38.001Z</time></trkpt><trkpt lat="43.40987268554529" lon="10.753898051684118"><ele>250.39999999999998</ele><time>2026-04-19T11:16:39.001Z</time></trkpt><trkpt lat="43.40995061503487" lon="10.753844001210101"><ele>249.0</ele><time>2026-04-19T11:16:40.001Z</time></trkpt><trkpt lat="43.41001950337018" lon="10.753770754589866"><ele>249.0</ele><time>2026-04-19T11:16:41.001Z</time></trkpt><trkpt lat="43.410086176968136" lon="10.753712808789968"><ele>249.0</ele><time>2026-04-19T11:16:42.001Z</time></trkpt><trkpt lat="43.41014417378864" lon="10.753648678209066"><ele>249.0</ele><time>2026-04-19T11:16:43.001Z</time></trkpt><trkpt lat="43.410202413590426" lon="10.75356728774789"><ele>249.0</ele><time>2026-04-19T11:16:44.001Z</time></trkpt><trkpt lat="43.410281773128894" lon="10.753515947253087"><ele>249.0</ele><time>2026-04-19T11:16:45.001Z</time></trkpt><trkpt lat="43.41037139822596" lon="10.753471263487846"><ele>249.0</ele><time>2026-04-19T11:16:46.001Z</time></trkpt><trkpt lat="43.410465821145436" lon="10.753452247276945"><ele>248.2</ele><time>2026-04-19T11:16:47.001Z</time></trkpt><trkpt lat="43.41056186970472" lon="10.753440304464544"><ele>247.39999999999998</ele><time>2026-04-19T11:16:48.001Z</time></trkpt><trkpt lat="43.41066182734446" lon="10.753445086173945"><ele>246.6</ele><time>2026-04-19T11:16:49.001Z</time></trkpt><trkpt lat="43.41075770247634" lon="10.753462726501745"><ele>245.8</ele><time>2026-04-19T11:16:50.001Z</time></trkpt><trkpt lat="43.41085017547947" lon="10.75347993477732"><ele>245.0</ele><time>2026-04-19T11:16:51.001Z</time></trkpt><trkpt lat="43.41094211048627" lon="10.753494876316266"><ele>245.0</ele><time>2026-04-19T11:16:52.001Z</time></trkpt><trkpt lat="43.41103258519985" lon="10.753500142360112"><ele>245.0</ele><time>2026-04-19T11:16:53.001Z</time></trkpt><trkpt lat="43.41112055112259" lon="10.753491763794628"><ele>245.0</ele><time>2026-04-19T11:16:54.001Z</time></trkpt><trkpt lat="43.41121305101963" lon="10.753461748774253"><ele>245.0</ele><time>2026-04-19T11:16:55.001Z</time></trkpt><trkpt lat="43.41130409005377" lon="10.75342080698443"><ele>245.0</ele><time>2026-04-19T11:16:56.001Z</time></trkpt><trkpt lat="43.41140095826522" lon="10.753390290493575"><ele>244.0</ele><time>2026-04-19T11:16:57.001Z</time></trkpt><trkpt lat="43.41149763933195" lon="10.753347044684142"><ele>243.0</ele><time>2026-04-19T11:16:58.001Z</time></trkpt><trkpt lat="43.41159523918249" lon="10.75331282091314"><ele>242.0</ele><time>2026-04-19T11:16:59.001Z</time></trkpt><trkpt lat="43.41170100599839" lon="10.753291438293699"><ele>241.0</ele><time>2026-04-19T11:17:00.001Z</time></trkpt><trkpt lat="43.411806806300014" lon="10.753281249779453"><ele>240.0</ele><time>2026-04-19T11:17:01.001Z</time></trkpt><trkpt lat="43.411904560878135" lon="10.753288657221898"><ele>240.0</ele><time>2026-04-19T11:17:02.001Z</time></trkpt><trkpt lat="43.412006315532416" lon="10.753296733996494"><ele>240.0</ele><time>2026-04-19T11:17:03.001Z</time></trkpt><trkpt lat="43.41210835736969" lon="10.753308034349839"><ele>240.0</ele><time>2026-04-19T11:17:04.001Z</time></trkpt><trkpt lat="43.41221110581412" lon="10.753320686729891"><ele>240.0</ele><time>2026-04-19T11:17:05.001Z</time></trkpt><trkpt lat="43.41231233657409" lon="10.75333067729463"><ele>240.0</ele><time>2026-04-19T11:17:06.001Z</time></trkpt><trkpt lat="43.412411389933574" lon="10.753361065090202"><ele>239.2</ele><time>2026-04-19T11:17:07.001Z</time></trkpt><trkpt lat="43.41251727550791" lon="10.753366937225621"><ele>238.4</ele><time>2026-04-19T11:17:08.001Z</time></trkpt><trkpt lat="43.412619951573966" lon="10.753357705443808"><ele>237.60000000000002</ele><time>2026-04-19T11:17:09.001Z</time></trkpt><trkpt lat="43.41272475346849" lon="10.753364753768356"><ele>236.8</ele><time>2026-04-19T11:17:10.001Z</time></trkpt><trkpt lat="43.41283011460938" lon="10.75337180938379"><ele>236.0</ele><time>2026-04-19T11:17:11.001Z</time></trkpt><trkpt lat="43.41293553156569" lon="10.753378486198244"><ele>235.8</ele><time>2026-04-19T11:17:12.001Z</time></trkpt><trkpt lat="43.413042079446726" lon="10.753385833031377"><ele>235.60000000000002</ele><time>2026-04-19T11:17:13.001Z</time></trkpt><trkpt lat="43.41315495275605" lon="10.753391312814776"><ele>235.4</ele><time>2026-04-19T11:17:14.001Z</time></trkpt><trkpt lat="43.413267719472884" lon="10.75339616666029"><ele>235.2</ele><time>2026-04-19T11:17:15.001Z</time></trkpt><trkpt lat="43.4133771440587" lon="10.753402848823079"><ele>235.0</ele><time>2026-04-19T11:17:16.001Z</time></trkpt><trkpt lat="43.41348093995415" lon="10.753409671828246"><ele>234.99999999999997</ele><time>2026-04-19T11:17:17.001Z</time></trkpt><trkpt lat="43.41357547983273" lon="10.753415639273152"><ele>235.0</ele><time>2026-04-19T11:17:18.001Z</time></trkpt><trkpt lat="43.41365765698844" lon="10.753423444555668"><ele>235.0</ele><time>2026-04-19T11:17:19.001Z</time></trkpt><trkpt lat="43.413737021197484" lon="10.753425373264951"><ele>235.0</ele><time>2026-04-19T11:17:20.001Z</time></trkpt><trkpt lat="43.41382374135684" lon="10.753424350334674"><ele>234.99999999999997</ele><time>2026-04-19T11:17:21.002Z</time></trkpt><trkpt lat="43.41390757957933" lon="10.753363575710896"><ele>235.0</ele><time>2026-04-19T11:17:22.002Z</time></trkpt><trkpt lat="43.41396917493607" lon="10.753321558045302"><ele>234.6</ele><time>2026-04-19T11:17:23.002Z</time></trkpt><trkpt lat="43.41402369468284" lon="10.753277267176516"><ele>234.2</ele><time>2026-04-19T11:17:24.002Z</time></trkpt><trkpt lat="43.41407991949331" lon="10.753234991423357"><ele>233.8</ele><time>2026-04-19T11:17:25.002Z</time></trkpt><trkpt lat="43.41420387949017" lon="10.753219864613914"><ele>233.4</ele><time>2026-04-19T11:17:27.002Z</time></trkpt><trkpt lat="43.4143395986621" lon="10.753219304812736"><ele>233.0</ele><time>2026-04-19T11:17:29.002Z</time></trkpt><trkpt lat="43.41442127692048" lon="10.753211925051493"><ele>233.00000000000003</ele><time>2026-04-19T11:17:30.002Z</time></trkpt><trkpt lat="43.414504432219644" lon="10.753228292417651"><ele>233.0</ele><time>2026-04-19T11:17:31.002Z</time></trkpt><trkpt lat="43.41459154821151" lon="10.75324933700051"><ele>233.0</ele><time>2026-04-19T11:17:32.002Z</time></trkpt><trkpt lat="43.414682104494545" lon="10.753267410753345"><ele>233.0</ele><time>2026-04-19T11:17:33.002Z</time></trkpt><trkpt lat="43.41477313232904" lon="10.753275143600574"><ele>233.00000000000003</ele><time>2026-04-19T11:17:34.002Z</time></trkpt><trkpt lat="43.414859211502254" lon="10.753281676345605"><ele>233.0</ele><time>2026-04-19T11:17:35.002Z</time></trkpt><trkpt lat="43.41494865967452" lon="10.753287335725421"><ele>231.4</ele><time>2026-04-19T11:17:36.002Z</time></trkpt><trkpt lat="43.41504109148633" lon="10.753282904515324"><ele>229.8</ele><time>2026-04-19T11:17:37.002Z</time></trkpt><trkpt lat="43.41513479625619" lon="10.753278685289098"><ele>228.2</ele><time>2026-04-19T11:17:38.002Z</time></trkpt><trkpt lat="43.415222915761326" lon="10.753276170218234"><ele>226.6</ele><time>2026-04-19T11:17:39.002Z</time></trkpt><trkpt lat="43.4153111586371" lon="10.75327446033362"><ele>225.0</ele><time>2026-04-19T11:17:40.002Z</time></trkpt><trkpt lat="43.41539885894449" lon="10.753287560701555"><ele>225.0</ele><time>2026-04-19T11:17:41.002Z</time></trkpt><trkpt lat="43.415482477748746" lon="10.753328959590016"><ele>225.0</ele><time>2026-04-19T11:17:42.002Z</time></trkpt><trkpt lat="43.41555811556639" lon="10.75338944394414"><ele>225.0</ele><time>2026-04-19T11:17:43.002Z</time></trkpt><trkpt lat="43.41562711976487" lon="10.753469362352009"><ele>225.0</ele><time>2026-04-19T11:17:44Z</time></trkpt><trkpt lat="43.415694359531805" lon="10.753565359568867"><ele>225.0</ele><time>2026-04-19T11:17:45Z</time></trkpt><trkpt lat="43.415753824312176" lon="10.753658661627872"><ele>222.8</ele><time>2026-04-19T11:17:46Z</time></trkpt><trkpt lat="43.415823848096956" lon="10.753746021577138"><ele>220.6</ele><time>2026-04-19T11:17:47Z</time></trkpt><trkpt lat="43.415895388267614" lon="10.753832357834419"><ele>218.39999999999998</ele><time>2026-04-19T11:17:48Z</time></trkpt><trkpt lat="43.415970974934964" lon="10.753901714698987"><ele>216.2</ele><time>2026-04-19T11:17:49Z</time></trkpt><trkpt lat="43.41605703189644" lon="10.753994964972252"><ele>214.0</ele><time>2026-04-19T11:17:50Z</time></trkpt><trkpt lat="43.41614523590174" lon="10.754076274789789"><ele>214.0</ele><time>2026-04-19T11:17:51Z</time></trkpt><trkpt lat="43.416236682780514" lon="10.754156099151182"><ele>213.99999999999997</ele><time>2026-04-19T11:17:52Z</time></trkpt><trkpt lat="43.41632232327537" lon="10.754236560727366"><ele>213.99999999999997</ele><time>2026-04-19T11:17:53Z</time></trkpt><trkpt lat="43.416411223859946" lon="10.754320936953947"><ele>214.0</ele><time>2026-04-19T11:17:54Z</time></trkpt><trkpt lat="43.41648693267334" lon="10.754395927039248"><ele>214.0</ele><time>2026-04-19T11:17:55Z</time></trkpt><trkpt lat="43.41654458619403" lon="10.754455143481662"><ele>212.2857142857143</ele><time>2026-04-19T11:17:56Z</time></trkpt><trkpt lat="43.416602491362674" lon="10.7545089546436"><ele>210.57142857142858</ele><time>2026-04-19T11:17:57Z</time></trkpt><trkpt lat="43.41665646550473" lon="10.754563848740569"><ele>208.85714285714286</ele><time>2026-04-19T11:17:58Z</time></trkpt><trkpt lat="43.416706083180294" lon="10.754617365669423"><ele>207.14285714285717</ele><time>2026-04-19T11:17:59Z</time></trkpt><trkpt lat="43.416755214036115" lon="10.754675454847684"><ele>205.42857142857142</ele><time>2026-04-19T11:18:00Z</time></trkpt><trkpt lat="43.416808026640496" lon="10.754738303612804"><ele>203.71428571428572</ele><time>2026-04-19T11:18:01Z</time></trkpt><trkpt lat="43.416859219891236" lon="10.754804928859569"><ele>202.0</ele><time>2026-04-19T11:18:02Z</time></trkpt><trkpt lat="43.41691361739518" lon="10.75486929977009"><ele>201.99999999999997</ele><time>2026-04-19T11:18:03Z</time></trkpt><trkpt lat="43.41696346325019" lon="10.754929915352372"><ele>202.0</ele><time>2026-04-19T11:18:04Z</time></trkpt><trkpt lat="43.41700784969304" lon="10.754993157366016"><ele>202.0</ele><time>2026-04-19T11:18:05Z</time></trkpt><trkpt lat="43.41706246750795" lon="10.755100422492614"><ele>202.0</ele><time>2026-04-19T11:18:07Z</time></trkpt><trkpt lat="43.41707534421944" lon="10.755221928670384"><ele>201.99999999999997</ele><time>2026-04-19T11:18:09Z</time></trkpt><trkpt lat="43.41703283570995" lon="10.755341856696523"><ele>202.0</ele><time>2026-04-19T11:18:11Z</time></trkpt><trkpt lat="43.416989497121854" lon="10.755405819923226"><ele>199.99999999999997</ele><time>2026-04-19T11:18:12Z</time></trkpt><trkpt lat="43.416939199781716" lon="10.755474998629651"><ele>198.0</ele><time>2026-04-19T11:18:13Z</time></trkpt><trkpt lat="43.41688838731914" lon="10.755554383647155"><ele>196.0</ele><time>2026-04-19T11:18:14Z</time></trkpt><trkpt lat="43.41683525153112" lon="10.755635838474856"><ele>194.0</ele><time>2026-04-19T11:18:15Z</time></trkpt><trkpt lat="43.41677941358541" lon="10.75570798501993"><ele>192.0</ele><time>2026-04-19T11:18:16Z</time></trkpt><trkpt lat="43.416727278509406" lon="10.755767671838981"><ele>190.0</ele><time>2026-04-19T11:18:17Z</time></trkpt><trkpt lat="43.41664885800645" lon="10.755874223868323"><ele>190.0</ele><time>2026-04-19T11:18:19Z</time></trkpt><trkpt lat="43.41663463287659" lon="10.756012614008817"><ele>190.0</ele><time>2026-04-19T11:18:21Z</time></trkpt><trkpt lat="43.41669994525491" lon="10.756150772323497"><ele>190.0</ele><time>2026-04-19T11:18:23Z</time></trkpt><trkpt lat="43.41675670095057" lon="10.756212648093827"><ele>190.0</ele><time>2026-04-19T11:18:24Z</time></trkpt><trkpt lat="43.41682008956067" lon="10.756281300987162"><ele>190.0</ele><time>2026-04-19T11:18:25Z</time></trkpt><trkpt lat="43.41688382227017" lon="10.756354414132778"><ele>188.66666666666669</ele><time>2026-04-19T11:18:26Z</time></trkpt><trkpt lat="43.416949676377044" lon="10.756429641881224"><ele>187.33333333333334</ele><time>2026-04-19T11:18:27Z</time></trkpt><trkpt lat="43.41700897038277" lon="10.756500327224936"><ele>186.0</ele><time>2026-04-19T11:18:28Z</time></trkpt><trkpt lat="43.41706746884719" lon="10.756570573594319"><ele>184.66666666666666</ele><time>2026-04-19T11:18:29.001Z</time></trkpt><trkpt lat="43.41711812184594" lon="10.756648377033523"><ele>183.33333333333331</ele><time>2026-04-19T11:18:30.001Z</time></trkpt><trkpt lat="43.417160409630114" lon="10.756735142076861"><ele>182.0</ele><time>2026-04-19T11:18:31.001Z</time></trkpt><trkpt lat="43.417187099789054" lon="10.756835107884546"><ele>180.6</ele><time>2026-04-19T11:18:32.001Z</time></trkpt><trkpt lat="43.41718817989343" lon="10.756942186985802"><ele>179.2</ele><time>2026-04-19T11:18:33.001Z</time></trkpt><trkpt lat="43.41719368920017" lon="10.757067333055183"><ele>177.8</ele><time>2026-04-19T11:18:34.001Z</time></trkpt><trkpt lat="43.41720187137443" lon="10.757202094323276"><ele>176.4</ele><time>2026-04-19T11:18:35.001Z</time></trkpt><trkpt lat="43.417209741101225" lon="10.757345668546359"><ele>175.0</ele><time>2026-04-19T11:18:36.001Z</time></trkpt><trkpt lat="43.417214016121555" lon="10.757491434507381"><ele>175.0</ele><time>2026-04-19T11:18:37.001Z</time></trkpt><trkpt lat="43.41722236621756" lon="10.757628175386488"><ele>175.0</ele><time>2026-04-19T11:18:38.001Z</time></trkpt><trkpt lat="43.41722923519513" lon="10.75774284995248"><ele>175.0</ele><time>2026-04-19T11:18:39.001Z</time></trkpt><trkpt lat="43.417235343962396" lon="10.757841025680277"><ele>175.0</ele><time>2026-04-19T11:18:40.001Z</time></trkpt><trkpt lat="43.4172552569463" lon="10.758018236572592"><ele>175.0</ele><time>2026-04-19T11:18:42.001Z</time></trkpt><trkpt lat="43.41724696604918" lon="10.758109859064582"><ele>175.0</ele><time>2026-04-19T11:18:43.001Z</time></trkpt><trkpt lat="43.4172286448148" lon="10.758194060045653"><ele>175.0</ele><time>2026-04-19T11:18:44.001Z</time></trkpt><trkpt lat="43.417199651173945" lon="10.758271428068774"><ele>175.0</ele><time>2026-04-19T11:18:45.001Z</time></trkpt><trkpt lat="43.417121249005554" lon="10.758400236636545"><ele>175.0</ele><time>2026-04-19T11:18:47.001Z</time></trkpt><trkpt lat="43.417075385728474" lon="10.75846299933429"><ele>175.0</ele><time>2026-04-19T11:18:48.001Z</time></trkpt><trkpt lat="43.417028368474966" lon="10.758539011022295"><ele>175.0</ele><time>2026-04-19T11:18:49.001Z</time></trkpt><trkpt lat="43.416985715546474" lon="10.758627840646934"><ele>175.0</ele><time>2026-04-19T11:18:50.001Z</time></trkpt><trkpt lat="43.41694320855176" lon="10.758727531474738"><ele>175.0</ele><time>2026-04-19T11:18:51.001Z</time></trkpt><trkpt lat="43.41690889047132" lon="10.75883772590425"><ele>175.0</ele><time>2026-04-19T11:18:52.001Z</time></trkpt><trkpt lat="43.416881907141814" lon="10.75895150111903"><ele>175.0</ele><time>2026-04-19T11:18:53.001Z</time></trkpt><trkpt lat="43.4168605747704" lon="10.759073049570269"><ele>175.0</ele><time>2026-04-19T11:18:54.001Z</time></trkpt><trkpt lat="43.416850260223846" lon="10.75919592730171"><ele>175.0</ele><time>2026-04-19T11:18:55.001Z</time></trkpt><trkpt lat="43.41683785001763" lon="10.759321602679622"><ele>174.4</ele><time>2026-04-19T11:18:56.001Z</time></trkpt><trkpt lat="43.416821290171654" lon="10.759459065015333"><ele>173.8</ele><time>2026-04-19T11:18:57.001Z</time></trkpt><trkpt lat="43.41680997997941" lon="10.759596443224641"><ele>173.2</ele><time>2026-04-19T11:18:58.001Z</time></trkpt><trkpt lat="43.41679432493776" lon="10.75973353277569"><ele>172.6</ele><time>2026-04-19T11:18:59.001Z</time></trkpt><trkpt lat="43.416773238913535" lon="10.759862221262482"><ele>172.0</ele><time>2026-04-19T11:19:00.001Z</time></trkpt><trkpt lat="43.41675870282371" lon="10.759979842107073"><ele>172.0</ele><time>2026-04-19T11:19:01.001Z</time></trkpt><trkpt lat="43.41674503261017" lon="10.760088733854152"><ele>172.0</ele><time>2026-04-19T11:19:02.001Z</time></trkpt><trkpt lat="43.41673159398423" lon="10.760208054517841"><ele>172.0</ele><time>2026-04-19T11:19:03.001Z</time></trkpt><trkpt lat="43.41671755178657" lon="10.760338741339165"><ele>172.0</ele><time>2026-04-19T11:19:04.001Z</time></trkpt><trkpt lat="43.41670611329282" lon="10.760487140641368"><ele>172.0</ele><time>2026-04-19T11:19:05.001Z</time></trkpt><trkpt lat="43.41666979189599" lon="10.76065420891581"><ele>171.0</ele><time>2026-04-19T11:19:06.001Z</time></trkpt><trkpt lat="43.41662134845234" lon="10.76082809273632"><ele>170.0</ele><time>2026-04-19T11:19:07.001Z</time></trkpt><trkpt lat="43.416563958765046" lon="10.761019696734493"><ele>169.0</ele><time>2026-04-19T11:19:08.001Z</time></trkpt><trkpt lat="43.416486717275795" lon="10.76121853481055"><ele>169.33333333333334</ele><time>2026-04-19T11:19:09.001Z</time></trkpt><trkpt lat="43.41640773555977" lon="10.761429135999915"><ele>169.66666666666666</ele><time>2026-04-19T11:19:10.001Z</time></trkpt><trkpt lat="43.416330716041955" lon="10.76166626321712"><ele>170.0</ele><time>2026-04-19T11:19:11.001Z</time></trkpt><trkpt lat="43.416268282239116" lon="10.761925679213972"><ele>170.0</ele><time>2026-04-19T11:19:12.001Z</time></trkpt><trkpt lat="43.41620074365725" lon="10.762205358631922"><ele>170.0</ele><time>2026-04-19T11:19:13.001Z</time></trkpt><trkpt lat="43.41613266107654" lon="10.762486162662906"><ele>170.0</ele><time>2026-04-19T11:19:14.001Z</time></trkpt><trkpt lat="43.41607738499023" lon="10.762728130922534"><ele>170.66666666666666</ele><time>2026-04-19T11:19:15.001Z</time></trkpt><trkpt lat="43.416029860299616" lon="10.762939171621628"><ele>171.33333333333334</ele><time>2026-04-19T11:19:16.001Z</time></trkpt><trkpt lat="43.41598318611188" lon="10.763140982876484"><ele>172.0</ele><time>2026-04-19T11:19:17.001Z</time></trkpt><trkpt lat="43.41594193936452" lon="10.763328560851416"><ele>172.0</ele><time>2026-04-19T11:19:18.001Z</time></trkpt><trkpt lat="43.41590099709274" lon="10.763515171557186"><ele>172.0</ele><time>2026-04-19T11:19:19.001Z</time></trkpt><trkpt lat="43.41585655462775" lon="10.763710637140607"><ele>172.0</ele><time>2026-04-19T11:19:20.002Z</time></trkpt><trkpt lat="43.4157983229527" lon="10.76390268285609"><ele>172.0</ele><time>2026-04-19T11:19:21.002Z</time></trkpt><trkpt lat="43.415738057314954" lon="10.764111417937958"><ele>172.0</ele><time>2026-04-19T11:19:22.002Z</time></trkpt><trkpt lat="43.41567647795042" lon="10.76431037183305"><ele>172.0</ele><time>2026-04-19T11:19:23.002Z</time></trkpt><trkpt lat="43.415616040871946" lon="10.7644821824599"><ele>172.0</ele><time>2026-04-19T11:19:24.002Z</time></trkpt><trkpt lat="43.41555610060277" lon="10.764639752768202"><ele>172.0</ele><time>2026-04-19T11:19:25.002Z</time></trkpt><trkpt lat="43.415494317831644" lon="10.76479643518244"><ele>169.8</ele><time>2026-04-19T11:19:26.002Z</time></trkpt><trkpt lat="43.41543315137559" lon="10.76494071283617"><ele>167.6</ele><time>2026-04-19T11:19:27.002Z</time></trkpt><trkpt lat="43.415379350647584" lon="10.765074489060254"><ele>165.4</ele><time>2026-04-19T11:19:28.002Z</time></trkpt><trkpt lat="43.41532710638446" lon="10.7652001506743"><ele>163.20000000000002</ele><time>2026-04-19T11:19:29.002Z</time></trkpt><trkpt lat="43.415283020502315" lon="10.765319737882537"><ele>161.0</ele><time>2026-04-19T11:19:30.002Z</time></trkpt><trkpt lat="43.41523850183698" lon="10.765456277012806"><ele>160.75</ele><time>2026-04-19T11:19:31.002Z</time></trkpt><trkpt lat="43.41519618184487" lon="10.765602135776266"><ele>160.5</ele><time>2026-04-19T11:19:32.002Z</time></trkpt><trkpt lat="43.41515448106566" lon="10.765769139593255"><ele>160.25</ele><time>2026-04-19T11:19:33.002Z</time></trkpt><trkpt lat="43.41509793581032" lon="10.765960007593112"><ele>160.0</ele><time>2026-04-19T11:19:34.002Z</time></trkpt><trkpt lat="43.415047728225915" lon="10.766157824734856"><ele>159.5</ele><time>2026-04-19T11:19:35.002Z</time></trkpt><trkpt lat="43.41499581740083" lon="10.766351132279157"><ele>159.0</ele><time>2026-04-19T11:19:36.002Z</time></trkpt><trkpt lat="43.41494720922818" lon="10.76652086675163"><ele>158.5</ele><time>2026-04-19T11:19:37.002Z</time></trkpt><trkpt lat="43.41491219994651" lon="10.766669032154686"><ele>158.0</ele><time>2026-04-19T11:19:38.002Z</time></trkpt><trkpt lat="43.41487455600139" lon="10.766804256332216"><ele>156.8</ele><time>2026-04-19T11:19:39.002Z</time></trkpt><trkpt lat="43.41483912889838" lon="10.76692819549275"><ele>155.60000000000002</ele><time>2026-04-19T11:19:40.002Z</time></trkpt><trkpt lat="43.41480390314102" lon="10.767045349329385"><ele>154.39999999999998</ele><time>2026-04-19T11:19:41.002Z</time></trkpt><trkpt lat="43.414770393813264" lon="10.767165575167372"><ele>153.2</ele><time>2026-04-19T11:19:42.002Z</time></trkpt><trkpt lat="43.414745948326456" lon="10.767292154131518"><ele>152.0</ele><time>2026-04-19T11:19:43.002Z</time></trkpt><trkpt lat="43.41473093474231" lon="10.767423006246087"><ele>152.0</ele><time>2026-04-19T11:19:44.002Z</time></trkpt><trkpt lat="43.414735313647384" lon="10.767559130953494"><ele>152.0</ele><time>2026-04-19T11:19:45.002Z</time></trkpt><trkpt lat="43.414749420639666" lon="10.767696688333691"><ele>152.0</ele><time>2026-04-19T11:19:46.002Z</time></trkpt><trkpt lat="43.41477873324442" lon="10.767827785250088"><ele>152.0</ele><time>2026-04-19T11:19:47.002Z</time></trkpt><trkpt lat="43.41481777601431" lon="10.767955604309293"><ele>152.0</ele><time>2026-04-19T11:19:48.002Z</time></trkpt><trkpt lat="43.414867644722776" lon="10.76808188296233"><ele>150.0</ele><time>2026-04-19T11:19:49.002Z</time></trkpt><trkpt lat="43.414930739131115" lon="10.76821314308018"><ele>148.0</ele><time>2026-04-19T11:19:50Z</time></trkpt><trkpt lat="43.41499471106536" lon="10.768348692779378"><ele>146.0</ele><time>2026-04-19T11:19:51Z</time></trkpt><trkpt lat="43.41505392583948" lon="10.768493039071425"><ele>144.0</ele><time>2026-04-19T11:19:52Z</time></trkpt><trkpt lat="43.415112796071504" lon="10.768639388023717"><ele>142.25</ele><time>2026-04-19T11:19:53Z</time></trkpt><trkpt lat="43.41517648475405" lon="10.76878026973599"><ele>140.5</ele><time>2026-04-19T11:19:54Z</time></trkpt><trkpt lat="43.41525417987066" lon="10.768909506894477"><ele>138.75</ele><time>2026-04-19T11:19:55Z</time></trkpt><trkpt lat="43.4153420126123" lon="10.769051253236302"><ele>137.0</ele><time>2026-04-19T11:19:56Z</time></trkpt><trkpt lat="43.4154370258467" lon="10.769200351062885"><ele>136.25</ele><time>2026-04-19T11:19:57Z</time></trkpt><trkpt lat="43.415531694239704" lon="10.769361880902126"><ele>135.5</ele><time>2026-04-19T11:19:58Z</time></trkpt><trkpt lat="43.415624350562716" lon="10.769537289776904"><ele>134.75</ele><time>2026-04-19T11:19:59Z</time></trkpt><trkpt lat="43.415697697318855" lon="10.769689001058758"><ele>134.0</ele><time>2026-04-19T11:20:00Z</time></trkpt><trkpt lat="43.41575673090106" lon="10.769798270387582"><ele>134.0</ele><time>2026-04-19T11:20:01Z</time></trkpt><trkpt lat="43.415820989740226" lon="10.76990907887493"><ele>134.0</ele><time>2026-04-19T11:20:02Z</time></trkpt><trkpt lat="43.415898331860305" lon="10.770006105084889"><ele>134.0</ele><time>2026-04-19T11:20:03Z</time></trkpt><trkpt lat="43.415984086466224" lon="10.770070117672422"><ele>134.0</ele><time>2026-04-19T11:20:04Z</time></trkpt><trkpt lat="43.41607816111418" lon="10.770126287977297"><ele>134.0</ele><time>2026-04-19T11:20:05Z</time></trkpt><trkpt lat="43.416177571528756" lon="10.770179560617633"><ele>134.0</ele><time>2026-04-19T11:20:06Z</time></trkpt><trkpt lat="43.4162728246403" lon="10.770239486739719"><ele>134.0</ele><time>2026-04-19T11:20:07Z</time></trkpt><trkpt lat="43.416360906363835" lon="10.770323003592136"><ele>134.0</ele><time>2026-04-19T11:20:08Z</time></trkpt><trkpt lat="43.4164300846124" lon="10.77044213510221"><ele>134.0</ele><time>2026-04-19T11:20:09Z</time></trkpt><trkpt lat="43.416478751020286" lon="10.770591298733672"><ele>134.0</ele><time>2026-04-19T11:20:10Z</time></trkpt><trkpt lat="43.41652285930461" lon="10.77076180617082"><ele>134.0</ele><time>2026-04-19T11:20:11Z</time></trkpt><trkpt lat="43.4165620442719" lon="10.770957223114358"><ele>134.0</ele><time>2026-04-19T11:20:12Z</time></trkpt><trkpt lat="43.41659732738162" lon="10.771125158621954"><ele>134.0</ele><time>2026-04-19T11:20:13Z</time></trkpt><trkpt lat="43.416625821493895" lon="10.771252152973553"><ele>134.0</ele><time>2026-04-19T11:20:14Z</time></trkpt><trkpt lat="43.41664352077233" lon="10.771361987309225"><ele>134.0</ele><time>2026-04-19T11:20:15Z</time></trkpt><trkpt lat="43.41664244859172" lon="10.771483126990788"><ele>134.0</ele><time>2026-04-19T11:20:16Z</time></trkpt><trkpt lat="43.416624593865016" lon="10.771607707779326"><ele>134.0</ele><time>2026-04-19T11:20:17Z</time></trkpt><trkpt lat="43.416570262619004" lon="10.771717870143686"><ele>134.0</ele><time>2026-04-19T11:20:18Z</time></trkpt><trkpt lat="43.41652164906143" lon="10.771833253576194"><ele>134.0</ele><time>2026-04-19T11:20:19Z</time></trkpt><trkpt lat="43.41649072558611" lon="10.771961155013267"><ele>134.0</ele><time>2026-04-19T11:20:20Z</time></trkpt><trkpt lat="43.416488135156136" lon="10.772100200198397"><ele>134.0</ele><time>2026-04-19T11:20:21.001Z</time></trkpt><trkpt lat="43.416473636076844" lon="10.772209163614292"><ele>134.0</ele><time>2026-04-19T11:20:22.001Z</time></trkpt><trkpt lat="43.4164731942491" lon="10.772303205788194"><ele>134.0</ele><time>2026-04-19T11:20:23.001Z</time></trkpt><trkpt lat="43.41647388759634" lon="10.772391107369957"><ele>134.0</ele><time>2026-04-19T11:20:24.001Z</time></trkpt><trkpt lat="43.41647895123885" lon="10.772546737353391"><ele>134.0</ele><time>2026-04-19T11:20:26.001Z</time></trkpt><trkpt lat="43.41648425183372" lon="10.772676307708656"><ele>133.83333333333331</ele><time>2026-04-19T11:20:28.001Z</time></trkpt><trkpt lat="43.41649485056112" lon="10.772780777019893"><ele>133.66666666666666</ele><time>2026-04-19T11:20:30.001Z</time></trkpt><trkpt lat="43.41652091905637" lon="10.772891620695964"><ele>133.5</ele><time>2026-04-19T11:20:33.001Z</time></trkpt><trkpt lat="43.41644304697876" lon="10.772928711200624"><ele>133.33333333333334</ele><time>2026-04-19T11:21:14.001Z</time></trkpt><trkpt lat="43.416461005458785" lon="10.77306091894262"><ele>133.16666666666669</ele><time>2026-04-19T11:21:15.001Z</time></trkpt><trkpt lat="43.41642074271529" lon="10.773129651606963"><ele>133.0</ele><time>2026-04-19T11:21:16.001Z</time></trkpt><trkpt lat="43.4163782379206" lon="10.773208511919286"><ele>133.0</ele><time>2026-04-19T11:21:17.001Z</time></trkpt><trkpt lat="43.416331671440936" lon="10.773294595930038"><ele>133.0</ele><time>2026-04-19T11:21:18.001Z</time></trkpt><trkpt lat="43.41627669073101" lon="10.773383093485409"><ele>133.0</ele><time>2026-04-19T11:21:19.002Z</time></trkpt><trkpt lat="43.41621317652304" lon="10.773472050338906"><ele>133.0</ele><time>2026-04-19T11:21:20.002Z</time></trkpt><trkpt lat="43.41614278810889" lon="10.77356178734532"><ele>133.0</ele><time>2026-04-19T11:21:21.002Z</time></trkpt><trkpt lat="43.416056790641825" lon="10.773639830301908"><ele>132.75</ele><time>2026-04-19T11:21:22.002Z</time></trkpt><trkpt lat="43.4159579700576" lon="10.773708724382892"><ele>132.5</ele><time>2026-04-19T11:21:23.002Z</time></trkpt><trkpt lat="43.41585010550484" lon="10.773765129800877"><ele>132.25</ele><time>2026-04-19T11:21:24.002Z</time></trkpt><trkpt lat="43.41573500069849" lon="10.773813597495742"><ele>132.0</ele><time>2026-04-19T11:21:25.002Z</time></trkpt><trkpt lat="43.41561146095176" lon="10.7738624544686"><ele>132.0</ele><time>2026-04-19T11:21:26.002Z</time></trkpt><trkpt lat="43.41549012156486" lon="10.773913419439925"><ele>132.0</ele><time>2026-04-19T11:21:27.002Z</time></trkpt><trkpt lat="43.41536894696039" lon="10.773969853846499"><ele>132.0</ele><time>2026-04-19T11:21:28.002Z</time></trkpt><trkpt lat="43.41524131677826" lon="10.774026326633276"><ele>132.0</ele><time>2026-04-19T11:21:29.002Z</time></trkpt><trkpt lat="43.41511795335296" lon="10.774081803120755"><ele>133.0</ele><time>2026-04-19T11:21:30.002Z</time></trkpt><trkpt lat="43.4149941875533" lon="10.774139154230065"><ele>134.0</ele><time>2026-04-19T11:21:31.002Z</time></trkpt><trkpt lat="43.41486515130526" lon="10.774193377239529"><ele>135.0</ele><time>2026-04-19T11:21:32.002Z</time></trkpt><trkpt lat="43.414737085032435" lon="10.77423780918567"><ele>136.0</ele><time>2026-04-19T11:21:33.002Z</time></trkpt><trkpt lat="43.414605455972506" lon="10.774255772531689"><ele>136.25</ele><time>2026-04-19T11:21:34.002Z</time></trkpt><trkpt lat="43.414473531894096" lon="10.77423714179461"><ele>136.5</ele><time>2026-04-19T11:21:35.002Z</time></trkpt><trkpt lat="43.41435144142779" lon="10.774174699835822"><ele>136.75</ele><time>2026-04-19T11:21:36.002Z</time></trkpt><trkpt lat="43.41423582262755" lon="10.774095997741785"><ele>137.0</ele><time>2026-04-19T11:21:37.002Z</time></trkpt><trkpt lat="43.414129965254766" lon="10.773990337891446"><ele>137.0</ele><time>2026-04-19T11:21:38.002Z</time></trkpt><trkpt lat="43.41400818522667" lon="10.773923059371093"><ele>137.0</ele><time>2026-04-19T11:21:39.002Z</time></trkpt><trkpt lat="43.4138979989431" lon="10.773823102309038"><ele>137.0</ele><time>2026-04-19T11:21:40.002Z</time></trkpt><trkpt lat="43.413781362972124" lon="10.773739842077669"><ele>137.0</ele><time>2026-04-19T11:21:41.002Z</time></trkpt><trkpt lat="43.413661610293694" lon="10.773653945506025"><ele>136.75</ele><time>2026-04-19T11:21:42.002Z</time></trkpt><trkpt lat="43.41353997968028" lon="10.773568352071873"><ele>136.5</ele><time>2026-04-19T11:21:43.002Z</time></trkpt><trkpt lat="43.41341888519139" lon="10.77348215528306"><ele>136.25</ele><time>2026-04-19T11:21:44.002Z</time></trkpt><trkpt lat="43.413296905796706" lon="10.773395348971079"><ele>136.0</ele><time>2026-04-19T11:21:45.002Z</time></trkpt><trkpt lat="43.41316997889174" lon="10.773317543747371"><ele>136.75</ele><time>2026-04-19T11:21:46.002Z</time></trkpt><trkpt lat="43.413040083372465" lon="10.773248320242644"><ele>137.5</ele><time>2026-04-19T11:21:47.002Z</time></trkpt><trkpt lat="43.412909377303265" lon="10.773188350258817"><ele>138.25</ele><time>2026-04-19T11:21:48.002Z</time></trkpt><trkpt lat="43.41278598294604" lon="10.773138723699782"><ele>139.0</ele><time>2026-04-19T11:21:49.002Z</time></trkpt><trkpt lat="43.41266328577543" lon="10.773113461626298"><ele>139.0</ele><time>2026-04-19T11:21:50.002Z</time></trkpt><trkpt lat="43.41253515423195" lon="10.77314415666202"><ele>139.0</ele><time>2026-04-19T11:21:51.002Z</time></trkpt><trkpt lat="43.412416731793655" lon="10.77320821205329"><ele>139.0</ele><time>2026-04-19T11:21:52.002Z</time></trkpt><trkpt lat="43.41231665963849" lon="10.773322108437132"><ele>139.0</ele><time>2026-04-19T11:21:53.002Z</time></trkpt><trkpt lat="43.41221845413871" lon="10.773438427143418"><ele>138.5</ele><time>2026-04-19T11:21:54.002Z</time></trkpt><trkpt lat="43.4121027931157" lon="10.773530223057111"><ele>138.0</ele><time>2026-04-19T11:21:55.002Z</time></trkpt><trkpt lat="43.4119738969336" lon="10.773604878476153"><ele>137.5</ele><time>2026-04-19T11:21:56.001Z</time></trkpt><trkpt lat="43.411839975042795" lon="10.773669773926368"><ele>137.0</ele><time>2026-04-19T11:21:57.001Z</time></trkpt><trkpt lat="43.41170205474903" lon="10.773716333832121"><ele>137.0</ele><time>2026-04-19T11:21:58.001Z</time></trkpt><trkpt lat="43.41155785839837" lon="10.773737925398446"><ele>137.0</ele><time>2026-04-19T11:21:59.001Z</time></trkpt><trkpt lat="43.41140953438269" lon="10.773716603013629"><ele>137.0</ele><time>2026-04-19T11:22:00.001Z</time></trkpt><trkpt lat="43.41126267370386" lon="10.773655170204574"><ele>137.0</ele><time>2026-04-19T11:22:01.001Z</time></trkpt><trkpt lat="43.41110349732979" lon="10.773620110868565"><ele>137.66666666666666</ele><time>2026-04-19T11:22:02.001Z</time></trkpt><trkpt lat="43.410938803975164" lon="10.773633500496683"><ele>138.33333333333334</ele><time>2026-04-19T11:22:03.001Z</time></trkpt><trkpt lat="43.410775042352206" lon="10.773636431139098"><ele>139.0</ele><time>2026-04-19T11:22:04.001Z</time></trkpt><trkpt lat="43.41061691701795" lon="10.773635815003455"><ele>139.0</ele><time>2026-04-19T11:22:05.001Z</time></trkpt><trkpt lat="43.41046480718486" lon="10.773615841512981"><ele>139.0</ele><time>2026-04-19T11:22:06.001Z</time></trkpt><trkpt lat="43.410333247774524" lon="10.773572511276774"><ele>139.0</ele><time>2026-04-19T11:22:07.001Z</time></trkpt><trkpt lat="43.410235366988054" lon="10.773519591435"><ele>139.0</ele><time>2026-04-19T11:22:08.001Z</time></trkpt><trkpt lat="43.410144435884945" lon="10.773474985542972"><ele>139.0</ele><time>2026-04-19T11:22:09Z</time></trkpt><trkpt lat="43.41005626356025" lon="10.773450054863018"><ele>139.0</ele><time>2026-04-19T11:22:10Z</time></trkpt><trkpt lat="43.409964954761094" lon="10.7734492145773"><ele>139.0</ele><time>2026-04-19T11:22:11Z</time></trkpt><trkpt lat="43.4098755139126" lon="10.773475180132595"><ele>139.0</ele><time>2026-04-19T11:22:12Z</time></trkpt><trkpt lat="43.409790042220735" lon="10.773541330307228"><ele>139.0</ele><time>2026-04-19T11:22:13Z</time></trkpt><trkpt lat="43.40971284449174" lon="10.773637759591487"><ele>141.2</ele><time>2026-04-19T11:22:14Z</time></trkpt><trkpt lat="43.40965474595584" lon="10.773762045894857"><ele>143.4</ele><time>2026-04-19T11:22:15Z</time></trkpt><trkpt lat="43.40962135140468" lon="10.773909425528622"><ele>145.6</ele><time>2026-04-19T11:22:16Z</time></trkpt><trkpt lat="43.40960106586709" lon="10.774057256223651"><ele>147.8</ele><time>2026-04-19T11:22:17.001Z</time></trkpt><trkpt lat="43.40957566460952" lon="10.77420025198757"><ele>150.0</ele><time>2026-04-19T11:22:18.001Z</time></trkpt><trkpt lat="43.40953513431757" lon="10.774339096315908"><ele>148.5</ele><time>2026-04-19T11:22:19.001Z</time></trkpt><trkpt lat="43.40947907267418" lon="10.77447029528577"><ele>147.0</ele><time>2026-04-19T11:22:20.001Z</time></trkpt><trkpt lat="43.40940311360622" lon="10.774588347543993"><ele>145.5</ele><time>2026-04-19T11:22:21.001Z</time></trkpt><trkpt lat="43.40931717555779" lon="10.774698972682563"><ele>144.0</ele><time>2026-04-19T11:22:22.001Z</time></trkpt><trkpt lat="43.409222558705316" lon="10.774798500149052"><ele>144.0</ele><time>2026-04-19T11:22:23.001Z</time></trkpt><trkpt lat="43.40911305758183" lon="10.7748819885108"><ele>144.0</ele><time>2026-04-19T11:22:24.001Z</time></trkpt><trkpt lat="43.409000445902414" lon="10.774960550207428"><ele>144.0</ele><time>2026-04-19T11:22:25.001Z</time></trkpt><trkpt lat="43.40888640737342" lon="10.775041485569455"><ele>144.0</ele><time>2026-04-19T11:22:26.001Z</time></trkpt><trkpt lat="43.40876150670488" lon="10.775115418104827"><ele>143.5</ele><time>2026-04-19T11:22:27.001Z</time></trkpt><trkpt lat="43.40863638093828" lon="10.775182950712459"><ele>143.0</ele><time>2026-04-19T11:22:28.001Z</time></trkpt><trkpt lat="43.408507988213074" lon="10.775241343289702"><ele>142.5</ele><time>2026-04-19T11:22:29.001Z</time></trkpt><trkpt lat="43.40837661832845" lon="10.775292690106687"><ele>142.0</ele><time>2026-04-19T11:22:30.001Z</time></trkpt><trkpt lat="43.408242861140316" lon="10.775335767992514"><ele>142.0</ele><time>2026-04-19T11:22:31.001Z</time></trkpt><trkpt lat="43.40810611046505" lon="10.775372690916516"><ele>142.0</ele><time>2026-04-19T11:22:32.001Z</time></trkpt><trkpt lat="43.40796724142859" lon="10.775400361556924"><ele>142.0</ele><time>2026-04-19T11:22:33.001Z</time></trkpt><trkpt lat="43.407827525778806" lon="10.775416426806904"><ele>142.0</ele><time>2026-04-19T11:22:34.001Z</time></trkpt><trkpt lat="43.40768279977008" lon="10.775423550331848"><ele>142.75</ele><time>2026-04-19T11:22:35.001Z</time></trkpt><trkpt lat="43.40753624102633" lon="10.77541971235851"><ele>143.5</ele><time>2026-04-19T11:22:36.001Z</time></trkpt><trkpt lat="43.40739125152975" lon="10.775417144728609"><ele>144.25</ele><time>2026-04-19T11:22:37.001Z</time></trkpt><trkpt lat="43.40725000469583" lon="10.775428826498281"><ele>145.0</ele><time>2026-04-19T11:22:38.001Z</time></trkpt><trkpt lat="43.40711823522348" lon="10.775467905380413"><ele>145.25</ele><time>2026-04-19T11:22:39.001Z</time></trkpt><trkpt lat="43.4069902131248" lon="10.775520352753457"><ele>145.5</ele><time>2026-04-19T11:22:40.001Z</time></trkpt><trkpt lat="43.40686969585979" lon="10.775565877017161"><ele>145.75</ele><time>2026-04-19T11:22:41.001Z</time></trkpt><trkpt lat="43.406747806855655" lon="10.775587398515697"><ele>146.0</ele><time>2026-04-19T11:22:42.001Z</time></trkpt><trkpt lat="43.406627997428096" lon="10.775592902601996"><ele>146.0</ele><time>2026-04-19T11:22:43.001Z</time></trkpt><trkpt lat="43.406508997434734" lon="10.775583076120013"><ele>146.0</ele><time>2026-04-19T11:22:44.001Z</time></trkpt><trkpt lat="43.40638933994889" lon="10.775561440731629"><ele>146.0</ele><time>2026-04-19T11:22:45.001Z</time></trkpt><trkpt lat="43.40626952900475" lon="10.775523956095826"><ele>146.0</ele><time>2026-04-19T11:22:46.001Z</time></trkpt><trkpt lat="43.40614769392427" lon="10.775478165180457"><ele>145.75</ele><time>2026-04-19T11:22:47.001Z</time></trkpt><trkpt lat="43.406024887193354" lon="10.775422159723126"><ele>145.5</ele><time>2026-04-19T11:22:48.001Z</time></trkpt><trkpt lat="43.405904343130416" lon="10.775358235713567"><ele>145.25</ele><time>2026-04-19T11:22:49.001Z</time></trkpt><trkpt lat="43.40577755816246" lon="10.775294982562693"><ele>145.0</ele><time>2026-04-19T11:22:50.001Z</time></trkpt><trkpt lat="43.40565048596549" lon="10.775229215749158"><ele>146.25</ele><time>2026-04-19T11:22:51.001Z</time></trkpt><trkpt lat="43.405520819971656" lon="10.77516171545316"><ele>147.5</ele><time>2026-04-19T11:22:52.001Z</time></trkpt><trkpt lat="43.405394785048564" lon="10.775077921546503"><ele>148.75</ele><time>2026-04-19T11:22:53.001Z</time></trkpt><trkpt lat="43.405262309637095" lon="10.775007905815167"><ele>150.0</ele><time>2026-04-19T11:22:54.001Z</time></trkpt><trkpt lat="43.40512894840778" lon="10.77493708888726"><ele>150.0</ele><time>2026-04-19T11:22:55.001Z</time></trkpt><trkpt lat="43.40499516573506" lon="10.774867089002166"><ele>150.0</ele><time>2026-04-19T11:22:56.001Z</time></trkpt><trkpt lat="43.40486093901958" lon="10.774796901601372"><ele>150.0</ele><time>2026-04-19T11:22:57.001Z</time></trkpt><trkpt lat="43.404725477091475" lon="10.774728399836514"><ele>150.0</ele><time>2026-04-19T11:22:58.001Z</time></trkpt><trkpt lat="43.40458994485403" lon="10.774665049325533"><ele>150.0</ele><time>2026-04-19T11:22:59.001Z</time></trkpt><trkpt lat="43.404453086279354" lon="10.774614211696017"><ele>150.0</ele><time>2026-04-19T11:23:00.001Z</time></trkpt><trkpt lat="43.40431594193992" lon="10.774582704708742"><ele>150.0</ele><time>2026-04-19T11:23:01.001Z</time></trkpt><trkpt lat="43.404180525239695" lon="10.774571579067349"><ele>150.0</ele><time>2026-04-19T11:23:02.001Z</time></trkpt><trkpt lat="43.40404595431718" lon="10.774583682879234"><ele>150.0</ele><time>2026-04-19T11:23:03.001Z</time></trkpt><trkpt lat="43.40390970477781" lon="10.774626866603768"><ele>150.0</ele><time>2026-04-19T11:23:04.001Z</time></trkpt><trkpt lat="43.40377833535066" lon="10.774700525064127"><ele>150.0</ele><time>2026-04-19T11:23:05.001Z</time></trkpt><trkpt lat="43.40364768855741" lon="10.774788280957306"><ele>150.0</ele><time>2026-04-19T11:23:06.001Z</time></trkpt><trkpt lat="43.40351594697329" lon="10.77487526811228"><ele>152.0</ele><time>2026-04-19T11:23:07.001Z</time></trkpt><trkpt lat="43.40338177232421" lon="10.774962357718154"><ele>154.0</ele><time>2026-04-19T11:23:08.001Z</time></trkpt><trkpt lat="43.40324585874088" lon="10.775050157803003"><ele>156.0</ele><time>2026-04-19T11:23:09.001Z</time></trkpt><trkpt lat="43.4031124392006" lon="10.775133288123818"><ele>158.0</ele><time>2026-04-19T11:23:10.001Z</time></trkpt><trkpt lat="43.40298210050257" lon="10.775211655706732"><ele>158.0</ele><time>2026-04-19T11:23:11.001Z</time></trkpt><trkpt lat="43.402856211855344" lon="10.775291439589266"><ele>158.0</ele><time>2026-04-19T11:23:12.001Z</time></trkpt><trkpt lat="43.40273454687541" lon="10.775369545932882"><ele>158.0</ele><time>2026-04-19T11:23:13.001Z</time></trkpt><trkpt lat="43.40261908478392" lon="10.775451105361823"><ele>158.0</ele><time>2026-04-19T11:23:14.001Z</time></trkpt><trkpt lat="43.402514265389534" lon="10.775555136340822"><ele>158.0</ele><time>2026-04-19T11:23:15.001Z</time></trkpt><trkpt lat="43.40242282466801" lon="10.775685270086623"><ele>158.0</ele><time>2026-04-19T11:23:16.001Z</time></trkpt><trkpt lat="43.402361948350475" lon="10.775855984689548"><ele>158.0</ele><time>2026-04-19T11:23:17.001Z</time></trkpt><trkpt lat="43.40232787342037" lon="10.776034394478707"><ele>158.0</ele><time>2026-04-19T11:23:18.001Z</time></trkpt><trkpt lat="43.40230352895188" lon="10.776254985581586"><ele>158.0</ele><time>2026-04-19T11:23:19.001Z</time></trkpt><trkpt lat="43.40229502820005" lon="10.776425727894967"><ele>158.0</ele><time>2026-04-19T11:23:20.001Z</time></trkpt><trkpt lat="43.4022762002339" lon="10.776612033548533"><ele>158.0</ele><time>2026-04-19T11:23:21.001Z</time></trkpt><trkpt lat="43.40224504232354" lon="10.776797949787728"><ele>158.0</ele><time>2026-04-19T11:23:22.001Z</time></trkpt><trkpt lat="43.40220513169769" lon="10.77698075887741"><ele>157.5</ele><time>2026-04-19T11:23:23.001Z</time></trkpt><trkpt lat="43.40216538209152" lon="10.77716128455561"><ele>157.0</ele><time>2026-04-19T11:23:24.002Z</time></trkpt><trkpt lat="43.40211671551885" lon="10.777342864804536"><ele>156.5</ele><time>2026-04-19T11:23:25.002Z</time></trkpt><trkpt lat="43.40207014070639" lon="10.777526017773688"><ele>156.0</ele><time>2026-04-19T11:23:26.002Z</time></trkpt><trkpt lat="43.402032158934105" lon="10.777714096897377"><ele>158.5</ele><time>2026-04-19T11:23:27.002Z</time></trkpt><trkpt lat="43.402010760165396" lon="10.777909738302261"><ele>161.0</ele><time>2026-04-19T11:23:28.002Z</time></trkpt><trkpt lat="43.40199470641602" lon="10.778108819467723"><ele>163.5</ele><time>2026-04-19T11:23:29.002Z</time></trkpt><trkpt lat="43.40197477462196" lon="10.778312173204462"><ele>166.0</ele><time>2026-04-19T11:23:30.002Z</time></trkpt><trkpt lat="43.40197388626484" lon="10.778514147975693"><ele>166.33333333333334</ele><time>2026-04-19T11:23:31.002Z</time></trkpt><trkpt lat="43.40197985718772" lon="10.778725521315422"><ele>166.66666666666666</ele><time>2026-04-19T11:23:32.002Z</time></trkpt><trkpt lat="43.40199585144572" lon="10.778941232421694"><ele>167.0</ele><time>2026-04-19T11:23:33.002Z</time></trkpt><trkpt lat="43.40200484639843" lon="10.779158185426365"><ele>166.66666666666666</ele><time>2026-04-19T11:23:34.002Z</time></trkpt><trkpt lat="43.40201426554683" lon="10.779377818257938"><ele>166.33333333333334</ele><time>2026-04-19T11:23:35.002Z</time></trkpt><trkpt lat="43.40201933668191" lon="10.77959599518234"><ele>166.0</ele><time>2026-04-19T11:23:36.002Z</time></trkpt><trkpt lat="43.40202319690931" lon="10.779809930238304"><ele>166.0</ele><time>2026-04-19T11:23:37.002Z</time></trkpt><trkpt lat="43.402020758720575" lon="10.780016712394518"><ele>166.0</ele><time>2026-04-19T11:23:38.002Z</time></trkpt><trkpt lat="43.4020034612096" lon="10.780216678929833"><ele>166.0</ele><time>2026-04-19T11:23:39.002Z</time></trkpt><trkpt lat="43.40197549059362" lon="10.780413822832305"><ele>166.0</ele><time>2026-04-19T11:23:40.002Z</time></trkpt><trkpt lat="43.40194988329246" lon="10.780609222373988"><ele>165.75</ele><time>2026-04-19T11:23:41.002Z</time></trkpt><trkpt lat="43.401923744735264" lon="10.78080103317781"><ele>165.5</ele><time>2026-04-19T11:23:42.002Z</time></trkpt><trkpt lat="43.4018959141303" lon="10.78099668645555"><ele>165.25</ele><time>2026-04-19T11:23:43.002Z</time></trkpt><trkpt lat="43.40187333160333" lon="10.78118807642151"><ele>165.0</ele><time>2026-04-19T11:23:44.002Z</time></trkpt><trkpt lat="43.401844611101765" lon="10.7813782685396"><ele>165.0</ele><time>2026-04-19T11:23:45.002Z</time></trkpt><trkpt lat="43.401832599657574" lon="10.78156375736227"><ele>165.0</ele><time>2026-04-19T11:23:46.002Z</time></trkpt><trkpt lat="43.40182499036304" lon="10.781750112004024"><ele>165.0</ele><time>2026-04-19T11:23:47.002Z</time></trkpt><trkpt lat="43.40183202831697" lon="10.781925929752198"><ele>165.0</ele><time>2026-04-19T11:23:48.002Z</time></trkpt><trkpt lat="43.40184705677174" lon="10.782082790625372"><ele>164.83333333333334</ele><time>2026-04-19T11:23:49.002Z</time></trkpt><trkpt lat="43.40185447621536" lon="10.78223145469858"><ele>164.66666666666666</ele><time>2026-04-19T11:23:50.002Z</time></trkpt><trkpt lat="43.40186317667228" lon="10.782362721320798"><ele>164.5</ele><time>2026-04-19T11:23:51.002Z</time></trkpt><trkpt lat="43.4018732010272" lon="10.78247786064258"><ele>164.33333333333331</ele><time>2026-04-19T11:23:52.002Z</time></trkpt><trkpt lat="43.40188210296204" lon="10.782584183516432"><ele>164.16666666666666</ele><time>2026-04-19T11:23:53.002Z</time></trkpt><trkpt lat="43.40189021558579" lon="10.782680687097592"><ele>164.0</ele><time>2026-04-19T11:23:54.002Z</time></trkpt><trkpt lat="43.40190070850969" lon="10.782784491749801"><ele>163.39999999999998</ele><time>2026-04-19T11:23:55.002Z</time></trkpt><trkpt lat="43.401915512337105" lon="10.782897776181708"><ele>162.8</ele><time>2026-04-19T11:23:56.002Z</time></trkpt><trkpt lat="43.40193066304336" lon="10.783022245448485"><ele>162.2</ele><time>2026-04-19T11:23:57.002Z</time></trkpt><trkpt lat="43.40194673539179" lon="10.783158481597523"><ele>161.60000000000002</ele><time>2026-04-19T11:23:58.002Z</time></trkpt><trkpt lat="43.40195973354402" lon="10.783304880503419"><ele>161.0</ele><time>2026-04-19T11:23:59.002Z</time></trkpt><trkpt lat="43.40197425364603" lon="10.7834567307294"><ele>160.25</ele><time>2026-04-19T11:24:00.002Z</time></trkpt><trkpt lat="43.40198858154373" lon="10.783615891091875"><ele>159.5</ele><time>2026-04-19T11:24:01.002Z</time></trkpt><trkpt lat="43.40200529176532" lon="10.783784980015044"><ele>158.75</ele><time>2026-04-19T11:24:02Z</time></trkpt><trkpt lat="43.40202554061701" lon="10.783960626773853"><ele>158.0</ele><time>2026-04-19T11:24:03Z</time></trkpt><trkpt lat="43.40204469593198" lon="10.784136094576429"><ele>158.0</ele><time>2026-04-19T11:24:04Z</time></trkpt><trkpt lat="43.402073027665374" lon="10.784313686404397"><ele>158.0</ele><time>2026-04-19T11:24:05Z</time></trkpt><trkpt lat="43.40210998383914" lon="10.784495851285735"><ele>158.0</ele><time>2026-04-19T11:24:06Z</time></trkpt><trkpt lat="43.40215420757058" lon="10.784680385479945"><ele>158.0</ele><time>2026-04-19T11:24:07Z</time></trkpt><trkpt lat="43.40220195839451" lon="10.784867517202256"><ele>160.0</ele><time>2026-04-19T11:24:08Z</time></trkpt><trkpt lat="43.40225076667266" lon="10.785058366116607"><ele>162.0</ele><time>2026-04-19T11:24:09Z</time></trkpt><trkpt lat="43.4023021246954" lon="10.785253813706333"><ele>164.0</ele><time>2026-04-19T11:24:10Z</time></trkpt><trkpt lat="43.402353340485234" lon="10.785452852698308"><ele>164.0</ele><time>2026-04-19T11:24:11Z</time></trkpt><trkpt lat="43.402405643341886" lon="10.78565638661352"><ele>164.0</ele><time>2026-04-19T11:24:12Z</time></trkpt><trkpt lat="43.40245589210219" lon="10.785865306969491"><ele>164.0</ele><time>2026-04-19T11:24:13Z</time></trkpt><trkpt lat="43.4025069180769" lon="10.786079748553098"><ele>164.66666666666666</ele><time>2026-04-19T11:24:14Z</time></trkpt><trkpt lat="43.40256060820081" lon="10.78629066198454"><ele>165.33333333333334</ele><time>2026-04-19T11:24:15Z</time></trkpt><trkpt lat="43.402613735708925" lon="10.786498429276703"><ele>166.0</ele><time>2026-04-19T11:24:16Z</time></trkpt><trkpt lat="43.4026659184796" lon="10.786697147927688"><ele>166.66666666666669</ele><time>2026-04-19T11:24:17Z</time></trkpt><trkpt lat="43.402712459094964" lon="10.786889542150572"><ele>167.33333333333334</ele><time>2026-04-19T11:24:18Z</time></trkpt><trkpt lat="43.40275855239803" lon="10.787075878615891"><ele>168.0</ele><time>2026-04-19T11:24:19Z</time></trkpt><trkpt lat="43.402832716318485" lon="10.787399544332148"><ele>168.0</ele><time>2026-04-19T11:24:21Z</time></trkpt><trkpt lat="43.40285744363645" lon="10.787531181209877"><ele>168.0</ele><time>2026-04-19T11:24:22Z</time></trkpt><trkpt lat="43.402874107269405" lon="10.78764796934138"><ele>168.0</ele><time>2026-04-19T11:24:23Z</time></trkpt><trkpt lat="43.40288527960022" lon="10.787743392820245"><ele>168.0</ele><time>2026-04-19T11:24:24Z</time></trkpt><trkpt lat="43.402893005476244" lon="10.787879908430611"><ele>168.0</ele><time>2026-04-19T11:24:26Z</time></trkpt><trkpt lat="43.40300284755437" lon="10.787923524697526"><ele>169.66666666666666</ele><time>2026-04-19T11:24:28Z</time></trkpt><trkpt lat="43.403105196897464" lon="10.788008535113796"><ele>171.33333333333334</ele><time>2026-04-19T11:24:30Z</time></trkpt><trkpt lat="43.403154702611666" lon="10.78807389033053"><ele>173.0</ele><time>2026-04-19T11:24:31Z</time></trkpt><trkpt lat="43.403212003330836" lon="10.788141227720455"><ele>174.66666666666669</ele><time>2026-04-19T11:24:32Z</time></trkpt><trkpt lat="43.403268559075926" lon="10.788225536223273"><ele>176.33333333333334</ele><time>2026-04-19T11:24:33Z</time></trkpt><trkpt lat="43.40332509686111" lon="10.788328155482349"><ele>178.0</ele><time>2026-04-19T11:24:34Z</time></trkpt><trkpt lat="43.4033772950695" lon="10.788448169050893"><ele>179.75</ele><time>2026-04-19T11:24:35Z</time></trkpt><trkpt lat="43.403435856042776" lon="10.788572686848282"><ele>181.5</ele><time>2026-04-19T11:24:36Z</time></trkpt><trkpt lat="43.40350158044268" lon="10.788707005639955"><ele>183.25</ele><time>2026-04-19T11:24:37.001Z</time></trkpt><trkpt lat="43.40357175729568" lon="10.788848831188483"><ele>185.0</ele><time>2026-04-19T11:24:38.001Z</time></trkpt><trkpt lat="43.403645438490315" lon="10.788999125874378"><ele>185.0</ele><time>2026-04-19T11:24:39.001Z</time></trkpt><trkpt lat="43.40372060826502" lon="10.789156680583359"><ele>185.0</ele><time>2026-04-19T11:24:40.001Z</time></trkpt><trkpt lat="43.403796929940476" lon="10.789324095598447"><ele>185.0</ele><time>2026-04-19T11:24:41.001Z</time></trkpt><trkpt lat="43.40386154314546" lon="10.789503022855017"><ele>185.0</ele><time>2026-04-19T11:24:42.001Z</time></trkpt><trkpt lat="43.403915622932" lon="10.789681228010013"><ele>185.0</ele><time>2026-04-19T11:24:43.001Z</time></trkpt><trkpt lat="43.40396373116023" lon="10.789864810261681"><ele>185.0</ele><time>2026-04-19T11:24:44.001Z</time></trkpt><trkpt lat="43.40401803113683" lon="10.790045484788347"><ele>185.0</ele><time>2026-04-19T11:24:45.001Z</time></trkpt><trkpt lat="43.40408654560872" lon="10.790216882945396"><ele>185.0</ele><time>2026-04-19T11:24:46.001Z</time></trkpt><trkpt lat="43.40417331750757" lon="10.790371485002174"><ele>186.25</ele><time>2026-04-19T11:24:47.001Z</time></trkpt><trkpt lat="43.40427161094824" lon="10.79050578287374"><ele>187.5</ele><time>2026-04-19T11:24:48.001Z</time></trkpt><trkpt lat="43.404378234264044" lon="10.790635661984089"><ele>188.75</ele><time>2026-04-19T11:24:49.001Z</time></trkpt><trkpt lat="43.404493350734256" lon="10.790764446761084"><ele>190.0</ele><time>2026-04-19T11:24:50.001Z</time></trkpt><trkpt lat="43.40460689334227" lon="10.790893759135114"><ele>191.5</ele><time>2026-04-19T11:24:51.001Z</time></trkpt><trkpt lat="43.404716861176816" lon="10.791026863467684"><ele>193.0</ele><time>2026-04-19T11:24:52.001Z</time></trkpt><trkpt lat="43.40481583421351" lon="10.791166540261973"><ele>194.5</ele><time>2026-04-19T11:24:53.001Z</time></trkpt><trkpt lat="43.40490854125609" lon="10.791318998786721"><ele>196.0</ele><time>2026-04-19T11:24:54.001Z</time></trkpt><trkpt lat="43.40499441978672" lon="10.791475334649373"><ele>196.0</ele><time>2026-04-19T11:24:55.001Z</time></trkpt><trkpt lat="43.40508692244502" lon="10.791620005911374"><ele>196.0</ele><time>2026-04-19T11:24:56.001Z</time></trkpt><trkpt lat="43.40518602321627" lon="10.79174541399996"><ele>196.0</ele><time>2026-04-19T11:24:57.001Z</time></trkpt><trkpt lat="43.40527450515144" lon="10.791847246033624"><ele>196.0</ele><time>2026-04-19T11:24:58.001Z</time></trkpt><trkpt lat="43.405341819335376" lon="10.79194377956365"><ele>197.4</ele><time>2026-04-19T11:24:59.001Z</time></trkpt><trkpt lat="43.40539284274394" lon="10.792061453542196"><ele>198.8</ele><time>2026-04-19T11:25:00.001Z</time></trkpt><trkpt lat="43.40541230923305" lon="10.792220799522443"><ele>200.20000000000002</ele><time>2026-04-19T11:25:01.001Z</time></trkpt><trkpt lat="43.40540249152998" lon="10.792345887051125"><ele>201.60000000000002</ele><time>2026-04-19T11:25:02.001Z</time></trkpt><trkpt lat="43.40539654906232" lon="10.79247184196329"><ele>203.0</ele><time>2026-04-19T11:25:03.001Z</time></trkpt><trkpt lat="43.405389501054614" lon="10.79263960417649"><ele>202.25</ele><time>2026-04-19T11:25:04.001Z</time></trkpt><trkpt lat="43.405424876693246" lon="10.792786333043084"><ele>201.5</ele><time>2026-04-19T11:25:05.001Z</time></trkpt><trkpt lat="43.405481133388506" lon="10.792933900608892"><ele>200.75</ele><time>2026-04-19T11:25:06.001Z</time></trkpt><trkpt lat="43.405538417774956" lon="10.793073259892976"><ele>200.0</ele><time>2026-04-19T11:25:07.001Z</time></trkpt><trkpt lat="43.40559646381034" lon="10.793196341757083"><ele>200.0</ele><time>2026-04-19T11:25:08.001Z</time></trkpt><trkpt lat="43.40567308887925" lon="10.793300572788478"><ele>200.0</ele><time>2026-04-19T11:25:09.001Z</time></trkpt><trkpt lat="43.40577289439238" lon="10.79337155541435"><ele>200.0</ele><time>2026-04-19T11:25:10.001Z</time></trkpt><trkpt lat="43.405889960384755" lon="10.793394951795245"><ele>200.0</ele><time>2026-04-19T11:25:11.001Z</time></trkpt><trkpt lat="43.406023395417115" lon="10.793411489797522"><ele>200.0</ele><time>2026-04-19T11:25:12.001Z</time></trkpt><trkpt lat="43.40615932042018" lon="10.79343519198571"><ele>200.0</ele><time>2026-04-19T11:25:13.001Z</time></trkpt><trkpt lat="43.40630064493643" lon="10.793419661450859"><ele>200.0</ele><time>2026-04-19T11:25:14.001Z</time></trkpt><trkpt lat="43.406429336479775" lon="10.793425102141144"><ele>200.0</ele><time>2026-04-19T11:25:15.001Z</time></trkpt><trkpt lat="43.406555904898795" lon="10.793438520910613"><ele>201.0</ele><time>2026-04-19T11:25:16.001Z</time></trkpt><trkpt lat="43.4066795213083" lon="10.793474631697794"><ele>202.0</ele><time>2026-04-19T11:25:17.001Z</time></trkpt><trkpt lat="43.406798427344675" lon="10.793541028402784"><ele>203.0</ele><time>2026-04-19T11:25:18.001Z</time></trkpt><trkpt lat="43.40690588541853" lon="10.793637671118733"><ele>204.0</ele><time>2026-04-19T11:25:19.001Z</time></trkpt><trkpt lat="43.40700532107724" lon="10.793758154609556"><ele>205.25</ele><time>2026-04-19T11:25:20.001Z</time></trkpt><trkpt lat="43.40709855434315" lon="10.793882744547846"><ele>206.5</ele><time>2026-04-19T11:25:21.001Z</time></trkpt><trkpt lat="43.407182711563145" lon="10.794014256601084"><ele>207.75</ele><time>2026-04-19T11:25:22.001Z</time></trkpt><trkpt lat="43.40727640728174" lon="10.794160301221048"><ele>209.0</ele><time>2026-04-19T11:25:23.001Z</time></trkpt><trkpt lat="43.407344147712415" lon="10.794327140505896"><ele>206.66666666666669</ele><time>2026-04-19T11:25:24.001Z</time></trkpt><trkpt lat="43.40739627537596" lon="10.794525839630477"><ele>204.33333333333331</ele><time>2026-04-19T11:25:25.001Z</time></trkpt><trkpt lat="43.407444103796614" lon="10.794710352817733"><ele>202.0</ele><time>2026-04-19T11:25:26.001Z</time></trkpt><trkpt lat="43.40749208338563" lon="10.794913212417484"><ele>202.0</ele><time>2026-04-19T11:25:27.001Z</time></trkpt><trkpt lat="43.40752801664263" lon="10.795098425299235"><ele>202.0</ele><time>2026-04-19T11:25:28.001Z</time></trkpt><trkpt lat="43.40757126583649" lon="10.795281999774684"><ele>202.0</ele><time>2026-04-19T11:25:29.001Z</time></trkpt><trkpt lat="43.407606712721304" lon="10.79546604860105"><ele>202.0</ele><time>2026-04-19T11:25:30.001Z</time></trkpt><trkpt lat="43.40763924103793" lon="10.795633364654144"><ele>201.33333333333331</ele><time>2026-04-19T11:25:31.001Z</time></trkpt><trkpt lat="43.40766658327426" lon="10.795769355943515"><ele>200.66666666666666</ele><time>2026-04-19T11:25:32.001Z</time></trkpt><trkpt lat="43.40769306681628" lon="10.795870966247607"><ele>200.0</ele><time>2026-04-19T11:25:33.001Z</time></trkpt><trkpt lat="43.40773829338986" lon="10.795950258909139"><ele>199.33333333333331</ele><time>2026-04-19T11:25:34.001Z</time></trkpt><trkpt lat="43.40780587694162" lon="10.796006570903291"><ele>198.66666666666666</ele><time>2026-04-19T11:25:35.001Z</time></trkpt><trkpt lat="43.407897696136885" lon="10.796022371550071"><ele>198.0</ele><time>2026-04-19T11:25:36.001Z</time></trkpt><trkpt lat="43.40799874002328" lon="10.796019181791179"><ele>198.8</ele><time>2026-04-19T11:25:37.001Z</time></trkpt><trkpt lat="43.40810044896716" lon="10.795982857845498"><ele>199.60000000000002</ele><time>2026-04-19T11:25:38.001Z</time></trkpt><trkpt lat="43.40820106642771" lon="10.795969472038387"><ele>200.39999999999998</ele><time>2026-04-19T11:25:39.001Z</time></trkpt><trkpt lat="43.408280053956624" lon="10.795926874078349"><ele>201.2</ele><time>2026-04-19T11:25:40.001Z</time></trkpt><trkpt lat="43.40838836069913" lon="10.795864844089532"><ele>202.0</ele><time>2026-04-19T11:25:42.002Z</time></trkpt><trkpt lat="43.40845585446533" lon="10.795893324670276"><ele>202.0</ele><time>2026-04-19T11:25:44.002Z</time></trkpt><trkpt lat="43.40850310891824" lon="10.795959343908384"><ele>202.0</ele><time>2026-04-19T11:25:46.002Z</time></trkpt><trkpt lat="43.408587456541376" lon="10.79587166634124"><ele>202.0</ele><time>2026-04-19T11:25:48.002Z</time></trkpt><trkpt lat="43.40864222648526" lon="10.79581480090343"><ele>202.0</ele><time>2026-04-19T11:25:50.002Z</time></trkpt><trkpt lat="43.40869328452059" lon="10.795735250095136"><ele>202.0</ele><time>2026-04-19T11:25:52.002Z</time></trkpt><trkpt lat="43.408670234135904" lon="10.79550833167201"><ele>201.99999999999997</ele><time>2026-04-19T11:25:54.002Z</time></trkpt><trkpt lat="43.408636777537" lon="10.795412036660142"><ele>202.0</ele><time>2026-04-19T11:25:55.002Z</time></trkpt><trkpt lat="43.408621377018115" lon="10.795301627387452"><ele>202.0</ele><time>2026-04-19T11:25:56.002Z</time></trkpt><trkpt lat="43.4086062423134" lon="10.795186697072195"><ele>202.0</ele><time>2026-04-19T11:25:57.002Z</time></trkpt><trkpt lat="43.40858634305492" lon="10.79506758189841"><ele>201.99999999999997</ele><time>2026-04-19T11:25:58.002Z</time></trkpt><trkpt lat="43.4085918879194" lon="10.794941327318792"><ele>202.0</ele><time>2026-04-19T11:25:59.002Z</time></trkpt><trkpt lat="43.408571241390234" lon="10.7948160544659"><ele>202.8</ele><time>2026-04-19T11:26:00.002Z</time></trkpt><trkpt lat="43.40854951530079" lon="10.794682992798156"><ele>203.6</ele><time>2026-04-19T11:26:01.002Z</time></trkpt><trkpt lat="43.40852816182687" lon="10.79454259581026"><ele>204.4</ele><time>2026-04-19T11:26:02.002Z</time></trkpt><trkpt lat="43.4085114660949" lon="10.794398199569612"><ele>205.20000000000002</ele><time>2026-04-19T11:26:03.002Z</time></trkpt><trkpt lat="43.40850714498887" lon="10.794252006868843"><ele>206.0</ele><time>2026-04-19T11:26:04.002Z</time></trkpt><trkpt lat="43.408518408877235" lon="10.794101059313578"><ele>206.8</ele><time>2026-04-19T11:26:05.002Z</time></trkpt><trkpt lat="43.408523298710655" lon="10.793950121596938"><ele>207.60000000000002</ele><time>2026-04-19T11:26:06.002Z</time></trkpt><trkpt lat="43.40852827692279" lon="10.793796455849025"><ele>208.4</ele><time>2026-04-19T11:26:07.002Z</time></trkpt><trkpt lat="43.40852936033381" lon="10.793646733303108"><ele>209.2</ele><time>2026-04-19T11:26:08Z</time></trkpt><trkpt lat="43.408518958053726" lon="10.793501138377165"><ele>210.0</ele><time>2026-04-19T11:26:09Z</time></trkpt><trkpt lat="43.408488806106625" lon="10.793371903232549"><ele>210.0</ele><time>2026-04-19T11:26:10Z</time></trkpt><trkpt lat="43.40843107839974" lon="10.793283570891653"><ele>210.0</ele><time>2026-04-19T11:26:11Z</time></trkpt><trkpt lat="43.40839805764987" lon="10.79318792628436"><ele>210.0</ele><time>2026-04-19T11:26:12Z</time></trkpt><trkpt lat="43.40834886351354" lon="10.793100475112901"><ele>210.0</ele><time>2026-04-19T11:26:13Z</time></trkpt><trkpt lat="43.408302511079384" lon="10.793020424101947"><ele>210.0</ele><time>2026-04-19T11:26:14Z</time></trkpt><trkpt lat="43.40826344287179" lon="10.792945769232249"><ele>210.0</ele><time>2026-04-19T11:26:15Z</time></trkpt><trkpt lat="43.40822799736015" lon="10.792852060275955"><ele>210.0</ele><time>2026-04-19T11:26:16Z</time></trkpt><trkpt lat="43.40820666736622" lon="10.792757343786533"><ele>210.0</ele><time>2026-04-19T11:26:17Z</time></trkpt><trkpt lat="43.40820124063273" lon="10.79266149162615"><ele>210.0</ele><time>2026-04-19T11:26:18Z</time></trkpt><trkpt lat="43.40820220279635" lon="10.792573408954297"><ele>210.0</ele><time>2026-04-19T11:26:19Z</time></trkpt><trkpt lat="43.40820327142603" lon="10.792483109791686"><ele>210.0</ele><time>2026-04-19T11:26:20Z</time></trkpt><trkpt lat="43.40820434495789" lon="10.792392396380967"><ele>210.0</ele><time>2026-04-19T11:26:21Z</time></trkpt><trkpt lat="43.40820936586284" lon="10.792233395607475"><ele>210.0</ele><time>2026-04-19T11:26:23Z</time></trkpt><trkpt lat="43.40822074825491" lon="10.792138285058828"><ele>210.0</ele><time>2026-04-19T11:26:25Z</time></trkpt><trkpt lat="43.408240996558135" lon="10.792037777841012"><ele>210.0</ele><time>2026-04-19T11:26:30Z</time></trkpt><trkpt lat="43.40827130167212" lon="10.791934811170213"><ele>210.0</ele><time>2026-04-19T11:26:33Z</time></trkpt><trkpt lat="43.408325070494875" lon="10.791845772489275"><ele>210.0</ele><time>2026-04-19T11:26:35Z</time></trkpt><trkpt lat="43.40841042867625" lon="10.791725313362068"><ele>210.0</ele><time>2026-04-19T11:26:37Z</time></trkpt><trkpt lat="43.40845572309935" lon="10.79165500355538"><ele>210.5</ele><time>2026-04-19T11:26:38Z</time></trkpt><trkpt lat="43.408503680472535" lon="10.791580559999534"><ele>211.0</ele><time>2026-04-19T11:26:39Z</time></trkpt><trkpt lat="43.40855452647005" lon="10.791496900143445"><ele>211.5</ele><time>2026-04-19T11:26:40Z</time></trkpt><trkpt lat="43.40860536842193" lon="10.791405658381228"><ele>212.0</ele><time>2026-04-19T11:26:41Z</time></trkpt><trkpt lat="43.408651975682524" lon="10.79131375172832"><ele>212.5</ele><time>2026-04-19T11:26:42Z</time></trkpt><trkpt lat="43.40869632048174" lon="10.791207543455675"><ele>213.0</ele><time>2026-04-19T11:26:43Z</time></trkpt><trkpt lat="43.40873279927266" lon="10.791094774301447"><ele>214.60000000000002</ele><time>2026-04-19T11:26:44Z</time></trkpt><trkpt lat="43.40876315952566" lon="10.790974936996975"><ele>216.20000000000002</ele><time>2026-04-19T11:26:45Z</time></trkpt><trkpt lat="43.40879284648711" lon="10.790847749256532"><ele>217.8</ele><time>2026-04-19T11:26:46Z</time></trkpt><trkpt lat="43.40882064517881" lon="10.790721814080605"><ele>219.4</ele><time>2026-04-19T11:26:47Z</time></trkpt><trkpt lat="43.40884795549892" lon="10.790597633844582"><ele>221.0</ele><time>2026-04-19T11:26:48Z</time></trkpt><trkpt lat="43.40887805758332" lon="10.790474595254707"><ele>218.4</ele><time>2026-04-19T11:26:49Z</time></trkpt><trkpt lat="43.40891778735827" lon="10.79035694032609"><ele>215.8</ele><time>2026-04-19T11:26:50Z</time></trkpt><trkpt lat="43.40896021584276" lon="10.790223645067694"><ele>213.20000000000002</ele><time>2026-04-19T11:26:51Z</time></trkpt><trkpt lat="43.409000550251605" lon="10.79008595582177"><ele>210.60000000000002</ele><time>2026-04-19T11:26:52.001Z</time></trkpt><trkpt lat="43.40903968639368" lon="10.789948887203138"><ele>208.0</ele><time>2026-04-19T11:26:53.001Z</time></trkpt><trkpt lat="43.409074192826225" lon="10.789814014867657"><ele>207.99999999999997</ele><time>2026-04-19T11:26:54.001Z</time></trkpt><trkpt lat="43.4091019271085" lon="10.789698893446774"><ele>208.0</ele><time>2026-04-19T11:26:55.001Z</time></trkpt><trkpt lat="43.40913217636149" lon="10.789597179813311"><ele>208.0</ele><time>2026-04-19T11:26:56.001Z</time></trkpt><trkpt lat="43.40917686006036" lon="10.789515898822112"><ele>208.0</ele><time>2026-04-19T11:26:57.001Z</time></trkpt><trkpt lat="43.40923982338817" lon="10.789460827271457"><ele>207.99999999999997</ele><time>2026-04-19T11:26:58.001Z</time></trkpt><trkpt lat="43.409331901361945" lon="10.789393456245232"><ele>208.0</ele><time>2026-04-19T11:27:00.001Z</time></trkpt><trkpt lat="43.40940106435843" lon="10.789329780947009"><ele>208.28571428571428</ele><time>2026-04-19T11:27:03.001Z</time></trkpt><trkpt lat="43.409490823458306" lon="10.789282158388694"><ele>208.57142857142858</ele><time>2026-04-19T11:27:05.001Z</time></trkpt><trkpt lat="43.40954795403912" lon="10.789243043093819"><ele>208.85714285714286</ele><time>2026-04-19T11:27:06.001Z</time></trkpt><trkpt lat="43.40961220908108" lon="10.789204409690363"><ele>209.14285714285714</ele><time>2026-04-19T11:27:07.001Z</time></trkpt><trkpt lat="43.40968123816864" lon="10.789169682905783"><ele>209.42857142857144</ele><time>2026-04-19T11:27:08.001Z</time></trkpt><trkpt lat="43.40975114673891" lon="10.789156692573806"><ele>209.71428571428572</ele><time>2026-04-19T11:27:09.001Z</time></trkpt><trkpt lat="43.40981965474535" lon="10.78918326146593"><ele>210.0</ele><time>2026-04-19T11:27:10.001Z</time></trkpt><trkpt lat="43.40988713282225" lon="10.789221338745532"><ele>210.0</ele><time>2026-04-19T11:27:11.001Z</time></trkpt><trkpt lat="43.409953254751386" lon="10.7892737092787"><ele>210.0</ele><time>2026-04-19T11:27:12.001Z</time></trkpt><trkpt lat="43.41002092673691" lon="10.789335746588298"><ele>210.0</ele><time>2026-04-19T11:27:13.001Z</time></trkpt><trkpt lat="43.410086997401926" lon="10.789395435708684"><ele>210.0</ele><time>2026-04-19T11:27:14.001Z</time></trkpt><trkpt lat="43.4101493939298" lon="10.789450981038899"><ele>210.0</ele><time>2026-04-19T11:27:15.001Z</time></trkpt><trkpt lat="43.41020895088882" lon="10.789504343550089"><ele>210.0</ele><time>2026-04-19T11:27:16.001Z</time></trkpt><trkpt lat="43.41027467440072" lon="10.789565660904703"><ele>210.2</ele><time>2026-04-19T11:27:17.001Z</time></trkpt><trkpt lat="43.41034700504017" lon="10.789633272491916"><ele>210.4</ele><time>2026-04-19T11:27:18.001Z</time></trkpt><trkpt lat="43.410428446129345" lon="10.789707569017542"><ele>210.60000000000002</ele><time>2026-04-19T11:27:19.001Z</time></trkpt><trkpt lat="43.41051580064256" lon="10.789789227645162"><ele>210.8</ele><time>2026-04-19T11:27:20.001Z</time></trkpt><trkpt lat="43.4106125623575" lon="10.789873566789142"><ele>211.0</ele><time>2026-04-19T11:27:21.001Z</time></trkpt><trkpt lat="43.41071180123403" lon="10.789953886388089"><ele>211.0</ele><time>2026-04-19T11:27:22.001Z</time></trkpt><trkpt lat="43.41080733967761" lon="10.790038922824792"><ele>211.0</ele><time>2026-04-19T11:27:23.001Z</time></trkpt><trkpt lat="43.41089971329738" lon="10.790122931263122"><ele>211.0</ele><time>2026-04-19T11:27:24.001Z</time></trkpt><trkpt lat="43.41098081644784" lon="10.790195779600042"><ele>211.0</ele><time>2026-04-19T11:27:25.001Z</time></trkpt><trkpt lat="43.41105909246579" lon="10.790263291694606"><ele>211.0</ele><time>2026-04-19T11:27:26.001Z</time></trkpt><trkpt lat="43.41114049103649" lon="10.790323544601044"><ele>209.4</ele><time>2026-04-19T11:27:27.001Z</time></trkpt><trkpt lat="43.411218180525374" lon="10.790369630145808"><ele>207.8</ele><time>2026-04-19T11:27:28.001Z</time></trkpt><trkpt lat="43.411289049225694" lon="10.790405036197217"><ele>206.20000000000002</ele><time>2026-04-19T11:27:29.001Z</time></trkpt><trkpt lat="43.411408091276265" lon="10.790429682354805"><ele>204.60000000000002</ele><time>2026-04-19T11:27:31.001Z</time></trkpt><trkpt lat="43.41151187350899" lon="10.790441944777736"><ele>203.0</ele><time>2026-04-19T11:27:33.001Z</time></trkpt><trkpt lat="43.41158411464419" lon="10.790316815916357"><ele>203.00000000000003</ele><time>2026-04-19T11:27:34.001Z</time></trkpt><trkpt lat="43.41165504819518" lon="10.79025847542378"><ele>203.0</ele><time>2026-04-19T11:27:35.001Z</time></trkpt><trkpt lat="43.41172836374202" lon="10.790200222935256"><ele>203.0</ele><time>2026-04-19T11:27:36.001Z</time></trkpt><trkpt lat="43.411798582943" lon="10.790136260159974"><ele>203.0</ele><time>2026-04-19T11:27:37.001Z</time></trkpt><trkpt lat="43.411856802710965" lon="10.790046843099297"><ele>203.00000000000003</ele><time>2026-04-19T11:27:38.001Z</time></trkpt><trkpt lat="43.41189252376577" lon="10.78993283797324"><ele>203.0</ele><time>2026-04-19T11:27:39.001Z</time></trkpt><trkpt lat="43.41191195181504" lon="10.789812870728442"><ele>204.2</ele><time>2026-04-19T11:27:40.001Z</time></trkpt><trkpt lat="43.41195992696522" lon="10.789692722587596"><ele>205.4</ele><time>2026-04-19T11:27:41.001Z</time></trkpt><trkpt lat="43.41198177544337" lon="10.78956167586419"><ele>206.6</ele><time>2026-04-19T11:27:42.001Z</time></trkpt><trkpt lat="43.41198275682072" lon="10.789423777022444"><ele>207.79999999999998</ele><time>2026-04-19T11:27:43.001Z</time></trkpt><trkpt lat="43.411994118928305" lon="10.78930604832855"><ele>209.0</ele><time>2026-04-19T11:27:44.001Z</time></trkpt><trkpt lat="43.41200660282786" lon="10.789164932472627"><ele>209.33333333333334</ele><time>2026-04-19T11:27:46.001Z</time></trkpt><trkpt lat="43.41201490690696" lon="10.788994977779291"><ele>209.66666666666669</ele><time>2026-04-19T11:27:48.001Z</time></trkpt><trkpt lat="43.41202261225233" lon="10.788890834806587"><ele>210.0</ele><time>2026-04-19T11:27:49.001Z</time></trkpt><trkpt lat="43.412024883332876" lon="10.788783319573716"><ele>210.33333333333331</ele><time>2026-04-19T11:27:50.001Z</time></trkpt><trkpt lat="43.41204496642834" lon="10.788668473800673"><ele>210.66666666666666</ele><time>2026-04-19T11:27:51.001Z</time></trkpt><trkpt lat="43.41205316162758" lon="10.788552514837532"><ele>211.0</ele><time>2026-04-19T11:27:52.001Z</time></trkpt><trkpt lat="43.4120416914525" lon="10.788444884349445"><ele>211.0</ele><time>2026-04-19T11:27:53.002Z</time></trkpt><trkpt lat="43.41205542652007" lon="10.788353220024216"><ele>211.0</ele><time>2026-04-19T11:27:54.002Z</time></trkpt><trkpt lat="43.41209882026527" lon="10.78827746741819"><ele>211.0</ele><time>2026-04-19T11:27:55.002Z</time></trkpt><trkpt lat="43.41213287441332" lon="10.788197196609964"><ele>211.0</ele><time>2026-04-19T11:27:56.002Z</time></trkpt><trkpt lat="43.4121744913091" lon="10.788108133041801"><ele>211.0</ele><time>2026-04-19T11:27:57.002Z</time></trkpt><trkpt lat="43.41222195082014" lon="10.788022717051456"><ele>211.0</ele><time>2026-04-19T11:27:58.002Z</time></trkpt><trkpt lat="43.41227328127815" lon="10.787937701161695"><ele>211.0</ele><time>2026-04-19T11:27:59.002Z</time></trkpt><trkpt lat="43.4123076288047" lon="10.787837814446261"><ele>207.99999999999997</ele><time>2026-04-19T11:28:00.002Z</time></trkpt><trkpt lat="43.41234723363503" lon="10.78774594020667"><ele>205.0</ele><time>2026-04-19T11:28:01.002Z</time></trkpt><trkpt lat="43.4123909676942" lon="10.787651575387837"><ele>202.0</ele><time>2026-04-19T11:28:02.002Z</time></trkpt><trkpt lat="43.41238356698306" lon="10.787527122467896"><ele>199.0</ele><time>2026-04-19T11:28:03.002Z</time></trkpt><trkpt lat="43.41237069626259" lon="10.787398835443868"><ele>195.99999999999997</ele><time>2026-04-19T11:28:04.002Z</time></trkpt><trkpt lat="43.41237578087145" lon="10.787290857089795"><ele>193.0</ele><time>2026-04-19T11:28:05.002Z</time></trkpt><trkpt lat="43.41238042773245" lon="10.787120876246004"><ele>192.83333333333331</ele><time>2026-04-19T11:28:07.002Z</time></trkpt><trkpt lat="43.41240788474393" lon="10.787041836695659"><ele>192.66666666666666</ele><time>2026-04-19T11:28:08.002Z</time></trkpt><trkpt lat="43.41245609076078" lon="10.786977771919414"><ele>192.5</ele><time>2026-04-19T11:28:09.002Z</time></trkpt><trkpt lat="43.412507949418085" lon="10.78691028274783"><ele>192.33333333333331</ele><time>2026-04-19T11:28:10.002Z</time></trkpt><trkpt lat="43.41257976845934" lon="10.786859888299745"><ele>192.16666666666666</ele><time>2026-04-19T11:28:11.002Z</time></trkpt><trkpt lat="43.412657752971924" lon="10.786793853715029"><ele>192.0</ele><time>2026-04-19T11:28:12.002Z</time></trkpt><trkpt lat="43.41273758271197" lon="10.78672095918494"><ele>193.0</ele><time>2026-04-19T11:28:13.002Z</time></trkpt><trkpt lat="43.41283113578529" lon="10.786669593136038"><ele>194.0</ele><time>2026-04-19T11:28:14Z</time></trkpt><trkpt lat="43.412921336030365" lon="10.786599283512704"><ele>195.0</ele><time>2026-04-19T11:28:15Z</time></trkpt><trkpt lat="43.413012651446365" lon="10.78651840710033"><ele>196.0</ele><time>2026-04-19T11:28:16Z</time></trkpt><trkpt lat="43.41310332988239" lon="10.786435759922906"><ele>197.0</ele><time>2026-04-19T11:28:17Z</time></trkpt><trkpt lat="43.41319204933227" lon="10.78635777683078"><ele>194.8</ele><time>2026-04-19T11:28:18Z</time></trkpt><trkpt lat="43.41327289924382" lon="10.786276310649592"><ele>192.6</ele><time>2026-04-19T11:28:19Z</time></trkpt><trkpt lat="43.413361124188015" lon="10.78624348650468"><ele>190.4</ele><time>2026-04-19T11:28:20Z</time></trkpt><trkpt lat="43.41344691681362" lon="10.786236799958667"><ele>188.20000000000002</ele><time>2026-04-19T11:28:21Z</time></trkpt><trkpt lat="43.41353927123403" lon="10.786260144240268"><ele>186.0</ele><time>2026-04-19T11:28:22Z</time></trkpt><trkpt lat="43.41364002550009" lon="10.78628608713193"><ele>186.0</ele><time>2026-04-19T11:28:23Z</time></trkpt><trkpt lat="43.41374173935064" lon="10.786303458609918"><ele>186.0</ele><time>2026-04-19T11:28:24Z</time></trkpt><trkpt lat="43.41385200174791" lon="10.786296835790393"><ele>186.0</ele><time>2026-04-19T11:28:25Z</time></trkpt><trkpt lat="43.41396515554554" lon="10.786275614488193"><ele>186.0</ele><time>2026-04-19T11:28:26Z</time></trkpt><trkpt lat="43.41408168038532" lon="10.786256275142279"><ele>186.0</ele><time>2026-04-19T11:28:27Z</time></trkpt><trkpt lat="43.41420422985519" lon="10.786238036289452"><ele>184.75</ele><time>2026-04-19T11:28:28Z</time></trkpt><trkpt lat="43.414332831508794" lon="10.786220709642246"><ele>183.5</ele><time>2026-04-19T11:28:29Z</time></trkpt><trkpt lat="43.41446605760368" lon="10.786211574352228"><ele>182.25</ele><time>2026-04-19T11:28:30Z</time></trkpt><trkpt lat="43.41459777956755" lon="10.78622026976428"><ele>181.0</ele><time>2026-04-19T11:28:31Z</time></trkpt><trkpt lat="43.414732918109685" lon="10.786238532149175"><ele>180.75</ele><time>2026-04-19T11:28:32Z</time></trkpt><trkpt lat="43.414866243911575" lon="10.78626974535105"><ele>180.5</ele><time>2026-04-19T11:28:33Z</time></trkpt><trkpt lat="43.41500384212127" lon="10.786299816815252"><ele>180.25</ele><time>2026-04-19T11:28:34Z</time></trkpt><trkpt lat="43.4151427107179" lon="10.786331826296777"><ele>180.0</ele><time>2026-04-19T11:28:35Z</time></trkpt><trkpt lat="43.41528050445181" lon="10.786361346158131"><ele>180.0</ele><time>2026-04-19T11:28:36Z</time></trkpt><trkpt lat="43.41541601038912" lon="10.786391407992186"><ele>180.0</ele><time>2026-04-19T11:28:37Z</time></trkpt><trkpt lat="43.41555523872262" lon="10.786423398273813"><ele>180.0</ele><time>2026-04-19T11:28:38Z</time></trkpt><trkpt lat="43.41569577531395" lon="10.78645650766446"><ele>180.0</ele><time>2026-04-19T11:28:39Z</time></trkpt><trkpt lat="43.41583289711141" lon="10.786482325874656"><ele>181.25</ele><time>2026-04-19T11:28:40Z</time></trkpt><trkpt lat="43.4159626461312" lon="10.786515473814616"><ele>182.5</ele><time>2026-04-19T11:28:41Z</time></trkpt><trkpt lat="43.416090703234204" lon="10.786551225423542"><ele>183.75</ele><time>2026-04-19T11:28:42Z</time></trkpt><trkpt lat="43.41621628887151" lon="10.786588489498229"><ele>185.0</ele><time>2026-04-19T11:28:43Z</time></trkpt><trkpt lat="43.41633878533898" lon="10.78664420259153"><ele>184.0</ele><time>2026-04-19T11:28:44Z</time></trkpt><trkpt lat="43.41645400540798" lon="10.78671228064967"><ele>183.0</ele><time>2026-04-19T11:28:45Z</time></trkpt><trkpt lat="43.41669068401981" lon="10.786882972825943"><ele>182.0</ele><time>2026-04-19T11:28:47Z</time></trkpt><trkpt lat="43.41680747838658" lon="10.786976284328558"><ele>182.0</ele><time>2026-04-19T11:28:48Z</time></trkpt><trkpt lat="43.41692116701189" lon="10.787067581733359"><ele>182.0</ele><time>2026-04-19T11:28:49Z</time></trkpt><trkpt lat="43.41703140067707" lon="10.787155327767902"><ele>182.0</ele><time>2026-04-19T11:28:50Z</time></trkpt><trkpt lat="43.41713693196362" lon="10.787235559681536"><ele>182.0</ele><time>2026-04-19T11:28:51Z</time></trkpt><trkpt lat="43.41723666764598" lon="10.787311783673903"><ele>184.0</ele><time>2026-04-19T11:28:52Z</time></trkpt><trkpt lat="43.41733423641814" lon="10.787378291303252"><ele>186.0</ele><time>2026-04-19T11:28:53Z</time></trkpt><trkpt lat="43.417428272026385" lon="10.787438549237002"><ele>188.0</ele><time>2026-04-19T11:28:54Z</time></trkpt><trkpt lat="43.41752762524836" lon="10.787489902039567"><ele>190.0</ele><time>2026-04-19T11:28:55Z</time></trkpt><trkpt lat="43.417628270285334" lon="10.78753403367749"><ele>192.0</ele><time>2026-04-19T11:28:56Z</time></trkpt><trkpt lat="43.41772903071795" lon="10.78757995949281"><ele>192.0</ele><time>2026-04-19T11:28:57Z</time></trkpt><trkpt lat="43.417830169883814" lon="10.787623952125163"><ele>192.0</ele><time>2026-04-19T11:28:58Z</time></trkpt><trkpt lat="43.41792452970105" lon="10.787674872586546"><ele>192.0</ele><time>2026-04-19T11:28:59Z</time></trkpt><trkpt lat="43.41801001619917" lon="10.787737079872317"><ele>192.0</ele><time>2026-04-19T11:29:00Z</time></trkpt><trkpt lat="43.418085468574745" lon="10.787816112520403"><ele>192.0</ele><time>2026-04-19T11:29:01Z</time></trkpt><trkpt lat="43.41814916132696" lon="10.787913216816772"><ele>192.33333333333334</ele><time>2026-04-19T11:29:02Z</time></trkpt><trkpt lat="43.418199984582" lon="10.788020390935356"><ele>192.66666666666669</ele><time>2026-04-19T11:29:03Z</time></trkpt><trkpt lat="43.41824824974021" lon="10.78812187707515"><ele>193.0</ele><time>2026-04-19T11:29:04Z</time></trkpt><trkpt lat="43.41829912958006" lon="10.788219631445685"><ele>193.33333333333334</ele><time>2026-04-19T11:29:05.001Z</time></trkpt><trkpt lat="43.4183589426541" lon="10.788313579410673"><ele>193.66666666666669</ele><time>2026-04-19T11:29:06.001Z</time></trkpt><trkpt lat="43.41842218694702" lon="10.788395519650376"><ele>194.0</ele><time>2026-04-19T11:29:07.001Z</time></trkpt><trkpt lat="43.418499627715434" lon="10.788474825756776"><ele>193.2</ele><time>2026-04-19T11:29:08.001Z</time></trkpt><trkpt lat="43.418589715251976" lon="10.788535811892705"><ele>192.39999999999998</ele><time>2026-04-19T11:29:09.001Z</time></trkpt><trkpt lat="43.41868754681365" lon="10.788582701191297"><ele>191.6</ele><time>2026-04-19T11:29:10.001Z</time></trkpt><trkpt lat="43.4187946952156" lon="10.788615136947337"><ele>190.8</ele><time>2026-04-19T11:29:11.001Z</time></trkpt><trkpt lat="43.41890816760671" lon="10.788643259916611"><ele>190.0</ele><time>2026-04-19T11:29:12.001Z</time></trkpt><trkpt lat="43.41901907994494" lon="10.788671889818746"><ele>190.0</ele><time>2026-04-19T11:29:13.001Z</time></trkpt><trkpt lat="43.41912720047305" lon="10.788706007144663"><ele>190.0</ele><time>2026-04-19T11:29:14.001Z</time></trkpt><trkpt lat="43.4192345293014" lon="10.788757550349395"><ele>190.0</ele><time>2026-04-19T11:29:15.001Z</time></trkpt><trkpt lat="43.41934120140564" lon="10.78882194648679"><ele>190.0</ele><time>2026-04-19T11:29:16.001Z</time></trkpt><trkpt lat="43.419444291313596" lon="10.788902584808561"><ele>190.0</ele><time>2026-04-19T11:29:17.001Z</time></trkpt><trkpt lat="43.41954231773173" lon="10.788990026552101"><ele>190.0</ele><time>2026-04-19T11:29:18.001Z</time></trkpt><trkpt lat="43.41964042136791" lon="10.789082694445868"><ele>190.0</ele><time>2026-04-19T11:29:19.001Z</time></trkpt><trkpt lat="43.41974798613901" lon="10.789173434131632"><ele>190.0</ele><time>2026-04-19T11:29:20.001Z</time></trkpt><trkpt lat="43.41985437976062" lon="10.789271702235427"><ele>191.0</ele><time>2026-04-19T11:29:21.001Z</time></trkpt><trkpt lat="43.419951168845074" lon="10.789354890551117"><ele>192.0</ele><time>2026-04-19T11:29:22.001Z</time></trkpt><trkpt lat="43.420049829662325" lon="10.7894401002544"><ele>193.0</ele><time>2026-04-19T11:29:23.001Z</time></trkpt><trkpt lat="43.42015185695795" lon="10.789520971814927"><ele>194.0</ele><time>2026-04-19T11:29:24.001Z</time></trkpt><trkpt lat="43.42024880876118" lon="10.789603366854873"><ele>194.0</ele><time>2026-04-19T11:29:25.001Z</time></trkpt><trkpt lat="43.42034045734207" lon="10.789689376757226"><ele>194.0</ele><time>2026-04-19T11:29:26.001Z</time></trkpt><trkpt lat="43.420433676332344" lon="10.789776518769683"><ele>194.0</ele><time>2026-04-19T11:29:27.001Z</time></trkpt><trkpt lat="43.420527052229644" lon="10.789856038581943"><ele>194.0</ele><time>2026-04-19T11:29:28.001Z</time></trkpt><trkpt lat="43.42062624488475" lon="10.789934429280137"><ele>194.0</ele><time>2026-04-19T11:29:29.001Z</time></trkpt><trkpt lat="43.420723980731154" lon="10.790007439877805"><ele>195.25</ele><time>2026-04-19T11:29:30.001Z</time></trkpt><trkpt lat="43.42082584411604" lon="10.790082346208271"><ele>196.5</ele><time>2026-04-19T11:29:31.001Z</time></trkpt><trkpt lat="43.42093114539176" lon="10.790158162410192"><ele>197.75</ele><time>2026-04-19T11:29:32.001Z</time></trkpt><trkpt lat="43.42104805783515" lon="10.790238861451881"><ele>199.0</ele><time>2026-04-19T11:29:33.001Z</time></trkpt><trkpt lat="43.42117270219493" lon="10.790321030825625"><ele>200.0</ele><time>2026-04-19T11:29:34.001Z</time></trkpt><trkpt lat="43.42130094921838" lon="10.790416646714853"><ele>201.0</ele><time>2026-04-19T11:29:35.001Z</time></trkpt><trkpt lat="43.421422916932954" lon="10.790505393195435"><ele>202.0</ele><time>2026-04-19T11:29:36.001Z</time></trkpt><trkpt lat="43.42154143013048" lon="10.790594960354092"><ele>203.0</ele><time>2026-04-19T11:29:37.001Z</time></trkpt><trkpt lat="43.42165727369403" lon="10.790682594855438"><ele>203.0</ele><time>2026-04-19T11:29:38.001Z</time></trkpt><trkpt lat="43.42176740299795" lon="10.790767862072677"><ele>203.0</ele><time>2026-04-19T11:29:39.001Z</time></trkpt><trkpt lat="43.42187692811857" lon="10.790843034225972"><ele>203.0</ele><time>2026-04-19T11:29:40.001Z</time></trkpt><trkpt lat="43.421989326727676" lon="10.790912740700794"><ele>203.0</ele><time>2026-04-19T11:29:41.001Z</time></trkpt><trkpt lat="43.42209662719397" lon="10.79096361729573"><ele>201.83333333333334</ele><time>2026-04-19T11:29:42.001Z</time></trkpt><trkpt lat="43.4221769504481" lon="10.791007038702299"><ele>200.66666666666669</ele><time>2026-04-19T11:29:43.001Z</time></trkpt><trkpt lat="43.42226447861429" lon="10.79106721057107"><ele>199.5</ele><time>2026-04-19T11:29:45.001Z</time></trkpt><trkpt lat="43.42234112576351" lon="10.791119449878376"><ele>198.33333333333331</ele><time>2026-04-19T11:29:47.001Z</time></trkpt><trkpt lat="43.42241338659312" lon="10.791191530529233"><ele>197.16666666666666</ele><time>2026-04-19T11:29:49.001Z</time></trkpt><trkpt lat="43.42247628258212" lon="10.79126798955281"><ele>196.0</ele><time>2026-04-19T11:29:51.001Z</time></trkpt><trkpt lat="43.422574766332175" lon="10.79135896769449"><ele>195.85714285714286</ele><time>2026-04-19T11:29:53.001Z</time></trkpt><trkpt lat="43.42264016666469" lon="10.791406955789073"><ele>195.71428571428572</ele><time>2026-04-19T11:29:54.001Z</time></trkpt><trkpt lat="43.422707118616394" lon="10.79145293672411"><ele>195.57142857142856</ele><time>2026-04-19T11:29:55.001Z</time></trkpt><trkpt lat="43.422773725122134" lon="10.791491735487135"><ele>195.42857142857144</ele><time>2026-04-19T11:29:56.001Z</time></trkpt><trkpt lat="43.42284157690004" lon="10.79153008518857"><ele>195.28571428571428</ele><time>2026-04-19T11:29:57.001Z</time></trkpt><trkpt lat="43.422906008512875" lon="10.791564328646015"><ele>195.14285714285714</ele><time>2026-04-19T11:29:58.001Z</time></trkpt><trkpt lat="43.42296664969856" lon="10.791598359570816"><ele>195.0</ele><time>2026-04-19T11:29:59.001Z</time></trkpt><trkpt lat="43.423075731916555" lon="10.791651057137326"><ele>195.0</ele><time>2026-04-19T11:30:01.001Z</time></trkpt><trkpt lat="43.42314255517121" lon="10.791663355219422"><ele>195.0</ele><time>2026-04-19T11:30:02.002Z</time></trkpt><trkpt lat="43.42320887741673" lon="10.791675971135943"><ele>195.0</ele><time>2026-04-19T11:30:03.002Z</time></trkpt><trkpt lat="43.423275440098756" lon="10.791693789305251"><ele>195.0</ele><time>2026-04-19T11:30:04.002Z</time></trkpt><trkpt lat="43.42334044030738" lon="10.791722901581606"><ele>195.0</ele><time>2026-04-19T11:30:05.002Z</time></trkpt><trkpt lat="43.42339870752073" lon="10.791762378682845"><ele>195.0</ele><time>2026-04-19T11:30:06.002Z</time></trkpt><trkpt lat="43.423477268510766" lon="10.791838682870136"><ele>195.0</ele><time>2026-04-19T11:30:08.002Z</time></trkpt><trkpt lat="43.42356520600627" lon="10.791943243405052"><ele>195.0</ele><time>2026-04-19T11:30:10.002Z</time></trkpt><trkpt lat="43.423646389187624" lon="10.792048740434257"><ele>195.0</ele><time>2026-04-19T11:30:12.002Z</time></trkpt><trkpt lat="43.42374933417514" lon="10.792138995662105"><ele>195.0</ele><time>2026-04-19T11:30:14.002Z</time></trkpt><trkpt lat="43.42380720003981" lon="10.79218401771136"><ele>195.0</ele><time>2026-04-19T11:30:15.002Z</time></trkpt><trkpt lat="43.42387001971725" lon="10.792224872442253"><ele>195.0</ele><time>2026-04-19T11:30:16.002Z</time></trkpt><trkpt lat="43.423936546971085" lon="10.792261593833855"><ele>195.0</ele><time>2026-04-19T11:30:17.002Z</time></trkpt><trkpt lat="43.424005416070145" lon="10.792291552228491"><ele>195.0</ele><time>2026-04-19T11:30:18.002Z</time></trkpt><trkpt lat="43.42406726671593" lon="10.792321625738227"><ele>195.0</ele><time>2026-04-19T11:30:19.002Z</time></trkpt><trkpt lat="43.424131701197126" lon="10.79234252070853"><ele>195.0</ele><time>2026-04-19T11:30:20Z</time></trkpt><trkpt lat="43.42424891497494" lon="10.79238630174236"><ele>195.0</ele><time>2026-04-19T11:30:22Z</time></trkpt><trkpt lat="43.4243538801958" lon="10.792487933331172"><ele>195.0</ele><time>2026-04-19T11:30:24Z</time></trkpt><trkpt lat="43.4244026812529" lon="10.792561338213625"><ele>195.0</ele><time>2026-04-19T11:30:25Z</time></trkpt><trkpt lat="43.42444743339438" lon="10.792643032790119"><ele>195.0</ele><time>2026-04-19T11:30:26Z</time></trkpt><trkpt lat="43.42450121012848" lon="10.792711650081408"><ele>195.0</ele><time>2026-04-19T11:30:27Z</time></trkpt><trkpt lat="43.42455356734849" lon="10.79277822833172"><ele>195.0</ele><time>2026-04-19T11:30:28Z</time></trkpt><trkpt lat="43.424604719934486" lon="10.792844063443662"><ele>195.0</ele><time>2026-04-19T11:30:29Z</time></trkpt><trkpt lat="43.4246599717638" lon="10.792906920601189"><ele>195.0</ele><time>2026-04-19T11:30:30Z</time></trkpt><trkpt lat="43.42471789042264" lon="10.792964223408333"><ele>195.0</ele><time>2026-04-19T11:30:31Z</time></trkpt><trkpt lat="43.424773155822336" lon="10.793026259706005"><ele>195.16666666666666</ele><time>2026-04-19T11:30:32Z</time></trkpt><trkpt lat="43.42482899159112" lon="10.793087941360128"><ele>195.33333333333331</ele><time>2026-04-19T11:30:33Z</time></trkpt><trkpt lat="43.424883164493934" lon="10.793146147979062"><ele>195.5</ele><time>2026-04-19T11:30:34Z</time></trkpt><trkpt lat="43.42493397008269" lon="10.793200141543725"><ele>195.66666666666666</ele><time>2026-04-19T11:30:35Z</time></trkpt><trkpt lat="43.424985659327675" lon="10.79325281228001"><ele>195.83333333333331</ele><time>2026-04-19T11:30:36Z</time></trkpt><trkpt lat="43.42507738299111" lon="10.793363417960471"><ele>196.0</ele><time>2026-04-19T11:30:38Z</time></trkpt><trkpt lat="43.42518279644252" lon="10.793460464266847"><ele>196.0</ele><time>2026-04-19T11:30:40Z</time></trkpt><trkpt lat="43.425300676451535" lon="10.793498243726516"><ele>196.0</ele><time>2026-04-19T11:30:42Z</time></trkpt><trkpt lat="43.425407700536404" lon="10.793454285972421"><ele>196.0</ele><time>2026-04-19T11:30:44Z</time></trkpt><trkpt lat="43.425484541875704" lon="10.793353178173437"><ele>196.0</ele><time>2026-04-19T11:30:46Z</time></trkpt><trkpt lat="43.425520240511524" lon="10.793270958231888"><ele>196.0</ele><time>2026-04-19T11:30:47Z</time></trkpt><trkpt lat="43.42554913729922" lon="10.793184663252124"><ele>195.49999999999997</ele><time>2026-04-19T11:30:48Z</time></trkpt><trkpt lat="43.42558678987343" lon="10.793094187540868"><ele>195.0</ele><time>2026-04-19T11:30:49Z</time></trkpt><trkpt lat="43.42561992744858" lon="10.792996439631747"><ele>194.5</ele><time>2026-04-19T11:30:50Z</time></trkpt><trkpt lat="43.42565462489727" lon="10.792892703120792"><ele>194.0</ele><time>2026-04-19T11:30:51Z</time></trkpt><trkpt lat="43.42569210127295" lon="10.792783134348463"><ele>193.49999999999997</ele><time>2026-04-19T11:30:52Z</time></trkpt><trkpt lat="43.425729823659594" lon="10.792668961471284"><ele>193.0</ele><time>2026-04-19T11:30:53Z</time></trkpt><trkpt lat="43.425791057135385" lon="10.79256665751523"><ele>193.0</ele><time>2026-04-19T11:30:54Z</time></trkpt><trkpt lat="43.42583384047947" lon="10.792454325787974"><ele>193.0</ele><time>2026-04-19T11:30:55Z</time></trkpt><trkpt lat="43.42587914141928" lon="10.792332693620095"><ele>193.0</ele><time>2026-04-19T11:30:56Z</time></trkpt><trkpt lat="43.42591364025146" lon="10.792197877173114"><ele>193.0</ele><time>2026-04-19T11:30:57Z</time></trkpt><trkpt lat="43.425967237479846" lon="10.792078497827402"><ele>193.0</ele><time>2026-04-19T11:30:58Z</time></trkpt><trkpt lat="43.4260148606019" lon="10.791978161546288"><ele>192.99999999999997</ele><time>2026-04-19T11:30:59Z</time></trkpt><trkpt lat="43.42605655464289" lon="10.79188509516693"><ele>193.0</ele><time>2026-04-19T11:31:00Z</time></trkpt><trkpt lat="43.42609912999912" lon="10.791793074290831"><ele>193.0</ele><time>2026-04-19T11:31:01Z</time></trkpt><trkpt lat="43.4261432731827" lon="10.7917022392215"><ele>193.0</ele><time>2026-04-19T11:31:02Z</time></trkpt><trkpt lat="43.42619069727862" lon="10.791603412655517"><ele>192.99999999999997</ele><time>2026-04-19T11:31:03Z</time></trkpt><trkpt lat="43.426226490397525" lon="10.791493259184875"><ele>193.0</ele><time>2026-04-19T11:31:04Z</time></trkpt><trkpt lat="43.42625295669316" lon="10.791376399786712"><ele>192.66666666666666</ele><time>2026-04-19T11:31:05Z</time></trkpt><trkpt lat="43.42629208055521" lon="10.791272489717812"><ele>192.33333333333331</ele><time>2026-04-19T11:31:06Z</time></trkpt><trkpt lat="43.42631853089947" lon="10.791166171382471"><ele>192.0</ele><time>2026-04-19T11:31:07Z</time></trkpt><trkpt lat="43.42634137708527" lon="10.791075697215307"><ele>191.66666666666666</ele><time>2026-04-19T11:31:08Z</time></trkpt><trkpt lat="43.42636398794425" lon="10.790987078138953"><ele>191.33333333333331</ele><time>2026-04-19T11:31:09Z</time></trkpt><trkpt lat="43.42637497489001" lon="10.790888456610396"><ele>191.0</ele><time>2026-04-19T11:31:10Z</time></trkpt><trkpt lat="43.42641135352896" lon="10.790800939287026"><ele>190.5</ele><time>2026-04-19T11:31:11Z</time></trkpt><trkpt lat="43.42643252101058" lon="10.790711688103665"><ele>190.0</ele><time>2026-04-19T11:31:12Z</time></trkpt><trkpt lat="43.4264522263276" lon="10.790628602070699"><ele>189.5</ele><time>2026-04-19T11:31:13Z</time></trkpt><trkpt lat="43.426479682413074" lon="10.790512835795939"><ele>189.0</ele><time>2026-04-19T11:31:15Z</time></trkpt><trkpt lat="43.4265132058092" lon="10.790407107909669"><ele>188.5</ele><time>2026-04-19T11:31:17Z</time></trkpt><trkpt lat="43.42655138481786" lon="10.790262004485836"><ele>188.0</ele><time>2026-04-19T11:31:19.001Z</time></trkpt><trkpt lat="43.42656693844969" lon="10.790172795527198"><ele>188.0</ele><time>2026-04-19T11:31:20.001Z</time></trkpt><trkpt lat="43.426575197635344" lon="10.79008005557263"><ele>188.0</ele><time>2026-04-19T11:31:21.001Z</time></trkpt><trkpt lat="43.42657462989478" lon="10.789955581941916"><ele>188.0</ele><time>2026-04-19T11:31:23.001Z</time></trkpt><trkpt lat="43.4265783163305" lon="10.78985089661577"><ele>188.0</ele><time>2026-04-19T11:31:26.001Z</time></trkpt><trkpt lat="43.4265876292523" lon="10.789762959401711"><ele>188.0</ele><time>2026-04-19T11:31:28.001Z</time></trkpt><trkpt lat="43.426620132264816" lon="10.789661385884363"><ele>188.0</ele><time>2026-04-19T11:31:30.001Z</time></trkpt><trkpt lat="43.42667076025772" lon="10.789546413490449"><ele>188.0</ele><time>2026-04-19T11:31:32.001Z</time></trkpt><trkpt lat="43.42672463072457" lon="10.7894059956673"><ele>188.0</ele><time>2026-04-19T11:31:34.001Z</time></trkpt><trkpt lat="43.42677619111878" lon="10.789271599424858"><ele>188.0</ele><time>2026-04-19T11:31:36.001Z</time></trkpt><trkpt lat="43.42682777818156" lon="10.789167864282577"><ele>188.0</ele><time>2026-04-19T11:31:38.001Z</time></trkpt><trkpt lat="43.4268702931655" lon="10.78908985959981"><ele>188.0</ele><time>2026-04-19T11:31:40.001Z</time></trkpt><trkpt lat="43.42689273674684" lon="10.788930274834511"><ele>188.60000000000002</ele><time>2026-04-19T11:31:42.001Z</time></trkpt><trkpt lat="43.426904921556314" lon="10.788768733357125"><ele>189.20000000000002</ele><time>2026-04-19T11:31:44.001Z</time></trkpt><trkpt lat="43.42691836671389" lon="10.78863707913052"><ele>189.8</ele><time>2026-04-19T11:31:46.001Z</time></trkpt><trkpt lat="43.42692907613844" lon="10.78853884962784"><ele>190.4</ele><time>2026-04-19T11:31:48.001Z</time></trkpt><trkpt lat="43.426932273894515" lon="10.78841063136816"><ele>191.0</ele><time>2026-04-19T11:31:51.001Z</time></trkpt><trkpt lat="43.42695441739022" lon="10.788310304584446"><ele>191.20000000000002</ele><time>2026-04-19T11:31:53.001Z</time></trkpt><trkpt lat="43.42701212921707" lon="10.788190886554005"><ele>191.4</ele><time>2026-04-19T11:31:55.001Z</time></trkpt><trkpt lat="43.4270764531072" lon="10.78805620979687"><ele>191.6</ele><time>2026-04-19T11:31:57.001Z</time></trkpt><trkpt lat="43.42711894167418" lon="10.7879766673123"><ele>191.8</ele><time>2026-04-19T11:31:58.001Z</time></trkpt><trkpt lat="43.42715645875996" lon="10.787875102889492"><ele>192.0</ele><time>2026-04-19T11:31:59.001Z</time></trkpt><trkpt lat="43.42721584618819" lon="10.787805527714546"><ele>192.0</ele><time>2026-04-19T11:32:00.001Z</time></trkpt><trkpt lat="43.4272685366166" lon="10.787721101221269"><ele>192.0</ele><time>2026-04-19T11:32:01.001Z</time></trkpt><trkpt lat="43.427311590109085" lon="10.787654580283862"><ele>192.0</ele><time>2026-04-19T11:32:02.001Z</time></trkpt><trkpt lat="43.42736728561654" lon="10.787538170326311"><ele>192.0</ele><time>2026-04-19T11:32:04.001Z</time></trkpt><trkpt lat="43.42745661330215" lon="10.78740573360112"><ele>192.0</ele><time>2026-04-19T11:32:06.001Z</time></trkpt><trkpt lat="43.427507588439745" lon="10.787337745458466"><ele>192.0</ele><time>2026-04-19T11:32:07.001Z</time></trkpt><trkpt lat="43.427556081452316" lon="10.787278091219015"><ele>194.0</ele><time>2026-04-19T11:32:08.001Z</time></trkpt><trkpt lat="43.427643582361895" lon="10.78719528717787"><ele>196.0</ele><time>2026-04-19T11:32:10.001Z</time></trkpt><trkpt lat="43.42770386541358" lon="10.787135881562405"><ele>198.0</ele><time>2026-04-19T11:32:12.001Z</time></trkpt><trkpt lat="43.42775666970185" lon="10.787071980051548"><ele>200.0</ele><time>2026-04-19T11:32:14.002Z</time></trkpt><trkpt lat="43.42784874514234" lon="10.787116686317061"><ele>202.0</ele><time>2026-04-19T11:32:15.002Z</time></trkpt><trkpt lat="43.42795980629429" lon="10.787073318248849"><ele>203.16666666666666</ele><time>2026-04-19T11:32:17.002Z</time></trkpt><trkpt lat="43.4280818060113" lon="10.787014594731753"><ele>204.33333333333331</ele><time>2026-04-19T11:32:19.002Z</time></trkpt><trkpt lat="43.428144654284544" lon="10.786982546007346"><ele>205.5</ele><time>2026-04-19T11:32:20.002Z</time></trkpt><trkpt lat="43.42821108339779" lon="10.786956551022769"><ele>206.66666666666669</ele><time>2026-04-19T11:32:21.002Z</time></trkpt><trkpt lat="43.42827466760399" lon="10.786931121210479"><ele>207.83333333333334</ele><time>2026-04-19T11:32:22.002Z</time></trkpt><trkpt lat="43.428338888777134" lon="10.786907338914585"><ele>209.0</ele><time>2026-04-19T11:32:23.002Z</time></trkpt><trkpt lat="43.428405292649366" lon="10.786872456708613"><ele>209.0</ele><time>2026-04-19T11:32:24.002Z</time></trkpt><trkpt lat="43.42847228339808" lon="10.786842622977233"><ele>209.0</ele><time>2026-04-19T11:32:25.002Z</time></trkpt><trkpt lat="43.42859760912352" lon="10.786820411140894"><ele>209.0</ele><time>2026-04-19T11:32:27Z</time></trkpt><trkpt lat="43.42871331749587" lon="10.786872581500063"><ele>209.0</ele><time>2026-04-19T11:32:29Z</time></trkpt><trkpt lat="43.428809045400634" lon="10.786972355832207"><ele>209.0</ele><time>2026-04-19T11:32:31Z</time></trkpt><trkpt lat="43.42886082500797" lon="10.787027804722882"><ele>209.42857142857142</ele><time>2026-04-19T11:32:32Z</time></trkpt><trkpt lat="43.428913449839726" lon="10.787084003781258"><ele>209.85714285714283</ele><time>2026-04-19T11:32:33Z</time></trkpt><trkpt lat="43.42896808604768" lon="10.787141809470452"><ele>210.28571428571428</ele><time>2026-04-19T11:32:34Z</time></trkpt><trkpt lat="43.42903027080188" lon="10.787194804372891"><ele>210.71428571428572</ele><time>2026-04-19T11:32:35Z</time></trkpt><trkpt lat="43.42909059728555" lon="10.787249262488272"><ele>211.14285714285714</ele><time>2026-04-19T11:32:36Z</time></trkpt><trkpt lat="43.42915204077209" lon="10.787294109404876"><ele>211.57142857142858</ele><time>2026-04-19T11:32:37Z</time></trkpt><trkpt lat="43.429217599930105" lon="10.787325411023154"><ele>212.0</ele><time>2026-04-19T11:32:38Z</time></trkpt><trkpt lat="43.42928472913029" lon="10.787348889530612"><ele>212.0</ele><time>2026-04-19T11:32:39Z</time></trkpt><trkpt lat="43.42935089897609" lon="10.78736152597996"><ele>212.0</ele><time>2026-04-19T11:32:40Z</time></trkpt><trkpt lat="43.42941886991583" lon="10.787373619273843"><ele>212.0</ele><time>2026-04-19T11:32:41Z</time></trkpt><trkpt lat="43.42948937156821" lon="10.78738370621405"><ele>212.0</ele><time>2026-04-19T11:32:42Z</time></trkpt><trkpt lat="43.42956099479407" lon="10.787400469121557"><ele>212.0</ele><time>2026-04-19T11:32:43Z</time></trkpt><trkpt lat="43.429640600722905" lon="10.787411485205972"><ele>212.0</ele><time>2026-04-19T11:32:44Z</time></trkpt><trkpt lat="43.4297218833243" lon="10.787424114618261"><ele>212.0</ele><time>2026-04-19T11:32:45Z</time></trkpt><trkpt lat="43.429799467623184" lon="10.787432124256705"><ele>211.00000000000003</ele><time>2026-04-19T11:32:46Z</time></trkpt><trkpt lat="43.42987518585286" lon="10.787437135601124"><ele>210.0</ele><time>2026-04-19T11:32:47Z</time></trkpt><trkpt lat="43.42994632454283" lon="10.787439226113744"><ele>209.0</ele><time>2026-04-19T11:32:48Z</time></trkpt><trkpt lat="43.4300767219052" lon="10.78748130973083"><ele>208.0</ele><time>2026-04-19T11:32:50Z</time></trkpt><trkpt lat="43.43014081610518" lon="10.787516754596487"><ele>207.00000000000003</ele><time>2026-04-19T11:32:51Z</time></trkpt><trkpt lat="43.43020320773799" lon="10.787567427149469"><ele>206.0</ele><time>2026-04-19T11:32:52Z</time></trkpt><trkpt lat="43.43026748293415" lon="10.787625379916996"><ele>206.83333333333334</ele><time>2026-04-19T11:32:53Z</time></trkpt><trkpt lat="43.430334583430714" lon="10.787686771516913"><ele>207.66666666666669</ele><time>2026-04-19T11:32:54Z</time></trkpt><trkpt lat="43.43040214667011" lon="10.787738625943371"><ele>208.5</ele><time>2026-04-19T11:32:55Z</time></trkpt><trkpt lat="43.43047020132454" lon="10.787801593204508"><ele>209.33333333333331</ele><time>2026-04-19T11:32:56Z</time></trkpt><trkpt lat="43.430543742525984" lon="10.787854537562072"><ele>210.16666666666666</ele><time>2026-04-19T11:32:57Z</time></trkpt><trkpt lat="43.43062052555277" lon="10.787891884659302"><ele>211.0</ele><time>2026-04-19T11:32:58Z</time></trkpt><trkpt lat="43.430699880785355" lon="10.78791216789"><ele>208.66666666666666</ele><time>2026-04-19T11:32:59Z</time></trkpt><trkpt lat="43.430782585909704" lon="10.787911891595975"><ele>206.33333333333331</ele><time>2026-04-19T11:33:00Z</time></trkpt><trkpt lat="43.43085870951838" lon="10.78789456558734"><ele>204.0</ele><time>2026-04-19T11:33:01Z</time></trkpt><trkpt lat="43.43092284982386" lon="10.787875606280645"><ele>201.66666666666669</ele><time>2026-04-19T11:33:02Z</time></trkpt><trkpt lat="43.431011366417906" lon="10.78784888700639"><ele>199.33333333333334</ele><time>2026-04-19T11:33:04Z</time></trkpt><trkpt lat="43.43110912881983" lon="10.787822282153874"><ele>197.0</ele><time>2026-04-19T11:33:06Z</time></trkpt><trkpt lat="43.43118979502395" lon="10.787799064337053"><ele>197.00000000000003</ele><time>2026-04-19T11:33:09Z</time></trkpt><trkpt lat="43.431270966239275" lon="10.78777543682611"><ele>197.0</ele><time>2026-04-19T11:33:21.001Z</time></trkpt><trkpt lat="43.431343045289736" lon="10.787754455884327"><ele>197.0</ele><time>2026-04-19T11:33:23.001Z</time></trkpt><trkpt lat="43.4314361191345" lon="10.787727363750664"><ele>197.0</ele><time>2026-04-19T11:33:25.001Z</time></trkpt><trkpt lat="43.43151941637091" lon="10.78769200673722"><ele>197.00000000000003</ele><time>2026-04-19T11:33:27.001Z</time></trkpt><trkpt lat="43.43162008616143" lon="10.787660149573348"><ele>197.0</ele><time>2026-04-19T11:33:29.001Z</time></trkpt><trkpt lat="43.4317258187706" lon="10.787642103139408"><ele>197.2</ele><time>2026-04-19T11:33:31.001Z</time></trkpt><trkpt lat="43.431838433991715" lon="10.787611254762458"><ele>197.39999999999998</ele><time>2026-04-19T11:33:33.001Z</time></trkpt><trkpt lat="43.431889894405366" lon="10.787556417977445"><ele>197.60000000000002</ele><time>2026-04-19T11:33:34.001Z</time></trkpt><trkpt lat="43.43199307762963" lon="10.787482022294753"><ele>197.8</ele><time>2026-04-19T11:33:36.001Z</time></trkpt><trkpt lat="43.43208872410435" lon="10.787385654887268"><ele>198.0</ele><time>2026-04-19T11:33:38.001Z</time></trkpt><trkpt lat="43.43216664920611" lon="10.787316375413653"><ele>197.0</ele><time>2026-04-19T11:33:40.001Z</time></trkpt><trkpt lat="43.43222759299852" lon="10.787278903681441"><ele>196.0</ele><time>2026-04-19T11:33:42.001Z</time></trkpt><trkpt lat="43.43227983977593" lon="10.787211510663886"><ele>195.0</ele><time>2026-04-19T11:33:59.001Z</time></trkpt><trkpt lat="43.4323530378276" lon="10.78709698874102"><ele>194.0</ele><time>2026-04-19T11:34:01.001Z</time></trkpt><trkpt lat="43.432389625464026" lon="10.787025949863276"><ele>193.0</ele><time>2026-04-19T11:34:02.001Z</time></trkpt><trkpt lat="43.4324265035" lon="10.786951878129544"><ele>192.0</ele><time>2026-04-19T11:34:03.001Z</time></trkpt><trkpt lat="43.43246204526222" lon="10.786878307207832"><ele>191.0</ele><time>2026-04-19T11:34:04.002Z</time></trkpt><trkpt lat="43.43250362718842" lon="10.786787291940119"><ele>191.0</ele><time>2026-04-19T11:34:05.002Z</time></trkpt><trkpt lat="43.432545704918006" lon="10.786695191574188"><ele>191.0</ele><time>2026-04-19T11:34:06.002Z</time></trkpt><trkpt lat="43.4325859732133" lon="10.786612768009087"><ele>191.0</ele><time>2026-04-19T11:34:07.002Z</time></trkpt><trkpt lat="43.43262994888895" lon="10.786525833558443"><ele>191.0</ele><time>2026-04-19T11:34:08.002Z</time></trkpt><trkpt lat="43.432674381171765" lon="10.786455806477074"><ele>191.0</ele><time>2026-04-19T11:34:09.002Z</time></trkpt><trkpt lat="43.43273333464585" lon="10.786378801642398"><ele>191.0</ele><time>2026-04-19T11:34:10.002Z</time></trkpt><trkpt lat="43.43279603173295" lon="10.786302246855213"><ele>191.0</ele><time>2026-04-19T11:34:11.002Z</time></trkpt><trkpt lat="43.43286115092037" lon="10.786221993624086"><ele>191.0</ele><time>2026-04-19T11:34:12.002Z</time></trkpt><trkpt lat="43.432925437879426" lon="10.786141753584793"><ele>191.0</ele><time>2026-04-19T11:34:13.002Z</time></trkpt><trkpt lat="43.432986334348875" lon="10.786065492145372"><ele>191.0</ele><time>2026-04-19T11:34:14.002Z</time></trkpt><trkpt lat="43.433054288423286" lon="10.785979661989012"><ele>191.0</ele><time>2026-04-19T11:34:15.002Z</time></trkpt><trkpt lat="43.43312846128554" lon="10.785885977116225"><ele>191.0</ele><time>2026-04-19T11:34:16.002Z</time></trkpt><trkpt lat="43.43320086977184" lon="10.785791347238314"><ele>189.8</ele><time>2026-04-19T11:34:17.002Z</time></trkpt><trkpt lat="43.43327062179256" lon="10.785699931423135"><ele>188.60000000000002</ele><time>2026-04-19T11:34:18.002Z</time></trkpt><trkpt lat="43.43334682730029" lon="10.785606393509836"><ele>187.4</ele><time>2026-04-19T11:34:19.002Z</time></trkpt><trkpt lat="43.43342853161498" lon="10.785514456184362"><ele>186.2</ele><time>2026-04-19T11:34:20.002Z</time></trkpt><trkpt lat="43.43350419291182" lon="10.785441159186217"><ele>185.0</ele><time>2026-04-19T11:34:21.002Z</time></trkpt><trkpt lat="43.433582949590516" lon="10.785337379728398"><ele>185.0</ele><time>2026-04-19T11:34:22.002Z</time></trkpt><trkpt lat="43.433672548431424" lon="10.785265410624632"><ele>185.0</ele><time>2026-04-19T11:34:23.002Z</time></trkpt><trkpt lat="43.43374486776989" lon="10.785180518831982"><ele>185.0</ele><time>2026-04-19T11:34:24.002Z</time></trkpt><trkpt lat="43.433824460146866" lon="10.785133150939938"><ele>185.0</ele><time>2026-04-19T11:34:25.002Z</time></trkpt><trkpt lat="43.433895182561216" lon="10.785070042361653"><ele>185.0</ele><time>2026-04-19T11:34:26.002Z</time></trkpt><trkpt lat="43.43395495574414" lon="10.7849945800745"><ele>182.6</ele><time>2026-04-19T11:34:27.002Z</time></trkpt><trkpt lat="43.43402622806452" lon="10.784934859549532"><ele>180.2</ele><time>2026-04-19T11:34:28.002Z</time></trkpt><trkpt lat="43.43409547015384" lon="10.784856305941373"><ele>177.8</ele><time>2026-04-19T11:34:29.002Z</time></trkpt><trkpt lat="43.43415797180427" lon="10.784766405527048"><ele>175.4</ele><time>2026-04-19T11:34:30.002Z</time></trkpt><trkpt lat="43.434219647543486" lon="10.784675460831629"><ele>173.0</ele><time>2026-04-19T11:34:31.002Z</time></trkpt><trkpt lat="43.43428390846684" lon="10.784565981283295"><ele>173.0</ele><time>2026-04-19T11:34:32Z</time></trkpt><trkpt lat="43.434353555246005" lon="10.784445804662292"><ele>173.0</ele><time>2026-04-19T11:34:33Z</time></trkpt><trkpt lat="43.434420169464936" lon="10.784323059717375"><ele>173.0</ele><time>2026-04-19T11:34:34Z</time></trkpt><trkpt lat="43.43449375488681" lon="10.784204835164807"><ele>173.0</ele><time>2026-04-19T11:34:35Z</time></trkpt><trkpt lat="43.43456089770947" lon="10.784086033157989"><ele>173.0</ele><time>2026-04-19T11:34:36Z</time></trkpt><trkpt lat="43.43463099158606" lon="10.783964526768152"><ele>171.5</ele><time>2026-04-19T11:34:37Z</time></trkpt><trkpt lat="43.43470289952377" lon="10.783851303825227"><ele>170.0</ele><time>2026-04-19T11:34:38Z</time></trkpt><trkpt lat="43.434774361100274" lon="10.783735352989083"><ele>168.5</ele><time>2026-04-19T11:34:39Z</time></trkpt><trkpt lat="43.434859742576506" lon="10.78362736089855"><ele>167.0</ele><time>2026-04-19T11:34:40Z</time></trkpt><trkpt lat="43.434932254560714" lon="10.78350279589314"><ele>167.0</ele><time>2026-04-19T11:34:41Z</time></trkpt><trkpt lat="43.43500427740359" lon="10.783378897740285"><ele>167.0</ele><time>2026-04-19T11:34:42Z</time></trkpt><trkpt lat="43.43507550289969" lon="10.783256371088013"><ele>167.0</ele><time>2026-04-19T11:34:43Z</time></trkpt><trkpt lat="43.4351440760829" lon="10.78313840709112"><ele>167.0</ele><time>2026-04-19T11:34:44Z</time></trkpt><trkpt lat="43.43520853674327" lon="10.78302319691885"><ele>167.0</ele><time>2026-04-19T11:34:45Z</time></trkpt><trkpt lat="43.43526662511928" lon="10.78290312774782"><ele>167.0</ele><time>2026-04-19T11:34:46Z</time></trkpt><trkpt lat="43.435318016282025" lon="10.782775718846237"><ele>167.0</ele><time>2026-04-19T11:34:47Z</time></trkpt><trkpt lat="43.43536924147046" lon="10.782646368589509"><ele>167.0</ele><time>2026-04-19T11:34:48Z</time></trkpt><trkpt lat="43.43542093614158" lon="10.782524091335391"><ele>167.0</ele><time>2026-04-19T11:34:49Z</time></trkpt><trkpt lat="43.43547754672722" lon="10.782400353188269"><ele>167.0</ele><time>2026-04-19T11:34:50Z</time></trkpt><trkpt lat="43.43555017467849" lon="10.782260652894404"><ele>167.39999999999998</ele><time>2026-04-19T11:34:51Z</time></trkpt><trkpt lat="43.43561860322841" lon="10.782155680252474"><ele>167.79999999999998</ele><time>2026-04-19T11:34:52Z</time></trkpt><trkpt lat="43.435687843465665" lon="10.782060014186198"><ele>168.2</ele><time>2026-04-19T11:34:53Z</time></trkpt><trkpt lat="43.435764099392195" lon="10.78196787595509"><ele>168.6</ele><time>2026-04-19T11:34:54Z</time></trkpt><trkpt lat="43.43584449775808" lon="10.78187720366308"><ele>169.0</ele><time>2026-04-19T11:34:55Z</time></trkpt><trkpt lat="43.43591783091411" lon="10.78178893818194"><ele>169.0</ele><time>2026-04-19T11:34:56Z</time></trkpt><trkpt lat="43.43599023741009" lon="10.78170170792553"><ele>169.0</ele><time>2026-04-19T11:34:57Z</time></trkpt><trkpt lat="43.43605940196323" lon="10.781618292581518"><ele>169.0</ele><time>2026-04-19T11:34:58Z</time></trkpt><trkpt lat="43.4361272034231" lon="10.781536521089341"><ele>169.0</ele><time>2026-04-19T11:34:59Z</time></trkpt><trkpt lat="43.43619902524042" lon="10.781449900831735"><ele>169.0</ele><time>2026-04-19T11:35:00Z</time></trkpt><trkpt lat="43.43626926814401" lon="10.781364846828426"><ele>168.0</ele><time>2026-04-19T11:35:01Z</time></trkpt><trkpt lat="43.4363400028844" lon="10.781278897384798"><ele>167.0</ele><time>2026-04-19T11:35:02Z</time></trkpt><trkpt lat="43.436415089041354" lon="10.781190944061368"><ele>166.0</ele><time>2026-04-19T11:35:03Z</time></trkpt><trkpt lat="43.43649163537689" lon="10.781102628664426"><ele>165.0</ele><time>2026-04-19T11:35:04Z</time></trkpt><trkpt lat="43.43656869802674" lon="10.781001601883258"><ele>164.0</ele><time>2026-04-19T11:35:05Z</time></trkpt><trkpt lat="43.43662509224796" lon="10.780869035515256"><ele>164.0</ele><time>2026-04-19T11:35:06Z</time></trkpt><trkpt lat="43.43670991125551" lon="10.780761017913562"><ele>164.0</ele><time>2026-04-19T11:35:07Z</time></trkpt><trkpt lat="43.43677600537551" lon="10.780656442013546"><ele>164.0</ele><time>2026-04-19T11:35:08Z</time></trkpt><trkpt lat="43.43685635583697" lon="10.780545422960165"><ele>164.0</ele><time>2026-04-19T11:35:09Z</time></trkpt><trkpt lat="43.436929314910344" lon="10.780431683968839"><ele>164.0</ele><time>2026-04-19T11:35:10.001Z</time></trkpt><trkpt lat="43.43700292661245" lon="10.780313113287718"><ele>164.0</ele><time>2026-04-19T11:35:11.001Z</time></trkpt><trkpt lat="43.43707281491153" lon="10.780188344078681"><ele>164.0</ele><time>2026-04-19T11:35:12.001Z</time></trkpt><trkpt lat="43.4371480078351" lon="10.780097533515512"><ele>164.0</ele><time>2026-04-19T11:35:13.001Z</time></trkpt><trkpt lat="43.437210534050394" lon="10.779994093465316"><ele>164.0</ele><time>2026-04-19T11:35:14.001Z</time></trkpt><trkpt lat="43.43729739806307" lon="10.779927806480547"><ele>164.0</ele><time>2026-04-19T11:35:15.001Z</time></trkpt><trkpt lat="43.437420466468865" lon="10.77987738370964"><ele>162.83333333333331</ele><time>2026-04-19T11:35:17.001Z</time></trkpt><trkpt lat="43.43748843168957" lon="10.779880765882341"><ele>161.66666666666666</ele><time>2026-04-19T11:35:18.001Z</time></trkpt><trkpt lat="43.43754974643443" lon="10.779904884544681"><ele>160.5</ele><time>2026-04-19T11:35:19.001Z</time></trkpt><trkpt lat="43.43765144083017" lon="10.779958657587242"><ele>159.33333333333334</ele><time>2026-04-19T11:35:21.001Z</time></trkpt><trkpt lat="43.43772572238046" lon="10.779994442626762"><ele>158.16666666666669</ele><time>2026-04-19T11:35:23.001Z</time></trkpt><trkpt lat="43.4377924528009" lon="10.780046135813903"><ele>157.0</ele><time>2026-04-19T11:36:01.002Z</time></trkpt><trkpt lat="43.43786713989751" lon="10.78008846907604"><ele>157.0</ele><time>2026-04-19T11:36:05.002Z</time></trkpt><trkpt lat="43.43794020398979" lon="10.780129882415745"><ele>157.0</ele><time>2026-04-19T11:36:08.002Z</time></trkpt><trkpt lat="43.438014972923334" lon="10.780162772685678"><ele>157.0</ele><time>2026-04-19T11:36:11.002Z</time></trkpt><trkpt lat="43.438073253193494" lon="10.780203297405757"><ele>157.0</ele><time>2026-04-19T11:36:13.002Z</time></trkpt><trkpt lat="43.43820714739274" lon="10.780276561120466"><ele>157.0</ele><time>2026-04-19T11:36:15.002Z</time></trkpt><trkpt lat="43.43830222431647" lon="10.780332942383245"><ele>156.0</ele><time>2026-04-19T11:36:16.002Z</time></trkpt><trkpt lat="43.438408484002316" lon="10.780395213238517"><ele>155.0</ele><time>2026-04-19T11:36:17.002Z</time></trkpt><trkpt lat="43.4385147553918" lon="10.780439593360718"><ele>154.0</ele><time>2026-04-19T11:36:18.002Z</time></trkpt><trkpt lat="43.43862596424334" lon="10.780512254517946"><ele>153.0</ele><time>2026-04-19T11:36:19.002Z</time></trkpt><trkpt lat="43.43873206460631" lon="10.780573222770284"><ele>152.75</ele><time>2026-04-19T11:36:20.002Z</time></trkpt><trkpt lat="43.4388367572228" lon="10.780632084445186"><ele>152.5</ele><time>2026-04-19T11:36:21.002Z</time></trkpt><trkpt lat="43.43894556676327" lon="10.780687099328624"><ele>152.25</ele><time>2026-04-19T11:36:22.002Z</time></trkpt><trkpt lat="43.4390659333133" lon="10.780724268670793"><ele>152.0</ele><time>2026-04-19T11:36:23.002Z</time></trkpt><trkpt lat="43.43919835839615" lon="10.780743791389332"><ele>152.0</ele><time>2026-04-19T11:36:24.002Z</time></trkpt><trkpt lat="43.43934040186767" lon="10.780755061493444"><ele>152.0</ele><time>2026-04-19T11:36:25.002Z</time></trkpt><trkpt lat="43.439491125003244" lon="10.780767599878256"><ele>152.0</ele><time>2026-04-19T11:36:26.002Z</time></trkpt><trkpt lat="43.43979136994995" lon="10.780800302924833"><ele>151.25</ele><time>2026-04-19T11:36:28.002Z</time></trkpt><trkpt lat="43.43994504918499" lon="10.780819747333528"><ele>150.5</ele><time>2026-04-19T11:36:29.002Z</time></trkpt><trkpt lat="43.44009352126547" lon="10.780840055368053"><ele>149.75</ele><time>2026-04-19T11:36:30.002Z</time></trkpt><trkpt lat="43.44023653780998" lon="10.780848320126251"><ele>149.0</ele><time>2026-04-19T11:36:31.002Z</time></trkpt><trkpt lat="43.440375467960685" lon="10.780857409419577"><ele>150.0</ele><time>2026-04-19T11:36:32.002Z</time></trkpt><trkpt lat="43.44051131445809" lon="10.780869777933527"><ele>151.0</ele><time>2026-04-19T11:36:33.002Z</time></trkpt><trkpt lat="43.44064113911405" lon="10.78088058868909"><ele>152.0</ele><time>2026-04-19T11:36:34.002Z</time></trkpt><trkpt lat="43.440757646857975" lon="10.78089302793436"><ele>153.0</ele><time>2026-04-19T11:36:35.002Z</time></trkpt><trkpt lat="43.44086454408534" lon="10.780904798639883"><ele>153.0</ele><time>2026-04-19T11:36:36.002Z</time></trkpt><trkpt lat="43.44096450122262" lon="10.780916677857913"><ele>153.0</ele><time>2026-04-19T11:36:37.002Z</time></trkpt><trkpt lat="43.44106528753362" lon="10.78092501271475"><ele>153.0</ele><time>2026-04-19T11:36:37.999Z</time></trkpt><trkpt lat="43.44115555585339" lon="10.780932842924368"><ele>153.0</ele><time>2026-04-19T11:36:38.999Z</time></trkpt><trkpt lat="43.44123581254662" lon="10.780937701140893"><ele>153.0</ele><time>2026-04-19T11:36:39.999Z</time></trkpt><trkpt lat="43.44131214235997" lon="10.780939453278139"><ele>153.0</ele><time>2026-04-19T11:36:40.999Z</time></trkpt><trkpt lat="43.44138161230681" lon="10.780908586204069"><ele>153.66666666666666</ele><time>2026-04-19T11:36:41.999Z</time></trkpt><trkpt lat="43.44146365620376" lon="10.780883941469995"><ele>154.33333333333334</ele><time>2026-04-19T11:36:42.999Z</time></trkpt><trkpt lat="43.44153934060989" lon="10.780819742230664"><ele>155.0</ele><time>2026-04-19T11:36:43.999Z</time></trkpt><trkpt lat="43.44160840790087" lon="10.780757653869552"><ele>155.66666666666669</ele><time>2026-04-19T11:36:44.999Z</time></trkpt><trkpt lat="43.4416735895735" lon="10.780696507463292"><ele>156.33333333333334</ele><time>2026-04-19T11:36:45.999Z</time></trkpt><trkpt lat="43.44173489120326" lon="10.780640338008416"><ele>157.0</ele><time>2026-04-19T11:36:46.999Z</time></trkpt><trkpt lat="43.441797664873945" lon="10.780588340379918"><ele>156.99999999999997</ele><time>2026-04-19T11:36:47.999Z</time></trkpt><trkpt lat="43.44185652473068" lon="10.780541922859037"><ele>157.0</ele><time>2026-04-19T11:36:49Z</time></trkpt><trkpt lat="43.441918564905826" lon="10.780515150307084"><ele>157.0</ele><time>2026-04-19T11:36:50Z</time></trkpt><trkpt lat="43.44198663619525" lon="10.780496549096709"><ele>157.0</ele><time>2026-04-19T11:36:51Z</time></trkpt><trkpt lat="43.44205907146667" lon="10.780534384894414"><ele>157.0</ele><time>2026-04-19T11:36:52Z</time></trkpt><trkpt lat="43.442131007371046" lon="10.780568854151108"><ele>156.99999999999997</ele><time>2026-04-19T11:36:53Z</time></trkpt><trkpt lat="43.44220181448119" lon="10.780611817998798"><ele>157.0</ele><time>2026-04-19T11:36:54Z</time></trkpt><trkpt lat="43.44226320572814" lon="10.78065098102943"><ele>155.0</ele><time>2026-04-19T11:36:55Z</time></trkpt><trkpt lat="43.442325304614684" lon="10.780703208257522"><ele>153.0</ele><time>2026-04-19T11:36:56Z</time></trkpt><trkpt lat="43.44239812222618" lon="10.780790912198936"><ele>151.0</ele><time>2026-04-19T11:36:58Z</time></trkpt><trkpt lat="43.44247268728022" lon="10.78081306224596"><ele>149.0</ele><time>2026-04-19T11:37:00Z</time></trkpt><trkpt lat="43.44261679292908" lon="10.780788014219306"><ele>147.0</ele><time>2026-04-19T11:37:02Z</time></trkpt><trkpt lat="43.44269274090452" lon="10.780752064390478"><ele>147.0</ele><time>2026-04-19T11:37:03Z</time></trkpt><trkpt lat="43.4427742021259" lon="10.780676747551155"><ele>147.0</ele><time>2026-04-19T11:37:04Z</time></trkpt><trkpt lat="43.44284356051413" lon="10.780576153292786"><ele>147.0</ele><time>2026-04-19T11:37:05Z</time></trkpt><trkpt lat="43.442907169043" lon="10.78049600414504"><ele>147.0</ele><time>2026-04-19T11:37:06Z</time></trkpt><trkpt lat="43.44298338228096" lon="10.780409081489054"><ele>147.0</ele><time>2026-04-19T11:37:07Z</time></trkpt><trkpt lat="43.443067452812166" lon="10.78031792487466"><ele>144.75</ele><time>2026-04-19T11:37:08Z</time></trkpt><trkpt lat="43.443158747117366" lon="10.780222686030784"><ele>142.5</ele><time>2026-04-19T11:37:09Z</time></trkpt><trkpt lat="43.443256885915865" lon="10.780108351025488"><ele>140.25</ele><time>2026-04-19T11:37:10Z</time></trkpt><trkpt lat="43.443370749712834" lon="10.780002807693203"><ele>138.0</ele><time>2026-04-19T11:37:11Z</time></trkpt><trkpt lat="43.443491690459624" lon="10.779896899166246"><ele>138.0</ele><time>2026-04-19T11:37:12Z</time></trkpt><trkpt lat="43.443608393542114" lon="10.779775833372597"><ele>138.0</ele><time>2026-04-19T11:37:13Z</time></trkpt><trkpt lat="43.44371926216413" lon="10.779663082288181"><ele>138.0</ele><time>2026-04-19T11:37:14Z</time></trkpt><trkpt lat="43.443822673789846" lon="10.779557825505975"><ele>138.0</ele><time>2026-04-19T11:37:15Z</time></trkpt><trkpt lat="43.44391257586568" lon="10.77946815699151"><ele>136.25</ele><time>2026-04-19T11:37:16Z</time></trkpt><trkpt lat="43.444008637160444" lon="10.779373948690857"><ele>134.5</ele><time>2026-04-19T11:37:17Z</time></trkpt><trkpt lat="43.444099684383815" lon="10.779274747590813"><ele>132.75</ele><time>2026-04-19T11:37:18Z</time></trkpt><trkpt lat="43.44419387048895" lon="10.77917687695143"><ele>131.0</ele><time>2026-04-19T11:37:19Z</time></trkpt><trkpt lat="43.44429690580573" lon="10.779110152328318"><ele>131.0</ele><time>2026-04-19T11:37:20Z</time></trkpt><trkpt lat="43.44439739922592" lon="10.779028588946261"><ele>131.0</ele><time>2026-04-19T11:37:21Z</time></trkpt><trkpt lat="43.44449951856969" lon="10.778939050441695"><ele>131.0</ele><time>2026-04-19T11:37:22Z</time></trkpt><trkpt lat="43.44460060793281" lon="10.77888792697659"><ele>131.0</ele><time>2026-04-19T11:37:23Z</time></trkpt><trkpt lat="43.444691119072445" lon="10.778825207389682"><ele>131.0</ele><time>2026-04-19T11:37:24Z</time></trkpt><trkpt lat="43.444760285019306" lon="10.778733142842189"><ele>129.6</ele><time>2026-04-19T11:37:25Z</time></trkpt><trkpt lat="43.44483051481644" lon="10.778673424334785"><ele>128.2</ele><time>2026-04-19T11:37:26Z</time></trkpt><trkpt lat="43.4449180049311" lon="10.778604208717038"><ele>126.80000000000001</ele><time>2026-04-19T11:37:27Z</time></trkpt><trkpt lat="43.44500217379606" lon="10.77853495279477"><ele>125.4</ele><time>2026-04-19T11:37:28Z</time></trkpt><trkpt lat="43.44509066030424" lon="10.778468777348522"><ele>124.0</ele><time>2026-04-19T11:37:29.001Z</time></trkpt><trkpt lat="43.445180598663555" lon="10.77840083269305"><ele>123.66666666666667</ele><time>2026-04-19T11:37:30.001Z</time></trkpt><trkpt lat="43.445257537911125" lon="10.778340833358765"><ele>123.33333333333334</ele><time>2026-04-19T11:37:31.001Z</time></trkpt><trkpt lat="43.44533505493079" lon="10.778299693597758"><ele>123.0</ele><time>2026-04-19T11:37:32.001Z</time></trkpt><trkpt lat="43.4454163284272" lon="10.778277631033907"><ele>122.66666666666666</ele><time>2026-04-19T11:37:33.001Z</time></trkpt><trkpt lat="43.445501554195985" lon="10.778291794843499"><ele>122.33333333333333</ele><time>2026-04-19T11:37:34.001Z</time></trkpt><trkpt lat="43.445579541880825" lon="10.778317424661822"><ele>122.0</ele><time>2026-04-19T11:37:35.001Z</time></trkpt><trkpt lat="43.44566584044174" lon="10.77835436902838"><ele>121.6</ele><time>2026-04-19T11:37:36.001Z</time></trkpt><trkpt lat="43.44576123343322" lon="10.778399799474752"><ele>121.19999999999999</ele><time>2026-04-19T11:37:37.001Z</time></trkpt><trkpt lat="43.44586468270882" lon="10.778438793267622"><ele>120.8</ele><time>2026-04-19T11:37:38.001Z</time></trkpt><trkpt lat="43.445972073936" lon="10.778482749325294"><ele>120.4</ele><time>2026-04-19T11:37:39.001Z</time></trkpt><trkpt lat="43.44608864054723" lon="10.778545141415384"><ele>120.0</ele><time>2026-04-19T11:37:40.001Z</time></trkpt><trkpt lat="43.446218069835304" lon="10.778607291441528"><ele>120.75</ele><time>2026-04-19T11:37:41.001Z</time></trkpt><trkpt lat="43.446343533863896" lon="10.778662147620928"><ele>121.5</ele><time>2026-04-19T11:37:42.001Z</time></trkpt><trkpt lat="43.44646463384699" lon="10.778703882551616"><ele>122.25</ele><time>2026-04-19T11:37:43.001Z</time></trkpt><trkpt lat="43.44658359979885" lon="10.778725189475153"><ele>123.0</ele><time>2026-04-19T11:37:44.001Z</time></trkpt><trkpt lat="43.44669837446376" lon="10.778729239291017"><ele>123.0</ele><time>2026-04-19T11:37:45.001Z</time></trkpt><trkpt lat="43.446809080174454" lon="10.778725977598288"><ele>123.0</ele><time>2026-04-19T11:37:46.001Z</time></trkpt><trkpt lat="43.44692667908302" lon="10.778728626222659"><ele>123.0</ele><time>2026-04-19T11:37:47.001Z</time></trkpt><trkpt lat="43.44704385350293" lon="10.77874641571405"><ele>123.0</ele><time>2026-04-19T11:37:48.001Z</time></trkpt><trkpt lat="43.44716446448782" lon="10.778777745926414"><ele>123.60000000000001</ele><time>2026-04-19T11:37:49.001Z</time></trkpt><trkpt lat="43.447277470572175" lon="10.778823364616882"><ele>124.20000000000002</ele><time>2026-04-19T11:37:50.001Z</time></trkpt><trkpt lat="43.447391413659176" lon="10.778864682088246"><ele>124.8</ele><time>2026-04-19T11:37:51.001Z</time></trkpt><trkpt lat="43.4474926529128" lon="10.778902676948604"><ele>125.4</ele><time>2026-04-19T11:37:52.001Z</time></trkpt><trkpt lat="43.44758062439792" lon="10.778940755352718"><ele>126.0</ele><time>2026-04-19T11:37:53.001Z</time></trkpt><trkpt lat="43.44765790826483" lon="10.778973450504317"><ele>126.0</ele><time>2026-04-19T11:37:54.001Z</time></trkpt><trkpt lat="43.44772798396029" lon="10.779001531029902"><ele>126.0</ele><time>2026-04-19T11:37:55.001Z</time></trkpt><trkpt lat="43.44780465122487" lon="10.779018517932885"><ele>126.0</ele><time>2026-04-19T11:37:56.001Z</time></trkpt><trkpt lat="43.44788797810608" lon="10.77901756442928"><ele>126.0</ele><time>2026-04-19T11:37:57.001Z</time></trkpt><trkpt lat="43.44798000041343" lon="10.778995348947019"><ele>126.0</ele><time>2026-04-19T11:37:58.001Z</time></trkpt><trkpt lat="43.4480828555845" lon="10.77896973280818"><ele>126.0</ele><time>2026-04-19T11:37:59.001Z</time></trkpt><trkpt lat="43.448190774734876" lon="10.778933763659811"><ele>124.0</ele><time>2026-04-19T11:38:00.001Z</time></trkpt><trkpt lat="43.44831105868613" lon="10.778890886320479"><ele>122.0</ele><time>2026-04-19T11:38:01.001Z</time></trkpt><trkpt lat="43.44844209802696" lon="10.778839129626181"><ele>120.0</ele><time>2026-04-19T11:38:02.001Z</time></trkpt><trkpt lat="43.44858847525736" lon="10.778784203266204"><ele>118.0</ele><time>2026-04-19T11:38:03.001Z</time></trkpt><trkpt lat="43.44875368470314" lon="10.778732622867507"><ele>116.33333333333334</ele><time>2026-04-19T11:38:04.001Z</time></trkpt><trkpt lat="43.448938635164254" lon="10.778667725628262"><ele>114.66666666666666</ele><time>2026-04-19T11:38:05.001Z</time></trkpt><trkpt lat="43.44913571596609" lon="10.778599904214584"><ele>113.0</ele><time>2026-04-19T11:38:06.001Z</time></trkpt><trkpt lat="43.44934114425645" lon="10.778522007236184"><ele>113.33333333333333</ele><time>2026-04-19T11:38:07.001Z</time></trkpt><trkpt lat="43.44955058136839" lon="10.778460435170524"><ele>113.66666666666666</ele><time>2026-04-19T11:38:08.001Z</time></trkpt><trkpt lat="43.44974477748708" lon="10.778404370606236"><ele>114.0</ele><time>2026-04-19T11:38:09.001Z</time></trkpt><trkpt lat="43.44991835163843" lon="10.778345302412323"><ele>116.33333333333334</ele><time>2026-04-19T11:38:10.001Z</time></trkpt><trkpt lat="43.45007660311475" lon="10.778289098111241"><ele>118.66666666666667</ele><time>2026-04-19T11:38:11.001Z</time></trkpt><trkpt lat="43.450223197974296" lon="10.778238886525857"><ele>121.0</ele><time>2026-04-19T11:38:12.001Z</time></trkpt><trkpt lat="43.45035587677409" lon="10.778198818357273"><ele>123.19999999999999</ele><time>2026-04-19T11:38:13.001Z</time></trkpt><trkpt lat="43.450475423071644" lon="10.77816517901256"><ele>125.39999999999999</ele><time>2026-04-19T11:38:14.001Z</time></trkpt><trkpt lat="43.45058528078334" lon="10.778129121203278"><ele>127.6</ele><time>2026-04-19T11:38:15.002Z</time></trkpt><trkpt lat="43.450683570292526" lon="10.778105329989794"><ele>129.79999999999998</ele><time>2026-04-19T11:38:16.002Z</time></trkpt><trkpt lat="43.450773782922234" lon="10.778090654718186"><ele>132.0</ele><time>2026-04-19T11:38:17.002Z</time></trkpt><trkpt lat="43.450856987859005" lon="10.778094178185277"><ele>132.0</ele><time>2026-04-19T11:38:18.002Z</time></trkpt><trkpt lat="43.450936960284366" lon="10.77810847552336"><ele>132.0</ele><time>2026-04-19T11:38:19.002Z</time></trkpt><trkpt lat="43.451016227138695" lon="10.778127524540082"><ele>132.0</ele><time>2026-04-19T11:38:20.002Z</time></trkpt><trkpt lat="43.45109994794545" lon="10.778149525050713"><ele>132.0</ele><time>2026-04-19T11:38:21.002Z</time></trkpt><trkpt lat="43.45118646268712" lon="10.778180960609822"><ele>132.0</ele><time>2026-04-19T11:38:22.002Z</time></trkpt><trkpt lat="43.451276856220275" lon="10.778204013632006"><ele>132.0</ele><time>2026-04-19T11:38:23.002Z</time></trkpt><trkpt lat="43.45137134823902" lon="10.778235527879312"><ele>132.0</ele><time>2026-04-19T11:38:24.002Z</time></trkpt><trkpt lat="43.45146773514027" lon="10.77826195789959"><ele>132.0</ele><time>2026-04-19T11:38:25.002Z</time></trkpt><trkpt lat="43.4515710597816" lon="10.778297849734118"><ele>132.0</ele><time>2026-04-19T11:38:26.002Z</time></trkpt><trkpt lat="43.4516678274644" lon="10.77833463010436"><ele>132.0</ele><time>2026-04-19T11:38:27.002Z</time></trkpt><trkpt lat="43.4517562128937" lon="10.778368448261917"><ele>132.0</ele><time>2026-04-19T11:38:28.002Z</time></trkpt><trkpt lat="43.45183828475297" lon="10.778396010025633"><ele>132.0</ele><time>2026-04-19T11:38:29.002Z</time></trkpt><trkpt lat="43.45190464191814" lon="10.778417596518608"><ele>132.0</ele><time>2026-04-19T11:38:30.002Z</time></trkpt><trkpt lat="43.452003137760286" lon="10.778432546716118"><ele>132.0</ele><time>2026-04-19T11:38:32.002Z</time></trkpt><trkpt lat="43.452110837894125" lon="10.778393965830851"><ele>132.0</ele><time>2026-04-19T11:38:34.002Z</time></trkpt><trkpt lat="43.45217376556322" lon="10.77834793403386"><ele>132.0</ele><time>2026-04-19T11:38:35.002Z</time></trkpt><trkpt lat="43.452227241224506" lon="10.778298669299177"><ele>132.0</ele><time>2026-04-19T11:38:36.002Z</time></trkpt><trkpt lat="43.45232174845687" lon="10.778209757687526"><ele>130.6</ele><time>2026-04-19T11:38:38.002Z</time></trkpt><trkpt lat="43.45238445916999" lon="10.778187969153223"><ele>129.2</ele><time>2026-04-19T11:38:40.002Z</time></trkpt><trkpt lat="43.45245343768928" lon="10.778238847793451"><ele>127.8</ele><time>2026-04-19T11:38:49Z</time></trkpt><trkpt lat="43.4524556611793" lon="10.77833378512455"><ele>126.4</ele><time>2026-04-19T11:38:51Z</time></trkpt><trkpt lat="43.45246655454261" lon="10.778486059350612"><ele>125.0</ele><time>2026-04-19T11:38:53Z</time></trkpt><trkpt lat="43.45245520987798" lon="10.778661706522009"><ele>124.99999999999999</ele><time>2026-04-19T11:38:55Z</time></trkpt><trkpt lat="43.45245145305742" lon="10.778764383032382"><ele>125.0</ele><time>2026-04-19T11:38:56Z</time></trkpt><trkpt lat="43.452460107034604" lon="10.778862403688995"><ele>125.0</ele><time>2026-04-19T11:38:57Z</time></trkpt><trkpt lat="43.4524700332379" lon="10.778973187465217"><ele>125.0</ele><time>2026-04-19T11:38:58Z</time></trkpt><trkpt lat="43.45250187369464" lon="10.779078405303423"><ele>124.99999999999999</ele><time>2026-04-19T11:38:59Z</time></trkpt><trkpt lat="43.45253039091399" lon="10.779185203689142"><ele>125.0</ele><time>2026-04-19T11:39:00Z</time></trkpt><trkpt lat="43.45255342612841" lon="10.779286229596785"><ele>126.16666666666666</ele><time>2026-04-19T11:39:01Z</time></trkpt><trkpt lat="43.45257896792068" lon="10.779387744492945"><ele>127.33333333333333</ele><time>2026-04-19T11:39:02Z</time></trkpt><trkpt lat="43.45260634376199" lon="10.779478439230443"><ele>128.5</ele><time>2026-04-19T11:39:03Z</time></trkpt><trkpt lat="43.452635095168446" lon="10.779573445735798"><ele>129.66666666666666</ele><time>2026-04-19T11:39:04Z</time></trkpt><trkpt lat="43.452676432074995" lon="10.779653072006713"><ele>130.83333333333334</ele><time>2026-04-19T11:39:05Z</time></trkpt><trkpt lat="43.45274798145878" lon="10.779813021626657"><ele>132.0</ele><time>2026-04-19T11:39:07Z</time></trkpt><trkpt lat="43.452779317701676" lon="10.779894315723142"><ele>132.0</ele><time>2026-04-19T11:39:08Z</time></trkpt><trkpt lat="43.45281988436528" lon="10.779985261126352"><ele>132.0</ele><time>2026-04-19T11:39:09Z</time></trkpt><trkpt lat="43.45284866474652" lon="10.780062815022088"><ele>132.0</ele><time>2026-04-19T11:39:10Z</time></trkpt><trkpt lat="43.45287865427067" lon="10.780141985756487"><ele>132.0</ele><time>2026-04-19T11:39:11Z</time></trkpt><trkpt lat="43.45290782740872" lon="10.780221208588067"><ele>132.0</ele><time>2026-04-19T11:39:12Z</time></trkpt><trkpt lat="43.45296026345501" lon="10.7803612146842"><ele>132.0</ele><time>2026-04-19T11:39:14Z</time></trkpt><trkpt lat="43.4530056064514" lon="10.780479693186692"><ele>130.83333333333334</ele><time>2026-04-19T11:39:16Z</time></trkpt><trkpt lat="43.4530359020742" lon="10.780580282590087"><ele>129.66666666666666</ele><time>2026-04-19T11:39:18Z</time></trkpt><trkpt lat="43.453086079678805" lon="10.780690099129247"><ele>128.5</ele><time>2026-04-19T11:39:20Z</time></trkpt><trkpt lat="43.453153445856465" lon="10.780809976000858"><ele>127.33333333333333</ele><time>2026-04-19T11:39:22Z</time></trkpt><trkpt lat="43.453188497391736" lon="10.78088335141195"><ele>126.16666666666666</ele><time>2026-04-19T11:39:23.001Z</time></trkpt><trkpt lat="43.45323473834083" lon="10.780946434751428"><ele>125.0</ele><time>2026-04-19T11:39:24.001Z</time></trkpt><trkpt lat="43.45328823683622" lon="10.78100997480958"><ele>125.49999999999999</ele><time>2026-04-19T11:39:25.001Z</time></trkpt><trkpt lat="43.45335093606617" lon="10.781069892185819"><ele>126.0</ele><time>2026-04-19T11:39:26.001Z</time></trkpt><trkpt lat="43.45342233641768" lon="10.781115156831781"><ele>126.5</ele><time>2026-04-19T11:39:27.001Z</time></trkpt><trkpt lat="43.45349804278781" lon="10.781151167720255"><ele>127.0</ele><time>2026-04-19T11:39:28.001Z</time></trkpt><trkpt lat="43.45358037952702" lon="10.78117714374085"><ele>127.49999999999999</ele><time>2026-04-19T11:39:29.001Z</time></trkpt><trkpt lat="43.45366444484555" lon="10.781202155197287"><ele>128.0</ele><time>2026-04-19T11:39:30.001Z</time></trkpt><trkpt lat="43.4537430197014" lon="10.781234214770356"><ele>126.83333333333333</ele><time>2026-04-19T11:39:31.001Z</time></trkpt><trkpt lat="43.45381412585535" lon="10.781263004397774"><ele>125.66666666666666</ele><time>2026-04-19T11:39:32.001Z</time></trkpt><trkpt lat="43.45389202825292" lon="10.78128417106439"><ele>124.5</ele><time>2026-04-19T11:39:33.001Z</time></trkpt><trkpt lat="43.45396514665567" lon="10.781303523977401"><ele>123.33333333333334</ele><time>2026-04-19T11:39:34.001Z</time></trkpt><trkpt lat="43.45404588446974" lon="10.781322644314086"><ele>122.16666666666667</ele><time>2026-04-19T11:39:35.001Z</time></trkpt><trkpt lat="43.4541132586134" lon="10.781340789763984"><ele>121.0</ele><time>2026-04-19T11:39:36.001Z</time></trkpt><trkpt lat="43.45418470654356" lon="10.781353935583057"><ele>121.0</ele><time>2026-04-19T11:39:37.001Z</time></trkpt><trkpt lat="43.45425782220619" lon="10.781363460675069"><ele>120.99999999999999</ele><time>2026-04-19T11:39:38.001Z</time></trkpt><trkpt lat="43.454332629739696" lon="10.781369617459847"><ele>121.0</ele><time>2026-04-19T11:39:39.001Z</time></trkpt><trkpt lat="43.45441012633882" lon="10.78136467124557"><ele>121.0</ele><time>2026-04-19T11:39:40.001Z</time></trkpt><trkpt lat="43.45448221351764" lon="10.781351534647301"><ele>120.99999999999999</ele><time>2026-04-19T11:39:41.001Z</time></trkpt><trkpt lat="43.45455205220463" lon="10.781327314689925"><ele>121.0</ele><time>2026-04-19T11:39:42.001Z</time></trkpt><trkpt lat="43.454614730980786" lon="10.781295334535354"><ele>121.0</ele><time>2026-04-19T11:39:43.001Z</time></trkpt><trkpt lat="43.454677960828484" lon="10.781278783106076"><ele>120.19999999999999</ele><time>2026-04-19T11:39:44.001Z</time></trkpt><trkpt lat="43.45477852057032" lon="10.78119257123997"><ele>119.39999999999999</ele><time>2026-04-19T11:39:46.001Z</time></trkpt><trkpt lat="43.45486094548622" lon="10.781113100740479"><ele>118.6</ele><time>2026-04-19T11:39:48.001Z</time></trkpt><trkpt lat="43.45494396342371" lon="10.781020896894576"><ele>117.8</ele><time>2026-04-19T11:39:50.001Z</time></trkpt><trkpt lat="43.45503634792636" lon="10.780918040967613"><ele>117.0</ele><time>2026-04-19T11:39:52.001Z</time></trkpt><trkpt lat="43.455130919164986" lon="10.780799498200393"><ele>114.8</ele><time>2026-04-19T11:39:54.001Z</time></trkpt><trkpt lat="43.455188453767576" lon="10.780754403598154"><ele>112.6</ele><time>2026-04-19T11:39:55.001Z</time></trkpt><trkpt lat="43.45524956928452" lon="10.780729286636333"><ele>110.39999999999999</ele><time>2026-04-19T11:39:56.001Z</time></trkpt><trkpt lat="43.45536489085822" lon="10.780734000612663"><ele>108.19999999999999</ele><time>2026-04-19T11:39:58.001Z</time></trkpt><trkpt lat="43.45547856720854" lon="10.780786371069649"><ele>106.0</ele><time>2026-04-19T11:40:00.001Z</time></trkpt><trkpt lat="43.45559386147465" lon="10.780846511412863"><ele>106.0</ele><time>2026-04-19T11:40:02.001Z</time></trkpt><trkpt lat="43.45565614211438" lon="10.78088092250955"><ele>106.0</ele><time>2026-04-19T11:40:03.001Z</time></trkpt><trkpt lat="43.4557686678018" lon="10.780940394605597"><ele>106.0</ele><time>2026-04-19T11:40:05.001Z</time></trkpt><trkpt lat="43.45588029805982" lon="10.78100727529394"><ele>106.0</ele><time>2026-04-19T11:40:07.001Z</time></trkpt><trkpt lat="43.45594255318326" lon="10.781038777479557"><ele>106.0</ele><time>2026-04-19T11:40:08.001Z</time></trkpt><trkpt lat="43.45605485472276" lon="10.781098813975934"><ele>106.0</ele><time>2026-04-19T11:40:10.002Z</time></trkpt><trkpt lat="43.45617124275683" lon="10.781161739455811"><ele>106.0</ele><time>2026-04-19T11:40:12.002Z</time></trkpt><trkpt lat="43.45623217088072" lon="10.78120309172142"><ele>106.0</ele><time>2026-04-19T11:40:13.002Z</time></trkpt><trkpt lat="43.456310101564654" lon="10.781306767002956"><ele>106.0</ele><time>2026-04-19T11:40:15.002Z</time></trkpt><trkpt lat="43.456350598795034" lon="10.781436892398535"><ele>106.0</ele><time>2026-04-19T11:40:17.002Z</time></trkpt><trkpt lat="43.456395463949036" lon="10.781588381781072"><ele>103.42857142857143</ele><time>2026-04-19T11:40:19.002Z</time></trkpt><trkpt lat="43.45642858440257" lon="10.781664637078249"><ele>100.85714285714285</ele><time>2026-04-19T11:40:20.002Z</time></trkpt><trkpt lat="43.45648233832005" lon="10.781719101275074"><ele>98.28571428571428</ele><time>2026-04-19T11:40:21.002Z</time></trkpt><trkpt lat="43.45654606921275" lon="10.781756939406879"><ele>95.71428571428572</ele><time>2026-04-19T11:40:22.002Z</time></trkpt><trkpt lat="43.45662406369605" lon="10.781776942487515"><ele>93.14285714285714</ele><time>2026-04-19T11:40:23.002Z</time></trkpt><trkpt lat="43.45670493074701" lon="10.781780605930413"><ele>90.57142857142857</ele><time>2026-04-19T11:40:24.002Z</time></trkpt><trkpt lat="43.45678997304283" lon="10.781790410588519"><ele>88.0</ele><time>2026-04-19T11:40:25.002Z</time></trkpt><trkpt lat="43.45687488447656" lon="10.781798823940317"><ele>88.0</ele><time>2026-04-19T11:40:26.002Z</time></trkpt><trkpt lat="43.45696152589843" lon="10.781807235859404"><ele>88.0</ele><time>2026-04-19T11:40:27.002Z</time></trkpt><trkpt lat="43.45704893457856" lon="10.781818914034933"><ele>88.0</ele><time>2026-04-19T11:40:28.002Z</time></trkpt><trkpt lat="43.457137913452456" lon="10.781827060200875"><ele>88.0</ele><time>2026-04-19T11:40:29.002Z</time></trkpt><trkpt lat="43.45722248028291" lon="10.781834829277555"><ele>88.0</ele><time>2026-04-19T11:40:30.002Z</time></trkpt><trkpt lat="43.45730523190036" lon="10.781841301648988"><ele>88.0</ele><time>2026-04-19T11:40:31.002Z</time></trkpt><trkpt lat="43.45738005527067" lon="10.781846081881193"><ele>87.16666666666666</ele><time>2026-04-19T11:40:32.002Z</time></trkpt><trkpt lat="43.45744864212147" lon="10.781865824699123"><ele>86.33333333333333</ele><time>2026-04-19T11:40:33.002Z</time></trkpt><trkpt lat="43.457507813245236" lon="10.781905395894562"><ele>85.5</ele><time>2026-04-19T11:40:34.002Z</time></trkpt><trkpt lat="43.45757968428055" lon="10.781999956954714"><ele>84.66666666666667</ele><time>2026-04-19T11:40:36.002Z</time></trkpt><trkpt lat="43.457611454334035" lon="10.782090513290456"><ele>83.83333333333334</ele><time>2026-04-19T11:40:39.002Z</time></trkpt><trkpt lat="43.45768253041132" lon="10.782149102239337"><ele>83.0</ele><time>2026-04-19T11:40:42.002Z</time></trkpt><trkpt lat="43.45775250519346" lon="10.782057951468632"><ele>83.0</ele><time>2026-04-19T11:40:44.002Z</time></trkpt><trkpt lat="43.457805256033154" lon="10.78200543736194"><ele>83.0</ele><time>2026-04-19T11:40:45.002Z</time></trkpt><trkpt lat="43.457864042874604" lon="10.781940826806078"><ele>83.0</ele><time>2026-04-19T11:40:46.002Z</time></trkpt><trkpt lat="43.45793189288381" lon="10.781868518333088"><ele>83.0</ele><time>2026-04-19T11:40:47.002Z</time></trkpt><trkpt lat="43.458008547854064" lon="10.781789330020889"><ele>83.0</ele><time>2026-04-19T11:40:48.002Z</time></trkpt><trkpt lat="43.45808913949503" lon="10.781702493940674"><ele>83.0</ele><time>2026-04-19T11:40:49.002Z</time></trkpt><trkpt lat="43.45817548292854" lon="10.781610681016831"><ele>83.0</ele><time>2026-04-19T11:40:50Z</time></trkpt><trkpt lat="43.45826915119544" lon="10.781509713605178"><ele>83.0</ele><time>2026-04-19T11:40:51Z</time></trkpt><trkpt lat="43.45837371191583" lon="10.781410596764081"><ele>83.0</ele><time>2026-04-19T11:40:52Z</time></trkpt><trkpt lat="43.45847508343836" lon="10.78130324794294"><ele>83.0</ele><time>2026-04-19T11:40:53Z</time></trkpt><trkpt lat="43.45858199197046" lon="10.781190253440418"><ele>83.0</ele><time>2026-04-19T11:40:54Z</time></trkpt><trkpt lat="43.458692841407704" lon="10.781074698255704"><ele>83.0</ele><time>2026-04-19T11:40:55Z</time></trkpt><trkpt lat="43.4588076980988" lon="10.780957508758991"><ele>83.0</ele><time>2026-04-19T11:40:56Z</time></trkpt><trkpt lat="43.45892515057752" lon="10.780836915294731"><ele>83.0</ele><time>2026-04-19T11:40:57Z</time></trkpt><trkpt lat="43.459044340861304" lon="10.780710973846212"><ele>82.66666666666667</ele><time>2026-04-19T11:40:58Z</time></trkpt><trkpt lat="43.45916580467692" lon="10.780582564070178"><ele>82.33333333333333</ele><time>2026-04-19T11:40:59Z</time></trkpt><trkpt lat="43.45929070547695" lon="10.780455757375247"><ele>82.0</ele><time>2026-04-19T11:41:00Z</time></trkpt><trkpt lat="43.45941812930044" lon="10.780328396042483"><ele>82.0</ele><time>2026-04-19T11:41:01Z</time></trkpt><trkpt lat="43.459545545774006" lon="10.780194958850831"><ele>82.0</ele><time>2026-04-19T11:41:02Z</time></trkpt><trkpt lat="43.45967465863282" lon="10.78005908527301"><ele>82.0</ele><time>2026-04-19T11:41:03Z</time></trkpt><trkpt lat="43.45980562443276" lon="10.77992223207324"><ele>82.66666666666666</ele><time>2026-04-19T11:41:04Z</time></trkpt><trkpt lat="43.459936191566726" lon="10.77978391732878"><ele>83.33333333333333</ele><time>2026-04-19T11:41:05Z</time></trkpt><trkpt lat="43.460068644266805" lon="10.779645372956972"><ele>84.0</ele><time>2026-04-19T11:41:06Z</time></trkpt><trkpt lat="43.460201660687694" lon="10.779503211734195"><ele>84.0</ele><time>2026-04-19T11:41:07Z</time></trkpt><trkpt lat="43.46033362059095" lon="10.779364555242667"><ele>84.0</ele><time>2026-04-19T11:41:08Z</time></trkpt><trkpt lat="43.460470810064145" lon="10.779222205840655"><ele>84.0</ele><time>2026-04-19T11:41:09Z</time></trkpt><trkpt lat="43.46061004600325" lon="10.779078362902885"><ele>84.33333333333333</ele><time>2026-04-19T11:41:10Z</time></trkpt><trkpt lat="43.460749526454094" lon="10.778933633506798"><ele>84.66666666666666</ele><time>2026-04-19T11:41:11Z</time></trkpt><trkpt lat="43.46088815385336" lon="10.778787201229608"><ele>85.0</ele><time>2026-04-19T11:41:12Z</time></trkpt><trkpt lat="43.46102699421934" lon="10.778642507982568"><ele>85.0</ele><time>2026-04-19T11:41:13Z</time></trkpt><trkpt lat="43.46116982366452" lon="10.778493749876866"><ele>85.0</ele><time>2026-04-19T11:41:14Z</time></trkpt><trkpt lat="43.4613134575205" lon="10.778352341017191"><ele>85.0</ele><time>2026-04-19T11:41:15.001Z</time></trkpt><trkpt lat="43.461464116082645" lon="10.778218784573776"><ele>84.33333333333333</ele><time>2026-04-19T11:41:16.001Z</time></trkpt><trkpt lat="43.46161750161558" lon="10.778091932701582"><ele>83.66666666666667</ele><time>2026-04-19T11:41:17.001Z</time></trkpt><trkpt lat="43.46177365323675" lon="10.77796594706074"><ele>83.0</ele><time>2026-04-19T11:41:18.001Z</time></trkpt><trkpt lat="43.461932728762214" lon="10.77783723824702"><ele>83.0</ele><time>2026-04-19T11:41:19.001Z</time></trkpt><trkpt lat="43.46209551589618" lon="10.77770731548106"><ele>83.0</ele><time>2026-04-19T11:41:20.001Z</time></trkpt><trkpt lat="43.46226166867851" lon="10.777579133239843"><ele>83.0</ele><time>2026-04-19T11:41:21.001Z</time></trkpt><trkpt lat="43.46243222802614" lon="10.777447210201565"><ele>83.0</ele><time>2026-04-19T11:41:22.001Z</time></trkpt><trkpt lat="43.46260394187779" lon="10.777310823386635"><ele>83.0</ele><time>2026-04-19T11:41:23.001Z</time></trkpt><trkpt lat="43.46278024489553" lon="10.77717024947184"><ele>83.0</ele><time>2026-04-19T11:41:24.001Z</time></trkpt><trkpt lat="43.462961320114324" lon="10.7770260351103"><ele>82.33333333333334</ele><time>2026-04-19T11:41:25.001Z</time></trkpt><trkpt lat="43.463144043367905" lon="10.776883497573625"><ele>81.66666666666667</ele><time>2026-04-19T11:41:26.001Z</time></trkpt><trkpt lat="43.46332522401949" lon="10.77674025925071"><ele>81.0</ele><time>2026-04-19T11:41:27.001Z</time></trkpt><trkpt lat="43.46350725482457" lon="10.776602727750275"><ele>81.0</ele><time>2026-04-19T11:41:28.001Z</time></trkpt><trkpt lat="43.46368117103194" lon="10.776464017087786"><ele>81.0</ele><time>2026-04-19T11:41:29.001Z</time></trkpt><trkpt lat="43.4638492198982" lon="10.776328183683782"><ele>81.0</ele><time>2026-04-19T11:41:30.001Z</time></trkpt><trkpt lat="43.464017890301164" lon="10.77619153643003"><ele>80.33333333333333</ele><time>2026-04-19T11:41:31.001Z</time></trkpt><trkpt lat="43.464184431515775" lon="10.776057633865728"><ele>79.66666666666666</ele><time>2026-04-19T11:41:32.001Z</time></trkpt><trkpt lat="43.4643479581821" lon="10.775931805757647"><ele>79.0</ele><time>2026-04-19T11:41:33.001Z</time></trkpt><trkpt lat="43.46451293496138" lon="10.77580721163028"><ele>79.0</ele><time>2026-04-19T11:41:34.001Z</time></trkpt><trkpt lat="43.46467366790336" lon="10.775684500047644"><ele>79.0</ele><time>2026-04-19T11:41:35.001Z</time></trkpt><trkpt lat="43.46483249178509" lon="10.775558848173585"><ele>79.0</ele><time>2026-04-19T11:41:36.001Z</time></trkpt><trkpt lat="43.464991091470374" lon="10.775431405531"><ele>79.0</ele><time>2026-04-19T11:41:37.001Z</time></trkpt><trkpt lat="43.465151823557484" lon="10.77530572341978"><ele>79.0</ele><time>2026-04-19T11:41:38.001Z</time></trkpt><trkpt lat="43.465307980500846" lon="10.775177006474161"><ele>79.0</ele><time>2026-04-19T11:41:39.001Z</time></trkpt><trkpt lat="43.465466014620496" lon="10.775052049185561"><ele>78.66666666666666</ele><time>2026-04-19T11:41:40.001Z</time></trkpt><trkpt lat="43.46562524557977" lon="10.774933653672184"><ele>78.33333333333333</ele><time>2026-04-19T11:41:41.001Z</time></trkpt><trkpt lat="43.46578996217472" lon="10.774831557092078"><ele>78.0</ele><time>2026-04-19T11:41:42.001Z</time></trkpt><trkpt lat="43.465957288367356" lon="10.774750073502787"><ele>78.0</ele><time>2026-04-19T11:41:43.001Z</time></trkpt><trkpt lat="43.466117011251534" lon="10.774689473733817"><ele>78.0</ele><time>2026-04-19T11:41:44.001Z</time></trkpt><trkpt lat="43.46626642701296" lon="10.774642966189004"><ele>78.0</ele><time>2026-04-19T11:41:45.001Z</time></trkpt><trkpt lat="43.4664166833322" lon="10.774597666081908"><ele>77.75</ele><time>2026-04-19T11:41:46.001Z</time></trkpt><trkpt lat="43.46656405329204" lon="10.774553856401965"><ele>77.5</ele><time>2026-04-19T11:41:47.001Z</time></trkpt><trkpt lat="43.466705993220465" lon="10.774511970715565"><ele>77.25</ele><time>2026-04-19T11:41:48.001Z</time></trkpt><trkpt lat="43.46684705748821" lon="10.774472645272766"><ele>77.0</ele><time>2026-04-19T11:41:49.001Z</time></trkpt><trkpt lat="43.46698731397949" lon="10.77442848937881"><ele>77.0</ele><time>2026-04-19T11:41:50.001Z</time></trkpt><trkpt lat="43.46712725566451" lon="10.774384388899268"><ele>77.0</ele><time>2026-04-19T11:41:51.001Z</time></trkpt><trkpt lat="43.467267186059914" lon="10.774348091957576"><ele>77.0</ele><time>2026-04-19T11:41:52.001Z</time></trkpt><trkpt lat="43.467405501966866" lon="10.774307240161262"><ele>77.0</ele><time>2026-04-19T11:41:53.001Z</time></trkpt><trkpt lat="43.46753972832526" lon="10.774242644502241"><ele>77.25</ele><time>2026-04-19T11:41:54.001Z</time></trkpt><trkpt lat="43.46767147872425" lon="10.774172065041286"><ele>77.5</ele><time>2026-04-19T11:41:55.001Z</time></trkpt><trkpt lat="43.467794986589276" lon="10.774082410973255"><ele>77.75</ele><time>2026-04-19T11:41:56.001Z</time></trkpt><trkpt lat="43.46791917874511" lon="10.773974648541298"><ele>78.0</ele><time>2026-04-19T11:41:57.001Z</time></trkpt><trkpt lat="43.46803811341236" lon="10.773854728112228"><ele>78.0</ele><time>2026-04-19T11:41:58.001Z</time></trkpt><trkpt lat="43.4681608438251" lon="10.77373039753633"><ele>78.0</ele><time>2026-04-19T11:41:59.001Z</time></trkpt><trkpt lat="43.468284296654545" lon="10.773600062334172"><ele>78.0</ele><time>2026-04-19T11:42:00.001Z</time></trkpt><trkpt lat="43.468405478515905" lon="10.773470951121707"><ele>77.66666666666667</ele><time>2026-04-19T11:42:01.001Z</time></trkpt><trkpt lat="43.46853752025387" lon="10.773339394903354"><ele>77.33333333333334</ele><time>2026-04-19T11:42:02.001Z</time></trkpt><trkpt lat="43.468671084148134" lon="10.773204490135699"><ele>77.0</ele><time>2026-04-19T11:42:03.001Z</time></trkpt><trkpt lat="43.46880477463217" lon="10.773067682233611"><ele>77.0</ele><time>2026-04-19T11:42:04.001Z</time></trkpt><trkpt lat="43.46893781484914" lon="10.772931292371684"><ele>77.0</ele><time>2026-04-19T11:42:05.002Z</time></trkpt><trkpt lat="43.46907576372235" lon="10.772793251369404"><ele>77.0</ele><time>2026-04-19T11:42:06.002Z</time></trkpt><trkpt lat="43.469207452425586" lon="10.77265696658877"><ele>78.66666666666667</ele><time>2026-04-19T11:42:07.002Z</time></trkpt><trkpt lat="43.46934452519327" lon="10.772511810629867"><ele>80.33333333333333</ele><time>2026-04-19T11:42:08.002Z</time></trkpt><trkpt lat="43.46947635122607" lon="10.772370031580405"><ele>82.0</ele><time>2026-04-19T11:42:09.002Z</time></trkpt><trkpt lat="43.46960868875068" lon="10.772226546279313"><ele>82.33333333333333</ele><time>2026-04-19T11:42:10.002Z</time></trkpt><trkpt lat="43.46973867898402" lon="10.772078917113108"><ele>82.66666666666667</ele><time>2026-04-19T11:42:11.002Z</time></trkpt><trkpt lat="43.469863817024574" lon="10.771936940170932"><ele>83.0</ele><time>2026-04-19T11:42:12.002Z</time></trkpt><trkpt lat="43.469991406200165" lon="10.771794290543683"><ele>83.0</ele><time>2026-04-19T11:42:13.002Z</time></trkpt><trkpt lat="43.47011480359806" lon="10.771649754142777"><ele>83.0</ele><time>2026-04-19T11:42:14.002Z</time></trkpt><trkpt lat="43.47023340641438" lon="10.771499926639745"><ele>83.0</ele><time>2026-04-19T11:42:15.002Z</time></trkpt><trkpt lat="43.47036280049759" lon="10.771351527833147"><ele>81.66666666666667</ele><time>2026-04-19T11:42:16.002Z</time></trkpt><trkpt lat="43.47049069169204" lon="10.771201641199344"><ele>80.33333333333333</ele><time>2026-04-19T11:42:17.002Z</time></trkpt><trkpt lat="43.470620942824" lon="10.771052014096044"><ele>79.0</ele><time>2026-04-19T11:42:18.002Z</time></trkpt><trkpt lat="43.47074798012755" lon="10.77089334953816"><ele>79.0</ele><time>2026-04-19T11:42:19.002Z</time></trkpt><trkpt lat="43.470873926526316" lon="10.770734584841124"><ele>79.0</ele><time>2026-04-19T11:42:20.002Z</time></trkpt><trkpt lat="43.47099329317895" lon="10.770563996932394"><ele>79.0</ele><time>2026-04-19T11:42:21.002Z</time></trkpt><trkpt lat="43.47110922567149" lon="10.770385234443928"><ele>79.0</ele><time>2026-04-19T11:42:22.002Z</time></trkpt><trkpt lat="43.471217598234055" lon="10.770203145829305"><ele>79.0</ele><time>2026-04-19T11:42:23.002Z</time></trkpt><trkpt lat="43.471323620119186" lon="10.770021743254818"><ele>79.0</ele><time>2026-04-19T11:42:24.002Z</time></trkpt><trkpt lat="43.471425640278945" lon="10.769839754005185"><ele>79.66666666666666</ele><time>2026-04-19T11:42:25.002Z</time></trkpt><trkpt lat="43.47152323748664" lon="10.769655070476029"><ele>80.33333333333333</ele><time>2026-04-19T11:42:26.002Z</time></trkpt><trkpt lat="43.471617772895634" lon="10.769467401607884"><ele>81.0</ele><time>2026-04-19T11:42:27.002Z</time></trkpt><trkpt lat="43.47170118239875" lon="10.769274781966732"><ele>81.0</ele><time>2026-04-19T11:42:28.002Z</time></trkpt><trkpt lat="43.471763725553956" lon="10.76910582855191"><ele>81.0</ele><time>2026-04-19T11:42:29.002Z</time></trkpt><trkpt lat="43.471809122170185" lon="10.768960213590375"><ele>81.0</ele><time>2026-04-19T11:42:30.002Z</time></trkpt><trkpt lat="43.47185028182379" lon="10.76880963866375"><ele>81.0</ele><time>2026-04-19T11:42:31.002Z</time></trkpt><trkpt lat="43.47188867869719" lon="10.76866729205449"><ele>80.25</ele><time>2026-04-19T11:42:32.002Z</time></trkpt><trkpt lat="43.47192994330014" lon="10.768522896322258"><ele>79.5</ele><time>2026-04-19T11:42:33.002Z</time></trkpt><trkpt lat="43.47197304122403" lon="10.768379952694394"><ele>78.75</ele><time>2026-04-19T11:42:34.002Z</time></trkpt><trkpt lat="43.472012076856906" lon="10.768220815355324"><ele>78.0</ele><time>2026-04-19T11:42:35.002Z</time></trkpt><trkpt lat="43.47205546400624" lon="10.768068400585339"><ele>77.5</ele><time>2026-04-19T11:42:36.002Z</time></trkpt><trkpt lat="43.4721121717631" lon="10.767923233753896"><ele>77.0</ele><time>2026-04-19T11:42:37.002Z</time></trkpt><trkpt lat="43.472156035116974" lon="10.767762371354426"><ele>76.5</ele><time>2026-04-19T11:42:38.002Z</time></trkpt><trkpt lat="43.47219693998719" lon="10.76759817816571"><ele>76.0</ele><time>2026-04-19T11:42:39.002Z</time></trkpt><trkpt lat="43.47224131983326" lon="10.76743264650266"><ele>76.0</ele><time>2026-04-19T11:42:40.002Z</time></trkpt><trkpt lat="43.472286413814054" lon="10.767262079848326"><ele>76.0</ele><time>2026-04-19T11:42:41.002Z</time></trkpt><trkpt lat="43.472324479917596" lon="10.767094333161861"><ele>76.0</ele><time>2026-04-19T11:42:42.002Z</time></trkpt><trkpt lat="43.472371323721376" lon="10.766923110230888"><ele>76.0</ele><time>2026-04-19T11:42:43.002Z</time></trkpt><trkpt lat="43.472414871009015" lon="10.766749027715955"><ele>76.0</ele><time>2026-04-19T11:42:44.002Z</time></trkpt><trkpt lat="43.472463793074766" lon="10.766581217409378"><ele>76.0</ele><time>2026-04-19T11:42:45.002Z</time></trkpt><trkpt lat="43.472500807633125" lon="10.766404208495103"><ele>76.0</ele><time>2026-04-19T11:42:46.002Z</time></trkpt><trkpt lat="43.47254835469137" lon="10.766244919553374"><ele>76.0</ele><time>2026-04-19T11:42:47.002Z</time></trkpt><trkpt lat="43.47259054198911" lon="10.766075993245162"><ele>76.5</ele><time>2026-04-19T11:42:48.002Z</time></trkpt><trkpt lat="43.4726287093828" lon="10.765886807582913"><ele>77.0</ele><time>2026-04-19T11:42:49.002Z</time></trkpt><trkpt lat="43.472690288060065" lon="10.765717758187243"><ele>77.5</ele><time>2026-04-19T11:42:50.002Z</time></trkpt><trkpt lat="43.47274490474195" lon="10.76554128362418"><ele>78.0</ele><time>2026-04-19T11:42:51.002Z</time></trkpt><trkpt lat="43.47279491869726" lon="10.765364882261226"><ele>78.25</ele><time>2026-04-19T11:42:52.002Z</time></trkpt><trkpt lat="43.47283818589256" lon="10.765186070073318"><ele>78.5</ele><time>2026-04-19T11:42:53.002Z</time></trkpt><trkpt lat="43.472874580694295" lon="10.765007857515355"><ele>78.75</ele><time>2026-04-19T11:42:54.002Z</time></trkpt><trkpt lat="43.472903732032265" lon="10.764826079176238"><ele>79.0</ele><time>2026-04-19T11:42:55.002Z</time></trkpt><trkpt lat="43.47292301554917" lon="10.76465404915091"><ele>79.0</ele><time>2026-04-19T11:42:56.001Z</time></trkpt><trkpt lat="43.47294099061533" lon="10.76448243577531"><ele>79.0</ele><time>2026-04-19T11:42:57.001Z</time></trkpt><trkpt lat="43.472955723719934" lon="10.764319763784759"><ele>79.0</ele><time>2026-04-19T11:42:58.001Z</time></trkpt><trkpt lat="43.47297096202525" lon="10.764160624632671"><ele>79.0</ele><time>2026-04-19T11:42:59.001Z</time></trkpt><trkpt lat="43.47298182055529" lon="10.764008006640257"><ele>79.0</ele><time>2026-04-19T11:43:00.001Z</time></trkpt><trkpt lat="43.47299156814397" lon="10.763875551882778"><ele>79.0</ele><time>2026-04-19T11:43:01.001Z</time></trkpt><trkpt lat="43.47299944015308" lon="10.763745915273255"><ele>79.0</ele><time>2026-04-19T11:43:02.001Z</time></trkpt><trkpt lat="43.47300908577508" lon="10.763636679055107"><ele>79.0</ele><time>2026-04-19T11:43:03.001Z</time></trkpt><trkpt lat="43.47301936328411" lon="10.763548358121986"><ele>79.0</ele><time>2026-04-19T11:43:04.001Z</time></trkpt><trkpt lat="43.47303411119722" lon="10.763445984888886"><ele>79.0</ele><time>2026-04-19T11:43:07.001Z</time></trkpt><trkpt lat="43.473039329560685" lon="10.763352576985287"><ele>79.80000000000001</ele><time>2026-04-19T11:43:11.001Z</time></trkpt><trkpt lat="43.47305760867874" lon="10.763231367578365"><ele>80.60000000000001</ele><time>2026-04-19T11:43:13.001Z</time></trkpt><trkpt lat="43.47307356203794" lon="10.763103922670908"><ele>81.4</ele><time>2026-04-19T11:43:15.001Z</time></trkpt><trkpt lat="43.47311542352059" lon="10.762942335942576"><ele>82.2</ele><time>2026-04-19T11:43:17.001Z</time></trkpt><trkpt lat="43.47314727764948" lon="10.762845289879603"><ele>83.0</ele><time>2026-04-19T11:43:18.001Z</time></trkpt><trkpt lat="43.473181754500594" lon="10.762739309590565"><ele>84.2</ele><time>2026-04-19T11:43:19.001Z</time></trkpt><trkpt lat="43.47324947063301" lon="10.762654787499413"><ele>85.4</ele><time>2026-04-19T11:43:20.001Z</time></trkpt><trkpt lat="43.47333437376453" lon="10.762589479740745"><ele>86.60000000000001</ele><time>2026-04-19T11:43:21.001Z</time></trkpt><trkpt lat="43.473426528160545" lon="10.7625355732429"><ele>87.80000000000001</ele><time>2026-04-19T11:43:22.001Z</time></trkpt><trkpt lat="43.473519412871454" lon="10.76246400858298"><ele>89.0</ele><time>2026-04-19T11:43:23.001Z</time></trkpt><trkpt lat="43.473614337998534" lon="10.762388325197321"><ele>89.0</ele><time>2026-04-19T11:43:24.001Z</time></trkpt><trkpt lat="43.473711486134114" lon="10.762304847371496"><ele>89.0</ele><time>2026-04-19T11:43:25.001Z</time></trkpt><trkpt lat="43.473809866078675" lon="10.762223613693353"><ele>89.0</ele><time>2026-04-19T11:43:26.001Z</time></trkpt><trkpt lat="43.473901509345055" lon="10.76214619840137"><ele>89.0</ele><time>2026-04-19T11:43:27.001Z</time></trkpt><trkpt lat="43.47399992060488" lon="10.762060626477474"><ele>89.0</ele><time>2026-04-19T11:43:28.001Z</time></trkpt><trkpt lat="43.47410746378483" lon="10.761992432229254"><ele>89.0</ele><time>2026-04-19T11:43:29.001Z</time></trkpt><trkpt lat="43.47420682911941" lon="10.761905976641511"><ele>89.0</ele><time>2026-04-19T11:43:30.001Z</time></trkpt><trkpt lat="43.47430674559522" lon="10.761821218375236"><ele>89.0</ele><time>2026-04-19T11:43:31.001Z</time></trkpt><trkpt lat="43.47440675276703" lon="10.761738552305037"><ele>90.2</ele><time>2026-04-19T11:43:32.001Z</time></trkpt><trkpt lat="43.474504607489685" lon="10.76165558940744"><ele>91.4</ele><time>2026-04-19T11:43:33.001Z</time></trkpt><trkpt lat="43.474608997090506" lon="10.76158745350989"><ele>92.6</ele><time>2026-04-19T11:43:34.001Z</time></trkpt><trkpt lat="43.474705643719254" lon="10.761517311552545"><ele>93.8</ele><time>2026-04-19T11:43:35.001Z</time></trkpt><trkpt lat="43.47479788021117" lon="10.761444103309982"><ele>95.0</ele><time>2026-04-19T11:43:36.001Z</time></trkpt><trkpt lat="43.47488580492445" lon="10.761366092800825"><ele>95.0</ele><time>2026-04-19T11:43:37.001Z</time></trkpt><trkpt lat="43.47496620343355" lon="10.761279369099318"><ele>95.0</ele><time>2026-04-19T11:43:38.001Z</time></trkpt><trkpt lat="43.475041172207206" lon="10.761182644019085"><ele>95.0</ele><time>2026-04-19T11:43:39.001Z</time></trkpt><trkpt lat="43.47512327766386" lon="10.761099192060584"><ele>95.0</ele><time>2026-04-19T11:43:40.001Z</time></trkpt><trkpt lat="43.47518166385058" lon="10.760982406094525"><ele>95.0</ele><time>2026-04-19T11:43:41.001Z</time></trkpt><trkpt lat="43.47522341597337" lon="10.760851477530217"><ele>97.4</ele><time>2026-04-19T11:43:42.001Z</time></trkpt><trkpt lat="43.475256539609774" lon="10.760708058669348"><ele>99.8</ele><time>2026-04-19T11:43:43.001Z</time></trkpt><trkpt lat="43.475276056997224" lon="10.7605609209144"><ele>102.19999999999999</ele><time>2026-04-19T11:43:44.001Z</time></trkpt><trkpt lat="43.47528559769396" lon="10.760413160715423"><ele>104.6</ele><time>2026-04-19T11:43:45.001Z</time></trkpt><trkpt lat="43.475285591019365" lon="10.760294379174283"><ele>107.0</ele><time>2026-04-19T11:43:46.001Z</time></trkpt><trkpt lat="43.47528255753689" lon="10.760179483084238"><ele>107.85714285714286</ele><time>2026-04-19T11:43:47.001Z</time></trkpt><trkpt lat="43.47527772408228" lon="10.760073924060807"><ele>108.71428571428572</ele><time>2026-04-19T11:43:48.001Z</time></trkpt><trkpt lat="43.475271799431724" lon="10.759964334084902"><ele>109.57142857142858</ele><time>2026-04-19T11:43:49.001Z</time></trkpt><trkpt lat="43.47526588618994" lon="10.75986485108873"><ele>110.42857142857143</ele><time>2026-04-19T11:43:50.001Z</time></trkpt><trkpt lat="43.47525980811782" lon="10.759762595018715"><ele>111.28571428571428</ele><time>2026-04-19T11:43:51.001Z</time></trkpt><trkpt lat="43.47525439311272" lon="10.759671494224362"><ele>112.14285714285715</ele><time>2026-04-19T11:43:52.001Z</time></trkpt><trkpt lat="43.47523572961383" lon="10.759577094102788"><ele>113.0</ele><time>2026-04-19T11:43:53.001Z</time></trkpt><trkpt lat="43.47524053521941" lon="10.75947601788403"><ele>113.4</ele><time>2026-04-19T11:43:54.001Z</time></trkpt><trkpt lat="43.47522921844211" lon="10.759316330572442"><ele>113.80000000000001</ele><time>2026-04-19T11:43:56.001Z</time></trkpt><trkpt lat="43.475222365222066" lon="10.759170070069443"><ele>114.2</ele><time>2026-04-19T11:43:58.001Z</time></trkpt><trkpt lat="43.475214453098765" lon="10.759058805573417"><ele>114.6</ele><time>2026-04-19T11:44:00.001Z</time></trkpt><trkpt lat="43.47521698371212" lon="10.758944044477886"><ele>115.0</ele><time>2026-04-19T11:44:02.001Z</time></trkpt><trkpt lat="43.475206947426884" lon="10.758833024496079"><ele>115.0</ele><time>2026-04-19T11:44:04.001Z</time></trkpt><trkpt lat="43.47519520598069" lon="10.758703142155918"><ele>115.0</ele><time>2026-04-19T11:44:06.001Z</time></trkpt><trkpt lat="43.47516236815047" lon="10.758582119361781"><ele>115.0</ele><time>2026-04-19T11:44:08.001Z</time></trkpt><trkpt lat="43.47513411166657" lon="10.7584513075176"><ele>115.0</ele><time>2026-04-19T11:44:10.001Z</time></trkpt><trkpt lat="43.47510164599247" lon="10.758324971478135"><ele>115.0</ele><time>2026-04-19T11:44:12.002Z</time></trkpt><trkpt lat="43.475064031776085" lon="10.75819776748844"><ele>116.00000000000001</ele><time>2026-04-19T11:44:14.002Z</time></trkpt><trkpt lat="43.47499520793825" lon="10.758052011375424"><ele>117.0</ele><time>2026-04-19T11:44:16.002Z</time></trkpt><trkpt lat="43.47493569071198" lon="10.758002086266684"><ele>118.0</ele><time>2026-04-19T11:44:17.002Z</time></trkpt><trkpt lat="43.47488228023972" lon="10.757927319753826"><ele>119.0</ele><time>2026-04-19T11:44:18.002Z</time></trkpt><trkpt lat="43.474827201833406" lon="10.757862414533198"><ele>120.00000000000001</ele><time>2026-04-19T11:44:19.002Z</time></trkpt><trkpt lat="43.474765388505425" lon="10.757801665737416"><ele>121.0</ele><time>2026-04-19T11:44:20.002Z</time></trkpt><trkpt lat="43.47470834154141" lon="10.757743898133795"><ele>120.42857142857142</ele><time>2026-04-19T11:44:21.002Z</time></trkpt><trkpt lat="43.47464947812495" lon="10.757689127638047"><ele>119.85714285714285</ele><time>2026-04-19T11:44:22.002Z</time></trkpt><trkpt lat="43.47459215482241" lon="10.757633602260293"><ele>119.28571428571428</ele><time>2026-04-19T11:44:23.002Z</time></trkpt><trkpt lat="43.474528532222486" lon="10.757573725942594"><ele>118.71428571428572</ele><time>2026-04-19T11:44:24.002Z</time></trkpt><trkpt lat="43.4744692851285" lon="10.757514194235116"><ele>118.14285714285715</ele><time>2026-04-19T11:44:25.002Z</time></trkpt><trkpt lat="43.47440949497283" lon="10.75745822117675"><ele>117.57142857142858</ele><time>2026-04-19T11:44:26.002Z</time></trkpt><trkpt lat="43.47435101030006" lon="10.757405297915074"><ele>117.0</ele><time>2026-04-19T11:44:27.002Z</time></trkpt><trkpt lat="43.47429276125295" lon="10.757346128058678"><ele>118.57142857142858</ele><time>2026-04-19T11:44:29.002Z</time></trkpt><trkpt lat="43.47424098908769" lon="10.757294712323654"><ele>120.14285714285715</ele><time>2026-04-19T11:44:47.002Z</time></trkpt><trkpt lat="43.47415760733607" lon="10.757215240726593"><ele>121.71428571428572</ele><time>2026-04-19T11:44:49.002Z</time></trkpt><trkpt lat="43.47410721941191" lon="10.757163226448922"><ele>123.28571428571428</ele><time>2026-04-19T11:44:50.002Z</time></trkpt><trkpt lat="43.47405618481039" lon="10.75710587821047"><ele>124.85714285714285</ele><time>2026-04-19T11:44:51.002Z</time></trkpt><trkpt lat="43.47399121992104" lon="10.75704641242984"><ele>126.42857142857142</ele><time>2026-04-19T11:44:52.002Z</time></trkpt><trkpt lat="43.473932216305265" lon="10.756978229654433"><ele>128.0</ele><time>2026-04-19T11:44:53.002Z</time></trkpt><trkpt lat="43.47387368246632" lon="10.756903665445906"><ele>127.66666666666666</ele><time>2026-04-19T11:44:54.002Z</time></trkpt><trkpt lat="43.47382008518291" lon="10.756821067202921"><ele>127.33333333333333</ele><time>2026-04-19T11:44:55.002Z</time></trkpt><trkpt lat="43.473771488925856" lon="10.756737532753641"><ele>127.0</ele><time>2026-04-19T11:44:56.002Z</time></trkpt><trkpt lat="43.47372404022226" lon="10.756643731306172"><ele>126.66666666666666</ele><time>2026-04-19T11:44:57.002Z</time></trkpt><trkpt lat="43.47367839928139" lon="10.756534073317617"><ele>126.33333333333333</ele><time>2026-04-19T11:44:58.002Z</time></trkpt><trkpt lat="43.47365264156256" lon="10.756406921178618"><ele>126.0</ele><time>2026-04-19T11:44:59.002Z</time></trkpt><trkpt lat="43.473616015896226" lon="10.756284635077035"><ele>126.0</ele><time>2026-04-19T11:45:00.002Z</time></trkpt><trkpt lat="43.47356125186234" lon="10.756158012748552"><ele>126.0</ele><time>2026-04-19T11:45:01.002Z</time></trkpt><trkpt lat="43.47353521537729" lon="10.756009248395491"><ele>126.0</ele><time>2026-04-19T11:45:02.001Z</time></trkpt><trkpt lat="43.4734918130381" lon="10.755862499747202"><ele>126.0</ele><time>2026-04-19T11:45:03.001Z</time></trkpt><trkpt lat="43.473447462688" lon="10.755712545753122"><ele>126.0</ele><time>2026-04-19T11:45:04.001Z</time></trkpt><trkpt lat="43.47339777084533" lon="10.755548458712656"><ele>126.0</ele><time>2026-04-19T11:45:05.001Z</time></trkpt><trkpt lat="43.47334263761551" lon="10.755381539651678"><ele>126.0</ele><time>2026-04-19T11:45:06.001Z</time></trkpt><trkpt lat="43.47328181230113" lon="10.755211032807422"><ele>126.0</ele><time>2026-04-19T11:45:07.001Z</time></trkpt><trkpt lat="43.4732213949378" lon="10.755049049128885"><ele>126.0</ele><time>2026-04-19T11:45:08.001Z</time></trkpt><trkpt lat="43.47315876563748" lon="10.754881135065018"><ele>126.0</ele><time>2026-04-19T11:45:09.001Z</time></trkpt><trkpt lat="43.47309467966156" lon="10.754709915006831"><ele>126.0</ele><time>2026-04-19T11:45:10.001Z</time></trkpt><trkpt lat="43.47302823347644" lon="10.754536567555391"><ele>126.0</ele><time>2026-04-19T11:45:11.001Z</time></trkpt><trkpt lat="43.472963178284935" lon="10.754362369489968"><ele>125.66666666666666</ele><time>2026-04-19T11:45:12.001Z</time></trkpt><trkpt lat="43.472888246765336" lon="10.754190782649484"><ele>125.33333333333333</ele><time>2026-04-19T11:45:13.001Z</time></trkpt><trkpt lat="43.472828711401945" lon="10.75400109833272"><ele>125.0</ele><time>2026-04-19T11:45:14.001Z</time></trkpt><trkpt lat="43.47278455365387" lon="10.753785869322677"><ele>125.0</ele><time>2026-04-19T11:45:15.001Z</time></trkpt><trkpt lat="43.47271907103158" lon="10.753578692047121"><ele>125.0</ele><time>2026-04-19T11:45:16.001Z</time></trkpt><trkpt lat="43.47267805425418" lon="10.753374316682955"><ele>125.0</ele><time>2026-04-19T11:45:17.001Z</time></trkpt><trkpt lat="43.47261854052471" lon="10.753150517957664"><ele>125.33333333333333</ele><time>2026-04-19T11:45:18.001Z</time></trkpt><trkpt lat="43.47255728186456" lon="10.752929882136678"><ele>125.66666666666666</ele><time>2026-04-19T11:45:19.001Z</time></trkpt><trkpt lat="43.47249167020781" lon="10.752694114828724"><ele>126.0</ele><time>2026-04-19T11:45:20.001Z</time></trkpt><trkpt lat="43.47241919277849" lon="10.752433676268167"><ele>126.0</ele><time>2026-04-19T11:45:21.001Z</time></trkpt><trkpt lat="43.47235790018155" lon="10.752212798946038"><ele>126.0</ele><time>2026-04-19T11:45:22.001Z</time></trkpt><trkpt lat="43.4723075189314" lon="10.752031095250562"><ele>126.0</ele><time>2026-04-19T11:45:23.001Z</time></trkpt><trkpt lat="43.47227295539494" lon="10.75190009428453"><ele>126.0</ele><time>2026-04-19T11:45:24.001Z</time></trkpt><trkpt lat="43.47224453508791" lon="10.751790958997514"><ele>125.66666666666667</ele><time>2026-04-19T11:45:25.001Z</time></trkpt><trkpt lat="43.4722212321895" lon="10.751700627530777"><ele>125.33333333333334</ele><time>2026-04-19T11:45:26.001Z</time></trkpt><trkpt lat="43.47219687743624" lon="10.75160621865411"><ele>125.0</ele><time>2026-04-19T11:45:27.001Z</time></trkpt><trkpt lat="43.47217314804592" lon="10.751511800323941"><ele>124.66666666666667</ele><time>2026-04-19T11:45:28.001Z</time></trkpt><trkpt lat="43.472147898463135" lon="10.751411519491391"><ele>124.33333333333334</ele><time>2026-04-19T11:45:29.001Z</time></trkpt><trkpt lat="43.472126637804465" lon="10.751327080969071"><ele>124.0</ele><time>2026-04-19T11:45:30.001Z</time></trkpt><trkpt lat="43.472085433284164" lon="10.751166400986339"><ele>123.80000000000001</ele><time>2026-04-19T11:45:32.001Z</time></trkpt><trkpt lat="43.4720456127074" lon="10.751013676742035"><ele>123.60000000000001</ele><time>2026-04-19T11:45:34.001Z</time></trkpt><trkpt lat="43.47200719388022" lon="10.750871521608776"><ele>123.4</ele><time>2026-04-19T11:45:36.001Z</time></trkpt><trkpt lat="43.471970425815734" lon="10.750738450438087"><ele>123.2</ele><time>2026-04-19T11:45:38.001Z</time></trkpt><trkpt lat="43.47193094222874" lon="10.75060713346261"><ele>123.0</ele><time>2026-04-19T11:45:40.001Z</time></trkpt><trkpt lat="43.47187846645674" lon="10.750488393393685"><ele>123.0</ele><time>2026-04-19T11:45:42.001Z</time></trkpt><trkpt lat="43.47184195320982" lon="10.75034771802129"><ele>123.00000000000001</ele><time>2026-04-19T11:45:44.001Z</time></trkpt><trkpt lat="43.47180516744348" lon="10.750198701335846"><ele>123.00000000000001</ele><time>2026-04-19T11:45:46.001Z</time></trkpt><trkpt lat="43.47177322983959" lon="10.750120341221814"><ele>123.0</ele><time>2026-04-19T11:45:47.001Z</time></trkpt><trkpt lat="43.47171298438867" lon="10.749969718180873"><ele>123.0</ele><time>2026-04-19T11:45:49.001Z</time></trkpt><trkpt lat="43.47168388280791" lon="10.7498880468581"><ele>123.0</ele><time>2026-04-19T11:45:50.001Z</time></trkpt><trkpt lat="43.47166189191928" lon="10.749779400770278"><ele>123.0</ele><time>2026-04-19T11:45:51.001Z</time></trkpt><trkpt lat="43.47162708643531" lon="10.74968276560288"><ele>123.0</ele><time>2026-04-19T11:45:52.001Z</time></trkpt><trkpt lat="43.471587595760184" lon="10.74957516015705"><ele>123.0</ele><time>2026-04-19T11:45:53.001Z</time></trkpt><trkpt lat="43.47154310392323" lon="10.749458324454046"><ele>123.0</ele><time>2026-04-19T11:45:54.001Z</time></trkpt><trkpt lat="43.47149686594264" lon="10.749342483022048"><ele>123.0</ele><time>2026-04-19T11:45:55.001Z</time></trkpt><trkpt lat="43.471436962505116" lon="10.749232903934521"><ele>122.60000000000001</ele><time>2026-04-19T11:45:56.001Z</time></trkpt><trkpt lat="43.47139673726068" lon="10.749121301411794"><ele>122.20000000000002</ele><time>2026-04-19T11:45:57.001Z</time></trkpt><trkpt lat="43.47134636746744" lon="10.74900316437628"><ele>121.8</ele><time>2026-04-19T11:45:58.001Z</time></trkpt><trkpt lat="43.471294531318065" lon="10.748895230884099"><ele>121.4</ele><time>2026-04-19T11:45:59.001Z</time></trkpt><trkpt lat="43.47123828460481" lon="10.748794092504404"><ele>121.0</ele><time>2026-04-19T11:46:00.001Z</time></trkpt><trkpt lat="43.47117325235371" lon="10.748705855886618"><ele>121.19999999999999</ele><time>2026-04-19T11:46:01.001Z</time></trkpt><trkpt lat="43.471088064620396" lon="10.748620063561777"><ele>121.39999999999999</ele><time>2026-04-19T11:46:02.001Z</time></trkpt><trkpt lat="43.471005028838846" lon="10.748526171816334"><ele>121.6</ele><time>2026-04-19T11:46:03.001Z</time></trkpt><trkpt lat="43.470915090576135" lon="10.748462194350786"><ele>121.8</ele><time>2026-04-19T11:46:04.001Z</time></trkpt><trkpt lat="43.470826886894706" lon="10.748403675145235"><ele>122.0</ele><time>2026-04-19T11:46:05.001Z</time></trkpt><trkpt lat="43.47074225935122" lon="10.748350517977993"><ele>122.0</ele><time>2026-04-19T11:46:06.001Z</time></trkpt><trkpt lat="43.47065114202487" lon="10.748298508234873"><ele>121.99999999999999</ele><time>2026-04-19T11:46:07.001Z</time></trkpt><trkpt lat="43.47055885676986" lon="10.748254592740212"><ele>121.99999999999999</ele><time>2026-04-19T11:46:08.001Z</time></trkpt><trkpt lat="43.470462774440996" lon="10.74821104802269"><ele>122.0</ele><time>2026-04-19T11:46:09.001Z</time></trkpt><trkpt lat="43.470369831761325" lon="10.748160712239791"><ele>122.0</ele><time>2026-04-19T11:46:10.001Z</time></trkpt><trkpt lat="43.47027576168432" lon="10.748116823864816"><ele>121.8</ele><time>2026-04-19T11:46:11.001Z</time></trkpt><trkpt lat="43.4701934634999" lon="10.748040823037671"><ele>121.6</ele><time>2026-04-19T11:46:12.001Z</time></trkpt><trkpt lat="43.47010497277619" lon="10.74798321999819"><ele>121.39999999999999</ele><time>2026-04-19T11:46:13.001Z</time></trkpt><trkpt lat="43.47001714980256" lon="10.747919340836907"><ele>121.19999999999999</ele><time>2026-04-19T11:46:14.001Z</time></trkpt><trkpt lat="43.46992584298823" lon="10.747849758642534"><ele>121.0</ele><time>2026-04-19T11:46:15.001Z</time></trkpt><trkpt lat="43.469834158494145" lon="10.747775323235775"><ele>121.5</ele><time>2026-04-19T11:46:16.001Z</time></trkpt><trkpt lat="43.46973709855815" lon="10.747689964011263"><ele>122.0</ele><time>2026-04-19T11:46:17.001Z</time></trkpt><trkpt lat="43.46964208509738" lon="10.747604426956086"><ele>122.5</ele><time>2026-04-19T11:46:18.001Z</time></trkpt><trkpt lat="43.46954489665077" lon="10.747516931847537"><ele>123.0</ele><time>2026-04-19T11:46:19.001Z</time></trkpt><trkpt lat="43.46944293373682" lon="10.747425195834582"><ele>124.25</ele><time>2026-04-19T11:46:20.001Z</time></trkpt><trkpt lat="43.46933349120988" lon="10.747326735785908"><ele>125.5</ele><time>2026-04-19T11:46:21.001Z</time></trkpt><trkpt lat="43.46922902494731" lon="10.747232752629307"><ele>126.75</ele><time>2026-04-19T11:46:22.002Z</time></trkpt><trkpt lat="43.46911836037353" lon="10.747133193162933"><ele>128.0</ele><time>2026-04-19T11:46:23.002Z</time></trkpt><trkpt lat="43.46901090987188" lon="10.747036525234007"><ele>128.0</ele><time>2026-04-19T11:46:24.002Z</time></trkpt><trkpt lat="43.46890807002905" lon="10.746939000413233"><ele>128.0</ele><time>2026-04-19T11:46:25.002Z</time></trkpt><trkpt lat="43.46881240816478" lon="10.746833682695842"><ele>128.0</ele><time>2026-04-19T11:46:26.002Z</time></trkpt><trkpt lat="43.46872847528058" lon="10.746706619287703"><ele>128.0</ele><time>2026-04-19T11:46:27.002Z</time></trkpt><trkpt lat="43.46866705524935" lon="10.746568692650197"><ele>129.75</ele><time>2026-04-19T11:46:28.002Z</time></trkpt><trkpt lat="43.46862119486771" lon="10.746400463501491"><ele>131.5</ele><time>2026-04-19T11:46:29.002Z</time></trkpt><trkpt lat="43.46857644794942" lon="10.746219123137422"><ele>133.25</ele><time>2026-04-19T11:46:30.002Z</time></trkpt><trkpt lat="43.468536758608714" lon="10.746044416994401"><ele>135.0</ele><time>2026-04-19T11:46:31.002Z</time></trkpt><trkpt lat="43.46849974363215" lon="10.745875156895421"><ele>135.0</ele><time>2026-04-19T11:46:32.002Z</time></trkpt><trkpt lat="43.46846591815504" lon="10.745716399758216"><ele>135.0</ele><time>2026-04-19T11:46:33.002Z</time></trkpt><trkpt lat="43.46842736357437" lon="10.745553856667284"><ele>135.0</ele><time>2026-04-19T11:46:34.002Z</time></trkpt><trkpt lat="43.4683812942255" lon="10.74541115714348"><ele>135.0</ele><time>2026-04-19T11:46:35.002Z</time></trkpt><trkpt lat="43.46832942643667" lon="10.745279892559758"><ele>133.75</ele><time>2026-04-19T11:46:36.002Z</time></trkpt><trkpt lat="43.46826546235948" lon="10.745154556434441"><ele>132.5</ele><time>2026-04-19T11:46:37.002Z</time></trkpt><trkpt lat="43.46819108141843" lon="10.745037756492948"><ele>131.25</ele><time>2026-04-19T11:46:38.002Z</time></trkpt><trkpt lat="43.46809976220348" lon="10.74493981736957"><ele>130.0</ele><time>2026-04-19T11:46:39.002Z</time></trkpt><trkpt lat="43.46800096141618" lon="10.744854814350076"><ele>132.5</ele><time>2026-04-19T11:46:40.002Z</time></trkpt><trkpt lat="43.46790092960554" lon="10.744776112421166"><ele>135.0</ele><time>2026-04-19T11:46:41.002Z</time></trkpt><trkpt lat="43.46778887068299" lon="10.74471660315103"><ele>137.5</ele><time>2026-04-19T11:46:42.002Z</time></trkpt><trkpt lat="43.46768751693071" lon="10.744629802830998"><ele>140.0</ele><time>2026-04-19T11:46:43.002Z</time></trkpt><trkpt lat="43.46759000607573" lon="10.744556263050884"><ele>140.0</ele><time>2026-04-19T11:46:44.002Z</time></trkpt><trkpt lat="43.46750243797019" lon="10.744498696174464"><ele>140.0</ele><time>2026-04-19T11:46:45.002Z</time></trkpt><trkpt lat="43.467429221062034" lon="10.744438289207647"><ele>140.0</ele><time>2026-04-19T11:46:46.002Z</time></trkpt><trkpt lat="43.46736287797058" lon="10.744373095047303"><ele>140.0</ele><time>2026-04-19T11:46:47.002Z</time></trkpt><trkpt lat="43.46730042200903" lon="10.744297835439111"><ele>140.0</ele><time>2026-04-19T11:46:48.002Z</time></trkpt><trkpt lat="43.46726482600934" lon="10.744191081541487"><ele>140.0</ele><time>2026-04-19T11:46:49.002Z</time></trkpt><trkpt lat="43.467244648071485" lon="10.744075690042116"><ele>139.0</ele><time>2026-04-19T11:46:50.002Z</time></trkpt><trkpt lat="43.467259903037764" lon="10.743946705803605"><ele>138.0</ele><time>2026-04-19T11:46:51.002Z</time></trkpt><trkpt lat="43.46726112378603" lon="10.743795902777741"><ele>137.0</ele><time>2026-04-19T11:46:52.002Z</time></trkpt><trkpt lat="43.467280701554245" lon="10.743636054814042"><ele>136.0</ele><time>2026-04-19T11:46:53.002Z</time></trkpt><trkpt lat="43.46730522107237" lon="10.74347659792664"><ele>135.0</ele><time>2026-04-19T11:46:54.002Z</time></trkpt><trkpt lat="43.46731901187507" lon="10.743316763508977"><ele>134.5</ele><time>2026-04-19T11:46:55.002Z</time></trkpt><trkpt lat="43.46733064379985" lon="10.743159791343277"><ele>134.0</ele><time>2026-04-19T11:46:56.002Z</time></trkpt><trkpt lat="43.46734355375828" lon="10.743006278547728"><ele>133.5</ele><time>2026-04-19T11:46:57.002Z</time></trkpt><trkpt lat="43.46737113010678" lon="10.742860169007505"><ele>133.0</ele><time>2026-04-19T11:46:58.002Z</time></trkpt><trkpt lat="43.46740524118524" lon="10.742708406356812"><ele>133.0</ele><time>2026-04-19T11:46:59.002Z</time></trkpt><trkpt lat="43.46745145001352" lon="10.742549305649721"><ele>133.0</ele><time>2026-04-19T11:47:00.002Z</time></trkpt><trkpt lat="43.46752650574309" lon="10.742400341057634"><ele>133.0</ele><time>2026-04-19T11:47:01.002Z</time></trkpt><trkpt lat="43.467577904498995" lon="10.742215571480976"><ele>133.0</ele><time>2026-04-19T11:47:02.002Z</time></trkpt><trkpt lat="43.46764858525146" lon="10.742034060131262"><ele>133.25</ele><time>2026-04-19T11:47:03.002Z</time></trkpt><trkpt lat="43.467707596034415" lon="10.74184095880129"><ele>133.5</ele><time>2026-04-19T11:47:04.002Z</time></trkpt><trkpt lat="43.46777330827471" lon="10.741667523983017"><ele>133.75</ele><time>2026-04-19T11:47:05.002Z</time></trkpt><trkpt lat="43.46783300230345" lon="10.741510246852757"><ele>134.0</ele><time>2026-04-19T11:47:06.002Z</time></trkpt><trkpt lat="43.46790531452663" lon="10.741379461340738"><ele>133.4</ele><time>2026-04-19T11:47:07.002Z</time></trkpt><trkpt lat="43.46796905014353" lon="10.741260386562011"><ele>132.8</ele><time>2026-04-19T11:47:08.001Z</time></trkpt><trkpt lat="43.46803801743715" lon="10.74114919016342"><ele>132.2</ele><time>2026-04-19T11:47:09.001Z</time></trkpt><trkpt lat="43.46811490715778" lon="10.741045832582989"><ele>131.6</ele><time>2026-04-19T11:47:10.001Z</time></trkpt><trkpt lat="43.46818952384567" lon="10.740957667236339"><ele>131.0</ele><time>2026-04-19T11:47:11.001Z</time></trkpt><trkpt lat="43.46826183846309" lon="10.740867774902052"><ele>131.0</ele><time>2026-04-19T11:47:12.001Z</time></trkpt><trkpt lat="43.468327040369424" lon="10.74076739578952"><ele>131.0</ele><time>2026-04-19T11:47:13.001Z</time></trkpt><trkpt lat="43.468391118690825" lon="10.740648244060324"><ele>131.0</ele><time>2026-04-19T11:47:14.001Z</time></trkpt><trkpt lat="43.46844017863494" lon="10.740508196318684"><ele>131.0</ele><time>2026-04-19T11:47:15.001Z</time></trkpt><trkpt lat="43.46846909822026" lon="10.740348258862173"><ele>131.0</ele><time>2026-04-19T11:47:16.001Z</time></trkpt><trkpt lat="43.468484594400216" lon="10.740190475513565"><ele>131.0</ele><time>2026-04-19T11:47:17.001Z</time></trkpt><trkpt lat="43.46850065101497" lon="10.740046570190994"><ele>131.0</ele><time>2026-04-19T11:47:18.001Z</time></trkpt><trkpt lat="43.46852042393596" lon="10.739904755624043"><ele>131.0</ele><time>2026-04-19T11:47:19.001Z</time></trkpt><trkpt lat="43.468534349234055" lon="10.73976524866559"><ele>131.0</ele><time>2026-04-19T11:47:20.001Z</time></trkpt><trkpt lat="43.468527663574875" lon="10.739635238805675"><ele>131.0</ele><time>2026-04-19T11:47:21.001Z</time></trkpt><trkpt lat="43.46854136627259" lon="10.739518872875502"><ele>131.0</ele><time>2026-04-19T11:47:22.001Z</time></trkpt><trkpt lat="43.4685489598777" lon="10.739412968933678"><ele>131.0</ele><time>2026-04-19T11:47:23.001Z</time></trkpt><trkpt lat="43.468534852468025" lon="10.73931265747164"><ele>131.0</ele><time>2026-04-19T11:47:24.001Z</time></trkpt><trkpt lat="43.4685058752469" lon="10.739225850145687"><ele>131.0</ele><time>2026-04-19T11:47:25.001Z</time></trkpt><trkpt lat="43.46846723740746" lon="10.739143324736107"><ele>131.0</ele><time>2026-04-19T11:47:26.001Z</time></trkpt><trkpt lat="43.468422668393835" lon="10.739064743762425"><ele>131.0</ele><time>2026-04-19T11:47:27.001Z</time></trkpt><trkpt lat="43.46837832936945" lon="10.738990097419064"><ele>131.0</ele><time>2026-04-19T11:47:28.001Z</time></trkpt><trkpt lat="43.468344053555754" lon="10.73891058063031"><ele>131.33333333333331</ele><time>2026-04-19T11:47:29.001Z</time></trkpt><trkpt lat="43.46830522435085" lon="10.738836220842824"><ele>131.66666666666666</ele><time>2026-04-19T11:47:30.001Z</time></trkpt><trkpt lat="43.46825010996035" lon="10.738695390454854"><ele>132.0</ele><time>2026-04-19T11:47:32.001Z</time></trkpt><trkpt lat="43.468210516828464" lon="10.738581763156102"><ele>132.33333333333334</ele><time>2026-04-19T11:47:34.001Z</time></trkpt><trkpt lat="43.468210881695086" lon="10.73847739581322"><ele>132.66666666666669</ele><time>2026-04-19T11:47:36.001Z</time></trkpt><trkpt lat="43.46823311096229" lon="10.73838637046495"><ele>133.0</ele><time>2026-04-19T11:47:38.001Z</time></trkpt><trkpt lat="43.46829344122969" lon="10.738343773349637"><ele>133.57142857142858</ele><time>2026-04-19T11:47:40.001Z</time></trkpt><trkpt lat="43.46834380314905" lon="10.738285221230559"><ele>134.14285714285714</ele><time>2026-04-19T11:47:42.001Z</time></trkpt><trkpt lat="43.468398067386694" lon="10.738233503909548"><ele>134.71428571428572</ele><time>2026-04-19T11:47:44.001Z</time></trkpt><trkpt lat="43.4684536008431" lon="10.73818922450104"><ele>135.28571428571428</ele><time>2026-04-19T11:47:46.001Z</time></trkpt><trkpt lat="43.4685229845873" lon="10.73814282453937"><ele>135.85714285714286</ele><time>2026-04-19T11:47:48.001Z</time></trkpt><trkpt lat="43.46862163925785" lon="10.73808330232111"><ele>136.42857142857144</ele><time>2026-04-19T11:47:50.001Z</time></trkpt><trkpt lat="43.468689346987894" lon="10.738077175164968"><ele>137.0</ele><time>2026-04-19T11:47:51.001Z</time></trkpt><trkpt lat="43.46880376567408" lon="10.738078490630697"><ele>137.42857142857144</ele><time>2026-04-19T11:47:53.001Z</time></trkpt><trkpt lat="43.46887204151535" lon="10.73809846548282"><ele>137.85714285714286</ele><time>2026-04-19T11:47:54.001Z</time></trkpt><trkpt lat="43.46894892257025" lon="10.738096225929537"><ele>138.28571428571428</ele><time>2026-04-19T11:47:55.001Z</time></trkpt><trkpt lat="43.46902486962366" lon="10.738079850268745"><ele>138.71428571428572</ele><time>2026-04-19T11:47:56.001Z</time></trkpt><trkpt lat="43.46909933815366" lon="10.738054230154626"><ele>139.14285714285714</ele><time>2026-04-19T11:47:57.001Z</time></trkpt><trkpt lat="43.469162345252236" lon="10.738001125724075"><ele>139.57142857142858</ele><time>2026-04-19T11:47:58.001Z</time></trkpt><trkpt lat="43.46922509776595" lon="10.737961547840838"><ele>140.0</ele><time>2026-04-19T11:47:59.001Z</time></trkpt><trkpt lat="43.46928318630309" lon="10.737897367926672"><ele>140.0</ele><time>2026-04-19T11:48:00.001Z</time></trkpt><trkpt lat="43.46933994707022" lon="10.737824613073823"><ele>140.0</ele><time>2026-04-19T11:48:01.001Z</time></trkpt><trkpt lat="43.46938865087255" lon="10.737747865655335"><ele>140.0</ele><time>2026-04-19T11:48:02.001Z</time></trkpt><trkpt lat="43.469436156757396" lon="10.737666889096404"><ele>140.0</ele><time>2026-04-19T11:48:03.001Z</time></trkpt><trkpt lat="43.46947606262387" lon="10.737583731258939"><ele>140.0</ele><time>2026-04-19T11:48:04.001Z</time></trkpt><trkpt lat="43.46951767005438" lon="10.737503236363517"><ele>140.0</ele><time>2026-04-19T11:48:05.001Z</time></trkpt><trkpt lat="43.469571678197994" lon="10.737434209292667"><ele>140.0</ele><time>2026-04-19T11:48:06.001Z</time></trkpt><trkpt lat="43.46964103760811" lon="10.737302024722341"><ele>141.8</ele><time>2026-04-19T11:48:08.001Z</time></trkpt><trkpt lat="43.46966440714375" lon="10.737219710344798"><ele>143.6</ele><time>2026-04-19T11:48:09.001Z</time></trkpt><trkpt lat="43.469746352919216" lon="10.737091935146431"><ele>145.4</ele><time>2026-04-19T11:48:11.001Z</time></trkpt><trkpt lat="43.469820959875214" lon="10.736963098235687"><ele>147.2</ele><time>2026-04-19T11:48:13.001Z</time></trkpt><trkpt lat="43.46986727462952" lon="10.736829052305964"><ele>149.0</ele><time>2026-04-19T11:48:15.001Z</time></trkpt><trkpt lat="43.46991872327424" lon="10.736699373998396"><ele>150.2</ele><time>2026-04-19T11:48:17.001Z</time></trkpt><trkpt lat="43.46997235630859" lon="10.736572281152235"><ele>151.4</ele><time>2026-04-19T11:48:19.001Z</time></trkpt><trkpt lat="43.4700283106954" lon="10.736449972141273"><ele>152.6</ele><time>2026-04-19T11:48:21.001Z</time></trkpt><trkpt lat="43.470077371042976" lon="10.736340669679572"><ele>153.8</ele><time>2026-04-19T11:48:23.001Z</time></trkpt><trkpt lat="43.470117207808975" lon="10.736249425715242"><ele>155.0</ele><time>2026-04-19T11:48:25.001Z</time></trkpt><trkpt lat="43.47016300819695" lon="10.736164092837853"><ele>155.0</ele><time>2026-04-19T11:48:27.001Z</time></trkpt><trkpt lat="43.470223121505654" lon="10.736059244667498"><ele>155.0</ele><time>2026-04-19T11:48:29.001Z</time></trkpt><trkpt lat="43.470286899691686" lon="10.735902354577018"><ele>155.0</ele><time>2026-04-19T11:48:31.001Z</time></trkpt><trkpt lat="43.470307368049646" lon="10.735801193592577"><ele>155.0</ele><time>2026-04-19T11:48:32.001Z</time></trkpt><trkpt lat="43.470321631334684" lon="10.735679566733923"><ele>155.0</ele><time>2026-04-19T11:48:33.001Z</time></trkpt><trkpt lat="43.47033477270886" lon="10.73556051440946"><ele>156.16666666666666</ele><time>2026-04-19T11:48:34.001Z</time></trkpt><trkpt lat="43.47034759674573" lon="10.73544486923725"><ele>157.33333333333331</ele><time>2026-04-19T11:48:35.001Z</time></trkpt><trkpt lat="43.470360511191664" lon="10.73533903566365"><ele>158.5</ele><time>2026-04-19T11:48:36.001Z</time></trkpt><trkpt lat="43.47037637228129" lon="10.7352354656073"><ele>159.66666666666666</ele><time>2026-04-19T11:48:37.001Z</time></trkpt><trkpt lat="43.470391506936465" lon="10.735124580334283"><ele>160.83333333333334</ele><time>2026-04-19T11:48:38.001Z</time></trkpt><trkpt lat="43.4704127577312" lon="10.73502205488218"><ele>162.0</ele><time>2026-04-19T11:48:39.001Z</time></trkpt><trkpt lat="43.47041571351459" lon="10.734920823592601"><ele>164.66666666666666</ele><time>2026-04-19T11:48:40.001Z</time></trkpt><trkpt lat="43.47041121658848" lon="10.734815090211839"><ele>167.33333333333334</ele><time>2026-04-19T11:48:41.001Z</time></trkpt><trkpt lat="43.47040061257522" lon="10.7347095051196"><ele>170.0</ele><time>2026-04-19T11:48:42.001Z</time></trkpt><trkpt lat="43.47038290214091" lon="10.734597717698454"><ele>172.66666666666669</ele><time>2026-04-19T11:48:43.001Z</time></trkpt><trkpt lat="43.470364203726085" lon="10.734489116051444"><ele>175.33333333333334</ele><time>2026-04-19T11:48:44.002Z</time></trkpt><trkpt lat="43.47034428554372" lon="10.734374934055346"><ele>178.0</ele><time>2026-04-19T11:48:45.002Z</time></trkpt><trkpt lat="43.47032790506281" lon="10.73426046716188"><ele>178.0</ele><time>2026-04-19T11:48:46.002Z</time></trkpt><trkpt lat="43.47032344906362" lon="10.734149047754462"><ele>178.0</ele><time>2026-04-19T11:48:47.002Z</time></trkpt><trkpt lat="43.47033662747233" lon="10.7340424384062"><ele>178.0</ele><time>2026-04-19T11:48:48.002Z</time></trkpt><trkpt lat="43.470348710454346" lon="10.733929771982831"><ele>178.0</ele><time>2026-04-19T11:48:49.002Z</time></trkpt><trkpt lat="43.470363749381995" lon="10.73381240212486"><ele>178.0</ele><time>2026-04-19T11:48:50.002Z</time></trkpt><trkpt lat="43.47037849193159" lon="10.733697345368647"><ele>178.0</ele><time>2026-04-19T11:48:51.002Z</time></trkpt><trkpt lat="43.47037639359039" lon="10.733568938453162"><ele>177.2</ele><time>2026-04-19T11:48:52.002Z</time></trkpt><trkpt lat="43.4703950546841" lon="10.733437589807526"><ele>176.4</ele><time>2026-04-19T11:48:53.002Z</time></trkpt><trkpt lat="43.47040494729223" lon="10.733304913436202"><ele>175.6</ele><time>2026-04-19T11:48:54.002Z</time></trkpt><trkpt lat="43.470411299850504" lon="10.733167878726228"><ele>174.79999999999998</ele><time>2026-04-19T11:48:55.002Z</time></trkpt><trkpt lat="43.47043169012019" lon="10.733029947678997"><ele>174.0</ele><time>2026-04-19T11:48:56.002Z</time></trkpt><trkpt lat="43.470423094697686" lon="10.73289228607255"><ele>175.0</ele><time>2026-04-19T11:48:57.002Z</time></trkpt><trkpt lat="43.470452520481146" lon="10.73275586726762"><ele>176.0</ele><time>2026-04-19T11:48:58.002Z</time></trkpt><trkpt lat="43.47047218759785" lon="10.732617780040382"><ele>177.0</ele><time>2026-04-19T11:48:59.002Z</time></trkpt><trkpt lat="43.4704978436175" lon="10.732474638931391"><ele>178.0</ele><time>2026-04-19T11:49:00.002Z</time></trkpt><trkpt lat="43.47052847783509" lon="10.732314999599346"><ele>179.0</ele><time>2026-04-19T11:49:01.002Z</time></trkpt><trkpt lat="43.47055932317674" lon="10.732154260100987"><ele>184.66666666666666</ele><time>2026-04-19T11:49:02.002Z</time></trkpt><trkpt lat="43.470608984447615" lon="10.731816462198962"><ele>190.33333333333331</ele><time>2026-04-19T11:49:04.002Z</time></trkpt><trkpt lat="43.47063157459262" lon="10.731654442016833"><ele>196.0</ele><time>2026-04-19T11:49:05.002Z</time></trkpt><trkpt lat="43.470655190348026" lon="10.731488692521566"><ele>196.0</ele><time>2026-04-19T11:49:06.002Z</time></trkpt><trkpt lat="43.470669535308296" lon="10.731320716358738"><ele>196.0</ele><time>2026-04-19T11:49:07.002Z</time></trkpt><trkpt lat="43.470692412753905" lon="10.731172989064607"><ele>196.0</ele><time>2026-04-19T11:49:08.002Z</time></trkpt><trkpt lat="43.47071407322901" lon="10.731030414047728"><ele>196.0</ele><time>2026-04-19T11:49:09.002Z</time></trkpt><trkpt lat="43.470728392054006" lon="10.730899451703548"><ele>196.0</ele><time>2026-04-19T11:49:10.002Z</time></trkpt><trkpt lat="43.47073989620182" lon="10.730786223226866"><ele>196.16666666666666</ele><time>2026-04-19T11:49:11.002Z</time></trkpt><trkpt lat="43.470744859989715" lon="10.730680610932017"><ele>196.33333333333331</ele><time>2026-04-19T11:49:12.002Z</time></trkpt><trkpt lat="43.470736645017695" lon="10.730573631184276"><ele>196.5</ele><time>2026-04-19T11:49:13.002Z</time></trkpt><trkpt lat="43.470714415623995" lon="10.73045988084489"><ele>196.66666666666669</ele><time>2026-04-19T11:49:14Z</time></trkpt><trkpt lat="43.470684241071524" lon="10.730346215388158"><ele>196.83333333333334</ele><time>2026-04-19T11:49:15Z</time></trkpt><trkpt lat="43.47065651657708" lon="10.730217778665965"><ele>197.0</ele><time>2026-04-19T11:49:16Z</time></trkpt><trkpt lat="43.47063488476444" lon="10.73009476409512"><ele>197.00000000000003</ele><time>2026-04-19T11:49:17Z</time></trkpt><trkpt lat="43.470606143304096" lon="10.729967061124178"><ele>197.0</ele><time>2026-04-19T11:49:18Z</time></trkpt><trkpt lat="43.47057971243412" lon="10.729844035614315"><ele>197.0</ele><time>2026-04-19T11:49:19Z</time></trkpt><trkpt lat="43.47055442772226" lon="10.729730015704163"><ele>197.0</ele><time>2026-04-19T11:49:20Z</time></trkpt><trkpt lat="43.470521675996665" lon="10.729626187508536"><ele>197.00000000000003</ele><time>2026-04-19T11:49:21Z</time></trkpt><trkpt lat="43.47050339893587" lon="10.729516562382937"><ele>197.0</ele><time>2026-04-19T11:49:22Z</time></trkpt><trkpt lat="43.470484331721735" lon="10.729426626796073"><ele>198.39999999999998</ele><time>2026-04-19T11:49:23Z</time></trkpt><trkpt lat="43.470474161298526" lon="10.729302260464337"><ele>199.79999999999998</ele><time>2026-04-19T11:49:25Z</time></trkpt><trkpt lat="43.47055199461794" lon="10.7292263811688"><ele>201.2</ele><time>2026-04-19T11:49:27Z</time></trkpt><trkpt lat="43.47063461894641" lon="10.729157614351486"><ele>202.6</ele><time>2026-04-19T11:49:29Z</time></trkpt><trkpt lat="43.47073997986265" lon="10.7290644009442"><ele>204.0</ele><time>2026-04-19T11:49:31Z</time></trkpt><trkpt lat="43.470801273689865" lon="10.72900974402319"><ele>204.0</ele><time>2026-04-19T11:49:32Z</time></trkpt><trkpt lat="43.470866423095764" lon="10.728951649012327"><ele>204.0</ele><time>2026-04-19T11:49:33Z</time></trkpt><trkpt lat="43.47093669308353" lon="10.728887938263345"><ele>204.0</ele><time>2026-04-19T11:49:34Z</time></trkpt><trkpt lat="43.470997314734014" lon="10.728805264857447"><ele>204.0</ele><time>2026-04-19T11:49:35Z</time></trkpt><trkpt lat="43.47106572326396" lon="10.728748409374976"><ele>204.0</ele><time>2026-04-19T11:49:36Z</time></trkpt><trkpt lat="43.47113967645025" lon="10.728720229709115"><ele>204.0</ele><time>2026-04-19T11:49:37Z</time></trkpt><trkpt lat="43.47120446783452" lon="10.728689920307867"><ele>204.0</ele><time>2026-04-19T11:49:38Z</time></trkpt><trkpt lat="43.47127157001496" lon="10.728659188997065"><ele>204.0</ele><time>2026-04-19T11:49:39Z</time></trkpt><trkpt lat="43.47134417442902" lon="10.728625937805129"><ele>204.0</ele><time>2026-04-19T11:49:40Z</time></trkpt><trkpt lat="43.47141745444064" lon="10.72859237719325"><ele>204.0</ele><time>2026-04-19T11:49:41Z</time></trkpt><trkpt lat="43.471495011577325" lon="10.728556857689107"><ele>204.0</ele><time>2026-04-19T11:49:42Z</time></trkpt><trkpt lat="43.47156894285022" lon="10.728516228331"><ele>204.0</ele><time>2026-04-19T11:49:43Z</time></trkpt><trkpt lat="43.47164077880383" lon="10.728483103878773"><ele>204.0</ele><time>2026-04-19T11:49:44Z</time></trkpt><trkpt lat="43.47170953809107" lon="10.728421477910336"><ele>204.0</ele><time>2026-04-19T11:49:45Z</time></trkpt><trkpt lat="43.47178080447901" lon="10.728395764819737"><ele>204.0</ele><time>2026-04-19T11:49:46Z</time></trkpt><trkpt lat="43.471842997271615" lon="10.728374250518428"><ele>204.0</ele><time>2026-04-19T11:49:47Z</time></trkpt><trkpt lat="43.47196176618945" lon="10.728373750134935"><ele>204.0</ele><time>2026-04-19T11:49:49Z</time></trkpt><trkpt lat="43.472068458845435" lon="10.728387126484497"><ele>204.0</ele><time>2026-04-19T11:49:51.001Z</time></trkpt><trkpt lat="43.47217594886918" lon="10.728387298676525"><ele>204.0</ele><time>2026-04-19T11:49:53.001Z</time></trkpt><trkpt lat="43.47228992091354" lon="10.72837279886056"><ele>204.0</ele><time>2026-04-19T11:49:55.001Z</time></trkpt><trkpt lat="43.47235371413374" lon="10.72834318334408"><ele>204.0</ele><time>2026-04-19T11:49:56.001Z</time></trkpt><trkpt lat="43.47242305579355" lon="10.72830887014196"><ele>204.0</ele><time>2026-04-19T11:49:57.001Z</time></trkpt><trkpt lat="43.47249512082426" lon="10.72826860461131"><ele>204.0</ele><time>2026-04-19T11:49:58.001Z</time></trkpt><trkpt lat="43.47256650566398" lon="10.72821736901205"><ele>204.0</ele><time>2026-04-19T11:49:59.001Z</time></trkpt><trkpt lat="43.47263862369935" lon="10.728167333923432"><ele>204.0</ele><time>2026-04-19T11:50:00.001Z</time></trkpt><trkpt lat="43.47270924003854" lon="10.728114567514286"><ele>204.0</ele><time>2026-04-19T11:50:01.001Z</time></trkpt><trkpt lat="43.47277988953915" lon="10.728060736160346"><ele>204.0</ele><time>2026-04-19T11:50:02.001Z</time></trkpt><trkpt lat="43.47285094061419" lon="10.728007309968069"><ele>204.0</ele><time>2026-04-19T11:50:03.001Z</time></trkpt><trkpt lat="43.4729223794602" lon="10.72796834095196"><ele>204.0</ele><time>2026-04-19T11:50:04.001Z</time></trkpt><trkpt lat="43.47299586195621" lon="10.72793243847987"><ele>204.0</ele><time>2026-04-19T11:50:05.001Z</time></trkpt><trkpt lat="43.473078295139125" lon="10.727918835053272"><ele>203.66666666666666</ele><time>2026-04-19T11:50:06.001Z</time></trkpt><trkpt lat="43.473155878868056" lon="10.727919287357269"><ele>203.33333333333331</ele><time>2026-04-19T11:50:07.001Z</time></trkpt><trkpt lat="43.47323182658627" lon="10.727942257765408"><ele>203.0</ele><time>2026-04-19T11:50:08.001Z</time></trkpt><trkpt lat="43.47331639765909" lon="10.727966155561042"><ele>202.66666666666666</ele><time>2026-04-19T11:50:09.001Z</time></trkpt><trkpt lat="43.47339514337187" lon="10.727993183412107"><ele>202.33333333333331</ele><time>2026-04-19T11:50:10.001Z</time></trkpt><trkpt lat="43.473484089686046" lon="10.728014297971864"><ele>202.0</ele><time>2026-04-19T11:50:11.001Z</time></trkpt><trkpt lat="43.473570093604415" lon="10.728042633715125"><ele>201.99999999999997</ele><time>2026-04-19T11:50:12.001Z</time></trkpt><trkpt lat="43.473654620634896" lon="10.7280746624408"><ele>202.0</ele><time>2026-04-19T11:50:13.001Z</time></trkpt><trkpt lat="43.47373648617034" lon="10.728103741682679"><ele>202.0</ele><time>2026-04-19T11:50:14.001Z</time></trkpt><trkpt lat="43.47382508853987" lon="10.728133005146216"><ele>202.0</ele><time>2026-04-19T11:50:15.001Z</time></trkpt><trkpt lat="43.47392299404562" lon="10.728150396609433"><ele>201.99999999999997</ele><time>2026-04-19T11:50:16.001Z</time></trkpt><trkpt lat="43.4739962628279" lon="10.728197254344497"><ele>202.0</ele><time>2026-04-19T11:50:17.001Z</time></trkpt><trkpt lat="43.47407890533725" lon="10.72822318725217"><ele>203.49999999999997</ele><time>2026-04-19T11:50:18.001Z</time></trkpt><trkpt lat="43.47416909704158" lon="10.728249495542096"><ele>205.0</ele><time>2026-04-19T11:50:19.001Z</time></trkpt><trkpt lat="43.474246137286094" lon="10.728271268144734"><ele>206.5</ele><time>2026-04-19T11:50:20.001Z</time></trkpt><trkpt lat="43.47434134033981" lon="10.728298173802912"><ele>208.0</ele><time>2026-04-19T11:50:21.001Z</time></trkpt><trkpt lat="43.47443075802966" lon="10.728306923043858"><ele>209.49999999999997</ele><time>2026-04-19T11:50:22.001Z</time></trkpt><trkpt lat="43.4745019951636" lon="10.728326847455868"><ele>211.0</ele><time>2026-04-19T11:50:23.001Z</time></trkpt><trkpt lat="43.47457679805058" lon="10.728350978134593"><ele>211.42857142857144</ele><time>2026-04-19T11:50:24.001Z</time></trkpt><trkpt lat="43.474645549741446" lon="10.728371439243192"><ele>211.85714285714286</ele><time>2026-04-19T11:50:25.001Z</time></trkpt><trkpt lat="43.47471515644022" lon="10.728378111764538"><ele>212.28571428571428</ele><time>2026-04-19T11:50:26.001Z</time></trkpt><trkpt lat="43.47478743228619" lon="10.728377790826396"><ele>212.71428571428572</ele><time>2026-04-19T11:50:27.001Z</time></trkpt><trkpt lat="43.47485935067155" lon="10.728372958276443"><ele>213.14285714285714</ele><time>2026-04-19T11:50:28.001Z</time></trkpt><trkpt lat="43.47493786144753" lon="10.728370756546061"><ele>213.57142857142858</ele><time>2026-04-19T11:50:29.001Z</time></trkpt><trkpt lat="43.47500853094596" lon="10.728368139469088"><ele>214.0</ele><time>2026-04-19T11:50:30.001Z</time></trkpt><trkpt lat="43.47507672951936" lon="10.72836350064368"><ele>214.0</ele><time>2026-04-19T11:50:31.001Z</time></trkpt><trkpt lat="43.475187367060975" lon="10.728371882423444"><ele>213.99999999999997</ele><time>2026-04-19T11:50:33.001Z</time></trkpt><trkpt lat="43.475268108024544" lon="10.728430753941305"><ele>213.99999999999997</ele><time>2026-04-19T11:50:35.001Z</time></trkpt><trkpt lat="43.47534944219179" lon="10.728461626639778"><ele>214.0</ele><time>2026-04-19T11:50:37.001Z</time></trkpt><trkpt lat="43.475430791307254" lon="10.728496388558579"><ele>214.0</ele><time>2026-04-19T11:50:40.001Z</time></trkpt><trkpt lat="43.47551316239595" lon="10.728522228219184"><ele>212.2</ele><time>2026-04-19T11:50:42.001Z</time></trkpt><trkpt lat="43.47560558155561" lon="10.72856359622427"><ele>210.39999999999998</ele><time>2026-04-19T11:50:44.001Z</time></trkpt><trkpt lat="43.47571081576202" lon="10.728615970440927"><ele>208.6</ele><time>2026-04-19T11:50:46.001Z</time></trkpt><trkpt lat="43.475834804911415" lon="10.728680987834972"><ele>206.8</ele><time>2026-04-19T11:50:48.001Z</time></trkpt><trkpt lat="43.4758980040333" lon="10.728709508543252"><ele>205.0</ele><time>2026-04-19T11:50:49.001Z</time></trkpt><trkpt lat="43.47595790368681" lon="10.728756033498163"><ele>205.0</ele><time>2026-04-19T11:50:50.001Z</time></trkpt><trkpt lat="43.47603511569867" lon="10.728781297612539"><ele>205.0</ele><time>2026-04-19T11:50:51.001Z</time></trkpt><trkpt lat="43.476104912967365" lon="10.728817875457123"><ele>205.0</ele><time>2026-04-19T11:50:52.001Z</time></trkpt><trkpt lat="43.47616667596706" lon="10.728871258055822"><ele>205.0</ele><time>2026-04-19T11:50:53.001Z</time></trkpt><trkpt lat="43.47622936654802" lon="10.72892326112725"><ele>205.0</ele><time>2026-04-19T11:50:54.001Z</time></trkpt><trkpt lat="43.47627918498161" lon="10.728989846437743"><ele>205.0</ele><time>2026-04-19T11:50:55.001Z</time></trkpt><trkpt lat="43.476335116423414" lon="10.729037371193959"><ele>205.0</ele><time>2026-04-19T11:50:56.001Z</time></trkpt><trkpt lat="43.47639361398123" lon="10.729084611746243"><ele>205.2</ele><time>2026-04-19T11:50:57.001Z</time></trkpt><trkpt lat="43.47649953441507" lon="10.729173235130766"><ele>205.4</ele><time>2026-04-19T11:50:59.001Z</time></trkpt><trkpt lat="43.476614224471774" lon="10.72923455284297"><ele>205.60000000000002</ele><time>2026-04-19T11:51:01.001Z</time></trkpt><trkpt lat="43.47673790926434" lon="10.729267429561771"><ele>205.8</ele><time>2026-04-19T11:51:03.001Z</time></trkpt><trkpt lat="43.47680101889024" lon="10.7292833255955"><ele>206.0</ele><time>2026-04-19T11:51:04.001Z</time></trkpt><trkpt lat="43.47686278510137" lon="10.729300869121186"><ele>206.00000000000003</ele><time>2026-04-19T11:51:05.001Z</time></trkpt><trkpt lat="43.476974271422485" lon="10.72932666353566"><ele>206.0</ele><time>2026-04-19T11:51:07.001Z</time></trkpt><trkpt lat="43.47703687579288" lon="10.729407215548097"><ele>206.0</ele><time>2026-04-19T11:51:09.002Z</time></trkpt><trkpt lat="43.47705634945545" lon="10.729551467754227"><ele>206.0</ele><time>2026-04-19T11:51:11.002Z</time></trkpt><trkpt lat="43.477056906790835" lon="10.729644255782713"><ele>206.00000000000003</ele><time>2026-04-19T11:51:12.002Z</time></trkpt><trkpt lat="43.47706073442608" lon="10.729748891851713"><ele>206.0</ele><time>2026-04-19T11:51:13.002Z</time></trkpt><trkpt lat="43.4770667919126" lon="10.729860441039293"><ele>205.00000000000003</ele><time>2026-04-19T11:51:14.002Z</time></trkpt><trkpt lat="43.47710791538759" lon="10.729964522420417"><ele>204.0</ele><time>2026-04-19T11:51:15.002Z</time></trkpt><trkpt lat="43.47712866250373" lon="10.73007816719393"><ele>203.0</ele><time>2026-04-19T11:51:16.002Z</time></trkpt><trkpt lat="43.477174138567" lon="10.730179869510316"><ele>202.0</ele><time>2026-04-19T11:51:17.002Z</time></trkpt><trkpt lat="43.477233020555786" lon="10.730278964755211"><ele>201.00000000000003</ele><time>2026-04-19T11:51:18.002Z</time></trkpt><trkpt lat="43.47725858387172" lon="10.730383971047281"><ele>200.0</ele><time>2026-04-19T11:51:19.002Z</time></trkpt><trkpt lat="43.47730896665018" lon="10.730496921124484"><ele>198.0</ele><time>2026-04-19T11:51:20Z</time></trkpt><trkpt lat="43.477331441825136" lon="10.730627698832485"><ele>196.0</ele><time>2026-04-19T11:51:21Z</time></trkpt><trkpt lat="43.47734651163072" lon="10.730763621979477"><ele>194.0</ele><time>2026-04-19T11:51:22Z</time></trkpt><trkpt lat="43.477356545872865" lon="10.730899977577232"><ele>192.0</ele><time>2026-04-19T11:51:23Z</time></trkpt><trkpt lat="43.477366596981305" lon="10.731043019846508"><ele>190.0</ele><time>2026-04-19T11:51:24Z</time></trkpt><trkpt lat="43.477380642910475" lon="10.73118991879013"><ele>188.4</ele><time>2026-04-19T11:51:25Z</time></trkpt><trkpt lat="43.477397492878104" lon="10.731331363369431"><ele>186.8</ele><time>2026-04-19T11:51:26Z</time></trkpt><trkpt lat="43.477421897015596" lon="10.731465026130172"><ele>185.2</ele><time>2026-04-19T11:51:27Z</time></trkpt><trkpt lat="43.47743251241891" lon="10.73159274635796"><ele>183.6</ele><time>2026-04-19T11:51:28Z</time></trkpt><trkpt lat="43.47747958935198" lon="10.73171315511856"><ele>182.0</ele><time>2026-04-19T11:51:29Z</time></trkpt><trkpt lat="43.47752277205335" lon="10.731813878201018"><ele>182.0</ele><time>2026-04-19T11:51:30Z</time></trkpt><trkpt lat="43.47757962494721" lon="10.73189357177985"><ele>182.0</ele><time>2026-04-19T11:51:31Z</time></trkpt><trkpt lat="43.47764432473209" lon="10.731931640002147"><ele>182.0</ele><time>2026-04-19T11:51:32Z</time></trkpt><trkpt lat="43.477753488430515" lon="10.731963365344027"><ele>182.0</ele><time>2026-04-19T11:51:34Z</time></trkpt><trkpt lat="43.47782670623671" lon="10.731943772749863"><ele>182.0</ele><time>2026-04-19T11:51:36Z</time></trkpt><trkpt lat="43.47791648094463" lon="10.731884673651365"><ele>182.0</ele><time>2026-04-19T11:51:38Z</time></trkpt><trkpt lat="43.47797477134022" lon="10.731831061154637"><ele>179.66666666666666</ele><time>2026-04-19T11:51:39Z</time></trkpt><trkpt lat="43.47803093043592" lon="10.731761558372167"><ele>177.33333333333331</ele><time>2026-04-19T11:51:40Z</time></trkpt><trkpt lat="43.47807803046546" lon="10.73166537434292"><ele>175.0</ele><time>2026-04-19T11:51:42Z</time></trkpt><trkpt lat="43.47810592688905" lon="10.731545891099803"><ele>172.66666666666666</ele><time>2026-04-19T11:51:45Z</time></trkpt><trkpt lat="43.47814390447177" lon="10.731404860809626"><ele>170.33333333333334</ele><time>2026-04-19T11:51:47Z</time></trkpt><trkpt lat="43.478149340740444" lon="10.731301592464133"><ele>168.0</ele><time>2026-04-19T11:51:48Z</time></trkpt><trkpt lat="43.478156760867144" lon="10.731195479473499"><ele>168.0</ele><time>2026-04-19T11:51:49Z</time></trkpt><trkpt lat="43.478184870000106" lon="10.731085745120255"><ele>168.0</ele><time>2026-04-19T11:51:50Z</time></trkpt><trkpt lat="43.47819789511769" lon="10.73097866277054"><ele>168.0</ele><time>2026-04-19T11:51:51Z</time></trkpt><trkpt lat="43.4782099476904" lon="10.73088421343162"><ele>168.0</ele><time>2026-04-19T11:51:52Z</time></trkpt><trkpt lat="43.47824336916029" lon="10.730732152180602"><ele>168.0</ele><time>2026-04-19T11:51:54Z</time></trkpt><trkpt lat="43.478292825662585" lon="10.730667044810602"><ele>168.0</ele><time>2026-04-19T11:51:55Z</time></trkpt><trkpt lat="43.478365758238546" lon="10.730644696030039"><ele>169.0</ele><time>2026-04-19T11:51:56Z</time></trkpt><trkpt lat="43.47844082870281" lon="10.730622426791184"><ele>170.0</ele><time>2026-04-19T11:51:57Z</time></trkpt><trkpt lat="43.478523929427595" lon="10.730591962668903"><ele>171.0</ele><time>2026-04-19T11:51:58Z</time></trkpt><trkpt lat="43.478604762079726" lon="10.730538300552643"><ele>172.0</ele><time>2026-04-19T11:51:59Z</time></trkpt><trkpt lat="43.4786913039617" lon="10.730505485184032"><ele>173.0</ele><time>2026-04-19T11:52:00Z</time></trkpt><trkpt lat="43.47876948806828" lon="10.730471897296614"><ele>174.0</ele><time>2026-04-19T11:52:01Z</time></trkpt><trkpt lat="43.47883962119297" lon="10.730433878005591"><ele>171.39999999999998</ele><time>2026-04-19T11:52:02Z</time></trkpt><trkpt lat="43.47889705788681" lon="10.73039386065883"><ele>168.8</ele><time>2026-04-19T11:52:03Z</time></trkpt><trkpt lat="43.47899741905048" lon="10.73027407364387"><ele>166.2</ele><time>2026-04-19T11:52:05Z</time></trkpt><trkpt lat="43.47904427746319" lon="10.730177908670935"><ele>163.60000000000002</ele><time>2026-04-19T11:52:06Z</time></trkpt><trkpt lat="43.47908993507383" lon="10.730068148234656"><ele>161.0</ele><time>2026-04-19T11:52:07Z</time></trkpt><trkpt lat="43.47913043818759" lon="10.729951181603974"><ele>161.0</ele><time>2026-04-19T11:52:08Z</time></trkpt><trkpt lat="43.47915546830214" lon="10.729841737123511"><ele>161.0</ele><time>2026-04-19T11:52:09Z</time></trkpt><trkpt lat="43.47918170521571" lon="10.729754371212316"><ele>161.0</ele><time>2026-04-19T11:52:10.001Z</time></trkpt><trkpt lat="43.47925115804512" lon="10.729674104442902"><ele>161.0</ele><time>2026-04-19T11:52:12.001Z</time></trkpt><trkpt lat="43.479313006465716" lon="10.729611151550552"><ele>161.0</ele><time>2026-04-19T11:52:14.001Z</time></trkpt><trkpt lat="43.479275738899844" lon="10.729515507470751"><ele>161.0</ele><time>2026-04-19T11:52:16.001Z</time></trkpt><trkpt lat="43.479295051975654" lon="10.729634111207776"><ele>161.0</ele><time>2026-04-19T11:52:17.001Z</time></trkpt><trkpt lat="43.479229144648706" lon="10.729677701028251"><ele>161.0</ele><time>2026-04-19T11:52:21.001Z</time></trkpt><trkpt lat="43.479169460563384" lon="10.729739909763904"><ele>161.0</ele><time>2026-04-19T11:52:24.001Z</time></trkpt><trkpt lat="43.47913232582667" lon="10.729862699037286"><ele>161.0</ele><time>2026-04-19T11:52:26.001Z</time></trkpt><trkpt lat="43.47909139445821" lon="10.7300005895453"><ele>161.0</ele><time>2026-04-19T11:52:28.001Z</time></trkpt><trkpt lat="43.47906325485719" lon="10.730078445264422"><ele>161.0</ele><time>2026-04-19T11:52:29.001Z</time></trkpt><trkpt lat="43.47902958452159" lon="10.730159259559631"><ele>159.33333333333331</ele><time>2026-04-19T11:52:30.001Z</time></trkpt><trkpt lat="43.478990230161756" lon="10.730234816168375"><ele>157.66666666666666</ele><time>2026-04-19T11:52:31.001Z</time></trkpt><trkpt lat="43.478939324492885" lon="10.730299009582259"><ele>156.0</ele><time>2026-04-19T11:52:32.001Z</time></trkpt><trkpt lat="43.47880699966702" lon="10.730410590784258"><ele>154.33333333333334</ele><time>2026-04-19T11:52:34.001Z</time></trkpt><trkpt lat="43.47874384336035" lon="10.730446678057413"><ele>152.66666666666669</ele><time>2026-04-19T11:52:35.001Z</time></trkpt><trkpt lat="43.47867321190259" lon="10.730472553630662"><ele>151.0</ele><time>2026-04-19T11:52:36.001Z</time></trkpt><trkpt lat="43.47859596591813" lon="10.730507994648825"><ele>154.83333333333334</ele><time>2026-04-19T11:52:37.001Z</time></trkpt><trkpt lat="43.47852184990835" lon="10.730539622473119"><ele>158.66666666666669</ele><time>2026-04-19T11:52:38.001Z</time></trkpt><trkpt lat="43.4784410360934" lon="10.730569114454493"><ele>162.5</ele><time>2026-04-19T11:52:39.001Z</time></trkpt><trkpt lat="43.47836814756509" lon="10.730600487393403"><ele>166.33333333333334</ele><time>2026-04-19T11:52:40.001Z</time></trkpt><trkpt lat="43.47829255224511" lon="10.730613406313426"><ele>170.16666666666666</ele><time>2026-04-19T11:52:41.001Z</time></trkpt><trkpt lat="43.47822266482648" lon="10.730678329470742"><ele>174.0</ele><time>2026-04-19T11:52:42.001Z</time></trkpt><trkpt lat="43.47818430959864" lon="10.730757047128701"><ele>174.0</ele><time>2026-04-19T11:52:43.001Z</time></trkpt><trkpt lat="43.4781649151006" lon="10.730859713716395"><ele>174.0</ele><time>2026-04-19T11:52:44.001Z</time></trkpt><trkpt lat="43.47816423860118" lon="10.730965321179177"><ele>174.0</ele><time>2026-04-19T11:52:45.001Z</time></trkpt><trkpt lat="43.4781684962199" lon="10.731070790814563"><ele>174.0</ele><time>2026-04-19T11:52:46.001Z</time></trkpt><trkpt lat="43.47815239777925" lon="10.731182728996933"><ele>174.0</ele><time>2026-04-19T11:52:47.001Z</time></trkpt><trkpt lat="43.478132372829144" lon="10.731297498157739"><ele>174.0</ele><time>2026-04-19T11:52:48.001Z</time></trkpt><trkpt lat="43.478106558044296" lon="10.73140407488307"><ele>173.0</ele><time>2026-04-19T11:52:49.001Z</time></trkpt><trkpt lat="43.47809019064775" lon="10.731505579548331"><ele>172.0</ele><time>2026-04-19T11:52:50.001Z</time></trkpt><trkpt lat="43.47803830131974" lon="10.731671618553149"><ele>171.0</ele><time>2026-04-19T11:52:52.001Z</time></trkpt><trkpt lat="43.477989811056496" lon="10.731739188576187"><ele>170.0</ele><time>2026-04-19T11:52:53.001Z</time></trkpt><trkpt lat="43.47794221731978" lon="10.731803869597949"><ele>169.0</ele><time>2026-04-19T11:52:54.001Z</time></trkpt><trkpt lat="43.47780673873152" lon="10.731905980933325"><ele>169.0</ele><time>2026-04-19T11:52:57.001Z</time></trkpt><trkpt lat="43.4777411799529" lon="10.7319228545655"><ele>169.0</ele><time>2026-04-19T11:53:00.001Z</time></trkpt><trkpt lat="43.47775361051578" lon="10.732039980747105"><ele>169.0</ele><time>2026-04-19T11:53:01.001Z</time></trkpt><trkpt lat="43.47778099008289" lon="10.732184274608974"><ele>169.0</ele><time>2026-04-19T11:53:05.001Z</time></trkpt><trkpt lat="43.477803243980595" lon="10.732342051604352"><ele>169.0</ele><time>2026-04-19T11:53:07.001Z</time></trkpt><trkpt lat="43.47781492657301" lon="10.732438541811451"><ele>169.0</ele><time>2026-04-19T11:53:08.001Z</time></trkpt><trkpt lat="43.477822975749945" lon="10.732542983858869"><ele>169.0</ele><time>2026-04-19T11:53:09.001Z</time></trkpt><trkpt lat="43.47783579147921" lon="10.732646360580873"><ele>169.0</ele><time>2026-04-19T11:53:10.001Z</time></trkpt><trkpt lat="43.477847325281274" lon="10.73273481696969"><ele>169.0</ele><time>2026-04-19T11:53:11.001Z</time></trkpt><trkpt lat="43.47788383504502" lon="10.7328085283621"><ele>169.0</ele><time>2026-04-19T11:53:14.001Z</time></trkpt><trkpt lat="43.47786982518109" lon="10.732936356773576"><ele>169.0</ele><time>2026-04-19T11:53:16.001Z</time></trkpt><trkpt lat="43.477883725636474" lon="10.733039205170211"><ele>169.0</ele><time>2026-04-19T11:53:18.001Z</time></trkpt><trkpt lat="43.477904606144264" lon="10.733137805961137"><ele>167.79999999999998</ele><time>2026-04-19T11:53:21.001Z</time></trkpt><trkpt lat="43.477931061100726" lon="10.733232533055027"><ele>166.6</ele><time>2026-04-19T11:53:25.002Z</time></trkpt><trkpt lat="43.47794398845526" lon="10.733339767066466"><ele>165.4</ele><time>2026-04-19T11:53:27Z</time></trkpt><trkpt lat="43.47795838886248" lon="10.73348406633779"><ele>164.2</ele><time>2026-04-19T11:53:29Z</time></trkpt><trkpt lat="43.47797775215536" lon="10.733635233705328"><ele>163.0</ele><time>2026-04-19T11:53:31Z</time></trkpt><trkpt lat="43.47800124205364" lon="10.73376411550959"><ele>163.0</ele><time>2026-04-19T11:53:33Z</time></trkpt><trkpt lat="43.47800292456173" lon="10.733866093049453"><ele>163.0</ele><time>2026-04-19T11:53:37Z</time></trkpt><trkpt lat="43.47801056372821" lon="10.733977117725038"><ele>163.0</ele><time>2026-04-19T11:53:41Z</time></trkpt><trkpt lat="43.47799727992768" lon="10.733887662251268"><ele>163.0</ele><time>2026-04-19T11:54:04Z</time></trkpt><trkpt lat="43.477985899653035" lon="10.733764520498704"><ele>163.0</ele><time>2026-04-19T11:54:06Z</time></trkpt><trkpt lat="43.47797686982258" lon="10.733624818635963"><ele>163.0</ele><time>2026-04-19T11:54:08Z</time></trkpt><trkpt lat="43.47795560703511" lon="10.733486935625727"><ele>163.0</ele><time>2026-04-19T11:54:10Z</time></trkpt><trkpt lat="43.47793754860213" lon="10.733349483709254"><ele>163.0</ele><time>2026-04-19T11:54:12Z</time></trkpt><trkpt lat="43.47791806312574" lon="10.733200343448363"><ele>163.0</ele><time>2026-04-19T11:54:14Z</time></trkpt><trkpt lat="43.47789373840656" lon="10.733084887548392"><ele>163.0</ele><time>2026-04-19T11:54:15Z</time></trkpt><trkpt lat="43.47787800723863" lon="10.732938336215824"><ele>163.0</ele><time>2026-04-19T11:54:17Z</time></trkpt><trkpt lat="43.477861772420944" lon="10.73282702311086"><ele>163.0</ele><time>2026-04-19T11:54:19Z</time></trkpt><trkpt lat="43.47786007139748" lon="10.732731028192045"><ele>163.0</ele><time>2026-04-19T11:54:24.001Z</time></trkpt><trkpt lat="43.47792786281469" lon="10.732787158287136"><ele>163.0</ele><time>2026-04-19T11:54:40.001Z</time></trkpt><trkpt lat="43.47798147544065" lon="10.732900951383225"><ele>163.0</ele><time>2026-04-19T11:54:43.001Z</time></trkpt><trkpt lat="43.478016765544346" lon="10.73299031871967"><ele>163.0</ele><time>2026-04-19T11:54:45.001Z</time></trkpt><trkpt lat="43.47805890782045" lon="10.733066740979218"><ele>163.0</ele><time>2026-04-19T11:54:47.001Z</time></trkpt><trkpt lat="43.47809463731268" lon="10.733141143994553"><ele>163.0</ele><time>2026-04-19T11:54:49.001Z</time></trkpt><trkpt lat="43.478134545005034" lon="10.733221968535402"><ele>163.0</ele><time>2026-04-19T11:54:51.001Z</time></trkpt><trkpt lat="43.478172294585086" lon="10.733312497648662"><ele>163.0</ele><time>2026-04-19T11:54:53.001Z</time></trkpt><trkpt lat="43.478229630582355" lon="10.733383737672666"><ele>163.0</ele><time>2026-04-19T11:54:55.001Z</time></trkpt><trkpt lat="43.47830448922796" lon="10.73342196058004"><ele>163.0</ele><time>2026-04-19T11:54:57.001Z</time></trkpt><trkpt lat="43.478386319899215" lon="10.733481288406841"><ele>163.0</ele><time>2026-04-19T11:54:59.001Z</time></trkpt><trkpt lat="43.478442207785484" lon="10.73358849567942"><ele>162.4</ele><time>2026-04-19T11:55:01.001Z</time></trkpt><trkpt lat="43.4784842748869" lon="10.733734517728157"><ele>161.8</ele><time>2026-04-19T11:55:02.001Z</time></trkpt><trkpt lat="43.478516488473424" lon="10.733847047765627"><ele>161.2</ele><time>2026-04-19T11:55:03.001Z</time></trkpt><trkpt lat="43.47855127919666" lon="10.733962843448978"><ele>160.6</ele><time>2026-04-19T11:55:04.001Z</time></trkpt><trkpt lat="43.47858352623157" lon="10.73408231986971"><ele>160.0</ele><time>2026-04-19T11:55:05.001Z</time></trkpt><trkpt lat="43.47859372885673" lon="10.734195017500179"><ele>160.0</ele><time>2026-04-19T11:55:06.001Z</time></trkpt><trkpt lat="43.47860331833799" lon="10.734301206396175"><ele>160.0</ele><time>2026-04-19T11:55:07.001Z</time></trkpt><trkpt lat="43.47859559126988" lon="10.734415378600053"><ele>160.0</ele><time>2026-04-19T11:55:09.001Z</time></trkpt><trkpt lat="43.47860339392909" lon="10.734503448671036"><ele>160.0</ele><time>2026-04-19T11:55:12.001Z</time></trkpt><trkpt lat="43.47861786706941" lon="10.734620234647874"><ele>160.0</ele><time>2026-04-19T11:55:15.001Z</time></trkpt><trkpt lat="43.47862489544688" lon="10.734712396840393"><ele>160.0</ele><time>2026-04-19T11:55:16.001Z</time></trkpt><trkpt lat="43.47863957531936" lon="10.734832966827739"><ele>158.8</ele><time>2026-04-19T11:55:17.001Z</time></trkpt><trkpt lat="43.47866542540113" lon="10.734966291933398"><ele>157.6</ele><time>2026-04-19T11:55:18.001Z</time></trkpt><trkpt lat="43.47870529278934" lon="10.735107662619285"><ele>156.4</ele><time>2026-04-19T11:55:19.001Z</time></trkpt><trkpt lat="43.478722913272" lon="10.735256590553291"><ele>155.2</ele><time>2026-04-19T11:55:20.001Z</time></trkpt><trkpt lat="43.47874853215093" lon="10.73540708523546"><ele>154.0</ele><time>2026-04-19T11:55:21.001Z</time></trkpt><trkpt lat="43.47877340967848" lon="10.735521559650255"><ele>151.33333333333334</ele><time>2026-04-19T11:55:22.001Z</time></trkpt><trkpt lat="43.47880078743874" lon="10.735632635465548"><ele>148.66666666666669</ele><time>2026-04-19T11:55:23.001Z</time></trkpt><trkpt lat="43.47882093844395" lon="10.735736952386157"><ele>146.0</ele><time>2026-04-19T11:55:24.001Z</time></trkpt><trkpt lat="43.47885336833362" lon="10.735821968545515"><ele>143.33333333333334</ele><time>2026-04-19T11:55:25.001Z</time></trkpt><trkpt lat="43.47891303794317" lon="10.735958944635174"><ele>140.66666666666666</ele><time>2026-04-19T11:55:27.001Z</time></trkpt><trkpt lat="43.47895234827901" lon="10.73603697005032"><ele>138.0</ele><time>2026-04-19T11:55:28.001Z</time></trkpt><trkpt lat="43.47900508562394" lon="10.736108400181408"><ele>136.0</ele><time>2026-04-19T11:55:29.001Z</time></trkpt><trkpt lat="43.47906318423701" lon="10.736162835835936"><ele>134.0</ele><time>2026-04-19T11:55:30.001Z</time></trkpt><trkpt lat="43.47915452528334" lon="10.736189252195569"><ele>132.0</ele><time>2026-04-19T11:55:31.001Z</time></trkpt><trkpt lat="43.47923870082761" lon="10.736260630803187"><ele>130.0</ele><time>2026-04-19T11:55:32Z</time></trkpt><trkpt lat="43.479338448910354" lon="10.736316624779006"><ele>128.0</ele><time>2026-04-19T11:55:33Z</time></trkpt><trkpt lat="43.479438611656114" lon="10.736352823232691"><ele>128.0</ele><time>2026-04-19T11:55:34Z</time></trkpt><trkpt lat="43.47952552270333" lon="10.736437795029989"><ele>128.0</ele><time>2026-04-19T11:55:35Z</time></trkpt><trkpt lat="43.479599283939685" lon="10.736542611796413"><ele>128.0</ele><time>2026-04-19T11:55:36Z</time></trkpt><trkpt lat="43.479684637581485" lon="10.73665119152882"><ele>128.0</ele><time>2026-04-19T11:55:37Z</time></trkpt><trkpt lat="43.479778642640795" lon="10.736761515813935"><ele>126.75</ele><time>2026-04-19T11:55:38Z</time></trkpt><trkpt lat="43.4798805239591" lon="10.736885412743328"><ele>125.5</ele><time>2026-04-19T11:55:39Z</time></trkpt><trkpt lat="43.47997897820739" lon="10.73697254135649"><ele>124.25</ele><time>2026-04-19T11:55:40Z</time></trkpt><trkpt lat="43.48008501799448" lon="10.737054174582651"><ele>123.0</ele><time>2026-04-19T11:55:41Z</time></trkpt><trkpt lat="43.480182335774316" lon="10.737145913356047"><ele>122.60000000000001</ele><time>2026-04-19T11:55:42Z</time></trkpt><trkpt lat="43.480275058374524" lon="10.737233661165856"><ele>122.20000000000002</ele><time>2026-04-19T11:55:43Z</time></trkpt><trkpt lat="43.48036512060014" lon="10.737316701029439"><ele>121.8</ele><time>2026-04-19T11:55:44Z</time></trkpt><trkpt lat="43.480449106163114" lon="10.73739443087297"><ele>121.4</ele><time>2026-04-19T11:55:45Z</time></trkpt><trkpt lat="43.48051813918506" lon="10.737469027139985"><ele>121.0</ele><time>2026-04-19T11:55:46Z</time></trkpt><trkpt lat="43.480569731211595" lon="10.737545049878701"><ele>120.6</ele><time>2026-04-19T11:55:47Z</time></trkpt><trkpt lat="43.48062126579086" lon="10.737623167971167"><ele>120.19999999999999</ele><time>2026-04-19T11:55:49Z</time></trkpt><trkpt lat="43.480675443753285" lon="10.737685001535842"><ele>119.80000000000001</ele><time>2026-04-19T11:55:56Z</time></trkpt><trkpt lat="43.480751179976714" lon="10.737622633413881"><ele>119.4</ele><time>2026-04-19T11:55:57Z</time></trkpt><trkpt lat="43.48084295144658" lon="10.737645226627931"><ele>119.0</ele><time>2026-04-19T11:55:59Z</time></trkpt><trkpt lat="43.48097670990095" lon="10.737658424125256"><ele>119.0</ele><time>2026-04-19T11:56:01Z</time></trkpt><trkpt lat="43.48106074745823" lon="10.737676844880607"><ele>119.0</ele><time>2026-04-19T11:56:02Z</time></trkpt><trkpt lat="43.481143919063165" lon="10.737681957174937"><ele>119.0</ele><time>2026-04-19T11:56:03Z</time></trkpt><trkpt lat="43.481239379084215" lon="10.737669349958727"><ele>119.0</ele><time>2026-04-19T11:56:04Z</time></trkpt><trkpt lat="43.481329220665586" lon="10.737652186660661"><ele>119.0</ele><time>2026-04-19T11:56:05Z</time></trkpt><trkpt lat="43.481437889398904" lon="10.737650875565341"><ele>118.2</ele><time>2026-04-19T11:56:06Z</time></trkpt><trkpt lat="43.481550261134544" lon="10.73766588362047"><ele>117.4</ele><time>2026-04-19T11:56:07Z</time></trkpt><trkpt lat="43.48166643816268" lon="10.737681251134187"><ele>116.6</ele><time>2026-04-19T11:56:08Z</time></trkpt><trkpt lat="43.48177487907205" lon="10.737712532755262"><ele>115.8</ele><time>2026-04-19T11:56:09Z</time></trkpt><trkpt lat="43.481873389826234" lon="10.737748268626763"><ele>115.0</ele><time>2026-04-19T11:56:10Z</time></trkpt><trkpt lat="43.481959816292274" lon="10.737800843244328"><ele>114.4</ele><time>2026-04-19T11:56:11Z</time></trkpt><trkpt lat="43.48204174932944" lon="10.737859258490316"><ele>113.8</ele><time>2026-04-19T11:56:12Z</time></trkpt><trkpt lat="43.48211397401252" lon="10.737916224803604"><ele>113.19999999999999</ele><time>2026-04-19T11:56:13Z</time></trkpt><trkpt lat="43.48219348444825" lon="10.737971040148325"><ele>112.6</ele><time>2026-04-19T11:56:14Z</time></trkpt><trkpt lat="43.48228728843511" lon="10.738021781095053"><ele>112.0</ele><time>2026-04-19T11:56:15Z</time></trkpt><trkpt lat="43.482389304805444" lon="10.738070979761773"><ele>111.0</ele><time>2026-04-19T11:56:16Z</time></trkpt><trkpt lat="43.482497426701" lon="10.738114496491116"><ele>109.99999999999999</ele><time>2026-04-19T11:56:17Z</time></trkpt><trkpt lat="43.48260322660418" lon="10.738163025686665"><ele>108.99999999999999</ele><time>2026-04-19T11:56:18Z</time></trkpt><trkpt lat="43.48270133444582" lon="10.738237506699159"><ele>108.0</ele><time>2026-04-19T11:56:19Z</time></trkpt><trkpt lat="43.48279095275659" lon="10.738316087211182"><ele>107.0</ele><time>2026-04-19T11:56:20Z</time></trkpt><trkpt lat="43.48288407678891" lon="10.738418175366641"><ele>106.19999999999999</ele><time>2026-04-19T11:56:21Z</time></trkpt><trkpt lat="43.48296828389137" lon="10.73851489849844"><ele>105.39999999999999</ele><time>2026-04-19T11:56:22Z</time></trkpt><trkpt lat="43.483053180458036" lon="10.738609744579007"><ele>104.6</ele><time>2026-04-19T11:56:23Z</time></trkpt><trkpt lat="43.483141742969146" lon="10.738699929406168"><ele>103.80000000000001</ele><time>2026-04-19T11:56:24Z</time></trkpt><trkpt lat="43.48322774240595" lon="10.738786400599583"><ele>103.0</ele><time>2026-04-19T11:56:25Z</time></trkpt><trkpt lat="43.483302441829856" lon="10.738871273067447"><ele>103.0</ele><time>2026-04-19T11:56:26Z</time></trkpt><trkpt lat="43.48338123626654" lon="10.738957482887013"><ele>103.0</ele><time>2026-04-19T11:56:27Z</time></trkpt><trkpt lat="43.48346187668878" lon="10.739036846816862"><ele>103.0</ele><time>2026-04-19T11:56:28Z</time></trkpt><trkpt lat="43.48354007886381" lon="10.7391195415087"><ele>103.0</ele><time>2026-04-19T11:56:29.001Z</time></trkpt><trkpt lat="43.48361829983536" lon="10.739197659123604"><ele>103.0</ele><time>2026-04-19T11:56:30.001Z</time></trkpt><trkpt lat="43.48369394749518" lon="10.739282283952841"><ele>102.0</ele><time>2026-04-19T11:56:31.001Z</time></trkpt><trkpt lat="43.48377078701215" lon="10.739358005843231"><ele>101.0</ele><time>2026-04-19T11:56:32.001Z</time></trkpt><trkpt lat="43.48383547492119" lon="10.739449347280196"><ele>100.0</ele><time>2026-04-19T11:56:33.001Z</time></trkpt><trkpt lat="43.48389083129854" lon="10.739547077389831"><ele>99.0</ele><time>2026-04-19T11:56:34.001Z</time></trkpt><trkpt lat="43.48393370210078" lon="10.739656713276897"><ele>98.0</ele><time>2026-04-19T11:56:35.001Z</time></trkpt><trkpt lat="43.483969131001565" lon="10.739776483237385"><ele>98.0</ele><time>2026-04-19T11:56:36.001Z</time></trkpt><trkpt lat="43.48399626988967" lon="10.739903357716848"><ele>98.0</ele><time>2026-04-19T11:56:37.001Z</time></trkpt><trkpt lat="43.48401118315693" lon="10.740033451284503"><ele>98.0</ele><time>2026-04-19T11:56:38.001Z</time></trkpt><trkpt lat="43.48402775076964" lon="10.740166686033367"><ele>98.0</ele><time>2026-04-19T11:56:39.001Z</time></trkpt><trkpt lat="43.48404510245371" lon="10.74029657839719"><ele>98.0</ele><time>2026-04-19T11:56:40.001Z</time></trkpt><trkpt lat="43.48406736446579" lon="10.740412723789467"><ele>97.83333333333333</ele><time>2026-04-19T11:56:41.001Z</time></trkpt><trkpt lat="43.484101775003765" lon="10.740513611594796"><ele>97.66666666666666</ele><time>2026-04-19T11:56:42.001Z</time></trkpt><trkpt lat="43.48414917849607" lon="10.740606101103618"><ele>97.5</ele><time>2026-04-19T11:56:43.001Z</time></trkpt><trkpt lat="43.484203635782166" lon="10.7406939630751"><ele>97.33333333333334</ele><time>2026-04-19T11:56:44.001Z</time></trkpt><trkpt lat="43.484272900741715" lon="10.740786833296852"><ele>97.16666666666667</ele><time>2026-04-19T11:56:45.001Z</time></trkpt><trkpt lat="43.48433401774595" lon="10.740886769154942"><ele>97.0</ele><time>2026-04-19T11:56:46.001Z</time></trkpt><trkpt lat="43.48441180487355" lon="10.740983654797219"><ele>96.50000000000001</ele><time>2026-04-19T11:56:47.001Z</time></trkpt><trkpt lat="43.48448927432455" lon="10.741077898499778"><ele>96.0</ele><time>2026-04-19T11:56:48.001Z</time></trkpt><trkpt lat="43.48453972551074" lon="10.741151070750112"><ele>95.5</ele><time>2026-04-19T11:56:49.001Z</time></trkpt><trkpt lat="43.48458550612713" lon="10.741211292930027"><ele>95.0</ele><time>2026-04-19T11:56:50.001Z</time></trkpt><trkpt lat="43.48463870003646" lon="10.741280479397414"><ele>94.5</ele><time>2026-04-19T11:56:51.001Z</time></trkpt><trkpt lat="43.484687503489745" lon="10.741344128022543"><ele>94.0</ele><time>2026-04-19T11:56:52.001Z</time></trkpt><trkpt lat="43.48473722336822" lon="10.7414136406317"><ele>94.0</ele><time>2026-04-19T11:56:53.001Z</time></trkpt><trkpt lat="43.48478562853753" lon="10.741485442184064"><ele>94.0</ele><time>2026-04-19T11:56:54.001Z</time></trkpt><trkpt lat="43.48487532490936" lon="10.741602112426808"><ele>94.0</ele><time>2026-04-19T11:56:56.001Z</time></trkpt><trkpt lat="43.48496363077466" lon="10.741720700990452"><ele>94.0</ele><time>2026-04-19T11:56:58.001Z</time></trkpt><trkpt lat="43.48504345974135" lon="10.741821950183203"><ele>94.0</ele><time>2026-04-19T11:57:00.001Z</time></trkpt><trkpt lat="43.48510608214782" lon="10.741938014862523"><ele>93.75</ele><time>2026-04-19T11:57:02.001Z</time></trkpt><trkpt lat="43.48518955614563" lon="10.742041927227746"><ele>93.5</ele><time>2026-04-19T11:57:04.001Z</time></trkpt><trkpt lat="43.485271544592536" lon="10.742162185840561"><ele>93.25</ele><time>2026-04-19T11:57:06.001Z</time></trkpt><trkpt lat="43.48536443134645" lon="10.742279297225247"><ele>93.0</ele><time>2026-04-19T11:57:08.001Z</time></trkpt><trkpt lat="43.48544756716969" lon="10.742394453369329"><ele>93.0</ele><time>2026-04-19T11:57:10.001Z</time></trkpt><trkpt lat="43.48553502504734" lon="10.742490394608435"><ele>93.0</ele><time>2026-04-19T11:57:12.001Z</time></trkpt><trkpt lat="43.485610855360065" lon="10.742593684979518"><ele>93.0</ele><time>2026-04-19T11:57:14.001Z</time></trkpt><trkpt lat="43.48567168452447" lon="10.742705404457684"><ele>93.0</ele><time>2026-04-19T11:57:16.001Z</time></trkpt><trkpt lat="43.48575903042708" lon="10.742731380973133"><ele>93.0</ele><time>2026-04-19T11:57:18.001Z</time></trkpt><trkpt lat="43.485816493805146" lon="10.74269589748409"><ele>93.0</ele><time>2026-04-19T11:57:19.001Z</time></trkpt><trkpt lat="43.48592456141153" lon="10.74260048676065"><ele>93.0</ele><time>2026-04-19T11:57:21.001Z</time></trkpt><trkpt lat="43.485982654676135" lon="10.742559150985809"><ele>93.0</ele><time>2026-04-19T11:57:22.001Z</time></trkpt><trkpt lat="43.48604758500797" lon="10.742508717334724"><ele>93.0</ele><time>2026-04-19T11:57:23.001Z</time></trkpt><trkpt lat="43.4861178777555" lon="10.74248043305333"><ele>93.0</ele><time>2026-04-19T11:57:24.001Z</time></trkpt><trkpt lat="43.48619120320206" lon="10.742488000809086"><ele>93.0</ele><time>2026-04-19T11:57:25.001Z</time></trkpt><trkpt lat="43.48625913302435" lon="10.742516909617665"><ele>92.5</ele><time>2026-04-19T11:57:26.001Z</time></trkpt><trkpt lat="43.48632703217588" lon="10.742556791070983"><ele>92.0</ele><time>2026-04-19T11:57:27.001Z</time></trkpt><trkpt lat="43.4863950588391" lon="10.742596928869391"><ele>91.5</ele><time>2026-04-19T11:57:28.001Z</time></trkpt><trkpt lat="43.48646195283285" lon="10.74263739047216"><ele>91.0</ele><time>2026-04-19T11:57:29.001Z</time></trkpt><trkpt lat="43.48652990635153" lon="10.742655157388565"><ele>90.5</ele><time>2026-04-19T11:57:30.001Z</time></trkpt><trkpt lat="43.48661237960007" lon="10.742662795997983"><ele>90.0</ele><time>2026-04-19T11:57:31.001Z</time></trkpt><trkpt lat="43.48670514654998" lon="10.74265536597429"><ele>90.0</ele><time>2026-04-19T11:57:32.001Z</time></trkpt><trkpt lat="43.48680053697315" lon="10.742640550315423"><ele>90.0</ele><time>2026-04-19T11:57:33.001Z</time></trkpt><trkpt lat="43.48689936264574" lon="10.742632022863484"><ele>90.0</ele><time>2026-04-19T11:57:34.001Z</time></trkpt><trkpt lat="43.48699827257753" lon="10.742622786429397"><ele>90.0</ele><time>2026-04-19T11:57:35.001Z</time></trkpt><trkpt lat="43.48710485120535" lon="10.74260621187392"><ele>90.0</ele><time>2026-04-19T11:57:36.001Z</time></trkpt><trkpt lat="43.487205819744275" lon="10.742595863246343"><ele>87.8</ele><time>2026-04-19T11:57:37.001Z</time></trkpt><trkpt lat="43.48730129198276" lon="10.742594234393659"><ele>85.6</ele><time>2026-04-19T11:57:38Z</time></trkpt><trkpt lat="43.487398210576046" lon="10.74259354460029"><ele>83.4</ele><time>2026-04-19T11:57:39Z</time></trkpt><trkpt lat="43.487496853356774" lon="10.74259425494152"><ele>81.2</ele><time>2026-04-19T11:57:40Z</time></trkpt><trkpt lat="43.48759783127819" lon="10.742599455931126"><ele>79.0</ele><time>2026-04-19T11:57:41Z</time></trkpt><trkpt lat="43.48770235523378" lon="10.742608801079676"><ele>79.0</ele><time>2026-04-19T11:57:42Z</time></trkpt><trkpt lat="43.487814059966226" lon="10.742631053782615"><ele>79.0</ele><time>2026-04-19T11:57:43Z</time></trkpt><trkpt lat="43.487928665983944" lon="10.742670790476469"><ele>79.0</ele><time>2026-04-19T11:57:44Z</time></trkpt><trkpt lat="43.48803151034865" lon="10.742703851252251"><ele>79.0</ele><time>2026-04-19T11:57:45Z</time></trkpt><trkpt lat="43.4881196807092" lon="10.742733493370347"><ele>79.0</ele><time>2026-04-19T11:57:46Z</time></trkpt><trkpt lat="43.48819469821895" lon="10.74275345640403"><ele>77.66666666666666</ele><time>2026-04-19T11:57:47Z</time></trkpt><trkpt lat="43.4882574108617" lon="10.74277759330075"><ele>76.33333333333333</ele><time>2026-04-19T11:57:48Z</time></trkpt><trkpt lat="43.48834431357281" lon="10.742856400372654"><ele>75.0</ele><time>2026-04-19T11:57:50Z</time></trkpt><trkpt lat="43.488401884585194" lon="10.742908612948169"><ele>73.66666666666667</ele><time>2026-04-19T11:58:10Z</time></trkpt><trkpt lat="43.48850658421953" lon="10.742879123253845"><ele>72.33333333333334</ele><time>2026-04-19T11:58:12Z</time></trkpt><trkpt lat="43.48856628898356" lon="10.742830412539794"><ele>71.0</ele><time>2026-04-19T11:58:13Z</time></trkpt><trkpt lat="43.48863346366733" lon="10.742759769949313"><ele>70.8</ele><time>2026-04-19T11:58:14Z</time></trkpt><trkpt lat="43.488702771373866" lon="10.742685239726546"><ele>70.6</ele><time>2026-04-19T11:58:15Z</time></trkpt><trkpt lat="43.48878286318591" lon="10.742606018209415"><ele>70.4</ele><time>2026-04-19T11:58:16Z</time></trkpt><trkpt lat="43.488876149453496" lon="10.742530011062437"><ele>70.2</ele><time>2026-04-19T11:58:17Z</time></trkpt><trkpt lat="43.48896907809333" lon="10.74244815201045"><ele>70.0</ele><time>2026-04-19T11:58:18Z</time></trkpt><trkpt lat="43.48907231060967" lon="10.742368888156886"><ele>70.0</ele><time>2026-04-19T11:58:19Z</time></trkpt><trkpt lat="43.489184085679284" lon="10.742279263608424"><ele>70.0</ele><time>2026-04-19T11:58:20Z</time></trkpt><trkpt lat="43.48930569263538" lon="10.742192264913166"><ele>70.0</ele><time>2026-04-19T11:58:21Z</time></trkpt><trkpt lat="43.48943154541735" lon="10.742099490275223"><ele>70.0</ele><time>2026-04-19T11:58:22Z</time></trkpt><trkpt lat="43.489565436696246" lon="10.742019282895452"><ele>69.66666666666666</ele><time>2026-04-19T11:58:23Z</time></trkpt><trkpt lat="43.489702217208915" lon="10.74193238392658"><ele>69.33333333333333</ele><time>2026-04-19T11:58:24Z</time></trkpt><trkpt lat="43.489842442849714" lon="10.741840187123609"><ele>69.0</ele><time>2026-04-19T11:58:25Z</time></trkpt><trkpt lat="43.48998172860745" lon="10.741742250618072"><ele>70.0</ele><time>2026-04-19T11:58:26Z</time></trkpt><trkpt lat="43.490119782565465" lon="10.741635001708211"><ele>71.0</ele><time>2026-04-19T11:58:27.001Z</time></trkpt><trkpt lat="43.490254329187366" lon="10.741522454747399"><ele>72.0</ele><time>2026-04-19T11:58:28.001Z</time></trkpt><trkpt lat="43.49038862245473" lon="10.741398702857033"><ele>71.33333333333333</ele><time>2026-04-19T11:58:29.001Z</time></trkpt><trkpt lat="43.490521483427486" lon="10.741274531083706"><ele>70.66666666666666</ele><time>2026-04-19T11:58:30.001Z</time></trkpt><trkpt lat="43.49065307708599" lon="10.741134858334368"><ele>70.0</ele><time>2026-04-19T11:58:31.001Z</time></trkpt><trkpt lat="43.49077875550315" lon="10.740983433479066"><ele>70.0</ele><time>2026-04-19T11:58:32.001Z</time></trkpt><trkpt lat="43.49090213312557" lon="10.740820702532588"><ele>70.0</ele><time>2026-04-19T11:58:33.001Z</time></trkpt><trkpt lat="43.49101651791175" lon="10.740645712199564"><ele>70.0</ele><time>2026-04-19T11:58:34.001Z</time></trkpt><trkpt lat="43.49112275656542" lon="10.740459997587479"><ele>70.0</ele><time>2026-04-19T11:58:35.001Z</time></trkpt><trkpt lat="43.49122719073419" lon="10.74026767177856"><ele>70.0</ele><time>2026-04-19T11:58:36.001Z</time></trkpt><trkpt lat="43.49133074004375" lon="10.740088814740254"><ele>70.0</ele><time>2026-04-19T11:58:37.001Z</time></trkpt><trkpt lat="43.49142797730059" lon="10.739890259650782"><ele>70.0</ele><time>2026-04-19T11:58:38.001Z</time></trkpt><trkpt lat="43.4915219955898" lon="10.73968899150097"><ele>70.0</ele><time>2026-04-19T11:58:39.001Z</time></trkpt><trkpt lat="43.49161822018413" lon="10.739481864928637"><ele>70.0</ele><time>2026-04-19T11:58:40.001Z</time></trkpt><trkpt lat="43.49171458275361" lon="10.739271270303137"><ele>70.0</ele><time>2026-04-19T11:58:41.001Z</time></trkpt><trkpt lat="43.491813795714265" lon="10.739060205412505"><ele>70.0</ele><time>2026-04-19T11:58:42.001Z</time></trkpt><trkpt lat="43.49191793182523" lon="10.738844843030071"><ele>70.0</ele><time>2026-04-19T11:58:43.001Z</time></trkpt><trkpt lat="43.49202717487441" lon="10.738635499999885"><ele>69.66666666666666</ele><time>2026-04-19T11:58:44.001Z</time></trkpt><trkpt lat="43.492141113446344" lon="10.738429211211667"><ele>69.33333333333333</ele><time>2026-04-19T11:58:45.001Z</time></trkpt><trkpt lat="43.49225956947361" lon="10.738223502190246"><ele>69.0</ele><time>2026-04-19T11:58:46.001Z</time></trkpt><trkpt lat="43.49238282116702" lon="10.738031491886408"><ele>69.0</ele><time>2026-04-19T11:58:47.001Z</time></trkpt><trkpt lat="43.49251057955923" lon="10.737842972012094"><ele>69.0</ele><time>2026-04-19T11:58:48.001Z</time></trkpt><trkpt lat="43.49264253590359" lon="10.737669849648853"><ele>69.0</ele><time>2026-04-19T11:58:49.001Z</time></trkpt><trkpt lat="43.49278381605297" lon="10.73750636368716"><ele>69.0</ele><time>2026-04-19T11:58:50.001Z</time></trkpt><trkpt lat="43.49292213921048" lon="10.737354178203399"><ele>69.0</ele><time>2026-04-19T11:58:51.001Z</time></trkpt><trkpt lat="43.49306548480983" lon="10.737198012437895"><ele>69.0</ele><time>2026-04-19T11:58:52.001Z</time></trkpt><trkpt lat="43.493209983471026" lon="10.737056688215759"><ele>69.0</ele><time>2026-04-19T11:58:53.001Z</time></trkpt><trkpt lat="43.493358488640396" lon="10.736919576942203"><ele>69.0</ele><time>2026-04-19T11:58:54.001Z</time></trkpt><trkpt lat="43.493505635787045" lon="10.73679093255748"><ele>69.0</ele><time>2026-04-19T11:58:55.001Z</time></trkpt><trkpt lat="43.49365490486503" lon="10.736654682110116"><ele>69.33333333333333</ele><time>2026-04-19T11:58:56.001Z</time></trkpt><trkpt lat="43.49380656247544" lon="10.73652716008975"><ele>69.66666666666666</ele><time>2026-04-19T11:58:57.001Z</time></trkpt><trkpt lat="43.493964247557166" lon="10.73640566950215"><ele>70.0</ele><time>2026-04-19T11:58:58.001Z</time></trkpt><trkpt lat="43.4941248989468" lon="10.73629038966706"><ele>70.0</ele><time>2026-04-19T11:58:59.001Z</time></trkpt><trkpt lat="43.4942885714722" lon="10.736187502360307"><ele>70.0</ele><time>2026-04-19T11:59:00.001Z</time></trkpt><trkpt lat="43.494456109835184" lon="10.73609230287958"><ele>70.0</ele><time>2026-04-19T11:59:01.001Z</time></trkpt><trkpt lat="43.49462637509268" lon="10.736009404398255"><ele>70.33333333333333</ele><time>2026-04-19T11:59:02.001Z</time></trkpt><trkpt lat="43.494799956881366" lon="10.735928221889239"><ele>70.66666666666667</ele><time>2026-04-19T11:59:03.001Z</time></trkpt><trkpt lat="43.494978747391485" lon="10.735857671899407"><ele>71.0</ele><time>2026-04-19T11:59:04.001Z</time></trkpt><trkpt lat="43.49515311581805" lon="10.735784223985796"><ele>71.0</ele><time>2026-04-19T11:59:05.001Z</time></trkpt><trkpt lat="43.49532434491892" lon="10.735718465431583"><ele>71.0</ele><time>2026-04-19T11:59:06.001Z</time></trkpt><trkpt lat="43.49548984514847" lon="10.735641675440275"><ele>71.0</ele><time>2026-04-19T11:59:07.001Z</time></trkpt><trkpt lat="43.495657396253094" lon="10.735553613107706"><ele>70.0</ele><time>2026-04-19T11:59:08.001Z</time></trkpt><trkpt lat="43.49582103208402" lon="10.735454581936091"><ele>69.0</ele><time>2026-04-19T11:59:09.001Z</time></trkpt><trkpt lat="43.495987671529676" lon="10.735351404561387"><ele>68.0</ele><time>2026-04-19T11:59:10.001Z</time></trkpt><trkpt lat="43.49614625871746" lon="10.735224988010783"><ele>67.66666666666667</ele><time>2026-04-19T11:59:11.001Z</time></trkpt><trkpt lat="43.49629804470506" lon="10.735084967991734"><ele>67.33333333333333</ele><time>2026-04-19T11:59:12.001Z</time></trkpt><trkpt lat="43.49645101984071" lon="10.734916123038776"><ele>67.0</ele><time>2026-04-19T11:59:13.001Z</time></trkpt><trkpt lat="43.49659483678132" lon="10.734748357931624"><ele>67.0</ele><time>2026-04-19T11:59:14.001Z</time></trkpt><trkpt lat="43.49673743735199" lon="10.734593520943735"><ele>67.0</ele><time>2026-04-19T11:59:15.001Z</time></trkpt><trkpt lat="43.49688299888261" lon="10.734443452292131"><ele>67.0</ele><time>2026-04-19T11:59:16.001Z</time></trkpt><trkpt lat="43.497032205383604" lon="10.734295218201247"><ele>66.66666666666666</ele><time>2026-04-19T11:59:17.001Z</time></trkpt><trkpt lat="43.497182638128066" lon="10.734158643030387"><ele>66.33333333333333</ele><time>2026-04-19T11:59:18.001Z</time></trkpt><trkpt lat="43.49733561174428" lon="10.734032827379519"><ele>66.0</ele><time>2026-04-19T11:59:19.001Z</time></trkpt><trkpt lat="43.49749447979435" lon="10.73391602229406"><ele>66.0</ele><time>2026-04-19T11:59:20.001Z</time></trkpt><trkpt lat="43.497656640137144" lon="10.733812775647355"><ele>66.0</ele><time>2026-04-19T11:59:21.001Z</time></trkpt><trkpt lat="43.49781993226681" lon="10.733721602622822"><ele>66.0</ele><time>2026-04-19T11:59:22.001Z</time></trkpt><trkpt lat="43.49798278636196" lon="10.733631503764475"><ele>67.33333333333333</ele><time>2026-04-19T11:59:23.001Z</time></trkpt><trkpt lat="43.49814760953606" lon="10.733545360565579"><ele>68.66666666666666</ele><time>2026-04-19T11:59:24.001Z</time></trkpt><trkpt lat="43.49831368556892" lon="10.733459270720605"><ele>70.0</ele><time>2026-04-19T11:59:25.001Z</time></trkpt><trkpt lat="43.49847724478226" lon="10.733379076654757"><ele>70.0</ele><time>2026-04-19T11:59:26.001Z</time></trkpt><trkpt lat="43.498631618689" lon="10.733306987780805"><ele>70.0</ele><time>2026-04-19T11:59:27.001Z</time></trkpt><trkpt lat="43.49877307234987" lon="10.733234275483404"><ele>70.0</ele><time>2026-04-19T11:59:28.001Z</time></trkpt><trkpt lat="43.49890556735485" lon="10.733164982359709"><ele>69.5</ele><time>2026-04-19T11:59:29.001Z</time></trkpt><trkpt lat="43.4990337860791" lon="10.733099222314209"><ele>69.0</ele><time>2026-04-19T11:59:30.001Z</time></trkpt><trkpt lat="43.49916678488034" lon="10.733035015145825"><ele>68.5</ele><time>2026-04-19T11:59:31.001Z</time></trkpt><trkpt lat="43.49929699275968" lon="10.732971186355636"><ele>68.0</ele><time>2026-04-19T11:59:32.001Z</time></trkpt><trkpt lat="43.49942334039425" lon="10.732906464953636"><ele>68.0</ele><time>2026-04-19T11:59:33.001Z</time></trkpt><trkpt lat="43.499549432650205" lon="10.732842221780892"><ele>68.0</ele><time>2026-04-19T11:59:34.001Z</time></trkpt><trkpt lat="43.499672658962844" lon="10.732759834990041"><ele>68.0</ele><time>2026-04-19T11:59:35.001Z</time></trkpt><trkpt lat="43.49978975664878" lon="10.732658388683793"><ele>68.0</ele><time>2026-04-19T11:59:36.001Z</time></trkpt><trkpt lat="43.49989720719206" lon="10.732535279029333"><ele>67.75</ele><time>2026-04-19T11:59:37.002Z</time></trkpt><trkpt lat="43.4999941515498" lon="10.73239519665637"><ele>67.5</ele><time>2026-04-19T11:59:38.002Z</time></trkpt><trkpt lat="43.50008064870496" lon="10.732230796883504"><ele>67.25</ele><time>2026-04-19T11:59:39.002Z</time></trkpt><trkpt lat="43.500146523079344" lon="10.732051599802668"><ele>67.0</ele><time>2026-04-19T11:59:40.002Z</time></trkpt><trkpt lat="43.50020181066741" lon="10.731873020516021"><ele>67.0</ele><time>2026-04-19T11:59:41.002Z</time></trkpt><trkpt lat="43.50025306313224" lon="10.731675093342057"><ele>67.0</ele><time>2026-04-19T11:59:42.002Z</time></trkpt><trkpt lat="43.50026722938984" lon="10.731482561275607"><ele>67.0</ele><time>2026-04-19T11:59:43.002Z</time></trkpt><trkpt lat="43.50028006500801" lon="10.731282862767136"><ele>67.0</ele><time>2026-04-19T11:59:44Z</time></trkpt><trkpt lat="43.500279827057085" lon="10.73107796360744"><ele>67.0</ele><time>2026-04-19T11:59:45Z</time></trkpt><trkpt lat="43.50027327852838" lon="10.730875175460017"><ele>67.0</ele><time>2026-04-19T11:59:46Z</time></trkpt><trkpt lat="43.50026203981978" lon="10.73068162064797"><ele>67.0</ele><time>2026-04-19T11:59:47Z</time></trkpt><trkpt lat="43.50025461329646" lon="10.73049677638945"><ele>67.0</ele><time>2026-04-19T11:59:48Z</time></trkpt><trkpt lat="43.50024386354824" lon="10.73032783577086"><ele>67.75</ele><time>2026-04-19T11:59:49Z</time></trkpt><trkpt lat="43.50022820916707" lon="10.730165860958246"><ele>68.5</ele><time>2026-04-19T11:59:50Z</time></trkpt><trkpt lat="43.500220454734404" lon="10.7300097387086"><ele>69.25</ele><time>2026-04-19T11:59:51Z</time></trkpt><trkpt lat="43.50020929371095" lon="10.729856978933283"><ele>70.0</ele><time>2026-04-19T11:59:52Z</time></trkpt><trkpt lat="43.50019493557012" lon="10.729704160586222"><ele>70.0</ele><time>2026-04-19T11:59:53Z</time></trkpt><trkpt lat="43.50017832040528" lon="10.729558897646159"><ele>70.0</ele><time>2026-04-19T11:59:54Z</time></trkpt><trkpt lat="43.500156079086395" lon="10.729410169701747"><ele>70.0</ele><time>2026-04-19T11:59:55Z</time></trkpt><trkpt lat="43.5001236579463" lon="10.729263910478563"><ele>70.0</ele><time>2026-04-19T11:59:56Z</time></trkpt><trkpt lat="43.500093390216314" lon="10.729117227515106"><ele>70.0</ele><time>2026-04-19T11:59:57Z</time></trkpt><trkpt lat="43.500057756253746" lon="10.728967223181833"><ele>70.0</ele><time>2026-04-19T11:59:58Z</time></trkpt><trkpt lat="43.50001792786961" lon="10.728821248263577"><ele>70.0</ele><time>2026-04-19T11:59:59Z</time></trkpt><trkpt lat="43.49997007976234" lon="10.728670896993927"><ele>70.0</ele><time>2026-04-19T12:00:00Z</time></trkpt><trkpt lat="43.49992292892311" lon="10.728524963489896"><ele>70.0</ele><time>2026-04-19T12:00:01Z</time></trkpt><trkpt lat="43.49988275315779" lon="10.72837196833326"><ele>71.75</ele><time>2026-04-19T12:00:02Z</time></trkpt><trkpt lat="43.49984495345109" lon="10.728221579765794"><ele>73.5</ele><time>2026-04-19T12:00:03Z</time></trkpt><trkpt lat="43.49980028954799" lon="10.728073064813678"><ele>75.25</ele><time>2026-04-19T12:00:04Z</time></trkpt><trkpt lat="43.49974582679226" lon="10.72792431383329"><ele>77.0</ele><time>2026-04-19T12:00:05Z</time></trkpt><trkpt lat="43.49968769843441" lon="10.727792501404421"><ele>78.0</ele><time>2026-04-19T12:00:06Z</time></trkpt><trkpt lat="43.49964754705179" lon="10.727664947592515"><ele>79.0</ele><time>2026-04-19T12:00:07Z</time></trkpt><trkpt lat="43.4996059201855" lon="10.727536609598731"><ele>80.0</ele><time>2026-04-19T12:00:08Z</time></trkpt><trkpt lat="43.49955626243107" lon="10.727418806445783"><ele>81.0</ele><time>2026-04-19T12:00:09Z</time></trkpt><trkpt lat="43.49951101610825" lon="10.727306774379057"><ele>82.0</ele><time>2026-04-19T12:00:10Z</time></trkpt><trkpt lat="43.49946445033147" lon="10.727198369259595"><ele>80.5</ele><time>2026-04-19T12:00:11Z</time></trkpt><trkpt lat="43.499419085168675" lon="10.727092654044803"><ele>79.0</ele><time>2026-04-19T12:00:12Z</time></trkpt><trkpt lat="43.499373901349166" lon="10.726999780270063"><ele>77.5</ele><time>2026-04-19T12:00:13Z</time></trkpt><trkpt lat="43.499334437596" lon="10.726901029642443"><ele>76.0</ele><time>2026-04-19T12:00:14Z</time></trkpt><trkpt lat="43.4992948144926" lon="10.726811680664692"><ele>74.5</ele><time>2026-04-19T12:00:15Z</time></trkpt><trkpt lat="43.499258302268835" lon="10.726712291066946"><ele>73.0</ele><time>2026-04-19T12:00:16Z</time></trkpt><trkpt lat="43.499212143591" lon="10.726601698932468"><ele>73.0</ele><time>2026-04-19T12:00:17Z</time></trkpt><trkpt lat="43.49916303350281" lon="10.72648184287477"><ele>73.0</ele><time>2026-04-19T12:00:18Z</time></trkpt><trkpt lat="43.49909940890516" lon="10.726354422251905"><ele>73.0</ele><time>2026-04-19T12:00:19Z</time></trkpt><trkpt lat="43.49904175110848" lon="10.726223054709244"><ele>73.0</ele><time>2026-04-19T12:00:20Z</time></trkpt><trkpt lat="43.498974901253334" lon="10.726085363682296"><ele>73.0</ele><time>2026-04-19T12:00:21Z</time></trkpt><trkpt lat="43.49892630063652" lon="10.725927060860803"><ele>73.5</ele><time>2026-04-19T12:00:22Z</time></trkpt><trkpt lat="43.49886186892863" lon="10.725779454976143"><ele>74.0</ele><time>2026-04-19T12:00:23Z</time></trkpt><trkpt lat="43.49878520213368" lon="10.725642416033914"><ele>74.5</ele><time>2026-04-19T12:00:24Z</time></trkpt><trkpt lat="43.498732326049996" lon="10.725498532880481"><ele>75.0</ele><time>2026-04-19T12:00:25Z</time></trkpt><trkpt lat="43.49867265616545" lon="10.725354419933181"><ele>75.25</ele><time>2026-04-19T12:00:26Z</time></trkpt><trkpt lat="43.49861531338348" lon="10.725215700741142"><ele>75.5</ele><time>2026-04-19T12:00:27.001Z</time></trkpt><trkpt lat="43.49856876278694" lon="10.725070099463792"><ele>75.75</ele><time>2026-04-19T12:00:28.001Z</time></trkpt><trkpt lat="43.49853961256676" lon="10.72491664137189"><ele>76.0</ele><time>2026-04-19T12:00:29.001Z</time></trkpt><trkpt lat="43.49852458469163" lon="10.72475409919288"><ele>76.0</ele><time>2026-04-19T12:00:30.001Z</time></trkpt><trkpt lat="43.49852074959596" lon="10.724597776563373"><ele>76.0</ele><time>2026-04-19T12:00:31.001Z</time></trkpt><trkpt lat="43.49852242041605" lon="10.724432346728221"><ele>76.0</ele><time>2026-04-19T12:00:32.001Z</time></trkpt><trkpt lat="43.498527730233896" lon="10.724263564229814"><ele>76.0</ele><time>2026-04-19T12:00:33.001Z</time></trkpt><trkpt lat="43.498541163227145" lon="10.724091824983592"><ele>75.25</ele><time>2026-04-19T12:00:34.001Z</time></trkpt><trkpt lat="43.4985677883526" lon="10.723923189451199"><ele>74.5</ele><time>2026-04-19T12:00:35.001Z</time></trkpt><trkpt lat="43.49859884427968" lon="10.723754021116765"><ele>73.75</ele><time>2026-04-19T12:00:36.001Z</time></trkpt><trkpt lat="43.49863302362894" lon="10.723587511461272"><ele>73.0</ele><time>2026-04-19T12:00:37.001Z</time></trkpt><trkpt lat="43.49866741959848" lon="10.723420708922495"><ele>71.75</ele><time>2026-04-19T12:00:38.001Z</time></trkpt><trkpt lat="43.49870290469674" lon="10.723254185592236"><ele>70.5</ele><time>2026-04-19T12:00:39.001Z</time></trkpt><trkpt lat="43.498736557950146" lon="10.72308997457235"><ele>69.25</ele><time>2026-04-19T12:00:40.001Z</time></trkpt><trkpt lat="43.498770283682816" lon="10.722922597168836"><ele>68.0</ele><time>2026-04-19T12:00:41.001Z</time></trkpt><trkpt lat="43.498805683873144" lon="10.722752269296876"><ele>68.0</ele><time>2026-04-19T12:00:42.001Z</time></trkpt><trkpt lat="43.498839913398484" lon="10.72257860884512"><ele>68.0</ele><time>2026-04-19T12:00:43.001Z</time></trkpt><trkpt lat="43.49887576975932" lon="10.722404563568865"><ele>68.0</ele><time>2026-04-19T12:00:44.001Z</time></trkpt><trkpt lat="43.49890942278473" lon="10.722237549749424"><ele>68.0</ele><time>2026-04-19T12:00:45.001Z</time></trkpt><trkpt lat="43.498941540887614" lon="10.722086916418075"><ele>68.0</ele><time>2026-04-19T12:00:46.001Z</time></trkpt><trkpt lat="43.49897271008098" lon="10.721955551665697"><ele>68.0</ele><time>2026-04-19T12:00:47.001Z</time></trkpt><trkpt lat="43.499000830573074" lon="10.721848588230165"><ele>68.0</ele><time>2026-04-19T12:00:48.001Z</time></trkpt><trkpt lat="43.49905128087706" lon="10.721701784568866"><ele>68.0</ele><time>2026-04-19T12:00:50.001Z</time></trkpt><trkpt lat="43.49912145281157" lon="10.721600536676887"><ele>68.0</ele><time>2026-04-19T12:00:52.001Z</time></trkpt><trkpt lat="43.49921354471308" lon="10.721501013220243"><ele>68.33333333333334</ele><time>2026-04-19T12:00:54.001Z</time></trkpt><trkpt lat="43.49924685545168" lon="10.72142170389133"><ele>68.66666666666667</ele><time>2026-04-19T12:00:55.001Z</time></trkpt><trkpt lat="43.49925379313563" lon="10.721324489117661"><ele>69.0</ele><time>2026-04-19T12:00:56.001Z</time></trkpt><trkpt lat="43.49922756711948" lon="10.721237055863392"><ele>69.33333333333333</ele><time>2026-04-19T12:00:57.001Z</time></trkpt><trkpt lat="43.49917809504282" lon="10.721160336973478"><ele>69.66666666666666</ele><time>2026-04-19T12:00:58.001Z</time></trkpt><trkpt lat="43.49910775711346" lon="10.721146984476485"><ele>70.0</ele><time>2026-04-19T12:00:59.001Z</time></trkpt><trkpt lat="43.499055819312055" lon="10.720974590051304"><ele>69.2</ele><time>2026-04-19T12:01:01.001Z</time></trkpt><trkpt lat="43.49901282176961" lon="10.720813884317993"><ele>68.4</ele><time>2026-04-19T12:01:03.001Z</time></trkpt><trkpt lat="43.49899031304614" lon="10.720707437701794"><ele>67.6</ele><time>2026-04-19T12:01:04.001Z</time></trkpt><trkpt lat="43.49897461567441" lon="10.720595961847119"><ele>66.8</ele><time>2026-04-19T12:01:05.001Z</time></trkpt><trkpt lat="43.49896233547172" lon="10.720465573747138"><ele>66.0</ele><time>2026-04-19T12:01:06.001Z</time></trkpt><trkpt lat="43.49894882508898" lon="10.720328387638881"><ele>66.25</ele><time>2026-04-19T12:01:07.001Z</time></trkpt><trkpt lat="43.49893969372741" lon="10.720179920476326"><ele>66.5</ele><time>2026-04-19T12:01:08.001Z</time></trkpt><trkpt lat="43.49892868025745" lon="10.720024200535955"><ele>66.75</ele><time>2026-04-19T12:01:09.001Z</time></trkpt><trkpt lat="43.498916306429884" lon="10.719861040885084"><ele>67.0</ele><time>2026-04-19T12:01:10.001Z</time></trkpt><trkpt lat="43.49890296531096" lon="10.719688536509505"><ele>67.0</ele><time>2026-04-19T12:01:11.001Z</time></trkpt><trkpt lat="43.498888805341174" lon="10.719509273464308"><ele>67.0</ele><time>2026-04-19T12:01:12.001Z</time></trkpt><trkpt lat="43.49887403055132" lon="10.719322485062776"><ele>67.0</ele><time>2026-04-19T12:01:13.001Z</time></trkpt><trkpt lat="43.49886150946347" lon="10.719127702032404"><ele>67.0</ele><time>2026-04-19T12:01:14.001Z</time></trkpt><trkpt lat="43.498850435685235" lon="10.718927834500958"><ele>67.0</ele><time>2026-04-19T12:01:15.001Z</time></trkpt><trkpt lat="43.4988386344752" lon="10.718727763328298"><ele>67.0</ele><time>2026-04-19T12:01:16.001Z</time></trkpt><trkpt lat="43.498824947623426" lon="10.718527216059702"><ele>67.0</ele><time>2026-04-19T12:01:17.001Z</time></trkpt><trkpt lat="43.49880222161255" lon="10.718327173441134"><ele>67.0</ele><time>2026-04-19T12:01:18.001Z</time></trkpt><trkpt lat="43.49876121164552" lon="10.718125176892807"><ele>68.0</ele><time>2026-04-19T12:01:19.001Z</time></trkpt><trkpt lat="43.49871110034206" lon="10.717926924374385"><ele>69.0</ele><time>2026-04-19T12:01:20.001Z</time></trkpt><trkpt lat="43.49864635686419" lon="10.717736704295927"><ele>70.0</ele><time>2026-04-19T12:01:21.001Z</time></trkpt><trkpt lat="43.498567592417444" lon="10.717555918427932"><ele>71.0</ele><time>2026-04-19T12:01:22.001Z</time></trkpt><trkpt lat="43.49847957391561" lon="10.717385781733615"><ele>72.0</ele><time>2026-04-19T12:01:23.001Z</time></trkpt><trkpt lat="43.498382325005416" lon="10.717230811736949"><ele>73.0</ele><time>2026-04-19T12:01:24.001Z</time></trkpt><trkpt lat="43.49827889883159" lon="10.717078633626498"><ele>73.0</ele><time>2026-04-19T12:01:25.001Z</time></trkpt><trkpt lat="43.4981751913416" lon="10.716941814127262"><ele>73.0</ele><time>2026-04-19T12:01:26.001Z</time></trkpt><trkpt lat="43.49806725811602" lon="10.716811657513018"><ele>73.0</ele><time>2026-04-19T12:01:27.001Z</time></trkpt><trkpt lat="43.49796166261323" lon="10.716673401502689"><ele>73.0</ele><time>2026-04-19T12:01:28.001Z</time></trkpt><trkpt lat="43.497858679611504" lon="10.716539600027982"><ele>73.25</ele><time>2026-04-19T12:01:29.001Z</time></trkpt><trkpt lat="43.497755021857074" lon="10.71641361339508"><ele>73.5</ele><time>2026-04-19T12:01:30.001Z</time></trkpt><trkpt lat="43.49764460248039" lon="10.716293073071286"><ele>73.75</ele><time>2026-04-19T12:01:31.001Z</time></trkpt><trkpt lat="43.49753044986479" lon="10.71617869358064"><ele>74.0</ele><time>2026-04-19T12:01:32.001Z</time></trkpt><trkpt lat="43.49741323917623" lon="10.716070739217134"><ele>74.75</ele><time>2026-04-19T12:01:33.001Z</time></trkpt><trkpt lat="43.497292160623196" lon="10.715966359964112"><ele>75.5</ele><time>2026-04-19T12:01:34.001Z</time></trkpt><trkpt lat="43.49716651031363" lon="10.715853484498346"><ele>76.25</ele><time>2026-04-19T12:01:35.001Z</time></trkpt><trkpt lat="43.497040024688395" lon="10.71574176797517"><ele>77.0</ele><time>2026-04-19T12:01:36.001Z</time></trkpt><trkpt lat="43.49690968877583" lon="10.715625549999901"><ele>77.0</ele><time>2026-04-19T12:01:37.001Z</time></trkpt><trkpt lat="43.49678578050633" lon="10.715523495896313"><ele>77.0</ele><time>2026-04-19T12:01:38.001Z</time></trkpt><trkpt lat="43.49666289652338" lon="10.715423937592575"><ele>77.0</ele><time>2026-04-19T12:01:39.001Z</time></trkpt><trkpt lat="43.49653356121793" lon="10.71532497513616"><ele>77.0</ele><time>2026-04-19T12:01:40.001Z</time></trkpt><trkpt lat="43.49640632405563" lon="10.715214238289104"><ele>76.25</ele><time>2026-04-19T12:01:41.002Z</time></trkpt><trkpt lat="43.49627929857302" lon="10.715109822796421"><ele>75.5</ele><time>2026-04-19T12:01:42.002Z</time></trkpt><trkpt lat="43.496151841067864" lon="10.715002386255035"><ele>74.75</ele><time>2026-04-19T12:01:43.002Z</time></trkpt><trkpt lat="43.49602695652182" lon="10.71489459115558"><ele>74.0</ele><time>2026-04-19T12:01:44.002Z</time></trkpt><trkpt lat="43.49590024943149" lon="10.714789596415214"><ele>74.0</ele><time>2026-04-19T12:01:45.002Z</time></trkpt><trkpt lat="43.495773747161635" lon="10.714679648383436"><ele>74.0</ele><time>2026-04-19T12:01:46.002Z</time></trkpt><trkpt lat="43.495634233257086" lon="10.714597696704015"><ele>74.0</ele><time>2026-04-19T12:01:47.002Z</time></trkpt><trkpt lat="43.49549047575781" lon="10.714527374519728"><ele>73.66666666666667</ele><time>2026-04-19T12:01:48.002Z</time></trkpt><trkpt lat="43.49534462595431" lon="10.714467603629881"><ele>73.33333333333333</ele><time>2026-04-19T12:01:49.002Z</time></trkpt><trkpt lat="43.495196905636085" lon="10.714416851435212"><ele>73.0</ele><time>2026-04-19T12:01:50Z</time></trkpt><trkpt lat="43.49505179383709" lon="10.714376447152157"><ele>73.75</ele><time>2026-04-19T12:01:51Z</time></trkpt><trkpt lat="43.494903565508324" lon="10.71432820058725"><ele>74.5</ele><time>2026-04-19T12:01:52Z</time></trkpt><trkpt lat="43.49476083040098" lon="10.714282999414445"><ele>75.25</ele><time>2026-04-19T12:01:53Z</time></trkpt><trkpt lat="43.49462063277582" lon="10.71423504127985"><ele>76.0</ele><time>2026-04-19T12:01:54Z</time></trkpt><trkpt lat="43.49448298150534" lon="10.714183773261773"><ele>76.0</ele><time>2026-04-19T12:01:55Z</time></trkpt><trkpt lat="43.494344055732725" lon="10.714137441845452"><ele>76.0</ele><time>2026-04-19T12:01:56Z</time></trkpt><trkpt lat="43.494206415234885" lon="10.71408781468004"><ele>76.0</ele><time>2026-04-19T12:01:57Z</time></trkpt><trkpt lat="43.49407197750073" lon="10.714029397592933"><ele>76.0</ele><time>2026-04-19T12:01:58Z</time></trkpt><trkpt lat="43.49394182448936" lon="10.713965377018155"><ele>76.0</ele><time>2026-04-19T12:01:59Z</time></trkpt><trkpt lat="43.493809344238656" lon="10.713891670817056"><ele>76.0</ele><time>2026-04-19T12:02:00Z</time></trkpt><trkpt lat="43.49368413921796" lon="10.713797810531533"><ele>76.0</ele><time>2026-04-19T12:02:01Z</time></trkpt><trkpt lat="43.49355947822037" lon="10.713685918009917"><ele>76.0</ele><time>2026-04-19T12:02:02Z</time></trkpt><trkpt lat="43.49343341218895" lon="10.713566467996925"><ele>77.66666666666666</ele><time>2026-04-19T12:02:03Z</time></trkpt><trkpt lat="43.49330832417388" lon="10.71343978196692"><ele>79.33333333333333</ele><time>2026-04-19T12:02:04Z</time></trkpt><trkpt lat="43.493181567841006" lon="10.713299729275992"><ele>81.0</ele><time>2026-04-19T12:02:05Z</time></trkpt><trkpt lat="43.49305310795829" lon="10.713164559420273"><ele>78.66666666666667</ele><time>2026-04-19T12:02:06Z</time></trkpt><trkpt lat="43.49291161270284" lon="10.713024945801417"><ele>76.33333333333334</ele><time>2026-04-19T12:02:07Z</time></trkpt><trkpt lat="43.492771547322114" lon="10.712885470314722"><ele>74.0</ele><time>2026-04-19T12:02:08Z</time></trkpt><trkpt lat="43.4926323814763" lon="10.71274560777608"><ele>76.66666666666667</ele><time>2026-04-19T12:02:09Z</time></trkpt><trkpt lat="43.49250278476287" lon="10.712594637843647"><ele>79.33333333333333</ele><time>2026-04-19T12:02:10Z</time></trkpt><trkpt lat="43.49238433229902" lon="10.712433367063767"><ele>82.0</ele><time>2026-04-19T12:02:11Z</time></trkpt><trkpt lat="43.49227567428714" lon="10.712255330897023"><ele>82.0</ele><time>2026-04-19T12:02:12Z</time></trkpt><trkpt lat="43.49217252947139" lon="10.712066141394422"><ele>82.0</ele><time>2026-04-19T12:02:13Z</time></trkpt><trkpt lat="43.49207364167286" lon="10.711870132682032"><ele>82.0</ele><time>2026-04-19T12:02:14Z</time></trkpt><trkpt lat="43.491976247977625" lon="10.711667088087378"><ele>81.66666666666666</ele><time>2026-04-19T12:02:15Z</time></trkpt><trkpt lat="43.49187802838376" lon="10.711464037333108"><ele>81.33333333333333</ele><time>2026-04-19T12:02:16Z</time></trkpt><trkpt lat="43.49178148883887" lon="10.711265724455789"><ele>81.0</ele><time>2026-04-19T12:02:17Z</time></trkpt><trkpt lat="43.49168852441001" lon="10.71107111144737"><ele>81.0</ele><time>2026-04-19T12:02:18Z</time></trkpt><trkpt lat="43.491595259758604" lon="10.710882018987904"><ele>81.0</ele><time>2026-04-19T12:02:19Z</time></trkpt><trkpt lat="43.49150233264062" lon="10.710698564359799"><ele>81.0</ele><time>2026-04-19T12:02:20Z</time></trkpt><trkpt lat="43.49140728560823" lon="10.710523383667438"><ele>81.0</ele><time>2026-04-19T12:02:21Z</time></trkpt><trkpt lat="43.491306010351444" lon="10.710361826094097"><ele>81.0</ele><time>2026-04-19T12:02:22Z</time></trkpt><trkpt lat="43.49119958832232" lon="10.710207281124292"><ele>81.0</ele><time>2026-04-19T12:02:23Z</time></trkpt><trkpt lat="43.49108621222165" lon="10.71006741221955"><ele>80.75</ele><time>2026-04-19T12:02:24Z</time></trkpt><trkpt lat="43.490963572890024" lon="10.709947184311769"><ele>80.5</ele><time>2026-04-19T12:02:25Z</time></trkpt><trkpt lat="43.49083971920413" lon="10.709830819121288"><ele>80.25</ele><time>2026-04-19T12:02:26Z</time></trkpt><trkpt lat="43.49071427494355" lon="10.709721719680621"><ele>80.0</ele><time>2026-04-19T12:02:27Z</time></trkpt><trkpt lat="43.490596132528296" lon="10.70961894323855"><ele>80.0</ele><time>2026-04-19T12:02:28Z</time></trkpt><trkpt lat="43.490487491884174" lon="10.709503979600713"><ele>80.0</ele><time>2026-04-19T12:02:29Z</time></trkpt><trkpt lat="43.49037734569005" lon="10.709402119998991"><ele>80.0</ele><time>2026-04-19T12:02:30Z</time></trkpt><trkpt lat="43.49027835679425" lon="10.70929672639836"><ele>80.0</ele><time>2026-04-19T12:02:31Z</time></trkpt><trkpt lat="43.49017527841051" lon="10.709227392733963"><ele>80.6</ele><time>2026-04-19T12:02:32Z</time></trkpt><trkpt lat="43.490106718878124" lon="10.709083213647528"><ele>81.2</ele><time>2026-04-19T12:02:33Z</time></trkpt><trkpt lat="43.490024338209366" lon="10.708995139034018"><ele>81.80000000000001</ele><time>2026-04-19T12:02:34Z</time></trkpt><trkpt lat="43.48993943196924" lon="10.708932977350672"><ele>82.4</ele><time>2026-04-19T12:02:35Z</time></trkpt><trkpt lat="43.489865941157696" lon="10.708875908710045"><ele>83.0</ele><time>2026-04-19T12:02:36Z</time></trkpt><trkpt lat="43.489799591947985" lon="10.708811393886899"><ele>83.0</ele><time>2026-04-19T12:02:37Z</time></trkpt><trkpt lat="43.48974740422654" lon="10.70874476771931"><ele>83.0</ele><time>2026-04-19T12:02:38Z</time></trkpt><trkpt lat="43.48972580787523" lon="10.708650856578101"><ele>83.0</ele><time>2026-04-19T12:02:39Z</time></trkpt><trkpt lat="43.489704739558505" lon="10.708486798670444"><ele>83.0</ele><time>2026-04-19T12:02:41.001Z</time></trkpt><trkpt lat="43.48968879542976" lon="10.708397950935272"><ele>83.0</ele><time>2026-04-19T12:02:42.001Z</time></trkpt><trkpt lat="43.48969685142194" lon="10.708302571257695"><ele>83.0</ele><time>2026-04-19T12:02:43.001Z</time></trkpt><trkpt lat="43.48972220269175" lon="10.708210722645836"><ele>84.14285714285714</ele><time>2026-04-19T12:02:44.001Z</time></trkpt><trkpt lat="43.489742216680774" lon="10.70811881180219"><ele>85.28571428571429</ele><time>2026-04-19T12:02:45.001Z</time></trkpt><trkpt lat="43.489769073569285" lon="10.708020753341984"><ele>86.42857142857143</ele><time>2026-04-19T12:02:46.001Z</time></trkpt><trkpt lat="43.48980472855452" lon="10.707936206665428"><ele>87.57142857142857</ele><time>2026-04-19T12:02:47.001Z</time></trkpt><trkpt lat="43.489841927379054" lon="10.707848071650721"><ele>88.71428571428572</ele><time>2026-04-19T12:02:48.001Z</time></trkpt><trkpt lat="43.48988920395511" lon="10.70778203505738"><ele>89.85714285714286</ele><time>2026-04-19T12:02:49.001Z</time></trkpt><trkpt lat="43.48992825997822" lon="10.707701424623592"><ele>91.0</ele><time>2026-04-19T12:02:50.001Z</time></trkpt><trkpt lat="43.48996881563936" lon="10.707617132496477"><ele>91.33333333333333</ele><time>2026-04-19T12:02:51.001Z</time></trkpt><trkpt lat="43.490008303555676" lon="10.707532999923849"><ele>91.66666666666666</ele><time>2026-04-19T12:02:52.001Z</time></trkpt><trkpt lat="43.4900474745664" lon="10.707446781386812"><ele>92.0</ele><time>2026-04-19T12:02:53.001Z</time></trkpt><trkpt lat="43.49009111069148" lon="10.707350734516947"><ele>92.33333333333333</ele><time>2026-04-19T12:02:54.001Z</time></trkpt><trkpt lat="43.49011632998541" lon="10.707252842979065"><ele>92.66666666666667</ele><time>2026-04-19T12:02:55.001Z</time></trkpt><trkpt lat="43.49015645507353" lon="10.707157340248889"><ele>93.0</ele><time>2026-04-19T12:02:56.001Z</time></trkpt><trkpt lat="43.49019899937701" lon="10.707070131875287"><ele>93.0</ele><time>2026-04-19T12:02:57.001Z</time></trkpt><trkpt lat="43.490250568465676" lon="10.706991201467952"><ele>93.0</ele><time>2026-04-19T12:02:58.001Z</time></trkpt><trkpt lat="43.49034748807342" lon="10.70685766843878"><ele>93.0</ele><time>2026-04-19T12:03:00.001Z</time></trkpt><trkpt lat="43.49040156850614" lon="10.706777907757267"><ele>93.0</ele><time>2026-04-19T12:03:01.001Z</time></trkpt><trkpt lat="43.49045615353616" lon="10.706694089226021"><ele>93.0</ele><time>2026-04-19T12:03:02.001Z</time></trkpt><trkpt lat="43.49051291915275" lon="10.706608460920002"><ele>94.2</ele><time>2026-04-19T12:03:03.001Z</time></trkpt><trkpt lat="43.49055951147954" lon="10.706507438362626"><ele>95.4</ele><time>2026-04-19T12:03:04.001Z</time></trkpt><trkpt lat="43.49060732163931" lon="10.706402831422608"><ele>96.60000000000001</ele><time>2026-04-19T12:03:05.001Z</time></trkpt><trkpt lat="43.49063328073663" lon="10.706277545450584"><ele>97.80000000000001</ele><time>2026-04-19T12:03:06.001Z</time></trkpt><trkpt lat="43.490670670659995" lon="10.706154207374711"><ele>99.0</ele><time>2026-04-19T12:03:07.001Z</time></trkpt><trkpt lat="43.49070858123554" lon="10.706030461170906"><ele>99.4</ele><time>2026-04-19T12:03:08.001Z</time></trkpt><trkpt lat="43.49074101959492" lon="10.705904350302465"><ele>99.80000000000001</ele><time>2026-04-19T12:03:09.001Z</time></trkpt><trkpt lat="43.49077777696114" lon="10.705774143029355"><ele>100.19999999999999</ele><time>2026-04-19T12:03:10.001Z</time></trkpt><trkpt lat="43.490809738261596" lon="10.705650353197827"><ele>100.6</ele><time>2026-04-19T12:03:11.001Z</time></trkpt><trkpt lat="43.490842169300215" lon="10.70552485957109"><ele>101.0</ele><time>2026-04-19T12:03:12.001Z</time></trkpt><trkpt lat="43.490877198944936" lon="10.705397361885701"><ele>101.0</ele><time>2026-04-19T12:03:13.001Z</time></trkpt><trkpt lat="43.4909105055712" lon="10.70527668888879"><ele>101.0</ele><time>2026-04-19T12:03:14.001Z</time></trkpt><trkpt lat="43.49094068289015" lon="10.705157877131876"><ele>101.0</ele><time>2026-04-19T12:03:15.001Z</time></trkpt><trkpt lat="43.490970477858205" lon="10.70504833468025"><ele>101.0</ele><time>2026-04-19T12:03:16.001Z</time></trkpt><trkpt lat="43.49100632785116" lon="10.70492195133147"><ele>101.0</ele><time>2026-04-19T12:03:17.001Z</time></trkpt><trkpt lat="43.49103690188764" lon="10.704799753893452"><ele>101.4</ele><time>2026-04-19T12:03:18.001Z</time></trkpt><trkpt lat="43.49107535277661" lon="10.704671925910242"><ele>101.8</ele><time>2026-04-19T12:03:19.001Z</time></trkpt><trkpt lat="43.49110977335142" lon="10.704542750332827"><ele>102.2</ele><time>2026-04-19T12:03:20.001Z</time></trkpt><trkpt lat="43.49114315677053" lon="10.7044161714825"><ele>102.60000000000001</ele><time>2026-04-19T12:03:21.001Z</time></trkpt><trkpt lat="43.49117777661231" lon="10.704294682816675"><ele>103.0</ele><time>2026-04-19T12:03:22.001Z</time></trkpt><trkpt lat="43.49121518685729" lon="10.70417368044436"><ele>103.2</ele><time>2026-04-19T12:03:23.001Z</time></trkpt><trkpt lat="43.49125094160361" lon="10.704048641377677"><ele>103.4</ele><time>2026-04-19T12:03:24.001Z</time></trkpt><trkpt lat="43.49128598722782" lon="10.703925766270244"><ele>103.60000000000001</ele><time>2026-04-19T12:03:25.001Z</time></trkpt><trkpt lat="43.49132036515577" lon="10.703799999584719"><ele>103.80000000000001</ele><time>2026-04-19T12:03:26.001Z</time></trkpt><trkpt lat="43.49135274408934" lon="10.703672532405282"><ele>104.0</ele><time>2026-04-19T12:03:27.001Z</time></trkpt><trkpt lat="43.49138544001537" lon="10.703549040966902"><ele>105.4</ele><time>2026-04-19T12:03:28.001Z</time></trkpt><trkpt lat="43.49141527903952" lon="10.703431185469327"><ele>106.80000000000001</ele><time>2026-04-19T12:03:29.001Z</time></trkpt><trkpt lat="43.49144871641502" lon="10.70331021725245"><ele>108.19999999999999</ele><time>2026-04-19T12:03:30.001Z</time></trkpt><trkpt lat="43.4914885191914" lon="10.703194450949816"><ele>109.6</ele><time>2026-04-19T12:03:31.001Z</time></trkpt><trkpt lat="43.49152733957367" lon="10.70306947176548"><ele>111.0</ele><time>2026-04-19T12:03:32.001Z</time></trkpt><trkpt lat="43.491569108152525" lon="10.702939229022055"><ele>111.0</ele><time>2026-04-19T12:03:33.001Z</time></trkpt><trkpt lat="43.491616634009034" lon="10.702823610718212"><ele>111.0</ele><time>2026-04-19T12:03:34.001Z</time></trkpt><trkpt lat="43.491667268237" lon="10.702704907190363"><ele>111.0</ele><time>2026-04-19T12:03:35.001Z</time></trkpt><trkpt lat="43.49171526596172" lon="10.702582664073734"><ele>111.0</ele><time>2026-04-19T12:03:36.001Z</time></trkpt><trkpt lat="43.49176336676441" lon="10.702460736678988"><ele>111.0</ele><time>2026-04-19T12:03:37.001Z</time></trkpt><trkpt lat="43.491813853889646" lon="10.702333117846852"><ele>111.6</ele><time>2026-04-19T12:03:38.001Z</time></trkpt><trkpt lat="43.491858905858926" lon="10.702209040766839"><ele>112.19999999999999</ele><time>2026-04-19T12:03:39.001Z</time></trkpt><trkpt lat="43.49190230363032" lon="10.702082739353989"><ele>112.80000000000001</ele><time>2026-04-19T12:03:40.001Z</time></trkpt><trkpt lat="43.49194325181022" lon="10.701947341874163"><ele>113.4</ele><time>2026-04-19T12:03:41.001Z</time></trkpt><trkpt lat="43.49198212848715" lon="10.701812766099527"><ele>114.0</ele><time>2026-04-19T12:03:42.001Z</time></trkpt><trkpt lat="43.492019582723735" lon="10.701680777906434"><ele>114.4</ele><time>2026-04-19T12:03:43.001Z</time></trkpt><trkpt lat="43.492054840323576" lon="10.70155173607508"><ele>114.80000000000001</ele><time>2026-04-19T12:03:44.001Z</time></trkpt><trkpt lat="43.49209140413343" lon="10.70141503894857"><ele>115.19999999999999</ele><time>2026-04-19T12:03:45.001Z</time></trkpt><trkpt lat="43.49211819197878" lon="10.701271467507848"><ele>115.6</ele><time>2026-04-19T12:03:46.001Z</time></trkpt><trkpt lat="43.492135727493576" lon="10.701124832289807"><ele>116.0</ele><time>2026-04-19T12:03:47.001Z</time></trkpt><trkpt lat="43.4921428396035" lon="10.700977919536527"><ele>116.4</ele><time>2026-04-19T12:03:48.001Z</time></trkpt><trkpt lat="43.492162059811605" lon="10.7008312706186"><ele>116.8</ele><time>2026-04-19T12:03:49.001Z</time></trkpt><trkpt lat="43.49216022830521" lon="10.700688928299243"><ele>117.20000000000002</ele><time>2026-04-19T12:03:50.001Z</time></trkpt><trkpt lat="43.492139298162" lon="10.700549154793414"><ele>117.60000000000001</ele><time>2026-04-19T12:03:51.001Z</time></trkpt><trkpt lat="43.49214026165556" lon="10.700411304150371"><ele>118.0</ele><time>2026-04-19T12:03:52.001Z</time></trkpt><trkpt lat="43.49213617898385" lon="10.7002725699213"><ele>118.80000000000001</ele><time>2026-04-19T12:03:53.002Z</time></trkpt><trkpt lat="43.49213573970116" lon="10.700145315353177"><ele>119.60000000000001</ele><time>2026-04-19T12:03:54.002Z</time></trkpt><trkpt lat="43.49214989123168" lon="10.70002291367165"><ele>120.39999999999999</ele><time>2026-04-19T12:03:55.002Z</time></trkpt><trkpt lat="43.492164347064765" lon="10.69987460272632"><ele>121.19999999999999</ele><time>2026-04-19T12:03:56Z</time></trkpt><trkpt lat="43.492198245130055" lon="10.699748346629194"><ele>122.0</ele><time>2026-04-19T12:03:57Z</time></trkpt><trkpt lat="43.49224405147837" lon="10.699621226509029"><ele>122.0</ele><time>2026-04-19T12:03:58Z</time></trkpt><trkpt lat="43.49228927322501" lon="10.699508729928525"><ele>121.99999999999999</ele><time>2026-04-19T12:03:59Z</time></trkpt><trkpt lat="43.49234409355447" lon="10.699412120757497"><ele>121.99999999999999</ele><time>2026-04-19T12:04:00Z</time></trkpt><trkpt lat="43.492388992903855" lon="10.699303092663694"><ele>122.0</ele><time>2026-04-19T12:04:01Z</time></trkpt><trkpt lat="43.49241171803127" lon="10.699180746264933"><ele>122.0</ele><time>2026-04-19T12:04:02Z</time></trkpt><trkpt lat="43.49243689932421" lon="10.699055910595662"><ele>123.0</ele><time>2026-04-19T12:04:03Z</time></trkpt><trkpt lat="43.492447400384954" lon="10.698933479699068"><ele>123.99999999999999</ele><time>2026-04-19T12:04:04Z</time></trkpt><trkpt lat="43.49244259259438" lon="10.698801169666963"><ele>124.99999999999999</ele><time>2026-04-19T12:04:05Z</time></trkpt><trkpt lat="43.492465710334386" lon="10.698677109159446"><ele>126.0</ele><time>2026-04-19T12:04:06Z</time></trkpt><trkpt lat="43.49248991876728" lon="10.698550070554326"><ele>127.0</ele><time>2026-04-19T12:04:07Z</time></trkpt><trkpt lat="43.49251932161522" lon="10.698429068007526"><ele>127.8</ele><time>2026-04-19T12:04:08Z</time></trkpt><trkpt lat="43.49255334516662" lon="10.698310925190139"><ele>128.6</ele><time>2026-04-19T12:04:09Z</time></trkpt><trkpt lat="43.49258921314502" lon="10.698188839602654"><ele>129.39999999999998</ele><time>2026-04-19T12:04:10Z</time></trkpt><trkpt lat="43.49262131337959" lon="10.698067527308957"><ele>130.2</ele><time>2026-04-19T12:04:11Z</time></trkpt><trkpt lat="43.492656103430235" lon="10.69794033319325"><ele>131.0</ele><time>2026-04-19T12:04:12Z</time></trkpt><trkpt lat="43.492694303653195" lon="10.697815907615315"><ele>130.8</ele><time>2026-04-19T12:04:13Z</time></trkpt><trkpt lat="43.49273256556072" lon="10.697687259641667"><ele>130.6</ele><time>2026-04-19T12:04:14Z</time></trkpt><trkpt lat="43.492773189158164" lon="10.697560985320466"><ele>130.4</ele><time>2026-04-19T12:04:15Z</time></trkpt><trkpt lat="43.49281833062209" lon="10.697447013085549"><ele>130.2</ele><time>2026-04-19T12:04:16Z</time></trkpt><trkpt lat="43.492876816726564" lon="10.697354030204558"><ele>130.0</ele><time>2026-04-19T12:04:17Z</time></trkpt><trkpt lat="43.49295196351172" lon="10.697265110281274"><ele>130.0</ele><time>2026-04-19T12:04:18Z</time></trkpt><trkpt lat="43.493029502475686" lon="10.697185105719889"><ele>130.0</ele><time>2026-04-19T12:04:19Z</time></trkpt><trkpt lat="43.49310875413988" lon="10.697103681442789"><ele>130.0</ele><time>2026-04-19T12:04:20Z</time></trkpt><trkpt lat="43.49318743112483" lon="10.697016211034382"><ele>130.0</ele><time>2026-04-19T12:04:21Z</time></trkpt><trkpt lat="43.49326351417307" lon="10.69693440645376"><ele>130.0</ele><time>2026-04-19T12:04:22Z</time></trkpt><trkpt lat="43.493339971829" lon="10.696847832911258"><ele>130.8</ele><time>2026-04-19T12:04:23Z</time></trkpt><trkpt lat="43.49341726996624" lon="10.696770373045817"><ele>131.6</ele><time>2026-04-19T12:04:24Z</time></trkpt><trkpt lat="43.493491004894025" lon="10.696696696560176"><ele>132.4</ele><time>2026-04-19T12:04:25Z</time></trkpt><trkpt lat="43.49357570260044" lon="10.69661986806479"><ele>133.2</ele><time>2026-04-19T12:04:26Z</time></trkpt><trkpt lat="43.493659398053175" lon="10.696540814460676"><ele>134.0</ele><time>2026-04-19T12:04:27Z</time></trkpt><trkpt lat="43.49374450194639" lon="10.696451047235511"><ele>133.8</ele><time>2026-04-19T12:04:28Z</time></trkpt><trkpt lat="43.493829857067944" lon="10.696360285163566"><ele>133.60000000000002</ele><time>2026-04-19T12:04:29Z</time></trkpt><trkpt lat="43.493914872172425" lon="10.696271264131957"><ele>133.4</ele><time>2026-04-19T12:04:30Z</time></trkpt><trkpt lat="43.49400198463029" lon="10.69618051575659"><ele>133.20000000000002</ele><time>2026-04-19T12:04:31Z</time></trkpt><trkpt lat="43.49409203383354" lon="10.696087755107966"><ele>133.0</ele><time>2026-04-19T12:04:32Z</time></trkpt><trkpt lat="43.494178770975736" lon="10.69599726781321"><ele>133.6</ele><time>2026-04-19T12:04:33Z</time></trkpt><trkpt lat="43.49426826402271" lon="10.6959036005959"><ele>134.20000000000002</ele><time>2026-04-19T12:04:34.001Z</time></trkpt><trkpt lat="43.494358351613656" lon="10.695815864827209"><ele>134.8</ele><time>2026-04-19T12:04:35.001Z</time></trkpt><trkpt lat="43.49444801166275" lon="10.695728311909201"><ele>135.4</ele><time>2026-04-19T12:04:36.001Z</time></trkpt><trkpt lat="43.49453532572811" lon="10.69564627375629"><ele>136.0</ele><time>2026-04-19T12:04:37.001Z</time></trkpt><trkpt lat="43.494617397588904" lon="10.695571217824607"><ele>136.6</ele><time>2026-04-19T12:04:38.001Z</time></trkpt><trkpt lat="43.494690495331035" lon="10.695491918717472"><ele>137.2</ele><time>2026-04-19T12:04:39.001Z</time></trkpt><trkpt lat="43.494768870923274" lon="10.695419377429607"><ele>137.8</ele><time>2026-04-19T12:04:40.001Z</time></trkpt><trkpt lat="43.49484380161514" lon="10.69535243260688"><ele>138.4</ele><time>2026-04-19T12:04:41.001Z</time></trkpt><trkpt lat="43.494924507800185" lon="10.69526921081851"><ele>139.0</ele><time>2026-04-19T12:04:42.001Z</time></trkpt><trkpt lat="43.4950029345701" lon="10.695189486363848"><ele>139.8</ele><time>2026-04-19T12:04:43.001Z</time></trkpt><trkpt lat="43.49508594827349" lon="10.695105492574543"><ele>140.60000000000002</ele><time>2026-04-19T12:04:44.001Z</time></trkpt><trkpt lat="43.49517754725938" lon="10.695037069845073"><ele>141.4</ele><time>2026-04-19T12:04:45.001Z</time></trkpt><trkpt lat="43.495229666977075" lon="10.694959067019495"><ele>142.20000000000002</ele><time>2026-04-19T12:04:46.001Z</time></trkpt><trkpt lat="43.49530031325482" lon="10.694876978833769"><ele>143.0</ele><time>2026-04-19T12:04:47.001Z</time></trkpt><trkpt lat="43.495381305888635" lon="10.694808140335537"><ele>141.83333333333331</ele><time>2026-04-19T12:04:48.001Z</time></trkpt><trkpt lat="43.495461977936166" lon="10.694756516891983"><ele>140.66666666666666</ele><time>2026-04-19T12:04:49.001Z</time></trkpt><trkpt lat="43.49554526983199" lon="10.694714353689802"><ele>139.5</ele><time>2026-04-19T12:04:50.001Z</time></trkpt><trkpt lat="43.49561702734265" lon="10.69469969087734"><ele>138.33333333333334</ele><time>2026-04-19T12:04:51.001Z</time></trkpt><trkpt lat="43.495693413796346" lon="10.694676759397401"><ele>137.16666666666669</ele><time>2026-04-19T12:04:52.001Z</time></trkpt><trkpt lat="43.49579973795769" lon="10.694643368009997"><ele>136.0</ele><time>2026-04-19T12:04:54.001Z</time></trkpt><trkpt lat="43.495904529485486" lon="10.694606484080282"><ele>135.99999999999997</ele><time>2026-04-19T12:04:56.001Z</time></trkpt><trkpt lat="43.49601488156195" lon="10.694578051001232"><ele>136.0</ele><time>2026-04-19T12:04:58.001Z</time></trkpt><trkpt lat="43.496077854826204" lon="10.69456686125071"><ele>136.0</ele><time>2026-04-19T12:04:59.001Z</time></trkpt><trkpt lat="43.49614111675313" lon="10.694550702293505"><ele>136.0</ele><time>2026-04-19T12:05:00.001Z</time></trkpt><trkpt lat="43.49620929669319" lon="10.694523776639736"><ele>136.0</ele><time>2026-04-19T12:05:01.001Z</time></trkpt><trkpt lat="43.49627544767408" lon="10.694500788154896"><ele>135.99999999999997</ele><time>2026-04-19T12:05:02.001Z</time></trkpt><trkpt lat="43.496341413747416" lon="10.694473567810828"><ele>136.0</ele><time>2026-04-19T12:05:03.001Z</time></trkpt><trkpt lat="43.49647105963017" lon="10.694401369447625"><ele>137.85714285714283</ele><time>2026-04-19T12:05:05.001Z</time></trkpt><trkpt lat="43.49653422807255" lon="10.694355017571647"><ele>139.71428571428572</ele><time>2026-04-19T12:05:06.001Z</time></trkpt><trkpt lat="43.496587751339106" lon="10.694306116682675"><ele>141.57142857142856</ele><time>2026-04-19T12:05:07.001Z</time></trkpt><trkpt lat="43.496630545576984" lon="10.694237276497457"><ele>143.42857142857142</ele><time>2026-04-19T12:05:08.001Z</time></trkpt><trkpt lat="43.49667429104084" lon="10.6941744027883"><ele>145.28571428571428</ele><time>2026-04-19T12:05:09.001Z</time></trkpt><trkpt lat="43.4967143032865" lon="10.6941035467073"><ele>147.14285714285714</ele><time>2026-04-19T12:05:10.001Z</time></trkpt><trkpt lat="43.4967485952743" lon="10.694022954448897"><ele>149.0</ele><time>2026-04-19T12:05:11.001Z</time></trkpt><trkpt lat="43.49676799944488" lon="10.693932309063321"><ele>149.0</ele><time>2026-04-19T12:05:12.001Z</time></trkpt><trkpt lat="43.49678688498839" lon="10.693836639579105"><ele>149.0</ele><time>2026-04-19T12:05:13.001Z</time></trkpt><trkpt lat="43.49679848962683" lon="10.693739437674601"><ele>149.0</ele><time>2026-04-19T12:05:14.001Z</time></trkpt><trkpt lat="43.49681492413224" lon="10.693623429449408"><ele>149.0</ele><time>2026-04-19T12:05:15.001Z</time></trkpt><trkpt lat="43.49682926503077" lon="10.693518972003995"><ele>149.0</ele><time>2026-04-19T12:05:16.001Z</time></trkpt><trkpt lat="43.496845185674395" lon="10.693424809588178"><ele>149.0</ele><time>2026-04-19T12:05:17.001Z</time></trkpt><trkpt lat="43.49686452711583" lon="10.693322682419236"><ele>148.71428571428572</ele><time>2026-04-19T12:05:18.001Z</time></trkpt><trkpt lat="43.49687796876361" lon="10.69323477475911"><ele>148.42857142857142</ele><time>2026-04-19T12:05:19.001Z</time></trkpt><trkpt lat="43.496889590773144" lon="10.693144104466844"><ele>148.14285714285714</ele><time>2026-04-19T12:05:20.001Z</time></trkpt><trkpt lat="43.496900725005936" lon="10.693047367148148"><ele>147.85714285714286</ele><time>2026-04-19T12:05:21.001Z</time></trkpt><trkpt lat="43.496911453017255" lon="10.692961448389086"><ele>147.57142857142856</ele><time>2026-04-19T12:05:22.001Z</time></trkpt><trkpt lat="43.496921957104526" lon="10.692870292341473"><ele>147.28571428571428</ele><time>2026-04-19T12:05:23.001Z</time></trkpt><trkpt lat="43.496947779483754" lon="10.692766058002015"><ele>147.0</ele><time>2026-04-19T12:05:24.001Z</time></trkpt><trkpt lat="43.49696471151541" lon="10.6926605139724"><ele>145.66666666666666</ele><time>2026-04-19T12:05:25.001Z</time></trkpt><trkpt lat="43.496980492963196" lon="10.692548491377464"><ele>144.33333333333334</ele><time>2026-04-19T12:05:26.001Z</time></trkpt><trkpt lat="43.49699978430313" lon="10.69238874080349"><ele>143.0</ele><time>2026-04-19T12:05:28.001Z</time></trkpt><trkpt lat="43.49701723987283" lon="10.692262524350513"><ele>141.66666666666669</ele><time>2026-04-19T12:05:30.001Z</time></trkpt><trkpt lat="43.497030801917745" lon="10.692166664152603"><ele>140.33333333333334</ele><time>2026-04-19T12:05:33.001Z</time></trkpt><trkpt lat="43.49704653961031" lon="10.692062105922954"><ele>139.0</ele><time>2026-04-19T12:05:36.001Z</time></trkpt><trkpt lat="43.49706726898941" lon="10.691979266527754"><ele>139.2</ele><time>2026-04-19T12:05:38.001Z</time></trkpt><trkpt lat="43.49707950413735" lon="10.691829298907615"><ele>139.4</ele><time>2026-04-19T12:05:40.001Z</time></trkpt><trkpt lat="43.497090205607016" lon="10.691735883737833"><ele>139.6</ele><time>2026-04-19T12:05:41.001Z</time></trkpt><trkpt lat="43.4971144211197" lon="10.69157131768166"><ele>139.8</ele><time>2026-04-19T12:05:43.001Z</time></trkpt><trkpt lat="43.4971346070154" lon="10.691409626115671"><ele>140.0</ele><time>2026-04-19T12:05:45.001Z</time></trkpt><trkpt lat="43.49715622748887" lon="10.691239467054396"><ele>140.0</ele><time>2026-04-19T12:05:47.001Z</time></trkpt><trkpt lat="43.49716860798543" lon="10.691149586961346"><ele>140.0</ele><time>2026-04-19T12:05:48.001Z</time></trkpt><trkpt lat="43.49717845874504" lon="10.69106139997523"><ele>140.0</ele><time>2026-04-19T12:05:49.001Z</time></trkpt><trkpt lat="43.497190695055316" lon="10.690966678034682"><ele>140.0</ele><time>2026-04-19T12:05:50.001Z</time></trkpt><trkpt lat="43.49719935266706" lon="10.690872156944137"><ele>140.0</ele><time>2026-04-19T12:05:51.002Z</time></trkpt><trkpt lat="43.49722172967245" lon="10.690731209424817"><ele>140.0</ele><time>2026-04-19T12:05:53.002Z</time></trkpt><trkpt lat="43.49725110404341" lon="10.690587985870383"><ele>140.16666666666666</ele><time>2026-04-19T12:05:55.002Z</time></trkpt><trkpt lat="43.49726657783494" lon="10.69046627036671"><ele>140.33333333333331</ele><time>2026-04-19T12:05:57.002Z</time></trkpt><trkpt lat="43.49728148988525" lon="10.690351680250043"><ele>140.5</ele><time>2026-04-19T12:05:59.002Z</time></trkpt><trkpt lat="43.49729733263502" lon="10.690235036027008"><ele>140.66666666666666</ele><time>2026-04-19T12:06:01.002Z</time></trkpt><trkpt lat="43.4973137432708" lon="10.690123512006142"><ele>140.83333333333334</ele><time>2026-04-19T12:06:03Z</time></trkpt><trkpt lat="43.49733473386123" lon="10.689980863888879"><ele>141.0</ele><time>2026-04-19T12:06:05Z</time></trkpt><trkpt lat="43.49735597323063" lon="10.68983652444339"><ele>141.2</ele><time>2026-04-19T12:06:07Z</time></trkpt><trkpt lat="43.49737745198022" lon="10.689693104156605"><ele>141.39999999999998</ele><time>2026-04-19T12:06:09Z</time></trkpt><trkpt lat="43.497400544094965" lon="10.689541653459955"><ele>141.6</ele><time>2026-04-19T12:06:11Z</time></trkpt><trkpt lat="43.497423429147844" lon="10.689391560884888"><ele>141.79999999999998</ele><time>2026-04-19T12:06:13Z</time></trkpt><trkpt lat="43.497446460368735" lon="10.689237808556163"><ele>142.0</ele><time>2026-04-19T12:06:15Z</time></trkpt><trkpt lat="43.49746525362857" lon="10.689102947461404"><ele>142.0</ele><time>2026-04-19T12:06:17Z</time></trkpt><trkpt lat="43.4974832725048" lon="10.688962904414792"><ele>142.0</ele><time>2026-04-19T12:06:19Z</time></trkpt><trkpt lat="43.497502080040185" lon="10.68881673181714"><ele>142.0</ele><time>2026-04-19T12:06:21Z</time></trkpt><trkpt lat="43.49752012275731" lon="10.688676503426498"><ele>142.0</ele><time>2026-04-19T12:06:23Z</time></trkpt><trkpt lat="43.49753912054599" lon="10.688528852297942"><ele>142.0</ele><time>2026-04-19T12:06:25Z</time></trkpt><trkpt lat="43.49755683766225" lon="10.688391154350663"><ele>142.2</ele><time>2026-04-19T12:06:27Z</time></trkpt><trkpt lat="43.497574817790714" lon="10.688251412456685"><ele>142.39999999999998</ele><time>2026-04-19T12:06:29Z</time></trkpt><trkpt lat="43.497593086845825" lon="10.688117353505804"><ele>142.60000000000002</ele><time>2026-04-19T12:06:31Z</time></trkpt><trkpt lat="43.497611706929604" lon="10.687981119433308"><ele>142.8</ele><time>2026-04-19T12:06:33Z</time></trkpt><trkpt lat="43.49763061513832" lon="10.687844606354625"><ele>143.0</ele><time>2026-04-19T12:06:35Z</time></trkpt><trkpt lat="43.49765225665827" lon="10.687697666238547"><ele>143.6</ele><time>2026-04-19T12:06:37Z</time></trkpt><trkpt lat="43.497674025652245" lon="10.687551179080542"><ele>144.20000000000002</ele><time>2026-04-19T12:06:39Z</time></trkpt><trkpt lat="43.49769754474191" lon="10.687396645522876"><ele>144.8</ele><time>2026-04-19T12:06:41Z</time></trkpt><trkpt lat="43.497719551156855" lon="10.68725022005716"><ele>145.4</ele><time>2026-04-19T12:06:43Z</time></trkpt><trkpt lat="43.497737124354785" lon="10.687117900130316"><ele>146.0</ele><time>2026-04-19T12:06:45Z</time></trkpt><trkpt lat="43.497760084479545" lon="10.686982170690218"><ele>146.2</ele><time>2026-04-19T12:06:47Z</time></trkpt><trkpt lat="43.49779529022835" lon="10.686850753348327"><ele>146.39999999999998</ele><time>2026-04-19T12:06:49.001Z</time></trkpt><trkpt lat="43.497841540753114" lon="10.686732638221212"><ele>146.6</ele><time>2026-04-19T12:06:51.001Z</time></trkpt><trkpt lat="43.49789689428149" lon="10.686609560746133"><ele>146.79999999999998</ele><time>2026-04-19T12:06:53.001Z</time></trkpt><trkpt lat="43.497951249536115" lon="10.686492981194048"><ele>147.0</ele><time>2026-04-19T12:06:55.001Z</time></trkpt><trkpt lat="43.49798827619811" lon="10.6863855362369"><ele>147.0</ele><time>2026-04-19T12:06:57.001Z</time></trkpt><trkpt lat="43.49803734998084" lon="10.686296529610196"><ele>147.0</ele><time>2026-04-19T12:06:59.001Z</time></trkpt><trkpt lat="43.49809816999991" lon="10.686171143181092"><ele>147.0</ele><time>2026-04-19T12:07:01.001Z</time></trkpt><trkpt lat="43.49813445921468" lon="10.686096999251589"><ele>147.0</ele><time>2026-04-19T12:07:02.001Z</time></trkpt><trkpt lat="43.49819387783986" lon="10.685977957709"><ele>147.0</ele><time>2026-04-19T12:07:04.001Z</time></trkpt><trkpt lat="43.49824751481314" lon="10.68585246931018"><ele>147.0</ele><time>2026-04-19T12:07:06.001Z</time></trkpt><trkpt lat="43.49831854038504" lon="10.685723626279767"><ele>147.0</ele><time>2026-04-19T12:07:08.001Z</time></trkpt><trkpt lat="43.49836861861424" lon="10.68558219768561"><ele>147.0</ele><time>2026-04-19T12:07:10.001Z</time></trkpt><trkpt lat="43.49839352261487" lon="10.685498707222905"><ele>147.0</ele><time>2026-04-19T12:07:11.001Z</time></trkpt><trkpt lat="43.4984337887895" lon="10.685334957261494"><ele>147.0</ele><time>2026-04-19T12:07:13.001Z</time></trkpt><trkpt lat="43.498447905770625" lon="10.685238007539756"><ele>148.0</ele><time>2026-04-19T12:07:14.001Z</time></trkpt><trkpt lat="43.49845701273573" lon="10.685146660109647"><ele>149.0</ele><time>2026-04-19T12:07:15.001Z</time></trkpt><trkpt lat="43.49846055507182" lon="10.684986448257982"><ele>150.0</ele><time>2026-04-19T12:07:17.001Z</time></trkpt><trkpt lat="43.49845495930781" lon="10.68489606595156"><ele>151.0</ele><time>2026-04-19T12:07:18.001Z</time></trkpt><trkpt lat="43.49844015969146" lon="10.684811186953059"><ele>152.0</ele><time>2026-04-19T12:07:19.001Z</time></trkpt><trkpt lat="43.498406402569344" lon="10.684650322650787"><ele>153.0</ele><time>2026-04-19T12:07:21.001Z</time></trkpt><trkpt lat="43.49836781176581" lon="10.6844874066898"><ele>153.0</ele><time>2026-04-19T12:07:23.001Z</time></trkpt><trkpt lat="43.498330220822055" lon="10.684328711620653"><ele>153.0</ele><time>2026-04-19T12:07:25.001Z</time></trkpt><trkpt lat="43.49829242026106" lon="10.684169131609272"><ele>153.0</ele><time>2026-04-19T12:07:27.001Z</time></trkpt><trkpt lat="43.49826138056876" lon="10.68401630184863"><ele>153.0</ele><time>2026-04-19T12:07:29.001Z</time></trkpt><trkpt lat="43.49823683191704" lon="10.683859684023115"><ele>153.0</ele><time>2026-04-19T12:07:31.001Z</time></trkpt><trkpt lat="43.498236668415316" lon="10.68370130281979"><ele>153.0</ele><time>2026-04-19T12:07:33.001Z</time></trkpt><trkpt lat="43.498258311592934" lon="10.683540682136702"><ele>153.0</ele><time>2026-04-19T12:07:35.001Z</time></trkpt><trkpt lat="43.49828192483689" lon="10.683377865021422"><ele>153.0</ele><time>2026-04-19T12:07:37.001Z</time></trkpt><trkpt lat="43.498287365539255" lon="10.68323033700965"><ele>152.8</ele><time>2026-04-19T12:07:39.001Z</time></trkpt><trkpt lat="43.498311973040245" lon="10.683103798102598"><ele>152.60000000000002</ele><time>2026-04-19T12:07:41.001Z</time></trkpt><trkpt lat="43.49832830772234" lon="10.682992795648904"><ele>152.39999999999998</ele><time>2026-04-19T12:07:43.001Z</time></trkpt><trkpt lat="43.49836195813759" lon="10.682867374127023"><ele>152.2</ele><time>2026-04-19T12:07:45.001Z</time></trkpt><trkpt lat="43.49837888571155" lon="10.68271988252715"><ele>152.0</ele><time>2026-04-19T12:07:47.001Z</time></trkpt><trkpt lat="43.498404585624755" lon="10.682587294149265"><ele>152.79999999999998</ele><time>2026-04-19T12:07:49.001Z</time></trkpt><trkpt lat="43.498437904946265" lon="10.68247058210901"><ele>153.6</ele><time>2026-04-19T12:07:51.001Z</time></trkpt><trkpt lat="43.498486528125824" lon="10.682357840208264"><ele>154.39999999999998</ele><time>2026-04-19T12:07:53.001Z</time></trkpt><trkpt lat="43.49855177650393" lon="10.682268598747331"><ele>155.2</ele><time>2026-04-19T12:07:55.001Z</time></trkpt><trkpt lat="43.498632681318355" lon="10.682205834785675"><ele>156.0</ele><time>2026-04-19T12:07:57.001Z</time></trkpt><trkpt lat="43.49873183052184" lon="10.682159020422455"><ele>154.83333333333334</ele><time>2026-04-19T12:07:59.001Z</time></trkpt><trkpt lat="43.498792775741414" lon="10.682123674099731"><ele>153.66666666666666</ele><time>2026-04-19T12:08:00.001Z</time></trkpt><trkpt lat="43.4988540943805" lon="10.682095617171086"><ele>152.5</ele><time>2026-04-19T12:08:01.001Z</time></trkpt><trkpt lat="43.49896793077118" lon="10.68205409403309"><ele>151.33333333333331</ele><time>2026-04-19T12:08:03.001Z</time></trkpt><trkpt lat="43.49906879011933" lon="10.682008196273811"><ele>150.16666666666666</ele><time>2026-04-19T12:08:05.001Z</time></trkpt><trkpt lat="43.499157703674086" lon="10.681973012627537"><ele>149.0</ele><time>2026-04-19T12:08:07.001Z</time></trkpt><trkpt lat="43.49923477671926" lon="10.681940481940785"><ele>149.8</ele><time>2026-04-19T12:08:09Z</time></trkpt><trkpt lat="43.499318316017444" lon="10.68190792085647"><ele>150.60000000000002</ele><time>2026-04-19T12:08:11Z</time></trkpt><trkpt lat="43.49940703508999" lon="10.681877582125347"><ele>151.4</ele><time>2026-04-19T12:08:13Z</time></trkpt><trkpt lat="43.49950793383232" lon="10.681837784960594"><ele>152.20000000000002</ele><time>2026-04-19T12:08:15Z</time></trkpt><trkpt lat="43.4995974540596" lon="10.68179608185065"><ele>153.0</ele><time>2026-04-19T12:08:17Z</time></trkpt><trkpt lat="43.49968465194282" lon="10.681761433384073"><ele>153.0</ele><time>2026-04-19T12:08:19Z</time></trkpt><trkpt lat="43.49976689340426" lon="10.681720059873754"><ele>153.0</ele><time>2026-04-19T12:08:21Z</time></trkpt><trkpt lat="43.4998445044944" lon="10.681687032927897"><ele>153.0</ele><time>2026-04-19T12:08:23Z</time></trkpt><trkpt lat="43.49992069227995" lon="10.681651657837147"><ele>153.0</ele><time>2026-04-19T12:08:25Z</time></trkpt><trkpt lat="43.49999741237125" lon="10.681635156479835"><ele>153.0</ele><time>2026-04-19T12:08:27Z</time></trkpt><trkpt lat="43.50006840790595" lon="10.681605756684096"><ele>153.0</ele><time>2026-04-19T12:08:30Z</time></trkpt><trkpt lat="43.500149049750505" lon="10.681573892819635"><ele>153.0</ele><time>2026-04-19T12:08:33Z</time></trkpt><trkpt lat="43.50020804093064" lon="10.681538523618224"><ele>153.0</ele><time>2026-04-19T12:08:35Z</time></trkpt><trkpt lat="43.500283708597195" lon="10.681501244883963"><ele>153.0</ele><time>2026-04-19T12:08:37Z</time></trkpt><trkpt lat="43.50037201596227" lon="10.68146485446193"><ele>153.0</ele><time>2026-04-19T12:08:39Z</time></trkpt><trkpt lat="43.50047611692384" lon="10.681431728216104"><ele>153.0</ele><time>2026-04-19T12:08:41Z</time></trkpt><trkpt lat="43.50057765558998" lon="10.681409806430663"><ele>153.0</ele><time>2026-04-19T12:08:43Z</time></trkpt><trkpt lat="43.50068702205092" lon="10.681389671826537"><ele>152.6</ele><time>2026-04-19T12:08:45Z</time></trkpt><trkpt lat="43.50079330643565" lon="10.681378466063038"><ele>152.20000000000002</ele><time>2026-04-19T12:08:47Z</time></trkpt><trkpt lat="43.500875432023385" lon="10.68137738279541"><ele>151.8</ele><time>2026-04-19T12:08:49Z</time></trkpt><trkpt lat="43.500965061374266" lon="10.681365060493194"><ele>151.4</ele><time>2026-04-19T12:08:51.001Z</time></trkpt><trkpt lat="43.5010500155773" lon="10.681349484217048"><ele>151.0</ele><time>2026-04-19T12:08:53.001Z</time></trkpt><trkpt lat="43.501138808132545" lon="10.681335077294765"><ele>151.0</ele><time>2026-04-19T12:08:56.001Z</time></trkpt><trkpt lat="43.50121294324218" lon="10.681303616888684"><ele>151.0</ele><time>2026-04-19T12:08:58.001Z</time></trkpt><trkpt lat="43.501287813608904" lon="10.681263544182285"><ele>151.0</ele><time>2026-04-19T12:09:00.001Z</time></trkpt><trkpt lat="43.50137288081791" lon="10.68124278406687"><ele>151.0</ele><time>2026-04-19T12:09:02.001Z</time></trkpt><trkpt lat="43.501463809049" lon="10.681182981270386"><ele>151.0</ele><time>2026-04-19T12:09:04.001Z</time></trkpt><trkpt lat="43.50155500942692" lon="10.68110455253172"><ele>150.75</ele><time>2026-04-19T12:09:06.001Z</time></trkpt><trkpt lat="43.50163534955684" lon="10.68099017545993"><ele>150.5</ele><time>2026-04-19T12:09:08.001Z</time></trkpt><trkpt lat="43.501729408991935" lon="10.6808967128011"><ele>150.25</ele><time>2026-04-19T12:09:10.001Z</time></trkpt><trkpt lat="43.50181508368663" lon="10.680787267511432"><ele>150.0</ele><time>2026-04-19T12:09:12.001Z</time></trkpt><trkpt lat="43.50190086528806" lon="10.680677985966147"><ele>150.0</ele><time>2026-04-19T12:09:14.001Z</time></trkpt><trkpt lat="43.501974148360326" lon="10.6805725836132"><ele>150.0</ele><time>2026-04-19T12:09:16.001Z</time></trkpt><trkpt lat="43.502044482177574" lon="10.680476167268209"><ele>150.0</ele><time>2026-04-19T12:09:18.001Z</time></trkpt><trkpt lat="43.50211331763439" lon="10.680376479982124"><ele>150.0</ele><time>2026-04-19T12:09:20.001Z</time></trkpt><trkpt lat="43.50219002814696" lon="10.68028313629388"><ele>150.0</ele><time>2026-04-19T12:09:22.001Z</time></trkpt><trkpt lat="43.502259388108854" lon="10.680189506812189"><ele>149.0</ele><time>2026-04-19T12:09:24.001Z</time></trkpt><trkpt lat="43.50231138209249" lon="10.680127223327244"><ele>148.0</ele><time>2026-04-19T12:09:26.001Z</time></trkpt><trkpt lat="43.50238224680511" lon="10.680041663845108"><ele>147.0</ele><time>2026-04-19T12:09:28.001Z</time></trkpt><trkpt lat="43.502459947532934" lon="10.67995498784206"><ele>146.0</ele><time>2026-04-19T12:09:30.001Z</time></trkpt><trkpt lat="43.502538133678236" lon="10.679872017764234"><ele>145.0</ele><time>2026-04-19T12:09:32.001Z</time></trkpt><trkpt lat="43.50261189927248" lon="10.679792922779388"><ele>145.0</ele><time>2026-04-19T12:09:34.001Z</time></trkpt><trkpt lat="43.502687891310565" lon="10.679699539841637"><ele>145.0</ele><time>2026-04-19T12:09:36.001Z</time></trkpt><trkpt lat="43.50275936470843" lon="10.679624068195384"><ele>145.0</ele><time>2026-04-19T12:09:38.001Z</time></trkpt><trkpt lat="43.50283178227592" lon="10.679552298745865"><ele>145.0</ele><time>2026-04-19T12:09:40.001Z</time></trkpt><trkpt lat="43.50290499329815" lon="10.679487971625388"><ele>145.0</ele><time>2026-04-19T12:09:42.001Z</time></trkpt><trkpt lat="43.502983153062274" lon="10.679448515120857"><ele>146.83333333333334</ele><time>2026-04-19T12:09:44.001Z</time></trkpt><trkpt lat="43.50305645526762" lon="10.679408262613643"><ele>148.66666666666669</ele><time>2026-04-19T12:09:46.001Z</time></trkpt><trkpt lat="43.50313569126652" lon="10.679344551199938"><ele>150.5</ele><time>2026-04-19T12:09:48.001Z</time></trkpt><trkpt lat="43.50321674268318" lon="10.679296282241266"><ele>152.33333333333334</ele><time>2026-04-19T12:09:50.001Z</time></trkpt><trkpt lat="43.50329736043255" lon="10.679252759119125"><ele>154.16666666666666</ele><time>2026-04-19T12:09:52.001Z</time></trkpt><trkpt lat="43.50337519947837" lon="10.679223059170418"><ele>156.0</ele><time>2026-04-19T12:09:54.001Z</time></trkpt><trkpt lat="43.50346273330142" lon="10.679198098428483"><ele>156.0</ele><time>2026-04-19T12:09:56.001Z</time></trkpt><trkpt lat="43.50354644958992" lon="10.679198649164556"><ele>156.0</ele><time>2026-04-19T12:09:58.001Z</time></trkpt><trkpt lat="43.50363982497688" lon="10.679214393882686"><ele>156.0</ele><time>2026-04-19T12:10:00.001Z</time></trkpt><trkpt lat="43.50372068939288" lon="10.679211268246108"><ele>156.0</ele><time>2026-04-19T12:10:02.001Z</time></trkpt><trkpt lat="43.50379200024494" lon="10.67923920954757"><ele>156.0</ele><time>2026-04-19T12:10:04.001Z</time></trkpt><trkpt lat="43.50386797214861" lon="10.679265725683862"><ele>156.0</ele><time>2026-04-19T12:10:06.001Z</time></trkpt><trkpt lat="43.50394355330009" lon="10.67929645997392"><ele>155.66666666666666</ele><time>2026-04-19T12:10:08.001Z</time></trkpt><trkpt lat="43.50402085621561" lon="10.679316728698776"><ele>155.33333333333334</ele><time>2026-04-19T12:10:10.001Z</time></trkpt><trkpt lat="43.504092302937295" lon="10.679332338325622"><ele>155.0</ele><time>2026-04-19T12:10:12.002Z</time></trkpt><trkpt lat="43.504179354972884" lon="10.67935543879393"><ele>154.66666666666669</ele><time>2026-04-19T12:10:14Z</time></trkpt><trkpt lat="43.50426105093304" lon="10.679382593668883"><ele>154.33333333333334</ele><time>2026-04-19T12:10:16Z</time></trkpt><trkpt lat="43.50435484368307" lon="10.679412955649067"><ele>154.0</ele><time>2026-04-19T12:10:18Z</time></trkpt><trkpt lat="43.5044516736937" lon="10.679448522074248"><ele>154.0</ele><time>2026-04-19T12:10:20Z</time></trkpt><trkpt lat="43.50453565325094" lon="10.679463976400307"><ele>154.0</ele><time>2026-04-19T12:10:22Z</time></trkpt><trkpt lat="43.50463290779736" lon="10.679488200334971"><ele>154.0</ele><time>2026-04-19T12:10:25Z</time></trkpt><trkpt lat="43.504713867176136" lon="10.679513752598556"><ele>154.0</ele><time>2026-04-19T12:10:27Z</time></trkpt><trkpt lat="43.50477877731708" lon="10.679544895538324"><ele>154.0</ele><time>2026-04-19T12:10:29Z</time></trkpt><trkpt lat="43.50484673975028" lon="10.679582468556955"><ele>154.0</ele><time>2026-04-19T12:10:31Z</time></trkpt><trkpt lat="43.50491945557718" lon="10.679609629908331"><ele>154.0</ele><time>2026-04-19T12:10:33Z</time></trkpt><trkpt lat="43.505025147779925" lon="10.679571310238018"><ele>154.0</ele><time>2026-04-19T12:10:35Z</time></trkpt><trkpt lat="43.50508948246624" lon="10.679452647307512"><ele>154.0</ele><time>2026-04-19T12:10:37Z</time></trkpt><trkpt lat="43.50516798248966" lon="10.67930070553186"><ele>154.0</ele><time>2026-04-19T12:10:39Z</time></trkpt><trkpt lat="43.50521016517396" lon="10.679211486002698"><ele>154.0</ele><time>2026-04-19T12:10:40Z</time></trkpt><trkpt lat="43.505250146148654" lon="10.679127361246957"><ele>153.5</ele><time>2026-04-19T12:10:41Z</time></trkpt><trkpt lat="43.50528776831297" lon="10.679051853418919"><ele>153.0</ele><time>2026-04-19T12:10:42Z</time></trkpt><trkpt lat="43.50532881299081" lon="10.678975514345257"><ele>152.5</ele><time>2026-04-19T12:10:45Z</time></trkpt><trkpt lat="43.50539368655702" lon="10.678853067391046"><ele>152.0</ele><time>2026-04-19T12:10:49Z</time></trkpt><trkpt lat="43.505419319875685" lon="10.678766267954387"><ele>151.5</ele><time>2026-04-19T12:10:50Z</time></trkpt><trkpt lat="43.50545788050353" lon="10.67868473670117"><ele>151.0</ele><time>2026-04-19T12:10:51Z</time></trkpt><trkpt lat="43.505495647535966" lon="10.67859741703815"><ele>150.5</ele><time>2026-04-19T12:10:52Z</time></trkpt><trkpt lat="43.50554990856587" lon="10.67851052982913"><ele>150.0</ele><time>2026-04-19T12:10:53Z</time></trkpt><trkpt lat="43.50558305705524" lon="10.678413308763902"><ele>149.5</ele><time>2026-04-19T12:10:54Z</time></trkpt><trkpt lat="43.50561112091948" lon="10.678296888299567"><ele>149.0</ele><time>2026-04-19T12:10:55Z</time></trkpt><trkpt lat="43.5056290108893" lon="10.678179338367068"><ele>148.5</ele><time>2026-04-19T12:10:56Z</time></trkpt><trkpt lat="43.50564545706915" lon="10.678063856335843"><ele>148.0</ele><time>2026-04-19T12:10:57Z</time></trkpt><trkpt lat="43.5056632435453" lon="10.677951986097172"><ele>148.0</ele><time>2026-04-19T12:10:58Z</time></trkpt><trkpt lat="43.50568361861033" lon="10.677836068414047"><ele>148.0</ele><time>2026-04-19T12:10:59Z</time></trkpt><trkpt lat="43.50570325453899" lon="10.677723592025622"><ele>148.0</ele><time>2026-04-19T12:11:00Z</time></trkpt><trkpt lat="43.50571896428656" lon="10.677609698850542"><ele>148.0</ele><time>2026-04-19T12:11:01Z</time></trkpt><trkpt lat="43.505730023902935" lon="10.677512603028985"><ele>148.0</ele><time>2026-04-19T12:11:02Z</time></trkpt><trkpt lat="43.5057379494804" lon="10.677415980903623"><ele>148.0</ele><time>2026-04-19T12:11:03Z</time></trkpt><trkpt lat="43.50574221923563" lon="10.677315276717616"><ele>148.33333333333334</ele><time>2026-04-19T12:11:04Z</time></trkpt><trkpt lat="43.50573883311516" lon="10.677219742321865"><ele>148.66666666666669</ele><time>2026-04-19T12:11:05Z</time></trkpt><trkpt lat="43.50572887388198" lon="10.677115298018922"><ele>149.0</ele><time>2026-04-19T12:11:06Z</time></trkpt><trkpt lat="43.50571796692739" lon="10.677010416311022"><ele>149.33333333333334</ele><time>2026-04-19T12:11:07.001Z</time></trkpt><trkpt lat="43.50570520054569" lon="10.676894580161273"><ele>149.66666666666666</ele><time>2026-04-19T12:11:08.001Z</time></trkpt><trkpt lat="43.505695517886814" lon="10.67680672452805"><ele>150.0</ele><time>2026-04-19T12:11:09.001Z</time></trkpt><trkpt lat="43.50568219267967" lon="10.676656655748614"><ele>150.0</ele><time>2026-04-19T12:11:11.001Z</time></trkpt><trkpt lat="43.50567390061317" lon="10.676505939531305"><ele>150.0</ele><time>2026-04-19T12:11:13.001Z</time></trkpt><trkpt lat="43.505655417714735" lon="10.676415783694418"><ele>150.0</ele><time>2026-04-19T12:11:14.001Z</time></trkpt><trkpt lat="43.50565868513535" lon="10.676315067732638"><ele>150.0</ele><time>2026-04-19T12:11:15.001Z</time></trkpt><trkpt lat="43.50565489390534" lon="10.676214756607223"><ele>150.0</ele><time>2026-04-19T12:11:16.001Z</time></trkpt><trkpt lat="43.50565267274269" lon="10.676104603822875"><ele>150.0</ele><time>2026-04-19T12:11:17.001Z</time></trkpt><trkpt lat="43.505657621655395" lon="10.675988108425736"><ele>150.5</ele><time>2026-04-19T12:11:18.001Z</time></trkpt><trkpt lat="43.50566339058583" lon="10.675876077995424"><ele>151.0</ele><time>2026-04-19T12:11:19.001Z</time></trkpt><trkpt lat="43.5056861042301" lon="10.675770129015106"><ele>151.5</ele><time>2026-04-19T12:11:20.001Z</time></trkpt><trkpt lat="43.50568145233674" lon="10.67565219973406"><ele>152.0</ele><time>2026-04-19T12:11:21.001Z</time></trkpt><trkpt lat="43.50569850918452" lon="10.675561230933537"><ele>152.5</ele><time>2026-04-19T12:11:22.001Z</time></trkpt><trkpt lat="43.505722078276754" lon="10.675458367292139"><ele>153.0</ele><time>2026-04-19T12:11:23.001Z</time></trkpt><trkpt lat="43.50572856985143" lon="10.67532104291411"><ele>153.0</ele><time>2026-04-19T12:11:25.001Z</time></trkpt><trkpt lat="43.50575854387512" lon="10.675153197394133"><ele>153.0</ele><time>2026-04-19T12:11:27.001Z</time></trkpt><trkpt lat="43.50576685888948" lon="10.67505885897306"><ele>153.0</ele><time>2026-04-19T12:11:28.001Z</time></trkpt><trkpt lat="43.505774981484805" lon="10.674952245471305"><ele>153.0</ele><time>2026-04-19T12:11:29.001Z</time></trkpt><trkpt lat="43.50577894899922" lon="10.674836083633608"><ele>153.0</ele><time>2026-04-19T12:11:30.001Z</time></trkpt><trkpt lat="43.505777258235725" lon="10.674715407389456"><ele>153.0</ele><time>2026-04-19T12:11:31.001Z</time></trkpt><trkpt lat="43.505774070098916" lon="10.674591564465286"><ele>153.0</ele><time>2026-04-19T12:11:32.001Z</time></trkpt><trkpt lat="43.505773076679134" lon="10.674474418517235"><ele>153.0</ele><time>2026-04-19T12:11:33.001Z</time></trkpt><trkpt lat="43.50577196368028" lon="10.674358015052778"><ele>153.0</ele><time>2026-04-19T12:11:34.001Z</time></trkpt><trkpt lat="43.505755538725474" lon="10.674236015383013"><ele>153.0</ele><time>2026-04-19T12:11:35.001Z</time></trkpt><trkpt lat="43.505708042528866" lon="10.674113924210058"><ele>153.0</ele><time>2026-04-19T12:11:36.001Z</time></trkpt><trkpt lat="43.50566200053672" lon="10.67400944940682"><ele>153.0</ele><time>2026-04-19T12:11:37.001Z</time></trkpt><trkpt lat="43.50561845662853" lon="10.673914823853265"><ele>152.33333333333334</ele><time>2026-04-19T12:11:38.001Z</time></trkpt><trkpt lat="43.505587087013886" lon="10.673810983809394"><ele>151.66666666666666</ele><time>2026-04-19T12:11:39.001Z</time></trkpt><trkpt lat="43.50556411568759" lon="10.673701322197415"><ele>151.0</ele><time>2026-04-19T12:11:40.001Z</time></trkpt><trkpt lat="43.505549023242956" lon="10.673592998035899"><ele>150.33333333333331</ele><time>2026-04-19T12:11:41.001Z</time></trkpt><trkpt lat="43.50553557046931" lon="10.673480162052511"><ele>149.66666666666666</ele><time>2026-04-19T12:11:42.001Z</time></trkpt><trkpt lat="43.50552336150541" lon="10.673350001128176"><ele>149.0</ele><time>2026-04-19T12:11:43.001Z</time></trkpt><trkpt lat="43.50551346138386" lon="10.673220343843214"><ele>147.8</ele><time>2026-04-19T12:11:44.001Z</time></trkpt><trkpt lat="43.505505752154306" lon="10.673086628779187"><ele>146.60000000000002</ele><time>2026-04-19T12:11:45.001Z</time></trkpt><trkpt lat="43.50550025511633" lon="10.672948538211756"><ele>145.4</ele><time>2026-04-19T12:11:46.001Z</time></trkpt><trkpt lat="43.50549855223837" lon="10.672813910763004"><ele>144.20000000000002</ele><time>2026-04-19T12:11:47.001Z</time></trkpt><trkpt lat="43.505498549301805" lon="10.672666064188288"><ele>143.0</ele><time>2026-04-19T12:11:48.001Z</time></trkpt><trkpt lat="43.505500039574365" lon="10.67253200584081"><ele>142.4</ele><time>2026-04-19T12:11:49.001Z</time></trkpt><trkpt lat="43.50549663343742" lon="10.67239782552298"><ele>141.8</ele><time>2026-04-19T12:11:50.001Z</time></trkpt><trkpt lat="43.50548823861257" lon="10.67226373435821"><ele>141.2</ele><time>2026-04-19T12:11:51.001Z</time></trkpt><trkpt lat="43.50547615733259" lon="10.672129684907816"><ele>140.6</ele><time>2026-04-19T12:11:52.001Z</time></trkpt><trkpt lat="43.505463503196786" lon="10.671989279865555"><ele>140.0</ele><time>2026-04-19T12:11:53.001Z</time></trkpt><trkpt lat="43.50545154455777" lon="10.671870920741014"><ele>139.2</ele><time>2026-04-19T12:11:54.001Z</time></trkpt><trkpt lat="43.50544019926974" lon="10.671762042175228"><ele>138.4</ele><time>2026-04-19T12:11:55.001Z</time></trkpt><trkpt lat="43.50542557663379" lon="10.671638511070752"><ele>137.6</ele><time>2026-04-19T12:11:56.001Z</time></trkpt><trkpt lat="43.50541003611892" lon="10.671515038419873"><ele>136.8</ele><time>2026-04-19T12:11:57.001Z</time></trkpt><trkpt lat="43.505393042754385" lon="10.671389229706474"><ele>136.0</ele><time>2026-04-19T12:11:58.001Z</time></trkpt><trkpt lat="43.50537458124553" lon="10.671258030303688"><ele>135.6</ele><time>2026-04-19T12:11:59.001Z</time></trkpt><trkpt lat="43.505357335592954" lon="10.671135653799821"><ele>135.2</ele><time>2026-04-19T12:12:00.001Z</time></trkpt><trkpt lat="43.50533834707267" lon="10.671000909773262"><ele>134.8</ele><time>2026-04-19T12:12:01.001Z</time></trkpt><trkpt lat="43.50532178045482" lon="10.670883351801116"><ele>134.4</ele><time>2026-04-19T12:12:02.001Z</time></trkpt><trkpt lat="43.50530591160492" lon="10.670768778479973"><ele>134.0</ele><time>2026-04-19T12:12:03.001Z</time></trkpt><trkpt lat="43.50528638691308" lon="10.670627040386776"><ele>134.0</ele><time>2026-04-19T12:12:04.001Z</time></trkpt><trkpt lat="43.50526648402228" lon="10.670482557271441"><ele>134.0</ele><time>2026-04-19T12:12:05.001Z</time></trkpt><trkpt lat="43.50524728753476" lon="10.670343202092681"><ele>134.0</ele><time>2026-04-19T12:12:06.001Z</time></trkpt><trkpt lat="43.50522722370637" lon="10.670197550502388"><ele>134.0</ele><time>2026-04-19T12:12:07.001Z</time></trkpt><trkpt lat="43.505208886463606" lon="10.670059008217596"><ele>134.0</ele><time>2026-04-19T12:12:08.001Z</time></trkpt><trkpt lat="43.50519101765093" lon="10.669920309210157"><ele>133.5</ele><time>2026-04-19T12:12:09.001Z</time></trkpt><trkpt lat="43.5051747939535" lon="10.669784779476473"><ele>133.0</ele><time>2026-04-19T12:12:10.001Z</time></trkpt><trkpt lat="43.50516637719934" lon="10.669664426185141"><ele>132.5</ele><time>2026-04-19T12:12:11.001Z</time></trkpt><trkpt lat="43.50516878119531" lon="10.669575393066964"><ele>132.0</ele><time>2026-04-19T12:12:12.001Z</time></trkpt><trkpt lat="43.50515912830703" lon="10.669466800784129"><ele>131.5</ele><time>2026-04-19T12:12:13.001Z</time></trkpt><trkpt lat="43.505170845246795" lon="10.669342829400128"><ele>131.0</ele><time>2026-04-19T12:12:14.001Z</time></trkpt><trkpt lat="43.50515545274005" lon="10.6692004829362"><ele>130.4</ele><time>2026-04-19T12:12:15.001Z</time></trkpt><trkpt lat="43.50513606813044" lon="10.669059435546922"><ele>129.8</ele><time>2026-04-19T12:12:16.001Z</time></trkpt><trkpt lat="43.50508618596209" lon="10.668929979635154"><ele>129.20000000000002</ele><time>2026-04-19T12:12:17.001Z</time></trkpt><trkpt lat="43.50503684736084" lon="10.668804818381362"><ele>128.6</ele><time>2026-04-19T12:12:18.001Z</time></trkpt><trkpt lat="43.504982243220084" lon="10.66869840835842"><ele>128.0</ele><time>2026-04-19T12:12:19.001Z</time></trkpt><trkpt lat="43.50497941922208" lon="10.668559699192635"><ele>127.2</ele><time>2026-04-19T12:12:20Z</time></trkpt><trkpt lat="43.5049540008805" lon="10.66842029897585"><ele>126.4</ele><time>2026-04-19T12:12:21Z</time></trkpt><trkpt lat="43.50494348851977" lon="10.668253476207978"><ele>125.60000000000001</ele><time>2026-04-19T12:12:22Z</time></trkpt><trkpt lat="43.50491465479757" lon="10.668111619986792"><ele>124.80000000000001</ele><time>2026-04-19T12:12:23Z</time></trkpt><trkpt lat="43.50490248996288" lon="10.6679626288722"><ele>124.0</ele><time>2026-04-19T12:12:24Z</time></trkpt><trkpt lat="43.50487601999708" lon="10.667815882361863"><ele>123.4</ele><time>2026-04-19T12:12:25Z</time></trkpt><trkpt lat="43.50485151847762" lon="10.667684136823265"><ele>122.80000000000001</ele><time>2026-04-19T12:12:26Z</time></trkpt><trkpt lat="43.50482140066242" lon="10.667538087103114"><ele>122.19999999999999</ele><time>2026-04-19T12:12:27Z</time></trkpt><trkpt lat="43.50479287925767" lon="10.66740873669916"><ele>121.6</ele><time>2026-04-19T12:12:28Z</time></trkpt><trkpt lat="43.504766747886926" lon="10.667290225292879"><ele>121.0</ele><time>2026-04-19T12:12:29Z</time></trkpt><trkpt lat="43.5047434491955" lon="10.667174808754007"><ele>121.0</ele><time>2026-04-19T12:12:30Z</time></trkpt><trkpt lat="43.50472593850599" lon="10.667081801891584"><ele>121.0</ele><time>2026-04-19T12:12:31Z</time></trkpt><trkpt lat="43.5047008914286" lon="10.666911486164855"><ele>121.0</ele><time>2026-04-19T12:12:33Z</time></trkpt><trkpt lat="43.504696798509116" lon="10.66675789784481"><ele>121.0</ele><time>2026-04-19T12:12:35Z</time></trkpt><trkpt lat="43.50472051013151" lon="10.666644371055115"><ele>121.0</ele><time>2026-04-19T12:12:37Z</time></trkpt><trkpt lat="43.50478323331699" lon="10.666542792342268"><ele>120.00000000000001</ele><time>2026-04-19T12:12:39Z</time></trkpt><trkpt lat="43.504842487806535" lon="10.666480114711892"><ele>119.0</ele><time>2026-04-19T12:12:40Z</time></trkpt><trkpt lat="43.504913232387274" lon="10.66640567200609"><ele>118.0</ele><time>2026-04-19T12:12:41Z</time></trkpt><trkpt lat="43.50496147618547" lon="10.666316161327549"><ele>117.0</ele><time>2026-04-19T12:12:42Z</time></trkpt><trkpt lat="43.50498681558048" lon="10.666195540644274"><ele>116.00000000000001</ele><time>2026-04-19T12:12:43Z</time></trkpt><trkpt lat="43.50500010771951" lon="10.666106594109669"><ele>115.0</ele><time>2026-04-19T12:12:44Z</time></trkpt><trkpt lat="43.5050197649944" lon="10.665970664532729"><ele>113.6</ele><time>2026-04-19T12:12:45Z</time></trkpt><trkpt lat="43.50503747566787" lon="10.66583981970515"><ele>112.2</ele><time>2026-04-19T12:12:46Z</time></trkpt><trkpt lat="43.50505277633209" lon="10.665713274772394"><ele>110.80000000000001</ele><time>2026-04-19T12:12:47Z</time></trkpt><trkpt lat="43.50506849535663" lon="10.665572934471887"><ele>109.4</ele><time>2026-04-19T12:12:48Z</time></trkpt><trkpt lat="43.50508173921497" lon="10.665441746709291"><ele>108.0</ele><time>2026-04-19T12:12:49Z</time></trkpt><trkpt lat="43.505091771850424" lon="10.665325181548733"><ele>106.5</ele><time>2026-04-19T12:12:50Z</time></trkpt><trkpt lat="43.505095803595104" lon="10.665200457424037"><ele>105.0</ele><time>2026-04-19T12:12:51Z</time></trkpt><trkpt lat="43.505085196271374" lon="10.665070186195422"><ele>103.5</ele><time>2026-04-19T12:12:52Z</time></trkpt><trkpt lat="43.505069367287106" lon="10.664971652846688"><ele>102.0</ele><time>2026-04-19T12:12:53Z</time></trkpt><trkpt lat="43.505046904825825" lon="10.664852944212925"><ele>100.5</ele><time>2026-04-19T12:12:54Z</time></trkpt><trkpt lat="43.50502870537693" lon="10.664750984756985"><ele>99.0</ele><time>2026-04-19T12:12:55Z</time></trkpt><trkpt lat="43.5050097488781" lon="10.664644221157168"><ele>99.0</ele><time>2026-04-19T12:12:56Z</time></trkpt><trkpt lat="43.5049898580876" lon="10.66453219535342"><ele>99.0</ele><time>2026-04-19T12:12:57Z</time></trkpt><trkpt lat="43.50497124266825" lon="10.664427352442342"><ele>99.0</ele><time>2026-04-19T12:12:58Z</time></trkpt><trkpt lat="43.50495375496721" lon="10.664328860223705"><ele>99.0</ele><time>2026-04-19T12:12:59Z</time></trkpt><trkpt lat="43.504938822736584" lon="10.664227448113715"><ele>99.0</ele><time>2026-04-19T12:13:00Z</time></trkpt><trkpt lat="43.50492412163851" lon="10.664116624433106"><ele>99.0</ele><time>2026-04-19T12:13:01Z</time></trkpt><trkpt lat="43.504909385378355" lon="10.663998902967128"><ele>97.83333333333333</ele><time>2026-04-19T12:13:02Z</time></trkpt><trkpt lat="43.504898113310304" lon="10.663883650074592"><ele>96.66666666666667</ele><time>2026-04-19T12:13:03Z</time></trkpt><trkpt lat="43.504876943524316" lon="10.663772000439263"><ele>95.5</ele><time>2026-04-19T12:13:04Z</time></trkpt><trkpt lat="43.5048804059335" lon="10.66366150258155"><ele>94.33333333333334</ele><time>2026-04-19T12:13:05Z</time></trkpt><trkpt lat="43.50487498701565" lon="10.663546303572316"><ele>93.16666666666667</ele><time>2026-04-19T12:13:06Z</time></trkpt><trkpt lat="43.50487309654717" lon="10.663452024743432"><ele>92.0</ele><time>2026-04-19T12:13:07Z</time></trkpt><trkpt lat="43.50488053663033" lon="10.663307264656897"><ele>90.6</ele><time>2026-04-19T12:13:09Z</time></trkpt><trkpt lat="43.50491676863302" lon="10.663165500534005"><ele>89.19999999999999</ele><time>2026-04-19T12:13:11Z</time></trkpt><trkpt lat="43.50494594011401" lon="10.662993928584651"><ele>87.8</ele><time>2026-04-19T12:13:13.001Z</time></trkpt><trkpt lat="43.50496964539218" lon="10.662824794381239"><ele>86.4</ele><time>2026-04-19T12:13:15.001Z</time></trkpt><trkpt lat="43.50499887794988" lon="10.662746521495787"><ele>85.0</ele><time>2026-04-19T12:13:16.001Z</time></trkpt><trkpt lat="43.505005529626516" lon="10.662658790575916"><ele>84.16666666666666</ele><time>2026-04-19T12:13:17.001Z</time></trkpt><trkpt lat="43.505016717177895" lon="10.662489341588666"><ele>83.33333333333333</ele><time>2026-04-19T12:13:19.001Z</time></trkpt><trkpt lat="43.50502143526834" lon="10.662402602018977"><ele>82.5</ele><time>2026-04-19T12:13:20.001Z</time></trkpt><trkpt lat="43.50502629687486" lon="10.662310455013875"><ele>81.66666666666667</ele><time>2026-04-19T12:13:21.001Z</time></trkpt><trkpt lat="43.505029902451476" lon="10.66222343264829"><ele>80.83333333333334</ele><time>2026-04-19T12:13:22.001Z</time></trkpt><trkpt lat="43.505036805605364" lon="10.662056622329395"><ele>80.0</ele><time>2026-04-19T12:13:24.001Z</time></trkpt><trkpt lat="43.50504193491634" lon="10.66190128655732"><ele>80.0</ele><time>2026-04-19T12:13:26.001Z</time></trkpt><trkpt lat="43.50504461590701" lon="10.66175196913512"><ele>80.0</ele><time>2026-04-19T12:13:28.001Z</time></trkpt><trkpt lat="43.50504641924086" lon="10.661651532575842"><ele>80.0</ele><time>2026-04-19T12:13:30.001Z</time></trkpt><trkpt lat="43.505047800864205" lon="10.661559456018592"><ele>80.0</ele><time>2026-04-19T12:13:35.001Z</time></trkpt><trkpt lat="43.50504198429822" lon="10.661472694868179"><ele>80.0</ele><time>2026-04-19T12:13:43.001Z</time></trkpt><trkpt lat="43.50502103387977" lon="10.66135582551447"><ele>80.0</ele><time>2026-04-19T12:13:45.001Z</time></trkpt><trkpt lat="43.504995737165764" lon="10.661228681321305"><ele>80.0</ele><time>2026-04-19T12:13:47.001Z</time></trkpt><trkpt lat="43.50496357179761" lon="10.66106032540122"><ele>80.0</ele><time>2026-04-19T12:13:49.001Z</time></trkpt><trkpt lat="43.504951258097286" lon="10.66096591367374"><ele>80.0</ele><time>2026-04-19T12:13:50.001Z</time></trkpt><trkpt lat="43.50494209718109" lon="10.660849996538785"><ele>80.0</ele><time>2026-04-19T12:13:51.001Z</time></trkpt><trkpt lat="43.50493331673157" lon="10.660748105321483"><ele>80.0</ele><time>2026-04-19T12:13:52.001Z</time></trkpt><trkpt lat="43.50492315492396" lon="10.660651398327348"><ele>80.0</ele><time>2026-04-19T12:13:53.001Z</time></trkpt><trkpt lat="43.5049137287866" lon="10.660561692590058"><ele>80.0</ele><time>2026-04-19T12:13:54.001Z</time></trkpt><trkpt lat="43.504903906560415" lon="10.660468217122588"><ele>80.0</ele><time>2026-04-19T12:13:55.001Z</time></trkpt><trkpt lat="43.50489323006306" lon="10.66034815617997"><ele>80.0</ele><time>2026-04-19T12:13:57.001Z</time></trkpt><trkpt lat="43.50491442193658" lon="10.660254647467774"><ele>80.0</ele><time>2026-04-19T12:14:04.001Z</time></trkpt><trkpt lat="43.50499171433403" lon="10.660249735156626"><ele>80.0</ele><time>2026-04-19T12:14:06.001Z</time></trkpt><trkpt lat="43.50510052368015" lon="10.66026795816807"><ele>80.0</ele><time>2026-04-19T12:14:08.001Z</time></trkpt><trkpt lat="43.50517856871275" lon="10.660289392085813"><ele>80.0</ele><time>2026-04-19T12:14:09.001Z</time></trkpt><trkpt lat="43.50525157958409" lon="10.660293979824461"><ele>80.0</ele><time>2026-04-19T12:14:10.001Z</time></trkpt><trkpt lat="43.50533669657747" lon="10.660291501937092"><ele>80.0</ele><time>2026-04-19T12:14:11.001Z</time></trkpt><trkpt lat="43.50542462673672" lon="10.660295807572426"><ele>80.0</ele><time>2026-04-19T12:14:12.001Z</time></trkpt><trkpt lat="43.505513051579705" lon="10.660297408545057"><ele>80.0</ele><time>2026-04-19T12:14:13.001Z</time></trkpt><trkpt lat="43.50561152978024" lon="10.660289689436759"><ele>80.0</ele><time>2026-04-19T12:14:14.001Z</time></trkpt><trkpt lat="43.505710389939" lon="10.660279548826"><ele>80.0</ele><time>2026-04-19T12:14:15.001Z</time></trkpt><trkpt lat="43.50580672863519" lon="10.660259853872976"><ele>80.0</ele><time>2026-04-19T12:14:16.001Z</time></trkpt><trkpt lat="43.50590018459369" lon="10.660218752792758"><ele>80.0</ele><time>2026-04-19T12:14:17.001Z</time></trkpt><trkpt lat="43.50599110753014" lon="10.660163130753734"><ele>80.0</ele><time>2026-04-19T12:14:18.001Z</time></trkpt><trkpt lat="43.5060783906683" lon="10.660090548476244"><ele>80.0</ele><time>2026-04-19T12:14:19.001Z</time></trkpt><trkpt lat="43.50615940137403" lon="10.660003635583887"><ele>80.0</ele><time>2026-04-19T12:14:20.001Z</time></trkpt><trkpt lat="43.50623730317213" lon="10.659895539692341"><ele>80.0</ele><time>2026-04-19T12:14:21.001Z</time></trkpt><trkpt lat="43.50631075951639" lon="10.659782103633775"><ele>80.0</ele><time>2026-04-19T12:14:22.001Z</time></trkpt><trkpt lat="43.50638872404336" lon="10.659662891436415"><ele>80.0</ele><time>2026-04-19T12:14:23.001Z</time></trkpt><trkpt lat="43.506471623831494" lon="10.659537995665595"><ele>79.0</ele><time>2026-04-19T12:14:24.001Z</time></trkpt><trkpt lat="43.50655343357251" lon="10.659415219974205"><ele>78.0</ele><time>2026-04-19T12:14:25.001Z</time></trkpt><trkpt lat="43.50663774908162" lon="10.659291838885775"><ele>77.0</ele><time>2026-04-19T12:14:26Z</time></trkpt><trkpt lat="43.506724533040774" lon="10.65916913961666"><ele>76.0</ele><time>2026-04-19T12:14:27Z</time></trkpt><trkpt lat="43.50682066186636" lon="10.659055151530596"><ele>76.0</ele><time>2026-04-19T12:14:28Z</time></trkpt><trkpt lat="43.50692304596" lon="10.658948340966273"><ele>76.0</ele><time>2026-04-19T12:14:29Z</time></trkpt><trkpt lat="43.507031867521526" lon="10.658846279263456"><ele>76.0</ele><time>2026-04-19T12:14:30Z</time></trkpt><trkpt lat="43.50714251864064" lon="10.658747397659571"><ele>76.0</ele><time>2026-04-19T12:14:31Z</time></trkpt><trkpt lat="43.50725982352007" lon="10.658648480392912"><ele>76.0</ele><time>2026-04-19T12:14:32Z</time></trkpt><trkpt lat="43.507373004604034" lon="10.658544135870383"><ele>76.0</ele><time>2026-04-19T12:14:33Z</time></trkpt><trkpt lat="43.50749465179835" lon="10.658451814849245"><ele>76.0</ele><time>2026-04-19T12:14:34Z</time></trkpt><trkpt lat="43.50761027393663" lon="10.658340882386394"><ele>76.0</ele><time>2026-04-19T12:14:35Z</time></trkpt><trkpt lat="43.507727700544045" lon="10.658232624870006"><ele>76.0</ele><time>2026-04-19T12:14:36Z</time></trkpt><trkpt lat="43.50784457899045" lon="10.658130297256884"><ele>76.0</ele><time>2026-04-19T12:14:37Z</time></trkpt><trkpt lat="43.50796002058858" lon="10.658026767450053"><ele>76.0</ele><time>2026-04-19T12:14:38Z</time></trkpt><trkpt lat="43.50807812585315" lon="10.657918921658112"><ele>76.0</ele><time>2026-04-19T12:14:39Z</time></trkpt><trkpt lat="43.50819995557395" lon="10.657811832859368"><ele>76.0</ele><time>2026-04-19T12:14:40Z</time></trkpt><trkpt lat="43.50832166637099" lon="10.657701946510038"><ele>76.0</ele><time>2026-04-19T12:14:41Z</time></trkpt><trkpt lat="43.50844177318308" lon="10.657594770628354"><ele>76.0</ele><time>2026-04-19T12:14:42Z</time></trkpt><trkpt lat="43.50856142932509" lon="10.657486494359985"><ele>76.0</ele><time>2026-04-19T12:14:43Z</time></trkpt><trkpt lat="43.50868015981553" lon="10.657379151518846"><ele>76.0</ele><time>2026-04-19T12:14:44Z</time></trkpt><trkpt lat="43.50880173394935" lon="10.657280841653126"><ele>76.0</ele><time>2026-04-19T12:14:45Z</time></trkpt><trkpt lat="43.50892794353067" lon="10.657189758864149"><ele>76.0</ele><time>2026-04-19T12:14:46Z</time></trkpt><trkpt lat="43.50906126475599" lon="10.657116236654696"><ele>76.0</ele><time>2026-04-19T12:14:47Z</time></trkpt><trkpt lat="43.50919586569169" lon="10.657057831373"><ele>76.0</ele><time>2026-04-19T12:14:48Z</time></trkpt><trkpt lat="43.50932530320384" lon="10.65701064704486"><ele>76.0</ele><time>2026-04-19T12:14:49Z</time></trkpt><trkpt lat="43.509432986423185" lon="10.656976533483153"><ele>76.0</ele><time>2026-04-19T12:14:50Z</time></trkpt><trkpt lat="43.5095176912318" lon="10.656951596929328"><ele>76.0</ele><time>2026-04-19T12:14:51Z</time></trkpt><trkpt lat="43.50962613334469" lon="10.656925070911942"><ele>76.0</ele><time>2026-04-19T12:14:53Z</time></trkpt><trkpt lat="43.509693667400185" lon="10.656893113207694"><ele>76.0</ele><time>2026-04-19T12:14:55Z</time></trkpt><trkpt lat="43.50968657058059" lon="10.65668195039766"><ele>76.0</ele><time>2026-04-19T12:14:56Z</time></trkpt><trkpt lat="43.509621953324064" lon="10.656708984947164"><ele>76.0</ele><time>2026-04-19T12:14:57Z</time></trkpt><trkpt lat="43.50954465177994" lon="10.656676266108532"><ele>76.0</ele><time>2026-04-19T12:14:59Z</time></trkpt><trkpt lat="43.50945935907299" lon="10.656639980586682"><ele>76.0</ele><time>2026-04-19T12:15:01Z</time></trkpt><trkpt lat="43.50936123999717" lon="10.65660479529013"><ele>76.39999999999999</ele><time>2026-04-19T12:15:03Z</time></trkpt><trkpt lat="43.50924794111616" lon="10.656543078171405"><ele>76.8</ele><time>2026-04-19T12:15:05Z</time></trkpt><trkpt lat="43.509152087773515" lon="10.656438441270229"><ele>77.19999999999999</ele><time>2026-04-19T12:15:07Z</time></trkpt><trkpt lat="43.50911509703729" lon="10.65626410829798"><ele>77.6</ele><time>2026-04-19T12:15:09Z</time></trkpt><trkpt lat="43.509097449908396" lon="10.65617997146092"><ele>78.0</ele><time>2026-04-19T12:15:10Z</time></trkpt><trkpt lat="43.509068333930344" lon="10.656011514770343"><ele>79.33333333333333</ele><time>2026-04-19T12:15:12Z</time></trkpt><trkpt lat="43.50905077681622" lon="10.655925256810885"><ele>80.66666666666667</ele><time>2026-04-19T12:15:13Z</time></trkpt><trkpt lat="43.50902910068483" lon="10.655836264477758"><ele>82.0</ele><time>2026-04-19T12:15:14Z</time></trkpt><trkpt lat="43.50900567955378" lon="10.655752371547663"><ele>83.33333333333334</ele><time>2026-04-19T12:15:15Z</time></trkpt><trkpt lat="43.50897367691222" lon="10.655672196270721"><ele>84.66666666666667</ele><time>2026-04-19T12:15:16Z</time></trkpt><trkpt lat="43.508893519930695" lon="10.655527195336497"><ele>86.0</ele><time>2026-04-19T12:15:18.001Z</time></trkpt><trkpt lat="43.50884730373669" lon="10.65545722584527"><ele>86.0</ele><time>2026-04-19T12:15:19.001Z</time></trkpt><trkpt lat="43.50879715407836" lon="10.65538767473373"><ele>86.0</ele><time>2026-04-19T12:15:20.001Z</time></trkpt><trkpt lat="43.50874376487859" lon="10.655316393876477"><ele>86.0</ele><time>2026-04-19T12:15:21.001Z</time></trkpt><trkpt lat="43.50868793494097" lon="10.655239896887139"><ele>86.0</ele><time>2026-04-19T12:15:22.001Z</time></trkpt><trkpt lat="43.50863445975229" lon="10.655166162907909"><ele>86.0</ele><time>2026-04-19T12:15:23.001Z</time></trkpt><trkpt lat="43.50857925925721" lon="10.655089154734007"><ele>86.0</ele><time>2026-04-19T12:15:24.001Z</time></trkpt><trkpt lat="43.50851445279893" lon="10.655028385447597"><ele>87.83333333333334</ele><time>2026-04-19T12:15:25.001Z</time></trkpt><trkpt lat="43.5084737545655" lon="10.654936334983198"><ele>89.66666666666667</ele><time>2026-04-19T12:15:26.001Z</time></trkpt><trkpt lat="43.5084125438102" lon="10.654864198585363"><ele>91.5</ele><time>2026-04-19T12:15:27.001Z</time></trkpt><trkpt lat="43.50835082773987" lon="10.654793738625132"><ele>93.33333333333334</ele><time>2026-04-19T12:15:28.001Z</time></trkpt><trkpt lat="43.50828036967615" lon="10.65473331335238"><ele>95.16666666666667</ele><time>2026-04-19T12:15:29.001Z</time></trkpt><trkpt lat="43.50819819692321" lon="10.6546942344248"><ele>97.0</ele><time>2026-04-19T12:15:30.001Z</time></trkpt><trkpt lat="43.50811182984176" lon="10.654658890108863"><ele>97.0</ele><time>2026-04-19T12:15:31.001Z</time></trkpt><trkpt lat="43.50802154907673" lon="10.65461797679818"><ele>97.0</ele><time>2026-04-19T12:15:32.001Z</time></trkpt><trkpt lat="43.50793076015466" lon="10.654579564509795"><ele>97.0</ele><time>2026-04-19T12:15:33.001Z</time></trkpt><trkpt lat="43.507839239608224" lon="10.65453062830414"><ele>97.0</ele><time>2026-04-19T12:15:34.001Z</time></trkpt><trkpt lat="43.507752086154426" lon="10.654490148078793"><ele>97.0</ele><time>2026-04-19T12:15:35.001Z</time></trkpt><trkpt lat="43.50766294150982" lon="10.654450805112592"><ele>98.19999999999999</ele><time>2026-04-19T12:15:36.001Z</time></trkpt><trkpt lat="43.50757292832174" lon="10.654402929392539"><ele>99.4</ele><time>2026-04-19T12:15:37.001Z</time></trkpt><trkpt lat="43.50748233655509" lon="10.654343792287495"><ele>100.6</ele><time>2026-04-19T12:15:38.001Z</time></trkpt><trkpt lat="43.50739001613039" lon="10.65427407965254"><ele>101.80000000000001</ele><time>2026-04-19T12:15:39.001Z</time></trkpt><trkpt lat="43.50729833775965" lon="10.654191923104321"><ele>103.0</ele><time>2026-04-19T12:15:40.001Z</time></trkpt><trkpt lat="43.50720482849228" lon="10.654107455366926"><ele>103.0</ele><time>2026-04-19T12:15:41.001Z</time></trkpt><trkpt lat="43.507114983094674" lon="10.653998269293183"><ele>103.0</ele><time>2026-04-19T12:15:42.001Z</time></trkpt><trkpt lat="43.50701935906312" lon="10.653905463525524"><ele>103.0</ele><time>2026-04-19T12:15:43.001Z</time></trkpt><trkpt lat="43.506931939716104" lon="10.653810227566124"><ele>103.0</ele><time>2026-04-19T12:15:44.001Z</time></trkpt><trkpt lat="43.50685097857865" lon="10.653706221822977"><ele>104.0</ele><time>2026-04-19T12:15:45.001Z</time></trkpt><trkpt lat="43.506765449973116" lon="10.653592135699013"><ele>105.0</ele><time>2026-04-19T12:15:46.001Z</time></trkpt><trkpt lat="43.50667996913063" lon="10.653473182182431"><ele>106.0</ele><time>2026-04-19T12:15:47.001Z</time></trkpt><trkpt lat="43.506593071843525" lon="10.653352257565125"><ele>107.0</ele><time>2026-04-19T12:15:48.001Z</time></trkpt><trkpt lat="43.506501509585846" lon="10.653227334547369"><ele>107.0</ele><time>2026-04-19T12:15:49.001Z</time></trkpt><trkpt lat="43.506412840173375" lon="10.653096067417984"><ele>107.0</ele><time>2026-04-19T12:15:50.001Z</time></trkpt><trkpt lat="43.50632519094776" lon="10.652959141393639"><ele>107.0</ele><time>2026-04-19T12:15:51.001Z</time></trkpt><trkpt lat="43.50624467952919" lon="10.652807068847407"><ele>107.0</ele><time>2026-04-19T12:15:52.001Z</time></trkpt><trkpt lat="43.50616547744571" lon="10.652635882175312"><ele>106.66666666666666</ele><time>2026-04-19T12:15:53.001Z</time></trkpt><trkpt lat="43.50608973706783" lon="10.652453955387786"><ele>106.33333333333334</ele><time>2026-04-19T12:15:54.001Z</time></trkpt><trkpt lat="43.50600766260591" lon="10.652260023138155"><ele>106.0</ele><time>2026-04-19T12:15:55.001Z</time></trkpt><trkpt lat="43.505919815684734" lon="10.652061474814225"><ele>107.33333333333334</ele><time>2026-04-19T12:15:56.001Z</time></trkpt><trkpt lat="43.5058269026564" lon="10.651847235645844"><ele>108.66666666666666</ele><time>2026-04-19T12:15:57.001Z</time></trkpt><trkpt lat="43.50573268693564" lon="10.65162841167682"><ele>110.0</ele><time>2026-04-19T12:15:58.001Z</time></trkpt><trkpt lat="43.50563683470419" lon="10.651400351981122"><ele>110.0</ele><time>2026-04-19T12:15:59.001Z</time></trkpt><trkpt lat="43.50553049353208" lon="10.651174430714873"><ele>110.0</ele><time>2026-04-19T12:16:00.001Z</time></trkpt><trkpt lat="43.50542265595746" lon="10.65096340635153"><ele>110.0</ele><time>2026-04-19T12:16:01.001Z</time></trkpt><trkpt lat="43.50532022166053" lon="10.650778074575438"><ele>109.75</ele><time>2026-04-19T12:16:02.001Z</time></trkpt><trkpt lat="43.505219593544176" lon="10.650618909977936"><ele>109.5</ele><time>2026-04-19T12:16:03.001Z</time></trkpt><trkpt lat="43.50514441692995" lon="10.650440475086986"><ele>109.25</ele><time>2026-04-19T12:16:04.001Z</time></trkpt><trkpt lat="43.50509356065702" lon="10.65026032287768"><ele>109.0</ele><time>2026-04-19T12:16:05.001Z</time></trkpt><trkpt lat="43.50505104199199" lon="10.650093562254238"><ele>109.0</ele><time>2026-04-19T12:16:06.001Z</time></trkpt><trkpt lat="43.50501911110372" lon="10.649949442465026"><ele>109.0</ele><time>2026-04-19T12:16:07.001Z</time></trkpt><trkpt lat="43.505010539703115" lon="10.649831335483384"><ele>109.0</ele><time>2026-04-19T12:16:08.001Z</time></trkpt><trkpt lat="43.50501086191121" lon="10.649708204861712"><ele>109.0</ele><time>2026-04-19T12:16:09.001Z</time></trkpt><trkpt lat="43.50500549656246" lon="10.649590351533513"><ele>109.0</ele><time>2026-04-19T12:16:10.001Z</time></trkpt><trkpt lat="43.50498748657662" lon="10.649472439993055"><ele>109.6</ele><time>2026-04-19T12:16:11.001Z</time></trkpt><trkpt lat="43.5049769424673" lon="10.649327652918469"><ele>110.2</ele><time>2026-04-19T12:16:12.001Z</time></trkpt><trkpt lat="43.504971169413324" lon="10.649199556327078"><ele>110.79999999999998</ele><time>2026-04-19T12:16:13.001Z</time></trkpt><trkpt lat="43.50495976655332" lon="10.6490730028776"><ele>111.39999999999999</ele><time>2026-04-19T12:16:14.001Z</time></trkpt><trkpt lat="43.50495744758348" lon="10.648950207141903"><ele>112.0</ele><time>2026-04-19T12:16:15.001Z</time></trkpt><trkpt lat="43.50494526122914" lon="10.648836731915537"><ele>112.00000000000001</ele><time>2026-04-19T12:16:16.001Z</time></trkpt><trkpt lat="43.50492197498462" lon="10.648727870725935"><ele>112.0</ele><time>2026-04-19T12:16:17.001Z</time></trkpt><trkpt lat="43.50487833031697" lon="10.648629904418456"><ele>112.0</ele><time>2026-04-19T12:16:18.001Z</time></trkpt><trkpt lat="43.50483168207199" lon="10.648531973069563"><ele>112.0</ele><time>2026-04-19T12:16:19.001Z</time></trkpt><trkpt lat="43.50478349492083" lon="10.648431512956742"><ele>112.00000000000001</ele><time>2026-04-19T12:16:20.001Z</time></trkpt><trkpt lat="43.5047378015332" lon="10.648327384564032"><ele>112.0</ele><time>2026-04-19T12:16:21.001Z</time></trkpt><trkpt lat="43.50471172570225" lon="10.648195735487414"><ele>112.6</ele><time>2026-04-19T12:16:22.001Z</time></trkpt><trkpt lat="43.50465993761225" lon="10.648072359337293"><ele>113.19999999999999</ele><time>2026-04-19T12:16:23.001Z</time></trkpt><trkpt lat="43.50460011502184" lon="10.647937435102682"><ele>113.8</ele><time>2026-04-19T12:16:24.001Z</time></trkpt><trkpt lat="43.50453838319478" lon="10.647804893987603"><ele>114.4</ele><time>2026-04-19T12:16:25.001Z</time></trkpt><trkpt lat="43.50448233905591" lon="10.647685607403986"><ele>115.0</ele><time>2026-04-19T12:16:26.001Z</time></trkpt><trkpt lat="43.5044310582115" lon="10.647570420773397"><ele>115.0</ele><time>2026-04-19T12:16:27.001Z</time></trkpt><trkpt lat="43.50438559063681" lon="10.647462656601254"><ele>115.0</ele><time>2026-04-19T12:16:28.001Z</time></trkpt><trkpt lat="43.504332467925785" lon="10.647358418249237"><ele>115.0</ele><time>2026-04-19T12:16:29.001Z</time></trkpt><trkpt lat="43.504307068641715" lon="10.647275759434809"><ele>115.0</ele><time>2026-04-19T12:16:30.001Z</time></trkpt><trkpt lat="43.50425605761483" lon="10.647140981367015"><ele>115.0</ele><time>2026-04-19T12:16:31.001Z</time></trkpt><trkpt lat="43.50420468118857" lon="10.64703069225647"><ele>116.16666666666667</ele><time>2026-04-19T12:16:32Z</time></trkpt><trkpt lat="43.50417184471208" lon="10.646923499194774"><ele>117.33333333333334</ele><time>2026-04-19T12:16:33Z</time></trkpt><trkpt lat="43.504134593415614" lon="10.646845194341173"><ele>118.5</ele><time>2026-04-19T12:16:34Z</time></trkpt><trkpt lat="43.50411275981135" lon="10.646756399611277"><ele>119.66666666666666</ele><time>2026-04-19T12:16:35Z</time></trkpt><trkpt lat="43.50405577672464" lon="10.646611596718024"><ele>120.83333333333333</ele><time>2026-04-19T12:16:37Z</time></trkpt><trkpt lat="43.504022238560864" lon="10.646468308897237"><ele>122.0</ele><time>2026-04-19T12:16:39Z</time></trkpt><trkpt lat="43.50398674914804" lon="10.646340090877391"><ele>121.99999999999999</ele><time>2026-04-19T12:16:41Z</time></trkpt><trkpt lat="43.50394261249598" lon="10.64620591790707"><ele>122.0</ele><time>2026-04-19T12:16:43Z</time></trkpt><trkpt lat="43.50389016449296" lon="10.646141263356673"><ele>122.0</ele><time>2026-04-19T12:16:44Z</time></trkpt><trkpt lat="43.50382515234422" lon="10.646113511481493"><ele>122.0</ele><time>2026-04-19T12:16:45Z</time></trkpt><trkpt lat="43.50376577888811" lon="10.646059379203537"><ele>121.99999999999999</ele><time>2026-04-19T12:16:46Z</time></trkpt><trkpt lat="43.50370792846396" lon="10.646004943035551"><ele>122.0</ele><time>2026-04-19T12:16:47Z</time></trkpt><trkpt lat="43.503643859941874" lon="10.64594428274727"><ele>123.16666666666666</ele><time>2026-04-19T12:16:48Z</time></trkpt><trkpt lat="43.50357370982571" lon="10.64588413780532"><ele>124.33333333333333</ele><time>2026-04-19T12:16:49Z</time></trkpt><trkpt lat="43.50349986445124" lon="10.645822193024543"><ele>125.5</ele><time>2026-04-19T12:16:50Z</time></trkpt><trkpt lat="43.503424596938274" lon="10.645750051426957"><ele>126.66666666666666</ele><time>2026-04-19T12:16:51Z</time></trkpt><trkpt lat="43.50334850173952" lon="10.645671609180443"><ele>127.83333333333333</ele><time>2026-04-19T12:16:52Z</time></trkpt><trkpt lat="43.5032864160849" lon="10.645581815470795"><ele>129.0</ele><time>2026-04-19T12:16:53Z</time></trkpt><trkpt lat="43.5032622982704" lon="10.645471843544772"><ele>129.0</ele><time>2026-04-19T12:16:54Z</time></trkpt><trkpt lat="43.50324523856416" lon="10.645358007153273"><ele>129.0</ele><time>2026-04-19T12:16:55Z</time></trkpt><trkpt lat="43.50323329307326" lon="10.645234020807994"><ele>129.0</ele><time>2026-04-19T12:16:56Z</time></trkpt><trkpt lat="43.50322506895674" lon="10.645121232909768"><ele>129.0</ele><time>2026-04-19T12:16:57Z</time></trkpt><trkpt lat="43.50321657985741" lon="10.645007696998318"><ele>129.0</ele><time>2026-04-19T12:16:58Z</time></trkpt><trkpt lat="43.50320807279858" lon="10.644902294258415"><ele>129.0</ele><time>2026-04-19T12:16:59Z</time></trkpt><trkpt lat="43.50319998040837" lon="10.644802029346426"><ele>129.33333333333334</ele><time>2026-04-19T12:17:00Z</time></trkpt><trkpt lat="43.503192211907596" lon="10.644705777334284"><ele>129.66666666666666</ele><time>2026-04-19T12:17:01Z</time></trkpt><trkpt lat="43.503183334153604" lon="10.644599755070935"><ele>130.0</ele><time>2026-04-19T12:17:02Z</time></trkpt><trkpt lat="43.503172305175895" lon="10.644497747414242"><ele>130.33333333333331</ele><time>2026-04-19T12:17:03Z</time></trkpt><trkpt lat="43.50316062907878" lon="10.644399008241724"><ele>130.66666666666666</ele><time>2026-04-19T12:17:04Z</time></trkpt><trkpt lat="43.503149208732964" lon="10.644301470360267"><ele>131.0</ele><time>2026-04-19T12:17:05Z</time></trkpt><trkpt lat="43.50313167687954" lon="10.64414998960423"><ele>131.0</ele><time>2026-04-19T12:17:07Z</time></trkpt><trkpt lat="43.503110105509435" lon="10.6440648878115"><ele>131.0</ele><time>2026-04-19T12:17:08Z</time></trkpt><trkpt lat="43.50311136561646" lon="10.643969722219856"><ele>131.0</ele><time>2026-04-19T12:17:09Z</time></trkpt><trkpt lat="43.50307045128284" lon="10.643872912495095"><ele>131.0</ele><time>2026-04-19T12:17:10Z</time></trkpt><trkpt lat="43.50304113540019" lon="10.643759312817153"><ele>131.0</ele><time>2026-04-19T12:17:11Z</time></trkpt><trkpt lat="43.50300393825056" lon="10.643652114016664"><ele>131.0</ele><time>2026-04-19T12:17:12Z</time></trkpt><trkpt lat="43.50297028251874" lon="10.643543559394272"><ele>131.4</ele><time>2026-04-19T12:17:13Z</time></trkpt><trkpt lat="43.502928689895626" lon="10.643429538932418"><ele>131.8</ele><time>2026-04-19T12:17:14Z</time></trkpt><trkpt lat="43.50290389052397" lon="10.6433063670632"><ele>132.20000000000002</ele><time>2026-04-19T12:17:15Z</time></trkpt><trkpt lat="43.502862009737065" lon="10.6431928475276"><ele>132.6</ele><time>2026-04-19T12:17:16Z</time></trkpt><trkpt lat="43.50279333753067" lon="10.643066088053322"><ele>133.0</ele><time>2026-04-19T12:17:17Z</time></trkpt><trkpt lat="43.502742537436404" lon="10.642953789974122"><ele>133.0</ele><time>2026-04-19T12:17:18Z</time></trkpt><trkpt lat="43.50271037065861" lon="10.642832866181378"><ele>133.0</ele><time>2026-04-19T12:17:19Z</time></trkpt><trkpt lat="43.502679435194544" lon="10.642714013951045"><ele>133.0</ele><time>2026-04-19T12:17:20Z</time></trkpt><trkpt lat="43.50265599774056" lon="10.642605723221745"><ele>133.0</ele><time>2026-04-19T12:17:21Z</time></trkpt><trkpt lat="43.50263225391129" lon="10.642486011489245"><ele>133.0</ele><time>2026-04-19T12:17:22Z</time></trkpt><trkpt lat="43.502608039931204" lon="10.64236696583542"><ele>133.0</ele><time>2026-04-19T12:17:23Z</time></trkpt><trkpt lat="43.50258765921213" lon="10.642260720657223"><ele>134.0</ele><time>2026-04-19T12:17:24Z</time></trkpt><trkpt lat="43.502569526238275" lon="10.64216154819896"><ele>135.0</ele><time>2026-04-19T12:17:25Z</time></trkpt><trkpt lat="43.50254846942675" lon="10.642021452532898"><ele>136.0</ele><time>2026-04-19T12:17:27Z</time></trkpt><trkpt lat="43.50253757152629" lon="10.641935381586078"><ele>137.0</ele><time>2026-04-19T12:17:29Z</time></trkpt><trkpt lat="43.50253472072185" lon="10.641841246830985"><ele>138.0</ele><time>2026-04-19T12:17:32.001Z</time></trkpt><trkpt lat="43.502542995517" lon="10.641719110227871"><ele>139.0</ele><time>2026-04-19T12:17:34.001Z</time></trkpt><trkpt lat="43.50255781021952" lon="10.641582581099746"><ele>139.83333333333334</ele><time>2026-04-19T12:17:36.001Z</time></trkpt><trkpt lat="43.502611868674514" lon="10.641436850689125"><ele>140.66666666666669</ele><time>2026-04-19T12:17:38.001Z</time></trkpt><trkpt lat="43.502635236486874" lon="10.64132049307933"><ele>141.5</ele><time>2026-04-19T12:17:40.001Z</time></trkpt><trkpt lat="43.50263415194314" lon="10.64120776399981"><ele>142.33333333333334</ele><time>2026-04-19T12:17:42.001Z</time></trkpt><trkpt lat="43.502601790848836" lon="10.641111433500859"><ele>143.16666666666666</ele><time>2026-04-19T12:17:44.001Z</time></trkpt><trkpt lat="43.5025490289355" lon="10.641043854458017"><ele>144.0</ele><time>2026-04-19T12:17:55.001Z</time></trkpt><trkpt lat="43.50249879695012" lon="10.64098430356644"><ele>144.85714285714286</ele><time>2026-04-19T12:17:57.001Z</time></trkpt><trkpt lat="43.50244260021552" lon="10.640936614565158"><ele>145.71428571428572</ele><time>2026-04-19T12:17:59.001Z</time></trkpt><trkpt lat="43.50234620268605" lon="10.640915902077392"><ele>146.57142857142856</ele><time>2026-04-19T12:18:01.001Z</time></trkpt><trkpt lat="43.502307678081536" lon="10.640844742972114"><ele>147.42857142857144</ele><time>2026-04-19T12:18:04.001Z</time></trkpt><trkpt lat="43.50227630631763" lon="10.640762529247493"><ele>148.28571428571428</ele><time>2026-04-19T12:18:07.001Z</time></trkpt><trkpt lat="43.50224034342605" lon="10.640676531019436"><ele>149.14285714285714</ele><time>2026-04-19T12:18:09.001Z</time></trkpt><trkpt lat="43.502200704003" lon="10.640585145241289"><ele>150.0</ele><time>2026-04-19T12:18:11.001Z</time></trkpt><trkpt lat="43.50216243686433" lon="10.640501955812791"><ele>149.99999999999997</ele><time>2026-04-19T12:18:13.001Z</time></trkpt><trkpt lat="43.50211853701434" lon="10.640439419227285"><ele>150.0</ele><time>2026-04-19T12:18:15.001Z</time></trkpt><trkpt lat="43.50207286792259" lon="10.640333298135456"><ele>150.0</ele><time>2026-04-19T12:18:18.001Z</time></trkpt><trkpt lat="43.50202757777129" lon="10.640259771093916"><ele>150.0</ele><time>2026-04-19T12:18:20.001Z</time></trkpt><trkpt lat="43.50199777700242" lon="10.640182521306278"><ele>150.0</ele><time>2026-04-19T12:18:22.001Z</time></trkpt><trkpt lat="43.50194457688924" lon="10.640121609834713"><ele>149.99999999999997</ele><time>2026-04-19T12:18:25.001Z</time></trkpt><trkpt lat="43.50196213958184" lon="10.640027571508487"><ele>150.0</ele><time>2026-04-19T12:18:29.001Z</time></trkpt><trkpt lat="43.50197497380435" lon="10.639931385611149"><ele>153.42857142857142</ele><time>2026-04-19T12:18:31.001Z</time></trkpt><trkpt lat="43.50198275297138" lon="10.639830587153392"><ele>156.85714285714286</ele><time>2026-04-19T12:18:35.001Z</time></trkpt><trkpt lat="43.50198904659495" lon="10.639734959741114"><ele>160.28571428571428</ele><time>2026-04-19T12:18:37.001Z</time></trkpt><trkpt lat="43.50199304737784" lon="10.63963938705469"><ele>163.71428571428572</ele><time>2026-04-19T12:18:53Z</time></trkpt><trkpt lat="43.50200295522104" lon="10.639540608305767"><ele>167.14285714285714</ele><time>2026-04-19T12:18:56Z</time></trkpt><trkpt lat="43.5020194768517" lon="10.639444891984361"><ele>170.57142857142856</ele><time>2026-04-19T12:18:58Z</time></trkpt><trkpt lat="43.502053546039136" lon="10.639340984898435"><ele>174.0</ele><time>2026-04-19T12:19:01Z</time></trkpt><trkpt lat="43.50207167805629" lon="10.6392074523174"><ele>175.0</ele><time>2026-04-19T12:19:04Z</time></trkpt><trkpt lat="43.50208895341255" lon="10.639087236024567"><ele>176.0</ele><time>2026-04-19T12:19:07Z</time></trkpt><trkpt lat="43.5021208552772" lon="10.639004880769875"><ele>177.0</ele><time>2026-04-19T12:19:09Z</time></trkpt><trkpt lat="43.502131050734526" lon="10.638908687056396"><ele>178.0</ele><time>2026-04-19T12:19:12Z</time></trkpt><trkpt lat="43.50212976859921" lon="10.638807449851313"><ele>179.0</ele><time>2026-04-19T12:19:14Z</time></trkpt><trkpt lat="43.50210452926113" lon="10.638725416519845"><ele>180.0</ele><time>2026-04-19T12:19:16Z</time></trkpt><trkpt lat="43.50206148700615" lon="10.638641961959172"><ele>181.0</ele><time>2026-04-19T12:19:18Z</time></trkpt><trkpt lat="43.50201129154669" lon="10.638536725114639"><ele>181.42857142857142</ele><time>2026-04-19T12:19:22Z</time></trkpt><trkpt lat="43.50197632032765" lon="10.638457522121"><ele>181.85714285714283</ele><time>2026-04-19T12:19:24Z</time></trkpt><trkpt lat="43.50193389248811" lon="10.638379901959715"><ele>182.28571428571428</ele><time>2026-04-19T12:19:26Z</time></trkpt><trkpt lat="43.50187047489543" lon="10.638313553427674"><ele>182.71428571428572</ele><time>2026-04-19T12:19:28Z</time></trkpt><trkpt lat="43.50182613990456" lon="10.638223575049272"><ele>183.14285714285714</ele><time>2026-04-19T12:19:30Z</time></trkpt><trkpt lat="43.501769037302395" lon="10.63815564214902"><ele>183.57142857142858</ele><time>2026-04-19T12:19:32Z</time></trkpt><trkpt lat="43.501715199234134" lon="10.638101813293051"><ele>184.0</ele><time>2026-04-19T12:19:35.001Z</time></trkpt><trkpt lat="43.50166995537937" lon="10.638031048390141"><ele>184.0</ele><time>2026-04-19T12:19:50.001Z</time></trkpt><trkpt lat="43.50173147072891" lon="10.637961618254446"><ele>184.0</ele><time>2026-04-19T12:19:52.001Z</time></trkpt><trkpt lat="43.501800986968604" lon="10.637865037007971"><ele>184.0</ele><time>2026-04-19T12:19:54.001Z</time></trkpt><trkpt lat="43.501862679051996" lon="10.63779005167874"><ele>184.0</ele><time>2026-04-19T12:19:56.001Z</time></trkpt><trkpt lat="43.50193899128573" lon="10.63770700496463"><ele>184.0</ele><time>2026-04-19T12:19:58.001Z</time></trkpt><trkpt lat="43.502025316823946" lon="10.637612320859427"><ele>182.66666666666669</ele><time>2026-04-19T12:20:00.001Z</time></trkpt><trkpt lat="43.502088410772714" lon="10.637543213987065"><ele>181.33333333333334</ele><time>2026-04-19T12:20:01.001Z</time></trkpt><trkpt lat="43.502144471641515" lon="10.637481828676234"><ele>180.0</ele><time>2026-04-19T12:20:03.001Z</time></trkpt><trkpt lat="43.50220101431039" lon="10.637396943361068"><ele>178.66666666666666</ele><time>2026-04-19T12:20:05.001Z</time></trkpt><trkpt lat="43.502252617613784" lon="10.637340184522015"><ele>177.33333333333331</ele><time>2026-04-19T12:20:07.001Z</time></trkpt><trkpt lat="43.502321641282855" lon="10.637255979049383"><ele>176.0</ele><time>2026-04-19T12:20:11.001Z</time></trkpt><trkpt lat="43.50240114437696" lon="10.637124562253115"><ele>176.0</ele><time>2026-04-19T12:20:13.001Z</time></trkpt><trkpt lat="43.502476137772994" lon="10.63698924270878"><ele>176.0</ele><time>2026-04-19T12:20:15.001Z</time></trkpt><trkpt lat="43.50250440310106" lon="10.636910542535174"><ele>176.0</ele><time>2026-04-19T12:20:16.001Z</time></trkpt><trkpt lat="43.50258668309277" lon="10.63677637207202"><ele>176.0</ele><time>2026-04-19T12:20:18.001Z</time></trkpt><trkpt lat="43.50263828207932" lon="10.636711267928986"><ele>176.0</ele><time>2026-04-19T12:20:19.001Z</time></trkpt><trkpt lat="43.50276768804041" lon="10.636677863602076"><ele>175.33333333333331</ele><time>2026-04-19T12:20:21.001Z</time></trkpt><trkpt lat="43.5028391684388" lon="10.63666228784723"><ele>174.66666666666666</ele><time>2026-04-19T12:20:22.001Z</time></trkpt><trkpt lat="43.50295358327976" lon="10.636651961954657"><ele>174.0</ele><time>2026-04-19T12:20:24.001Z</time></trkpt><trkpt lat="43.50304641247484" lon="10.636643998454685"><ele>173.33333333333334</ele><time>2026-04-19T12:20:25.001Z</time></trkpt><trkpt lat="43.503114293421156" lon="10.63661501245202"><ele>172.66666666666669</ele><time>2026-04-19T12:20:26.001Z</time></trkpt><trkpt lat="43.503177078998704" lon="10.636596448502827"><ele>172.0</ele><time>2026-04-19T12:20:27.001Z</time></trkpt><trkpt lat="43.50324046584224" lon="10.636523364169072"><ele>172.0</ele><time>2026-04-19T12:20:28.001Z</time></trkpt><trkpt lat="43.503342991833414" lon="10.636471923027095"><ele>172.0</ele><time>2026-04-19T12:20:29.001Z</time></trkpt><trkpt lat="43.50344127840586" lon="10.636400195705491"><ele>172.0</ele><time>2026-04-19T12:20:30.001Z</time></trkpt><trkpt lat="43.50352508159743" lon="10.636321626832675"><ele>172.0</ele><time>2026-04-19T12:20:31.001Z</time></trkpt><trkpt lat="43.50361307153614" lon="10.636253816258966"><ele>172.0</ele><time>2026-04-19T12:20:32.001Z</time></trkpt><trkpt lat="43.503680736835705" lon="10.6362092986348"><ele>172.0</ele><time>2026-04-19T12:20:33.001Z</time></trkpt><trkpt lat="43.50374153126969" lon="10.636149964302854"><ele>172.0</ele><time>2026-04-19T12:20:34.001Z</time></trkpt><trkpt lat="43.503803643454795" lon="10.636047566676906"><ele>172.0</ele><time>2026-04-19T12:20:35.001Z</time></trkpt><trkpt lat="43.503852488320135" lon="10.635887417709178"><ele>172.0</ele><time>2026-04-19T12:20:36.001Z</time></trkpt><trkpt lat="43.50390744503474" lon="10.635758361206396"><ele>172.0</ele><time>2026-04-19T12:20:37.001Z</time></trkpt><trkpt lat="43.503932298712705" lon="10.63560772822307"><ele>171.0</ele><time>2026-04-19T12:20:38.001Z</time></trkpt><trkpt lat="43.50396260939546" lon="10.635463643252994"><ele>170.0</ele><time>2026-04-19T12:20:39.001Z</time></trkpt><trkpt lat="43.50399511505277" lon="10.635359095112822"><ele>169.0</ele><time>2026-04-19T12:20:40.001Z</time></trkpt><trkpt lat="43.50406659328725" lon="10.63528149879585"><ele>168.0</ele><time>2026-04-19T12:20:41.001Z</time></trkpt><trkpt lat="43.50415574340909" lon="10.635242860693834"><ele>167.0</ele><time>2026-04-19T12:20:42.001Z</time></trkpt><trkpt lat="43.50424237767928" lon="10.635256928352996"><ele>167.0</ele><time>2026-04-19T12:20:43.001Z</time></trkpt><trkpt lat="43.50432407761253" lon="10.635355349909625"><ele>167.0</ele><time>2026-04-19T12:20:44Z</time></trkpt><trkpt lat="43.50437863308197" lon="10.635460798650602"><ele>167.0</ele><time>2026-04-19T12:20:45Z</time></trkpt><trkpt lat="43.50447353918671" lon="10.635572121177292"><ele>167.0</ele><time>2026-04-19T12:20:46Z</time></trkpt><trkpt lat="43.504551427085346" lon="10.635661561554848"><ele>167.0</ele><time>2026-04-19T12:20:47Z</time></trkpt><trkpt lat="43.504632962721125" lon="10.635776700192341"><ele>165.0</ele><time>2026-04-19T12:20:48Z</time></trkpt><trkpt lat="43.50473099740296" lon="10.635873395530066"><ele>163.0</ele><time>2026-04-19T12:20:49Z</time></trkpt><trkpt lat="43.50482192377073" lon="10.635985721216962"><ele>161.0</ele><time>2026-04-19T12:20:50Z</time></trkpt><trkpt lat="43.504874903594605" lon="10.636100906372718"><ele>159.0</ele><time>2026-04-19T12:20:51Z</time></trkpt><trkpt lat="43.50494763286652" lon="10.636225022923261"><ele>159.0</ele><time>2026-04-19T12:20:52Z</time></trkpt><trkpt lat="43.50500229067094" lon="10.636364303816809"><ele>159.0</ele><time>2026-04-19T12:20:53Z</time></trkpt><trkpt lat="43.50503208758851" lon="10.636495266766504"><ele>159.0</ele><time>2026-04-19T12:20:54Z</time></trkpt><trkpt lat="43.5050428131392" lon="10.63662010578382"><ele>159.0</ele><time>2026-04-19T12:20:55Z</time></trkpt><trkpt lat="43.505058717678374" lon="10.636724802567977"><ele>159.0</ele><time>2026-04-19T12:20:56Z</time></trkpt><trkpt lat="43.50508587031313" lon="10.636819939891952"><ele>159.0</ele><time>2026-04-19T12:20:57Z</time></trkpt><trkpt lat="43.50513133363123" lon="10.636887988899728"><ele>159.0</ele><time>2026-04-19T12:20:58Z</time></trkpt><trkpt lat="43.505209176874075" lon="10.636926096805075"><ele>159.0</ele><time>2026-04-19T12:20:59Z</time></trkpt><trkpt lat="43.50536835043721" lon="10.636874468848582"><ele>159.0</ele><time>2026-04-19T12:21:01Z</time></trkpt><trkpt lat="43.505439245158044" lon="10.636777741172672"><ele>159.0</ele><time>2026-04-19T12:21:02Z</time></trkpt><trkpt lat="43.505484659263054" lon="10.636676031834536"><ele>159.0</ele><time>2026-04-19T12:21:03Z</time></trkpt><trkpt lat="43.50547420964473" lon="10.636540095966414"><ele>159.0</ele><time>2026-04-19T12:21:04Z</time></trkpt><trkpt lat="43.50547244973746" lon="10.636400382599604"><ele>159.0</ele><time>2026-04-19T12:21:05Z</time></trkpt><trkpt lat="43.50539527921675" lon="10.636273559377958"><ele>159.0</ele><time>2026-04-19T12:21:06Z</time></trkpt><trkpt lat="43.50533521991769" lon="10.636148763168292"><ele>159.0</ele><time>2026-04-19T12:21:07Z</time></trkpt><trkpt lat="43.50527415796489" lon="10.636035147870787"><ele>158.6</ele><time>2026-04-19T12:21:08Z</time></trkpt><trkpt lat="43.50522194645685" lon="10.635938000102062"><ele>158.2</ele><time>2026-04-19T12:21:09Z</time></trkpt><trkpt lat="43.50518576305046" lon="10.635832681333316"><ele>157.79999999999998</ele><time>2026-04-19T12:21:10Z</time></trkpt><trkpt lat="43.505203413172424" lon="10.635692774667172"><ele>157.4</ele><time>2026-04-19T12:21:11Z</time></trkpt><trkpt lat="43.5052264577792" lon="10.6355943160449"><ele>157.0</ele><time>2026-04-19T12:21:12Z</time></trkpt><trkpt lat="43.505253423394876" lon="10.635454276564637"><ele>157.0</ele><time>2026-04-19T12:21:13Z</time></trkpt><trkpt lat="43.50528249707441" lon="10.635343569335118"><ele>157.0</ele><time>2026-04-19T12:21:14Z</time></trkpt><trkpt lat="43.50529613147213" lon="10.635203405808282"><ele>157.0</ele><time>2026-04-19T12:21:15Z</time></trkpt><trkpt lat="43.5052878752983" lon="10.635056591870276"><ele>157.0</ele><time>2026-04-19T12:21:16Z</time></trkpt><trkpt lat="43.505250214919606" lon="10.634896337922418"><ele>157.0</ele><time>2026-04-19T12:21:17Z</time></trkpt><trkpt lat="43.505209310029294" lon="10.634758016648595"><ele>156.2</ele><time>2026-04-19T12:21:18Z</time></trkpt><trkpt lat="43.50518355303745" lon="10.634630723794109"><ele>155.39999999999998</ele><time>2026-04-19T12:21:19Z</time></trkpt><trkpt lat="43.5051554052659" lon="10.634518238925933"><ele>154.60000000000002</ele><time>2026-04-19T12:21:20Z</time></trkpt><trkpt lat="43.50512477805994" lon="10.634387501014857"><ele>153.8</ele><time>2026-04-19T12:21:21Z</time></trkpt><trkpt lat="43.505146062256614" lon="10.634240195351843"><ele>153.0</ele><time>2026-04-19T12:21:22Z</time></trkpt><trkpt lat="43.50516245610519" lon="10.634111176723266"><ele>149.0</ele><time>2026-04-19T12:21:23Z</time></trkpt><trkpt lat="43.505178016405225" lon="10.633988491033247"><ele>149.0</ele><time>2026-04-19T12:21:24Z</time></trkpt><trkpt lat="43.505175234280436" lon="10.633880337987591"><ele>149.0</ele><time>2026-04-19T12:21:25Z</time></trkpt><trkpt lat="43.50521513970318" lon="10.633783912855685"><ele>149.0</ele><time>2026-04-19T12:21:27Z</time></trkpt><trkpt lat="43.505216201789295" lon="10.633685964606556"><ele>149.0</ele><time>2026-04-19T12:21:32Z</time></trkpt><trkpt lat="43.50521122109529" lon="10.633588088563307"><ele>150.0</ele><time>2026-04-19T12:21:40.001Z</time></trkpt></trkseg><trkseg><trkpt lat="43.50529410182705" lon="10.633601226393937"><ele>150.0</ele><time>2026-04-19T13:25:09Z</time></trkpt><trkpt lat="43.50522873817742" lon="10.633641933478849"><ele>150.0</ele><time>2026-04-19T13:25:24Z</time></trkpt><trkpt lat="43.505269217019865" lon="10.633735833696969"><ele>150.0</ele><time>2026-04-19T13:25:49.999Z</time></trkpt><trkpt lat="43.505265212929956" lon="10.633846456061205"><ele>150.0</ele><time>2026-04-19T13:25:52.999Z</time></trkpt><trkpt lat="43.50520067690854" lon="10.633843767685086"><ele>150.0</ele><time>2026-04-19T13:25:55.999Z</time></trkpt><trkpt lat="43.50517359307623" lon="10.633707661018748"><ele>150.0</ele><time>2026-04-19T13:25:58.999Z</time></trkpt><trkpt lat="43.505170316108554" lon="10.633549703064757"><ele>150.0</ele><time>2026-04-19T13:26:00.999Z</time></trkpt><trkpt lat="43.505167073317836" lon="10.633462492634372"><ele>150.0</ele><time>2026-04-19T13:26:01.999Z</time></trkpt><trkpt lat="43.50515910730947" lon="10.63332599235025"><ele>150.0</ele><time>2026-04-19T13:26:03.999Z</time></trkpt><trkpt lat="43.505137747366696" lon="10.633183049048037"><ele>150.0</ele><time>2026-04-19T13:26:05.999Z</time></trkpt><trkpt lat="43.50511392372374" lon="10.633054051209335"><ele>150.0</ele><time>2026-04-19T13:26:07.999Z</time></trkpt><trkpt lat="43.50509004666573" lon="10.63291104506545"><ele>149.4</ele><time>2026-04-19T13:26:09.999Z</time></trkpt><trkpt lat="43.50509242706804" lon="10.632752779267634"><ele>148.8</ele><time>2026-04-19T13:26:11.999Z</time></trkpt><trkpt lat="43.50512674467388" lon="10.632633047958409"><ele>148.2</ele><time>2026-04-19T13:26:13.999Z</time></trkpt><trkpt lat="43.505181752530156" lon="10.632513982419276"><ele>147.6</ele><time>2026-04-19T13:26:15.999Z</time></trkpt><trkpt lat="43.50525550240349" lon="10.632485907644048"><ele>147.0</ele><time>2026-04-19T13:26:16.999Z</time></trkpt><trkpt lat="43.505317023192504" lon="10.632431515658238"><ele>147.0</ele><time>2026-04-19T13:26:17.999Z</time></trkpt><trkpt lat="43.50538752334416" lon="10.632388900315643"><ele>147.0</ele><time>2026-04-19T13:26:18.999Z</time></trkpt><trkpt lat="43.505456138667995" lon="10.632353328786044"><ele>147.0</ele><time>2026-04-19T13:26:19.999Z</time></trkpt><trkpt lat="43.50553187378672" lon="10.632317066885616"><ele>147.0</ele><time>2026-04-19T13:26:20.999Z</time></trkpt><trkpt lat="43.50561228150142" lon="10.632275634072357"><ele>147.0</ele><time>2026-04-19T13:26:21.999Z</time></trkpt><trkpt lat="43.50569779971303" lon="10.632219908598568"><ele>147.0</ele><time>2026-04-19T13:26:22.999Z</time></trkpt><trkpt lat="43.50580549711137" lon="10.632194780831629"><ele>145.6</ele><time>2026-04-19T13:26:23.999Z</time></trkpt><trkpt lat="43.50590014149186" lon="10.632145129967965"><ele>144.2</ele><time>2026-04-19T13:26:24.999Z</time></trkpt><trkpt lat="43.5059960716181" lon="10.632143222991349"><ele>142.8</ele><time>2026-04-19T13:26:25.999Z</time></trkpt><trkpt lat="43.50609702357985" lon="10.632112737098899"><ele>141.4</ele><time>2026-04-19T13:26:26.999Z</time></trkpt><trkpt lat="43.50620583579467" lon="10.63212510621736"><ele>140.0</ele><time>2026-04-19T13:26:27.999Z</time></trkpt><trkpt lat="43.506312092310914" lon="10.632140006559155"><ele>140.0</ele><time>2026-04-19T13:26:28.999Z</time></trkpt><trkpt lat="43.50642501605161" lon="10.632166656787591"><ele>140.0</ele><time>2026-04-19T13:26:29.999Z</time></trkpt><trkpt lat="43.506528379497176" lon="10.632187657126472"><ele>140.0</ele><time>2026-04-19T13:26:30.999Z</time></trkpt><trkpt lat="43.50662839256755" lon="10.632212228852643"><ele>140.0</ele><time>2026-04-19T13:26:31.999Z</time></trkpt><trkpt lat="43.506736211727244" lon="10.632239429836005"><ele>140.0</ele><time>2026-04-19T13:26:32.999Z</time></trkpt><trkpt lat="43.506837483295726" lon="10.632279157339656"><ele>140.0</ele><time>2026-04-19T13:26:33.999Z</time></trkpt><trkpt lat="43.50691778860026" lon="10.63230112116861"><ele>140.0</ele><time>2026-04-19T13:26:34.999Z</time></trkpt><trkpt lat="43.50701567226061" lon="10.632331292009816"><ele>140.0</ele><time>2026-04-19T13:26:35.999Z</time></trkpt><trkpt lat="43.50713328967305" lon="10.632391490908994"><ele>140.0</ele><time>2026-04-19T13:26:36.999Z</time></trkpt><trkpt lat="43.50721877701826" lon="10.632458521905392"><ele>140.0</ele><time>2026-04-19T13:26:37.999Z</time></trkpt><trkpt lat="43.50730610917919" lon="10.632546430222497"><ele>139.4</ele><time>2026-04-19T13:26:38.999Z</time></trkpt><trkpt lat="43.507386274946114" lon="10.632644882490114"><ele>138.8</ele><time>2026-04-19T13:26:39.999Z</time></trkpt><trkpt lat="43.50741162588236" lon="10.632735735699795"><ele>138.2</ele><time>2026-04-19T13:26:40.999Z</time></trkpt><trkpt lat="43.507488931042126" lon="10.63284714630379"><ele>137.6</ele><time>2026-04-19T13:26:41.999Z</time></trkpt><trkpt lat="43.507535641236245" lon="10.632977205464067"><ele>137.0</ele><time>2026-04-19T13:26:42.999Z</time></trkpt><trkpt lat="43.507577185456526" lon="10.633086631583703"><ele>137.0</ele><time>2026-04-19T13:26:43.999Z</time></trkpt><trkpt lat="43.50757279433278" lon="10.633189966778207"><ele>137.0</ele><time>2026-04-19T13:26:44.999Z</time></trkpt><trkpt lat="43.507606968062966" lon="10.633278838466838"><ele>137.0</ele><time>2026-04-19T13:26:45.999Z</time></trkpt><trkpt lat="43.507670787484386" lon="10.633338365169802"><ele>137.0</ele><time>2026-04-19T13:26:47.999Z</time></trkpt><trkpt lat="43.507782995059266" lon="10.633406618645148"><ele>137.0</ele><time>2026-04-19T13:26:48.999Z</time></trkpt><trkpt lat="43.50786521763953" lon="10.633404551576364"><ele>137.0</ele><time>2026-04-19T13:26:49.999Z</time></trkpt><trkpt lat="43.507951659882096" lon="10.633362474422412"><ele>138.0</ele><time>2026-04-19T13:26:50.999Z</time></trkpt><trkpt lat="43.50801391680486" lon="10.633301802435836"><ele>139.0</ele><time>2026-04-19T13:26:51.999Z</time></trkpt><trkpt lat="43.508098057595745" lon="10.633225049693923"><ele>140.0</ele><time>2026-04-19T13:26:52.999Z</time></trkpt><trkpt lat="43.508175469494056" lon="10.633178093742393"><ele>141.0</ele><time>2026-04-19T13:26:53.999Z</time></trkpt><trkpt lat="43.508248379978085" lon="10.633155686051598"><ele>142.0</ele><time>2026-04-19T13:26:54.999Z</time></trkpt><trkpt lat="43.50832124843179" lon="10.633166448758447"><ele>143.0</ele><time>2026-04-19T13:26:55.999Z</time></trkpt><trkpt lat="43.50839248331466" lon="10.633232132612328"><ele>143.0</ele><time>2026-04-19T13:26:56.999Z</time></trkpt><trkpt lat="43.5084349107015" lon="10.633313460337101"><ele>143.0</ele><time>2026-04-19T13:26:57.999Z</time></trkpt><trkpt lat="43.508526979821156" lon="10.633565031867649"><ele>143.0</ele><time>2026-04-19T13:26:59.999Z</time></trkpt><trkpt lat="43.508598950263284" lon="10.633689713207728"><ele>143.0</ele><time>2026-04-19T13:27:00.999Z</time></trkpt><trkpt lat="43.50866149870614" lon="10.633801552345444"><ele>143.0</ele><time>2026-04-19T13:27:01.999Z</time></trkpt><trkpt lat="43.50873963791223" lon="10.633919320379459"><ele>143.0</ele><time>2026-04-19T13:27:02.999Z</time></trkpt><trkpt lat="43.508821638676054" lon="10.634021567183652"><ele>143.0</ele><time>2026-04-19T13:27:03.999Z</time></trkpt><trkpt lat="43.50891045545723" lon="10.634122983798303"><ele>143.0</ele><time>2026-04-19T13:27:04.999Z</time></trkpt><trkpt lat="43.50899728332211" lon="10.634178466025727"><ele>143.0</ele><time>2026-04-19T13:27:05.999Z</time></trkpt><trkpt lat="43.509089839027396" lon="10.634277054596918"><ele>143.0</ele><time>2026-04-19T13:27:06.999Z</time></trkpt><trkpt lat="43.50918409926901" lon="10.634383851041378"><ele>143.0</ele><time>2026-04-19T13:27:07.999Z</time></trkpt><trkpt lat="43.509275853021805" lon="10.6344570523738"><ele>143.0</ele><time>2026-04-19T13:27:08.999Z</time></trkpt><trkpt lat="43.509387819716814" lon="10.634567435467392"><ele>143.0</ele><time>2026-04-19T13:27:09.999Z</time></trkpt><trkpt lat="43.509455996884064" lon="10.634641781529387"><ele>142.20000000000002</ele><time>2026-04-19T13:27:10.999Z</time></trkpt><trkpt lat="43.5095358235813" lon="10.634723412832713"><ele>141.4</ele><time>2026-04-19T13:27:11.999Z</time></trkpt><trkpt lat="43.509621753941126" lon="10.634802730097007"><ele>140.60000000000002</ele><time>2026-04-19T13:27:12.999Z</time></trkpt><trkpt lat="43.50971332485264" lon="10.634875943630576"><ele>139.8</ele><time>2026-04-19T13:27:13.999Z</time></trkpt><trkpt lat="43.50981205960863" lon="10.634941788319363"><ele>139.0</ele><time>2026-04-19T13:27:14.999Z</time></trkpt><trkpt lat="43.509904026664614" lon="10.635008952339005"><ele>139.0</ele><time>2026-04-19T13:27:15.999Z</time></trkpt><trkpt lat="43.51000892757331" lon="10.635075460814345"><ele>139.0</ele><time>2026-04-19T13:27:16.999Z</time></trkpt><trkpt lat="43.5101150987125" lon="10.635134080820157"><ele>139.0</ele><time>2026-04-19T13:27:17.999Z</time></trkpt><trkpt lat="43.51022721394639" lon="10.635190013395661"><ele>139.0</ele><time>2026-04-19T13:27:18.999Z</time></trkpt><trkpt lat="43.510340713630235" lon="10.635230694496336"><ele>139.0</ele><time>2026-04-19T13:27:19.999Z</time></trkpt><trkpt lat="43.510456607288006" lon="10.635267207548855"><ele>139.0</ele><time>2026-04-19T13:27:20.999Z</time></trkpt><trkpt lat="43.51056308346945" lon="10.635299510115777"><ele>139.0</ele><time>2026-04-19T13:27:21.999Z</time></trkpt><trkpt lat="43.51067551475673" lon="10.635319368951944"><ele>139.0</ele><time>2026-04-19T13:27:22.999Z</time></trkpt><trkpt lat="43.5107919139953" lon="10.635316546285528"><ele>139.5</ele><time>2026-04-19T13:27:23.999Z</time></trkpt><trkpt lat="43.51090991887052" lon="10.63529063224686"><ele>140.0</ele><time>2026-04-19T13:27:24.999Z</time></trkpt><trkpt lat="43.51101518665786" lon="10.635221830567332"><ele>140.5</ele><time>2026-04-19T13:27:25.999Z</time></trkpt><trkpt lat="43.51111711884273" lon="10.63515674563436"><ele>141.0</ele><time>2026-04-19T13:27:26.999Z</time></trkpt><trkpt lat="43.51122945281259" lon="10.635097021539558"><ele>140.4</ele><time>2026-04-19T13:27:27.999Z</time></trkpt><trkpt lat="43.511323983624756" lon="10.635027763881729"><ele>139.8</ele><time>2026-04-19T13:27:28.999Z</time></trkpt><trkpt lat="43.51142665023937" lon="10.634978774231987"><ele>139.20000000000002</ele><time>2026-04-19T13:27:29.999Z</time></trkpt><trkpt lat="43.51152631553742" lon="10.634929518137632"><ele>138.6</ele><time>2026-04-19T13:27:30.999Z</time></trkpt><trkpt lat="43.5116159218675" lon="10.634848499265402"><ele>138.0</ele><time>2026-04-19T13:27:31.999Z</time></trkpt><trkpt lat="43.511693626913996" lon="10.634745518219079"><ele>138.0</ele><time>2026-04-19T13:27:32.999Z</time></trkpt><trkpt lat="43.51174848905849" lon="10.634618209830958"><ele>138.0</ele><time>2026-04-19T13:27:33.999Z</time></trkpt><trkpt lat="43.51178524302163" lon="10.634479743340679"><ele>138.0</ele><time>2026-04-19T13:27:34.999Z</time></trkpt><trkpt lat="43.511783573993796" lon="10.634340221847461"><ele>138.0</ele><time>2026-04-19T13:27:35.999Z</time></trkpt><trkpt lat="43.511746222590276" lon="10.634199922116618"><ele>138.0</ele><time>2026-04-19T13:27:36.999Z</time></trkpt><trkpt lat="43.511688265989704" lon="10.634066764496014"><ele>137.25</ele><time>2026-04-19T13:27:37.999Z</time></trkpt><trkpt lat="43.51162337646881" lon="10.633940438025675"><ele>136.5</ele><time>2026-04-19T13:27:38.999Z</time></trkpt><trkpt lat="43.51155157305887" lon="10.633820445982735"><ele>135.75</ele><time>2026-04-19T13:27:39.999Z</time></trkpt><trkpt lat="43.51147585680911" lon="10.633688814426323"><ele>135.0</ele><time>2026-04-19T13:27:40.999Z</time></trkpt><trkpt lat="43.51140757679403" lon="10.63357651267837"><ele>133.6</ele><time>2026-04-19T13:27:41.999Z</time></trkpt><trkpt lat="43.51134253690036" lon="10.633460273889954"><ele>132.2</ele><time>2026-04-19T13:27:42.999Z</time></trkpt><trkpt lat="43.511289438476226" lon="10.633340739849887"><ele>130.8</ele><time>2026-04-19T13:27:43.999Z</time></trkpt><trkpt lat="43.51125146815855" lon="10.633212534121489"><ele>129.4</ele><time>2026-04-19T13:27:44.999Z</time></trkpt><trkpt lat="43.511226334435" lon="10.633077821106532"><ele>128.0</ele><time>2026-04-19T13:27:45.999Z</time></trkpt><trkpt lat="43.51121789112455" lon="10.632944067846914"><ele>128.0</ele><time>2026-04-19T13:27:46.999Z</time></trkpt><trkpt lat="43.51123524420744" lon="10.632810338031964"><ele>128.0</ele><time>2026-04-19T13:27:47.999Z</time></trkpt><trkpt lat="43.51127173477931" lon="10.632692505021966"><ele>128.0</ele><time>2026-04-19T13:27:48.999Z</time></trkpt><trkpt lat="43.51136844037207" lon="10.63261234948744"><ele>128.0</ele><time>2026-04-19T13:27:49.999Z</time></trkpt><trkpt lat="43.51146687946344" lon="10.63253277606434"><ele>128.0</ele><time>2026-04-19T13:27:50.999Z</time></trkpt><trkpt lat="43.511558261157276" lon="10.63245522862627"><ele>128.0</ele><time>2026-04-19T13:27:51.999Z</time></trkpt><trkpt lat="43.511657242782746" lon="10.6323693926499"><ele>128.0</ele><time>2026-04-19T13:27:52.999Z</time></trkpt><trkpt lat="43.51174692445371" lon="10.632260470914131"><ele>128.0</ele><time>2026-04-19T13:27:53.999Z</time></trkpt><trkpt lat="43.511850380790335" lon="10.63215812710279"><ele>128.0</ele><time>2026-04-19T13:27:54.999Z</time></trkpt><trkpt lat="43.511958083903984" lon="10.632063145933593"><ele>128.75</ele><time>2026-04-19T13:27:55.999Z</time></trkpt><trkpt lat="43.51200767348269" lon="10.631970244959833"><ele>129.5</ele><time>2026-04-19T13:27:56.999Z</time></trkpt><trkpt lat="43.51215033619381" lon="10.631899207265013"><ele>130.25</ele><time>2026-04-19T13:27:57.999Z</time></trkpt><trkpt lat="43.512253160012534" lon="10.631807283672671"><ele>131.0</ele><time>2026-04-19T13:27:58.999Z</time></trkpt><trkpt lat="43.512354814323345" lon="10.631739991855444"><ele>131.0</ele><time>2026-04-19T13:27:59.999Z</time></trkpt><trkpt lat="43.512449057128755" lon="10.631670623881925"><ele>131.0</ele><time>2026-04-19T13:28:00.999Z</time></trkpt><trkpt lat="43.51253605435064" lon="10.63161580118902"><ele>131.0</ele><time>2026-04-19T13:28:01.999Z</time></trkpt><trkpt lat="43.512630486717455" lon="10.631595396101178"><ele>131.0</ele><time>2026-04-19T13:28:02.999Z</time></trkpt><trkpt lat="43.51269753985965" lon="10.631641932355345"><ele>131.0</ele><time>2026-04-19T13:28:03.999Z</time></trkpt><trkpt lat="43.512779332217285" lon="10.631681791248782"><ele>131.0</ele><time>2026-04-19T13:28:04.999Z</time></trkpt><trkpt lat="43.512831126602535" lon="10.631742861862229"><ele>131.0</ele><time>2026-04-19T13:28:05.999Z</time></trkpt><trkpt lat="43.512889416858606" lon="10.631833706507225"><ele>131.0</ele><time>2026-04-19T13:28:06.999Z</time></trkpt><trkpt lat="43.51294729295311" lon="10.631907287897569"><ele>131.0</ele><time>2026-04-19T13:28:07.999Z</time></trkpt><trkpt lat="43.51302812550478" lon="10.631940842253092"><ele>131.0</ele><time>2026-04-19T13:28:08.999Z</time></trkpt><trkpt lat="43.513115564342336" lon="10.631969668256264"><ele>131.0</ele><time>2026-04-19T13:28:09.999Z</time></trkpt><trkpt lat="43.513207607243075" lon="10.631977981809092"><ele>131.6</ele><time>2026-04-19T13:28:10.999Z</time></trkpt><trkpt lat="43.51328452366351" lon="10.631907145890285"><ele>132.2</ele><time>2026-04-19T13:28:11.999Z</time></trkpt><trkpt lat="43.513372252512234" lon="10.631879545764944"><ele>132.8</ele><time>2026-04-19T13:28:12.999Z</time></trkpt><trkpt lat="43.5134568596395" lon="10.63177994794707"><ele>133.4</ele><time>2026-04-19T13:28:13.999Z</time></trkpt><trkpt lat="43.5135388124405" lon="10.631675924807272"><ele>134.0</ele><time>2026-04-19T13:28:14.999Z</time></trkpt><trkpt lat="43.513613948613546" lon="10.631569387891883"><ele>134.0</ele><time>2026-04-19T13:28:15.999Z</time></trkpt><trkpt lat="43.51370899872543" lon="10.631493170928538"><ele>134.0</ele><time>2026-04-19T13:28:16.999Z</time></trkpt><trkpt lat="43.51380182867154" lon="10.631426024652582"><ele>134.0</ele><time>2026-04-19T13:28:17.999Z</time></trkpt><trkpt lat="43.513894565389805" lon="10.631347937757662"><ele>134.0</ele><time>2026-04-19T13:28:18.999Z</time></trkpt><trkpt lat="43.513989231172374" lon="10.631281718624079"><ele>134.0</ele><time>2026-04-19T13:28:19.999Z</time></trkpt><trkpt lat="43.51408163159185" lon="10.63122407147643"><ele>133.6</ele><time>2026-04-19T13:28:20.999Z</time></trkpt><trkpt lat="43.51417099212299" lon="10.631161612728452"><ele>133.2</ele><time>2026-04-19T13:28:21.999Z</time></trkpt><trkpt lat="43.514279191336705" lon="10.631145923374422"><ele>132.79999999999998</ele><time>2026-04-19T13:28:22.999Z</time></trkpt><trkpt lat="43.514376106002864" lon="10.631148696569381"><ele>132.4</ele><time>2026-04-19T13:28:23.999Z</time></trkpt><trkpt lat="43.51446005392336" lon="10.631153970888864"><ele>132.0</ele><time>2026-04-19T13:28:24.999Z</time></trkpt><trkpt lat="43.51454811907461" lon="10.63118776168051"><ele>133.4</ele><time>2026-04-19T13:28:25.999Z</time></trkpt><trkpt lat="43.51463743439788" lon="10.631250259527853"><ele>134.79999999999998</ele><time>2026-04-19T13:28:26.999Z</time></trkpt><trkpt lat="43.51472182464996" lon="10.631315287493463"><ele>136.2</ele><time>2026-04-19T13:28:27.999Z</time></trkpt><trkpt lat="43.51481570182427" lon="10.631373073228742"><ele>137.6</ele><time>2026-04-19T13:28:28.999Z</time></trkpt><trkpt lat="43.51489689882938" lon="10.631416245137416"><ele>139.0</ele><time>2026-04-19T13:28:29.999Z</time></trkpt><trkpt lat="43.51497310972" lon="10.631447691589281"><ele>139.0</ele><time>2026-04-19T13:28:30.999Z</time></trkpt><trkpt lat="43.51504499700297" lon="10.631464690968654"><ele>139.0</ele><time>2026-04-19T13:28:31.999Z</time></trkpt><trkpt lat="43.51517203416617" lon="10.63136273866924"><ele>139.0</ele><time>2026-04-19T13:28:33.999Z</time></trkpt><trkpt lat="43.51523074412247" lon="10.631252860222759"><ele>139.0</ele><time>2026-04-19T13:28:34.999Z</time></trkpt><trkpt lat="43.515264665254385" lon="10.631140974309755"><ele>139.0</ele><time>2026-04-19T13:28:35.999Z</time></trkpt><trkpt lat="43.51525591050131" lon="10.631016649918319"><ele>139.8</ele><time>2026-04-19T13:28:36.999Z</time></trkpt><trkpt lat="43.51522812617206" lon="10.630876661096156"><ele>140.60000000000002</ele><time>2026-04-19T13:28:37.999Z</time></trkpt><trkpt lat="43.51518310157541" lon="10.630752553342898"><ele>141.4</ele><time>2026-04-19T13:28:38.999Z</time></trkpt><trkpt lat="43.51515221419476" lon="10.630625223007204"><ele>142.20000000000002</ele><time>2026-04-19T13:28:39.999Z</time></trkpt><trkpt lat="43.51513442010597" lon="10.630508766983676"><ele>143.0</ele><time>2026-04-19T13:28:40.999Z</time></trkpt><trkpt lat="43.515151633631454" lon="10.63037859830134"><ele>143.8</ele><time>2026-04-19T13:28:41.999Z</time></trkpt><trkpt lat="43.51515644076748" lon="10.630250872326164"><ele>144.60000000000002</ele><time>2026-04-19T13:28:42.999Z</time></trkpt><trkpt lat="43.5152100694837" lon="10.630147678976465"><ele>145.39999999999998</ele><time>2026-04-19T13:28:43.999Z</time></trkpt><trkpt lat="43.51530086082237" lon="10.63010663618592"><ele>146.2</ele><time>2026-04-19T13:28:44.999Z</time></trkpt><trkpt lat="43.51538621760578" lon="10.630068047418264"><ele>147.0</ele><time>2026-04-19T13:28:45.999Z</time></trkpt><trkpt lat="43.51547945056687" lon="10.630076752484761"><ele>147.0</ele><time>2026-04-19T13:28:46.999Z</time></trkpt><trkpt lat="43.51556973025371" lon="10.630086604097103"><ele>147.0</ele><time>2026-04-19T13:28:47.999Z</time></trkpt><trkpt lat="43.515661039533775" lon="10.630089759789303"><ele>147.0</ele><time>2026-04-19T13:28:48.999Z</time></trkpt><trkpt lat="43.51575354648272" lon="10.630099686666107"><ele>147.0</ele><time>2026-04-19T13:28:49.999Z</time></trkpt><trkpt lat="43.515836549826986" lon="10.630025801197004"><ele>147.0</ele><time>2026-04-19T13:28:50.999Z</time></trkpt><trkpt lat="43.51591141281096" lon="10.629942404677784"><ele>147.0</ele><time>2026-04-19T13:28:51.998Z</time></trkpt><trkpt lat="43.51597069787513" lon="10.629838325102456"><ele>147.0</ele><time>2026-04-19T13:28:52.998Z</time></trkpt><trkpt lat="43.516032251326294" lon="10.62973363751285"><ele>147.0</ele><time>2026-04-19T13:28:53.998Z</time></trkpt><trkpt lat="43.516098755666775" lon="10.629632596786015"><ele>147.0</ele><time>2026-04-19T13:28:54.998Z</time></trkpt><trkpt lat="43.51615558008583" lon="10.629525514300266"><ele>147.0</ele><time>2026-04-19T13:28:55.998Z</time></trkpt><trkpt lat="43.516196361711735" lon="10.629414654755465"><ele>147.33333333333334</ele><time>2026-04-19T13:28:56.998Z</time></trkpt><trkpt lat="43.516213499406526" lon="10.62928828278827"><ele>147.66666666666666</ele><time>2026-04-19T13:28:57.998Z</time></trkpt><trkpt lat="43.516208503966105" lon="10.62915798052524"><ele>148.0</ele><time>2026-04-19T13:28:58.998Z</time></trkpt><trkpt lat="43.51621470956567" lon="10.629031824645491"><ele>148.33333333333331</ele><time>2026-04-19T13:28:59.998Z</time></trkpt><trkpt lat="43.51622213801019" lon="10.628915684820665"><ele>148.66666666666666</ele><time>2026-04-19T13:29:00.998Z</time></trkpt><trkpt lat="43.51622287936981" lon="10.628799588644585"><ele>149.0</ele><time>2026-04-19T13:29:01.998Z</time></trkpt><trkpt lat="43.516272585365414" lon="10.62868442275779"><ele>150.4</ele><time>2026-04-19T13:29:02.998Z</time></trkpt><trkpt lat="43.516333464747106" lon="10.628581555453252"><ele>151.8</ele><time>2026-04-19T13:29:03.998Z</time></trkpt><trkpt lat="43.51640399920991" lon="10.6284891322429"><ele>153.2</ele><time>2026-04-19T13:29:04.998Z</time></trkpt><trkpt lat="43.516485305411834" lon="10.628402183094938"><ele>154.6</ele><time>2026-04-19T13:29:05.998Z</time></trkpt><trkpt lat="43.51658551017338" lon="10.62831506436593"><ele>156.0</ele><time>2026-04-19T13:29:06.999Z</time></trkpt><trkpt lat="43.5166790360951" lon="10.62822461006105"><ele>156.0</ele><time>2026-04-19T13:29:07.999Z</time></trkpt><trkpt lat="43.5167718692121" lon="10.628142818908602"><ele>156.0</ele><time>2026-04-19T13:29:08.999Z</time></trkpt><trkpt lat="43.51687219362548" lon="10.628068948440934"><ele>156.0</ele><time>2026-04-19T13:29:09.999Z</time></trkpt><trkpt lat="43.51697368212905" lon="10.628006393702847"><ele>156.0</ele><time>2026-04-19T13:29:10.999Z</time></trkpt><trkpt lat="43.517072797775356" lon="10.627941522466308"><ele>156.0</ele><time>2026-04-19T13:29:11.999Z</time></trkpt><trkpt lat="43.51717077598426" lon="10.627868116574072"><ele>156.75</ele><time>2026-04-19T13:29:12.999Z</time></trkpt><trkpt lat="43.517259986767115" lon="10.627770962810082"><ele>157.5</ele><time>2026-04-19T13:29:13.999Z</time></trkpt><trkpt lat="43.517345827794806" lon="10.627662767077933"><ele>158.25</ele><time>2026-04-19T13:29:14.999Z</time></trkpt><trkpt lat="43.5174115973968" lon="10.627535409000904"><ele>159.0</ele><time>2026-04-19T13:29:15.999Z</time></trkpt><trkpt lat="43.51747210552556" lon="10.627410811128135"><ele>159.0</ele><time>2026-04-19T13:29:16.999Z</time></trkpt><trkpt lat="43.5175367262989" lon="10.627289972948734"><ele>159.0</ele><time>2026-04-19T13:29:17.999Z</time></trkpt><trkpt lat="43.51761487805183" lon="10.627189726573246"><ele>159.0</ele><time>2026-04-19T13:29:18.999Z</time></trkpt><trkpt lat="43.51770752159461" lon="10.627116159063993"><ele>159.0</ele><time>2026-04-19T13:29:19.999Z</time></trkpt><trkpt lat="43.517899596272265" lon="10.627024711933968"><ele>160.2</ele><time>2026-04-19T13:29:21.999Z</time></trkpt><trkpt lat="43.517990763383956" lon="10.626964504875737"><ele>161.4</ele><time>2026-04-19T13:29:22.999Z</time></trkpt><trkpt lat="43.518074215802876" lon="10.626871666723948"><ele>162.6</ele><time>2026-04-19T13:29:23.999Z</time></trkpt><trkpt lat="43.51813949708462" lon="10.626757018762548"><ele>163.8</ele><time>2026-04-19T13:29:24.999Z</time></trkpt><trkpt lat="43.51820573462066" lon="10.626639091737248"><ele>165.0</ele><time>2026-04-19T13:29:25.999Z</time></trkpt><trkpt lat="43.518271345957274" lon="10.626511117801433"><ele>165.0</ele><time>2026-04-19T13:29:26.999Z</time></trkpt><trkpt lat="43.51833435866377" lon="10.626383326130709"><ele>165.0</ele><time>2026-04-19T13:29:27.999Z</time></trkpt><trkpt lat="43.51839661304199" lon="10.626256108169818"><ele>165.0</ele><time>2026-04-19T13:29:28.999Z</time></trkpt><trkpt lat="43.51845661890561" lon="10.626136158995624"><ele>165.0</ele><time>2026-04-19T13:29:29.999Z</time></trkpt><trkpt lat="43.518516887185314" lon="10.626019980477897"><ele>165.0</ele><time>2026-04-19T13:29:30.999Z</time></trkpt><trkpt lat="43.51857793429952" lon="10.625909262753487"><ele>165.0</ele><time>2026-04-19T13:29:31.999Z</time></trkpt><trkpt lat="43.51864085562894" lon="10.625802335778005"><ele>165.0</ele><time>2026-04-19T13:29:32.999Z</time></trkpt><trkpt lat="43.51870428814743" lon="10.625695560077506"><ele>165.0</ele><time>2026-04-19T13:29:33.999Z</time></trkpt><trkpt lat="43.51877194623272" lon="10.625595443756211"><ele>165.0</ele><time>2026-04-19T13:29:34.999Z</time></trkpt><trkpt lat="43.51885017934506" lon="10.625502831759931"><ele>165.0</ele><time>2026-04-19T13:29:35.999Z</time></trkpt><trkpt lat="43.518930807994636" lon="10.625407324797546"><ele>165.0</ele><time>2026-04-19T13:29:36.999Z</time></trkpt><trkpt lat="43.51901029799595" lon="10.625317770384521"><ele>165.0</ele><time>2026-04-19T13:29:37.999Z</time></trkpt><trkpt lat="43.519087772581386" lon="10.625235703127942"><ele>165.0</ele><time>2026-04-19T13:29:38.999Z</time></trkpt><trkpt lat="43.519159454347275" lon="10.625154995853553"><ele>165.0</ele><time>2026-04-19T13:29:39.999Z</time></trkpt><trkpt lat="43.51923394737965" lon="10.625076013592695"><ele>165.0</ele><time>2026-04-19T13:29:40.999Z</time></trkpt><trkpt lat="43.51930204852144" lon="10.62500414728966"><ele>166.75</ele><time>2026-04-19T13:29:41.999Z</time></trkpt><trkpt lat="43.519359851625836" lon="10.624939908889218"><ele>168.5</ele><time>2026-04-19T13:29:42.999Z</time></trkpt><trkpt lat="43.51944291785218" lon="10.624848206842831"><ele>170.25</ele><time>2026-04-19T13:29:44.999Z</time></trkpt><trkpt lat="43.51949938796018" lon="10.624767004568346"><ele>172.0</ele><time>2026-04-19T13:29:46.999Z</time></trkpt><trkpt lat="43.51935917828685" lon="10.624594118825954"><ele>172.0</ele><time>2026-04-19T13:29:50.999Z</time></trkpt><trkpt lat="43.51928996852529" lon="10.624587023842393"><ele>172.0</ele><time>2026-04-19T13:29:51.999Z</time></trkpt><trkpt lat="43.519211231796454" lon="10.62457861417268"><ele>172.0</ele><time>2026-04-19T13:29:52.999Z</time></trkpt><trkpt lat="43.51912587335089" lon="10.624566439207038"><ele>172.0</ele><time>2026-04-19T13:29:53.999Z</time></trkpt><trkpt lat="43.5190369310378" lon="10.624545541633498"><ele>172.0</ele><time>2026-04-19T13:29:54.999Z</time></trkpt><trkpt lat="43.51893046041961" lon="10.624508708685592"><ele>172.0</ele><time>2026-04-19T13:29:56Z</time></trkpt><trkpt lat="43.51883669414845" lon="10.624481542669225"><ele>171.8</ele><time>2026-04-19T13:29:57Z</time></trkpt><trkpt lat="43.518742776611255" lon="10.624460979704255"><ele>171.6</ele><time>2026-04-19T13:29:58Z</time></trkpt><trkpt lat="43.51864418160398" lon="10.624453510586974"><ele>171.4</ele><time>2026-04-19T13:29:59Z</time></trkpt><trkpt lat="43.51854940969413" lon="10.624428146836381"><ele>171.20000000000002</ele><time>2026-04-19T13:30:00Z</time></trkpt><trkpt lat="43.51844446721115" lon="10.62439715542519"><ele>171.0</ele><time>2026-04-19T13:30:01Z</time></trkpt><trkpt lat="43.51834086001472" lon="10.624369766802294"><ele>173.25</ele><time>2026-04-19T13:30:02Z</time></trkpt><trkpt lat="43.5182332497006" lon="10.62433232688944"><ele>175.5</ele><time>2026-04-19T13:30:03Z</time></trkpt><trkpt lat="43.51811769050921" lon="10.624314896847036"><ele>177.75</ele><time>2026-04-19T13:30:04Z</time></trkpt><trkpt lat="43.518003398778305" lon="10.624283948888058"><ele>180.0</ele><time>2026-04-19T13:30:05Z</time></trkpt><trkpt lat="43.51788911530374" lon="10.624254378350601"><ele>182.4</ele><time>2026-04-19T13:30:06Z</time></trkpt><trkpt lat="43.517771716142235" lon="10.624223884916983"><ele>184.8</ele><time>2026-04-19T13:30:07Z</time></trkpt><trkpt lat="43.517659027581814" lon="10.624198207125117"><ele>187.2</ele><time>2026-04-19T13:30:08Z</time></trkpt><trkpt lat="43.51754940956938" lon="10.624171185489738"><ele>189.6</ele><time>2026-04-19T13:30:09Z</time></trkpt><trkpt lat="43.5174476351458" lon="10.624148366489413"><ele>192.0</ele><time>2026-04-19T13:30:10Z</time></trkpt><trkpt lat="43.5173558930731" lon="10.624110141848798"><ele>192.0</ele><time>2026-04-19T13:30:11Z</time></trkpt><trkpt lat="43.517269274418794" lon="10.624071393824513"><ele>192.0</ele><time>2026-04-19T13:30:12Z</time></trkpt><trkpt lat="43.51717927990455" lon="10.624015781574489"><ele>192.0</ele><time>2026-04-19T13:30:13Z</time></trkpt><trkpt lat="43.51709348441299" lon="10.623961286311097"><ele>192.0</ele><time>2026-04-19T13:30:14Z</time></trkpt><trkpt lat="43.51702641843772" lon="10.62385692334196"><ele>192.0</ele><time>2026-04-19T13:30:15Z</time></trkpt><trkpt lat="43.51697934679033" lon="10.623742585668765"><ele>194.0</ele><time>2026-04-19T13:30:16Z</time></trkpt><trkpt lat="43.516961421683575" lon="10.623604592019074"><ele>196.0</ele><time>2026-04-19T13:30:17Z</time></trkpt><trkpt lat="43.51691193406212" lon="10.623465874117526"><ele>198.0</ele><time>2026-04-19T13:30:18Z</time></trkpt><trkpt lat="43.51687899548702" lon="10.62332753801754"><ele>200.0</ele><time>2026-04-19T13:30:19Z</time></trkpt><trkpt lat="43.51684021093296" lon="10.623195701187036"><ele>202.0</ele><time>2026-04-19T13:30:20Z</time></trkpt><trkpt lat="43.51679636695269" lon="10.623060169378707"><ele>202.0</ele><time>2026-04-19T13:30:21Z</time></trkpt><trkpt lat="43.51674318695004" lon="10.622924216439115"><ele>202.0</ele><time>2026-04-19T13:30:22Z</time></trkpt><trkpt lat="43.51667859581006" lon="10.622791130199277"><ele>202.0</ele><time>2026-04-19T13:30:23Z</time></trkpt><trkpt lat="43.51661764640486" lon="10.622657472935082"><ele>202.0</ele><time>2026-04-19T13:30:24Z</time></trkpt><trkpt lat="43.51652365636178" lon="10.62255947862696"><ele>202.25</ele><time>2026-04-19T13:30:25Z</time></trkpt><trkpt lat="43.51643156404656" lon="10.622455396930375"><ele>202.5</ele><time>2026-04-19T13:30:26Z</time></trkpt><trkpt lat="43.51632750858684" lon="10.62236519346709"><ele>202.75</ele><time>2026-04-19T13:30:27Z</time></trkpt><trkpt lat="43.516222373718" lon="10.622265726703876"><ele>203.0</ele><time>2026-04-19T13:30:28Z</time></trkpt><trkpt lat="43.51609988536153" lon="10.62221876104553"><ele>204.25</ele><time>2026-04-19T13:30:29Z</time></trkpt><trkpt lat="43.51596497732356" lon="10.622187811808766"><ele>205.5</ele><time>2026-04-19T13:30:30Z</time></trkpt><trkpt lat="43.51583519817212" lon="10.622179500994513"><ele>206.75</ele><time>2026-04-19T13:30:31Z</time></trkpt><trkpt lat="43.515693149678825" lon="10.62220136955113"><ele>208.0</ele><time>2026-04-19T13:30:32Z</time></trkpt><trkpt lat="43.51555964227711" lon="10.622197674193416"><ele>208.0</ele><time>2026-04-19T13:30:33Z</time></trkpt><trkpt lat="43.515426525844575" lon="10.622193233588542"><ele>208.0</ele><time>2026-04-19T13:30:34Z</time></trkpt><trkpt lat="43.51529769021219" lon="10.62218349458428"><ele>208.0</ele><time>2026-04-19T13:30:35Z</time></trkpt><trkpt lat="43.51517280357449" lon="10.62216993848499"><ele>208.0</ele><time>2026-04-19T13:30:36Z</time></trkpt><trkpt lat="43.51505081643586" lon="10.622152358396352"><ele>209.5</ele><time>2026-04-19T13:30:37Z</time></trkpt><trkpt lat="43.51492321316149" lon="10.622124594745532"><ele>211.0</ele><time>2026-04-19T13:30:38Z</time></trkpt><trkpt lat="43.51479693851026" lon="10.622095911903553"><ele>212.5</ele><time>2026-04-19T13:30:39Z</time></trkpt><trkpt lat="43.514668988505385" lon="10.622060766819109"><ele>214.0</ele><time>2026-04-19T13:30:40Z</time></trkpt><trkpt lat="43.514548634234416" lon="10.62201376988546"><ele>216.25</ele><time>2026-04-19T13:30:41Z</time></trkpt><trkpt lat="43.514432001762025" lon="10.62195009942233"><ele>218.5</ele><time>2026-04-19T13:30:42Z</time></trkpt><trkpt lat="43.51432139110813" lon="10.621879688997222"><ele>220.75</ele><time>2026-04-19T13:30:43Z</time></trkpt><trkpt lat="43.514211896051116" lon="10.621793999785936"><ele>223.0</ele><time>2026-04-19T13:30:44Z</time></trkpt><trkpt lat="43.51409218656328" lon="10.621715595283936"><ele>223.0</ele><time>2026-04-19T13:30:45Z</time></trkpt><trkpt lat="43.51397285485422" lon="10.621636804437287"><ele>223.0</ele><time>2026-04-19T13:30:46Z</time></trkpt><trkpt lat="43.513842547842295" lon="10.621618335667568"><ele>223.0</ele><time>2026-04-19T13:30:47Z</time></trkpt><trkpt lat="43.51372799829042" lon="10.621585249305499"><ele>223.0</ele><time>2026-04-19T13:30:48Z</time></trkpt><trkpt lat="43.51362220215063" lon="10.62154533736189"><ele>223.60000000000002</ele><time>2026-04-19T13:30:49Z</time></trkpt><trkpt lat="43.513541002584255" lon="10.62147161181713"><ele>224.20000000000002</ele><time>2026-04-19T13:30:50Z</time></trkpt><trkpt lat="43.51347539252489" lon="10.621376204928366"><ele>224.8</ele><time>2026-04-19T13:30:51Z</time></trkpt><trkpt lat="43.51346465316602" lon="10.621232554256972"><ele>225.4</ele><time>2026-04-19T13:30:52Z</time></trkpt><trkpt lat="43.51346860643729" lon="10.621096190618472"><ele>226.0</ele><time>2026-04-19T13:30:53Z</time></trkpt><trkpt lat="43.51352617766187" lon="10.621027363873202"><ele>226.60000000000002</ele><time>2026-04-19T13:30:54Z</time></trkpt><trkpt lat="43.51358727258923" lon="10.620945338905056"><ele>227.20000000000002</ele><time>2026-04-19T13:30:55Z</time></trkpt><trkpt lat="43.513653483515924" lon="10.620855028369366"><ele>227.79999999999998</ele><time>2026-04-19T13:30:56Z</time></trkpt><trkpt lat="43.51372399261708" lon="10.620760461554557"><ele>228.39999999999998</ele><time>2026-04-19T13:30:57Z</time></trkpt><trkpt lat="43.513791486996126" lon="10.620660965903491"><ele>229.0</ele><time>2026-04-19T13:30:57.998Z</time></trkpt><trkpt lat="43.513863678925816" lon="10.62056593335945"><ele>229.0</ele><time>2026-04-19T13:30:58.998Z</time></trkpt><trkpt lat="43.51393527299442" lon="10.620470081118862"><ele>228.99999999999997</ele><time>2026-04-19T13:30:59.998Z</time></trkpt><trkpt lat="43.51400216283849" lon="10.620369995954654"><ele>228.99999999999997</ele><time>2026-04-19T13:31:00.998Z</time></trkpt><trkpt lat="43.51405504271909" lon="10.620253062725627"><ele>229.0</ele><time>2026-04-19T13:31:01.998Z</time></trkpt><trkpt lat="43.51409614712083" lon="10.620131365751897"><ele>229.0</ele><time>2026-04-19T13:31:02.998Z</time></trkpt><trkpt lat="43.51413114717221" lon="10.619996321450927"><ele>230.16666666666666</ele><time>2026-04-19T13:31:03.998Z</time></trkpt><trkpt lat="43.51412661898244" lon="10.619873110698583"><ele>231.33333333333331</ele><time>2026-04-19T13:31:04.998Z</time></trkpt><trkpt lat="43.5140987314934" lon="10.619759936923813"><ele>232.5</ele><time>2026-04-19T13:31:05.998Z</time></trkpt><trkpt lat="43.514036964526696" lon="10.619685849048933"><ele>233.66666666666669</ele><time>2026-04-19T13:31:06.998Z</time></trkpt><trkpt lat="43.51395866596365" lon="10.619622271196949"><ele>234.83333333333334</ele><time>2026-04-19T13:31:07.998Z</time></trkpt><trkpt lat="43.513871840792106" lon="10.619580379133257"><ele>236.0</ele><time>2026-04-19T13:31:08.998Z</time></trkpt><trkpt lat="43.51378213345728" lon="10.61954128506153"><ele>237.00000000000003</ele><time>2026-04-19T13:31:09.998Z</time></trkpt><trkpt lat="43.51369419033957" lon="10.619516952519776"><ele>238.0</ele><time>2026-04-19T13:31:10.998Z</time></trkpt><trkpt lat="43.5136149580137" lon="10.61947658394129"><ele>239.0</ele><time>2026-04-19T13:31:11.998Z</time></trkpt><trkpt lat="43.51352864838531" lon="10.619436681466206"><ele>240.0</ele><time>2026-04-19T13:31:12.999Z</time></trkpt><trkpt lat="43.51344604976445" lon="10.619397843251676"><ele>241.00000000000003</ele><time>2026-04-19T13:31:13.999Z</time></trkpt><trkpt lat="43.51336078755264" lon="10.619355927346072"><ele>242.0</ele><time>2026-04-19T13:31:14.999Z</time></trkpt><trkpt lat="43.513274868187274" lon="10.619319495140763"><ele>242.8</ele><time>2026-04-19T13:31:15.999Z</time></trkpt><trkpt lat="43.51318673620215" lon="10.61928092041907"><ele>243.6</ele><time>2026-04-19T13:31:16.999Z</time></trkpt><trkpt lat="43.5131006952542" lon="10.619245827554087"><ele>244.40000000000003</ele><time>2026-04-19T13:31:17.999Z</time></trkpt><trkpt lat="43.513015910886665" lon="10.619204241086472"><ele>245.20000000000002</ele><time>2026-04-19T13:31:18.999Z</time></trkpt><trkpt lat="43.51292930566642" lon="10.61916342359408"><ele>246.0</ele><time>2026-04-19T13:31:19.999Z</time></trkpt><trkpt lat="43.51284605348488" lon="10.619119695257476"><ele>247.8</ele><time>2026-04-19T13:31:20.999Z</time></trkpt><trkpt lat="43.51276164082941" lon="10.619078401130398"><ele>249.60000000000002</ele><time>2026-04-19T13:31:21.999Z</time></trkpt><trkpt lat="43.512679938227905" lon="10.619032769485582"><ele>251.4</ele><time>2026-04-19T13:31:22.999Z</time></trkpt><trkpt lat="43.512590593454235" lon="10.618982066848416"><ele>253.2</ele><time>2026-04-19T13:31:23.999Z</time></trkpt><trkpt lat="43.5125012715533" lon="10.618926579104286"><ele>255.0</ele><time>2026-04-19T13:31:24.999Z</time></trkpt><trkpt lat="43.51233499994705" lon="10.618846081369433"><ele>255.0</ele><time>2026-04-19T13:31:26.999Z</time></trkpt><trkpt lat="43.51224743840653" lon="10.61879909446065"><ele>255.0</ele><time>2026-04-19T13:31:27.999Z</time></trkpt><trkpt lat="43.51216606047266" lon="10.618743979540216"><ele>255.0</ele><time>2026-04-19T13:31:28.999Z</time></trkpt><trkpt lat="43.51209044430685" lon="10.618680646380037"><ele>255.0</ele><time>2026-04-19T13:31:29.999Z</time></trkpt><trkpt lat="43.51203844567523" lon="10.618616437173197"><ele>255.0</ele><time>2026-04-19T13:31:30.999Z</time></trkpt><trkpt lat="43.511975631700736" lon="10.618558300965708"><ele>255.0</ele><time>2026-04-19T13:31:31.999Z</time></trkpt><trkpt lat="43.51191322821448" lon="10.618504000982972"><ele>256.5</ele><time>2026-04-19T13:31:32.999Z</time></trkpt><trkpt lat="43.5118482014353" lon="10.61844922835123"><ele>258.0</ele><time>2026-04-19T13:31:33.999Z</time></trkpt><trkpt lat="43.51177833972532" lon="10.618397998456139"><ele>259.5</ele><time>2026-04-19T13:31:34.999Z</time></trkpt><trkpt lat="43.51170280651532" lon="10.618348431394116"><ele>261.0</ele><time>2026-04-19T13:31:35.999Z</time></trkpt><trkpt lat="43.51162076184201" lon="10.618312744080576"><ele>262.5</ele><time>2026-04-19T13:31:36.999Z</time></trkpt><trkpt lat="43.51153581366525" lon="10.61828603758156"><ele>264.0</ele><time>2026-04-19T13:31:37.999Z</time></trkpt><trkpt lat="43.511443140304664" lon="10.618259312782804"><ele>264.0</ele><time>2026-04-19T13:31:38.999Z</time></trkpt><trkpt lat="43.51135116549506" lon="10.618242822672137"><ele>264.0</ele><time>2026-04-19T13:31:39.999Z</time></trkpt><trkpt lat="43.511255236255636" lon="10.61822153004839"><ele>264.0</ele><time>2026-04-19T13:31:40.999Z</time></trkpt><trkpt lat="43.51116043914899" lon="10.618202038251942"><ele>264.0</ele><time>2026-04-19T13:31:41.999Z</time></trkpt><trkpt lat="43.51106816172625" lon="10.61818199352961"><ele>264.0</ele><time>2026-04-19T13:31:42.999Z</time></trkpt><trkpt lat="43.510976007563855" lon="10.618162945206656"><ele>265.5</ele><time>2026-04-19T13:31:43.999Z</time></trkpt><trkpt lat="43.51088402869654" lon="10.618156497706853"><ele>267.0</ele><time>2026-04-19T13:31:44.999Z</time></trkpt><trkpt lat="43.51079304864933" lon="10.618161920874106"><ele>268.5</ele><time>2026-04-19T13:31:46Z</time></trkpt><trkpt lat="43.51070566994761" lon="10.618187176034638"><ele>270.0</ele><time>2026-04-19T13:31:47Z</time></trkpt><trkpt lat="43.510625847166075" lon="10.618224213709796"><ele>271.5</ele><time>2026-04-19T13:31:48Z</time></trkpt><trkpt lat="43.51055534348773" lon="10.618266251987007"><ele>273.0</ele><time>2026-04-19T13:31:49Z</time></trkpt><trkpt lat="43.510499191992075" lon="10.618311484939097"><ele>275.0</ele><time>2026-04-19T13:31:50Z</time></trkpt><trkpt lat="43.510399168477036" lon="10.618414815479154"><ele>277.0</ele><time>2026-04-19T13:31:52Z</time></trkpt><trkpt lat="43.510295282195635" lon="10.618508077569382"><ele>279.0</ele><time>2026-04-19T13:31:54Z</time></trkpt><trkpt lat="43.51023682392845" lon="10.618555048973617"><ele>281.0</ele><time>2026-04-19T13:31:55Z</time></trkpt><trkpt lat="43.51016920952981" lon="10.618578334839416"><ele>283.0</ele><time>2026-04-19T13:31:56Z</time></trkpt><trkpt lat="43.51009881169707" lon="10.618571321444486"><ele>283.0</ele><time>2026-04-19T13:31:57Z</time></trkpt><trkpt lat="43.51001620023819" lon="10.618449187808467"><ele>283.0</ele><time>2026-04-19T13:31:59Z</time></trkpt><trkpt lat="43.50997124594827" lon="10.618295910051526"><ele>283.0</ele><time>2026-04-19T13:32:01Z</time></trkpt><trkpt lat="43.50994622690545" lon="10.618214397435713"><ele>283.0</ele><time>2026-04-19T13:32:02Z</time></trkpt><trkpt lat="43.50987598449955" lon="10.618055072196832"><ele>283.0</ele><time>2026-04-19T13:32:04Z</time></trkpt><trkpt lat="43.5098517245696" lon="10.6179601072398"><ele>283.0</ele><time>2026-04-19T13:32:05Z</time></trkpt><trkpt lat="43.509816505480174" lon="10.617863353217178"><ele>283.0</ele><time>2026-04-19T13:32:06Z</time></trkpt><trkpt lat="43.509776994986545" lon="10.617764490853329"><ele>283.0</ele><time>2026-04-19T13:32:07Z</time></trkpt><trkpt lat="43.50972925021279" lon="10.617664506009499"><ele>283.0</ele><time>2026-04-19T13:32:08Z</time></trkpt><trkpt lat="43.50966547071247" lon="10.617574442640125"><ele>283.0</ele><time>2026-04-19T13:32:09Z</time></trkpt><trkpt lat="43.50961506723107" lon="10.617478837054076"><ele>283.0</ele><time>2026-04-19T13:32:10Z</time></trkpt><trkpt lat="43.50957037453512" lon="10.617390018400467"><ele>283.57142857142856</ele><time>2026-04-19T13:32:11Z</time></trkpt><trkpt lat="43.50952562001594" lon="10.61730481192762"><ele>284.14285714285717</ele><time>2026-04-19T13:32:12Z</time></trkpt><trkpt lat="43.50948150174682" lon="10.617226337704912"><ele>284.7142857142857</ele><time>2026-04-19T13:32:13Z</time></trkpt><trkpt lat="43.509439844870144" lon="10.617149010673728"><ele>285.2857142857143</ele><time>2026-04-19T13:32:14Z</time></trkpt><trkpt lat="43.509394602588145" lon="10.617072055380648"><ele>285.8571428571429</ele><time>2026-04-19T13:32:15Z</time></trkpt><trkpt lat="43.50935124186105" lon="10.616992551224598"><ele>286.42857142857144</ele><time>2026-04-19T13:32:16Z</time></trkpt><trkpt lat="43.50931853465021" lon="10.616906955902172"><ele>287.0</ele><time>2026-04-19T13:32:17Z</time></trkpt><trkpt lat="43.5092816775021" lon="10.616836126189316"><ele>288.0</ele><time>2026-04-19T13:32:18Z</time></trkpt><trkpt lat="43.509208920062015" lon="10.61671047448594"><ele>289.0</ele><time>2026-04-19T13:32:20Z</time></trkpt><trkpt lat="43.50915473426232" lon="10.616615379031753"><ele>290.0</ele><time>2026-04-19T13:32:22Z</time></trkpt><trkpt lat="43.50910883258059" lon="10.616523155863819"><ele>291.0</ele><time>2026-04-19T13:32:24Z</time></trkpt><trkpt lat="43.5090820926352" lon="10.61640876472844"><ele>292.0</ele><time>2026-04-19T13:32:26Z</time></trkpt><trkpt lat="43.50893279546272" lon="10.616371051253122"><ele>292.0</ele><time>2026-04-19T13:32:29Z</time></trkpt><trkpt lat="43.50883293261143" lon="10.616468454284828"><ele>292.0</ele><time>2026-04-19T13:32:31Z</time></trkpt><trkpt lat="43.50877873600599" lon="10.616534844950348"><ele>292.0</ele><time>2026-04-19T13:32:32Z</time></trkpt><trkpt lat="43.50872234843848" lon="10.616602904435002"><ele>292.0</ele><time>2026-04-19T13:32:33Z</time></trkpt><trkpt lat="43.50867060643754" lon="10.61666453562905"><ele>292.0</ele><time>2026-04-19T13:32:34Z</time></trkpt><trkpt lat="43.50861807468524" lon="10.616721219921038"><ele>292.0</ele><time>2026-04-19T13:32:35Z</time></trkpt><trkpt lat="43.50852932080408" lon="10.616836287253866"><ele>291.4</ele><time>2026-04-19T13:32:37Z</time></trkpt><trkpt lat="43.508442236440686" lon="10.616933485071987"><ele>290.79999999999995</ele><time>2026-04-19T13:32:39Z</time></trkpt><trkpt lat="43.50835850913974" lon="10.617066568695456"><ele>290.2</ele><time>2026-04-19T13:32:41Z</time></trkpt><trkpt lat="43.508292519553194" lon="10.617217038481586"><ele>289.59999999999997</ele><time>2026-04-19T13:32:43Z</time></trkpt><trkpt lat="43.50825197366802" lon="10.617291269695208"><ele>289.0</ele><time>2026-04-19T13:32:44Z</time></trkpt><trkpt lat="43.508218233319305" lon="10.617370460210003"><ele>289.0</ele><time>2026-04-19T13:32:45Z</time></trkpt><trkpt lat="43.50818674642742" lon="10.617449063376592"><ele>289.0</ele><time>2026-04-19T13:32:46Z</time></trkpt><trkpt lat="43.50815757255337" lon="10.617539456602834"><ele>289.0</ele><time>2026-04-19T13:32:47Z</time></trkpt><trkpt lat="43.508125977565534" lon="10.617631086889064"><ele>289.0</ele><time>2026-04-19T13:32:48Z</time></trkpt><trkpt lat="43.508100212280304" lon="10.617736641770989"><ele>289.0</ele><time>2026-04-19T13:32:49Z</time></trkpt><trkpt lat="43.50806456947542" lon="10.617836949382921"><ele>289.0</ele><time>2026-04-19T13:32:50Z</time></trkpt><trkpt lat="43.5080247697591" lon="10.617937382282896"><ele>288.3333333333333</ele><time>2026-04-19T13:32:51Z</time></trkpt><trkpt lat="43.507980585893186" lon="10.618038137453752"><ele>287.66666666666663</ele><time>2026-04-19T13:32:52Z</time></trkpt><trkpt lat="43.50793946099488" lon="10.618136043801641"><ele>287.0</ele><time>2026-04-19T13:32:53Z</time></trkpt><trkpt lat="43.50790713742187" lon="10.618227812713327"><ele>286.3333333333333</ele><time>2026-04-19T13:32:54Z</time></trkpt><trkpt lat="43.50785857414534" lon="10.618320237157251"><ele>285.6666666666667</ele><time>2026-04-19T13:32:55Z</time></trkpt><trkpt lat="43.507803750148334" lon="10.618406785797264"><ele>285.0</ele><time>2026-04-19T13:32:56Z</time></trkpt><trkpt lat="43.50774702313829" lon="10.618487503873753"><ele>285.0</ele><time>2026-04-19T13:32:57Z</time></trkpt><trkpt lat="43.50767946434705" lon="10.618535079034404"><ele>285.0</ele><time>2026-04-19T13:32:58Z</time></trkpt><trkpt lat="43.50761721047609" lon="10.618591214128246"><ele>285.0</ele><time>2026-04-19T13:32:59Z</time></trkpt><trkpt lat="43.50754958678931" lon="10.618646461578585"><ele>285.0</ele><time>2026-04-19T13:33:00Z</time></trkpt><trkpt lat="43.50748495632834" lon="10.618692937042972"><ele>285.0</ele><time>2026-04-19T13:33:01Z</time></trkpt><trkpt lat="43.507418574269145" lon="10.618731482734074"><ele>285.0</ele><time>2026-04-19T13:33:02Z</time></trkpt><trkpt lat="43.50735917670219" lon="10.618766733449261"><ele>285.0</ele><time>2026-04-19T13:33:03Z</time></trkpt><trkpt lat="43.50729590706799" lon="10.6187804975691"><ele>285.8</ele><time>2026-04-19T13:33:03.998Z</time></trkpt><trkpt lat="43.50719255109552" lon="10.618838373180333"><ele>286.6</ele><time>2026-04-19T13:33:05.998Z</time></trkpt><trkpt lat="43.50710396566992" lon="10.61891415112276"><ele>287.4</ele><time>2026-04-19T13:33:07.998Z</time></trkpt><trkpt lat="43.50702536660063" lon="10.619005742923541"><ele>288.2</ele><time>2026-04-19T13:33:09.999Z</time></trkpt><trkpt lat="43.506955814557394" lon="10.619103768132183"><ele>289.0</ele><time>2026-04-19T13:33:11.999Z</time></trkpt><trkpt lat="43.506876155480754" lon="10.619179573724297"><ele>289.0</ele><time>2026-04-19T13:33:13.999Z</time></trkpt><trkpt lat="43.506796472835546" lon="10.61922549533647"><ele>289.0</ele><time>2026-04-19T13:33:15.999Z</time></trkpt><trkpt lat="43.50670481991674" lon="10.619262280297052"><ele>289.0</ele><time>2026-04-19T13:33:17.999Z</time></trkpt><trkpt lat="43.50661658885577" lon="10.61929614021554"><ele>289.0</ele><time>2026-04-19T13:33:19.999Z</time></trkpt><trkpt lat="43.50653898584737" lon="10.619311379471403"><ele>289.0</ele><time>2026-04-19T13:33:21.999Z</time></trkpt><trkpt lat="43.506429330358074" lon="10.619301179897256"><ele>289.0</ele><time>2026-04-19T13:33:23.999Z</time></trkpt><trkpt lat="43.5063136554413" lon="10.619310862960203"><ele>289.0</ele><time>2026-04-19T13:33:25.999Z</time></trkpt><trkpt lat="43.50619193784227" lon="10.619314632272971"><ele>289.0</ele><time>2026-04-19T13:33:27.999Z</time></trkpt><trkpt lat="43.506080744648884" lon="10.619371672180778"><ele>289.0</ele><time>2026-04-19T13:33:29.999Z</time></trkpt><trkpt lat="43.505972683263806" lon="10.619406513966634"><ele>291.2</ele><time>2026-04-19T13:33:31.999Z</time></trkpt><trkpt lat="43.50587946434045" lon="10.619437626361979"><ele>293.4</ele><time>2026-04-19T13:33:33.999Z</time></trkpt><trkpt lat="43.50578896204918" lon="10.619459957540156"><ele>295.6</ele><time>2026-04-19T13:33:35.999Z</time></trkpt><trkpt lat="43.505693699689424" lon="10.619466068509459"><ele>297.8</ele><time>2026-04-19T13:33:37.999Z</time></trkpt><trkpt lat="43.5055936652953" lon="10.619416388753105"><ele>300.0</ele><time>2026-04-19T13:33:40Z</time></trkpt><trkpt lat="43.505480649444806" lon="10.619391531488349"><ele>301.5</ele><time>2026-04-19T13:33:42Z</time></trkpt><trkpt lat="43.505375125319475" lon="10.619353440883076"><ele>303.0</ele><time>2026-04-19T13:33:44Z</time></trkpt><trkpt lat="43.50529378277999" lon="10.619329375593097"><ele>304.5</ele><time>2026-04-19T13:33:46Z</time></trkpt><trkpt lat="43.50522472183899" lon="10.61931818125713"><ele>306.0</ele><time>2026-04-19T13:33:48Z</time></trkpt><trkpt lat="43.505164954449285" lon="10.619372712901207"><ele>307.5</ele><time>2026-04-19T13:33:50Z</time></trkpt><trkpt lat="43.50512784586866" lon="10.619488598165997"><ele>309.0</ele><time>2026-04-19T13:33:52Z</time></trkpt><trkpt lat="43.50506930666141" lon="10.619612445815672"><ele>309.0</ele><time>2026-04-19T13:33:54Z</time></trkpt><trkpt lat="43.505040662975546" lon="10.619758125836054"><ele>309.0</ele><time>2026-04-19T13:33:56Z</time></trkpt><trkpt lat="43.504981409524056" lon="10.619850276746297"><ele>309.0</ele><time>2026-04-19T13:33:58Z</time></trkpt><trkpt lat="43.504919619849026" lon="10.619901751174298"><ele>309.0</ele><time>2026-04-19T13:34:00Z</time></trkpt><trkpt lat="43.50486300876145" lon="10.619955250210573"><ele>309.0</ele><time>2026-04-19T13:34:02Z</time></trkpt><trkpt lat="43.50480066642198" lon="10.620023000744904"><ele>309.0</ele><time>2026-04-19T13:34:04Z</time></trkpt><trkpt lat="43.504753983636824" lon="10.620082876470818"><ele>309.0</ele><time>2026-04-19T13:34:06Z</time></trkpt><trkpt lat="43.504699112165376" lon="10.620145437343172"><ele>309.0</ele><time>2026-04-19T13:34:09Z</time></trkpt><trkpt lat="43.50462576272387" lon="10.620159124975581"><ele>309.0</ele><time>2026-04-19T13:34:14Z</time></trkpt><trkpt lat="43.50455844365044" lon="10.620124742079595"><ele>309.0</ele><time>2026-04-19T13:34:16Z</time></trkpt><trkpt lat="43.504509895385304" lon="10.620007047122122"><ele>309.0</ele><time>2026-04-19T13:34:18Z</time></trkpt><trkpt lat="43.5044582410892" lon="10.619882368792922"><ele>309.0</ele><time>2026-04-19T13:34:20Z</time></trkpt><trkpt lat="43.5044145963374" lon="10.619753865840993"><ele>309.3333333333333</ele><time>2026-04-19T13:34:22Z</time></trkpt><trkpt lat="43.50436477730243" lon="10.619638488480057"><ele>309.6666666666667</ele><time>2026-04-19T13:34:24Z</time></trkpt><trkpt lat="43.50434463567141" lon="10.619509875886774"><ele>310.0</ele><time>2026-04-19T13:34:26Z</time></trkpt><trkpt lat="43.5043260508993" lon="10.619393220578075"><ele>310.33333333333337</ele><time>2026-04-19T13:34:28Z</time></trkpt><trkpt lat="43.50430088962001" lon="10.61930640905152"><ele>310.6666666666667</ele><time>2026-04-19T13:34:32Z</time></trkpt><trkpt lat="43.50428700614953" lon="10.619219993601138"><ele>311.0</ele><time>2026-04-19T13:34:35Z</time></trkpt><trkpt lat="43.50454096845154" lon="10.619045302030537"><ele>311.1666666666667</ele><time>2026-04-19T13:34:36Z</time></trkpt><trkpt lat="43.504639775386124" lon="10.618975864913606"><ele>311.33333333333337</ele><time>2026-04-19T13:34:38Z</time></trkpt><trkpt lat="43.5047344866822" lon="10.618893648754938"><ele>311.5</ele><time>2026-04-19T13:34:40Z</time></trkpt><trkpt lat="43.50480407344015" lon="10.618834399193501"><ele>311.6666666666667</ele><time>2026-04-19T13:34:42Z</time></trkpt><trkpt lat="43.504851532280995" lon="10.618758756155646"><ele>311.8333333333333</ele><time>2026-04-19T13:34:44Z</time></trkpt><trkpt lat="43.50489766436837" lon="10.618684192902112"><ele>312.0</ele><time>2026-04-19T13:34:47Z</time></trkpt><trkpt lat="43.50493175108876" lon="10.618589567783726"><ele>312.8571428571429</ele><time>2026-04-19T13:34:51.001Z</time></trkpt><trkpt lat="43.50488715812219" lon="10.618490796203728"><ele>313.71428571428567</ele><time>2026-04-19T13:34:56.001Z</time></trkpt><trkpt lat="43.504833954515775" lon="10.618410732991606"><ele>314.57142857142856</ele><time>2026-04-19T13:34:59.001Z</time></trkpt><trkpt lat="43.50478116884169" lon="10.618332366905314"><ele>315.42857142857144</ele><time>2026-04-19T13:35:02.001Z</time></trkpt><trkpt lat="43.50477099667165" lon="10.618224532069998"><ele>316.28571428571433</ele><time>2026-04-19T13:35:05.001Z</time></trkpt><trkpt lat="43.50481055352377" lon="10.618155596839655"><ele>317.1428571428571</ele><time>2026-04-19T13:35:07.001Z</time></trkpt><trkpt lat="43.50487330473404" lon="10.618146272256144"><ele>318.0</ele><time>2026-04-19T13:35:09.001Z</time></trkpt><trkpt lat="43.50492305570952" lon="10.618203988497767"><ele>318.0</ele><time>2026-04-19T13:35:11.998Z</time></trkpt></trkseg></trk></gpx>